<?xml version="1.0" encoding="UTF-8"?>
<gpx version="1.1" creator="https://www.youtrack.es" xsi:schemaLocation="http://www.topografix.com/GPX/1/1 http://www.topografix.com/GPX/1/1/gpx.xsd http://www.garmin.com/xmlschemas/GpxExtensions/v3 http://www.garmin.com/xmlschemas/GpxExtensionsv3.xsd http://www.garmin.com/xmlschemas/TrackPointExtension/v1 http://www.garmin.com/xmlschemas/TrackPointExtensionv1.xsd" xmlns:gpxtpx="http://www.garmin.com/xmlschemas/TrackPointExtension/v1" xmlns:gpxx="http://www.garmin.com/xmlschemas/GpxExtensions/v3" xmlns:xsi="http://www.w3.org/2001/XMLSchema-instance">
  <metadata>
    <link href="https://www.youtrack.es">
      <text>YouTrack.es</text>
    </link>
    <time>2026-05-08T07:10:59Z</time>
  </metadata>
  <trk>
    <src>https://www.youtrack.es</src>
    <link href="https://www.youtrack.es/ruta/1776-l">
      <text>YouTrack.es</text>
    </link>
    <trkseg>
      <trkpt lat="42.218935" lon="-4.860826">
        <ele>793.5</ele>
        <time>2018-07-23T05:04:39.000Z</time>
      </trkpt>
      <trkpt lat="42.218956" lon="-4.860872">
        <ele>792</ele>
        <time>2018-07-23T05:04:40.000Z</time>
      </trkpt>
      <trkpt lat="42.218974" lon="-4.860922">
        <ele>792</ele>
        <time>2018-07-23T05:04:41.000Z</time>
      </trkpt>
      <trkpt lat="42.21899" lon="-4.860974">
        <ele>792</ele>
        <time>2018-07-23T05:04:42.000Z</time>
      </trkpt>
      <trkpt lat="42.219006" lon="-4.861028">
        <ele>792</ele>
        <time>2018-07-23T05:04:43.000Z</time>
      </trkpt>
      <trkpt lat="42.219032" lon="-4.861074">
        <ele>792</ele>
        <time>2018-07-23T05:04:44.000Z</time>
      </trkpt>
      <trkpt lat="42.219066" lon="-4.861115">
        <ele>792</ele>
        <time>2018-07-23T05:04:45.000Z</time>
      </trkpt>
      <trkpt lat="42.2191" lon="-4.861159">
        <ele>792</ele>
        <time>2018-07-23T05:04:46.000Z</time>
      </trkpt>
      <trkpt lat="42.219131" lon="-4.861204">
        <ele>792</ele>
        <time>2018-07-23T05:04:47.000Z</time>
      </trkpt>
      <trkpt lat="42.219161" lon="-4.861248">
        <ele>792</ele>
        <time>2018-07-23T05:04:48.000Z</time>
      </trkpt>
      <trkpt lat="42.219194" lon="-4.86129">
        <ele>792</ele>
        <time>2018-07-23T05:04:49.000Z</time>
      </trkpt>
      <trkpt lat="42.219232" lon="-4.861324">
        <ele>792</ele>
        <time>2018-07-23T05:04:50.000Z</time>
      </trkpt>
      <trkpt lat="42.219313" lon="-4.861386">
        <ele>792</ele>
        <time>2018-07-23T05:04:52.000Z</time>
      </trkpt>
      <trkpt lat="42.219395" lon="-4.861438">
        <ele>792</ele>
        <time>2018-07-23T05:04:54.000Z</time>
      </trkpt>
      <trkpt lat="42.219487" lon="-4.861498">
        <ele>792</ele>
        <time>2018-07-23T05:04:56.000Z</time>
      </trkpt>
      <trkpt lat="42.219529" lon="-4.86153">
        <ele>792</ele>
        <time>2018-07-23T05:04:57.000Z</time>
      </trkpt>
      <trkpt lat="42.219574" lon="-4.861556">
        <ele>792</ele>
        <time>2018-07-23T05:04:58.000Z</time>
      </trkpt>
      <trkpt lat="42.219621" lon="-4.861582">
        <ele>792</ele>
        <time>2018-07-23T05:04:59.000Z</time>
      </trkpt>
      <trkpt lat="42.219668" lon="-4.861604">
        <ele>792</ele>
        <time>2018-07-23T05:05:00.000Z</time>
      </trkpt>
      <trkpt lat="42.219714" lon="-4.861624">
        <ele>792</ele>
        <time>2018-07-23T05:05:01.000Z</time>
      </trkpt>
      <trkpt lat="42.219762" lon="-4.861641">
        <ele>792</ele>
        <time>2018-07-23T05:05:02.000Z</time>
      </trkpt>
      <trkpt lat="42.219811" lon="-4.861658">
        <ele>792</ele>
        <time>2018-07-23T05:05:03.000Z</time>
      </trkpt>
      <trkpt lat="42.219859" lon="-4.861676">
        <ele>792</ele>
        <time>2018-07-23T05:05:04.000Z</time>
      </trkpt>
      <trkpt lat="42.219907" lon="-4.861694">
        <ele>792</ele>
        <time>2018-07-23T05:05:05.000Z</time>
      </trkpt>
      <trkpt lat="42.219952" lon="-4.861713">
        <ele>792</ele>
        <time>2018-07-23T05:05:06.000Z</time>
      </trkpt>
      <trkpt lat="42.219994" lon="-4.861733">
        <ele>792</ele>
        <time>2018-07-23T05:05:07.000Z</time>
      </trkpt>
      <trkpt lat="42.220033" lon="-4.86175">
        <ele>792</ele>
        <time>2018-07-23T05:05:08.000Z</time>
      </trkpt>
      <trkpt lat="42.220072" lon="-4.861765">
        <ele>792</ele>
        <time>2018-07-23T05:05:09.000Z</time>
      </trkpt>
      <trkpt lat="42.220109" lon="-4.861778">
        <ele>792</ele>
        <time>2018-07-23T05:05:10.000Z</time>
      </trkpt>
      <trkpt lat="42.220144" lon="-4.861789">
        <ele>792</ele>
        <time>2018-07-23T05:05:11.000Z</time>
      </trkpt>
      <trkpt lat="42.220176" lon="-4.861798">
        <ele>792</ele>
        <time>2018-07-23T05:05:12.000Z</time>
      </trkpt>
      <trkpt lat="42.220206" lon="-4.861806">
        <ele>792</ele>
        <time>2018-07-23T05:05:13.000Z</time>
      </trkpt>
      <trkpt lat="42.220238" lon="-4.861817">
        <ele>792</ele>
        <time>2018-07-23T05:05:14.000Z</time>
      </trkpt>
      <trkpt lat="42.220274" lon="-4.86183">
        <ele>792</ele>
        <time>2018-07-23T05:05:15.000Z</time>
      </trkpt>
      <trkpt lat="42.220315" lon="-4.86184">
        <ele>792</ele>
        <time>2018-07-23T05:05:16.000Z</time>
      </trkpt>
      <trkpt lat="42.220357" lon="-4.861849">
        <ele>792</ele>
        <time>2018-07-23T05:05:17.000Z</time>
      </trkpt>
      <trkpt lat="42.220399" lon="-4.861858">
        <ele>792</ele>
        <time>2018-07-23T05:05:18.000Z</time>
      </trkpt>
      <trkpt lat="42.22044" lon="-4.861873">
        <ele>792</ele>
        <time>2018-07-23T05:05:19.000Z</time>
      </trkpt>
      <trkpt lat="42.220477" lon="-4.861897">
        <ele>792</ele>
        <time>2018-07-23T05:05:20.000Z</time>
      </trkpt>
      <trkpt lat="42.220512" lon="-4.861922">
        <ele>792</ele>
        <time>2018-07-23T05:05:21.000Z</time>
      </trkpt>
      <trkpt lat="42.220547" lon="-4.861947">
        <ele>792</ele>
        <time>2018-07-23T05:05:22.000Z</time>
      </trkpt>
      <trkpt lat="42.22058" lon="-4.861974">
        <ele>792</ele>
        <time>2018-07-23T05:05:23.000Z</time>
      </trkpt>
      <trkpt lat="42.220612" lon="-4.862005">
        <ele>792</ele>
        <time>2018-07-23T05:05:24.000Z</time>
      </trkpt>
      <trkpt lat="42.22064" lon="-4.862039">
        <ele>792</ele>
        <time>2018-07-23T05:05:25.000Z</time>
      </trkpt>
      <trkpt lat="42.220669" lon="-4.862074">
        <ele>792</ele>
        <time>2018-07-23T05:05:26.000Z</time>
      </trkpt>
      <trkpt lat="42.220696" lon="-4.86211">
        <ele>792</ele>
        <time>2018-07-23T05:05:27.000Z</time>
      </trkpt>
      <trkpt lat="42.220719" lon="-4.862149">
        <ele>792</ele>
        <time>2018-07-23T05:05:28.000Z</time>
      </trkpt>
      <trkpt lat="42.220738" lon="-4.862191">
        <ele>792</ele>
        <time>2018-07-23T05:05:29.000Z</time>
      </trkpt>
      <trkpt lat="42.220753" lon="-4.862237">
        <ele>792</ele>
        <time>2018-07-23T05:05:30.000Z</time>
      </trkpt>
      <trkpt lat="42.220765" lon="-4.862285">
        <ele>792</ele>
        <time>2018-07-23T05:05:31.000Z</time>
      </trkpt>
      <trkpt lat="42.220774" lon="-4.862336">
        <ele>792.3299968</ele>
        <time>2018-07-23T05:05:32.000Z</time>
      </trkpt>
      <trkpt lat="42.220781" lon="-4.862387">
        <ele>793</ele>
        <time>2018-07-23T05:05:33.000Z</time>
      </trkpt>
      <trkpt lat="42.220785" lon="-4.862441">
        <ele>793</ele>
        <time>2018-07-23T05:05:34.000Z</time>
      </trkpt>
      <trkpt lat="42.220788" lon="-4.862495">
        <ele>793</ele>
        <time>2018-07-23T05:05:35.000Z</time>
      </trkpt>
      <trkpt lat="42.220791" lon="-4.86255">
        <ele>793</ele>
        <time>2018-07-23T05:05:36.000Z</time>
      </trkpt>
      <trkpt lat="42.220791" lon="-4.862603">
        <ele>793</ele>
        <time>2018-07-23T05:05:37.000Z</time>
      </trkpt>
      <trkpt lat="42.22079" lon="-4.862654">
        <ele>793</ele>
        <time>2018-07-23T05:05:38.000Z</time>
      </trkpt>
      <trkpt lat="42.220789" lon="-4.862701">
        <ele>793.3299968</ele>
        <time>2018-07-23T05:05:39.000Z</time>
      </trkpt>
      <trkpt lat="42.220787" lon="-4.862743">
        <ele>794</ele>
        <time>2018-07-23T05:05:40.000Z</time>
      </trkpt>
      <trkpt lat="42.220784" lon="-4.862778">
        <ele>794</ele>
        <time>2018-07-23T05:05:41.000Z</time>
      </trkpt>
      <trkpt lat="42.220782" lon="-4.862803">
        <ele>794</ele>
        <time>2018-07-23T05:05:42.000Z</time>
      </trkpt>
      <trkpt lat="42.220781" lon="-4.862838">
        <ele>794</ele>
        <time>2018-07-23T05:05:44.000Z</time>
      </trkpt>
      <trkpt lat="42.220799" lon="-4.862826">
        <ele>794</ele>
        <time>2018-07-23T05:05:47.000Z</time>
      </trkpt>
      <trkpt lat="42.22079" lon="-4.862788">
        <ele>794</ele>
        <time>2018-07-23T05:05:49.000Z</time>
      </trkpt>
      <trkpt lat="42.220777" lon="-4.86274">
        <ele>793.6700032</ele>
        <time>2018-07-23T05:05:51.000Z</time>
      </trkpt>
      <trkpt lat="42.220776" lon="-4.862707">
        <ele>793</ele>
        <time>2018-07-23T05:05:52.000Z</time>
      </trkpt>
      <trkpt lat="42.220776" lon="-4.862673">
        <ele>793</ele>
        <time>2018-07-23T05:05:53.000Z</time>
      </trkpt>
      <trkpt lat="42.220778" lon="-4.862637">
        <ele>793</ele>
        <time>2018-07-23T05:05:54.000Z</time>
      </trkpt>
      <trkpt lat="42.220781" lon="-4.862601">
        <ele>793</ele>
        <time>2018-07-23T05:05:55.000Z</time>
      </trkpt>
      <trkpt lat="42.220782" lon="-4.862566">
        <ele>793</ele>
        <time>2018-07-23T05:05:56.000Z</time>
      </trkpt>
      <trkpt lat="42.220783" lon="-4.86253">
        <ele>793</ele>
        <time>2018-07-23T05:05:57.000Z</time>
      </trkpt>
      <trkpt lat="42.220787" lon="-4.862493">
        <ele>792.746155057994</ele>
        <time>2018-07-23T05:05:58.000Z</time>
      </trkpt>
      <trkpt lat="42.220795" lon="-4.862454">
        <ele>792</ele>
        <time>2018-07-23T05:05:59.000Z</time>
      </trkpt>
      <trkpt lat="42.220807" lon="-4.862413">
        <ele>792</ele>
        <time>2018-07-23T05:06:00.000Z</time>
      </trkpt>
      <trkpt lat="42.220822" lon="-4.86237">
        <ele>792</ele>
        <time>2018-07-23T05:06:01.000Z</time>
      </trkpt>
      <trkpt lat="42.220839" lon="-4.862324">
        <ele>792</ele>
        <time>2018-07-23T05:06:02.000Z</time>
      </trkpt>
      <trkpt lat="42.22086" lon="-4.862285">
        <ele>792</ele>
        <time>2018-07-23T05:06:03.000Z</time>
      </trkpt>
      <trkpt lat="42.220888" lon="-4.862251">
        <ele>792</ele>
        <time>2018-07-23T05:06:04.000Z</time>
      </trkpt>
      <trkpt lat="42.220919" lon="-4.862219">
        <ele>792</ele>
        <time>2018-07-23T05:06:05.000Z</time>
      </trkpt>
      <trkpt lat="42.220951" lon="-4.862184">
        <ele>792</ele>
        <time>2018-07-23T05:06:06.000Z</time>
      </trkpt>
      <trkpt lat="42.220984" lon="-4.862146">
        <ele>792</ele>
        <time>2018-07-23T05:06:07.000Z</time>
      </trkpt>
      <trkpt lat="42.221016" lon="-4.862106">
        <ele>792</ele>
        <time>2018-07-23T05:06:08.000Z</time>
      </trkpt>
      <trkpt lat="42.221049" lon="-4.862064">
        <ele>792</ele>
        <time>2018-07-23T05:06:09.000Z</time>
      </trkpt>
      <trkpt lat="42.221082" lon="-4.86202">
        <ele>792</ele>
        <time>2018-07-23T05:06:10.000Z</time>
      </trkpt>
      <trkpt lat="42.221116" lon="-4.861976">
        <ele>792</ele>
        <time>2018-07-23T05:06:11.000Z</time>
      </trkpt>
      <trkpt lat="42.221151" lon="-4.861932">
        <ele>792</ele>
        <time>2018-07-23T05:06:12.000Z</time>
      </trkpt>
      <trkpt lat="42.221186" lon="-4.861886">
        <ele>792</ele>
        <time>2018-07-23T05:06:13.000Z</time>
      </trkpt>
      <trkpt lat="42.221222" lon="-4.861838">
        <ele>792</ele>
        <time>2018-07-23T05:06:14.000Z</time>
      </trkpt>
      <trkpt lat="42.221258" lon="-4.86179">
        <ele>792</ele>
        <time>2018-07-23T05:06:15.000Z</time>
      </trkpt>
      <trkpt lat="42.221293" lon="-4.861742">
        <ele>792</ele>
        <time>2018-07-23T05:06:16.000Z</time>
      </trkpt>
      <trkpt lat="42.22133" lon="-4.861693">
        <ele>792</ele>
        <time>2018-07-23T05:06:17.000Z</time>
      </trkpt>
      <trkpt lat="42.221367" lon="-4.861645">
        <ele>791.6700032</ele>
        <time>2018-07-23T05:06:18.000Z</time>
      </trkpt>
      <trkpt lat="42.221403" lon="-4.861597">
        <ele>791</ele>
        <time>2018-07-23T05:06:19.000Z</time>
      </trkpt>
      <trkpt lat="42.221437" lon="-4.861549">
        <ele>791.253844942006</ele>
        <time>2018-07-23T05:06:20.000Z</time>
      </trkpt>
      <trkpt lat="42.221471" lon="-4.861502">
        <ele>792</ele>
        <time>2018-07-23T05:06:21.000Z</time>
      </trkpt>
      <trkpt lat="42.221504" lon="-4.861455">
        <ele>792</ele>
        <time>2018-07-23T05:06:22.000Z</time>
      </trkpt>
      <trkpt lat="42.221539" lon="-4.86141">
        <ele>792</ele>
        <time>2018-07-23T05:06:23.000Z</time>
      </trkpt>
      <trkpt lat="42.221574" lon="-4.861364">
        <ele>792</ele>
        <time>2018-07-23T05:06:24.000Z</time>
      </trkpt>
      <trkpt lat="42.221611" lon="-4.861319">
        <ele>792</ele>
        <time>2018-07-23T05:06:25.000Z</time>
      </trkpt>
      <trkpt lat="42.221647" lon="-4.861273">
        <ele>792</ele>
        <time>2018-07-23T05:06:26.000Z</time>
      </trkpt>
      <trkpt lat="42.221684" lon="-4.861226">
        <ele>792</ele>
        <time>2018-07-23T05:06:27.000Z</time>
      </trkpt>
      <trkpt lat="42.22172" lon="-4.86118">
        <ele>792</ele>
        <time>2018-07-23T05:06:28.000Z</time>
      </trkpt>
      <trkpt lat="42.221757" lon="-4.861134">
        <ele>792</ele>
        <time>2018-07-23T05:06:29.000Z</time>
      </trkpt>
      <trkpt lat="42.221794" lon="-4.861087">
        <ele>792</ele>
        <time>2018-07-23T05:06:30.000Z</time>
      </trkpt>
      <trkpt lat="42.22183" lon="-4.861039">
        <ele>792</ele>
        <time>2018-07-23T05:06:31.000Z</time>
      </trkpt>
      <trkpt lat="42.221866" lon="-4.86099">
        <ele>792</ele>
        <time>2018-07-23T05:06:32.000Z</time>
      </trkpt>
      <trkpt lat="42.2219" lon="-4.860942">
        <ele>792</ele>
        <time>2018-07-23T05:06:33.000Z</time>
      </trkpt>
      <trkpt lat="42.221936" lon="-4.860895">
        <ele>792</ele>
        <time>2018-07-23T05:06:34.000Z</time>
      </trkpt>
      <trkpt lat="42.221971" lon="-4.86085">
        <ele>792</ele>
        <time>2018-07-23T05:06:35.000Z</time>
      </trkpt>
      <trkpt lat="42.222004" lon="-4.860802">
        <ele>792</ele>
        <time>2018-07-23T05:06:36.000Z</time>
      </trkpt>
      <trkpt lat="42.222038" lon="-4.860755">
        <ele>792</ele>
        <time>2018-07-23T05:06:37.000Z</time>
      </trkpt>
      <trkpt lat="42.222072" lon="-4.860709">
        <ele>792</ele>
        <time>2018-07-23T05:06:38.000Z</time>
      </trkpt>
      <trkpt lat="42.222106" lon="-4.860663">
        <ele>792</ele>
        <time>2018-07-23T05:06:39.000Z</time>
      </trkpt>
      <trkpt lat="42.222141" lon="-4.860616">
        <ele>792</ele>
        <time>2018-07-23T05:06:40.000Z</time>
      </trkpt>
      <trkpt lat="42.222175" lon="-4.86057">
        <ele>792</ele>
        <time>2018-07-23T05:06:41.000Z</time>
      </trkpt>
      <trkpt lat="42.22221" lon="-4.860526">
        <ele>792</ele>
        <time>2018-07-23T05:06:42.000Z</time>
      </trkpt>
      <trkpt lat="42.222245" lon="-4.860482">
        <ele>792</ele>
        <time>2018-07-23T05:06:43.000Z</time>
      </trkpt>
      <trkpt lat="42.222279" lon="-4.860437">
        <ele>792</ele>
        <time>2018-07-23T05:06:44.000Z</time>
      </trkpt>
      <trkpt lat="42.222312" lon="-4.860393">
        <ele>792</ele>
        <time>2018-07-23T05:06:45.000Z</time>
      </trkpt>
      <trkpt lat="42.222347" lon="-4.860349">
        <ele>792</ele>
        <time>2018-07-23T05:06:46.000Z</time>
      </trkpt>
      <trkpt lat="42.222382" lon="-4.860305">
        <ele>792</ele>
        <time>2018-07-23T05:06:47.000Z</time>
      </trkpt>
      <trkpt lat="42.222415" lon="-4.860257">
        <ele>792</ele>
        <time>2018-07-23T05:06:48.000Z</time>
      </trkpt>
      <trkpt lat="42.222447" lon="-4.860208">
        <ele>792</ele>
        <time>2018-07-23T05:06:49.000Z</time>
      </trkpt>
      <trkpt lat="42.222476" lon="-4.860158">
        <ele>792</ele>
        <time>2018-07-23T05:06:50.000Z</time>
      </trkpt>
      <trkpt lat="42.222504" lon="-4.860106">
        <ele>792</ele>
        <time>2018-07-23T05:06:51.000Z</time>
      </trkpt>
      <trkpt lat="42.222529" lon="-4.860054">
        <ele>792</ele>
        <time>2018-07-23T05:06:52.000Z</time>
      </trkpt>
      <trkpt lat="42.222553" lon="-4.860001">
        <ele>792</ele>
        <time>2018-07-23T05:06:53.000Z</time>
      </trkpt>
      <trkpt lat="42.222576" lon="-4.859949">
        <ele>792</ele>
        <time>2018-07-23T05:06:54.000Z</time>
      </trkpt>
      <trkpt lat="42.222598" lon="-4.859896">
        <ele>792</ele>
        <time>2018-07-23T05:06:55.000Z</time>
      </trkpt>
      <trkpt lat="42.222617" lon="-4.859841">
        <ele>792</ele>
        <time>2018-07-23T05:06:56.000Z</time>
      </trkpt>
      <trkpt lat="42.222637" lon="-4.859784">
        <ele>792</ele>
        <time>2018-07-23T05:06:57.000Z</time>
      </trkpt>
      <trkpt lat="42.222657" lon="-4.859728">
        <ele>792.3299968</ele>
        <time>2018-07-23T05:06:58.000Z</time>
      </trkpt>
      <trkpt lat="42.222679" lon="-4.859672">
        <ele>793</ele>
        <time>2018-07-23T05:06:59.000Z</time>
      </trkpt>
      <trkpt lat="42.222697" lon="-4.859616">
        <ele>793</ele>
        <time>2018-07-23T05:07:00.000Z</time>
      </trkpt>
      <trkpt lat="42.222714" lon="-4.859562">
        <ele>793</ele>
        <time>2018-07-23T05:07:01.000Z</time>
      </trkpt>
      <trkpt lat="42.222732" lon="-4.859509">
        <ele>793</ele>
        <time>2018-07-23T05:07:02.000Z</time>
      </trkpt>
      <trkpt lat="42.22275" lon="-4.859456">
        <ele>793</ele>
        <time>2018-07-23T05:07:03.000Z</time>
      </trkpt>
      <trkpt lat="42.222768" lon="-4.859403">
        <ele>793</ele>
        <time>2018-07-23T05:07:04.000Z</time>
      </trkpt>
      <trkpt lat="42.222787" lon="-4.85935">
        <ele>793</ele>
        <time>2018-07-23T05:07:05.000Z</time>
      </trkpt>
      <trkpt lat="42.222805" lon="-4.859296">
        <ele>793</ele>
        <time>2018-07-23T05:07:06.000Z</time>
      </trkpt>
      <trkpt lat="42.222823" lon="-4.859243">
        <ele>793</ele>
        <time>2018-07-23T05:07:07.000Z</time>
      </trkpt>
      <trkpt lat="42.222843" lon="-4.859192">
        <ele>793</ele>
        <time>2018-07-23T05:07:08.000Z</time>
      </trkpt>
      <trkpt lat="42.222862" lon="-4.859142">
        <ele>793.326730540136</ele>
        <time>2018-07-23T05:07:09.000Z</time>
      </trkpt>
      <trkpt lat="42.22288" lon="-4.859093">
        <ele>794</ele>
        <time>2018-07-23T05:07:10.000Z</time>
      </trkpt>
      <trkpt lat="42.222898" lon="-4.859044">
        <ele>794</ele>
        <time>2018-07-23T05:07:11.000Z</time>
      </trkpt>
      <trkpt lat="42.222914" lon="-4.858993">
        <ele>794</ele>
        <time>2018-07-23T05:07:12.000Z</time>
      </trkpt>
      <trkpt lat="42.222929" lon="-4.858941">
        <ele>794</ele>
        <time>2018-07-23T05:07:13.000Z</time>
      </trkpt>
      <trkpt lat="42.222943" lon="-4.858888">
        <ele>794</ele>
        <time>2018-07-23T05:07:14.000Z</time>
      </trkpt>
      <trkpt lat="42.222961" lon="-4.858837">
        <ele>794</ele>
        <time>2018-07-23T05:07:15.000Z</time>
      </trkpt>
      <trkpt lat="42.22298" lon="-4.858787">
        <ele>794</ele>
        <time>2018-07-23T05:07:16.000Z</time>
      </trkpt>
      <trkpt lat="42.222999" lon="-4.858738">
        <ele>794</ele>
        <time>2018-07-23T05:07:17.000Z</time>
      </trkpt>
      <trkpt lat="42.223017" lon="-4.85869">
        <ele>794</ele>
        <time>2018-07-23T05:07:18.000Z</time>
      </trkpt>
      <trkpt lat="42.223034" lon="-4.858642">
        <ele>794</ele>
        <time>2018-07-23T05:07:19.000Z</time>
      </trkpt>
      <trkpt lat="42.22305" lon="-4.858594">
        <ele>794</ele>
        <time>2018-07-23T05:07:20.000Z</time>
      </trkpt>
      <trkpt lat="42.223067" lon="-4.858549">
        <ele>794</ele>
        <time>2018-07-23T05:07:21.000Z</time>
      </trkpt>
      <trkpt lat="42.223084" lon="-4.858504">
        <ele>794.3299968</ele>
        <time>2018-07-23T05:07:22.000Z</time>
      </trkpt>
      <trkpt lat="42.223099" lon="-4.858459">
        <ele>795</ele>
        <time>2018-07-23T05:07:23.000Z</time>
      </trkpt>
      <trkpt lat="42.223114" lon="-4.858414">
        <ele>795</ele>
        <time>2018-07-23T05:07:24.000Z</time>
      </trkpt>
      <trkpt lat="42.223129" lon="-4.858372">
        <ele>795</ele>
        <time>2018-07-23T05:07:25.000Z</time>
      </trkpt>
      <trkpt lat="42.223144" lon="-4.858327">
        <ele>795</ele>
        <time>2018-07-23T05:07:26.000Z</time>
      </trkpt>
      <trkpt lat="42.223162" lon="-4.85828">
        <ele>795</ele>
        <time>2018-07-23T05:07:27.000Z</time>
      </trkpt>
      <trkpt lat="42.223181" lon="-4.85823">
        <ele>795</ele>
        <time>2018-07-23T05:07:28.000Z</time>
      </trkpt>
      <trkpt lat="42.223196" lon="-4.858177">
        <ele>795</ele>
        <time>2018-07-23T05:07:29.000Z</time>
      </trkpt>
      <trkpt lat="42.223212" lon="-4.858125">
        <ele>795.042861322411</ele>
        <time>2018-07-23T05:07:30.000Z</time>
      </trkpt>
      <trkpt lat="42.223229" lon="-4.858074">
        <ele>796</ele>
        <time>2018-07-23T05:07:31.000Z</time>
      </trkpt>
      <trkpt lat="42.223338" lon="-4.85776">
        <ele>796</ele>
        <time>2018-07-23T05:07:36.990Z</time>
      </trkpt>
      <trkpt lat="42.223392" lon="-4.857596">
        <ele>796</ele>
        <time>2018-07-23T05:07:39.990Z</time>
      </trkpt>
      <trkpt lat="42.22343" lon="-4.857428">
        <ele>797</ele>
        <time>2018-07-23T05:07:42.990Z</time>
      </trkpt>
      <trkpt lat="42.22345" lon="-4.857272">
        <ele>797</ele>
        <time>2018-07-23T05:07:45.990Z</time>
      </trkpt>
      <trkpt lat="42.223449" lon="-4.8571">
        <ele>797</ele>
        <time>2018-07-23T05:07:49.000Z</time>
      </trkpt>
      <trkpt lat="42.223442" lon="-4.856932">
        <ele>797</ele>
        <time>2018-07-23T05:07:51.990Z</time>
      </trkpt>
      <trkpt lat="42.223437" lon="-4.85681">
        <ele>797</ele>
        <time>2018-07-23T05:07:54.000Z</time>
      </trkpt>
      <trkpt lat="42.223428" lon="-4.856681">
        <ele>797</ele>
        <time>2018-07-23T05:07:55.990Z</time>
      </trkpt>
      <trkpt lat="42.223424" lon="-4.856554">
        <ele>797</ele>
        <time>2018-07-23T05:07:57.990Z</time>
      </trkpt>
      <trkpt lat="42.223415" lon="-4.856409">
        <ele>796.68</ele>
        <time>2018-07-23T05:07:59.990Z</time>
      </trkpt>
      <trkpt lat="42.223406" lon="-4.856265">
        <ele>796</ele>
        <time>2018-07-23T05:08:01.990Z</time>
      </trkpt>
      <trkpt lat="42.223393" lon="-4.85611">
        <ele>795</ele>
        <time>2018-07-23T05:08:04.000Z</time>
      </trkpt>
      <trkpt lat="42.22338" lon="-4.855954">
        <ele>795</ele>
        <time>2018-07-23T05:08:05.990Z</time>
      </trkpt>
      <trkpt lat="42.223365" lon="-4.855798">
        <ele>794.971419689877</ele>
        <time>2018-07-23T05:08:07.990Z</time>
      </trkpt>
      <trkpt lat="42.223349" lon="-4.855646">
        <ele>794</ele>
        <time>2018-07-23T05:08:09.990Z</time>
      </trkpt>
      <trkpt lat="42.223351" lon="-4.855512">
        <ele>794</ele>
        <time>2018-07-23T05:08:11.990Z</time>
      </trkpt>
      <trkpt lat="42.223391" lon="-4.85536">
        <ele>794</ele>
        <time>2018-07-23T05:08:14.990Z</time>
      </trkpt>
      <trkpt lat="42.223481" lon="-4.855328">
        <ele>794</ele>
        <time>2018-07-23T05:08:17.990Z</time>
      </trkpt>
      <trkpt lat="42.223593" lon="-4.85529">
        <ele>794</ele>
        <time>2018-07-23T05:08:20.990Z</time>
      </trkpt>
      <trkpt lat="42.22373" lon="-4.855292">
        <ele>794</ele>
        <time>2018-07-23T05:08:24.000Z</time>
      </trkpt>
      <trkpt lat="42.223862" lon="-4.855311">
        <ele>794</ele>
        <time>2018-07-23T05:08:26.990Z</time>
      </trkpt>
      <trkpt lat="42.223954" lon="-4.855321">
        <ele>794</ele>
        <time>2018-07-23T05:08:29.000Z</time>
      </trkpt>
      <trkpt lat="42.224087" lon="-4.855324">
        <ele>794</ele>
        <time>2018-07-23T05:08:31.990Z</time>
      </trkpt>
      <trkpt lat="42.224179" lon="-4.855313">
        <ele>794.042861322411</ele>
        <time>2018-07-23T05:08:34.000Z</time>
      </trkpt>
      <trkpt lat="42.224271" lon="-4.855289">
        <ele>795</ele>
        <time>2018-07-23T05:08:35.990Z</time>
      </trkpt>
      <trkpt lat="42.22436" lon="-4.855252">
        <ele>795</ele>
        <time>2018-07-23T05:08:37.990Z</time>
      </trkpt>
      <trkpt lat="42.224444" lon="-4.855204">
        <ele>795</ele>
        <time>2018-07-23T05:08:39.990Z</time>
      </trkpt>
      <trkpt lat="42.224525" lon="-4.855153">
        <ele>795</ele>
        <time>2018-07-23T05:08:41.990Z</time>
      </trkpt>
      <trkpt lat="42.224642" lon="-4.855064">
        <ele>795</ele>
        <time>2018-07-23T05:08:44.990Z</time>
      </trkpt>
      <trkpt lat="42.224723" lon="-4.854995">
        <ele>795</ele>
        <time>2018-07-23T05:08:46.990Z</time>
      </trkpt>
      <trkpt lat="42.224802" lon="-4.854933">
        <ele>796</ele>
        <time>2018-07-23T05:08:49.000Z</time>
      </trkpt>
      <trkpt lat="42.224883" lon="-4.854872">
        <ele>796</ele>
        <time>2018-07-23T05:08:50.990Z</time>
      </trkpt>
      <trkpt lat="42.224962" lon="-4.85481">
        <ele>796</ele>
        <time>2018-07-23T05:08:52.990Z</time>
      </trkpt>
      <trkpt lat="42.225079" lon="-4.854722">
        <ele>796.028580310123</ele>
        <time>2018-07-23T05:08:55.990Z</time>
      </trkpt>
      <trkpt lat="42.225194" lon="-4.854644">
        <ele>797</ele>
        <time>2018-07-23T05:08:59.000Z</time>
      </trkpt>
      <trkpt lat="42.225308" lon="-4.854557">
        <ele>797</ele>
        <time>2018-07-23T05:09:01.990Z</time>
      </trkpt>
      <trkpt lat="42.225428" lon="-4.854479">
        <ele>797</ele>
        <time>2018-07-23T05:09:04.990Z</time>
      </trkpt>
      <trkpt lat="42.225548" lon="-4.854398">
        <ele>797.028580310123</ele>
        <time>2018-07-23T05:09:07.990Z</time>
      </trkpt>
      <trkpt lat="42.225668" lon="-4.854319">
        <ele>798</ele>
        <time>2018-07-23T05:09:10.990Z</time>
      </trkpt>
      <trkpt lat="42.225751" lon="-4.854268">
        <ele>798</ele>
        <time>2018-07-23T05:09:12.990Z</time>
      </trkpt>
      <trkpt lat="42.225837" lon="-4.854223">
        <ele>798</ele>
        <time>2018-07-23T05:09:14.990Z</time>
      </trkpt>
      <trkpt lat="42.225927" lon="-4.854171">
        <ele>798</ele>
        <time>2018-07-23T05:09:16.990Z</time>
      </trkpt>
      <trkpt lat="42.226013" lon="-4.854127">
        <ele>798</ele>
        <time>2018-07-23T05:09:19.000Z</time>
      </trkpt>
      <trkpt lat="42.226098" lon="-4.854074">
        <ele>798</ele>
        <time>2018-07-23T05:09:20.990Z</time>
      </trkpt>
      <trkpt lat="42.226184" lon="-4.85402">
        <ele>798</ele>
        <time>2018-07-23T05:09:22.990Z</time>
      </trkpt>
      <trkpt lat="42.226274" lon="-4.853967">
        <ele>797.68</ele>
        <time>2018-07-23T05:09:24.990Z</time>
      </trkpt>
      <trkpt lat="42.226365" lon="-4.853909">
        <ele>797</ele>
        <time>2018-07-23T05:09:26.990Z</time>
      </trkpt>
      <trkpt lat="42.226456" lon="-4.853863">
        <ele>797</ele>
        <time>2018-07-23T05:09:29.000Z</time>
      </trkpt>
      <trkpt lat="42.226539" lon="-4.853809">
        <ele>797</ele>
        <time>2018-07-23T05:09:30.990Z</time>
      </trkpt>
      <trkpt lat="42.226624" lon="-4.853753">
        <ele>797</ele>
        <time>2018-07-23T05:09:32.990Z</time>
      </trkpt>
      <trkpt lat="42.226712" lon="-4.853706">
        <ele>797</ele>
        <time>2018-07-23T05:09:34.990Z</time>
      </trkpt>
      <trkpt lat="42.226802" lon="-4.853653">
        <ele>797</ele>
        <time>2018-07-23T05:09:36.990Z</time>
      </trkpt>
      <trkpt lat="42.226888" lon="-4.853602">
        <ele>797</ele>
        <time>2018-07-23T05:09:39.000Z</time>
      </trkpt>
      <trkpt lat="42.226978" lon="-4.853545">
        <ele>797</ele>
        <time>2018-07-23T05:09:40.990Z</time>
      </trkpt>
      <trkpt lat="42.227069" lon="-4.853493">
        <ele>797</ele>
        <time>2018-07-23T05:09:42.990Z</time>
      </trkpt>
      <trkpt lat="42.227158" lon="-4.853442">
        <ele>797</ele>
        <time>2018-07-23T05:09:44.990Z</time>
      </trkpt>
      <trkpt lat="42.227248" lon="-4.853391">
        <ele>797</ele>
        <time>2018-07-23T05:09:46.990Z</time>
      </trkpt>
      <trkpt lat="42.227339" lon="-4.853339">
        <ele>797</ele>
        <time>2018-07-23T05:09:49.000Z</time>
      </trkpt>
      <trkpt lat="42.227428" lon="-4.853285">
        <ele>797</ele>
        <time>2018-07-23T05:09:50.990Z</time>
      </trkpt>
      <trkpt lat="42.227523" lon="-4.853233">
        <ele>797</ele>
        <time>2018-07-23T05:09:52.990Z</time>
      </trkpt>
      <trkpt lat="42.227618" lon="-4.853183">
        <ele>797</ele>
        <time>2018-07-23T05:09:54.990Z</time>
      </trkpt>
      <trkpt lat="42.227711" lon="-4.853134">
        <ele>797</ele>
        <time>2018-07-23T05:09:56.990Z</time>
      </trkpt>
      <trkpt lat="42.227807" lon="-4.853093">
        <ele>797</ele>
        <time>2018-07-23T05:09:59.000Z</time>
      </trkpt>
      <trkpt lat="42.227905" lon="-4.853064">
        <ele>797</ele>
        <time>2018-07-23T05:10:00.990Z</time>
      </trkpt>
      <trkpt lat="42.228006" lon="-4.853045">
        <ele>797</ele>
        <time>2018-07-23T05:10:02.990Z</time>
      </trkpt>
      <trkpt lat="42.228103" lon="-4.853034">
        <ele>796.7100032</ele>
        <time>2018-07-23T05:10:04.960Z</time>
      </trkpt>
      <trkpt lat="42.228212" lon="-4.853029">
        <ele>796</ele>
        <time>2018-07-23T05:10:06.990Z</time>
      </trkpt>
      <trkpt lat="42.228314" lon="-4.853023">
        <ele>796</ele>
        <time>2018-07-23T05:10:09.000Z</time>
      </trkpt>
      <trkpt lat="42.228415" lon="-4.853004">
        <ele>796</ele>
        <time>2018-07-23T05:10:10.990Z</time>
      </trkpt>
      <trkpt lat="42.228521" lon="-4.852988">
        <ele>796</ele>
        <time>2018-07-23T05:10:12.990Z</time>
      </trkpt>
      <trkpt lat="42.228625" lon="-4.852979">
        <ele>796</ele>
        <time>2018-07-23T05:10:14.990Z</time>
      </trkpt>
      <trkpt lat="42.22873" lon="-4.852965">
        <ele>796</ele>
        <time>2018-07-23T05:10:16.990Z</time>
      </trkpt>
      <trkpt lat="42.228833" lon="-4.852951">
        <ele>796</ele>
        <time>2018-07-23T05:10:19.000Z</time>
      </trkpt>
      <trkpt lat="42.228935" lon="-4.852934">
        <ele>796</ele>
        <time>2018-07-23T05:10:20.990Z</time>
      </trkpt>
      <trkpt lat="42.229038" lon="-4.852921">
        <ele>796</ele>
        <time>2018-07-23T05:10:22.990Z</time>
      </trkpt>
      <trkpt lat="42.229142" lon="-4.852904">
        <ele>796</ele>
        <time>2018-07-23T05:10:24.990Z</time>
      </trkpt>
      <trkpt lat="42.229248" lon="-4.852891">
        <ele>796</ele>
        <time>2018-07-23T05:10:26.990Z</time>
      </trkpt>
      <trkpt lat="42.229356" lon="-4.852877">
        <ele>796</ele>
        <time>2018-07-23T05:10:29.000Z</time>
      </trkpt>
      <trkpt lat="42.229459" lon="-4.852863">
        <ele>796</ele>
        <time>2018-07-23T05:10:30.990Z</time>
      </trkpt>
      <trkpt lat="42.22956" lon="-4.852851">
        <ele>795</ele>
        <time>2018-07-23T05:10:32.990Z</time>
      </trkpt>
      <trkpt lat="42.229658" lon="-4.852835">
        <ele>795</ele>
        <time>2018-07-23T05:10:34.990Z</time>
      </trkpt>
      <trkpt lat="42.229758" lon="-4.852805">
        <ele>795</ele>
        <time>2018-07-23T05:10:36.990Z</time>
      </trkpt>
      <trkpt lat="42.229854" lon="-4.85277">
        <ele>795</ele>
        <time>2018-07-23T05:10:39.000Z</time>
      </trkpt>
      <trkpt lat="42.229946" lon="-4.852739">
        <ele>795</ele>
        <time>2018-07-23T05:10:40.990Z</time>
      </trkpt>
      <trkpt lat="42.230034" lon="-4.852694">
        <ele>795</ele>
        <time>2018-07-23T05:10:42.990Z</time>
      </trkpt>
      <trkpt lat="42.230126" lon="-4.852656">
        <ele>795</ele>
        <time>2018-07-23T05:10:44.990Z</time>
      </trkpt>
      <trkpt lat="42.230219" lon="-4.852609">
        <ele>795</ele>
        <time>2018-07-23T05:10:46.990Z</time>
      </trkpt>
      <trkpt lat="42.23031" lon="-4.85256">
        <ele>795</ele>
        <time>2018-07-23T05:10:49.000Z</time>
      </trkpt>
      <trkpt lat="42.230391" lon="-4.852504">
        <ele>795</ele>
        <time>2018-07-23T05:10:50.990Z</time>
      </trkpt>
      <trkpt lat="42.23053" lon="-4.852428">
        <ele>795</ele>
        <time>2018-07-23T05:10:54.000Z</time>
      </trkpt>
      <trkpt lat="42.23062" lon="-4.852392">
        <ele>795</ele>
        <time>2018-07-23T05:10:56.000Z</time>
      </trkpt>
      <trkpt lat="42.230711" lon="-4.852341">
        <ele>795.311319615515</ele>
        <time>2018-07-23T05:10:58.000Z</time>
      </trkpt>
      <trkpt lat="42.230812" lon="-4.85229">
        <ele>796</ele>
        <time>2018-07-23T05:10:59.990Z</time>
      </trkpt>
      <trkpt lat="42.2309" lon="-4.852245">
        <ele>796</ele>
        <time>2018-07-23T05:11:01.990Z</time>
      </trkpt>
      <trkpt lat="42.230995" lon="-4.852197">
        <ele>796</ele>
        <time>2018-07-23T05:11:03.990Z</time>
      </trkpt>
      <trkpt lat="42.23109" lon="-4.852156">
        <ele>796</ele>
        <time>2018-07-23T05:11:05.990Z</time>
      </trkpt>
      <trkpt lat="42.231181" lon="-4.852113">
        <ele>796</ele>
        <time>2018-07-23T05:11:08.000Z</time>
      </trkpt>
      <trkpt lat="42.231277" lon="-4.852084">
        <ele>796</ele>
        <time>2018-07-23T05:11:09.990Z</time>
      </trkpt>
      <trkpt lat="42.231373" lon="-4.852054">
        <ele>796</ele>
        <time>2018-07-23T05:11:11.990Z</time>
      </trkpt>
      <trkpt lat="42.231474" lon="-4.852029">
        <ele>795</ele>
        <time>2018-07-23T05:11:13.990Z</time>
      </trkpt>
      <trkpt lat="42.231576" lon="-4.852006">
        <ele>795</ele>
        <time>2018-07-23T05:11:15.990Z</time>
      </trkpt>
      <trkpt lat="42.231677" lon="-4.851977">
        <ele>795</ele>
        <time>2018-07-23T05:11:18.000Z</time>
      </trkpt>
      <trkpt lat="42.23178" lon="-4.851952">
        <ele>795</ele>
        <time>2018-07-23T05:11:19.990Z</time>
      </trkpt>
      <trkpt lat="42.231885" lon="-4.851927">
        <ele>795</ele>
        <time>2018-07-23T05:11:21.990Z</time>
      </trkpt>
      <trkpt lat="42.231991" lon="-4.851908">
        <ele>795</ele>
        <time>2018-07-23T05:11:23.990Z</time>
      </trkpt>
      <trkpt lat="42.232097" lon="-4.851887">
        <ele>795</ele>
        <time>2018-07-23T05:11:25.990Z</time>
      </trkpt>
      <trkpt lat="42.232202" lon="-4.851863">
        <ele>795</ele>
        <time>2018-07-23T05:11:28.000Z</time>
      </trkpt>
      <trkpt lat="42.232308" lon="-4.851833">
        <ele>795</ele>
        <time>2018-07-23T05:11:29.990Z</time>
      </trkpt>
      <trkpt lat="42.232412" lon="-4.851804">
        <ele>795</ele>
        <time>2018-07-23T05:11:31.990Z</time>
      </trkpt>
      <trkpt lat="42.232515" lon="-4.851782">
        <ele>795</ele>
        <time>2018-07-23T05:11:33.990Z</time>
      </trkpt>
      <trkpt lat="42.232619" lon="-4.851758">
        <ele>795</ele>
        <time>2018-07-23T05:11:35.990Z</time>
      </trkpt>
      <trkpt lat="42.232727" lon="-4.851739">
        <ele>795</ele>
        <time>2018-07-23T05:11:38.000Z</time>
      </trkpt>
      <trkpt lat="42.232835" lon="-4.851712">
        <ele>795</ele>
        <time>2018-07-23T05:11:39.990Z</time>
      </trkpt>
      <trkpt lat="42.232938" lon="-4.851681">
        <ele>795</ele>
        <time>2018-07-23T05:11:41.990Z</time>
      </trkpt>
      <trkpt lat="42.233043" lon="-4.85166">
        <ele>795</ele>
        <time>2018-07-23T05:11:43.990Z</time>
      </trkpt>
      <trkpt lat="42.233144" lon="-4.851634">
        <ele>795.313727458682</ele>
        <time>2018-07-23T05:11:45.990Z</time>
      </trkpt>
      <trkpt lat="42.233244" lon="-4.851613">
        <ele>796</ele>
        <time>2018-07-23T05:11:48.000Z</time>
      </trkpt>
      <trkpt lat="42.233343" lon="-4.851588">
        <ele>796</ele>
        <time>2018-07-23T05:11:49.990Z</time>
      </trkpt>
      <trkpt lat="42.233443" lon="-4.851563">
        <ele>796</ele>
        <time>2018-07-23T05:11:51.990Z</time>
      </trkpt>
      <trkpt lat="42.233539" lon="-4.851537">
        <ele>796</ele>
        <time>2018-07-23T05:11:53.990Z</time>
      </trkpt>
      <trkpt lat="42.233638" lon="-4.851504">
        <ele>796</ele>
        <time>2018-07-23T05:11:55.990Z</time>
      </trkpt>
      <trkpt lat="42.233739" lon="-4.851478">
        <ele>796</ele>
        <time>2018-07-23T05:11:58.000Z</time>
      </trkpt>
      <trkpt lat="42.233842" lon="-4.851452">
        <ele>796</ele>
        <time>2018-07-23T05:11:59.990Z</time>
      </trkpt>
      <trkpt lat="42.233945" lon="-4.851425">
        <ele>796</ele>
        <time>2018-07-23T05:12:01.990Z</time>
      </trkpt>
      <trkpt lat="42.234045" lon="-4.851401">
        <ele>796</ele>
        <time>2018-07-23T05:12:03.990Z</time>
      </trkpt>
      <trkpt lat="42.234146" lon="-4.851382">
        <ele>796</ele>
        <time>2018-07-23T05:12:05.990Z</time>
      </trkpt>
      <trkpt lat="42.234243" lon="-4.851358">
        <ele>796</ele>
        <time>2018-07-23T05:12:08.000Z</time>
      </trkpt>
      <trkpt lat="42.234343" lon="-4.851329">
        <ele>796.32</ele>
        <time>2018-07-23T05:12:09.990Z</time>
      </trkpt>
      <trkpt lat="42.234446" lon="-4.851303">
        <ele>797</ele>
        <time>2018-07-23T05:12:11.990Z</time>
      </trkpt>
      <trkpt lat="42.234546" lon="-4.851278">
        <ele>797</ele>
        <time>2018-07-23T05:12:13.990Z</time>
      </trkpt>
      <trkpt lat="42.234644" lon="-4.851252">
        <ele>797</ele>
        <time>2018-07-23T05:12:15.990Z</time>
      </trkpt>
      <trkpt lat="42.234747" lon="-4.85123">
        <ele>797</ele>
        <time>2018-07-23T05:12:18.000Z</time>
      </trkpt>
      <trkpt lat="42.234848" lon="-4.851202">
        <ele>797</ele>
        <time>2018-07-23T05:12:19.990Z</time>
      </trkpt>
      <trkpt lat="42.234952" lon="-4.851179">
        <ele>797</ele>
        <time>2018-07-23T05:12:21.990Z</time>
      </trkpt>
      <trkpt lat="42.235052" lon="-4.851162">
        <ele>797</ele>
        <time>2018-07-23T05:12:23.990Z</time>
      </trkpt>
      <trkpt lat="42.235155" lon="-4.851138">
        <ele>797</ele>
        <time>2018-07-23T05:12:25.990Z</time>
      </trkpt>
      <trkpt lat="42.235252" lon="-4.851117">
        <ele>797</ele>
        <time>2018-07-23T05:12:28.000Z</time>
      </trkpt>
      <trkpt lat="42.235348" lon="-4.851104">
        <ele>797</ele>
        <time>2018-07-23T05:12:29.990Z</time>
      </trkpt>
      <trkpt lat="42.23545" lon="-4.851083">
        <ele>797</ele>
        <time>2018-07-23T05:12:31.990Z</time>
      </trkpt>
      <trkpt lat="42.235557" lon="-4.851075">
        <ele>797</ele>
        <time>2018-07-23T05:12:33.990Z</time>
      </trkpt>
      <trkpt lat="42.235667" lon="-4.851076">
        <ele>797</ele>
        <time>2018-07-23T05:12:35.990Z</time>
      </trkpt>
      <trkpt lat="42.235772" lon="-4.85108">
        <ele>797</ele>
        <time>2018-07-23T05:12:38.000Z</time>
      </trkpt>
      <trkpt lat="42.235875" lon="-4.851086">
        <ele>797</ele>
        <time>2018-07-23T05:12:39.990Z</time>
      </trkpt>
      <trkpt lat="42.235981" lon="-4.851102">
        <ele>797</ele>
        <time>2018-07-23T05:12:41.990Z</time>
      </trkpt>
      <trkpt lat="42.23608" lon="-4.851131">
        <ele>797</ele>
        <time>2018-07-23T05:12:43.990Z</time>
      </trkpt>
      <trkpt lat="42.236175" lon="-4.851145">
        <ele>797</ele>
        <time>2018-07-23T05:12:45.990Z</time>
      </trkpt>
      <trkpt lat="42.236277" lon="-4.851164">
        <ele>797</ele>
        <time>2018-07-23T05:12:48.000Z</time>
      </trkpt>
      <trkpt lat="42.236371" lon="-4.851179">
        <ele>797</ele>
        <time>2018-07-23T05:12:49.990Z</time>
      </trkpt>
      <trkpt lat="42.236468" lon="-4.851193">
        <ele>797</ele>
        <time>2018-07-23T05:12:51.990Z</time>
      </trkpt>
      <trkpt lat="42.236565" lon="-4.851214">
        <ele>797</ele>
        <time>2018-07-23T05:12:53.990Z</time>
      </trkpt>
      <trkpt lat="42.236666" lon="-4.851223">
        <ele>797</ele>
        <time>2018-07-23T05:12:55.990Z</time>
      </trkpt>
      <trkpt lat="42.236766" lon="-4.851243">
        <ele>797</ele>
        <time>2018-07-23T05:12:58.000Z</time>
      </trkpt>
      <trkpt lat="42.236868" lon="-4.851257">
        <ele>797</ele>
        <time>2018-07-23T05:12:59.990Z</time>
      </trkpt>
      <trkpt lat="42.236974" lon="-4.851266">
        <ele>798</ele>
        <time>2018-07-23T05:13:01.990Z</time>
      </trkpt>
      <trkpt lat="42.237073" lon="-4.851277">
        <ele>798</ele>
        <time>2018-07-23T05:13:03.990Z</time>
      </trkpt>
      <trkpt lat="42.237177" lon="-4.851298">
        <ele>798</ele>
        <time>2018-07-23T05:13:05.990Z</time>
      </trkpt>
      <trkpt lat="42.237274" lon="-4.851307">
        <ele>797</ele>
        <time>2018-07-23T05:13:08.000Z</time>
      </trkpt>
      <trkpt lat="42.237375" lon="-4.851314">
        <ele>797</ele>
        <time>2018-07-23T05:13:09.990Z</time>
      </trkpt>
      <trkpt lat="42.237478" lon="-4.851325">
        <ele>797</ele>
        <time>2018-07-23T05:13:11.990Z</time>
      </trkpt>
      <trkpt lat="42.237582" lon="-4.85134">
        <ele>797</ele>
        <time>2018-07-23T05:13:13.990Z</time>
      </trkpt>
      <trkpt lat="42.237688" lon="-4.851356">
        <ele>796</ele>
        <time>2018-07-23T05:13:15.990Z</time>
      </trkpt>
      <trkpt lat="42.237785" lon="-4.851365">
        <ele>796</ele>
        <time>2018-07-23T05:13:18.000Z</time>
      </trkpt>
      <trkpt lat="42.237886" lon="-4.851379">
        <ele>796</ele>
        <time>2018-07-23T05:13:19.990Z</time>
      </trkpt>
      <trkpt lat="42.237984" lon="-4.851394">
        <ele>796</ele>
        <time>2018-07-23T05:13:21.990Z</time>
      </trkpt>
      <trkpt lat="42.238087" lon="-4.851412">
        <ele>796.313727458682</ele>
        <time>2018-07-23T05:13:23.990Z</time>
      </trkpt>
      <trkpt lat="42.238191" lon="-4.851423">
        <ele>797</ele>
        <time>2018-07-23T05:13:25.990Z</time>
      </trkpt>
      <trkpt lat="42.238294" lon="-4.851437">
        <ele>797</ele>
        <time>2018-07-23T05:13:28.000Z</time>
      </trkpt>
      <trkpt lat="42.238397" lon="-4.851454">
        <ele>797</ele>
        <time>2018-07-23T05:13:29.990Z</time>
      </trkpt>
      <trkpt lat="42.238509" lon="-4.851474">
        <ele>797</ele>
        <time>2018-07-23T05:13:31.990Z</time>
      </trkpt>
      <trkpt lat="42.238614" lon="-4.851494">
        <ele>797</ele>
        <time>2018-07-23T05:13:33.990Z</time>
      </trkpt>
      <trkpt lat="42.238721" lon="-4.851513">
        <ele>797</ele>
        <time>2018-07-23T05:13:35.990Z</time>
      </trkpt>
      <trkpt lat="42.238828" lon="-4.851533">
        <ele>797</ele>
        <time>2018-07-23T05:13:38.000Z</time>
      </trkpt>
      <trkpt lat="42.238932" lon="-4.851553">
        <ele>796.68</ele>
        <time>2018-07-23T05:13:39.990Z</time>
      </trkpt>
      <trkpt lat="42.239037" lon="-4.851571">
        <ele>796</ele>
        <time>2018-07-23T05:13:41.990Z</time>
      </trkpt>
      <trkpt lat="42.239145" lon="-4.851588">
        <ele>796</ele>
        <time>2018-07-23T05:13:43.990Z</time>
      </trkpt>
      <trkpt lat="42.239253" lon="-4.851603">
        <ele>796</ele>
        <time>2018-07-23T05:13:45.990Z</time>
      </trkpt>
      <trkpt lat="42.239369" lon="-4.851618">
        <ele>796</ele>
        <time>2018-07-23T05:13:48.000Z</time>
      </trkpt>
      <trkpt lat="42.239479" lon="-4.851634">
        <ele>796</ele>
        <time>2018-07-23T05:13:49.990Z</time>
      </trkpt>
      <trkpt lat="42.239594" lon="-4.85165">
        <ele>796</ele>
        <time>2018-07-23T05:13:51.990Z</time>
      </trkpt>
      <trkpt lat="42.239708" lon="-4.851668">
        <ele>796</ele>
        <time>2018-07-23T05:13:53.990Z</time>
      </trkpt>
      <trkpt lat="42.239823" lon="-4.851687">
        <ele>796</ele>
        <time>2018-07-23T05:13:55.990Z</time>
      </trkpt>
      <trkpt lat="42.239939" lon="-4.851712">
        <ele>796</ele>
        <time>2018-07-23T05:13:58.000Z</time>
      </trkpt>
      <trkpt lat="42.24005" lon="-4.85173">
        <ele>796</ele>
        <time>2018-07-23T05:13:59.990Z</time>
      </trkpt>
      <trkpt lat="42.240162" lon="-4.851746">
        <ele>796</ele>
        <time>2018-07-23T05:14:01.990Z</time>
      </trkpt>
      <trkpt lat="42.240274" lon="-4.851762">
        <ele>795.68</ele>
        <time>2018-07-23T05:14:03.990Z</time>
      </trkpt>
      <trkpt lat="42.240384" lon="-4.851773">
        <ele>795</ele>
        <time>2018-07-23T05:14:05.990Z</time>
      </trkpt>
      <trkpt lat="42.240495" lon="-4.851793">
        <ele>795</ele>
        <time>2018-07-23T05:14:08.000Z</time>
      </trkpt>
      <trkpt lat="42.240598" lon="-4.851811">
        <ele>795.028580310123</ele>
        <time>2018-07-23T05:14:09.990Z</time>
      </trkpt>
      <trkpt lat="42.240703" lon="-4.851816">
        <ele>796</ele>
        <time>2018-07-23T05:14:11.990Z</time>
      </trkpt>
      <trkpt lat="42.24081" lon="-4.851825">
        <ele>796</ele>
        <time>2018-07-23T05:14:13.990Z</time>
      </trkpt>
      <trkpt lat="42.240909" lon="-4.851834">
        <ele>796</ele>
        <time>2018-07-23T05:14:15.990Z</time>
      </trkpt>
      <trkpt lat="42.241009" lon="-4.851852">
        <ele>796</ele>
        <time>2018-07-23T05:14:18.000Z</time>
      </trkpt>
      <trkpt lat="42.241109" lon="-4.85186">
        <ele>796</ele>
        <time>2018-07-23T05:14:19.990Z</time>
      </trkpt>
      <trkpt lat="42.241216" lon="-4.851871">
        <ele>796</ele>
        <time>2018-07-23T05:14:21.990Z</time>
      </trkpt>
      <trkpt lat="42.241327" lon="-4.851885">
        <ele>796</ele>
        <time>2018-07-23T05:14:23.990Z</time>
      </trkpt>
      <trkpt lat="42.241437" lon="-4.851896">
        <ele>796</ele>
        <time>2018-07-23T05:14:25.990Z</time>
      </trkpt>
      <trkpt lat="42.241548" lon="-4.851918">
        <ele>796</ele>
        <time>2018-07-23T05:14:28.000Z</time>
      </trkpt>
      <trkpt lat="42.241657" lon="-4.851939">
        <ele>796</ele>
        <time>2018-07-23T05:14:29.990Z</time>
      </trkpt>
      <trkpt lat="42.241765" lon="-4.851953">
        <ele>796</ele>
        <time>2018-07-23T05:14:31.990Z</time>
      </trkpt>
      <trkpt lat="42.24187" lon="-4.851969">
        <ele>796</ele>
        <time>2018-07-23T05:14:33.990Z</time>
      </trkpt>
      <trkpt lat="42.241983" lon="-4.851988">
        <ele>796</ele>
        <time>2018-07-23T05:14:35.990Z</time>
      </trkpt>
      <trkpt lat="42.242091" lon="-4.852017">
        <ele>796</ele>
        <time>2018-07-23T05:14:38.000Z</time>
      </trkpt>
      <trkpt lat="42.242203" lon="-4.852042">
        <ele>796</ele>
        <time>2018-07-23T05:14:39.990Z</time>
      </trkpt>
      <trkpt lat="42.242312" lon="-4.852066">
        <ele>796</ele>
        <time>2018-07-23T05:14:41.990Z</time>
      </trkpt>
      <trkpt lat="42.242421" lon="-4.852079">
        <ele>796</ele>
        <time>2018-07-23T05:14:43.990Z</time>
      </trkpt>
      <trkpt lat="42.242527" lon="-4.852096">
        <ele>796</ele>
        <time>2018-07-23T05:14:45.990Z</time>
      </trkpt>
      <trkpt lat="42.242635" lon="-4.852106">
        <ele>796</ele>
        <time>2018-07-23T05:14:48.000Z</time>
      </trkpt>
      <trkpt lat="42.242742" lon="-4.852119">
        <ele>796</ele>
        <time>2018-07-23T05:14:49.990Z</time>
      </trkpt>
      <trkpt lat="42.242848" lon="-4.852134">
        <ele>796</ele>
        <time>2018-07-23T05:14:51.990Z</time>
      </trkpt>
      <trkpt lat="42.242952" lon="-4.85215">
        <ele>796</ele>
        <time>2018-07-23T05:14:53.990Z</time>
      </trkpt>
      <trkpt lat="42.243057" lon="-4.852167">
        <ele>796</ele>
        <time>2018-07-23T05:14:55.990Z</time>
      </trkpt>
      <trkpt lat="42.243164" lon="-4.852182">
        <ele>796</ele>
        <time>2018-07-23T05:14:58.000Z</time>
      </trkpt>
      <trkpt lat="42.243262" lon="-4.852194">
        <ele>796</ele>
        <time>2018-07-23T05:14:59.990Z</time>
      </trkpt>
      <trkpt lat="42.243367" lon="-4.852214">
        <ele>796</ele>
        <time>2018-07-23T05:15:01.990Z</time>
      </trkpt>
      <trkpt lat="42.243473" lon="-4.852226">
        <ele>796</ele>
        <time>2018-07-23T05:15:03.990Z</time>
      </trkpt>
      <trkpt lat="42.243573" lon="-4.85224">
        <ele>796</ele>
        <time>2018-07-23T05:15:05.990Z</time>
      </trkpt>
      <trkpt lat="42.243674" lon="-4.852258">
        <ele>796</ele>
        <time>2018-07-23T05:15:08.000Z</time>
      </trkpt>
      <trkpt lat="42.243783" lon="-4.852274">
        <ele>796</ele>
        <time>2018-07-23T05:15:09.990Z</time>
      </trkpt>
      <trkpt lat="42.243886" lon="-4.852292">
        <ele>796</ele>
        <time>2018-07-23T05:15:11.990Z</time>
      </trkpt>
      <trkpt lat="42.243989" lon="-4.852309">
        <ele>796</ele>
        <time>2018-07-23T05:15:13.990Z</time>
      </trkpt>
      <trkpt lat="42.244097" lon="-4.852321">
        <ele>796</ele>
        <time>2018-07-23T05:15:15.990Z</time>
      </trkpt>
      <trkpt lat="42.244201" lon="-4.852336">
        <ele>796</ele>
        <time>2018-07-23T05:15:18.000Z</time>
      </trkpt>
      <trkpt lat="42.244302" lon="-4.852343">
        <ele>797</ele>
        <time>2018-07-23T05:15:19.990Z</time>
      </trkpt>
      <trkpt lat="42.244402" lon="-4.852358">
        <ele>796.68</ele>
        <time>2018-07-23T05:15:21.990Z</time>
      </trkpt>
      <trkpt lat="42.2445" lon="-4.852373">
        <ele>797</ele>
        <time>2018-07-23T05:15:23.990Z</time>
      </trkpt>
      <trkpt lat="42.244593" lon="-4.852374">
        <ele>797</ele>
        <time>2018-07-23T05:15:25.990Z</time>
      </trkpt>
      <trkpt lat="42.244693" lon="-4.852387">
        <ele>797</ele>
        <time>2018-07-23T05:15:28.000Z</time>
      </trkpt>
      <trkpt lat="42.244793" lon="-4.852398">
        <ele>797</ele>
        <time>2018-07-23T05:15:29.990Z</time>
      </trkpt>
      <trkpt lat="42.244894" lon="-4.852412">
        <ele>797</ele>
        <time>2018-07-23T05:15:31.990Z</time>
      </trkpt>
      <trkpt lat="42.244998" lon="-4.852424">
        <ele>797</ele>
        <time>2018-07-23T05:15:33.990Z</time>
      </trkpt>
      <trkpt lat="42.245104" lon="-4.852446">
        <ele>797</ele>
        <time>2018-07-23T05:15:35.990Z</time>
      </trkpt>
      <trkpt lat="42.245207" lon="-4.852462">
        <ele>797</ele>
        <time>2018-07-23T05:15:38.000Z</time>
      </trkpt>
      <trkpt lat="42.245312" lon="-4.852481">
        <ele>797</ele>
        <time>2018-07-23T05:15:39.990Z</time>
      </trkpt>
      <trkpt lat="42.245414" lon="-4.852495">
        <ele>797</ele>
        <time>2018-07-23T05:15:41.990Z</time>
      </trkpt>
      <trkpt lat="42.245514" lon="-4.85251">
        <ele>797</ele>
        <time>2018-07-23T05:15:43.990Z</time>
      </trkpt>
      <trkpt lat="42.245617" lon="-4.852523">
        <ele>798</ele>
        <time>2018-07-23T05:15:45.990Z</time>
      </trkpt>
      <trkpt lat="42.245722" lon="-4.852541">
        <ele>798</ele>
        <time>2018-07-23T05:15:48.000Z</time>
      </trkpt>
      <trkpt lat="42.245828" lon="-4.852555">
        <ele>798</ele>
        <time>2018-07-23T05:15:49.990Z</time>
      </trkpt>
      <trkpt lat="42.245934" lon="-4.852571">
        <ele>798</ele>
        <time>2018-07-23T05:15:51.990Z</time>
      </trkpt>
      <trkpt lat="42.246044" lon="-4.852592">
        <ele>798</ele>
        <time>2018-07-23T05:15:53.990Z</time>
      </trkpt>
      <trkpt lat="42.246158" lon="-4.852608">
        <ele>798</ele>
        <time>2018-07-23T05:15:55.990Z</time>
      </trkpt>
      <trkpt lat="42.24627" lon="-4.852628">
        <ele>798</ele>
        <time>2018-07-23T05:15:58.000Z</time>
      </trkpt>
      <trkpt lat="42.246377" lon="-4.852648">
        <ele>798</ele>
        <time>2018-07-23T05:15:59.990Z</time>
      </trkpt>
      <trkpt lat="42.246481" lon="-4.852663">
        <ele>798</ele>
        <time>2018-07-23T05:16:01.990Z</time>
      </trkpt>
      <trkpt lat="42.246593" lon="-4.852681">
        <ele>798</ele>
        <time>2018-07-23T05:16:03.990Z</time>
      </trkpt>
      <trkpt lat="42.246705" lon="-4.852702">
        <ele>798</ele>
        <time>2018-07-23T05:16:05.990Z</time>
      </trkpt>
      <trkpt lat="42.246817" lon="-4.852724">
        <ele>798</ele>
        <time>2018-07-23T05:16:08.000Z</time>
      </trkpt>
      <trkpt lat="42.246926" lon="-4.852741">
        <ele>798</ele>
        <time>2018-07-23T05:16:09.990Z</time>
      </trkpt>
      <trkpt lat="42.247031" lon="-4.852753">
        <ele>798</ele>
        <time>2018-07-23T05:16:11.990Z</time>
      </trkpt>
      <trkpt lat="42.247146" lon="-4.852773">
        <ele>798</ele>
        <time>2018-07-23T05:16:13.990Z</time>
      </trkpt>
      <trkpt lat="42.247262" lon="-4.852789">
        <ele>798</ele>
        <time>2018-07-23T05:16:15.990Z</time>
      </trkpt>
      <trkpt lat="42.247372" lon="-4.852801">
        <ele>798</ele>
        <time>2018-07-23T05:16:18.000Z</time>
      </trkpt>
      <trkpt lat="42.247481" lon="-4.852816">
        <ele>798</ele>
        <time>2018-07-23T05:16:19.990Z</time>
      </trkpt>
      <trkpt lat="42.247593" lon="-4.852831">
        <ele>798</ele>
        <time>2018-07-23T05:16:21.990Z</time>
      </trkpt>
      <trkpt lat="42.247703" lon="-4.852847">
        <ele>798</ele>
        <time>2018-07-23T05:16:23.990Z</time>
      </trkpt>
      <trkpt lat="42.247816" lon="-4.852865">
        <ele>798</ele>
        <time>2018-07-23T05:16:25.990Z</time>
      </trkpt>
      <trkpt lat="42.24793" lon="-4.852885">
        <ele>798</ele>
        <time>2018-07-23T05:16:28.000Z</time>
      </trkpt>
      <trkpt lat="42.24804" lon="-4.852896">
        <ele>798</ele>
        <time>2018-07-23T05:16:29.990Z</time>
      </trkpt>
      <trkpt lat="42.24815" lon="-4.852908">
        <ele>798</ele>
        <time>2018-07-23T05:16:31.990Z</time>
      </trkpt>
      <trkpt lat="42.248261" lon="-4.852931">
        <ele>798</ele>
        <time>2018-07-23T05:16:33.990Z</time>
      </trkpt>
      <trkpt lat="42.248368" lon="-4.852954">
        <ele>798</ele>
        <time>2018-07-23T05:16:35.990Z</time>
      </trkpt>
      <trkpt lat="42.248477" lon="-4.852976">
        <ele>798</ele>
        <time>2018-07-23T05:16:38.000Z</time>
      </trkpt>
      <trkpt lat="42.248588" lon="-4.852988">
        <ele>798</ele>
        <time>2018-07-23T05:16:39.990Z</time>
      </trkpt>
      <trkpt lat="42.2487" lon="-4.852999">
        <ele>798</ele>
        <time>2018-07-23T05:16:41.990Z</time>
      </trkpt>
      <trkpt lat="42.248805" lon="-4.853018">
        <ele>798</ele>
        <time>2018-07-23T05:16:43.990Z</time>
      </trkpt>
      <trkpt lat="42.248912" lon="-4.85303">
        <ele>798</ele>
        <time>2018-07-23T05:16:45.990Z</time>
      </trkpt>
      <trkpt lat="42.249025" lon="-4.853046">
        <ele>798</ele>
        <time>2018-07-23T05:16:48.000Z</time>
      </trkpt>
      <trkpt lat="42.249137" lon="-4.853058">
        <ele>798</ele>
        <time>2018-07-23T05:16:49.990Z</time>
      </trkpt>
      <trkpt lat="42.249245" lon="-4.853071">
        <ele>798</ele>
        <time>2018-07-23T05:16:51.990Z</time>
      </trkpt>
      <trkpt lat="42.249356" lon="-4.853091">
        <ele>798</ele>
        <time>2018-07-23T05:16:53.990Z</time>
      </trkpt>
      <trkpt lat="42.249465" lon="-4.853106">
        <ele>798</ele>
        <time>2018-07-23T05:16:55.990Z</time>
      </trkpt>
      <trkpt lat="42.249576" lon="-4.853124">
        <ele>798</ele>
        <time>2018-07-23T05:16:58.000Z</time>
      </trkpt>
      <trkpt lat="42.249684" lon="-4.853135">
        <ele>798</ele>
        <time>2018-07-23T05:16:59.990Z</time>
      </trkpt>
      <trkpt lat="42.249791" lon="-4.853149">
        <ele>798</ele>
        <time>2018-07-23T05:17:01.990Z</time>
      </trkpt>
      <trkpt lat="42.249898" lon="-4.853166">
        <ele>798</ele>
        <time>2018-07-23T05:17:03.990Z</time>
      </trkpt>
      <trkpt lat="42.250003" lon="-4.853181">
        <ele>798</ele>
        <time>2018-07-23T05:17:05.990Z</time>
      </trkpt>
      <trkpt lat="42.250117" lon="-4.8532">
        <ele>798</ele>
        <time>2018-07-23T05:17:08.000Z</time>
      </trkpt>
      <trkpt lat="42.250226" lon="-4.853217">
        <ele>798</ele>
        <time>2018-07-23T05:17:09.990Z</time>
      </trkpt>
      <trkpt lat="42.250337" lon="-4.853232">
        <ele>798</ele>
        <time>2018-07-23T05:17:11.990Z</time>
      </trkpt>
      <trkpt lat="42.250443" lon="-4.853245">
        <ele>798</ele>
        <time>2018-07-23T05:17:13.990Z</time>
      </trkpt>
      <trkpt lat="42.250555" lon="-4.853264">
        <ele>798</ele>
        <time>2018-07-23T05:17:15.990Z</time>
      </trkpt>
      <trkpt lat="42.250665" lon="-4.853275">
        <ele>798</ele>
        <time>2018-07-23T05:17:18.000Z</time>
      </trkpt>
      <trkpt lat="42.250774" lon="-4.85329">
        <ele>798</ele>
        <time>2018-07-23T05:17:19.990Z</time>
      </trkpt>
      <trkpt lat="42.250886" lon="-4.853307">
        <ele>798</ele>
        <time>2018-07-23T05:17:21.990Z</time>
      </trkpt>
      <trkpt lat="42.250991" lon="-4.85332">
        <ele>798</ele>
        <time>2018-07-23T05:17:23.990Z</time>
      </trkpt>
      <trkpt lat="42.251102" lon="-4.853328">
        <ele>798</ele>
        <time>2018-07-23T05:17:25.990Z</time>
      </trkpt>
      <trkpt lat="42.251214" lon="-4.853351">
        <ele>798</ele>
        <time>2018-07-23T05:17:28.000Z</time>
      </trkpt>
      <trkpt lat="42.251323" lon="-4.853366">
        <ele>798</ele>
        <time>2018-07-23T05:17:29.990Z</time>
      </trkpt>
      <trkpt lat="42.251434" lon="-4.853381">
        <ele>799</ele>
        <time>2018-07-23T05:17:31.990Z</time>
      </trkpt>
      <trkpt lat="42.251548" lon="-4.8534">
        <ele>799</ele>
        <time>2018-07-23T05:17:33.990Z</time>
      </trkpt>
      <trkpt lat="42.251664" lon="-4.85342">
        <ele>799</ele>
        <time>2018-07-23T05:17:35.990Z</time>
      </trkpt>
      <trkpt lat="42.251781" lon="-4.853439">
        <ele>799</ele>
        <time>2018-07-23T05:17:38.000Z</time>
      </trkpt>
      <trkpt lat="42.251896" lon="-4.853462">
        <ele>799</ele>
        <time>2018-07-23T05:17:39.990Z</time>
      </trkpt>
      <trkpt lat="42.252011" lon="-4.853479">
        <ele>799</ele>
        <time>2018-07-23T05:17:41.990Z</time>
      </trkpt>
      <trkpt lat="42.252122" lon="-4.853496">
        <ele>799</ele>
        <time>2018-07-23T05:17:43.990Z</time>
      </trkpt>
      <trkpt lat="42.252229" lon="-4.853517">
        <ele>799</ele>
        <time>2018-07-23T05:17:45.990Z</time>
      </trkpt>
      <trkpt lat="42.252345" lon="-4.853537">
        <ele>799</ele>
        <time>2018-07-23T05:17:48.000Z</time>
      </trkpt>
      <trkpt lat="42.252459" lon="-4.853555">
        <ele>799</ele>
        <time>2018-07-23T05:17:49.990Z</time>
      </trkpt>
      <trkpt lat="42.252572" lon="-4.853573">
        <ele>799</ele>
        <time>2018-07-23T05:17:51.990Z</time>
      </trkpt>
      <trkpt lat="42.252686" lon="-4.853592">
        <ele>799</ele>
        <time>2018-07-23T05:17:53.990Z</time>
      </trkpt>
      <trkpt lat="42.252795" lon="-4.85362">
        <ele>799</ele>
        <time>2018-07-23T05:17:55.990Z</time>
      </trkpt>
      <trkpt lat="42.252907" lon="-4.85364">
        <ele>799</ele>
        <time>2018-07-23T05:17:58.000Z</time>
      </trkpt>
      <trkpt lat="42.253015" lon="-4.85365">
        <ele>799</ele>
        <time>2018-07-23T05:17:59.990Z</time>
      </trkpt>
      <trkpt lat="42.25312" lon="-4.853664">
        <ele>799</ele>
        <time>2018-07-23T05:18:01.990Z</time>
      </trkpt>
      <trkpt lat="42.253229" lon="-4.853678">
        <ele>799</ele>
        <time>2018-07-23T05:18:03.990Z</time>
      </trkpt>
      <trkpt lat="42.253338" lon="-4.853693">
        <ele>799</ele>
        <time>2018-07-23T05:18:05.990Z</time>
      </trkpt>
      <trkpt lat="42.253449" lon="-4.853714">
        <ele>799</ele>
        <time>2018-07-23T05:18:08.000Z</time>
      </trkpt>
      <trkpt lat="42.25356" lon="-4.853726">
        <ele>799</ele>
        <time>2018-07-23T05:18:10.000Z</time>
      </trkpt>
      <trkpt lat="42.25367" lon="-4.85374">
        <ele>799</ele>
        <time>2018-07-23T05:18:12.000Z</time>
      </trkpt>
      <trkpt lat="42.253781" lon="-4.853762">
        <ele>799</ele>
        <time>2018-07-23T05:18:14.000Z</time>
      </trkpt>
      <trkpt lat="42.25389" lon="-4.85378">
        <ele>800</ele>
        <time>2018-07-23T05:18:16.000Z</time>
      </trkpt>
      <trkpt lat="42.253995" lon="-4.853788">
        <ele>800</ele>
        <time>2018-07-23T05:18:18.000Z</time>
      </trkpt>
      <trkpt lat="42.254102" lon="-4.853796">
        <ele>800</ele>
        <time>2018-07-23T05:18:20.000Z</time>
      </trkpt>
      <trkpt lat="42.254212" lon="-4.853812">
        <ele>800</ele>
        <time>2018-07-23T05:18:22.000Z</time>
      </trkpt>
      <trkpt lat="42.254321" lon="-4.853826">
        <ele>800</ele>
        <time>2018-07-23T05:18:24.000Z</time>
      </trkpt>
      <trkpt lat="42.254431" lon="-4.853842">
        <ele>800</ele>
        <time>2018-07-23T05:18:26.000Z</time>
      </trkpt>
      <trkpt lat="42.254539" lon="-4.853858">
        <ele>800</ele>
        <time>2018-07-23T05:18:28.000Z</time>
      </trkpt>
      <trkpt lat="42.254647" lon="-4.853874">
        <ele>800</ele>
        <time>2018-07-23T05:18:30.000Z</time>
      </trkpt>
      <trkpt lat="42.254754" lon="-4.85389">
        <ele>800</ele>
        <time>2018-07-23T05:18:32.000Z</time>
      </trkpt>
      <trkpt lat="42.254862" lon="-4.853906">
        <ele>800</ele>
        <time>2018-07-23T05:18:34.000Z</time>
      </trkpt>
      <trkpt lat="42.254971" lon="-4.853922">
        <ele>800</ele>
        <time>2018-07-23T05:18:36.000Z</time>
      </trkpt>
      <trkpt lat="42.255079" lon="-4.853941">
        <ele>800</ele>
        <time>2018-07-23T05:18:38.000Z</time>
      </trkpt>
      <trkpt lat="42.255186" lon="-4.853958">
        <ele>800</ele>
        <time>2018-07-23T05:18:40.000Z</time>
      </trkpt>
      <trkpt lat="42.255292" lon="-4.853972">
        <ele>800</ele>
        <time>2018-07-23T05:18:42.000Z</time>
      </trkpt>
      <trkpt lat="42.255399" lon="-4.853985">
        <ele>800</ele>
        <time>2018-07-23T05:18:44.000Z</time>
      </trkpt>
      <trkpt lat="42.255506" lon="-4.854">
        <ele>800</ele>
        <time>2018-07-23T05:18:46.000Z</time>
      </trkpt>
      <trkpt lat="42.255613" lon="-4.854014">
        <ele>800</ele>
        <time>2018-07-23T05:18:48.000Z</time>
      </trkpt>
      <trkpt lat="42.255721" lon="-4.85403">
        <ele>800</ele>
        <time>2018-07-23T05:18:50.000Z</time>
      </trkpt>
      <trkpt lat="42.255832" lon="-4.854044">
        <ele>801</ele>
        <time>2018-07-23T05:18:52.000Z</time>
      </trkpt>
      <trkpt lat="42.255943" lon="-4.85406">
        <ele>801</ele>
        <time>2018-07-23T05:18:54.000Z</time>
      </trkpt>
      <trkpt lat="42.256053" lon="-4.854076">
        <ele>801</ele>
        <time>2018-07-23T05:18:56.000Z</time>
      </trkpt>
      <trkpt lat="42.256161" lon="-4.854092">
        <ele>801</ele>
        <time>2018-07-23T05:18:58.000Z</time>
      </trkpt>
      <trkpt lat="42.256271" lon="-4.85411">
        <ele>801</ele>
        <time>2018-07-23T05:19:00.000Z</time>
      </trkpt>
      <trkpt lat="42.25638" lon="-4.854128">
        <ele>801</ele>
        <time>2018-07-23T05:19:02.000Z</time>
      </trkpt>
      <trkpt lat="42.256488" lon="-4.854142">
        <ele>801</ele>
        <time>2018-07-23T05:19:04.000Z</time>
      </trkpt>
      <trkpt lat="42.256596" lon="-4.854162">
        <ele>801</ele>
        <time>2018-07-23T05:19:06.000Z</time>
      </trkpt>
      <trkpt lat="42.256706" lon="-4.854178">
        <ele>801</ele>
        <time>2018-07-23T05:19:08.000Z</time>
      </trkpt>
      <trkpt lat="42.256814" lon="-4.854192">
        <ele>801</ele>
        <time>2018-07-23T05:19:10.000Z</time>
      </trkpt>
      <trkpt lat="42.256922" lon="-4.854205">
        <ele>801</ele>
        <time>2018-07-23T05:19:11.990Z</time>
      </trkpt>
      <trkpt lat="42.257034" lon="-4.854222">
        <ele>801</ele>
        <time>2018-07-23T05:19:13.990Z</time>
      </trkpt>
      <trkpt lat="42.257144" lon="-4.854242">
        <ele>801</ele>
        <time>2018-07-23T05:19:15.990Z</time>
      </trkpt>
      <trkpt lat="42.257252" lon="-4.854255">
        <ele>801</ele>
        <time>2018-07-23T05:19:17.990Z</time>
      </trkpt>
      <trkpt lat="42.257364" lon="-4.854274">
        <ele>801</ele>
        <time>2018-07-23T05:19:20.000Z</time>
      </trkpt>
      <trkpt lat="42.257474" lon="-4.854293">
        <ele>801</ele>
        <time>2018-07-23T05:19:21.990Z</time>
      </trkpt>
      <trkpt lat="42.25759" lon="-4.854309">
        <ele>801</ele>
        <time>2018-07-23T05:19:23.990Z</time>
      </trkpt>
      <trkpt lat="42.257702" lon="-4.854326">
        <ele>801</ele>
        <time>2018-07-23T05:19:25.990Z</time>
      </trkpt>
      <trkpt lat="42.257811" lon="-4.854344">
        <ele>801</ele>
        <time>2018-07-23T05:19:27.990Z</time>
      </trkpt>
      <trkpt lat="42.257921" lon="-4.854358">
        <ele>801</ele>
        <time>2018-07-23T05:19:30.000Z</time>
      </trkpt>
      <trkpt lat="42.25803" lon="-4.854374">
        <ele>801</ele>
        <time>2018-07-23T05:19:31.990Z</time>
      </trkpt>
      <trkpt lat="42.258138" lon="-4.854392">
        <ele>801</ele>
        <time>2018-07-23T05:19:33.990Z</time>
      </trkpt>
      <trkpt lat="42.25825" lon="-4.85441">
        <ele>801</ele>
        <time>2018-07-23T05:19:35.990Z</time>
      </trkpt>
      <trkpt lat="42.258358" lon="-4.854422">
        <ele>801</ele>
        <time>2018-07-23T05:19:37.990Z</time>
      </trkpt>
      <trkpt lat="42.25847" lon="-4.854438">
        <ele>801</ele>
        <time>2018-07-23T05:19:40.000Z</time>
      </trkpt>
      <trkpt lat="42.25858" lon="-4.854452">
        <ele>801</ele>
        <time>2018-07-23T05:19:41.990Z</time>
      </trkpt>
      <trkpt lat="42.258692" lon="-4.854468">
        <ele>801</ele>
        <time>2018-07-23T05:19:43.990Z</time>
      </trkpt>
      <trkpt lat="42.258806" lon="-4.854481">
        <ele>801</ele>
        <time>2018-07-23T05:19:45.990Z</time>
      </trkpt>
      <trkpt lat="42.258914" lon="-4.854496">
        <ele>801</ele>
        <time>2018-07-23T05:19:47.990Z</time>
      </trkpt>
      <trkpt lat="42.259024" lon="-4.854514">
        <ele>801</ele>
        <time>2018-07-23T05:19:50.000Z</time>
      </trkpt>
      <trkpt lat="42.259133" lon="-4.854531">
        <ele>801</ele>
        <time>2018-07-23T05:19:51.990Z</time>
      </trkpt>
      <trkpt lat="42.25924" lon="-4.85455">
        <ele>801</ele>
        <time>2018-07-23T05:19:53.990Z</time>
      </trkpt>
      <trkpt lat="42.259345" lon="-4.854568">
        <ele>801</ele>
        <time>2018-07-23T05:19:55.990Z</time>
      </trkpt>
      <trkpt lat="42.259456" lon="-4.854576">
        <ele>801</ele>
        <time>2018-07-23T05:19:57.990Z</time>
      </trkpt>
      <trkpt lat="42.259563" lon="-4.854595">
        <ele>801</ele>
        <time>2018-07-23T05:20:00.000Z</time>
      </trkpt>
      <trkpt lat="42.259666" lon="-4.854603">
        <ele>801</ele>
        <time>2018-07-23T05:20:01.990Z</time>
      </trkpt>
      <trkpt lat="42.259771" lon="-4.854611">
        <ele>801</ele>
        <time>2018-07-23T05:20:03.990Z</time>
      </trkpt>
      <trkpt lat="42.259879" lon="-4.854627">
        <ele>801</ele>
        <time>2018-07-23T05:20:05.990Z</time>
      </trkpt>
      <trkpt lat="42.259982" lon="-4.854638">
        <ele>801</ele>
        <time>2018-07-23T05:20:07.990Z</time>
      </trkpt>
      <trkpt lat="42.260086" lon="-4.854649">
        <ele>801</ele>
        <time>2018-07-23T05:20:10.000Z</time>
      </trkpt>
      <trkpt lat="42.26019" lon="-4.854663">
        <ele>801</ele>
        <time>2018-07-23T05:20:11.990Z</time>
      </trkpt>
      <trkpt lat="42.260295" lon="-4.854678">
        <ele>801</ele>
        <time>2018-07-23T05:20:13.990Z</time>
      </trkpt>
      <trkpt lat="42.2604" lon="-4.854698">
        <ele>801</ele>
        <time>2018-07-23T05:20:15.990Z</time>
      </trkpt>
      <trkpt lat="42.260505" lon="-4.854718">
        <ele>801</ele>
        <time>2018-07-23T05:20:17.990Z</time>
      </trkpt>
      <trkpt lat="42.260611" lon="-4.854735">
        <ele>801</ele>
        <time>2018-07-23T05:20:20.000Z</time>
      </trkpt>
      <trkpt lat="42.26071" lon="-4.854747">
        <ele>801</ele>
        <time>2018-07-23T05:20:21.990Z</time>
      </trkpt>
      <trkpt lat="42.260812" lon="-4.854763">
        <ele>801</ele>
        <time>2018-07-23T05:20:23.990Z</time>
      </trkpt>
      <trkpt lat="42.260917" lon="-4.854783">
        <ele>801</ele>
        <time>2018-07-23T05:20:25.990Z</time>
      </trkpt>
      <trkpt lat="42.261021" lon="-4.854803">
        <ele>801</ele>
        <time>2018-07-23T05:20:27.990Z</time>
      </trkpt>
      <trkpt lat="42.261125" lon="-4.854828">
        <ele>801</ele>
        <time>2018-07-23T05:20:30.000Z</time>
      </trkpt>
      <trkpt lat="42.261221" lon="-4.854847">
        <ele>801</ele>
        <time>2018-07-23T05:20:31.990Z</time>
      </trkpt>
      <trkpt lat="42.261325" lon="-4.854858">
        <ele>801</ele>
        <time>2018-07-23T05:20:33.990Z</time>
      </trkpt>
      <trkpt lat="42.261422" lon="-4.854872">
        <ele>801</ele>
        <time>2018-07-23T05:20:35.990Z</time>
      </trkpt>
      <trkpt lat="42.261521" lon="-4.854893">
        <ele>801</ele>
        <time>2018-07-23T05:20:37.990Z</time>
      </trkpt>
      <trkpt lat="42.261622" lon="-4.854905">
        <ele>801</ele>
        <time>2018-07-23T05:20:40.000Z</time>
      </trkpt>
      <trkpt lat="42.261721" lon="-4.85492">
        <ele>801</ele>
        <time>2018-07-23T05:20:41.990Z</time>
      </trkpt>
      <trkpt lat="42.261819" lon="-4.85493">
        <ele>801</ele>
        <time>2018-07-23T05:20:43.990Z</time>
      </trkpt>
      <trkpt lat="42.261909" lon="-4.854946">
        <ele>801</ele>
        <time>2018-07-23T05:20:45.990Z</time>
      </trkpt>
      <trkpt lat="42.262012" lon="-4.854961">
        <ele>802</ele>
        <time>2018-07-23T05:20:47.990Z</time>
      </trkpt>
      <trkpt lat="42.262119" lon="-4.854979">
        <ele>802</ele>
        <time>2018-07-23T05:20:50.000Z</time>
      </trkpt>
      <trkpt lat="42.262223" lon="-4.854994">
        <ele>802</ele>
        <time>2018-07-23T05:20:51.990Z</time>
      </trkpt>
      <trkpt lat="42.262333" lon="-4.855008">
        <ele>802</ele>
        <time>2018-07-23T05:20:53.990Z</time>
      </trkpt>
      <trkpt lat="42.262445" lon="-4.855024">
        <ele>802</ele>
        <time>2018-07-23T05:20:55.990Z</time>
      </trkpt>
      <trkpt lat="42.262555" lon="-4.855042">
        <ele>802</ele>
        <time>2018-07-23T05:20:57.990Z</time>
      </trkpt>
      <trkpt lat="42.262666" lon="-4.855056">
        <ele>802</ele>
        <time>2018-07-23T05:21:00.000Z</time>
      </trkpt>
      <trkpt lat="42.262775" lon="-4.855072">
        <ele>802</ele>
        <time>2018-07-23T05:21:01.990Z</time>
      </trkpt>
      <trkpt lat="42.262888" lon="-4.855088">
        <ele>802</ele>
        <time>2018-07-23T05:21:03.990Z</time>
      </trkpt>
      <trkpt lat="42.263" lon="-4.855109">
        <ele>802</ele>
        <time>2018-07-23T05:21:05.990Z</time>
      </trkpt>
      <trkpt lat="42.263113" lon="-4.855126">
        <ele>802</ele>
        <time>2018-07-23T05:21:07.990Z</time>
      </trkpt>
      <trkpt lat="42.263222" lon="-4.855143">
        <ele>802</ele>
        <time>2018-07-23T05:21:10.000Z</time>
      </trkpt>
      <trkpt lat="42.263332" lon="-4.855156">
        <ele>803</ele>
        <time>2018-07-23T05:21:11.990Z</time>
      </trkpt>
      <trkpt lat="42.263439" lon="-4.855177">
        <ele>803</ele>
        <time>2018-07-23T05:21:13.990Z</time>
      </trkpt>
      <trkpt lat="42.263544" lon="-4.855195">
        <ele>803</ele>
        <time>2018-07-23T05:21:15.990Z</time>
      </trkpt>
      <trkpt lat="42.26365" lon="-4.855214">
        <ele>803</ele>
        <time>2018-07-23T05:21:17.990Z</time>
      </trkpt>
      <trkpt lat="42.263759" lon="-4.855229">
        <ele>803</ele>
        <time>2018-07-23T05:21:20.000Z</time>
      </trkpt>
      <trkpt lat="42.263861" lon="-4.855254">
        <ele>803</ele>
        <time>2018-07-23T05:21:21.990Z</time>
      </trkpt>
      <trkpt lat="42.263957" lon="-4.855288">
        <ele>803</ele>
        <time>2018-07-23T05:21:23.990Z</time>
      </trkpt>
      <trkpt lat="42.264055" lon="-4.855327">
        <ele>803</ele>
        <time>2018-07-23T05:21:25.990Z</time>
      </trkpt>
      <trkpt lat="42.264159" lon="-4.85537">
        <ele>803</ele>
        <time>2018-07-23T05:21:27.990Z</time>
      </trkpt>
      <trkpt lat="42.264267" lon="-4.855419">
        <ele>803</ele>
        <time>2018-07-23T05:21:30.000Z</time>
      </trkpt>
      <trkpt lat="42.264365" lon="-4.855464">
        <ele>803</ele>
        <time>2018-07-23T05:21:31.990Z</time>
      </trkpt>
      <trkpt lat="42.264463" lon="-4.855508">
        <ele>803</ele>
        <time>2018-07-23T05:21:33.990Z</time>
      </trkpt>
      <trkpt lat="42.26459" lon="-4.855559">
        <ele>803</ele>
        <time>2018-07-23T05:21:36.990Z</time>
      </trkpt>
      <trkpt lat="42.264682" lon="-4.855608">
        <ele>803</ele>
        <time>2018-07-23T05:21:38.990Z</time>
      </trkpt>
      <trkpt lat="42.264775" lon="-4.855649">
        <ele>803</ele>
        <time>2018-07-23T05:21:40.990Z</time>
      </trkpt>
      <trkpt lat="42.264867" lon="-4.855689">
        <ele>803</ele>
        <time>2018-07-23T05:21:42.990Z</time>
      </trkpt>
      <trkpt lat="42.264966" lon="-4.855731">
        <ele>803</ele>
        <time>2018-07-23T05:21:45.990Z</time>
      </trkpt>
      <trkpt lat="42.265054" lon="-4.855774">
        <ele>803</ele>
        <time>2018-07-23T05:21:48.990Z</time>
      </trkpt>
      <trkpt lat="42.265169" lon="-4.855821">
        <ele>803</ele>
        <time>2018-07-23T05:21:51.990Z</time>
      </trkpt>
      <trkpt lat="42.265267" lon="-4.855848">
        <ele>803</ele>
        <time>2018-07-23T05:21:53.990Z</time>
      </trkpt>
      <trkpt lat="42.265363" lon="-4.855887">
        <ele>803</ele>
        <time>2018-07-23T05:21:55.990Z</time>
      </trkpt>
      <trkpt lat="42.26546" lon="-4.855931">
        <ele>803</ele>
        <time>2018-07-23T05:21:57.990Z</time>
      </trkpt>
      <trkpt lat="42.265553" lon="-4.855974">
        <ele>803</ele>
        <time>2018-07-23T05:22:00.000Z</time>
      </trkpt>
      <trkpt lat="42.265649" lon="-4.856015">
        <ele>803</ele>
        <time>2018-07-23T05:22:01.990Z</time>
      </trkpt>
      <trkpt lat="42.26575" lon="-4.85605">
        <ele>803</ele>
        <time>2018-07-23T05:22:03.990Z</time>
      </trkpt>
      <trkpt lat="42.265849" lon="-4.85609">
        <ele>803</ele>
        <time>2018-07-23T05:22:05.990Z</time>
      </trkpt>
      <trkpt lat="42.265961" lon="-4.856117">
        <ele>803</ele>
        <time>2018-07-23T05:22:07.990Z</time>
      </trkpt>
      <trkpt lat="42.266073" lon="-4.856138">
        <ele>803</ele>
        <time>2018-07-23T05:22:10.000Z</time>
      </trkpt>
      <trkpt lat="42.266186" lon="-4.856141">
        <ele>803</ele>
        <time>2018-07-23T05:22:11.990Z</time>
      </trkpt>
      <trkpt lat="42.266292" lon="-4.85613">
        <ele>803</ele>
        <time>2018-07-23T05:22:13.990Z</time>
      </trkpt>
      <trkpt lat="42.266398" lon="-4.856119">
        <ele>803.32</ele>
        <time>2018-07-23T05:22:15.990Z</time>
      </trkpt>
      <trkpt lat="42.26651" lon="-4.856101">
        <ele>804</ele>
        <time>2018-07-23T05:22:17.990Z</time>
      </trkpt>
      <trkpt lat="42.266624" lon="-4.85609">
        <ele>804</ele>
        <time>2018-07-23T05:22:20.000Z</time>
      </trkpt>
      <trkpt lat="42.266734" lon="-4.856078">
        <ele>804</ele>
        <time>2018-07-23T05:22:21.990Z</time>
      </trkpt>
      <trkpt lat="42.266845" lon="-4.85607">
        <ele>804</ele>
        <time>2018-07-23T05:22:23.990Z</time>
      </trkpt>
      <trkpt lat="42.266951" lon="-4.856065">
        <ele>804</ele>
        <time>2018-07-23T05:22:25.990Z</time>
      </trkpt>
      <trkpt lat="42.26706" lon="-4.856059">
        <ele>804</ele>
        <time>2018-07-23T05:22:27.990Z</time>
      </trkpt>
      <trkpt lat="42.267177" lon="-4.856049">
        <ele>804</ele>
        <time>2018-07-23T05:22:30.000Z</time>
      </trkpt>
      <trkpt lat="42.267284" lon="-4.856042">
        <ele>804</ele>
        <time>2018-07-23T05:22:31.990Z</time>
      </trkpt>
      <trkpt lat="42.267393" lon="-4.856037">
        <ele>804</ele>
        <time>2018-07-23T05:22:33.990Z</time>
      </trkpt>
      <trkpt lat="42.267504" lon="-4.856024">
        <ele>804</ele>
        <time>2018-07-23T05:22:35.990Z</time>
      </trkpt>
      <trkpt lat="42.267605" lon="-4.856018">
        <ele>804</ele>
        <time>2018-07-23T05:22:37.990Z</time>
      </trkpt>
      <trkpt lat="42.267714" lon="-4.85601">
        <ele>804</ele>
        <time>2018-07-23T05:22:40.000Z</time>
      </trkpt>
      <trkpt lat="42.267818" lon="-4.856006">
        <ele>804</ele>
        <time>2018-07-23T05:22:41.990Z</time>
      </trkpt>
      <trkpt lat="42.267928" lon="-4.855999">
        <ele>804</ele>
        <time>2018-07-23T05:22:43.990Z</time>
      </trkpt>
      <trkpt lat="42.268035" lon="-4.855989">
        <ele>804</ele>
        <time>2018-07-23T05:22:45.990Z</time>
      </trkpt>
      <trkpt lat="42.268141" lon="-4.855978">
        <ele>804</ele>
        <time>2018-07-23T05:22:47.990Z</time>
      </trkpt>
      <trkpt lat="42.268251" lon="-4.855972">
        <ele>804</ele>
        <time>2018-07-23T05:22:50.000Z</time>
      </trkpt>
      <trkpt lat="42.268361" lon="-4.855955">
        <ele>804</ele>
        <time>2018-07-23T05:22:51.990Z</time>
      </trkpt>
      <trkpt lat="42.268469" lon="-4.85594">
        <ele>804</ele>
        <time>2018-07-23T05:22:53.990Z</time>
      </trkpt>
      <trkpt lat="42.26858" lon="-4.85593">
        <ele>804</ele>
        <time>2018-07-23T05:22:55.990Z</time>
      </trkpt>
      <trkpt lat="42.268691" lon="-4.855916">
        <ele>804</ele>
        <time>2018-07-23T05:22:57.990Z</time>
      </trkpt>
      <trkpt lat="42.268799" lon="-4.855906">
        <ele>804</ele>
        <time>2018-07-23T05:23:00.000Z</time>
      </trkpt>
      <trkpt lat="42.268911" lon="-4.8559">
        <ele>804</ele>
        <time>2018-07-23T05:23:01.990Z</time>
      </trkpt>
      <trkpt lat="42.269023" lon="-4.855886">
        <ele>804</ele>
        <time>2018-07-23T05:23:03.990Z</time>
      </trkpt>
      <trkpt lat="42.269134" lon="-4.855879">
        <ele>804</ele>
        <time>2018-07-23T05:23:05.990Z</time>
      </trkpt>
      <trkpt lat="42.269245" lon="-4.855876">
        <ele>804</ele>
        <time>2018-07-23T05:23:07.990Z</time>
      </trkpt>
      <trkpt lat="42.269355" lon="-4.855874">
        <ele>804.014701176471</ele>
        <time>2018-07-23T05:23:10.000Z</time>
      </trkpt>
      <trkpt lat="42.269468" lon="-4.855862">
        <ele>805</ele>
        <time>2018-07-23T05:23:11.990Z</time>
      </trkpt>
      <trkpt lat="42.269585" lon="-4.85585">
        <ele>805</ele>
        <time>2018-07-23T05:23:13.990Z</time>
      </trkpt>
      <trkpt lat="42.269698" lon="-4.855842">
        <ele>805</ele>
        <time>2018-07-23T05:23:15.990Z</time>
      </trkpt>
      <trkpt lat="42.269813" lon="-4.855828">
        <ele>805</ele>
        <time>2018-07-23T05:23:17.990Z</time>
      </trkpt>
      <trkpt lat="42.269931" lon="-4.855826">
        <ele>805</ele>
        <time>2018-07-23T05:23:20.000Z</time>
      </trkpt>
      <trkpt lat="42.270047" lon="-4.855815">
        <ele>805</ele>
        <time>2018-07-23T05:23:21.990Z</time>
      </trkpt>
      <trkpt lat="42.270161" lon="-4.855806">
        <ele>805</ele>
        <time>2018-07-23T05:23:23.990Z</time>
      </trkpt>
      <trkpt lat="42.270276" lon="-4.8558">
        <ele>805</ele>
        <time>2018-07-23T05:23:25.990Z</time>
      </trkpt>
      <trkpt lat="42.270392" lon="-4.855788">
        <ele>805</ele>
        <time>2018-07-23T05:23:27.990Z</time>
      </trkpt>
      <trkpt lat="42.27051" lon="-4.85578">
        <ele>805</ele>
        <time>2018-07-23T05:23:30.000Z</time>
      </trkpt>
      <trkpt lat="42.270624" lon="-4.855772">
        <ele>805</ele>
        <time>2018-07-23T05:23:31.990Z</time>
      </trkpt>
      <trkpt lat="42.270742" lon="-4.855771">
        <ele>805</ele>
        <time>2018-07-23T05:23:33.990Z</time>
      </trkpt>
      <trkpt lat="42.270854" lon="-4.855762">
        <ele>805</ele>
        <time>2018-07-23T05:23:35.990Z</time>
      </trkpt>
      <trkpt lat="42.270969" lon="-4.85575">
        <ele>805</ele>
        <time>2018-07-23T05:23:37.990Z</time>
      </trkpt>
      <trkpt lat="42.271081" lon="-4.855742">
        <ele>806.3299968</ele>
        <time>2018-07-23T05:23:40.000Z</time>
      </trkpt>
      <trkpt lat="42.271189" lon="-4.855734">
        <ele>806.68</ele>
        <time>2018-07-23T05:23:41.990Z</time>
      </trkpt>
      <trkpt lat="42.271302" lon="-4.855726">
        <ele>806</ele>
        <time>2018-07-23T05:23:43.990Z</time>
      </trkpt>
      <trkpt lat="42.271412" lon="-4.855731">
        <ele>806.32</ele>
        <time>2018-07-23T05:23:45.990Z</time>
      </trkpt>
      <trkpt lat="42.271518" lon="-4.855721">
        <ele>807</ele>
        <time>2018-07-23T05:23:47.990Z</time>
      </trkpt>
      <trkpt lat="42.271629" lon="-4.855718">
        <ele>807</ele>
        <time>2018-07-23T05:23:50.000Z</time>
      </trkpt>
      <trkpt lat="42.271734" lon="-4.855707">
        <ele>807</ele>
        <time>2018-07-23T05:23:51.990Z</time>
      </trkpt>
      <trkpt lat="42.271839" lon="-4.855694">
        <ele>807</ele>
        <time>2018-07-23T05:23:53.990Z</time>
      </trkpt>
      <trkpt lat="42.27195" lon="-4.855686">
        <ele>807</ele>
        <time>2018-07-23T05:23:55.990Z</time>
      </trkpt>
      <trkpt lat="42.272055" lon="-4.855673">
        <ele>807</ele>
        <time>2018-07-23T05:23:57.990Z</time>
      </trkpt>
      <trkpt lat="42.272164" lon="-4.855666">
        <ele>807</ele>
        <time>2018-07-23T05:24:00.000Z</time>
      </trkpt>
      <trkpt lat="42.272275" lon="-4.85565">
        <ele>807</ele>
        <time>2018-07-23T05:24:01.990Z</time>
      </trkpt>
      <trkpt lat="42.27239" lon="-4.855642">
        <ele>807</ele>
        <time>2018-07-23T05:24:03.990Z</time>
      </trkpt>
      <trkpt lat="42.272507" lon="-4.855634">
        <ele>807</ele>
        <time>2018-07-23T05:24:05.990Z</time>
      </trkpt>
      <trkpt lat="42.272618" lon="-4.855622">
        <ele>807</ele>
        <time>2018-07-23T05:24:07.990Z</time>
      </trkpt>
      <trkpt lat="42.272729" lon="-4.855613">
        <ele>807</ele>
        <time>2018-07-23T05:24:10.000Z</time>
      </trkpt>
      <trkpt lat="42.27284" lon="-4.855605">
        <ele>807</ele>
        <time>2018-07-23T05:24:11.990Z</time>
      </trkpt>
      <trkpt lat="42.27295" lon="-4.855598">
        <ele>807</ele>
        <time>2018-07-23T05:24:13.990Z</time>
      </trkpt>
      <trkpt lat="42.273065" lon="-4.855589">
        <ele>807</ele>
        <time>2018-07-23T05:24:15.990Z</time>
      </trkpt>
      <trkpt lat="42.273179" lon="-4.855576">
        <ele>807</ele>
        <time>2018-07-23T05:24:17.990Z</time>
      </trkpt>
      <trkpt lat="42.273299" lon="-4.855568">
        <ele>807</ele>
        <time>2018-07-23T05:24:20.000Z</time>
      </trkpt>
      <trkpt lat="42.273411" lon="-4.85555">
        <ele>807</ele>
        <time>2018-07-23T05:24:21.990Z</time>
      </trkpt>
      <trkpt lat="42.273529" lon="-4.855541">
        <ele>807</ele>
        <time>2018-07-23T05:24:23.990Z</time>
      </trkpt>
      <trkpt lat="42.273643" lon="-4.855539">
        <ele>807</ele>
        <time>2018-07-23T05:24:25.990Z</time>
      </trkpt>
      <trkpt lat="42.273757" lon="-4.855531">
        <ele>807</ele>
        <time>2018-07-23T05:24:27.990Z</time>
      </trkpt>
      <trkpt lat="42.273867" lon="-4.855524">
        <ele>807</ele>
        <time>2018-07-23T05:24:30.000Z</time>
      </trkpt>
      <trkpt lat="42.273978" lon="-4.855516">
        <ele>807</ele>
        <time>2018-07-23T05:24:31.990Z</time>
      </trkpt>
      <trkpt lat="42.274088" lon="-4.855508">
        <ele>807</ele>
        <time>2018-07-23T05:24:33.990Z</time>
      </trkpt>
      <trkpt lat="42.274193" lon="-4.855503">
        <ele>807</ele>
        <time>2018-07-23T05:24:35.990Z</time>
      </trkpt>
      <trkpt lat="42.274303" lon="-4.855492">
        <ele>807</ele>
        <time>2018-07-23T05:24:37.990Z</time>
      </trkpt>
      <trkpt lat="42.274415" lon="-4.855484">
        <ele>807</ele>
        <time>2018-07-23T05:24:40.000Z</time>
      </trkpt>
      <trkpt lat="42.274522" lon="-4.855475">
        <ele>807</ele>
        <time>2018-07-23T05:24:41.990Z</time>
      </trkpt>
      <trkpt lat="42.274634" lon="-4.855468">
        <ele>807</ele>
        <time>2018-07-23T05:24:43.990Z</time>
      </trkpt>
      <trkpt lat="42.274743" lon="-4.855463">
        <ele>807</ele>
        <time>2018-07-23T05:24:45.990Z</time>
      </trkpt>
      <trkpt lat="42.274854" lon="-4.85546">
        <ele>807</ele>
        <time>2018-07-23T05:24:47.990Z</time>
      </trkpt>
      <trkpt lat="42.274968" lon="-4.855459">
        <ele>807</ele>
        <time>2018-07-23T05:24:50.000Z</time>
      </trkpt>
      <trkpt lat="42.275082" lon="-4.855452">
        <ele>807</ele>
        <time>2018-07-23T05:24:51.990Z</time>
      </trkpt>
      <trkpt lat="42.275194" lon="-4.855438">
        <ele>807</ele>
        <time>2018-07-23T05:24:53.990Z</time>
      </trkpt>
      <trkpt lat="42.27531" lon="-4.855428">
        <ele>807</ele>
        <time>2018-07-23T05:24:55.990Z</time>
      </trkpt>
      <trkpt lat="42.275424" lon="-4.855419">
        <ele>807</ele>
        <time>2018-07-23T05:24:57.990Z</time>
      </trkpt>
      <trkpt lat="42.275536" lon="-4.855417">
        <ele>807</ele>
        <time>2018-07-23T05:25:00.000Z</time>
      </trkpt>
      <trkpt lat="42.27565" lon="-4.855404">
        <ele>807</ele>
        <time>2018-07-23T05:25:01.990Z</time>
      </trkpt>
      <trkpt lat="42.275763" lon="-4.855397">
        <ele>807</ele>
        <time>2018-07-23T05:25:03.990Z</time>
      </trkpt>
      <trkpt lat="42.275871" lon="-4.855391">
        <ele>807</ele>
        <time>2018-07-23T05:25:05.990Z</time>
      </trkpt>
      <trkpt lat="42.275974" lon="-4.855381">
        <ele>807</ele>
        <time>2018-07-23T05:25:07.990Z</time>
      </trkpt>
      <trkpt lat="42.276084" lon="-4.855369">
        <ele>807</ele>
        <time>2018-07-23T05:25:10.000Z</time>
      </trkpt>
      <trkpt lat="42.276195" lon="-4.855356">
        <ele>807</ele>
        <time>2018-07-23T05:25:11.990Z</time>
      </trkpt>
      <trkpt lat="42.276307" lon="-4.855345">
        <ele>807</ele>
        <time>2018-07-23T05:25:13.990Z</time>
      </trkpt>
      <trkpt lat="42.276418" lon="-4.855342">
        <ele>807.3499904</ele>
        <time>2018-07-23T05:25:16.020Z</time>
      </trkpt>
      <trkpt lat="42.276524" lon="-4.855326">
        <ele>808</ele>
        <time>2018-07-23T05:25:17.990Z</time>
      </trkpt>
      <trkpt lat="42.276638" lon="-4.855315">
        <ele>808</ele>
        <time>2018-07-23T05:25:20.000Z</time>
      </trkpt>
      <trkpt lat="42.276748" lon="-4.8553">
        <ele>808</ele>
        <time>2018-07-23T05:25:21.990Z</time>
      </trkpt>
      <trkpt lat="42.276858" lon="-4.855293">
        <ele>808</ele>
        <time>2018-07-23T05:25:23.990Z</time>
      </trkpt>
      <trkpt lat="42.276972" lon="-4.855288">
        <ele>808</ele>
        <time>2018-07-23T05:25:25.990Z</time>
      </trkpt>
      <trkpt lat="42.277084" lon="-4.855274">
        <ele>808</ele>
        <time>2018-07-23T05:25:27.990Z</time>
      </trkpt>
      <trkpt lat="42.277197" lon="-4.855265">
        <ele>808</ele>
        <time>2018-07-23T05:25:30.000Z</time>
      </trkpt>
      <trkpt lat="42.277306" lon="-4.855253">
        <ele>808</ele>
        <time>2018-07-23T05:25:31.990Z</time>
      </trkpt>
      <trkpt lat="42.277422" lon="-4.855248">
        <ele>808</ele>
        <time>2018-07-23T05:25:33.990Z</time>
      </trkpt>
      <trkpt lat="42.277537" lon="-4.855236">
        <ele>808</ele>
        <time>2018-07-23T05:25:35.990Z</time>
      </trkpt>
      <trkpt lat="42.277651" lon="-4.855225">
        <ele>808</ele>
        <time>2018-07-23T05:25:37.990Z</time>
      </trkpt>
      <trkpt lat="42.277767" lon="-4.855216">
        <ele>808</ele>
        <time>2018-07-23T05:25:40.000Z</time>
      </trkpt>
      <trkpt lat="42.277876" lon="-4.855208">
        <ele>808</ele>
        <time>2018-07-23T05:25:41.990Z</time>
      </trkpt>
      <trkpt lat="42.277987" lon="-4.8552">
        <ele>808.32</ele>
        <time>2018-07-23T05:25:43.990Z</time>
      </trkpt>
      <trkpt lat="42.278095" lon="-4.85519">
        <ele>809</ele>
        <time>2018-07-23T05:25:45.990Z</time>
      </trkpt>
      <trkpt lat="42.278206" lon="-4.855187">
        <ele>809</ele>
        <time>2018-07-23T05:25:47.990Z</time>
      </trkpt>
      <trkpt lat="42.278321" lon="-4.85518">
        <ele>809</ele>
        <time>2018-07-23T05:25:50.000Z</time>
      </trkpt>
      <trkpt lat="42.278432" lon="-4.855174">
        <ele>809</ele>
        <time>2018-07-23T05:25:51.990Z</time>
      </trkpt>
      <trkpt lat="42.278544" lon="-4.855171">
        <ele>809</ele>
        <time>2018-07-23T05:25:53.990Z</time>
      </trkpt>
      <trkpt lat="42.278654" lon="-4.855167">
        <ele>809</ele>
        <time>2018-07-23T05:25:55.990Z</time>
      </trkpt>
      <trkpt lat="42.278763" lon="-4.85516">
        <ele>809</ele>
        <time>2018-07-23T05:25:57.990Z</time>
      </trkpt>
      <trkpt lat="42.278873" lon="-4.855151">
        <ele>809</ele>
        <time>2018-07-23T05:26:00.000Z</time>
      </trkpt>
      <trkpt lat="42.278989" lon="-4.855142">
        <ele>809</ele>
        <time>2018-07-23T05:26:01.990Z</time>
      </trkpt>
      <trkpt lat="42.279094" lon="-4.855131">
        <ele>809</ele>
        <time>2018-07-23T05:26:03.990Z</time>
      </trkpt>
      <trkpt lat="42.279209" lon="-4.855121">
        <ele>809</ele>
        <time>2018-07-23T05:26:05.990Z</time>
      </trkpt>
      <trkpt lat="42.279329" lon="-4.855105">
        <ele>809</ele>
        <time>2018-07-23T05:26:07.990Z</time>
      </trkpt>
      <trkpt lat="42.279442" lon="-4.855095">
        <ele>809</ele>
        <time>2018-07-23T05:26:10.000Z</time>
      </trkpt>
      <trkpt lat="42.279553" lon="-4.855088">
        <ele>810</ele>
        <time>2018-07-23T05:26:11.990Z</time>
      </trkpt>
      <trkpt lat="42.279665" lon="-4.855083">
        <ele>810</ele>
        <time>2018-07-23T05:26:13.990Z</time>
      </trkpt>
      <trkpt lat="42.279775" lon="-4.855072">
        <ele>810</ele>
        <time>2018-07-23T05:26:15.990Z</time>
      </trkpt>
      <trkpt lat="42.279891" lon="-4.855063">
        <ele>810</ele>
        <time>2018-07-23T05:26:17.990Z</time>
      </trkpt>
      <trkpt lat="42.280005" lon="-4.855062">
        <ele>810.3299968</ele>
        <time>2018-07-23T05:26:20.000Z</time>
      </trkpt>
      <trkpt lat="42.280115" lon="-4.855056">
        <ele>811</ele>
        <time>2018-07-23T05:26:21.990Z</time>
      </trkpt>
      <trkpt lat="42.280224" lon="-4.855043">
        <ele>810</ele>
        <time>2018-07-23T05:26:23.990Z</time>
      </trkpt>
      <trkpt lat="42.280333" lon="-4.855026">
        <ele>810</ele>
        <time>2018-07-23T05:26:25.990Z</time>
      </trkpt>
      <trkpt lat="42.280444" lon="-4.85501">
        <ele>810</ele>
        <time>2018-07-23T05:26:27.990Z</time>
      </trkpt>
      <trkpt lat="42.280554" lon="-4.855001">
        <ele>811</ele>
        <time>2018-07-23T05:26:30.000Z</time>
      </trkpt>
      <trkpt lat="42.280661" lon="-4.854989">
        <ele>811</ele>
        <time>2018-07-23T05:26:31.990Z</time>
      </trkpt>
      <trkpt lat="42.280772" lon="-4.85498">
        <ele>811</ele>
        <time>2018-07-23T05:26:33.990Z</time>
      </trkpt>
      <trkpt lat="42.280879" lon="-4.854964">
        <ele>811</ele>
        <time>2018-07-23T05:26:35.990Z</time>
      </trkpt>
      <trkpt lat="42.280988" lon="-4.854957">
        <ele>811</ele>
        <time>2018-07-23T05:26:37.990Z</time>
      </trkpt>
      <trkpt lat="42.281102" lon="-4.854949">
        <ele>811</ele>
        <time>2018-07-23T05:26:40.000Z</time>
      </trkpt>
      <trkpt lat="42.281214" lon="-4.854935">
        <ele>811</ele>
        <time>2018-07-23T05:26:41.990Z</time>
      </trkpt>
      <trkpt lat="42.281326" lon="-4.854917">
        <ele>811</ele>
        <time>2018-07-23T05:26:43.990Z</time>
      </trkpt>
      <trkpt lat="42.281438" lon="-4.854907">
        <ele>811</ele>
        <time>2018-07-23T05:26:45.990Z</time>
      </trkpt>
      <trkpt lat="42.281551" lon="-4.854902">
        <ele>811</ele>
        <time>2018-07-23T05:26:47.990Z</time>
      </trkpt>
      <trkpt lat="42.281666" lon="-4.854901">
        <ele>811</ele>
        <time>2018-07-23T05:26:50.000Z</time>
      </trkpt>
      <trkpt lat="42.281774" lon="-4.854902">
        <ele>811</ele>
        <time>2018-07-23T05:26:51.990Z</time>
      </trkpt>
      <trkpt lat="42.281885" lon="-4.854909">
        <ele>811</ele>
        <time>2018-07-23T05:26:53.990Z</time>
      </trkpt>
      <trkpt lat="42.281996" lon="-4.854893">
        <ele>811</ele>
        <time>2018-07-23T05:26:55.990Z</time>
      </trkpt>
      <trkpt lat="42.282104" lon="-4.854886">
        <ele>811</ele>
        <time>2018-07-23T05:26:57.990Z</time>
      </trkpt>
      <trkpt lat="42.282215" lon="-4.854876">
        <ele>811</ele>
        <time>2018-07-23T05:27:00.000Z</time>
      </trkpt>
      <trkpt lat="42.282323" lon="-4.854865">
        <ele>812</ele>
        <time>2018-07-23T05:27:01.990Z</time>
      </trkpt>
      <trkpt lat="42.282433" lon="-4.854852">
        <ele>812</ele>
        <time>2018-07-23T05:27:03.990Z</time>
      </trkpt>
      <trkpt lat="42.282548" lon="-4.854853">
        <ele>812</ele>
        <time>2018-07-23T05:27:05.990Z</time>
      </trkpt>
      <trkpt lat="42.282663" lon="-4.854853">
        <ele>812</ele>
        <time>2018-07-23T05:27:07.990Z</time>
      </trkpt>
      <trkpt lat="42.282773" lon="-4.854846">
        <ele>811.007460334139</ele>
        <time>2018-07-23T05:27:10.000Z</time>
      </trkpt>
      <trkpt lat="42.282886" lon="-4.854843">
        <ele>811</ele>
        <time>2018-07-23T05:27:11.990Z</time>
      </trkpt>
      <trkpt lat="42.283002" lon="-4.854828">
        <ele>811.32</ele>
        <time>2018-07-23T05:27:13.990Z</time>
      </trkpt>
      <trkpt lat="42.283114" lon="-4.85482">
        <ele>812</ele>
        <time>2018-07-23T05:27:15.990Z</time>
      </trkpt>
      <trkpt lat="42.283225" lon="-4.854804">
        <ele>812</ele>
        <time>2018-07-23T05:27:17.990Z</time>
      </trkpt>
      <trkpt lat="42.283332" lon="-4.854797">
        <ele>812</ele>
        <time>2018-07-23T05:27:20.000Z</time>
      </trkpt>
      <trkpt lat="42.283443" lon="-4.854783">
        <ele>812</ele>
        <time>2018-07-23T05:27:21.990Z</time>
      </trkpt>
      <trkpt lat="42.283554" lon="-4.85478">
        <ele>812</ele>
        <time>2018-07-23T05:27:23.990Z</time>
      </trkpt>
      <trkpt lat="42.283661" lon="-4.854769">
        <ele>812</ele>
        <time>2018-07-23T05:27:25.990Z</time>
      </trkpt>
      <trkpt lat="42.283759" lon="-4.854758">
        <ele>812</ele>
        <time>2018-07-23T05:27:27.990Z</time>
      </trkpt>
      <trkpt lat="42.283857" lon="-4.854746">
        <ele>813</ele>
        <time>2018-07-23T05:27:30.000Z</time>
      </trkpt>
      <trkpt lat="42.28396" lon="-4.854724">
        <ele>813</ele>
        <time>2018-07-23T05:27:31.990Z</time>
      </trkpt>
      <trkpt lat="42.284067" lon="-4.854711">
        <ele>813</ele>
        <time>2018-07-23T05:27:33.990Z</time>
      </trkpt>
      <trkpt lat="42.284174" lon="-4.854701">
        <ele>813.32</ele>
        <time>2018-07-23T05:27:35.990Z</time>
      </trkpt>
      <trkpt lat="42.284281" lon="-4.854691">
        <ele>814</ele>
        <time>2018-07-23T05:27:37.990Z</time>
      </trkpt>
      <trkpt lat="42.284386" lon="-4.854681">
        <ele>815</ele>
        <time>2018-07-23T05:27:40.000Z</time>
      </trkpt>
      <trkpt lat="42.284491" lon="-4.854669">
        <ele>815</ele>
        <time>2018-07-23T05:27:41.990Z</time>
      </trkpt>
      <trkpt lat="42.284597" lon="-4.854661">
        <ele>815</ele>
        <time>2018-07-23T05:27:43.990Z</time>
      </trkpt>
      <trkpt lat="42.284694" lon="-4.854652">
        <ele>815.028580310123</ele>
        <time>2018-07-23T05:27:45.990Z</time>
      </trkpt>
      <trkpt lat="42.284793" lon="-4.854643">
        <ele>816</ele>
        <time>2018-07-23T05:27:47.990Z</time>
      </trkpt>
      <trkpt lat="42.284895" lon="-4.854632">
        <ele>817</ele>
        <time>2018-07-23T05:27:50.000Z</time>
      </trkpt>
      <trkpt lat="42.284997" lon="-4.854629">
        <ele>817</ele>
        <time>2018-07-23T05:27:51.990Z</time>
      </trkpt>
      <trkpt lat="42.285097" lon="-4.854621">
        <ele>817</ele>
        <time>2018-07-23T05:27:53.990Z</time>
      </trkpt>
      <trkpt lat="42.285197" lon="-4.854612">
        <ele>817</ele>
        <time>2018-07-23T05:27:55.990Z</time>
      </trkpt>
      <trkpt lat="42.2853" lon="-4.854604">
        <ele>817</ele>
        <time>2018-07-23T05:27:57.990Z</time>
      </trkpt>
      <trkpt lat="42.285398" lon="-4.854595">
        <ele>817</ele>
        <time>2018-07-23T05:28:00.000Z</time>
      </trkpt>
      <trkpt lat="42.285492" lon="-4.854587">
        <ele>817</ele>
        <time>2018-07-23T05:28:01.990Z</time>
      </trkpt>
      <trkpt lat="42.285593" lon="-4.854586">
        <ele>818</ele>
        <time>2018-07-23T05:28:03.990Z</time>
      </trkpt>
      <trkpt lat="42.285691" lon="-4.854586">
        <ele>818.32</ele>
        <time>2018-07-23T05:28:05.990Z</time>
      </trkpt>
      <trkpt lat="42.285792" lon="-4.854579">
        <ele>819</ele>
        <time>2018-07-23T05:28:07.990Z</time>
      </trkpt>
      <trkpt lat="42.285891" lon="-4.854581">
        <ele>819</ele>
        <time>2018-07-23T05:28:10.000Z</time>
      </trkpt>
      <trkpt lat="42.285983" lon="-4.854581">
        <ele>819</ele>
        <time>2018-07-23T05:28:11.990Z</time>
      </trkpt>
      <trkpt lat="42.286074" lon="-4.854575">
        <ele>819.32</ele>
        <time>2018-07-23T05:28:13.990Z</time>
      </trkpt>
      <trkpt lat="42.286166" lon="-4.854564">
        <ele>820</ele>
        <time>2018-07-23T05:28:15.990Z</time>
      </trkpt>
      <trkpt lat="42.286261" lon="-4.854553">
        <ele>820</ele>
        <time>2018-07-23T05:28:17.990Z</time>
      </trkpt>
      <trkpt lat="42.286363" lon="-4.854547">
        <ele>820</ele>
        <time>2018-07-23T05:28:20.000Z</time>
      </trkpt>
      <trkpt lat="42.286456" lon="-4.854538">
        <ele>820</ele>
        <time>2018-07-23T05:28:21.990Z</time>
      </trkpt>
      <trkpt lat="42.286551" lon="-4.854527">
        <ele>820</ele>
        <time>2018-07-23T05:28:23.990Z</time>
      </trkpt>
      <trkpt lat="42.286651" lon="-4.85452">
        <ele>820</ele>
        <time>2018-07-23T05:28:25.990Z</time>
      </trkpt>
      <trkpt lat="42.286759" lon="-4.854503">
        <ele>820.028580310123</ele>
        <time>2018-07-23T05:28:27.990Z</time>
      </trkpt>
      <trkpt lat="42.286863" lon="-4.854487">
        <ele>821</ele>
        <time>2018-07-23T05:28:30.000Z</time>
      </trkpt>
      <trkpt lat="42.286966" lon="-4.854461">
        <ele>821</ele>
        <time>2018-07-23T05:28:31.990Z</time>
      </trkpt>
      <trkpt lat="42.287068" lon="-4.85444">
        <ele>821</ele>
        <time>2018-07-23T05:28:33.990Z</time>
      </trkpt>
      <trkpt lat="42.287168" lon="-4.854415">
        <ele>821</ele>
        <time>2018-07-23T05:28:35.990Z</time>
      </trkpt>
      <trkpt lat="42.287266" lon="-4.854385">
        <ele>821</ele>
        <time>2018-07-23T05:28:38.000Z</time>
      </trkpt>
      <trkpt lat="42.287365" lon="-4.854358">
        <ele>821</ele>
        <time>2018-07-23T05:28:40.000Z</time>
      </trkpt>
      <trkpt lat="42.287463" lon="-4.854335">
        <ele>821</ele>
        <time>2018-07-23T05:28:42.000Z</time>
      </trkpt>
      <trkpt lat="42.287562" lon="-4.854315">
        <ele>821</ele>
        <time>2018-07-23T05:28:44.000Z</time>
      </trkpt>
      <trkpt lat="42.287664" lon="-4.85429">
        <ele>821</ele>
        <time>2018-07-23T05:28:46.000Z</time>
      </trkpt>
      <trkpt lat="42.287765" lon="-4.85426">
        <ele>821</ele>
        <time>2018-07-23T05:28:48.000Z</time>
      </trkpt>
      <trkpt lat="42.287867" lon="-4.854237">
        <ele>821</ele>
        <time>2018-07-23T05:28:50.000Z</time>
      </trkpt>
      <trkpt lat="42.287969" lon="-4.854216">
        <ele>821</ele>
        <time>2018-07-23T05:28:52.000Z</time>
      </trkpt>
      <trkpt lat="42.288069" lon="-4.854192">
        <ele>821</ele>
        <time>2018-07-23T05:28:54.000Z</time>
      </trkpt>
      <trkpt lat="42.288171" lon="-4.854167">
        <ele>821</ele>
        <time>2018-07-23T05:28:56.000Z</time>
      </trkpt>
      <trkpt lat="42.288277" lon="-4.854144">
        <ele>821</ele>
        <time>2018-07-23T05:28:58.000Z</time>
      </trkpt>
      <trkpt lat="42.288385" lon="-4.854118">
        <ele>821</ele>
        <time>2018-07-23T05:29:00.000Z</time>
      </trkpt>
      <trkpt lat="42.288494" lon="-4.854093">
        <ele>821</ele>
        <time>2018-07-23T05:29:02.000Z</time>
      </trkpt>
      <trkpt lat="42.288605" lon="-4.854067">
        <ele>821</ele>
        <time>2018-07-23T05:29:04.000Z</time>
      </trkpt>
      <trkpt lat="42.288715" lon="-4.85404">
        <ele>821</ele>
        <time>2018-07-23T05:29:05.990Z</time>
      </trkpt>
      <trkpt lat="42.288829" lon="-4.854009">
        <ele>821</ele>
        <time>2018-07-23T05:29:07.990Z</time>
      </trkpt>
      <trkpt lat="42.288942" lon="-4.853979">
        <ele>821</ele>
        <time>2018-07-23T05:29:10.000Z</time>
      </trkpt>
      <trkpt lat="42.289056" lon="-4.853951">
        <ele>821</ele>
        <time>2018-07-23T05:29:11.990Z</time>
      </trkpt>
      <trkpt lat="42.289174" lon="-4.853924">
        <ele>821</ele>
        <time>2018-07-23T05:29:13.990Z</time>
      </trkpt>
      <trkpt lat="42.289292" lon="-4.853893">
        <ele>821</ele>
        <time>2018-07-23T05:29:15.990Z</time>
      </trkpt>
      <trkpt lat="42.289413" lon="-4.853868">
        <ele>820</ele>
        <time>2018-07-23T05:29:17.990Z</time>
      </trkpt>
      <trkpt lat="42.289538" lon="-4.853833">
        <ele>821</ele>
        <time>2018-07-23T05:29:20.000Z</time>
      </trkpt>
      <trkpt lat="42.289662" lon="-4.853806">
        <ele>820.009705600915</ele>
        <time>2018-07-23T05:29:21.990Z</time>
      </trkpt>
      <trkpt lat="42.28978" lon="-4.853777">
        <ele>819.68</ele>
        <time>2018-07-23T05:29:23.990Z</time>
      </trkpt>
      <trkpt lat="42.289897" lon="-4.853748">
        <ele>819</ele>
        <time>2018-07-23T05:29:25.990Z</time>
      </trkpt>
      <trkpt lat="42.290016" lon="-4.853719">
        <ele>819</ele>
        <time>2018-07-23T05:29:27.990Z</time>
      </trkpt>
      <trkpt lat="42.290137" lon="-4.853694">
        <ele>819</ele>
        <time>2018-07-23T05:29:30.000Z</time>
      </trkpt>
      <trkpt lat="42.290254" lon="-4.853665">
        <ele>819</ele>
        <time>2018-07-23T05:29:31.990Z</time>
      </trkpt>
      <trkpt lat="42.290376" lon="-4.853637">
        <ele>819</ele>
        <time>2018-07-23T05:29:33.990Z</time>
      </trkpt>
      <trkpt lat="42.290496" lon="-4.853606">
        <ele>819</ele>
        <time>2018-07-23T05:29:35.990Z</time>
      </trkpt>
      <trkpt lat="42.29062" lon="-4.853571">
        <ele>819</ele>
        <time>2018-07-23T05:29:37.990Z</time>
      </trkpt>
      <trkpt lat="42.290748" lon="-4.85354">
        <ele>819</ele>
        <time>2018-07-23T05:29:40.000Z</time>
      </trkpt>
      <trkpt lat="42.290867" lon="-4.853513">
        <ele>818</ele>
        <time>2018-07-23T05:29:41.990Z</time>
      </trkpt>
      <trkpt lat="42.290983" lon="-4.85349">
        <ele>818</ele>
        <time>2018-07-23T05:29:43.990Z</time>
      </trkpt>
      <trkpt lat="42.2911" lon="-4.853467">
        <ele>818</ele>
        <time>2018-07-23T05:29:45.990Z</time>
      </trkpt>
      <trkpt lat="42.291219" lon="-4.85343">
        <ele>819</ele>
        <time>2018-07-23T05:29:47.990Z</time>
      </trkpt>
      <trkpt lat="42.291335" lon="-4.853401">
        <ele>818.683672269895</ele>
        <time>2018-07-23T05:29:50.000Z</time>
      </trkpt>
      <trkpt lat="42.291455" lon="-4.853368">
        <ele>818</ele>
        <time>2018-07-23T05:29:51.990Z</time>
      </trkpt>
      <trkpt lat="42.291573" lon="-4.853332">
        <ele>818</ele>
        <time>2018-07-23T05:29:53.990Z</time>
      </trkpt>
      <trkpt lat="42.291681" lon="-4.8533">
        <ele>818</ele>
        <time>2018-07-23T05:29:55.990Z</time>
      </trkpt>
      <trkpt lat="42.291791" lon="-4.853274">
        <ele>818</ele>
        <time>2018-07-23T05:29:57.990Z</time>
      </trkpt>
      <trkpt lat="42.291903" lon="-4.853244">
        <ele>818</ele>
        <time>2018-07-23T05:30:00.000Z</time>
      </trkpt>
      <trkpt lat="42.292012" lon="-4.853214">
        <ele>817</ele>
        <time>2018-07-23T05:30:01.990Z</time>
      </trkpt>
      <trkpt lat="42.292122" lon="-4.853184">
        <ele>817</ele>
        <time>2018-07-23T05:30:03.990Z</time>
      </trkpt>
      <trkpt lat="42.29223" lon="-4.853159">
        <ele>817</ele>
        <time>2018-07-23T05:30:05.990Z</time>
      </trkpt>
      <trkpt lat="42.292336" lon="-4.853135">
        <ele>817</ele>
        <time>2018-07-23T05:30:07.990Z</time>
      </trkpt>
      <trkpt lat="42.292443" lon="-4.853109">
        <ele>817</ele>
        <time>2018-07-23T05:30:10.000Z</time>
      </trkpt>
      <trkpt lat="42.292548" lon="-4.853083">
        <ele>818</ele>
        <time>2018-07-23T05:30:11.990Z</time>
      </trkpt>
      <trkpt lat="42.292656" lon="-4.853054">
        <ele>818</ele>
        <time>2018-07-23T05:30:13.990Z</time>
      </trkpt>
      <trkpt lat="42.292764" lon="-4.853032">
        <ele>817.68</ele>
        <time>2018-07-23T05:30:15.990Z</time>
      </trkpt>
      <trkpt lat="42.292868" lon="-4.853004">
        <ele>817.028580310123</ele>
        <time>2018-07-23T05:30:17.990Z</time>
      </trkpt>
      <trkpt lat="42.292977" lon="-4.85298">
        <ele>818</ele>
        <time>2018-07-23T05:30:20.000Z</time>
      </trkpt>
      <trkpt lat="42.293085" lon="-4.852953">
        <ele>818</ele>
        <time>2018-07-23T05:30:21.990Z</time>
      </trkpt>
      <trkpt lat="42.293192" lon="-4.852926">
        <ele>818</ele>
        <time>2018-07-23T05:30:23.990Z</time>
      </trkpt>
      <trkpt lat="42.293298" lon="-4.852905">
        <ele>818</ele>
        <time>2018-07-23T05:30:25.990Z</time>
      </trkpt>
      <trkpt lat="42.293404" lon="-4.852873">
        <ele>818</ele>
        <time>2018-07-23T05:30:27.990Z</time>
      </trkpt>
      <trkpt lat="42.293504" lon="-4.852856">
        <ele>818</ele>
        <time>2018-07-23T05:30:30.000Z</time>
      </trkpt>
      <trkpt lat="42.293609" lon="-4.852833">
        <ele>818</ele>
        <time>2018-07-23T05:30:31.990Z</time>
      </trkpt>
      <trkpt lat="42.293716" lon="-4.852802">
        <ele>818</ele>
        <time>2018-07-23T05:30:33.990Z</time>
      </trkpt>
      <trkpt lat="42.293821" lon="-4.852787">
        <ele>818</ele>
        <time>2018-07-23T05:30:35.990Z</time>
      </trkpt>
      <trkpt lat="42.293922" lon="-4.852788">
        <ele>818</ele>
        <time>2018-07-23T05:30:37.990Z</time>
      </trkpt>
      <trkpt lat="42.294025" lon="-4.852801">
        <ele>819</ele>
        <time>2018-07-23T05:30:40.000Z</time>
      </trkpt>
      <trkpt lat="42.29413" lon="-4.852811">
        <ele>819</ele>
        <time>2018-07-23T05:30:41.990Z</time>
      </trkpt>
      <trkpt lat="42.29423" lon="-4.852827">
        <ele>818.32</ele>
        <time>2018-07-23T05:30:43.990Z</time>
      </trkpt>
      <trkpt lat="42.294331" lon="-4.852847">
        <ele>819.32</ele>
        <time>2018-07-23T05:30:45.990Z</time>
      </trkpt>
      <trkpt lat="42.294434" lon="-4.852865">
        <ele>820</ele>
        <time>2018-07-23T05:30:47.990Z</time>
      </trkpt>
      <trkpt lat="42.294538" lon="-4.852885">
        <ele>820</ele>
        <time>2018-07-23T05:30:50.000Z</time>
      </trkpt>
      <trkpt lat="42.294642" lon="-4.852895">
        <ele>820</ele>
        <time>2018-07-23T05:30:51.990Z</time>
      </trkpt>
      <trkpt lat="42.294745" lon="-4.852899">
        <ele>819.68</ele>
        <time>2018-07-23T05:30:53.990Z</time>
      </trkpt>
      <trkpt lat="42.294852" lon="-4.852911">
        <ele>819</ele>
        <time>2018-07-23T05:30:55.990Z</time>
      </trkpt>
      <trkpt lat="42.29496" lon="-4.852924">
        <ele>819.32</ele>
        <time>2018-07-23T05:30:57.990Z</time>
      </trkpt>
      <trkpt lat="42.295073" lon="-4.852937">
        <ele>820</ele>
        <time>2018-07-23T05:31:00.000Z</time>
      </trkpt>
      <trkpt lat="42.295185" lon="-4.852955">
        <ele>820</ele>
        <time>2018-07-23T05:31:01.990Z</time>
      </trkpt>
      <trkpt lat="42.295295" lon="-4.852969">
        <ele>820</ele>
        <time>2018-07-23T05:31:03.990Z</time>
      </trkpt>
      <trkpt lat="42.295404" lon="-4.852987">
        <ele>820</ele>
        <time>2018-07-23T05:31:05.990Z</time>
      </trkpt>
      <trkpt lat="42.295513" lon="-4.852994">
        <ele>820</ele>
        <time>2018-07-23T05:31:07.990Z</time>
      </trkpt>
      <trkpt lat="42.295619" lon="-4.853008">
        <ele>819</ele>
        <time>2018-07-23T05:31:10.000Z</time>
      </trkpt>
      <trkpt lat="42.295723" lon="-4.853022">
        <ele>819</ele>
        <time>2018-07-23T05:31:11.990Z</time>
      </trkpt>
      <trkpt lat="42.295826" lon="-4.853037">
        <ele>819</ele>
        <time>2018-07-23T05:31:13.990Z</time>
      </trkpt>
      <trkpt lat="42.295933" lon="-4.853054">
        <ele>820</ele>
        <time>2018-07-23T05:31:15.990Z</time>
      </trkpt>
      <trkpt lat="42.296039" lon="-4.853068">
        <ele>820</ele>
        <time>2018-07-23T05:31:17.990Z</time>
      </trkpt>
      <trkpt lat="42.296148" lon="-4.853088">
        <ele>820</ele>
        <time>2018-07-23T05:31:20.000Z</time>
      </trkpt>
      <trkpt lat="42.296262" lon="-4.853105">
        <ele>820</ele>
        <time>2018-07-23T05:31:21.990Z</time>
      </trkpt>
      <trkpt lat="42.296374" lon="-4.853118">
        <ele>820</ele>
        <time>2018-07-23T05:31:23.990Z</time>
      </trkpt>
      <trkpt lat="42.296484" lon="-4.853128">
        <ele>820</ele>
        <time>2018-07-23T05:31:25.990Z</time>
      </trkpt>
      <trkpt lat="42.296594" lon="-4.853147">
        <ele>820</ele>
        <time>2018-07-23T05:31:27.990Z</time>
      </trkpt>
      <trkpt lat="42.296702" lon="-4.853165">
        <ele>820</ele>
        <time>2018-07-23T05:31:30.000Z</time>
      </trkpt>
      <trkpt lat="42.296817" lon="-4.853181">
        <ele>820</ele>
        <time>2018-07-23T05:31:31.990Z</time>
      </trkpt>
      <trkpt lat="42.296928" lon="-4.853193">
        <ele>820</ele>
        <time>2018-07-23T05:31:33.990Z</time>
      </trkpt>
      <trkpt lat="42.297038" lon="-4.853211">
        <ele>820</ele>
        <time>2018-07-23T05:31:35.990Z</time>
      </trkpt>
      <trkpt lat="42.29715" lon="-4.853228">
        <ele>820</ele>
        <time>2018-07-23T05:31:37.990Z</time>
      </trkpt>
      <trkpt lat="42.297259" lon="-4.853245">
        <ele>820</ele>
        <time>2018-07-23T05:31:40.000Z</time>
      </trkpt>
      <trkpt lat="42.297374" lon="-4.853262">
        <ele>820</ele>
        <time>2018-07-23T05:31:41.990Z</time>
      </trkpt>
      <trkpt lat="42.297485" lon="-4.853282">
        <ele>820</ele>
        <time>2018-07-23T05:31:43.990Z</time>
      </trkpt>
      <trkpt lat="42.297599" lon="-4.853302">
        <ele>820</ele>
        <time>2018-07-23T05:31:45.990Z</time>
      </trkpt>
      <trkpt lat="42.297715" lon="-4.853315">
        <ele>820</ele>
        <time>2018-07-23T05:31:47.990Z</time>
      </trkpt>
      <trkpt lat="42.297829" lon="-4.853336">
        <ele>820</ele>
        <time>2018-07-23T05:31:50.000Z</time>
      </trkpt>
      <trkpt lat="42.297939" lon="-4.853361">
        <ele>820</ele>
        <time>2018-07-23T05:31:51.990Z</time>
      </trkpt>
      <trkpt lat="42.298052" lon="-4.853386">
        <ele>820</ele>
        <time>2018-07-23T05:31:53.990Z</time>
      </trkpt>
      <trkpt lat="42.298166" lon="-4.853409">
        <ele>820</ele>
        <time>2018-07-23T05:31:55.990Z</time>
      </trkpt>
      <trkpt lat="42.298277" lon="-4.85342">
        <ele>819.693873019605</ele>
        <time>2018-07-23T05:31:57.990Z</time>
      </trkpt>
      <trkpt lat="42.298391" lon="-4.853433">
        <ele>820</ele>
        <time>2018-07-23T05:32:00.000Z</time>
      </trkpt>
      <trkpt lat="42.298504" lon="-4.853446">
        <ele>819</ele>
        <time>2018-07-23T05:32:01.990Z</time>
      </trkpt>
      <trkpt lat="42.298612" lon="-4.85346">
        <ele>820</ele>
        <time>2018-07-23T05:32:03.990Z</time>
      </trkpt>
      <trkpt lat="42.298712" lon="-4.85347">
        <ele>820</ele>
        <time>2018-07-23T05:32:05.990Z</time>
      </trkpt>
      <trkpt lat="42.298812" lon="-4.853481">
        <ele>820</ele>
        <time>2018-07-23T05:32:07.990Z</time>
      </trkpt>
      <trkpt lat="42.298919" lon="-4.853494">
        <ele>820</ele>
        <time>2018-07-23T05:32:10.000Z</time>
      </trkpt>
      <trkpt lat="42.299017" lon="-4.853503">
        <ele>820</ele>
        <time>2018-07-23T05:32:11.990Z</time>
      </trkpt>
      <trkpt lat="42.299123" lon="-4.853522">
        <ele>820</ele>
        <time>2018-07-23T05:32:13.990Z</time>
      </trkpt>
      <trkpt lat="42.299226" lon="-4.853534">
        <ele>821</ele>
        <time>2018-07-23T05:32:15.990Z</time>
      </trkpt>
      <trkpt lat="42.299333" lon="-4.853549">
        <ele>820</ele>
        <time>2018-07-23T05:32:17.990Z</time>
      </trkpt>
      <trkpt lat="42.29944" lon="-4.853562">
        <ele>821</ele>
        <time>2018-07-23T05:32:20.000Z</time>
      </trkpt>
      <trkpt lat="42.299542" lon="-4.85358">
        <ele>821</ele>
        <time>2018-07-23T05:32:21.990Z</time>
      </trkpt>
      <trkpt lat="42.299647" lon="-4.853591">
        <ele>820</ele>
        <time>2018-07-23T05:32:23.990Z</time>
      </trkpt>
      <trkpt lat="42.299755" lon="-4.853605">
        <ele>820</ele>
        <time>2018-07-23T05:32:25.990Z</time>
      </trkpt>
      <trkpt lat="42.299859" lon="-4.853619">
        <ele>820</ele>
        <time>2018-07-23T05:32:27.990Z</time>
      </trkpt>
      <trkpt lat="42.299962" lon="-4.853639">
        <ele>821</ele>
        <time>2018-07-23T05:32:30.000Z</time>
      </trkpt>
      <trkpt lat="42.300068" lon="-4.853657">
        <ele>821</ele>
        <time>2018-07-23T05:32:31.990Z</time>
      </trkpt>
      <trkpt lat="42.30018" lon="-4.853663">
        <ele>821</ele>
        <time>2018-07-23T05:32:33.990Z</time>
      </trkpt>
      <trkpt lat="42.30028" lon="-4.853675">
        <ele>821</ele>
        <time>2018-07-23T05:32:35.990Z</time>
      </trkpt>
      <trkpt lat="42.30038" lon="-4.853686">
        <ele>821</ele>
        <time>2018-07-23T05:32:37.990Z</time>
      </trkpt>
      <trkpt lat="42.300487" lon="-4.853702">
        <ele>821</ele>
        <time>2018-07-23T05:32:40.000Z</time>
      </trkpt>
      <trkpt lat="42.300589" lon="-4.853722">
        <ele>821</ele>
        <time>2018-07-23T05:32:41.990Z</time>
      </trkpt>
      <trkpt lat="42.300693" lon="-4.853742">
        <ele>821</ele>
        <time>2018-07-23T05:32:43.990Z</time>
      </trkpt>
      <trkpt lat="42.300793" lon="-4.853761">
        <ele>821</ele>
        <time>2018-07-23T05:32:45.990Z</time>
      </trkpt>
      <trkpt lat="42.300895" lon="-4.853773">
        <ele>821</ele>
        <time>2018-07-23T05:32:47.990Z</time>
      </trkpt>
      <trkpt lat="42.300998" lon="-4.85379">
        <ele>822</ele>
        <time>2018-07-23T05:32:50.000Z</time>
      </trkpt>
      <trkpt lat="42.301104" lon="-4.853808">
        <ele>822</ele>
        <time>2018-07-23T05:32:51.990Z</time>
      </trkpt>
      <trkpt lat="42.30121" lon="-4.853824">
        <ele>822</ele>
        <time>2018-07-23T05:32:53.990Z</time>
      </trkpt>
      <trkpt lat="42.301319" lon="-4.853832">
        <ele>822</ele>
        <time>2018-07-23T05:32:55.990Z</time>
      </trkpt>
      <trkpt lat="42.301426" lon="-4.853843">
        <ele>822</ele>
        <time>2018-07-23T05:32:57.990Z</time>
      </trkpt>
      <trkpt lat="42.301536" lon="-4.853857">
        <ele>822</ele>
        <time>2018-07-23T05:33:00.000Z</time>
      </trkpt>
      <trkpt lat="42.301641" lon="-4.853869">
        <ele>822.32</ele>
        <time>2018-07-23T05:33:01.990Z</time>
      </trkpt>
      <trkpt lat="42.301742" lon="-4.85388">
        <ele>823</ele>
        <time>2018-07-23T05:33:03.990Z</time>
      </trkpt>
      <trkpt lat="42.301852" lon="-4.8539">
        <ele>823</ele>
        <time>2018-07-23T05:33:05.990Z</time>
      </trkpt>
      <trkpt lat="42.301954" lon="-4.853918">
        <ele>823</ele>
        <time>2018-07-23T05:33:07.990Z</time>
      </trkpt>
      <trkpt lat="42.302056" lon="-4.853934">
        <ele>823</ele>
        <time>2018-07-23T05:33:10.000Z</time>
      </trkpt>
      <trkpt lat="42.302162" lon="-4.853952">
        <ele>823</ele>
        <time>2018-07-23T05:33:11.990Z</time>
      </trkpt>
      <trkpt lat="42.302266" lon="-4.853963">
        <ele>823</ele>
        <time>2018-07-23T05:33:13.990Z</time>
      </trkpt>
      <trkpt lat="42.302365" lon="-4.853972">
        <ele>823</ele>
        <time>2018-07-23T05:33:15.990Z</time>
      </trkpt>
      <trkpt lat="42.302472" lon="-4.853986">
        <ele>823</ele>
        <time>2018-07-23T05:33:17.990Z</time>
      </trkpt>
      <trkpt lat="42.30257" lon="-4.854001">
        <ele>823</ele>
        <time>2018-07-23T05:33:20.000Z</time>
      </trkpt>
      <trkpt lat="42.302676" lon="-4.854012">
        <ele>823</ele>
        <time>2018-07-23T05:33:21.990Z</time>
      </trkpt>
      <trkpt lat="42.302784" lon="-4.854032">
        <ele>823</ele>
        <time>2018-07-23T05:33:23.990Z</time>
      </trkpt>
      <trkpt lat="42.302888" lon="-4.854047">
        <ele>824</ele>
        <time>2018-07-23T05:33:25.990Z</time>
      </trkpt>
      <trkpt lat="42.302988" lon="-4.854056">
        <ele>823</ele>
        <time>2018-07-23T05:33:27.990Z</time>
      </trkpt>
      <trkpt lat="42.303092" lon="-4.854071">
        <ele>823</ele>
        <time>2018-07-23T05:33:30.000Z</time>
      </trkpt>
      <trkpt lat="42.30318" lon="-4.854086">
        <ele>823</ele>
        <time>2018-07-23T05:33:31.990Z</time>
      </trkpt>
      <trkpt lat="42.30328" lon="-4.854097">
        <ele>823</ele>
        <time>2018-07-23T05:33:33.990Z</time>
      </trkpt>
      <trkpt lat="42.303378" lon="-4.854101">
        <ele>824</ele>
        <time>2018-07-23T05:33:35.990Z</time>
      </trkpt>
      <trkpt lat="42.303472" lon="-4.854109">
        <ele>823.68</ele>
        <time>2018-07-23T05:33:37.990Z</time>
      </trkpt>
      <trkpt lat="42.303568" lon="-4.85412">
        <ele>824</ele>
        <time>2018-07-23T05:33:40.000Z</time>
      </trkpt>
      <trkpt lat="42.303666" lon="-4.854134">
        <ele>823.68</ele>
        <time>2018-07-23T05:33:41.990Z</time>
      </trkpt>
      <trkpt lat="42.303764" lon="-4.854147">
        <ele>824</ele>
        <time>2018-07-23T05:33:43.990Z</time>
      </trkpt>
      <trkpt lat="42.30387" lon="-4.854167">
        <ele>824</ele>
        <time>2018-07-23T05:33:45.990Z</time>
      </trkpt>
      <trkpt lat="42.303974" lon="-4.854183">
        <ele>824</ele>
        <time>2018-07-23T05:33:47.990Z</time>
      </trkpt>
      <trkpt lat="42.304086" lon="-4.854199">
        <ele>824</ele>
        <time>2018-07-23T05:33:50.000Z</time>
      </trkpt>
      <trkpt lat="42.304188" lon="-4.854214">
        <ele>825</ele>
        <time>2018-07-23T05:33:51.990Z</time>
      </trkpt>
      <trkpt lat="42.304292" lon="-4.854236">
        <ele>825</ele>
        <time>2018-07-23T05:33:53.990Z</time>
      </trkpt>
      <trkpt lat="42.304398" lon="-4.85425">
        <ele>825</ele>
        <time>2018-07-23T05:33:55.990Z</time>
      </trkpt>
      <trkpt lat="42.304502" lon="-4.854268">
        <ele>825</ele>
        <time>2018-07-23T05:33:57.990Z</time>
      </trkpt>
      <trkpt lat="42.304604" lon="-4.85428">
        <ele>825</ele>
        <time>2018-07-23T05:34:00.000Z</time>
      </trkpt>
      <trkpt lat="42.304708" lon="-4.854295">
        <ele>825</ele>
        <time>2018-07-23T05:34:01.990Z</time>
      </trkpt>
      <trkpt lat="42.304816" lon="-4.854313">
        <ele>825</ele>
        <time>2018-07-23T05:34:03.990Z</time>
      </trkpt>
      <trkpt lat="42.304921" lon="-4.854329">
        <ele>825</ele>
        <time>2018-07-23T05:34:05.990Z</time>
      </trkpt>
      <trkpt lat="42.305032" lon="-4.854341">
        <ele>825</ele>
        <time>2018-07-23T05:34:07.990Z</time>
      </trkpt>
      <trkpt lat="42.305136" lon="-4.854357">
        <ele>825</ele>
        <time>2018-07-23T05:34:10.000Z</time>
      </trkpt>
      <trkpt lat="42.305234" lon="-4.854363">
        <ele>825</ele>
        <time>2018-07-23T05:34:11.990Z</time>
      </trkpt>
      <trkpt lat="42.305338" lon="-4.854379">
        <ele>825</ele>
        <time>2018-07-23T05:34:13.990Z</time>
      </trkpt>
      <trkpt lat="42.305438" lon="-4.854396">
        <ele>825</ele>
        <time>2018-07-23T05:34:15.990Z</time>
      </trkpt>
      <trkpt lat="42.305542" lon="-4.854411">
        <ele>825.042257837711</ele>
        <time>2018-07-23T05:34:17.990Z</time>
      </trkpt>
      <trkpt lat="42.305654" lon="-4.854428">
        <ele>826</ele>
        <time>2018-07-23T05:34:20.000Z</time>
      </trkpt>
      <trkpt lat="42.305764" lon="-4.854449">
        <ele>826</ele>
        <time>2018-07-23T05:34:21.990Z</time>
      </trkpt>
      <trkpt lat="42.305868" lon="-4.854469">
        <ele>826</ele>
        <time>2018-07-23T05:34:23.990Z</time>
      </trkpt>
      <trkpt lat="42.305978" lon="-4.854487">
        <ele>826</ele>
        <time>2018-07-23T05:34:25.990Z</time>
      </trkpt>
      <trkpt lat="42.306078" lon="-4.854502">
        <ele>826</ele>
        <time>2018-07-23T05:34:27.990Z</time>
      </trkpt>
      <trkpt lat="42.306184" lon="-4.85452">
        <ele>826</ele>
        <time>2018-07-23T05:34:30.000Z</time>
      </trkpt>
      <trkpt lat="42.306283" lon="-4.854529">
        <ele>826</ele>
        <time>2018-07-23T05:34:31.990Z</time>
      </trkpt>
      <trkpt lat="42.306388" lon="-4.854542">
        <ele>826</ele>
        <time>2018-07-23T05:34:33.990Z</time>
      </trkpt>
      <trkpt lat="42.30649" lon="-4.854555">
        <ele>827</ele>
        <time>2018-07-23T05:34:35.990Z</time>
      </trkpt>
      <trkpt lat="42.306588" lon="-4.854566">
        <ele>827</ele>
        <time>2018-07-23T05:34:37.990Z</time>
      </trkpt>
      <trkpt lat="42.3067" lon="-4.854584">
        <ele>827.3299968</ele>
        <time>2018-07-23T05:34:40.000Z</time>
      </trkpt>
      <trkpt lat="42.306794" lon="-4.854593">
        <ele>828</ele>
        <time>2018-07-23T05:34:41.990Z</time>
      </trkpt>
      <trkpt lat="42.3069" lon="-4.854608">
        <ele>828</ele>
        <time>2018-07-23T05:34:43.990Z</time>
      </trkpt>
      <trkpt lat="42.307008" lon="-4.854627">
        <ele>828</ele>
        <time>2018-07-23T05:34:45.990Z</time>
      </trkpt>
      <trkpt lat="42.307122" lon="-4.854649">
        <ele>828</ele>
        <time>2018-07-23T05:34:47.990Z</time>
      </trkpt>
      <trkpt lat="42.307227" lon="-4.854669">
        <ele>827</ele>
        <time>2018-07-23T05:34:50.000Z</time>
      </trkpt>
      <trkpt lat="42.307334" lon="-4.854685">
        <ele>827</ele>
        <time>2018-07-23T05:34:51.990Z</time>
      </trkpt>
      <trkpt lat="42.307442" lon="-4.854698">
        <ele>827</ele>
        <time>2018-07-23T05:34:53.990Z</time>
      </trkpt>
      <trkpt lat="42.307548" lon="-4.854711">
        <ele>827</ele>
        <time>2018-07-23T05:34:55.990Z</time>
      </trkpt>
      <trkpt lat="42.30765" lon="-4.854724">
        <ele>829</ele>
        <time>2018-07-23T05:34:57.990Z</time>
      </trkpt>
      <trkpt lat="42.307756" lon="-4.854741">
        <ele>828</ele>
        <time>2018-07-23T05:35:00.000Z</time>
      </trkpt>
      <trkpt lat="42.307856" lon="-4.854756">
        <ele>828</ele>
        <time>2018-07-23T05:35:01.990Z</time>
      </trkpt>
      <trkpt lat="42.307956" lon="-4.854773">
        <ele>828</ele>
        <time>2018-07-23T05:35:03.990Z</time>
      </trkpt>
      <trkpt lat="42.308063" lon="-4.854792">
        <ele>828</ele>
        <time>2018-07-23T05:35:05.990Z</time>
      </trkpt>
      <trkpt lat="42.30816" lon="-4.854812">
        <ele>829</ele>
        <time>2018-07-23T05:35:07.990Z</time>
      </trkpt>
      <trkpt lat="42.308267" lon="-4.854824">
        <ele>828.6700032</ele>
        <time>2018-07-23T05:35:10.000Z</time>
      </trkpt>
      <trkpt lat="42.308371" lon="-4.854837">
        <ele>828</ele>
        <time>2018-07-23T05:35:11.990Z</time>
      </trkpt>
      <trkpt lat="42.308472" lon="-4.854856">
        <ele>828</ele>
        <time>2018-07-23T05:35:13.990Z</time>
      </trkpt>
      <trkpt lat="42.308581" lon="-4.854871">
        <ele>829</ele>
        <time>2018-07-23T05:35:15.990Z</time>
      </trkpt>
      <trkpt lat="42.308696" lon="-4.85488">
        <ele>829</ele>
        <time>2018-07-23T05:35:17.990Z</time>
      </trkpt>
      <trkpt lat="42.308801" lon="-4.854894">
        <ele>829</ele>
        <time>2018-07-23T05:35:20.000Z</time>
      </trkpt>
      <trkpt lat="42.30891" lon="-4.854909">
        <ele>829</ele>
        <time>2018-07-23T05:35:21.990Z</time>
      </trkpt>
      <trkpt lat="42.309026" lon="-4.854927">
        <ele>829</ele>
        <time>2018-07-23T05:35:23.990Z</time>
      </trkpt>
      <trkpt lat="42.309131" lon="-4.854942">
        <ele>830</ele>
        <time>2018-07-23T05:35:25.990Z</time>
      </trkpt>
      <trkpt lat="42.30924" lon="-4.854956">
        <ele>829</ele>
        <time>2018-07-23T05:35:27.990Z</time>
      </trkpt>
      <trkpt lat="42.309347" lon="-4.854976">
        <ele>829.3299968</ele>
        <time>2018-07-23T05:35:30.000Z</time>
      </trkpt>
      <trkpt lat="42.309454" lon="-4.854993">
        <ele>830</ele>
        <time>2018-07-23T05:35:31.990Z</time>
      </trkpt>
      <trkpt lat="42.30956" lon="-4.855004">
        <ele>830</ele>
        <time>2018-07-23T05:35:33.990Z</time>
      </trkpt>
      <trkpt lat="42.309672" lon="-4.855023">
        <ele>830</ele>
        <time>2018-07-23T05:35:35.990Z</time>
      </trkpt>
      <trkpt lat="42.309785" lon="-4.855042">
        <ele>830</ele>
        <time>2018-07-23T05:35:37.990Z</time>
      </trkpt>
      <trkpt lat="42.309903" lon="-4.855056">
        <ele>830</ele>
        <time>2018-07-23T05:35:40.000Z</time>
      </trkpt>
      <trkpt lat="42.310016" lon="-4.855065">
        <ele>830</ele>
        <time>2018-07-23T05:35:41.990Z</time>
      </trkpt>
      <trkpt lat="42.310129" lon="-4.855076">
        <ele>830</ele>
        <time>2018-07-23T05:35:43.990Z</time>
      </trkpt>
      <trkpt lat="42.310245" lon="-4.855097">
        <ele>829.68</ele>
        <time>2018-07-23T05:35:45.990Z</time>
      </trkpt>
      <trkpt lat="42.310357" lon="-4.85511">
        <ele>829</ele>
        <time>2018-07-23T05:35:47.990Z</time>
      </trkpt>
      <trkpt lat="42.310476" lon="-4.855126">
        <ele>830</ele>
        <time>2018-07-23T05:35:50.000Z</time>
      </trkpt>
      <trkpt lat="42.310583" lon="-4.855135">
        <ele>830</ele>
        <time>2018-07-23T05:35:51.990Z</time>
      </trkpt>
      <trkpt lat="42.310693" lon="-4.855149">
        <ele>829</ele>
        <time>2018-07-23T05:35:53.990Z</time>
      </trkpt>
      <trkpt lat="42.310813" lon="-4.855169">
        <ele>829</ele>
        <time>2018-07-23T05:35:55.990Z</time>
      </trkpt>
      <trkpt lat="42.31093" lon="-4.855192">
        <ele>830</ele>
        <time>2018-07-23T05:35:57.990Z</time>
      </trkpt>
      <trkpt lat="42.311056" lon="-4.855216">
        <ele>829.189026341463</ele>
        <time>2018-07-23T05:36:00.000Z</time>
      </trkpt>
      <trkpt lat="42.311172" lon="-4.85523">
        <ele>830</ele>
        <time>2018-07-23T05:36:02.020Z</time>
      </trkpt>
      <trkpt lat="42.311278" lon="-4.855245">
        <ele>830</ele>
        <time>2018-07-23T05:36:03.990Z</time>
      </trkpt>
      <trkpt lat="42.311388" lon="-4.855264">
        <ele>830</ele>
        <time>2018-07-23T05:36:05.990Z</time>
      </trkpt>
      <trkpt lat="42.311502" lon="-4.855283">
        <ele>830</ele>
        <time>2018-07-23T05:36:07.990Z</time>
      </trkpt>
      <trkpt lat="42.311608" lon="-4.855295">
        <ele>830</ele>
        <time>2018-07-23T05:36:10.000Z</time>
      </trkpt>
      <trkpt lat="42.311723" lon="-4.85531">
        <ele>830</ele>
        <time>2018-07-23T05:36:11.990Z</time>
      </trkpt>
      <trkpt lat="42.311824" lon="-4.855325">
        <ele>830</ele>
        <time>2018-07-23T05:36:13.990Z</time>
      </trkpt>
      <trkpt lat="42.311934" lon="-4.855341">
        <ele>830</ele>
        <time>2018-07-23T05:36:15.990Z</time>
      </trkpt>
      <trkpt lat="42.312056" lon="-4.855352">
        <ele>830</ele>
        <time>2018-07-23T05:36:17.990Z</time>
      </trkpt>
      <trkpt lat="42.312178" lon="-4.85534">
        <ele>830</ele>
        <time>2018-07-23T05:36:20.000Z</time>
      </trkpt>
      <trkpt lat="42.312288" lon="-4.855294">
        <ele>830</ele>
        <time>2018-07-23T05:36:21.990Z</time>
      </trkpt>
      <trkpt lat="42.312374" lon="-4.855225">
        <ele>829</ele>
        <time>2018-07-23T05:36:23.990Z</time>
      </trkpt>
      <trkpt lat="42.312446" lon="-4.855125">
        <ele>829</ele>
        <time>2018-07-23T05:36:25.990Z</time>
      </trkpt>
      <trkpt lat="42.312506" lon="-4.855017">
        <ele>828.68</ele>
        <time>2018-07-23T05:36:27.990Z</time>
      </trkpt>
      <trkpt lat="42.312555" lon="-4.854912">
        <ele>828</ele>
        <time>2018-07-23T05:36:30.000Z</time>
      </trkpt>
      <trkpt lat="42.312605" lon="-4.854782">
        <ele>828</ele>
        <time>2018-07-23T05:36:31.990Z</time>
      </trkpt>
      <trkpt lat="42.312662" lon="-4.854654">
        <ele>828</ele>
        <time>2018-07-23T05:36:33.990Z</time>
      </trkpt>
      <trkpt lat="42.312728" lon="-4.854538">
        <ele>828</ele>
        <time>2018-07-23T05:36:35.990Z</time>
      </trkpt>
      <trkpt lat="42.312806" lon="-4.854426">
        <ele>828</ele>
        <time>2018-07-23T05:36:37.990Z</time>
      </trkpt>
      <trkpt lat="42.312888" lon="-4.854335">
        <ele>828</ele>
        <time>2018-07-23T05:36:40.000Z</time>
      </trkpt>
      <trkpt lat="42.312978" lon="-4.854256">
        <ele>829</ele>
        <time>2018-07-23T05:36:41.990Z</time>
      </trkpt>
      <trkpt lat="42.31307" lon="-4.854197">
        <ele>829</ele>
        <time>2018-07-23T05:36:43.990Z</time>
      </trkpt>
      <trkpt lat="42.31318" lon="-4.854164">
        <ele>829</ele>
        <time>2018-07-23T05:36:45.990Z</time>
      </trkpt>
      <trkpt lat="42.313292" lon="-4.854151">
        <ele>829</ele>
        <time>2018-07-23T05:36:47.990Z</time>
      </trkpt>
      <trkpt lat="42.313402" lon="-4.854159">
        <ele>829</ele>
        <time>2018-07-23T05:36:50.000Z</time>
      </trkpt>
      <trkpt lat="42.313502" lon="-4.854205">
        <ele>829</ele>
        <time>2018-07-23T05:36:51.990Z</time>
      </trkpt>
      <trkpt lat="42.3136" lon="-4.854273">
        <ele>829</ele>
        <time>2018-07-23T05:36:53.990Z</time>
      </trkpt>
      <trkpt lat="42.313692" lon="-4.854354">
        <ele>829.23438</ele>
        <time>2018-07-23T05:36:55.990Z</time>
      </trkpt>
      <trkpt lat="42.313786" lon="-4.854437">
        <ele>830</ele>
        <time>2018-07-23T05:36:57.990Z</time>
      </trkpt>
      <trkpt lat="42.313878" lon="-4.85452">
        <ele>830</ele>
        <time>2018-07-23T05:37:00.000Z</time>
      </trkpt>
      <trkpt lat="42.313966" lon="-4.854604">
        <ele>830</ele>
        <time>2018-07-23T05:37:01.990Z</time>
      </trkpt>
      <trkpt lat="42.314064" lon="-4.854689">
        <ele>830</ele>
        <time>2018-07-23T05:37:03.990Z</time>
      </trkpt>
      <trkpt lat="42.314158" lon="-4.85478">
        <ele>830</ele>
        <time>2018-07-23T05:37:05.990Z</time>
      </trkpt>
      <trkpt lat="42.314249" lon="-4.854863">
        <ele>830</ele>
        <time>2018-07-23T05:37:07.990Z</time>
      </trkpt>
      <trkpt lat="42.314347" lon="-4.854947">
        <ele>830</ele>
        <time>2018-07-23T05:37:10.000Z</time>
      </trkpt>
      <trkpt lat="42.314431" lon="-4.855034">
        <ele>830</ele>
        <time>2018-07-23T05:37:11.990Z</time>
      </trkpt>
      <trkpt lat="42.314525" lon="-4.855124">
        <ele>830</ele>
        <time>2018-07-23T05:37:13.990Z</time>
      </trkpt>
      <trkpt lat="42.314625" lon="-4.855214">
        <ele>830</ele>
        <time>2018-07-23T05:37:15.990Z</time>
      </trkpt>
      <trkpt lat="42.314717" lon="-4.855313">
        <ele>830</ele>
        <time>2018-07-23T05:37:17.990Z</time>
      </trkpt>
      <trkpt lat="42.31481" lon="-4.855403">
        <ele>830.014701176471</ele>
        <time>2018-07-23T05:37:20.000Z</time>
      </trkpt>
      <trkpt lat="42.314902" lon="-4.85549">
        <ele>831</ele>
        <time>2018-07-23T05:37:21.990Z</time>
      </trkpt>
      <trkpt lat="42.315003" lon="-4.855581">
        <ele>831</ele>
        <time>2018-07-23T05:37:23.990Z</time>
      </trkpt>
      <trkpt lat="42.3151" lon="-4.855671">
        <ele>831</ele>
        <time>2018-07-23T05:37:25.990Z</time>
      </trkpt>
      <trkpt lat="42.315195" lon="-4.855766">
        <ele>831</ele>
        <time>2018-07-23T05:37:27.990Z</time>
      </trkpt>
      <trkpt lat="42.31529" lon="-4.855853">
        <ele>832</ele>
        <time>2018-07-23T05:37:30.000Z</time>
      </trkpt>
      <trkpt lat="42.315376" lon="-4.855937">
        <ele>832</ele>
        <time>2018-07-23T05:37:31.990Z</time>
      </trkpt>
      <trkpt lat="42.315466" lon="-4.856022">
        <ele>832</ele>
        <time>2018-07-23T05:37:33.990Z</time>
      </trkpt>
      <trkpt lat="42.315556" lon="-4.856104">
        <ele>832</ele>
        <time>2018-07-23T05:37:35.990Z</time>
      </trkpt>
      <trkpt lat="42.315642" lon="-4.856183">
        <ele>832</ele>
        <time>2018-07-23T05:37:37.990Z</time>
      </trkpt>
      <trkpt lat="42.315732" lon="-4.85627">
        <ele>832</ele>
        <time>2018-07-23T05:37:40.000Z</time>
      </trkpt>
      <trkpt lat="42.315825" lon="-4.856348">
        <ele>832</ele>
        <time>2018-07-23T05:37:41.990Z</time>
      </trkpt>
      <trkpt lat="42.31591" lon="-4.856437">
        <ele>832</ele>
        <time>2018-07-23T05:37:43.990Z</time>
      </trkpt>
      <trkpt lat="42.315999" lon="-4.856522">
        <ele>832</ele>
        <time>2018-07-23T05:37:45.990Z</time>
      </trkpt>
      <trkpt lat="42.316085" lon="-4.856614">
        <ele>832</ele>
        <time>2018-07-23T05:37:47.990Z</time>
      </trkpt>
      <trkpt lat="42.316174" lon="-4.856702">
        <ele>832.6700032</ele>
        <time>2018-07-23T05:37:50.000Z</time>
      </trkpt>
      <trkpt lat="42.316256" lon="-4.856784">
        <ele>832</ele>
        <time>2018-07-23T05:37:51.990Z</time>
      </trkpt>
      <trkpt lat="42.316345" lon="-4.856869">
        <ele>832</ele>
        <time>2018-07-23T05:37:53.990Z</time>
      </trkpt>
      <trkpt lat="42.316437" lon="-4.856951">
        <ele>833</ele>
        <time>2018-07-23T05:37:55.990Z</time>
      </trkpt>
      <trkpt lat="42.316533" lon="-4.857033">
        <ele>833</ele>
        <time>2018-07-23T05:37:57.990Z</time>
      </trkpt>
      <trkpt lat="42.316624" lon="-4.857112">
        <ele>833</ele>
        <time>2018-07-23T05:38:00.000Z</time>
      </trkpt>
      <trkpt lat="42.316714" lon="-4.857197">
        <ele>834</ele>
        <time>2018-07-23T05:38:01.990Z</time>
      </trkpt>
      <trkpt lat="42.316803" lon="-4.857286">
        <ele>834</ele>
        <time>2018-07-23T05:38:03.990Z</time>
      </trkpt>
      <trkpt lat="42.316892" lon="-4.857367">
        <ele>834</ele>
        <time>2018-07-23T05:38:05.990Z</time>
      </trkpt>
      <trkpt lat="42.316988" lon="-4.857451">
        <ele>835</ele>
        <time>2018-07-23T05:38:07.990Z</time>
      </trkpt>
      <trkpt lat="42.317088" lon="-4.857543">
        <ele>835.3299968</ele>
        <time>2018-07-23T05:38:10.000Z</time>
      </trkpt>
      <trkpt lat="42.317177" lon="-4.857629">
        <ele>836</ele>
        <time>2018-07-23T05:38:11.990Z</time>
      </trkpt>
      <trkpt lat="42.317274" lon="-4.857719">
        <ele>836</ele>
        <time>2018-07-23T05:38:13.990Z</time>
      </trkpt>
      <trkpt lat="42.317368" lon="-4.857805">
        <ele>836</ele>
        <time>2018-07-23T05:38:15.990Z</time>
      </trkpt>
      <trkpt lat="42.317459" lon="-4.857903">
        <ele>836.32</ele>
        <time>2018-07-23T05:38:17.990Z</time>
      </trkpt>
      <trkpt lat="42.31755" lon="-4.857988">
        <ele>837</ele>
        <time>2018-07-23T05:38:20.000Z</time>
      </trkpt>
      <trkpt lat="42.317642" lon="-4.858073">
        <ele>837</ele>
        <time>2018-07-23T05:38:21.990Z</time>
      </trkpt>
      <trkpt lat="42.31773" lon="-4.85815">
        <ele>837</ele>
        <time>2018-07-23T05:38:23.990Z</time>
      </trkpt>
      <trkpt lat="42.317818" lon="-4.85824">
        <ele>836.68</ele>
        <time>2018-07-23T05:38:25.990Z</time>
      </trkpt>
      <trkpt lat="42.317907" lon="-4.858318">
        <ele>837</ele>
        <time>2018-07-23T05:38:27.990Z</time>
      </trkpt>
      <trkpt lat="42.317997" lon="-4.858407">
        <ele>837</ele>
        <time>2018-07-23T05:38:30.000Z</time>
      </trkpt>
      <trkpt lat="42.318088" lon="-4.858496">
        <ele>837</ele>
        <time>2018-07-23T05:38:31.990Z</time>
      </trkpt>
      <trkpt lat="42.318183" lon="-4.858593">
        <ele>837</ele>
        <time>2018-07-23T05:38:34.020Z</time>
      </trkpt>
      <trkpt lat="42.318271" lon="-4.858683">
        <ele>837</ele>
        <time>2018-07-23T05:38:35.990Z</time>
      </trkpt>
      <trkpt lat="42.318362" lon="-4.858771">
        <ele>837</ele>
        <time>2018-07-23T05:38:37.990Z</time>
      </trkpt>
      <trkpt lat="42.31845" lon="-4.858863">
        <ele>837</ele>
        <time>2018-07-23T05:38:40.000Z</time>
      </trkpt>
      <trkpt lat="42.318536" lon="-4.858952">
        <ele>837</ele>
        <time>2018-07-23T05:38:41.990Z</time>
      </trkpt>
      <trkpt lat="42.318625" lon="-4.859038">
        <ele>837</ele>
        <time>2018-07-23T05:38:43.990Z</time>
      </trkpt>
      <trkpt lat="42.318716" lon="-4.859133">
        <ele>837</ele>
        <time>2018-07-23T05:38:45.990Z</time>
      </trkpt>
      <trkpt lat="42.318812" lon="-4.859231">
        <ele>837.32</ele>
        <time>2018-07-23T05:38:47.990Z</time>
      </trkpt>
      <trkpt lat="42.318905" lon="-4.859327">
        <ele>838</ele>
        <time>2018-07-23T05:38:50.000Z</time>
      </trkpt>
      <trkpt lat="42.318997" lon="-4.859414">
        <ele>838</ele>
        <time>2018-07-23T05:38:51.990Z</time>
      </trkpt>
      <trkpt lat="42.31908" lon="-4.859503">
        <ele>838</ele>
        <time>2018-07-23T05:38:53.990Z</time>
      </trkpt>
      <trkpt lat="42.319172" lon="-4.859591">
        <ele>839</ele>
        <time>2018-07-23T05:38:55.990Z</time>
      </trkpt>
      <trkpt lat="42.319263" lon="-4.859674">
        <ele>839</ele>
        <time>2018-07-23T05:38:57.990Z</time>
      </trkpt>
      <trkpt lat="42.319354" lon="-4.859757">
        <ele>839</ele>
        <time>2018-07-23T05:39:00.000Z</time>
      </trkpt>
      <trkpt lat="42.319447" lon="-4.859843">
        <ele>839</ele>
        <time>2018-07-23T05:39:01.990Z</time>
      </trkpt>
      <trkpt lat="42.319534" lon="-4.859936">
        <ele>839</ele>
        <time>2018-07-23T05:39:03.990Z</time>
      </trkpt>
      <trkpt lat="42.319627" lon="-4.860026">
        <ele>839</ele>
        <time>2018-07-23T05:39:05.990Z</time>
      </trkpt>
      <trkpt lat="42.319723" lon="-4.860111">
        <ele>839</ele>
        <time>2018-07-23T05:39:08.000Z</time>
      </trkpt>
      <trkpt lat="42.319828" lon="-4.860209">
        <ele>839</ele>
        <time>2018-07-23T05:39:10.000Z</time>
      </trkpt>
      <trkpt lat="42.31993" lon="-4.860306">
        <ele>838.6700032</ele>
        <time>2018-07-23T05:39:12.000Z</time>
      </trkpt>
      <trkpt lat="42.320028" lon="-4.860396">
        <ele>838</ele>
        <time>2018-07-23T05:39:14.000Z</time>
      </trkpt>
      <trkpt lat="42.320122" lon="-4.86049">
        <ele>838</ele>
        <time>2018-07-23T05:39:16.000Z</time>
      </trkpt>
      <trkpt lat="42.320218" lon="-4.86058">
        <ele>838</ele>
        <time>2018-07-23T05:39:18.000Z</time>
      </trkpt>
      <trkpt lat="42.320313" lon="-4.860671">
        <ele>838</ele>
        <time>2018-07-23T05:39:20.000Z</time>
      </trkpt>
      <trkpt lat="42.320408" lon="-4.860762">
        <ele>838</ele>
        <time>2018-07-23T05:39:22.000Z</time>
      </trkpt>
      <trkpt lat="42.320503" lon="-4.860853">
        <ele>838</ele>
        <time>2018-07-23T05:39:24.000Z</time>
      </trkpt>
      <trkpt lat="42.320598" lon="-4.860949">
        <ele>838</ele>
        <time>2018-07-23T05:39:26.000Z</time>
      </trkpt>
      <trkpt lat="42.320698" lon="-4.86104">
        <ele>838</ele>
        <time>2018-07-23T05:39:28.000Z</time>
      </trkpt>
      <trkpt lat="42.320796" lon="-4.861131">
        <ele>838</ele>
        <time>2018-07-23T05:39:30.000Z</time>
      </trkpt>
      <trkpt lat="42.320892" lon="-4.861223">
        <ele>838</ele>
        <time>2018-07-23T05:39:32.000Z</time>
      </trkpt>
      <trkpt lat="42.320989" lon="-4.861312">
        <ele>838</ele>
        <time>2018-07-23T05:39:34.000Z</time>
      </trkpt>
      <trkpt lat="42.321085" lon="-4.861399">
        <ele>838</ele>
        <time>2018-07-23T05:39:36.000Z</time>
      </trkpt>
      <trkpt lat="42.321178" lon="-4.861486">
        <ele>838.3299968</ele>
        <time>2018-07-23T05:39:38.000Z</time>
      </trkpt>
      <trkpt lat="42.321271" lon="-4.861576">
        <ele>839</ele>
        <time>2018-07-23T05:39:40.000Z</time>
      </trkpt>
      <trkpt lat="42.321365" lon="-4.861667">
        <ele>838.957138677589</ele>
        <time>2018-07-23T05:39:42.000Z</time>
      </trkpt>
      <trkpt lat="42.321456" lon="-4.861758">
        <ele>838</ele>
        <time>2018-07-23T05:39:44.000Z</time>
      </trkpt>
      <trkpt lat="42.321546" lon="-4.861847">
        <ele>838</ele>
        <time>2018-07-23T05:39:46.000Z</time>
      </trkpt>
      <trkpt lat="42.321637" lon="-4.861934">
        <ele>838</ele>
        <time>2018-07-23T05:39:48.000Z</time>
      </trkpt>
      <trkpt lat="42.321728" lon="-4.862022">
        <ele>838</ele>
        <time>2018-07-23T05:39:50.000Z</time>
      </trkpt>
      <trkpt lat="42.32182" lon="-4.86211">
        <ele>839</ele>
        <time>2018-07-23T05:39:52.000Z</time>
      </trkpt>
      <trkpt lat="42.321911" lon="-4.862197">
        <ele>839</ele>
        <time>2018-07-23T05:39:54.000Z</time>
      </trkpt>
      <trkpt lat="42.322002" lon="-4.862285">
        <ele>838</ele>
        <time>2018-07-23T05:39:56.000Z</time>
      </trkpt>
      <trkpt lat="42.322093" lon="-4.862372">
        <ele>838.3299968</ele>
        <time>2018-07-23T05:39:58.000Z</time>
      </trkpt>
      <trkpt lat="42.322184" lon="-4.86246">
        <ele>839</ele>
        <time>2018-07-23T05:40:00.000Z</time>
      </trkpt>
      <trkpt lat="42.322276" lon="-4.862547">
        <ele>839</ele>
        <time>2018-07-23T05:40:02.000Z</time>
      </trkpt>
      <trkpt lat="42.322368" lon="-4.862633">
        <ele>839</ele>
        <time>2018-07-23T05:40:04.000Z</time>
      </trkpt>
      <trkpt lat="42.322458" lon="-4.86272">
        <ele>839</ele>
        <time>2018-07-23T05:40:06.000Z</time>
      </trkpt>
      <trkpt lat="42.322548" lon="-4.862806">
        <ele>839.042861322411</ele>
        <time>2018-07-23T05:40:08.000Z</time>
      </trkpt>
      <trkpt lat="42.322639" lon="-4.862891">
        <ele>840</ele>
        <time>2018-07-23T05:40:10.000Z</time>
      </trkpt>
      <trkpt lat="42.322732" lon="-4.862975">
        <ele>839</ele>
        <time>2018-07-23T05:40:11.990Z</time>
      </trkpt>
      <trkpt lat="42.322823" lon="-4.863059">
        <ele>839</ele>
        <time>2018-07-23T05:40:13.990Z</time>
      </trkpt>
      <trkpt lat="42.322913" lon="-4.863146">
        <ele>839</ele>
        <time>2018-07-23T05:40:15.990Z</time>
      </trkpt>
      <trkpt lat="42.323003" lon="-4.863233">
        <ele>840</ele>
        <time>2018-07-23T05:40:17.990Z</time>
      </trkpt>
      <trkpt lat="42.323088" lon="-4.863321">
        <ele>840</ele>
        <time>2018-07-23T05:40:20.000Z</time>
      </trkpt>
      <trkpt lat="42.323172" lon="-4.863398">
        <ele>840</ele>
        <time>2018-07-23T05:40:21.990Z</time>
      </trkpt>
      <trkpt lat="42.323265" lon="-4.863482">
        <ele>839</ele>
        <time>2018-07-23T05:40:23.990Z</time>
      </trkpt>
      <trkpt lat="42.32336" lon="-4.863567">
        <ele>839</ele>
        <time>2018-07-23T05:40:25.990Z</time>
      </trkpt>
      <trkpt lat="42.323451" lon="-4.86365">
        <ele>840</ele>
        <time>2018-07-23T05:40:28.020Z</time>
      </trkpt>
      <trkpt lat="42.32354" lon="-4.863736">
        <ele>840</ele>
        <time>2018-07-23T05:40:30.000Z</time>
      </trkpt>
      <trkpt lat="42.323627" lon="-4.863827">
        <ele>840</ele>
        <time>2018-07-23T05:40:31.990Z</time>
      </trkpt>
      <trkpt lat="42.323716" lon="-4.863915">
        <ele>840</ele>
        <time>2018-07-23T05:40:33.990Z</time>
      </trkpt>
      <trkpt lat="42.323803" lon="-4.864006">
        <ele>840</ele>
        <time>2018-07-23T05:40:35.990Z</time>
      </trkpt>
      <trkpt lat="42.323893" lon="-4.864092">
        <ele>840</ele>
        <time>2018-07-23T05:40:37.990Z</time>
      </trkpt>
      <trkpt lat="42.32398" lon="-4.864177">
        <ele>840</ele>
        <time>2018-07-23T05:40:40.000Z</time>
      </trkpt>
      <trkpt lat="42.32407" lon="-4.864262">
        <ele>840</ele>
        <time>2018-07-23T05:40:41.990Z</time>
      </trkpt>
      <trkpt lat="42.324163" lon="-4.864342">
        <ele>840.246155057994</ele>
        <time>2018-07-23T05:40:43.990Z</time>
      </trkpt>
      <trkpt lat="42.324259" lon="-4.864434">
        <ele>841</ele>
        <time>2018-07-23T05:40:45.990Z</time>
      </trkpt>
      <trkpt lat="42.324349" lon="-4.864525">
        <ele>840</ele>
        <time>2018-07-23T05:40:47.990Z</time>
      </trkpt>
      <trkpt lat="42.324438" lon="-4.864611">
        <ele>840</ele>
        <time>2018-07-23T05:40:50.000Z</time>
      </trkpt>
      <trkpt lat="42.324526" lon="-4.8647">
        <ele>840</ele>
        <time>2018-07-23T05:40:51.990Z</time>
      </trkpt>
      <trkpt lat="42.324614" lon="-4.864784">
        <ele>840</ele>
        <time>2018-07-23T05:40:53.990Z</time>
      </trkpt>
      <trkpt lat="42.324697" lon="-4.864869">
        <ele>840</ele>
        <time>2018-07-23T05:40:55.990Z</time>
      </trkpt>
      <trkpt lat="42.324792" lon="-4.864947">
        <ele>840</ele>
        <time>2018-07-23T05:40:57.990Z</time>
      </trkpt>
      <trkpt lat="42.324884" lon="-4.865031">
        <ele>840</ele>
        <time>2018-07-23T05:41:00.000Z</time>
      </trkpt>
      <trkpt lat="42.324966" lon="-4.865118">
        <ele>840.313727458682</ele>
        <time>2018-07-23T05:41:01.990Z</time>
      </trkpt>
      <trkpt lat="42.325057" lon="-4.865204">
        <ele>841</ele>
        <time>2018-07-23T05:41:03.990Z</time>
      </trkpt>
      <trkpt lat="42.32515" lon="-4.865291">
        <ele>842</ele>
        <time>2018-07-23T05:41:06.020Z</time>
      </trkpt>
      <trkpt lat="42.325238" lon="-4.865379">
        <ele>841</ele>
        <time>2018-07-23T05:41:07.990Z</time>
      </trkpt>
      <trkpt lat="42.325331" lon="-4.865467">
        <ele>841</ele>
        <time>2018-07-23T05:41:10.000Z</time>
      </trkpt>
      <trkpt lat="42.325412" lon="-4.865554">
        <ele>842</ele>
        <time>2018-07-23T05:41:11.990Z</time>
      </trkpt>
      <trkpt lat="42.325495" lon="-4.865648">
        <ele>841</ele>
        <time>2018-07-23T05:41:13.990Z</time>
      </trkpt>
      <trkpt lat="42.325589" lon="-4.865737">
        <ele>841</ele>
        <time>2018-07-23T05:41:15.990Z</time>
      </trkpt>
      <trkpt lat="42.325682" lon="-4.865827">
        <ele>841.32</ele>
        <time>2018-07-23T05:41:17.990Z</time>
      </trkpt>
      <trkpt lat="42.325772" lon="-4.865912">
        <ele>842</ele>
        <time>2018-07-23T05:41:20.000Z</time>
      </trkpt>
      <trkpt lat="42.325871" lon="-4.865997">
        <ele>842</ele>
        <time>2018-07-23T05:41:21.990Z</time>
      </trkpt>
      <trkpt lat="42.32596" lon="-4.866076">
        <ele>843</ele>
        <time>2018-07-23T05:41:23.990Z</time>
      </trkpt>
      <trkpt lat="42.326049" lon="-4.866157">
        <ele>842.32</ele>
        <time>2018-07-23T05:41:25.990Z</time>
      </trkpt>
      <trkpt lat="42.326138" lon="-4.866237">
        <ele>843</ele>
        <time>2018-07-23T05:41:27.990Z</time>
      </trkpt>
      <trkpt lat="42.326232" lon="-4.86633">
        <ele>843</ele>
        <time>2018-07-23T05:41:30.000Z</time>
      </trkpt>
      <trkpt lat="42.326322" lon="-4.866411">
        <ele>843</ele>
        <time>2018-07-23T05:41:31.990Z</time>
      </trkpt>
      <trkpt lat="42.326406" lon="-4.866496">
        <ele>843</ele>
        <time>2018-07-23T05:41:33.990Z</time>
      </trkpt>
      <trkpt lat="42.326497" lon="-4.866585">
        <ele>843</ele>
        <time>2018-07-23T05:41:35.990Z</time>
      </trkpt>
      <trkpt lat="42.326582" lon="-4.866675">
        <ele>843</ele>
        <time>2018-07-23T05:41:37.990Z</time>
      </trkpt>
      <trkpt lat="42.326674" lon="-4.866763">
        <ele>843</ele>
        <time>2018-07-23T05:41:40.000Z</time>
      </trkpt>
      <trkpt lat="42.326766" lon="-4.866843">
        <ele>843</ele>
        <time>2018-07-23T05:41:41.990Z</time>
      </trkpt>
      <trkpt lat="42.326849" lon="-4.866932">
        <ele>843</ele>
        <time>2018-07-23T05:41:43.990Z</time>
      </trkpt>
      <trkpt lat="42.326941" lon="-4.867012">
        <ele>843</ele>
        <time>2018-07-23T05:41:45.990Z</time>
      </trkpt>
      <trkpt lat="42.327031" lon="-4.8671">
        <ele>843</ele>
        <time>2018-07-23T05:41:47.990Z</time>
      </trkpt>
      <trkpt lat="42.327123" lon="-4.867185">
        <ele>843</ele>
        <time>2018-07-23T05:41:50.000Z</time>
      </trkpt>
      <trkpt lat="42.327213" lon="-4.867259">
        <ele>843</ele>
        <time>2018-07-23T05:41:51.990Z</time>
      </trkpt>
      <trkpt lat="42.327299" lon="-4.867343">
        <ele>843</ele>
        <time>2018-07-23T05:41:53.990Z</time>
      </trkpt>
      <trkpt lat="42.327392" lon="-4.86743">
        <ele>843</ele>
        <time>2018-07-23T05:41:55.990Z</time>
      </trkpt>
      <trkpt lat="42.327482" lon="-4.867524">
        <ele>844</ele>
        <time>2018-07-23T05:41:57.990Z</time>
      </trkpt>
      <trkpt lat="42.327577" lon="-4.867612">
        <ele>844</ele>
        <time>2018-07-23T05:42:00.000Z</time>
      </trkpt>
      <trkpt lat="42.327662" lon="-4.867702">
        <ele>844</ele>
        <time>2018-07-23T05:42:01.990Z</time>
      </trkpt>
      <trkpt lat="42.327754" lon="-4.867788">
        <ele>844</ele>
        <time>2018-07-23T05:42:03.990Z</time>
      </trkpt>
      <trkpt lat="42.327842" lon="-4.867872">
        <ele>844</ele>
        <time>2018-07-23T05:42:05.990Z</time>
      </trkpt>
      <trkpt lat="42.327934" lon="-4.867953">
        <ele>844</ele>
        <time>2018-07-23T05:42:07.990Z</time>
      </trkpt>
      <trkpt lat="42.32802" lon="-4.868047">
        <ele>844</ele>
        <time>2018-07-23T05:42:10.000Z</time>
      </trkpt>
      <trkpt lat="42.328104" lon="-4.868143">
        <ele>845</ele>
        <time>2018-07-23T05:42:11.990Z</time>
      </trkpt>
      <trkpt lat="42.328196" lon="-4.868231">
        <ele>844.68</ele>
        <time>2018-07-23T05:42:13.990Z</time>
      </trkpt>
      <trkpt lat="42.328292" lon="-4.868317">
        <ele>844</ele>
        <time>2018-07-23T05:42:15.990Z</time>
      </trkpt>
      <trkpt lat="42.328379" lon="-4.868412">
        <ele>844</ele>
        <time>2018-07-23T05:42:17.990Z</time>
      </trkpt>
      <trkpt lat="42.328474" lon="-4.868502">
        <ele>845</ele>
        <time>2018-07-23T05:42:20.000Z</time>
      </trkpt>
      <trkpt lat="42.32856" lon="-4.868586">
        <ele>845</ele>
        <time>2018-07-23T05:42:21.990Z</time>
      </trkpt>
      <trkpt lat="42.328652" lon="-4.86867">
        <ele>844</ele>
        <time>2018-07-23T05:42:23.990Z</time>
      </trkpt>
      <trkpt lat="42.328742" lon="-4.868757">
        <ele>844</ele>
        <time>2018-07-23T05:42:25.990Z</time>
      </trkpt>
      <trkpt lat="42.328832" lon="-4.868842">
        <ele>844.32</ele>
        <time>2018-07-23T05:42:27.990Z</time>
      </trkpt>
      <trkpt lat="42.32892" lon="-4.868928">
        <ele>845</ele>
        <time>2018-07-23T05:42:30.000Z</time>
      </trkpt>
      <trkpt lat="42.329016" lon="-4.869016">
        <ele>844.32</ele>
        <time>2018-07-23T05:42:31.990Z</time>
      </trkpt>
      <trkpt lat="42.329104" lon="-4.869105">
        <ele>845</ele>
        <time>2018-07-23T05:42:33.990Z</time>
      </trkpt>
      <trkpt lat="42.329198" lon="-4.869196">
        <ele>845</ele>
        <time>2018-07-23T05:42:35.990Z</time>
      </trkpt>
      <trkpt lat="42.329296" lon="-4.869287">
        <ele>845</ele>
        <time>2018-07-23T05:42:37.990Z</time>
      </trkpt>
      <trkpt lat="42.329392" lon="-4.86938">
        <ele>845</ele>
        <time>2018-07-23T05:42:40.000Z</time>
      </trkpt>
      <trkpt lat="42.329489" lon="-4.869476">
        <ele>845</ele>
        <time>2018-07-23T05:42:41.990Z</time>
      </trkpt>
      <trkpt lat="42.329589" lon="-4.869567">
        <ele>845</ele>
        <time>2018-07-23T05:42:43.990Z</time>
      </trkpt>
      <trkpt lat="42.329684" lon="-4.869656">
        <ele>845</ele>
        <time>2018-07-23T05:42:45.990Z</time>
      </trkpt>
      <trkpt lat="42.329776" lon="-4.869745">
        <ele>845</ele>
        <time>2018-07-23T05:42:47.990Z</time>
      </trkpt>
      <trkpt lat="42.329874" lon="-4.869837">
        <ele>845</ele>
        <time>2018-07-23T05:42:50.000Z</time>
      </trkpt>
      <trkpt lat="42.329962" lon="-4.869925">
        <ele>845</ele>
        <time>2018-07-23T05:42:51.990Z</time>
      </trkpt>
      <trkpt lat="42.330057" lon="-4.870011">
        <ele>845</ele>
        <time>2018-07-23T05:42:53.990Z</time>
      </trkpt>
      <trkpt lat="42.330148" lon="-4.870105">
        <ele>846</ele>
        <time>2018-07-23T05:42:55.990Z</time>
      </trkpt>
      <trkpt lat="42.330246" lon="-4.870192">
        <ele>846</ele>
        <time>2018-07-23T05:42:57.990Z</time>
      </trkpt>
      <trkpt lat="42.330342" lon="-4.870283">
        <ele>845.014701176471</ele>
        <time>2018-07-23T05:43:00.000Z</time>
      </trkpt>
      <trkpt lat="42.330436" lon="-4.87037">
        <ele>846</ele>
        <time>2018-07-23T05:43:01.990Z</time>
      </trkpt>
      <trkpt lat="42.33053" lon="-4.870455">
        <ele>846</ele>
        <time>2018-07-23T05:43:03.990Z</time>
      </trkpt>
      <trkpt lat="42.330622" lon="-4.870542">
        <ele>846</ele>
        <time>2018-07-23T05:43:05.990Z</time>
      </trkpt>
      <trkpt lat="42.330718" lon="-4.870638">
        <ele>846</ele>
        <time>2018-07-23T05:43:07.990Z</time>
      </trkpt>
      <trkpt lat="42.330808" lon="-4.870731">
        <ele>847</ele>
        <time>2018-07-23T05:43:10.000Z</time>
      </trkpt>
      <trkpt lat="42.330898" lon="-4.870818">
        <ele>848</ele>
        <time>2018-07-23T05:43:11.990Z</time>
      </trkpt>
      <trkpt lat="42.330986" lon="-4.870905">
        <ele>847</ele>
        <time>2018-07-23T05:43:13.990Z</time>
      </trkpt>
      <trkpt lat="42.33108" lon="-4.870991">
        <ele>847</ele>
        <time>2018-07-23T05:43:15.990Z</time>
      </trkpt>
      <trkpt lat="42.331174" lon="-4.871076">
        <ele>847</ele>
        <time>2018-07-23T05:43:17.990Z</time>
      </trkpt>
      <trkpt lat="42.331266" lon="-4.871163">
        <ele>847</ele>
        <time>2018-07-23T05:43:20.000Z</time>
      </trkpt>
      <trkpt lat="42.33136" lon="-4.871251">
        <ele>847</ele>
        <time>2018-07-23T05:43:21.990Z</time>
      </trkpt>
      <trkpt lat="42.331454" lon="-4.871345">
        <ele>847</ele>
        <time>2018-07-23T05:43:23.990Z</time>
      </trkpt>
      <trkpt lat="42.331546" lon="-4.871436">
        <ele>847</ele>
        <time>2018-07-23T05:43:25.990Z</time>
      </trkpt>
      <trkpt lat="42.331638" lon="-4.871524">
        <ele>847</ele>
        <time>2018-07-23T05:43:27.990Z</time>
      </trkpt>
      <trkpt lat="42.331734" lon="-4.871615">
        <ele>847</ele>
        <time>2018-07-23T05:43:30.000Z</time>
      </trkpt>
      <trkpt lat="42.331828" lon="-4.871702">
        <ele>847</ele>
        <time>2018-07-23T05:43:31.990Z</time>
      </trkpt>
      <trkpt lat="42.331927" lon="-4.871792">
        <ele>847</ele>
        <time>2018-07-23T05:43:33.990Z</time>
      </trkpt>
      <trkpt lat="42.332014" lon="-4.871874">
        <ele>847</ele>
        <time>2018-07-23T05:43:35.990Z</time>
      </trkpt>
      <trkpt lat="42.332108" lon="-4.871955">
        <ele>848</ele>
        <time>2018-07-23T05:43:37.990Z</time>
      </trkpt>
      <trkpt lat="42.3322" lon="-4.872032">
        <ele>848</ele>
        <time>2018-07-23T05:43:40.000Z</time>
      </trkpt>
      <trkpt lat="42.332307" lon="-4.872105">
        <ele>848</ele>
        <time>2018-07-23T05:43:41.990Z</time>
      </trkpt>
      <trkpt lat="42.332408" lon="-4.872183">
        <ele>848</ele>
        <time>2018-07-23T05:43:43.990Z</time>
      </trkpt>
      <trkpt lat="42.332508" lon="-4.872245">
        <ele>848</ele>
        <time>2018-07-23T05:43:45.990Z</time>
      </trkpt>
      <trkpt lat="42.332607" lon="-4.872307">
        <ele>848</ele>
        <time>2018-07-23T05:43:47.990Z</time>
      </trkpt>
      <trkpt lat="42.332713" lon="-4.872355">
        <ele>848</ele>
        <time>2018-07-23T05:43:50.000Z</time>
      </trkpt>
      <trkpt lat="42.332816" lon="-4.872401">
        <ele>848</ele>
        <time>2018-07-23T05:43:51.990Z</time>
      </trkpt>
      <trkpt lat="42.33292" lon="-4.872441">
        <ele>848</ele>
        <time>2018-07-23T05:43:53.990Z</time>
      </trkpt>
      <trkpt lat="42.333024" lon="-4.872475">
        <ele>848</ele>
        <time>2018-07-23T05:43:55.990Z</time>
      </trkpt>
      <trkpt lat="42.333124" lon="-4.872501">
        <ele>848</ele>
        <time>2018-07-23T05:43:57.990Z</time>
      </trkpt>
      <trkpt lat="42.33323" lon="-4.872524">
        <ele>848</ele>
        <time>2018-07-23T05:44:00.000Z</time>
      </trkpt>
      <trkpt lat="42.333339" lon="-4.872535">
        <ele>848</ele>
        <time>2018-07-23T05:44:01.990Z</time>
      </trkpt>
      <trkpt lat="42.333446" lon="-4.872546">
        <ele>848</ele>
        <time>2018-07-23T05:44:03.990Z</time>
      </trkpt>
      <trkpt lat="42.333554" lon="-4.872546">
        <ele>848</ele>
        <time>2018-07-23T05:44:05.990Z</time>
      </trkpt>
      <trkpt lat="42.333657" lon="-4.872551">
        <ele>848</ele>
        <time>2018-07-23T05:44:07.990Z</time>
      </trkpt>
      <trkpt lat="42.333771" lon="-4.872542">
        <ele>848</ele>
        <time>2018-07-23T05:44:10.000Z</time>
      </trkpt>
      <trkpt lat="42.333872" lon="-4.872539">
        <ele>848</ele>
        <time>2018-07-23T05:44:11.990Z</time>
      </trkpt>
      <trkpt lat="42.333973" lon="-4.872522">
        <ele>848</ele>
        <time>2018-07-23T05:44:13.990Z</time>
      </trkpt>
      <trkpt lat="42.334076" lon="-4.872504">
        <ele>848</ele>
        <time>2018-07-23T05:44:15.990Z</time>
      </trkpt>
      <trkpt lat="42.334179" lon="-4.872484">
        <ele>848</ele>
        <time>2018-07-23T05:44:17.990Z</time>
      </trkpt>
      <trkpt lat="42.334281" lon="-4.872456">
        <ele>848</ele>
        <time>2018-07-23T05:44:20.000Z</time>
      </trkpt>
      <trkpt lat="42.334378" lon="-4.87243">
        <ele>848</ele>
        <time>2018-07-23T05:44:21.990Z</time>
      </trkpt>
      <trkpt lat="42.334482" lon="-4.872399">
        <ele>848</ele>
        <time>2018-07-23T05:44:23.990Z</time>
      </trkpt>
      <trkpt lat="42.334582" lon="-4.872377">
        <ele>848</ele>
        <time>2018-07-23T05:44:25.990Z</time>
      </trkpt>
      <trkpt lat="42.334682" lon="-4.872347">
        <ele>848</ele>
        <time>2018-07-23T05:44:27.990Z</time>
      </trkpt>
      <trkpt lat="42.334782" lon="-4.872308">
        <ele>848</ele>
        <time>2018-07-23T05:44:30.000Z</time>
      </trkpt>
      <trkpt lat="42.334881" lon="-4.872279">
        <ele>848</ele>
        <time>2018-07-23T05:44:31.990Z</time>
      </trkpt>
      <trkpt lat="42.334986" lon="-4.872245">
        <ele>848.32</ele>
        <time>2018-07-23T05:44:33.990Z</time>
      </trkpt>
      <trkpt lat="42.335089" lon="-4.872209">
        <ele>849</ele>
        <time>2018-07-23T05:44:35.990Z</time>
      </trkpt>
      <trkpt lat="42.335189" lon="-4.872174">
        <ele>849</ele>
        <time>2018-07-23T05:44:37.990Z</time>
      </trkpt>
      <trkpt lat="42.335292" lon="-4.872138">
        <ele>849</ele>
        <time>2018-07-23T05:44:40.000Z</time>
      </trkpt>
      <trkpt lat="42.335393" lon="-4.872106">
        <ele>849</ele>
        <time>2018-07-23T05:44:41.990Z</time>
      </trkpt>
      <trkpt lat="42.33549" lon="-4.872082">
        <ele>849</ele>
        <time>2018-07-23T05:44:43.990Z</time>
      </trkpt>
      <trkpt lat="42.335591" lon="-4.872055">
        <ele>849</ele>
        <time>2018-07-23T05:44:45.990Z</time>
      </trkpt>
      <trkpt lat="42.335695" lon="-4.872028">
        <ele>849</ele>
        <time>2018-07-23T05:44:47.990Z</time>
      </trkpt>
      <trkpt lat="42.335797" lon="-4.871999">
        <ele>849</ele>
        <time>2018-07-23T05:44:50.000Z</time>
      </trkpt>
      <trkpt lat="42.335899" lon="-4.871966">
        <ele>849</ele>
        <time>2018-07-23T05:44:51.990Z</time>
      </trkpt>
      <trkpt lat="42.336003" lon="-4.871935">
        <ele>849</ele>
        <time>2018-07-23T05:44:53.990Z</time>
      </trkpt>
      <trkpt lat="42.336101" lon="-4.871898">
        <ele>849</ele>
        <time>2018-07-23T05:44:55.990Z</time>
      </trkpt>
      <trkpt lat="42.336201" lon="-4.87186">
        <ele>849</ele>
        <time>2018-07-23T05:44:57.990Z</time>
      </trkpt>
      <trkpt lat="42.336298" lon="-4.871827">
        <ele>849</ele>
        <time>2018-07-23T05:45:00.000Z</time>
      </trkpt>
      <trkpt lat="42.336397" lon="-4.871792">
        <ele>849</ele>
        <time>2018-07-23T05:45:02.020Z</time>
      </trkpt>
      <trkpt lat="42.336496" lon="-4.871768">
        <ele>849</ele>
        <time>2018-07-23T05:45:03.990Z</time>
      </trkpt>
      <trkpt lat="42.336591" lon="-4.871744">
        <ele>849</ele>
        <time>2018-07-23T05:45:05.990Z</time>
      </trkpt>
      <trkpt lat="42.336685" lon="-4.871712">
        <ele>849</ele>
        <time>2018-07-23T05:45:07.990Z</time>
      </trkpt>
      <trkpt lat="42.336783" lon="-4.87168">
        <ele>849</ele>
        <time>2018-07-23T05:45:10.000Z</time>
      </trkpt>
      <trkpt lat="42.336884" lon="-4.871643">
        <ele>849.32</ele>
        <time>2018-07-23T05:45:11.990Z</time>
      </trkpt>
      <trkpt lat="42.336986" lon="-4.871614">
        <ele>850</ele>
        <time>2018-07-23T05:45:13.990Z</time>
      </trkpt>
      <trkpt lat="42.337089" lon="-4.871602">
        <ele>849</ele>
        <time>2018-07-23T05:45:15.990Z</time>
      </trkpt>
      <trkpt lat="42.337186" lon="-4.871622">
        <ele>849.32</ele>
        <time>2018-07-23T05:45:17.990Z</time>
      </trkpt>
      <trkpt lat="42.337288" lon="-4.871643">
        <ele>850</ele>
        <time>2018-07-23T05:45:20.000Z</time>
      </trkpt>
      <trkpt lat="42.337386" lon="-4.87166">
        <ele>850</ele>
        <time>2018-07-23T05:45:21.990Z</time>
      </trkpt>
      <trkpt lat="42.33748" lon="-4.871693">
        <ele>850</ele>
        <time>2018-07-23T05:45:23.990Z</time>
      </trkpt>
      <trkpt lat="42.337584" lon="-4.871718">
        <ele>850</ele>
        <time>2018-07-23T05:45:25.990Z</time>
      </trkpt>
      <trkpt lat="42.337683" lon="-4.87174">
        <ele>850</ele>
        <time>2018-07-23T05:45:27.990Z</time>
      </trkpt>
      <trkpt lat="42.337778" lon="-4.871766">
        <ele>850</ele>
        <time>2018-07-23T05:45:30.000Z</time>
      </trkpt>
      <trkpt lat="42.337872" lon="-4.871788">
        <ele>850</ele>
        <time>2018-07-23T05:45:31.990Z</time>
      </trkpt>
      <trkpt lat="42.337968" lon="-4.871806">
        <ele>850</ele>
        <time>2018-07-23T05:45:33.990Z</time>
      </trkpt>
      <trkpt lat="42.338061" lon="-4.87183">
        <ele>850</ele>
        <time>2018-07-23T05:45:35.990Z</time>
      </trkpt>
      <trkpt lat="42.338159" lon="-4.871864">
        <ele>850</ele>
        <time>2018-07-23T05:45:37.990Z</time>
      </trkpt>
      <trkpt lat="42.338262" lon="-4.871885">
        <ele>850.042861322411</ele>
        <time>2018-07-23T05:45:40.000Z</time>
      </trkpt>
      <trkpt lat="42.338355" lon="-4.87191">
        <ele>851</ele>
        <time>2018-07-23T05:45:41.990Z</time>
      </trkpt>
      <trkpt lat="42.338455" lon="-4.87194">
        <ele>851</ele>
        <time>2018-07-23T05:45:43.990Z</time>
      </trkpt>
      <trkpt lat="42.338556" lon="-4.871972">
        <ele>851</ele>
        <time>2018-07-23T05:45:45.990Z</time>
      </trkpt>
      <trkpt lat="42.338653" lon="-4.871999">
        <ele>851</ele>
        <time>2018-07-23T05:45:47.990Z</time>
      </trkpt>
      <trkpt lat="42.33875" lon="-4.872024">
        <ele>851</ele>
        <time>2018-07-23T05:45:50.000Z</time>
      </trkpt>
      <trkpt lat="42.338846" lon="-4.872049">
        <ele>851.306126980395</ele>
        <time>2018-07-23T05:45:51.990Z</time>
      </trkpt>
      <trkpt lat="42.338944" lon="-4.872062">
        <ele>852</ele>
        <time>2018-07-23T05:45:53.990Z</time>
      </trkpt>
      <trkpt lat="42.339042" lon="-4.872084">
        <ele>852</ele>
        <time>2018-07-23T05:45:55.990Z</time>
      </trkpt>
      <trkpt lat="42.339139" lon="-4.872106">
        <ele>852</ele>
        <time>2018-07-23T05:45:57.990Z</time>
      </trkpt>
      <trkpt lat="42.339232" lon="-4.87213">
        <ele>852</ele>
        <time>2018-07-23T05:46:00.000Z</time>
      </trkpt>
      <trkpt lat="42.339336" lon="-4.872158">
        <ele>852</ele>
        <time>2018-07-23T05:46:01.990Z</time>
      </trkpt>
      <trkpt lat="42.339437" lon="-4.872183">
        <ele>852</ele>
        <time>2018-07-23T05:46:03.990Z</time>
      </trkpt>
      <trkpt lat="42.339541" lon="-4.872208">
        <ele>852</ele>
        <time>2018-07-23T05:46:05.990Z</time>
      </trkpt>
      <trkpt lat="42.339643" lon="-4.872235">
        <ele>852</ele>
        <time>2018-07-23T05:46:07.990Z</time>
      </trkpt>
      <trkpt lat="42.339739" lon="-4.872257">
        <ele>852</ele>
        <time>2018-07-23T05:46:10.000Z</time>
      </trkpt>
      <trkpt lat="42.339834" lon="-4.87228">
        <ele>852</ele>
        <time>2018-07-23T05:46:11.990Z</time>
      </trkpt>
      <trkpt lat="42.339934" lon="-4.872301">
        <ele>852.32</ele>
        <time>2018-07-23T05:46:13.990Z</time>
      </trkpt>
      <trkpt lat="42.340029" lon="-4.872322">
        <ele>853</ele>
        <time>2018-07-23T05:46:15.990Z</time>
      </trkpt>
      <trkpt lat="42.340131" lon="-4.872344">
        <ele>853</ele>
        <time>2018-07-23T05:46:17.990Z</time>
      </trkpt>
      <trkpt lat="42.340226" lon="-4.872365">
        <ele>853</ele>
        <time>2018-07-23T05:46:20.000Z</time>
      </trkpt>
      <trkpt lat="42.340325" lon="-4.872393">
        <ele>853</ele>
        <time>2018-07-23T05:46:21.990Z</time>
      </trkpt>
      <trkpt lat="42.340419" lon="-4.872415">
        <ele>853</ele>
        <time>2018-07-23T05:46:23.990Z</time>
      </trkpt>
      <trkpt lat="42.340514" lon="-4.872442">
        <ele>853</ele>
        <time>2018-07-23T05:46:25.990Z</time>
      </trkpt>
      <trkpt lat="42.340618" lon="-4.872469">
        <ele>853</ele>
        <time>2018-07-23T05:46:27.990Z</time>
      </trkpt>
      <trkpt lat="42.340717" lon="-4.872493">
        <ele>853</ele>
        <time>2018-07-23T05:46:30.000Z</time>
      </trkpt>
      <trkpt lat="42.340817" lon="-4.872511">
        <ele>854</ele>
        <time>2018-07-23T05:46:31.990Z</time>
      </trkpt>
      <trkpt lat="42.340917" lon="-4.87254">
        <ele>854</ele>
        <time>2018-07-23T05:46:33.990Z</time>
      </trkpt>
      <trkpt lat="42.341016" lon="-4.872571">
        <ele>854</ele>
        <time>2018-07-23T05:46:35.990Z</time>
      </trkpt>
      <trkpt lat="42.341106" lon="-4.872601">
        <ele>854</ele>
        <time>2018-07-23T05:46:37.990Z</time>
      </trkpt>
      <trkpt lat="42.341199" lon="-4.872633">
        <ele>854.042861322411</ele>
        <time>2018-07-23T05:46:40.000Z</time>
      </trkpt>
      <trkpt lat="42.341314" lon="-4.872709">
        <ele>855</ele>
        <time>2018-07-23T05:46:42.990Z</time>
      </trkpt>
      <trkpt lat="42.341393" lon="-4.872777">
        <ele>855</ele>
        <time>2018-07-23T05:46:45.000Z</time>
      </trkpt>
      <trkpt lat="42.341461" lon="-4.872863">
        <ele>855</ele>
        <time>2018-07-23T05:46:46.990Z</time>
      </trkpt>
      <trkpt lat="42.341532" lon="-4.872961">
        <ele>855.028580310123</ele>
        <time>2018-07-23T05:46:48.990Z</time>
      </trkpt>
      <trkpt lat="42.341593" lon="-4.873063">
        <ele>856</ele>
        <time>2018-07-23T05:46:50.990Z</time>
      </trkpt>
      <trkpt lat="42.341656" lon="-4.873172">
        <ele>856</ele>
        <time>2018-07-23T05:46:52.990Z</time>
      </trkpt>
      <trkpt lat="42.341716" lon="-4.873273">
        <ele>856</ele>
        <time>2018-07-23T05:46:55.000Z</time>
      </trkpt>
      <trkpt lat="42.34178" lon="-4.87338">
        <ele>856</ele>
        <time>2018-07-23T05:46:56.990Z</time>
      </trkpt>
      <trkpt lat="42.341844" lon="-4.873498">
        <ele>856</ele>
        <time>2018-07-23T05:46:58.990Z</time>
      </trkpt>
      <trkpt lat="42.341912" lon="-4.873611">
        <ele>856</ele>
        <time>2018-07-23T05:47:00.990Z</time>
      </trkpt>
      <trkpt lat="42.341977" lon="-4.873722">
        <ele>855.68</ele>
        <time>2018-07-23T05:47:02.990Z</time>
      </trkpt>
      <trkpt lat="42.342043" lon="-4.873827">
        <ele>856</ele>
        <time>2018-07-23T05:47:05.000Z</time>
      </trkpt>
      <trkpt lat="42.342108" lon="-4.873922">
        <ele>856</ele>
        <time>2018-07-23T05:47:06.990Z</time>
      </trkpt>
      <trkpt lat="42.342186" lon="-4.874014">
        <ele>856</ele>
        <time>2018-07-23T05:47:08.990Z</time>
      </trkpt>
      <trkpt lat="42.342282" lon="-4.874091">
        <ele>856</ele>
        <time>2018-07-23T05:47:10.990Z</time>
      </trkpt>
      <trkpt lat="42.342384" lon="-4.874134">
        <ele>856</ele>
        <time>2018-07-23T05:47:12.990Z</time>
      </trkpt>
      <trkpt lat="42.342481" lon="-4.874143">
        <ele>856</ele>
        <time>2018-07-23T05:47:15.000Z</time>
      </trkpt>
      <trkpt lat="42.342581" lon="-4.874136">
        <ele>856</ele>
        <time>2018-07-23T05:47:16.990Z</time>
      </trkpt>
      <trkpt lat="42.342674" lon="-4.874109">
        <ele>856</ele>
        <time>2018-07-23T05:47:18.990Z</time>
      </trkpt>
      <trkpt lat="42.342763" lon="-4.874083">
        <ele>856</ele>
        <time>2018-07-23T05:47:20.990Z</time>
      </trkpt>
      <trkpt lat="42.342852" lon="-4.874049">
        <ele>856</ele>
        <time>2018-07-23T05:47:22.990Z</time>
      </trkpt>
      <trkpt lat="42.342946" lon="-4.874014">
        <ele>856</ele>
        <time>2018-07-23T05:47:25.000Z</time>
      </trkpt>
      <trkpt lat="42.343039" lon="-4.873979">
        <ele>856</ele>
        <time>2018-07-23T05:47:26.990Z</time>
      </trkpt>
      <trkpt lat="42.34313" lon="-4.87394">
        <ele>856</ele>
        <time>2018-07-23T05:47:28.990Z</time>
      </trkpt>
      <trkpt lat="42.343222" lon="-4.873907">
        <ele>856.306126980395</ele>
        <time>2018-07-23T05:47:30.990Z</time>
      </trkpt>
      <trkpt lat="42.343311" lon="-4.873881">
        <ele>857</ele>
        <time>2018-07-23T05:47:32.990Z</time>
      </trkpt>
      <trkpt lat="42.343414" lon="-4.873856">
        <ele>857</ele>
        <time>2018-07-23T05:47:35.010Z</time>
      </trkpt>
      <trkpt lat="42.34351" lon="-4.873823">
        <ele>857</ele>
        <time>2018-07-23T05:47:36.990Z</time>
      </trkpt>
      <trkpt lat="42.343606" lon="-4.873784">
        <ele>857</ele>
        <time>2018-07-23T05:47:38.990Z</time>
      </trkpt>
      <trkpt lat="42.343697" lon="-4.873755">
        <ele>857</ele>
        <time>2018-07-23T05:47:40.990Z</time>
      </trkpt>
      <trkpt lat="42.343788" lon="-4.873724">
        <ele>857.971419689877</ele>
        <time>2018-07-23T05:47:42.990Z</time>
      </trkpt>
      <trkpt lat="42.343881" lon="-4.873685">
        <ele>857</ele>
        <time>2018-07-23T05:47:45.010Z</time>
      </trkpt>
      <trkpt lat="42.343969" lon="-4.873647">
        <ele>857</ele>
        <time>2018-07-23T05:47:46.990Z</time>
      </trkpt>
      <trkpt lat="42.344058" lon="-4.873612">
        <ele>857</ele>
        <time>2018-07-23T05:47:48.990Z</time>
      </trkpt>
      <trkpt lat="42.344154" lon="-4.873569">
        <ele>858</ele>
        <time>2018-07-23T05:47:50.990Z</time>
      </trkpt>
      <trkpt lat="42.344249" lon="-4.873528">
        <ele>858</ele>
        <time>2018-07-23T05:47:52.990Z</time>
      </trkpt>
      <trkpt lat="42.344345" lon="-4.873491">
        <ele>858</ele>
        <time>2018-07-23T05:47:55.000Z</time>
      </trkpt>
      <trkpt lat="42.344438" lon="-4.873459">
        <ele>858</ele>
        <time>2018-07-23T05:47:56.990Z</time>
      </trkpt>
      <trkpt lat="42.344529" lon="-4.87342">
        <ele>858</ele>
        <time>2018-07-23T05:47:58.990Z</time>
      </trkpt>
      <trkpt lat="42.34462" lon="-4.873386">
        <ele>858</ele>
        <time>2018-07-23T05:48:00.990Z</time>
      </trkpt>
      <trkpt lat="42.344711" lon="-4.873347">
        <ele>858</ele>
        <time>2018-07-23T05:48:02.990Z</time>
      </trkpt>
      <trkpt lat="42.344806" lon="-4.873312">
        <ele>858</ele>
        <time>2018-07-23T05:48:05.000Z</time>
      </trkpt>
      <trkpt lat="42.344896" lon="-4.873278">
        <ele>858</ele>
        <time>2018-07-23T05:48:06.990Z</time>
      </trkpt>
      <trkpt lat="42.344988" lon="-4.873242">
        <ele>858</ele>
        <time>2018-07-23T05:48:08.990Z</time>
      </trkpt>
      <trkpt lat="42.345077" lon="-4.873203">
        <ele>858</ele>
        <time>2018-07-23T05:48:10.990Z</time>
      </trkpt>
      <trkpt lat="42.345168" lon="-4.873161">
        <ele>858</ele>
        <time>2018-07-23T05:48:12.990Z</time>
      </trkpt>
      <trkpt lat="42.345264" lon="-4.873127">
        <ele>858.3299968</ele>
        <time>2018-07-23T05:48:15.000Z</time>
      </trkpt>
      <trkpt lat="42.345357" lon="-4.873091">
        <ele>859</ele>
        <time>2018-07-23T05:48:16.990Z</time>
      </trkpt>
      <trkpt lat="42.345448" lon="-4.873053">
        <ele>859</ele>
        <time>2018-07-23T05:48:18.990Z</time>
      </trkpt>
      <trkpt lat="42.34554" lon="-4.873022">
        <ele>859</ele>
        <time>2018-07-23T05:48:20.990Z</time>
      </trkpt>
      <trkpt lat="42.345635" lon="-4.872989">
        <ele>859</ele>
        <time>2018-07-23T05:48:23.020Z</time>
      </trkpt>
      <trkpt lat="42.345731" lon="-4.87295">
        <ele>859</ele>
        <time>2018-07-23T05:48:25.000Z</time>
      </trkpt>
      <trkpt lat="42.345831" lon="-4.87292">
        <ele>859</ele>
        <time>2018-07-23T05:48:26.990Z</time>
      </trkpt>
      <trkpt lat="42.345927" lon="-4.872889">
        <ele>859</ele>
        <time>2018-07-23T05:48:28.990Z</time>
      </trkpt>
      <trkpt lat="42.346021" lon="-4.872845">
        <ele>859.028580310123</ele>
        <time>2018-07-23T05:48:30.990Z</time>
      </trkpt>
      <trkpt lat="42.346111" lon="-4.872817">
        <ele>860</ele>
        <time>2018-07-23T05:48:32.990Z</time>
      </trkpt>
      <trkpt lat="42.346204" lon="-4.87278">
        <ele>860.3299968</ele>
        <time>2018-07-23T05:48:35.000Z</time>
      </trkpt>
      <trkpt lat="42.346297" lon="-4.872747">
        <ele>861</ele>
        <time>2018-07-23T05:48:36.990Z</time>
      </trkpt>
      <trkpt lat="42.346393" lon="-4.872718">
        <ele>861</ele>
        <time>2018-07-23T05:48:38.990Z</time>
      </trkpt>
      <trkpt lat="42.346486" lon="-4.872681">
        <ele>861</ele>
        <time>2018-07-23T05:48:40.990Z</time>
      </trkpt>
      <trkpt lat="42.346585" lon="-4.872647">
        <ele>861</ele>
        <time>2018-07-23T05:48:42.990Z</time>
      </trkpt>
      <trkpt lat="42.346688" lon="-4.872624">
        <ele>860</ele>
        <time>2018-07-23T05:48:45.000Z</time>
      </trkpt>
      <trkpt lat="42.346794" lon="-4.872594">
        <ele>860</ele>
        <time>2018-07-23T05:48:46.990Z</time>
      </trkpt>
      <trkpt lat="42.346891" lon="-4.872547">
        <ele>860.32</ele>
        <time>2018-07-23T05:48:48.990Z</time>
      </trkpt>
      <trkpt lat="42.34699" lon="-4.872502">
        <ele>861</ele>
        <time>2018-07-23T05:48:50.990Z</time>
      </trkpt>
      <trkpt lat="42.347092" lon="-4.872462">
        <ele>861</ele>
        <time>2018-07-23T05:48:52.990Z</time>
      </trkpt>
      <trkpt lat="42.34719" lon="-4.872423">
        <ele>861</ele>
        <time>2018-07-23T05:48:55.000Z</time>
      </trkpt>
      <trkpt lat="42.34729" lon="-4.872388">
        <ele>861</ele>
        <time>2018-07-23T05:48:56.990Z</time>
      </trkpt>
      <trkpt lat="42.347386" lon="-4.872355">
        <ele>861</ele>
        <time>2018-07-23T05:48:58.990Z</time>
      </trkpt>
      <trkpt lat="42.347485" lon="-4.872317">
        <ele>860.971419689877</ele>
        <time>2018-07-23T05:49:00.990Z</time>
      </trkpt>
      <trkpt lat="42.347574" lon="-4.872277">
        <ele>860</ele>
        <time>2018-07-23T05:49:02.990Z</time>
      </trkpt>
      <trkpt lat="42.347668" lon="-4.872242">
        <ele>860.3299968</ele>
        <time>2018-07-23T05:49:05.000Z</time>
      </trkpt>
      <trkpt lat="42.34776" lon="-4.872207">
        <ele>861.32</ele>
        <time>2018-07-23T05:49:06.990Z</time>
      </trkpt>
      <trkpt lat="42.347848" lon="-4.872169">
        <ele>862</ele>
        <time>2018-07-23T05:49:08.990Z</time>
      </trkpt>
      <trkpt lat="42.347938" lon="-4.872135">
        <ele>862</ele>
        <time>2018-07-23T05:49:10.990Z</time>
      </trkpt>
      <trkpt lat="42.348032" lon="-4.872102">
        <ele>862</ele>
        <time>2018-07-23T05:49:12.990Z</time>
      </trkpt>
      <trkpt lat="42.348124" lon="-4.872063">
        <ele>862</ele>
        <time>2018-07-23T05:49:15.000Z</time>
      </trkpt>
      <trkpt lat="42.348214" lon="-4.872027">
        <ele>863</ele>
        <time>2018-07-23T05:49:16.990Z</time>
      </trkpt>
      <trkpt lat="42.348302" lon="-4.871992">
        <ele>863</ele>
        <time>2018-07-23T05:49:18.990Z</time>
      </trkpt>
      <trkpt lat="42.348394" lon="-4.871958">
        <ele>863.32</ele>
        <time>2018-07-23T05:49:20.990Z</time>
      </trkpt>
      <trkpt lat="42.348482" lon="-4.871924">
        <ele>864</ele>
        <time>2018-07-23T05:49:22.990Z</time>
      </trkpt>
      <trkpt lat="42.348578" lon="-4.871889">
        <ele>863.6700032</ele>
        <time>2018-07-23T05:49:25.000Z</time>
      </trkpt>
      <trkpt lat="42.348672" lon="-4.87185">
        <ele>863</ele>
        <time>2018-07-23T05:49:26.990Z</time>
      </trkpt>
      <trkpt lat="42.348765" lon="-4.871817">
        <ele>863</ele>
        <time>2018-07-23T05:49:28.990Z</time>
      </trkpt>
      <trkpt lat="42.34886" lon="-4.871779">
        <ele>863</ele>
        <time>2018-07-23T05:49:30.990Z</time>
      </trkpt>
      <trkpt lat="42.348949" lon="-4.87175">
        <ele>864</ele>
        <time>2018-07-23T05:49:32.990Z</time>
      </trkpt>
      <trkpt lat="42.349042" lon="-4.871718">
        <ele>864</ele>
        <time>2018-07-23T05:49:35.000Z</time>
      </trkpt>
      <trkpt lat="42.349134" lon="-4.87168">
        <ele>864</ele>
        <time>2018-07-23T05:49:36.990Z</time>
      </trkpt>
      <trkpt lat="42.349234" lon="-4.871642">
        <ele>864</ele>
        <time>2018-07-23T05:49:39.000Z</time>
      </trkpt>
      <trkpt lat="42.349332" lon="-4.871614">
        <ele>864.3299968</ele>
        <time>2018-07-23T05:49:41.000Z</time>
      </trkpt>
      <trkpt lat="42.349426" lon="-4.871573">
        <ele>865</ele>
        <time>2018-07-23T05:49:43.000Z</time>
      </trkpt>
      <trkpt lat="42.349522" lon="-4.871538">
        <ele>865.3299968</ele>
        <time>2018-07-23T05:49:45.000Z</time>
      </trkpt>
      <trkpt lat="42.349654" lon="-4.871499">
        <ele>866</ele>
        <time>2018-07-23T05:49:48.000Z</time>
      </trkpt>
      <trkpt lat="42.34974" lon="-4.871465">
        <ele>866.316327730105</ele>
        <time>2018-07-23T05:49:50.000Z</time>
      </trkpt>
      <trkpt lat="42.349872" lon="-4.871413">
        <ele>867</ele>
        <time>2018-07-23T05:49:53.000Z</time>
      </trkpt>
      <trkpt lat="42.349966" lon="-4.871383">
        <ele>866</ele>
        <time>2018-07-23T05:49:55.000Z</time>
      </trkpt>
      <trkpt lat="42.350058" lon="-4.871354">
        <ele>866.3299968</ele>
        <time>2018-07-23T05:49:57.000Z</time>
      </trkpt>
      <trkpt lat="42.35015" lon="-4.87132">
        <ele>867</ele>
        <time>2018-07-23T05:49:59.000Z</time>
      </trkpt>
      <trkpt lat="42.350278" lon="-4.871265">
        <ele>867</ele>
        <time>2018-07-23T05:50:02.000Z</time>
      </trkpt>
      <trkpt lat="42.350368" lon="-4.871234">
        <ele>867</ele>
        <time>2018-07-23T05:50:04.000Z</time>
      </trkpt>
      <trkpt lat="42.350458" lon="-4.871201">
        <ele>867</ele>
        <time>2018-07-23T05:50:06.000Z</time>
      </trkpt>
      <trkpt lat="42.350551" lon="-4.871165">
        <ele>868</ele>
        <time>2018-07-23T05:50:08.000Z</time>
      </trkpt>
      <trkpt lat="42.350644" lon="-4.871131">
        <ele>868</ele>
        <time>2018-07-23T05:50:10.000Z</time>
      </trkpt>
      <trkpt lat="42.350734" lon="-4.871094">
        <ele>868</ele>
        <time>2018-07-23T05:50:12.000Z</time>
      </trkpt>
      <trkpt lat="42.350822" lon="-4.871052">
        <ele>868</ele>
        <time>2018-07-23T05:50:14.000Z</time>
      </trkpt>
      <trkpt lat="42.350908" lon="-4.870999">
        <ele>868.3299968</ele>
        <time>2018-07-23T05:50:16.000Z</time>
      </trkpt>
      <trkpt lat="42.350988" lon="-4.870935">
        <ele>868.6700032</ele>
        <time>2018-07-23T05:50:18.000Z</time>
      </trkpt>
      <trkpt lat="42.351058" lon="-4.870857">
        <ele>868.3299968</ele>
        <time>2018-07-23T05:50:20.000Z</time>
      </trkpt>
      <trkpt lat="42.35114" lon="-4.870718">
        <ele>869</ele>
        <time>2018-07-23T05:50:23.000Z</time>
      </trkpt>
      <trkpt lat="42.351209" lon="-4.870566">
        <ele>869</ele>
        <time>2018-07-23T05:50:26.000Z</time>
      </trkpt>
      <trkpt lat="42.351268" lon="-4.870408">
        <ele>869</ele>
        <time>2018-07-23T05:50:29.000Z</time>
      </trkpt>
      <trkpt lat="42.351328" lon="-4.87025">
        <ele>870</ele>
        <time>2018-07-23T05:50:32.000Z</time>
      </trkpt>
      <trkpt lat="42.35139" lon="-4.87009">
        <ele>869.6700032</ele>
        <time>2018-07-23T05:50:35.000Z</time>
      </trkpt>
      <trkpt lat="42.351448" lon="-4.869926">
        <ele>869</ele>
        <time>2018-07-23T05:50:38.000Z</time>
      </trkpt>
      <trkpt lat="42.351488" lon="-4.869816">
        <ele>869.323231278444</ele>
        <time>2018-07-23T05:50:40.000Z</time>
      </trkpt>
      <trkpt lat="42.351552" lon="-4.869651">
        <ele>870</ele>
        <time>2018-07-23T05:50:42.990Z</time>
      </trkpt>
      <trkpt lat="42.3516" lon="-4.869543">
        <ele>870</ele>
        <time>2018-07-23T05:50:45.000Z</time>
      </trkpt>
      <trkpt lat="42.351692" lon="-4.869442">
        <ele>870</ele>
        <time>2018-07-23T05:50:47.990Z</time>
      </trkpt>
      <trkpt lat="42.351796" lon="-4.86945">
        <ele>870</ele>
        <time>2018-07-23T05:50:50.990Z</time>
      </trkpt>
      <trkpt lat="42.351906" lon="-4.869461">
        <ele>870</ele>
        <time>2018-07-23T05:50:53.990Z</time>
      </trkpt>
      <trkpt lat="42.352038" lon="-4.869471">
        <ele>870</ele>
        <time>2018-07-23T05:50:56.990Z</time>
      </trkpt>
      <trkpt lat="42.35216" lon="-4.869476">
        <ele>870</ele>
        <time>2018-07-23T05:50:59.990Z</time>
      </trkpt>
      <trkpt lat="42.35229" lon="-4.869489">
        <ele>870</ele>
        <time>2018-07-23T05:51:02.990Z</time>
      </trkpt>
      <trkpt lat="42.352418" lon="-4.869494">
        <ele>870</ele>
        <time>2018-07-23T05:51:05.990Z</time>
      </trkpt>
      <trkpt lat="42.35251" lon="-4.869498">
        <ele>870</ele>
        <time>2018-07-23T05:51:07.990Z</time>
      </trkpt>
      <trkpt lat="42.352602" lon="-4.869512">
        <ele>870</ele>
        <time>2018-07-23T05:51:10.000Z</time>
      </trkpt>
      <trkpt lat="42.352734" lon="-4.869541">
        <ele>870</ele>
        <time>2018-07-23T05:51:12.990Z</time>
      </trkpt>
      <trkpt lat="42.352826" lon="-4.869548">
        <ele>870</ele>
        <time>2018-07-23T05:51:15.000Z</time>
      </trkpt>
      <trkpt lat="42.35292" lon="-4.86956">
        <ele>870</ele>
        <time>2018-07-23T05:51:16.990Z</time>
      </trkpt>
      <trkpt lat="42.353018" lon="-4.869568">
        <ele>871</ele>
        <time>2018-07-23T05:51:18.990Z</time>
      </trkpt>
      <trkpt lat="42.353117" lon="-4.869576">
        <ele>871</ele>
        <time>2018-07-23T05:51:20.990Z</time>
      </trkpt>
      <trkpt lat="42.35321" lon="-4.869585">
        <ele>871</ele>
        <time>2018-07-23T05:51:22.990Z</time>
      </trkpt>
      <trkpt lat="42.353304" lon="-4.869595">
        <ele>870</ele>
        <time>2018-07-23T05:51:25.000Z</time>
      </trkpt>
      <trkpt lat="42.353398" lon="-4.869599">
        <ele>870</ele>
        <time>2018-07-23T05:51:26.990Z</time>
      </trkpt>
      <trkpt lat="42.35353" lon="-4.869608">
        <ele>870</ele>
        <time>2018-07-23T05:51:30.000Z</time>
      </trkpt>
      <trkpt lat="42.353624" lon="-4.869615">
        <ele>870</ele>
        <time>2018-07-23T05:51:31.990Z</time>
      </trkpt>
      <trkpt lat="42.353744" lon="-4.869643">
        <ele>870</ele>
        <time>2018-07-23T05:51:34.990Z</time>
      </trkpt>
      <trkpt lat="42.35384" lon="-4.869659">
        <ele>870</ele>
        <time>2018-07-23T05:51:36.990Z</time>
      </trkpt>
      <trkpt lat="42.35394" lon="-4.869666">
        <ele>870</ele>
        <time>2018-07-23T05:51:38.990Z</time>
      </trkpt>
      <trkpt lat="42.354032" lon="-4.869676">
        <ele>870</ele>
        <time>2018-07-23T05:51:40.990Z</time>
      </trkpt>
      <trkpt lat="42.354125" lon="-4.869682">
        <ele>870</ele>
        <time>2018-07-23T05:51:42.990Z</time>
      </trkpt>
      <trkpt lat="42.354223" lon="-4.869689">
        <ele>870</ele>
        <time>2018-07-23T05:51:45.010Z</time>
      </trkpt>
      <trkpt lat="42.35435" lon="-4.869707">
        <ele>870</ele>
        <time>2018-07-23T05:51:47.990Z</time>
      </trkpt>
      <trkpt lat="42.354441" lon="-4.869711">
        <ele>870</ele>
        <time>2018-07-23T05:51:50.000Z</time>
      </trkpt>
      <trkpt lat="42.354532" lon="-4.869721">
        <ele>870</ele>
        <time>2018-07-23T05:51:51.990Z</time>
      </trkpt>
      <trkpt lat="42.354624" lon="-4.869727">
        <ele>870</ele>
        <time>2018-07-23T05:51:53.990Z</time>
      </trkpt>
      <trkpt lat="42.354757" lon="-4.869733">
        <ele>870</ele>
        <time>2018-07-23T05:51:56.990Z</time>
      </trkpt>
      <trkpt lat="42.35489" lon="-4.869749">
        <ele>870</ele>
        <time>2018-07-23T05:52:00.000Z</time>
      </trkpt>
      <trkpt lat="42.35499" lon="-4.869756">
        <ele>870</ele>
        <time>2018-07-23T05:52:01.990Z</time>
      </trkpt>
      <trkpt lat="42.35509" lon="-4.869767">
        <ele>870</ele>
        <time>2018-07-23T05:52:03.990Z</time>
      </trkpt>
      <trkpt lat="42.355181" lon="-4.869783">
        <ele>870</ele>
        <time>2018-07-23T05:52:05.990Z</time>
      </trkpt>
      <trkpt lat="42.355281" lon="-4.86979">
        <ele>870</ele>
        <time>2018-07-23T05:52:07.990Z</time>
      </trkpt>
      <trkpt lat="42.355371" lon="-4.869793">
        <ele>870</ele>
        <time>2018-07-23T05:52:10.000Z</time>
      </trkpt>
      <trkpt lat="42.355465" lon="-4.869799">
        <ele>870</ele>
        <time>2018-07-23T05:52:11.990Z</time>
      </trkpt>
      <trkpt lat="42.355563" lon="-4.869807">
        <ele>870</ele>
        <time>2018-07-23T05:52:13.990Z</time>
      </trkpt>
      <trkpt lat="42.35566" lon="-4.86982">
        <ele>870</ele>
        <time>2018-07-23T05:52:15.990Z</time>
      </trkpt>
      <trkpt lat="42.355797" lon="-4.869842">
        <ele>870</ele>
        <time>2018-07-23T05:52:18.990Z</time>
      </trkpt>
      <trkpt lat="42.355895" lon="-4.869854">
        <ele>870</ele>
        <time>2018-07-23T05:52:20.990Z</time>
      </trkpt>
      <trkpt lat="42.355986" lon="-4.869855">
        <ele>870</ele>
        <time>2018-07-23T05:52:22.990Z</time>
      </trkpt>
      <trkpt lat="42.356083" lon="-4.869852">
        <ele>870</ele>
        <time>2018-07-23T05:52:24.990Z</time>
      </trkpt>
      <trkpt lat="42.356203" lon="-4.869849">
        <ele>870</ele>
        <time>2018-07-23T05:52:27.990Z</time>
      </trkpt>
      <trkpt lat="42.356289" lon="-4.869889">
        <ele>871</ele>
        <time>2018-07-23T05:52:36.990Z</time>
      </trkpt>
      <trkpt lat="42.356366" lon="-4.869825">
        <ele>870</ele>
        <time>2018-07-23T05:52:51.990Z</time>
      </trkpt>
      <trkpt lat="42.356453" lon="-4.869774">
        <ele>870</ele>
        <time>2018-07-23T05:52:55.000Z</time>
      </trkpt>
      <trkpt lat="42.356558" lon="-4.869713">
        <ele>870</ele>
        <time>2018-07-23T05:52:57.990Z</time>
      </trkpt>
      <trkpt lat="42.356671" lon="-4.869651">
        <ele>870</ele>
        <time>2018-07-23T05:53:00.990Z</time>
      </trkpt>
      <trkpt lat="42.356784" lon="-4.869585">
        <ele>870</ele>
        <time>2018-07-23T05:53:03.990Z</time>
      </trkpt>
      <trkpt lat="42.356904" lon="-4.869525">
        <ele>870</ele>
        <time>2018-07-23T05:53:06.990Z</time>
      </trkpt>
      <trkpt lat="42.357022" lon="-4.869465">
        <ele>870</ele>
        <time>2018-07-23T05:53:10.000Z</time>
      </trkpt>
      <trkpt lat="42.35711" lon="-4.869424">
        <ele>870</ele>
        <time>2018-07-23T05:53:11.990Z</time>
      </trkpt>
      <trkpt lat="42.357238" lon="-4.869357">
        <ele>870</ele>
        <time>2018-07-23T05:53:15.000Z</time>
      </trkpt>
      <trkpt lat="42.357356" lon="-4.869291">
        <ele>869</ele>
        <time>2018-07-23T05:53:17.990Z</time>
      </trkpt>
      <trkpt lat="42.357479" lon="-4.869226">
        <ele>869.306126980395</ele>
        <time>2018-07-23T05:53:20.990Z</time>
      </trkpt>
      <trkpt lat="42.357562" lon="-4.869179">
        <ele>870</ele>
        <time>2018-07-23T05:53:22.990Z</time>
      </trkpt>
      <trkpt lat="42.357682" lon="-4.869118">
        <ele>869.68</ele>
        <time>2018-07-23T05:53:25.990Z</time>
      </trkpt>
      <trkpt lat="42.357804" lon="-4.869051">
        <ele>869</ele>
        <time>2018-07-23T05:53:28.990Z</time>
      </trkpt>
      <trkpt lat="42.357888" lon="-4.869003">
        <ele>869.313133533306</ele>
        <time>2018-07-23T05:53:30.990Z</time>
      </trkpt>
      <trkpt lat="42.358004" lon="-4.868928">
        <ele>870</ele>
        <time>2018-07-23T05:53:33.990Z</time>
      </trkpt>
      <trkpt lat="42.358122" lon="-4.868872">
        <ele>870</ele>
        <time>2018-07-23T05:53:36.990Z</time>
      </trkpt>
      <trkpt lat="42.35825" lon="-4.868846">
        <ele>870</ele>
        <time>2018-07-23T05:53:40.000Z</time>
      </trkpt>
      <trkpt lat="42.35837" lon="-4.868859">
        <ele>870</ele>
        <time>2018-07-23T05:53:42.990Z</time>
      </trkpt>
      <trkpt lat="42.358504" lon="-4.868889">
        <ele>870</ele>
        <time>2018-07-23T05:53:45.990Z</time>
      </trkpt>
      <trkpt lat="42.358596" lon="-4.868923">
        <ele>870</ele>
        <time>2018-07-23T05:53:47.990Z</time>
      </trkpt>
      <trkpt lat="42.358686" lon="-4.868952">
        <ele>870</ele>
        <time>2018-07-23T05:53:50.000Z</time>
      </trkpt>
      <trkpt lat="42.358778" lon="-4.868982">
        <ele>870</ele>
        <time>2018-07-23T05:53:51.990Z</time>
      </trkpt>
      <trkpt lat="42.3589" lon="-4.869016">
        <ele>870</ele>
        <time>2018-07-23T05:53:55.000Z</time>
      </trkpt>
      <trkpt lat="42.35903" lon="-4.869064">
        <ele>870</ele>
        <time>2018-07-23T05:53:57.990Z</time>
      </trkpt>
      <trkpt lat="42.359128" lon="-4.869099">
        <ele>870</ele>
        <time>2018-07-23T05:54:00.000Z</time>
      </trkpt>
      <trkpt lat="42.359227" lon="-4.86913">
        <ele>870</ele>
        <time>2018-07-23T05:54:01.990Z</time>
      </trkpt>
      <trkpt lat="42.359323" lon="-4.869155">
        <ele>870</ele>
        <time>2018-07-23T05:54:03.990Z</time>
      </trkpt>
      <trkpt lat="42.359415" lon="-4.869187">
        <ele>870</ele>
        <time>2018-07-23T05:54:05.990Z</time>
      </trkpt>
      <trkpt lat="42.359504" lon="-4.869219">
        <ele>870</ele>
        <time>2018-07-23T05:54:07.990Z</time>
      </trkpt>
      <trkpt lat="42.359598" lon="-4.86925">
        <ele>870</ele>
        <time>2018-07-23T05:54:10.000Z</time>
      </trkpt>
      <trkpt lat="42.359693" lon="-4.869281">
        <ele>870</ele>
        <time>2018-07-23T05:54:11.990Z</time>
      </trkpt>
      <trkpt lat="42.359785" lon="-4.869307">
        <ele>870</ele>
        <time>2018-07-23T05:54:13.990Z</time>
      </trkpt>
      <trkpt lat="42.359876" lon="-4.86934">
        <ele>870.32</ele>
        <time>2018-07-23T05:54:15.990Z</time>
      </trkpt>
      <trkpt lat="42.359967" lon="-4.86937">
        <ele>871</ele>
        <time>2018-07-23T05:54:17.990Z</time>
      </trkpt>
      <trkpt lat="42.360056" lon="-4.869395">
        <ele>871</ele>
        <time>2018-07-23T05:54:20.000Z</time>
      </trkpt>
      <trkpt lat="42.360146" lon="-4.869423">
        <ele>871</ele>
        <time>2018-07-23T05:54:21.990Z</time>
      </trkpt>
      <trkpt lat="42.360234" lon="-4.86945">
        <ele>871</ele>
        <time>2018-07-23T05:54:23.990Z</time>
      </trkpt>
      <trkpt lat="42.360323" lon="-4.869477">
        <ele>871</ele>
        <time>2018-07-23T05:54:25.990Z</time>
      </trkpt>
      <trkpt lat="42.360412" lon="-4.869504">
        <ele>871</ele>
        <time>2018-07-23T05:54:27.990Z</time>
      </trkpt>
      <trkpt lat="42.360502" lon="-4.869533">
        <ele>871</ele>
        <time>2018-07-23T05:54:30.000Z</time>
      </trkpt>
      <trkpt lat="42.360591" lon="-4.869564">
        <ele>871</ele>
        <time>2018-07-23T05:54:31.990Z</time>
      </trkpt>
      <trkpt lat="42.360721" lon="-4.869602">
        <ele>871</ele>
        <time>2018-07-23T05:54:35.000Z</time>
      </trkpt>
      <trkpt lat="42.36081" lon="-4.869631">
        <ele>871</ele>
        <time>2018-07-23T05:54:36.990Z</time>
      </trkpt>
      <trkpt lat="42.3609" lon="-4.869661">
        <ele>871</ele>
        <time>2018-07-23T05:54:38.990Z</time>
      </trkpt>
      <trkpt lat="42.361031" lon="-4.869701">
        <ele>871.971419689877</ele>
        <time>2018-07-23T05:54:41.990Z</time>
      </trkpt>
      <trkpt lat="42.361118" lon="-4.869733">
        <ele>871</ele>
        <time>2018-07-23T05:54:43.990Z</time>
      </trkpt>
      <trkpt lat="42.361206" lon="-4.869766">
        <ele>871</ele>
        <time>2018-07-23T05:54:45.990Z</time>
      </trkpt>
      <trkpt lat="42.361333" lon="-4.869812">
        <ele>871.32</ele>
        <time>2018-07-23T05:54:48.990Z</time>
      </trkpt>
      <trkpt lat="42.36142" lon="-4.869844">
        <ele>872</ele>
        <time>2018-07-23T05:54:50.990Z</time>
      </trkpt>
      <trkpt lat="42.361509" lon="-4.869868">
        <ele>872</ele>
        <time>2018-07-23T05:54:52.990Z</time>
      </trkpt>
      <trkpt lat="42.361636" lon="-4.869914">
        <ele>872</ele>
        <time>2018-07-23T05:54:55.990Z</time>
      </trkpt>
      <trkpt lat="42.361761" lon="-4.869952">
        <ele>872</ele>
        <time>2018-07-23T05:54:58.990Z</time>
      </trkpt>
      <trkpt lat="42.361854" lon="-4.869976">
        <ele>872.32</ele>
        <time>2018-07-23T05:55:00.990Z</time>
      </trkpt>
      <trkpt lat="42.361984" lon="-4.870027">
        <ele>873</ele>
        <time>2018-07-23T05:55:03.990Z</time>
      </trkpt>
      <trkpt lat="42.362074" lon="-4.870059">
        <ele>873</ele>
        <time>2018-07-23T05:55:05.990Z</time>
      </trkpt>
      <trkpt lat="42.362166" lon="-4.870083">
        <ele>873</ele>
        <time>2018-07-23T05:55:07.990Z</time>
      </trkpt>
      <trkpt lat="42.362256" lon="-4.870114">
        <ele>873</ele>
        <time>2018-07-23T05:55:10.000Z</time>
      </trkpt>
      <trkpt lat="42.362345" lon="-4.870142">
        <ele>873</ele>
        <time>2018-07-23T05:55:11.990Z</time>
      </trkpt>
      <trkpt lat="42.362435" lon="-4.87017">
        <ele>873</ele>
        <time>2018-07-23T05:55:13.990Z</time>
      </trkpt>
      <trkpt lat="42.362524" lon="-4.870205">
        <ele>873</ele>
        <time>2018-07-23T05:55:15.990Z</time>
      </trkpt>
      <trkpt lat="42.362614" lon="-4.870241">
        <ele>873</ele>
        <time>2018-07-23T05:55:17.990Z</time>
      </trkpt>
      <trkpt lat="42.36271" lon="-4.870273">
        <ele>873</ele>
        <time>2018-07-23T05:55:20.000Z</time>
      </trkpt>
      <trkpt lat="42.362838" lon="-4.870318">
        <ele>873</ele>
        <time>2018-07-23T05:55:22.990Z</time>
      </trkpt>
      <trkpt lat="42.362928" lon="-4.870346">
        <ele>874</ele>
        <time>2018-07-23T05:55:25.000Z</time>
      </trkpt>
      <trkpt lat="42.363018" lon="-4.870373">
        <ele>874</ele>
        <time>2018-07-23T05:55:26.990Z</time>
      </trkpt>
      <trkpt lat="42.36311" lon="-4.870402">
        <ele>873</ele>
        <time>2018-07-23T05:55:28.990Z</time>
      </trkpt>
      <trkpt lat="42.363201" lon="-4.870431">
        <ele>873</ele>
        <time>2018-07-23T05:55:30.990Z</time>
      </trkpt>
      <trkpt lat="42.363332" lon="-4.870474">
        <ele>874</ele>
        <time>2018-07-23T05:55:33.990Z</time>
      </trkpt>
      <trkpt lat="42.363423" lon="-4.870507">
        <ele>873</ele>
        <time>2018-07-23T05:55:35.990Z</time>
      </trkpt>
      <trkpt lat="42.363514" lon="-4.87054">
        <ele>873</ele>
        <time>2018-07-23T05:55:37.990Z</time>
      </trkpt>
      <trkpt lat="42.363608" lon="-4.870577">
        <ele>873</ele>
        <time>2018-07-23T05:55:40.000Z</time>
      </trkpt>
      <trkpt lat="42.3637" lon="-4.87061">
        <ele>873</ele>
        <time>2018-07-23T05:55:41.990Z</time>
      </trkpt>
      <trkpt lat="42.363791" lon="-4.870639">
        <ele>874</ele>
        <time>2018-07-23T05:55:43.990Z</time>
      </trkpt>
      <trkpt lat="42.363889" lon="-4.870665">
        <ele>873</ele>
        <time>2018-07-23T05:55:45.990Z</time>
      </trkpt>
      <trkpt lat="42.363979" lon="-4.870688">
        <ele>873</ele>
        <time>2018-07-23T05:55:47.990Z</time>
      </trkpt>
      <trkpt lat="42.364105" lon="-4.870725">
        <ele>873</ele>
        <time>2018-07-23T05:55:50.990Z</time>
      </trkpt>
      <trkpt lat="42.364226" lon="-4.870774">
        <ele>873</ele>
        <time>2018-07-23T05:55:53.990Z</time>
      </trkpt>
      <trkpt lat="42.364343" lon="-4.870812">
        <ele>873</ele>
        <time>2018-07-23T05:55:56.990Z</time>
      </trkpt>
      <trkpt lat="42.364427" lon="-4.870866">
        <ele>874</ele>
        <time>2018-07-23T05:55:59.970Z</time>
      </trkpt>
      <trkpt lat="42.364489" lon="-4.870984">
        <ele>874</ele>
        <time>2018-07-23T05:56:05.000Z</time>
      </trkpt>
      <trkpt lat="42.364546" lon="-4.871122">
        <ele>874</ele>
        <time>2018-07-23T05:56:10.000Z</time>
      </trkpt>
      <trkpt lat="42.364607" lon="-4.871247">
        <ele>874</ele>
        <time>2018-07-23T05:56:13.990Z</time>
      </trkpt>
      <trkpt lat="42.364654" lon="-4.871355">
        <ele>874</ele>
        <time>2018-07-23T05:56:16.990Z</time>
      </trkpt>
      <trkpt lat="42.364703" lon="-4.871478">
        <ele>874</ele>
        <time>2018-07-23T05:56:20.000Z</time>
      </trkpt>
      <trkpt lat="42.364748" lon="-4.871616">
        <ele>874.3299968</ele>
        <time>2018-07-23T05:56:23.000Z</time>
      </trkpt>
      <trkpt lat="42.3648" lon="-4.871741">
        <ele>875</ele>
        <time>2018-07-23T05:56:25.990Z</time>
      </trkpt>
      <trkpt lat="42.364848" lon="-4.871859">
        <ele>875</ele>
        <time>2018-07-23T05:56:29.000Z</time>
      </trkpt>
      <trkpt lat="42.364882" lon="-4.871979">
        <ele>876</ele>
        <time>2018-07-23T05:56:31.990Z</time>
      </trkpt>
      <trkpt lat="42.364928" lon="-4.872104">
        <ele>876</ele>
        <time>2018-07-23T05:56:34.990Z</time>
      </trkpt>
      <trkpt lat="42.36498" lon="-4.872243">
        <ele>877</ele>
        <time>2018-07-23T05:56:37.990Z</time>
      </trkpt>
      <trkpt lat="42.365035" lon="-4.87237">
        <ele>877.32</ele>
        <time>2018-07-23T05:56:40.990Z</time>
      </trkpt>
      <trkpt lat="42.365083" lon="-4.872491">
        <ele>878.042861322411</ele>
        <time>2018-07-23T05:56:44.000Z</time>
      </trkpt>
      <trkpt lat="42.365129" lon="-4.87262">
        <ele>879</ele>
        <time>2018-07-23T05:56:46.990Z</time>
      </trkpt>
      <trkpt lat="42.365174" lon="-4.87275">
        <ele>879</ele>
        <time>2018-07-23T05:56:49.990Z</time>
      </trkpt>
      <trkpt lat="42.36521" lon="-4.872875">
        <ele>880</ele>
        <time>2018-07-23T05:56:52.990Z</time>
      </trkpt>
      <trkpt lat="42.365257" lon="-4.872994">
        <ele>881</ele>
        <time>2018-07-23T05:56:55.990Z</time>
      </trkpt>
      <trkpt lat="42.36531" lon="-4.873114">
        <ele>881</ele>
        <time>2018-07-23T05:56:59.000Z</time>
      </trkpt>
      <trkpt lat="42.365365" lon="-4.873237">
        <ele>881</ele>
        <time>2018-07-23T05:57:01.990Z</time>
      </trkpt>
      <trkpt lat="42.365405" lon="-4.87336">
        <ele>882</ele>
        <time>2018-07-23T05:57:04.990Z</time>
      </trkpt>
      <trkpt lat="42.365455" lon="-4.873485">
        <ele>882</ele>
        <time>2018-07-23T05:57:07.990Z</time>
      </trkpt>
      <trkpt lat="42.365509" lon="-4.873622">
        <ele>882</ele>
        <time>2018-07-23T05:57:10.990Z</time>
      </trkpt>
      <trkpt lat="42.365573" lon="-4.873764">
        <ele>882</ele>
        <time>2018-07-23T05:57:14.000Z</time>
      </trkpt>
      <trkpt lat="42.365632" lon="-4.873912">
        <ele>882</ele>
        <time>2018-07-23T05:57:16.990Z</time>
      </trkpt>
      <trkpt lat="42.36569" lon="-4.87406">
        <ele>882</ele>
        <time>2018-07-23T05:57:19.990Z</time>
      </trkpt>
      <trkpt lat="42.365738" lon="-4.874187">
        <ele>882</ele>
        <time>2018-07-23T05:57:22.990Z</time>
      </trkpt>
      <trkpt lat="42.365786" lon="-4.874329">
        <ele>882</ele>
        <time>2018-07-23T05:57:25.990Z</time>
      </trkpt>
      <trkpt lat="42.365821" lon="-4.874497">
        <ele>882</ele>
        <time>2018-07-23T05:57:29.000Z</time>
      </trkpt>
      <trkpt lat="42.365865" lon="-4.874661">
        <ele>882</ele>
        <time>2018-07-23T05:57:31.990Z</time>
      </trkpt>
      <trkpt lat="42.365899" lon="-4.874826">
        <ele>882</ele>
        <time>2018-07-23T05:57:34.990Z</time>
      </trkpt>
      <trkpt lat="42.365928" lon="-4.874988">
        <ele>882</ele>
        <time>2018-07-23T05:57:37.990Z</time>
      </trkpt>
      <trkpt lat="42.365963" lon="-4.875131">
        <ele>883</ele>
        <time>2018-07-23T05:57:40.990Z</time>
      </trkpt>
      <trkpt lat="42.365965" lon="-4.875288">
        <ele>883.3299968</ele>
        <time>2018-07-23T05:57:44.000Z</time>
      </trkpt>
      <trkpt lat="42.365966" lon="-4.875449">
        <ele>884.316832686995</ele>
        <time>2018-07-23T05:57:46.990Z</time>
      </trkpt>
      <trkpt lat="42.365962" lon="-4.875617">
        <ele>885.0200064</ele>
        <time>2018-07-23T05:57:49.990Z</time>
      </trkpt>
      <trkpt lat="42.365949" lon="-4.875789">
        <ele>886</ele>
        <time>2018-07-23T05:57:52.990Z</time>
      </trkpt>
      <trkpt lat="42.365929" lon="-4.875956">
        <ele>887</ele>
        <time>2018-07-23T05:57:55.990Z</time>
      </trkpt>
      <trkpt lat="42.365915" lon="-4.876114">
        <ele>887</ele>
        <time>2018-07-23T05:57:59.000Z</time>
      </trkpt>
      <trkpt lat="42.365897" lon="-4.876279">
        <ele>888</ele>
        <time>2018-07-23T05:58:01.990Z</time>
      </trkpt>
      <trkpt lat="42.365879" lon="-4.87645">
        <ele>888</ele>
        <time>2018-07-23T05:58:04.990Z</time>
      </trkpt>
      <trkpt lat="42.36586" lon="-4.876625">
        <ele>888</ele>
        <time>2018-07-23T05:58:07.990Z</time>
      </trkpt>
      <trkpt lat="42.36584" lon="-4.876797">
        <ele>888</ele>
        <time>2018-07-23T05:58:10.990Z</time>
      </trkpt>
      <trkpt lat="42.365814" lon="-4.876976">
        <ele>888</ele>
        <time>2018-07-23T05:58:14.000Z</time>
      </trkpt>
      <trkpt lat="42.365795" lon="-4.87714">
        <ele>888</ele>
        <time>2018-07-23T05:58:16.990Z</time>
      </trkpt>
      <trkpt lat="42.365781" lon="-4.877266">
        <ele>887.6700032</ele>
        <time>2018-07-23T05:58:19.000Z</time>
      </trkpt>
      <trkpt lat="42.365783" lon="-4.877388">
        <ele>887</ele>
        <time>2018-07-23T05:58:20.990Z</time>
      </trkpt>
      <trkpt lat="42.365776" lon="-4.877556">
        <ele>887</ele>
        <time>2018-07-23T05:58:24.000Z</time>
      </trkpt>
      <trkpt lat="42.365752" lon="-4.877679">
        <ele>887</ele>
        <time>2018-07-23T05:58:25.990Z</time>
      </trkpt>
      <trkpt lat="42.365729" lon="-4.877846">
        <ele>887</ele>
        <time>2018-07-23T05:58:29.000Z</time>
      </trkpt>
      <trkpt lat="42.365706" lon="-4.878005">
        <ele>887</ele>
        <time>2018-07-23T05:58:31.990Z</time>
      </trkpt>
      <trkpt lat="42.365686" lon="-4.87816">
        <ele>887.313133533306</ele>
        <time>2018-07-23T05:58:34.990Z</time>
      </trkpt>
      <trkpt lat="42.365669" lon="-4.878306">
        <ele>888</ele>
        <time>2018-07-23T05:58:37.990Z</time>
      </trkpt>
      <trkpt lat="42.365652" lon="-4.878443">
        <ele>889</ele>
        <time>2018-07-23T05:58:40.990Z</time>
      </trkpt>
      <trkpt lat="42.365633" lon="-4.878595">
        <ele>889</ele>
        <time>2018-07-23T05:58:44.000Z</time>
      </trkpt>
      <trkpt lat="42.365608" lon="-4.878753">
        <ele>889</ele>
        <time>2018-07-23T05:58:46.990Z</time>
      </trkpt>
      <trkpt lat="42.365594" lon="-4.878901">
        <ele>889</ele>
        <time>2018-07-23T05:58:49.990Z</time>
      </trkpt>
      <trkpt lat="42.365571" lon="-4.879062">
        <ele>889.028580310123</ele>
        <time>2018-07-23T05:58:52.990Z</time>
      </trkpt>
      <trkpt lat="42.365546" lon="-4.87923">
        <ele>890</ele>
        <time>2018-07-23T05:58:55.990Z</time>
      </trkpt>
      <trkpt lat="42.365526" lon="-4.879402">
        <ele>890</ele>
        <time>2018-07-23T05:58:59.000Z</time>
      </trkpt>
      <trkpt lat="42.365511" lon="-4.87958">
        <ele>890</ele>
        <time>2018-07-23T05:59:01.990Z</time>
      </trkpt>
      <trkpt lat="42.365496" lon="-4.879703">
        <ele>891</ele>
        <time>2018-07-23T05:59:04.000Z</time>
      </trkpt>
      <trkpt lat="42.365484" lon="-4.879829">
        <ele>890.751937369147</ele>
        <time>2018-07-23T05:59:05.990Z</time>
      </trkpt>
      <trkpt lat="42.365471" lon="-4.879952">
        <ele>890</ele>
        <time>2018-07-23T05:59:07.990Z</time>
      </trkpt>
      <trkpt lat="42.365458" lon="-4.880072">
        <ele>890</ele>
        <time>2018-07-23T05:59:09.990Z</time>
      </trkpt>
      <trkpt lat="42.365444" lon="-4.8802">
        <ele>890</ele>
        <time>2018-07-23T05:59:11.990Z</time>
      </trkpt>
      <trkpt lat="42.365423" lon="-4.880327">
        <ele>890</ele>
        <time>2018-07-23T05:59:14.000Z</time>
      </trkpt>
      <trkpt lat="42.365406" lon="-4.880455">
        <ele>890</ele>
        <time>2018-07-23T05:59:15.990Z</time>
      </trkpt>
      <trkpt lat="42.365392" lon="-4.880582">
        <ele>890</ele>
        <time>2018-07-23T05:59:17.990Z</time>
      </trkpt>
      <trkpt lat="42.365374" lon="-4.880708">
        <ele>890.32</ele>
        <time>2018-07-23T05:59:19.990Z</time>
      </trkpt>
      <trkpt lat="42.36536" lon="-4.88083">
        <ele>891</ele>
        <time>2018-07-23T05:59:21.990Z</time>
      </trkpt>
      <trkpt lat="42.365347" lon="-4.880961">
        <ele>891</ele>
        <time>2018-07-23T05:59:24.000Z</time>
      </trkpt>
      <trkpt lat="42.365333" lon="-4.881094">
        <ele>891</ele>
        <time>2018-07-23T05:59:25.990Z</time>
      </trkpt>
      <trkpt lat="42.365317" lon="-4.881224">
        <ele>891</ele>
        <time>2018-07-23T05:59:27.990Z</time>
      </trkpt>
      <trkpt lat="42.365302" lon="-4.88136">
        <ele>891</ele>
        <time>2018-07-23T05:59:29.990Z</time>
      </trkpt>
      <trkpt lat="42.365283" lon="-4.881494">
        <ele>890.693873019605</ele>
        <time>2018-07-23T05:59:31.990Z</time>
      </trkpt>
      <trkpt lat="42.365268" lon="-4.881624">
        <ele>890</ele>
        <time>2018-07-23T05:59:34.000Z</time>
      </trkpt>
      <trkpt lat="42.365256" lon="-4.881759">
        <ele>890</ele>
        <time>2018-07-23T05:59:35.990Z</time>
      </trkpt>
      <trkpt lat="42.365242" lon="-4.88189">
        <ele>890</ele>
        <time>2018-07-23T05:59:37.990Z</time>
      </trkpt>
      <trkpt lat="42.365232" lon="-4.882014">
        <ele>890</ele>
        <time>2018-07-23T05:59:39.990Z</time>
      </trkpt>
      <trkpt lat="42.365228" lon="-4.882143">
        <ele>890</ele>
        <time>2018-07-23T05:59:41.990Z</time>
      </trkpt>
      <trkpt lat="42.365213" lon="-4.882292">
        <ele>890</ele>
        <time>2018-07-23T05:59:44.000Z</time>
      </trkpt>
      <trkpt lat="42.36519" lon="-4.882441">
        <ele>890</ele>
        <time>2018-07-23T05:59:45.990Z</time>
      </trkpt>
      <trkpt lat="42.365171" lon="-4.88259">
        <ele>889</ele>
        <time>2018-07-23T05:59:47.990Z</time>
      </trkpt>
      <trkpt lat="42.365154" lon="-4.882743">
        <ele>888.686272541318</ele>
        <time>2018-07-23T05:59:49.990Z</time>
      </trkpt>
      <trkpt lat="42.365133" lon="-4.882903">
        <ele>888</ele>
        <time>2018-07-23T05:59:51.990Z</time>
      </trkpt>
      <trkpt lat="42.365112" lon="-4.883058">
        <ele>888</ele>
        <time>2018-07-23T05:59:54.000Z</time>
      </trkpt>
      <trkpt lat="42.365096" lon="-4.883216">
        <ele>888</ele>
        <time>2018-07-23T05:59:55.990Z</time>
      </trkpt>
      <trkpt lat="42.365075" lon="-4.883377">
        <ele>887</ele>
        <time>2018-07-23T05:59:57.990Z</time>
      </trkpt>
      <trkpt lat="42.365054" lon="-4.883547">
        <ele>887</ele>
        <time>2018-07-23T05:59:59.990Z</time>
      </trkpt>
      <trkpt lat="42.365034" lon="-4.883718">
        <ele>886</ele>
        <time>2018-07-23T06:00:01.990Z</time>
      </trkpt>
      <trkpt lat="42.36501" lon="-4.883897">
        <ele>886</ele>
        <time>2018-07-23T06:00:04.000Z</time>
      </trkpt>
      <trkpt lat="42.364992" lon="-4.884066">
        <ele>886</ele>
        <time>2018-07-23T06:00:05.990Z</time>
      </trkpt>
      <trkpt lat="42.364973" lon="-4.884224">
        <ele>886</ele>
        <time>2018-07-23T06:00:08.000Z</time>
      </trkpt>
      <trkpt lat="42.364945" lon="-4.884387">
        <ele>886</ele>
        <time>2018-07-23T06:00:10.000Z</time>
      </trkpt>
      <trkpt lat="42.36492" lon="-4.884557">
        <ele>886</ele>
        <time>2018-07-23T06:00:12.000Z</time>
      </trkpt>
      <trkpt lat="42.364896" lon="-4.884723">
        <ele>886</ele>
        <time>2018-07-23T06:00:14.000Z</time>
      </trkpt>
      <trkpt lat="42.364878" lon="-4.884883">
        <ele>886</ele>
        <time>2018-07-23T06:00:16.000Z</time>
      </trkpt>
      <trkpt lat="42.364858" lon="-4.885037">
        <ele>886</ele>
        <time>2018-07-23T06:00:18.000Z</time>
      </trkpt>
      <trkpt lat="42.364843" lon="-4.885177">
        <ele>886</ele>
        <time>2018-07-23T06:00:20.000Z</time>
      </trkpt>
      <trkpt lat="42.364832" lon="-4.885314">
        <ele>886</ele>
        <time>2018-07-23T06:00:22.000Z</time>
      </trkpt>
      <trkpt lat="42.364824" lon="-4.885444">
        <ele>886.3299968</ele>
        <time>2018-07-23T06:00:24.000Z</time>
      </trkpt>
      <trkpt lat="42.364818" lon="-4.885568">
        <ele>887</ele>
        <time>2018-07-23T06:00:26.000Z</time>
      </trkpt>
      <trkpt lat="42.364806" lon="-4.885749">
        <ele>887</ele>
        <time>2018-07-23T06:00:29.000Z</time>
      </trkpt>
      <trkpt lat="42.364796" lon="-4.885876">
        <ele>887</ele>
        <time>2018-07-23T06:00:31.000Z</time>
      </trkpt>
      <trkpt lat="42.364784" lon="-4.886015">
        <ele>887</ele>
        <time>2018-07-23T06:00:33.000Z</time>
      </trkpt>
      <trkpt lat="42.364766" lon="-4.886154">
        <ele>887</ele>
        <time>2018-07-23T06:00:35.000Z</time>
      </trkpt>
      <trkpt lat="42.364754" lon="-4.886291">
        <ele>886</ele>
        <time>2018-07-23T06:00:37.000Z</time>
      </trkpt>
      <trkpt lat="42.364738" lon="-4.88642">
        <ele>887</ele>
        <time>2018-07-23T06:00:39.000Z</time>
      </trkpt>
      <trkpt lat="42.364726" lon="-4.886548">
        <ele>887</ele>
        <time>2018-07-23T06:00:41.000Z</time>
      </trkpt>
      <trkpt lat="42.36471" lon="-4.88668">
        <ele>887</ele>
        <time>2018-07-23T06:00:43.000Z</time>
      </trkpt>
      <trkpt lat="42.364694" lon="-4.886811">
        <ele>887</ele>
        <time>2018-07-23T06:00:45.000Z</time>
      </trkpt>
      <trkpt lat="42.364678" lon="-4.886938">
        <ele>887</ele>
        <time>2018-07-23T06:00:47.000Z</time>
      </trkpt>
      <trkpt lat="42.364662" lon="-4.887061">
        <ele>887</ele>
        <time>2018-07-23T06:00:49.000Z</time>
      </trkpt>
      <trkpt lat="42.364636" lon="-4.887239">
        <ele>887</ele>
        <time>2018-07-23T06:00:52.000Z</time>
      </trkpt>
      <trkpt lat="42.364632" lon="-4.88736">
        <ele>887</ele>
        <time>2018-07-23T06:00:54.000Z</time>
      </trkpt>
      <trkpt lat="42.364654" lon="-4.887528">
        <ele>887</ele>
        <time>2018-07-23T06:00:57.000Z</time>
      </trkpt>
      <trkpt lat="42.364595" lon="-4.887671">
        <ele>887</ele>
        <time>2018-07-23T06:01:00.000Z</time>
      </trkpt>
      <trkpt lat="42.364518" lon="-4.887816">
        <ele>886.6700032</ele>
        <time>2018-07-23T06:01:03.000Z</time>
      </trkpt>
      <trkpt lat="42.364477" lon="-4.887925">
        <ele>886</ele>
        <time>2018-07-23T06:01:05.000Z</time>
      </trkpt>
      <trkpt lat="42.364437" lon="-4.888039">
        <ele>886</ele>
        <time>2018-07-23T06:01:07.000Z</time>
      </trkpt>
      <trkpt lat="42.364392" lon="-4.888168">
        <ele>886</ele>
        <time>2018-07-23T06:01:09.000Z</time>
      </trkpt>
      <trkpt lat="42.364345" lon="-4.888306">
        <ele>886</ele>
        <time>2018-07-23T06:01:10.990Z</time>
      </trkpt>
      <trkpt lat="42.364303" lon="-4.888458">
        <ele>886</ele>
        <time>2018-07-23T06:01:12.990Z</time>
      </trkpt>
      <trkpt lat="42.364274" lon="-4.888608">
        <ele>885.6700032</ele>
        <time>2018-07-23T06:01:15.000Z</time>
      </trkpt>
      <trkpt lat="42.364238" lon="-4.88874">
        <ele>885</ele>
        <time>2018-07-23T06:01:16.990Z</time>
      </trkpt>
      <trkpt lat="42.364197" lon="-4.888878">
        <ele>885</ele>
        <time>2018-07-23T06:01:18.990Z</time>
      </trkpt>
      <trkpt lat="42.364152" lon="-4.888994">
        <ele>884</ele>
        <time>2018-07-23T06:01:20.990Z</time>
      </trkpt>
      <trkpt lat="42.364106" lon="-4.889105">
        <ele>884</ele>
        <time>2018-07-23T06:01:22.990Z</time>
      </trkpt>
      <trkpt lat="42.364037" lon="-4.889212">
        <ele>883.673269459864</ele>
        <time>2018-07-23T06:01:25.000Z</time>
      </trkpt>
      <trkpt lat="42.36396" lon="-4.889321">
        <ele>883.32</ele>
        <time>2018-07-23T06:01:26.990Z</time>
      </trkpt>
      <trkpt lat="42.363881" lon="-4.88942">
        <ele>884</ele>
        <time>2018-07-23T06:01:28.990Z</time>
      </trkpt>
      <trkpt lat="42.363795" lon="-4.889495">
        <ele>883</ele>
        <time>2018-07-23T06:01:30.990Z</time>
      </trkpt>
      <trkpt lat="42.363694" lon="-4.889573">
        <ele>883</ele>
        <time>2018-07-23T06:01:32.990Z</time>
      </trkpt>
      <trkpt lat="42.363577" lon="-4.889666">
        <ele>882.6700032</ele>
        <time>2018-07-23T06:01:35.000Z</time>
      </trkpt>
      <trkpt lat="42.36347" lon="-4.889762">
        <ele>882</ele>
        <time>2018-07-23T06:01:36.990Z</time>
      </trkpt>
      <trkpt lat="42.363368" lon="-4.889863">
        <ele>881</ele>
        <time>2018-07-23T06:01:38.990Z</time>
      </trkpt>
      <trkpt lat="42.363263" lon="-4.889966">
        <ele>881</ele>
        <time>2018-07-23T06:01:40.990Z</time>
      </trkpt>
      <trkpt lat="42.363184" lon="-4.890085">
        <ele>880.68</ele>
        <time>2018-07-23T06:01:42.990Z</time>
      </trkpt>
      <trkpt lat="42.36312" lon="-4.890173">
        <ele>880</ele>
        <time>2018-07-23T06:01:45.000Z</time>
      </trkpt>
      <trkpt lat="42.363049" lon="-4.890278">
        <ele>878.68</ele>
        <time>2018-07-23T06:01:47.990Z</time>
      </trkpt>
      <trkpt lat="42.362942" lon="-4.890357">
        <ele>877.686272541318</ele>
        <time>2018-07-23T06:01:50.990Z</time>
      </trkpt>
      <trkpt lat="42.362859" lon="-4.890403">
        <ele>876.68</ele>
        <time>2018-07-23T06:01:52.990Z</time>
      </trkpt>
      <trkpt lat="42.362738" lon="-4.89041">
        <ele>876</ele>
        <time>2018-07-23T06:01:55.000Z</time>
      </trkpt>
      <trkpt lat="42.362622" lon="-4.89043">
        <ele>875.007516409062</ele>
        <time>2018-07-23T06:01:56.990Z</time>
      </trkpt>
      <trkpt lat="42.362513" lon="-4.890558">
        <ele>874.68</ele>
        <time>2018-07-23T06:01:58.990Z</time>
      </trkpt>
      <trkpt lat="42.362409" lon="-4.890694">
        <ele>872.686272541318</ele>
        <time>2018-07-23T06:02:00.990Z</time>
      </trkpt>
      <trkpt lat="42.362319" lon="-4.890842">
        <ele>872</ele>
        <time>2018-07-23T06:02:02.990Z</time>
      </trkpt>
      <trkpt lat="42.362218" lon="-4.890974">
        <ele>872</ele>
        <time>2018-07-23T06:02:05.000Z</time>
      </trkpt>
      <trkpt lat="42.362131" lon="-4.891081">
        <ele>871.68</ele>
        <time>2018-07-23T06:02:06.990Z</time>
      </trkpt>
      <trkpt lat="42.362021" lon="-4.891141">
        <ele>871</ele>
        <time>2018-07-23T06:02:10.000Z</time>
      </trkpt>
      <trkpt lat="42.361917" lon="-4.891142">
        <ele>871</ele>
        <time>2018-07-23T06:02:12.990Z</time>
      </trkpt>
      <trkpt lat="42.362006" lon="-4.891187">
        <ele>872</ele>
        <time>2018-07-23T06:02:28.990Z</time>
      </trkpt>
      <trkpt lat="42.362091" lon="-4.891276">
        <ele>871</ele>
        <time>2018-07-23T06:02:33.990Z</time>
      </trkpt>
      <trkpt lat="42.362185" lon="-4.891304">
        <ele>871</ele>
        <time>2018-07-23T06:02:36.990Z</time>
      </trkpt>
      <trkpt lat="42.362284" lon="-4.89133">
        <ele>871</ele>
        <time>2018-07-23T06:02:40.000Z</time>
      </trkpt>
      <trkpt lat="42.362368" lon="-4.891384">
        <ele>871</ele>
        <time>2018-07-23T06:02:42.990Z</time>
      </trkpt>
      <trkpt lat="42.362438" lon="-4.891474">
        <ele>872</ele>
        <time>2018-07-23T06:02:45.990Z</time>
      </trkpt>
      <trkpt lat="42.362446" lon="-4.891604">
        <ele>872</ele>
        <time>2018-07-23T06:02:48.990Z</time>
      </trkpt>
      <trkpt lat="42.362432" lon="-4.891756">
        <ele>872</ele>
        <time>2018-07-23T06:02:51.990Z</time>
      </trkpt>
      <trkpt lat="42.362424" lon="-4.891897">
        <ele>872</ele>
        <time>2018-07-23T06:02:55.000Z</time>
      </trkpt>
      <trkpt lat="42.362395" lon="-4.89206">
        <ele>872</ele>
        <time>2018-07-23T06:02:57.990Z</time>
      </trkpt>
      <trkpt lat="42.362367" lon="-4.892181">
        <ele>871.6700032</ele>
        <time>2018-07-23T06:03:00.000Z</time>
      </trkpt>
      <trkpt lat="42.362329" lon="-4.892301">
        <ele>871</ele>
        <time>2018-07-23T06:03:01.990Z</time>
      </trkpt>
      <trkpt lat="42.362288" lon="-4.892422">
        <ele>871.32</ele>
        <time>2018-07-23T06:03:03.990Z</time>
      </trkpt>
      <trkpt lat="42.362239" lon="-4.892543">
        <ele>872</ele>
        <time>2018-07-23T06:03:05.990Z</time>
      </trkpt>
      <trkpt lat="42.36219" lon="-4.892664">
        <ele>872</ele>
        <time>2018-07-23T06:03:07.990Z</time>
      </trkpt>
      <trkpt lat="42.362135" lon="-4.892801">
        <ele>871</ele>
        <time>2018-07-23T06:03:10.000Z</time>
      </trkpt>
      <trkpt lat="42.362079" lon="-4.892942">
        <ele>871</ele>
        <time>2018-07-23T06:03:11.990Z</time>
      </trkpt>
      <trkpt lat="42.362022" lon="-4.893092">
        <ele>871</ele>
        <time>2018-07-23T06:03:13.990Z</time>
      </trkpt>
      <trkpt lat="42.36197" lon="-4.893238">
        <ele>870.68</ele>
        <time>2018-07-23T06:03:15.990Z</time>
      </trkpt>
      <trkpt lat="42.361921" lon="-4.893398">
        <ele>870</ele>
        <time>2018-07-23T06:03:17.990Z</time>
      </trkpt>
      <trkpt lat="42.361874" lon="-4.893553">
        <ele>870</ele>
        <time>2018-07-23T06:03:20.000Z</time>
      </trkpt>
      <trkpt lat="42.361822" lon="-4.893722">
        <ele>869.68</ele>
        <time>2018-07-23T06:03:21.990Z</time>
      </trkpt>
      <trkpt lat="42.361774" lon="-4.893886">
        <ele>868.68</ele>
        <time>2018-07-23T06:03:23.990Z</time>
      </trkpt>
      <trkpt lat="42.361719" lon="-4.894056">
        <ele>868</ele>
        <time>2018-07-23T06:03:25.990Z</time>
      </trkpt>
      <trkpt lat="42.36166" lon="-4.894229">
        <ele>868</ele>
        <time>2018-07-23T06:03:27.990Z</time>
      </trkpt>
      <trkpt lat="42.361597" lon="-4.894404">
        <ele>867.6700032</ele>
        <time>2018-07-23T06:03:30.000Z</time>
      </trkpt>
      <trkpt lat="42.36153" lon="-4.89457">
        <ele>867</ele>
        <time>2018-07-23T06:03:31.990Z</time>
      </trkpt>
      <trkpt lat="42.361464" lon="-4.894735">
        <ele>867</ele>
        <time>2018-07-23T06:03:33.990Z</time>
      </trkpt>
      <trkpt lat="42.361395" lon="-4.894898">
        <ele>866.68</ele>
        <time>2018-07-23T06:03:35.990Z</time>
      </trkpt>
      <trkpt lat="42.361328" lon="-4.89506">
        <ele>866</ele>
        <time>2018-07-23T06:03:37.990Z</time>
      </trkpt>
      <trkpt lat="42.361259" lon="-4.895223">
        <ele>866</ele>
        <time>2018-07-23T06:03:40.000Z</time>
      </trkpt>
      <trkpt lat="42.361195" lon="-4.895384">
        <ele>866</ele>
        <time>2018-07-23T06:03:41.990Z</time>
      </trkpt>
      <trkpt lat="42.361141" lon="-4.895553">
        <ele>866</ele>
        <time>2018-07-23T06:03:43.990Z</time>
      </trkpt>
      <trkpt lat="42.361096" lon="-4.895727">
        <ele>865</ele>
        <time>2018-07-23T06:03:45.990Z</time>
      </trkpt>
      <trkpt lat="42.361054" lon="-4.895912">
        <ele>865</ele>
        <time>2018-07-23T06:03:47.990Z</time>
      </trkpt>
      <trkpt lat="42.36102" lon="-4.896094">
        <ele>865</ele>
        <time>2018-07-23T06:03:50.000Z</time>
      </trkpt>
      <trkpt lat="42.360983" lon="-4.89627">
        <ele>865</ele>
        <time>2018-07-23T06:03:51.990Z</time>
      </trkpt>
      <trkpt lat="42.360953" lon="-4.89645">
        <ele>865</ele>
        <time>2018-07-23T06:03:53.990Z</time>
      </trkpt>
      <trkpt lat="42.360918" lon="-4.896635">
        <ele>864.68</ele>
        <time>2018-07-23T06:03:55.990Z</time>
      </trkpt>
      <trkpt lat="42.360883" lon="-4.896818">
        <ele>864</ele>
        <time>2018-07-23T06:03:57.990Z</time>
      </trkpt>
      <trkpt lat="42.360849" lon="-4.897008">
        <ele>864</ele>
        <time>2018-07-23T06:04:00.000Z</time>
      </trkpt>
      <trkpt lat="42.360817" lon="-4.89719">
        <ele>864</ele>
        <time>2018-07-23T06:04:01.990Z</time>
      </trkpt>
      <trkpt lat="42.36079" lon="-4.897374">
        <ele>864</ele>
        <time>2018-07-23T06:04:03.990Z</time>
      </trkpt>
      <trkpt lat="42.36076" lon="-4.897548">
        <ele>864</ele>
        <time>2018-07-23T06:04:05.990Z</time>
      </trkpt>
      <trkpt lat="42.360731" lon="-4.897722">
        <ele>863.007516409062</ele>
        <time>2018-07-23T06:04:07.990Z</time>
      </trkpt>
      <trkpt lat="42.360696" lon="-4.897897">
        <ele>863</ele>
        <time>2018-07-23T06:04:10.000Z</time>
      </trkpt>
      <trkpt lat="42.360662" lon="-4.89807">
        <ele>863</ele>
        <time>2018-07-23T06:04:11.990Z</time>
      </trkpt>
      <trkpt lat="42.360627" lon="-4.898258">
        <ele>862</ele>
        <time>2018-07-23T06:04:13.990Z</time>
      </trkpt>
      <trkpt lat="42.360604" lon="-4.898456">
        <ele>862</ele>
        <time>2018-07-23T06:04:15.990Z</time>
      </trkpt>
      <trkpt lat="42.360596" lon="-4.898652">
        <ele>862</ele>
        <time>2018-07-23T06:04:17.990Z</time>
      </trkpt>
      <trkpt lat="42.360599" lon="-4.898838">
        <ele>861</ele>
        <time>2018-07-23T06:04:20.000Z</time>
      </trkpt>
      <trkpt lat="42.360601" lon="-4.899016">
        <ele>861</ele>
        <time>2018-07-23T06:04:21.990Z</time>
      </trkpt>
      <trkpt lat="42.360598" lon="-4.899192">
        <ele>861</ele>
        <time>2018-07-23T06:04:23.990Z</time>
      </trkpt>
      <trkpt lat="42.360589" lon="-4.899364">
        <ele>861</ele>
        <time>2018-07-23T06:04:25.990Z</time>
      </trkpt>
      <trkpt lat="42.360572" lon="-4.899541">
        <ele>861</ele>
        <time>2018-07-23T06:04:27.990Z</time>
      </trkpt>
      <trkpt lat="42.360546" lon="-4.899722">
        <ele>861</ele>
        <time>2018-07-23T06:04:30.000Z</time>
      </trkpt>
      <trkpt lat="42.360514" lon="-4.899901">
        <ele>860</ele>
        <time>2018-07-23T06:04:31.990Z</time>
      </trkpt>
      <trkpt lat="42.36049" lon="-4.900075">
        <ele>859.686866466694</ele>
        <time>2018-07-23T06:04:33.990Z</time>
      </trkpt>
      <trkpt lat="42.360457" lon="-4.90025">
        <ele>859</ele>
        <time>2018-07-23T06:04:35.990Z</time>
      </trkpt>
      <trkpt lat="42.360428" lon="-4.90042">
        <ele>859</ele>
        <time>2018-07-23T06:04:37.990Z</time>
      </trkpt>
      <trkpt lat="42.360396" lon="-4.900584">
        <ele>859</ele>
        <time>2018-07-23T06:04:40.000Z</time>
      </trkpt>
      <trkpt lat="42.360373" lon="-4.900753">
        <ele>859</ele>
        <time>2018-07-23T06:04:41.990Z</time>
      </trkpt>
      <trkpt lat="42.360358" lon="-4.900921">
        <ele>858</ele>
        <time>2018-07-23T06:04:43.990Z</time>
      </trkpt>
      <trkpt lat="42.360352" lon="-4.901075">
        <ele>858</ele>
        <time>2018-07-23T06:04:45.990Z</time>
      </trkpt>
      <trkpt lat="42.360342" lon="-4.901235">
        <ele>857</ele>
        <time>2018-07-23T06:04:47.990Z</time>
      </trkpt>
      <trkpt lat="42.360338" lon="-4.901393">
        <ele>857</ele>
        <time>2018-07-23T06:04:50.000Z</time>
      </trkpt>
      <trkpt lat="42.360331" lon="-4.90156">
        <ele>856.32</ele>
        <time>2018-07-23T06:04:51.990Z</time>
      </trkpt>
      <trkpt lat="42.360321" lon="-4.901746">
        <ele>857</ele>
        <time>2018-07-23T06:04:53.990Z</time>
      </trkpt>
      <trkpt lat="42.360323" lon="-4.901942">
        <ele>856</ele>
        <time>2018-07-23T06:04:55.990Z</time>
      </trkpt>
      <trkpt lat="42.360335" lon="-4.902117">
        <ele>856</ele>
        <time>2018-07-23T06:04:57.990Z</time>
      </trkpt>
      <trkpt lat="42.360339" lon="-4.902298">
        <ele>856</ele>
        <time>2018-07-23T06:05:00.000Z</time>
      </trkpt>
      <trkpt lat="42.360345" lon="-4.902469">
        <ele>856</ele>
        <time>2018-07-23T06:05:01.990Z</time>
      </trkpt>
      <trkpt lat="42.360362" lon="-4.902631">
        <ele>856</ele>
        <time>2018-07-23T06:05:03.990Z</time>
      </trkpt>
      <trkpt lat="42.360389" lon="-4.902804">
        <ele>856</ele>
        <time>2018-07-23T06:05:05.990Z</time>
      </trkpt>
      <trkpt lat="42.360428" lon="-4.902967">
        <ele>855.944444444444</ele>
        <time>2018-07-23T06:05:07.990Z</time>
      </trkpt>
      <trkpt lat="42.360469" lon="-4.903128">
        <ele>855</ele>
        <time>2018-07-23T06:05:10.000Z</time>
      </trkpt>
      <trkpt lat="42.360511" lon="-4.903274">
        <ele>855</ele>
        <time>2018-07-23T06:05:11.990Z</time>
      </trkpt>
      <trkpt lat="42.360555" lon="-4.903435">
        <ele>855</ele>
        <time>2018-07-23T06:05:13.990Z</time>
      </trkpt>
      <trkpt lat="42.360595" lon="-4.903593">
        <ele>855</ele>
        <time>2018-07-23T06:05:15.990Z</time>
      </trkpt>
      <trkpt lat="42.360637" lon="-4.903751">
        <ele>854</ele>
        <time>2018-07-23T06:05:17.990Z</time>
      </trkpt>
      <trkpt lat="42.360678" lon="-4.903905">
        <ele>853.6700032</ele>
        <time>2018-07-23T06:05:20.000Z</time>
      </trkpt>
      <trkpt lat="42.360734" lon="-4.904053">
        <ele>853</ele>
        <time>2018-07-23T06:05:21.990Z</time>
      </trkpt>
      <trkpt lat="42.360794" lon="-4.904195">
        <ele>853</ele>
        <time>2018-07-23T06:05:23.990Z</time>
      </trkpt>
      <trkpt lat="42.36086" lon="-4.904333">
        <ele>853</ele>
        <time>2018-07-23T06:05:25.990Z</time>
      </trkpt>
      <trkpt lat="42.360921" lon="-4.904479">
        <ele>852</ele>
        <time>2018-07-23T06:05:27.990Z</time>
      </trkpt>
      <trkpt lat="42.360989" lon="-4.904625">
        <ele>852</ele>
        <time>2018-07-23T06:05:30.000Z</time>
      </trkpt>
      <trkpt lat="42.361058" lon="-4.904767">
        <ele>851.32</ele>
        <time>2018-07-23T06:05:31.990Z</time>
      </trkpt>
      <trkpt lat="42.361123" lon="-4.904904">
        <ele>851.957742162289</ele>
        <time>2018-07-23T06:05:33.990Z</time>
      </trkpt>
      <trkpt lat="42.361188" lon="-4.905039">
        <ele>851</ele>
        <time>2018-07-23T06:05:35.990Z</time>
      </trkpt>
      <trkpt lat="42.361255" lon="-4.905169">
        <ele>851</ele>
        <time>2018-07-23T06:05:37.990Z</time>
      </trkpt>
      <trkpt lat="42.361313" lon="-4.905295">
        <ele>851</ele>
        <time>2018-07-23T06:05:40.000Z</time>
      </trkpt>
      <trkpt lat="42.361336" lon="-4.905464">
        <ele>851</ele>
        <time>2018-07-23T06:05:42.990Z</time>
      </trkpt>
      <trkpt lat="42.36129" lon="-4.905621">
        <ele>851</ele>
        <time>2018-07-23T06:05:45.990Z</time>
      </trkpt>
      <trkpt lat="42.361234" lon="-4.905726">
        <ele>851</ele>
        <time>2018-07-23T06:05:47.990Z</time>
      </trkpt>
      <trkpt lat="42.361175" lon="-4.905843">
        <ele>851</ele>
        <time>2018-07-23T06:05:50.000Z</time>
      </trkpt>
      <trkpt lat="42.361122" lon="-4.905977">
        <ele>850</ele>
        <time>2018-07-23T06:05:51.990Z</time>
      </trkpt>
      <trkpt lat="42.361065" lon="-4.906104">
        <ele>850</ele>
        <time>2018-07-23T06:05:53.990Z</time>
      </trkpt>
      <trkpt lat="42.361001" lon="-4.906232">
        <ele>850</ele>
        <time>2018-07-23T06:05:55.990Z</time>
      </trkpt>
      <trkpt lat="42.360943" lon="-4.906364">
        <ele>850</ele>
        <time>2018-07-23T06:05:57.990Z</time>
      </trkpt>
      <trkpt lat="42.360889" lon="-4.906499">
        <ele>850</ele>
        <time>2018-07-23T06:06:00.000Z</time>
      </trkpt>
      <trkpt lat="42.360834" lon="-4.906614">
        <ele>850</ele>
        <time>2018-07-23T06:06:01.990Z</time>
      </trkpt>
      <trkpt lat="42.360764" lon="-4.906747">
        <ele>850</ele>
        <time>2018-07-23T06:06:03.990Z</time>
      </trkpt>
      <trkpt lat="42.360696" lon="-4.906892">
        <ele>850</ele>
        <time>2018-07-23T06:06:05.990Z</time>
      </trkpt>
      <trkpt lat="42.360624" lon="-4.907042">
        <ele>850</ele>
        <time>2018-07-23T06:06:07.990Z</time>
      </trkpt>
      <trkpt lat="42.360553" lon="-4.907195">
        <ele>850</ele>
        <time>2018-07-23T06:06:10.000Z</time>
      </trkpt>
      <trkpt lat="42.36049" lon="-4.907347">
        <ele>850</ele>
        <time>2018-07-23T06:06:11.990Z</time>
      </trkpt>
      <trkpt lat="42.360426" lon="-4.907507">
        <ele>849</ele>
        <time>2018-07-23T06:06:13.990Z</time>
      </trkpt>
      <trkpt lat="42.360356" lon="-4.907663">
        <ele>849</ele>
        <time>2018-07-23T06:06:15.990Z</time>
      </trkpt>
      <trkpt lat="42.36029" lon="-4.907815">
        <ele>849</ele>
        <time>2018-07-23T06:06:17.990Z</time>
      </trkpt>
      <trkpt lat="42.36022" lon="-4.907966">
        <ele>849</ele>
        <time>2018-07-23T06:06:20.000Z</time>
      </trkpt>
      <trkpt lat="42.360146" lon="-4.908116">
        <ele>849</ele>
        <time>2018-07-23T06:06:21.990Z</time>
      </trkpt>
      <trkpt lat="42.360078" lon="-4.90827">
        <ele>849</ele>
        <time>2018-07-23T06:06:23.990Z</time>
      </trkpt>
      <trkpt lat="42.360006" lon="-4.90843">
        <ele>849</ele>
        <time>2018-07-23T06:06:25.990Z</time>
      </trkpt>
      <trkpt lat="42.359934" lon="-4.908596">
        <ele>849</ele>
        <time>2018-07-23T06:06:27.990Z</time>
      </trkpt>
      <trkpt lat="42.359856" lon="-4.908763">
        <ele>849</ele>
        <time>2018-07-23T06:06:30.000Z</time>
      </trkpt>
      <trkpt lat="42.359787" lon="-4.908913">
        <ele>849</ele>
        <time>2018-07-23T06:06:31.990Z</time>
      </trkpt>
      <trkpt lat="42.35971" lon="-4.909056">
        <ele>849</ele>
        <time>2018-07-23T06:06:33.990Z</time>
      </trkpt>
      <trkpt lat="42.359624" lon="-4.909186">
        <ele>849</ele>
        <time>2018-07-23T06:06:35.990Z</time>
      </trkpt>
      <trkpt lat="42.35952" lon="-4.909304">
        <ele>849</ele>
        <time>2018-07-23T06:06:37.990Z</time>
      </trkpt>
      <trkpt lat="42.359408" lon="-4.909417">
        <ele>849</ele>
        <time>2018-07-23T06:06:40.000Z</time>
      </trkpt>
      <trkpt lat="42.35929" lon="-4.90951">
        <ele>848.763775083401</ele>
        <time>2018-07-23T06:06:41.990Z</time>
      </trkpt>
      <trkpt lat="42.359182" lon="-4.909618">
        <ele>848</ele>
        <time>2018-07-23T06:06:43.990Z</time>
      </trkpt>
      <trkpt lat="42.359114" lon="-4.909751">
        <ele>847.68</ele>
        <time>2018-07-23T06:06:45.990Z</time>
      </trkpt>
      <trkpt lat="42.359078" lon="-4.909946">
        <ele>847</ele>
        <time>2018-07-23T06:06:47.990Z</time>
      </trkpt>
      <trkpt lat="42.359072" lon="-4.910069">
        <ele>846.68</ele>
        <time>2018-07-23T06:06:48.990Z</time>
      </trkpt>
      <trkpt lat="42.359108" lon="-4.910298">
        <ele>844.68</ele>
        <time>2018-07-23T06:06:50.990Z</time>
      </trkpt>
      <trkpt lat="42.359178" lon="-4.910504">
        <ele>842.957742162289</ele>
        <time>2018-07-23T06:06:52.990Z</time>
      </trkpt>
      <trkpt lat="42.359262" lon="-4.910712">
        <ele>842</ele>
        <time>2018-07-23T06:06:55.000Z</time>
      </trkpt>
      <trkpt lat="42.359335" lon="-4.910913">
        <ele>841</ele>
        <time>2018-07-23T06:06:56.990Z</time>
      </trkpt>
      <trkpt lat="42.359398" lon="-4.911095">
        <ele>840.985493535162</ele>
        <time>2018-07-23T06:06:58.990Z</time>
      </trkpt>
      <trkpt lat="42.359398" lon="-4.911283">
        <ele>840</ele>
        <time>2018-07-23T06:07:00.990Z</time>
      </trkpt>
      <trkpt lat="42.359351" lon="-4.911465">
        <ele>840.32</ele>
        <time>2018-07-23T06:07:02.990Z</time>
      </trkpt>
      <trkpt lat="42.359306" lon="-4.911634">
        <ele>841.3299968</ele>
        <time>2018-07-23T06:07:05.000Z</time>
      </trkpt>
      <trkpt lat="42.359269" lon="-4.911806">
        <ele>842</ele>
        <time>2018-07-23T06:07:06.990Z</time>
      </trkpt>
      <trkpt lat="42.359262" lon="-4.911977">
        <ele>843</ele>
        <time>2018-07-23T06:07:08.990Z</time>
      </trkpt>
      <trkpt lat="42.359277" lon="-4.912156">
        <ele>843</ele>
        <time>2018-07-23T06:07:10.990Z</time>
      </trkpt>
      <trkpt lat="42.359297" lon="-4.912335">
        <ele>842</ele>
        <time>2018-07-23T06:07:12.990Z</time>
      </trkpt>
      <trkpt lat="42.359321" lon="-4.912521">
        <ele>840.985298823529</ele>
        <time>2018-07-23T06:07:15.000Z</time>
      </trkpt>
      <trkpt lat="42.359366" lon="-4.912683">
        <ele>840</ele>
        <time>2018-07-23T06:07:16.990Z</time>
      </trkpt>
      <trkpt lat="42.359431" lon="-4.912837">
        <ele>840</ele>
        <time>2018-07-23T06:07:18.990Z</time>
      </trkpt>
      <trkpt lat="42.359498" lon="-4.912974">
        <ele>840</ele>
        <time>2018-07-23T06:07:20.990Z</time>
      </trkpt>
      <trkpt lat="42.359571" lon="-4.913115">
        <ele>840.32</ele>
        <time>2018-07-23T06:07:22.990Z</time>
      </trkpt>
      <trkpt lat="42.359626" lon="-4.913239">
        <ele>841</ele>
        <time>2018-07-23T06:07:25.000Z</time>
      </trkpt>
      <trkpt lat="42.359673" lon="-4.913359">
        <ele>842</ele>
        <time>2018-07-23T06:07:26.990Z</time>
      </trkpt>
      <trkpt lat="42.359709" lon="-4.91348">
        <ele>842</ele>
        <time>2018-07-23T06:07:28.990Z</time>
      </trkpt>
      <trkpt lat="42.359736" lon="-4.913601">
        <ele>843</ele>
        <time>2018-07-23T06:07:30.990Z</time>
      </trkpt>
      <trkpt lat="42.35977" lon="-4.913718">
        <ele>843</ele>
        <time>2018-07-23T06:07:32.990Z</time>
      </trkpt>
      <trkpt lat="42.359798" lon="-4.913843">
        <ele>843</ele>
        <time>2018-07-23T06:07:35.000Z</time>
      </trkpt>
      <trkpt lat="42.359834" lon="-4.913961">
        <ele>844</ele>
        <time>2018-07-23T06:07:36.990Z</time>
      </trkpt>
      <trkpt lat="42.359871" lon="-4.914079">
        <ele>844</ele>
        <time>2018-07-23T06:07:38.990Z</time>
      </trkpt>
      <trkpt lat="42.359912" lon="-4.914191">
        <ele>844</ele>
        <time>2018-07-23T06:07:40.990Z</time>
      </trkpt>
      <trkpt lat="42.35995" lon="-4.914313">
        <ele>844</ele>
        <time>2018-07-23T06:07:42.990Z</time>
      </trkpt>
      <trkpt lat="42.359994" lon="-4.914425">
        <ele>844</ele>
        <time>2018-07-23T06:07:45.000Z</time>
      </trkpt>
      <trkpt lat="42.360046" lon="-4.914532">
        <ele>844</ele>
        <time>2018-07-23T06:07:46.990Z</time>
      </trkpt>
      <trkpt lat="42.360092" lon="-4.914641">
        <ele>844</ele>
        <time>2018-07-23T06:07:48.990Z</time>
      </trkpt>
      <trkpt lat="42.360126" lon="-4.914759">
        <ele>845</ele>
        <time>2018-07-23T06:07:50.990Z</time>
      </trkpt>
      <trkpt lat="42.360192" lon="-4.914917">
        <ele>845</ele>
        <time>2018-07-23T06:07:53.990Z</time>
      </trkpt>
      <trkpt lat="42.360235" lon="-4.915032">
        <ele>845.32</ele>
        <time>2018-07-23T06:07:55.990Z</time>
      </trkpt>
      <trkpt lat="42.360268" lon="-4.915157">
        <ele>846</ele>
        <time>2018-07-23T06:07:57.990Z</time>
      </trkpt>
      <trkpt lat="42.360308" lon="-4.915282">
        <ele>846</ele>
        <time>2018-07-23T06:08:00.000Z</time>
      </trkpt>
      <trkpt lat="42.36036" lon="-4.915404">
        <ele>846.042257837711</ele>
        <time>2018-07-23T06:08:01.990Z</time>
      </trkpt>
      <trkpt lat="42.360409" lon="-4.915511">
        <ele>847</ele>
        <time>2018-07-23T06:08:03.990Z</time>
      </trkpt>
      <trkpt lat="42.360479" lon="-4.915645">
        <ele>847</ele>
        <time>2018-07-23T06:08:06.990Z</time>
      </trkpt>
      <trkpt lat="42.36054" lon="-4.915787">
        <ele>848.323528304491</ele>
        <time>2018-07-23T06:08:10.000Z</time>
      </trkpt>
      <trkpt lat="42.360596" lon="-4.915937">
        <ele>849</ele>
        <time>2018-07-23T06:08:12.990Z</time>
      </trkpt>
      <trkpt lat="42.360649" lon="-4.9161">
        <ele>849</ele>
        <time>2018-07-23T06:08:15.990Z</time>
      </trkpt>
      <trkpt lat="42.360685" lon="-4.916273">
        <ele>850</ele>
        <time>2018-07-23T06:08:18.990Z</time>
      </trkpt>
      <trkpt lat="42.360725" lon="-4.916442">
        <ele>850</ele>
        <time>2018-07-23T06:08:21.990Z</time>
      </trkpt>
      <trkpt lat="42.360766" lon="-4.9166">
        <ele>851</ele>
        <time>2018-07-23T06:08:25.000Z</time>
      </trkpt>
      <trkpt lat="42.360804" lon="-4.916755">
        <ele>851</ele>
        <time>2018-07-23T06:08:27.990Z</time>
      </trkpt>
      <trkpt lat="42.360837" lon="-4.916911">
        <ele>852</ele>
        <time>2018-07-23T06:08:30.990Z</time>
      </trkpt>
      <trkpt lat="42.360869" lon="-4.917076">
        <ele>852</ele>
        <time>2018-07-23T06:08:33.990Z</time>
      </trkpt>
      <trkpt lat="42.360883" lon="-4.917254">
        <ele>852</ele>
        <time>2018-07-23T06:08:36.990Z</time>
      </trkpt>
      <trkpt lat="42.360881" lon="-4.917428">
        <ele>853</ele>
        <time>2018-07-23T06:08:40.000Z</time>
      </trkpt>
      <trkpt lat="42.360878" lon="-4.917595">
        <ele>853</ele>
        <time>2018-07-23T06:08:42.990Z</time>
      </trkpt>
      <trkpt lat="42.360872" lon="-4.917757">
        <ele>853.32</ele>
        <time>2018-07-23T06:08:45.990Z</time>
      </trkpt>
      <trkpt lat="42.360861" lon="-4.917915">
        <ele>854</ele>
        <time>2018-07-23T06:08:48.990Z</time>
      </trkpt>
      <trkpt lat="42.36085" lon="-4.918064">
        <ele>856</ele>
        <time>2018-07-23T06:08:51.990Z</time>
      </trkpt>
      <trkpt lat="42.360834" lon="-4.918218">
        <ele>856</ele>
        <time>2018-07-23T06:08:55.000Z</time>
      </trkpt>
      <trkpt lat="42.360829" lon="-4.918383">
        <ele>856</ele>
        <time>2018-07-23T06:08:57.990Z</time>
      </trkpt>
      <trkpt lat="42.360818" lon="-4.918551">
        <ele>856.32</ele>
        <time>2018-07-23T06:09:00.990Z</time>
      </trkpt>
      <trkpt lat="42.360812" lon="-4.918721">
        <ele>857</ele>
        <time>2018-07-23T06:09:03.990Z</time>
      </trkpt>
      <trkpt lat="42.360798" lon="-4.918844">
        <ele>857.32</ele>
        <time>2018-07-23T06:09:05.990Z</time>
      </trkpt>
      <trkpt lat="42.360793" lon="-4.919014">
        <ele>857</ele>
        <time>2018-07-23T06:09:08.990Z</time>
      </trkpt>
      <trkpt lat="42.360788" lon="-4.919184">
        <ele>858</ele>
        <time>2018-07-23T06:09:11.990Z</time>
      </trkpt>
      <trkpt lat="42.360775" lon="-4.919354">
        <ele>858</ele>
        <time>2018-07-23T06:09:15.000Z</time>
      </trkpt>
      <trkpt lat="42.360771" lon="-4.919521">
        <ele>858</ele>
        <time>2018-07-23T06:09:17.990Z</time>
      </trkpt>
      <trkpt lat="42.360764" lon="-4.919687">
        <ele>859</ele>
        <time>2018-07-23T06:09:20.990Z</time>
      </trkpt>
      <trkpt lat="42.36076" lon="-4.919859">
        <ele>859</ele>
        <time>2018-07-23T06:09:23.990Z</time>
      </trkpt>
      <trkpt lat="42.360758" lon="-4.920022">
        <ele>859</ele>
        <time>2018-07-23T06:09:26.990Z</time>
      </trkpt>
      <trkpt lat="42.360751" lon="-4.920187">
        <ele>860</ele>
        <time>2018-07-23T06:09:30.000Z</time>
      </trkpt>
      <trkpt lat="42.360749" lon="-4.920348">
        <ele>860</ele>
        <time>2018-07-23T06:09:32.990Z</time>
      </trkpt>
      <trkpt lat="42.360749" lon="-4.920505">
        <ele>860</ele>
        <time>2018-07-23T06:09:35.990Z</time>
      </trkpt>
      <trkpt lat="42.360754" lon="-4.920658">
        <ele>861</ele>
        <time>2018-07-23T06:09:38.990Z</time>
      </trkpt>
      <trkpt lat="42.360759" lon="-4.920822">
        <ele>861</ele>
        <time>2018-07-23T06:09:41.990Z</time>
      </trkpt>
      <trkpt lat="42.360776" lon="-4.920979">
        <ele>861</ele>
        <time>2018-07-23T06:09:45.000Z</time>
      </trkpt>
      <trkpt lat="42.360797" lon="-4.921121">
        <ele>863</ele>
        <time>2018-07-23T06:09:47.990Z</time>
      </trkpt>
      <trkpt lat="42.360836" lon="-4.921263">
        <ele>864</ele>
        <time>2018-07-23T06:09:50.990Z</time>
      </trkpt>
      <trkpt lat="42.360892" lon="-4.921462">
        <ele>865</ele>
        <time>2018-07-23T06:09:55.000Z</time>
      </trkpt>
      <trkpt lat="42.360947" lon="-4.921611">
        <ele>865</ele>
        <time>2018-07-23T06:09:57.990Z</time>
      </trkpt>
      <trkpt lat="42.360983" lon="-4.921761">
        <ele>865</ele>
        <time>2018-07-23T06:10:00.990Z</time>
      </trkpt>
      <trkpt lat="42.361" lon="-4.921926">
        <ele>866</ele>
        <time>2018-07-23T06:10:03.990Z</time>
      </trkpt>
      <trkpt lat="42.360998" lon="-4.922058">
        <ele>865.971419689877</ele>
        <time>2018-07-23T06:10:05.990Z</time>
      </trkpt>
      <trkpt lat="42.360997" lon="-4.9222">
        <ele>865</ele>
        <time>2018-07-23T06:10:07.990Z</time>
      </trkpt>
      <trkpt lat="42.360993" lon="-4.922347">
        <ele>863.6700032</ele>
        <time>2018-07-23T06:10:10.000Z</time>
      </trkpt>
      <trkpt lat="42.360992" lon="-4.922502">
        <ele>863</ele>
        <time>2018-07-23T06:10:11.990Z</time>
      </trkpt>
      <trkpt lat="42.360987" lon="-4.922672">
        <ele>862</ele>
        <time>2018-07-23T06:10:13.990Z</time>
      </trkpt>
      <trkpt lat="42.360974" lon="-4.922839">
        <ele>862</ele>
        <time>2018-07-23T06:10:15.990Z</time>
      </trkpt>
      <trkpt lat="42.360964" lon="-4.923026">
        <ele>861.68</ele>
        <time>2018-07-23T06:10:17.990Z</time>
      </trkpt>
      <trkpt lat="42.360942" lon="-4.923222">
        <ele>860.6700032</ele>
        <time>2018-07-23T06:10:20.000Z</time>
      </trkpt>
      <trkpt lat="42.360919" lon="-4.923407">
        <ele>860</ele>
        <time>2018-07-23T06:10:21.990Z</time>
      </trkpt>
      <trkpt lat="42.360893" lon="-4.923613">
        <ele>859.686866466694</ele>
        <time>2018-07-23T06:10:23.990Z</time>
      </trkpt>
      <trkpt lat="42.360858" lon="-4.923819">
        <ele>859</ele>
        <time>2018-07-23T06:10:25.990Z</time>
      </trkpt>
      <trkpt lat="42.360822" lon="-4.924023">
        <ele>858</ele>
        <time>2018-07-23T06:10:27.990Z</time>
      </trkpt>
      <trkpt lat="42.36078" lon="-4.924226">
        <ele>858</ele>
        <time>2018-07-23T06:10:30.000Z</time>
      </trkpt>
      <trkpt lat="42.360755" lon="-4.924404">
        <ele>858</ele>
        <time>2018-07-23T06:10:31.990Z</time>
      </trkpt>
      <trkpt lat="42.360719" lon="-4.924592">
        <ele>858</ele>
        <time>2018-07-23T06:10:33.990Z</time>
      </trkpt>
      <trkpt lat="42.360678" lon="-4.924762">
        <ele>858</ele>
        <time>2018-07-23T06:10:35.990Z</time>
      </trkpt>
      <trkpt lat="42.360645" lon="-4.924936">
        <ele>858</ele>
        <time>2018-07-23T06:10:38.000Z</time>
      </trkpt>
      <trkpt lat="42.3606" lon="-4.925102">
        <ele>858</ele>
        <time>2018-07-23T06:10:40.000Z</time>
      </trkpt>
      <trkpt lat="42.360554" lon="-4.925261">
        <ele>858</ele>
        <time>2018-07-23T06:10:42.000Z</time>
      </trkpt>
      <trkpt lat="42.360509" lon="-4.925427">
        <ele>857</ele>
        <time>2018-07-23T06:10:44.000Z</time>
      </trkpt>
      <trkpt lat="42.360464" lon="-4.925579">
        <ele>857</ele>
        <time>2018-07-23T06:10:46.000Z</time>
      </trkpt>
      <trkpt lat="42.360422" lon="-4.925749">
        <ele>856.6700032</ele>
        <time>2018-07-23T06:10:48.000Z</time>
      </trkpt>
      <trkpt lat="42.3604" lon="-4.92592">
        <ele>856</ele>
        <time>2018-07-23T06:10:50.000Z</time>
      </trkpt>
      <trkpt lat="42.360378" lon="-4.926089">
        <ele>856</ele>
        <time>2018-07-23T06:10:52.000Z</time>
      </trkpt>
      <trkpt lat="42.36035" lon="-4.926246">
        <ele>856</ele>
        <time>2018-07-23T06:10:54.000Z</time>
      </trkpt>
      <trkpt lat="42.360452" lon="-4.926302">
        <ele>856</ele>
        <time>2018-07-23T06:10:59.000Z</time>
      </trkpt>
      <trkpt lat="42.36053" lon="-4.926372">
        <ele>856</ele>
        <time>2018-07-23T06:11:03.990Z</time>
      </trkpt>
      <trkpt lat="42.360574" lon="-4.926494">
        <ele>856</ele>
        <time>2018-07-23T06:11:06.990Z</time>
      </trkpt>
      <trkpt lat="42.360627" lon="-4.926594">
        <ele>856</ele>
        <time>2018-07-23T06:11:10.000Z</time>
      </trkpt>
      <trkpt lat="42.360625" lon="-4.926739">
        <ele>856</ele>
        <time>2018-07-23T06:11:12.990Z</time>
      </trkpt>
      <trkpt lat="42.360601" lon="-4.926857">
        <ele>855.6700032</ele>
        <time>2018-07-23T06:11:15.000Z</time>
      </trkpt>
      <trkpt lat="42.360559" lon="-4.926965">
        <ele>855</ele>
        <time>2018-07-23T06:11:16.990Z</time>
      </trkpt>
      <trkpt lat="42.360496" lon="-4.927056">
        <ele>855</ele>
        <time>2018-07-23T06:11:18.990Z</time>
      </trkpt>
      <trkpt lat="42.360381" lon="-4.927139">
        <ele>855</ele>
        <time>2018-07-23T06:11:21.990Z</time>
      </trkpt>
      <trkpt lat="42.360265" lon="-4.927215">
        <ele>855</ele>
        <time>2018-07-23T06:11:25.000Z</time>
      </trkpt>
      <trkpt lat="42.360166" lon="-4.927307">
        <ele>855</ele>
        <time>2018-07-23T06:11:27.990Z</time>
      </trkpt>
      <trkpt lat="42.360093" lon="-4.927445">
        <ele>855</ele>
        <time>2018-07-23T06:11:30.990Z</time>
      </trkpt>
      <trkpt lat="42.360066" lon="-4.927571">
        <ele>855</ele>
        <time>2018-07-23T06:11:32.990Z</time>
      </trkpt>
      <trkpt lat="42.360002" lon="-4.927819">
        <ele>855</ele>
        <time>2018-07-23T06:11:37.000Z</time>
      </trkpt>
      <trkpt lat="42.359969" lon="-4.927952">
        <ele>855</ele>
        <time>2018-07-23T06:11:39.000Z</time>
      </trkpt>
      <trkpt lat="42.359935" lon="-4.928124">
        <ele>855</ele>
        <time>2018-07-23T06:11:41.990Z</time>
      </trkpt>
      <trkpt lat="42.359928" lon="-4.928248">
        <ele>855</ele>
        <time>2018-07-23T06:11:43.990Z</time>
      </trkpt>
      <trkpt lat="42.359898" lon="-4.92841">
        <ele>856</ele>
        <time>2018-07-23T06:11:46.990Z</time>
      </trkpt>
      <trkpt lat="42.359866" lon="-4.92857">
        <ele>856</ele>
        <time>2018-07-23T06:11:49.990Z</time>
      </trkpt>
      <trkpt lat="42.359814" lon="-4.928725">
        <ele>856</ele>
        <time>2018-07-23T06:11:52.990Z</time>
      </trkpt>
      <trkpt lat="42.359766" lon="-4.928882">
        <ele>856.3299968</ele>
        <time>2018-07-23T06:11:56.000Z</time>
      </trkpt>
      <trkpt lat="42.359709" lon="-4.928997">
        <ele>857</ele>
        <time>2018-07-23T06:11:58.990Z</time>
      </trkpt>
      <trkpt lat="42.359641" lon="-4.929109">
        <ele>857</ele>
        <time>2018-07-23T06:12:01.990Z</time>
      </trkpt>
      <trkpt lat="42.359564" lon="-4.929227">
        <ele>857</ele>
        <time>2018-07-23T06:12:04.990Z</time>
      </trkpt>
      <trkpt lat="42.359471" lon="-4.929351">
        <ele>857</ele>
        <time>2018-07-23T06:12:07.990Z</time>
      </trkpt>
      <trkpt lat="42.359408" lon="-4.92944">
        <ele>858</ele>
        <time>2018-07-23T06:12:09.990Z</time>
      </trkpt>
      <trkpt lat="42.359339" lon="-4.929529">
        <ele>858</ele>
        <time>2018-07-23T06:12:11.990Z</time>
      </trkpt>
      <trkpt lat="42.359269" lon="-4.929614">
        <ele>858</ele>
        <time>2018-07-23T06:12:13.990Z</time>
      </trkpt>
      <trkpt lat="42.359197" lon="-4.929712">
        <ele>858</ele>
        <time>2018-07-23T06:12:16.000Z</time>
      </trkpt>
      <trkpt lat="42.359132" lon="-4.929822">
        <ele>858</ele>
        <time>2018-07-23T06:12:17.990Z</time>
      </trkpt>
      <trkpt lat="42.359073" lon="-4.929931">
        <ele>858</ele>
        <time>2018-07-23T06:12:19.990Z</time>
      </trkpt>
      <trkpt lat="42.359022" lon="-4.930055">
        <ele>858</ele>
        <time>2018-07-23T06:12:21.990Z</time>
      </trkpt>
      <trkpt lat="42.358976" lon="-4.930185">
        <ele>858.246155057994</ele>
        <time>2018-07-23T06:12:23.990Z</time>
      </trkpt>
      <trkpt lat="42.358918" lon="-4.930376">
        <ele>859</ele>
        <time>2018-07-23T06:12:26.990Z</time>
      </trkpt>
      <trkpt lat="42.358891" lon="-4.930496">
        <ele>859</ele>
        <time>2018-07-23T06:12:28.990Z</time>
      </trkpt>
      <trkpt lat="42.358863" lon="-4.930614">
        <ele>859</ele>
        <time>2018-07-23T06:12:31.000Z</time>
      </trkpt>
      <trkpt lat="42.358835" lon="-4.930783">
        <ele>860</ele>
        <time>2018-07-23T06:12:33.990Z</time>
      </trkpt>
      <trkpt lat="42.358803" lon="-4.930957">
        <ele>861</ele>
        <time>2018-07-23T06:12:36.990Z</time>
      </trkpt>
      <trkpt lat="42.358786" lon="-4.931127">
        <ele>861</ele>
        <time>2018-07-23T06:12:39.990Z</time>
      </trkpt>
      <trkpt lat="42.358787" lon="-4.931295">
        <ele>861.25</ele>
        <time>2018-07-23T06:12:42.990Z</time>
      </trkpt>
      <trkpt lat="42.358812" lon="-4.931421">
        <ele>862</ele>
        <time>2018-07-23T06:12:46.000Z</time>
      </trkpt>
      <trkpt lat="42.358857" lon="-4.93158">
        <ele>862</ele>
        <time>2018-07-23T06:12:49.990Z</time>
      </trkpt>
      <trkpt lat="42.358888" lon="-4.931697">
        <ele>862</ele>
        <time>2018-07-23T06:12:51.990Z</time>
      </trkpt>
      <trkpt lat="42.358917" lon="-4.931816">
        <ele>863</ele>
        <time>2018-07-23T06:12:53.990Z</time>
      </trkpt>
      <trkpt lat="42.358948" lon="-4.931985">
        <ele>864.32</ele>
        <time>2018-07-23T06:12:56.990Z</time>
      </trkpt>
      <trkpt lat="42.358988" lon="-4.932145">
        <ele>865</ele>
        <time>2018-07-23T06:12:59.990Z</time>
      </trkpt>
      <trkpt lat="42.359018" lon="-4.932297">
        <ele>865.819877405968</ele>
        <time>2018-07-23T06:13:02.990Z</time>
      </trkpt>
      <trkpt lat="42.359052" lon="-4.932457">
        <ele>866</ele>
        <time>2018-07-23T06:13:06.000Z</time>
      </trkpt>
      <trkpt lat="42.359085" lon="-4.932633">
        <ele>867</ele>
        <time>2018-07-23T06:13:08.990Z</time>
      </trkpt>
      <trkpt lat="42.359122" lon="-4.9328">
        <ele>867</ele>
        <time>2018-07-23T06:13:11.990Z</time>
      </trkpt>
      <trkpt lat="42.359168" lon="-4.932954">
        <ele>867.014506464838</ele>
        <time>2018-07-23T06:13:14.990Z</time>
      </trkpt>
      <trkpt lat="42.359214" lon="-4.933112">
        <ele>868</ele>
        <time>2018-07-23T06:13:17.990Z</time>
      </trkpt>
      <trkpt lat="42.359258" lon="-4.933255">
        <ele>868</ele>
        <time>2018-07-23T06:13:21.000Z</time>
      </trkpt>
      <trkpt lat="42.359294" lon="-4.933399">
        <ele>868</ele>
        <time>2018-07-23T06:13:23.990Z</time>
      </trkpt>
      <trkpt lat="42.359333" lon="-4.933539">
        <ele>869</ele>
        <time>2018-07-23T06:13:26.990Z</time>
      </trkpt>
      <trkpt lat="42.35938" lon="-4.933692">
        <ele>869</ele>
        <time>2018-07-23T06:13:29.990Z</time>
      </trkpt>
      <trkpt lat="42.359426" lon="-4.93385">
        <ele>869.32</ele>
        <time>2018-07-23T06:13:32.990Z</time>
      </trkpt>
      <trkpt lat="42.359466" lon="-4.934011">
        <ele>870</ele>
        <time>2018-07-23T06:13:36.000Z</time>
      </trkpt>
      <trkpt lat="42.35951" lon="-4.93417">
        <ele>870.014506464838</ele>
        <time>2018-07-23T06:13:38.990Z</time>
      </trkpt>
      <trkpt lat="42.359538" lon="-4.93433">
        <ele>871</ele>
        <time>2018-07-23T06:13:41.990Z</time>
      </trkpt>
      <trkpt lat="42.359574" lon="-4.934495">
        <ele>872</ele>
        <time>2018-07-23T06:13:44.990Z</time>
      </trkpt>
      <trkpt lat="42.359586" lon="-4.934618">
        <ele>872</ele>
        <time>2018-07-23T06:13:46.990Z</time>
      </trkpt>
      <trkpt lat="42.359599" lon="-4.934755">
        <ele>872</ele>
        <time>2018-07-23T06:13:48.990Z</time>
      </trkpt>
      <trkpt lat="42.359608" lon="-4.934894">
        <ele>872</ele>
        <time>2018-07-23T06:13:51.000Z</time>
      </trkpt>
      <trkpt lat="42.35962" lon="-4.935015">
        <ele>871.68</ele>
        <time>2018-07-23T06:13:52.990Z</time>
      </trkpt>
      <trkpt lat="42.359628" lon="-4.935139">
        <ele>871</ele>
        <time>2018-07-23T06:13:54.990Z</time>
      </trkpt>
      <trkpt lat="42.359638" lon="-4.935269">
        <ele>871.32</ele>
        <time>2018-07-23T06:13:56.990Z</time>
      </trkpt>
      <trkpt lat="42.359654" lon="-4.935393">
        <ele>872</ele>
        <time>2018-07-23T06:13:58.990Z</time>
      </trkpt>
      <trkpt lat="42.359669" lon="-4.935533">
        <ele>872</ele>
        <time>2018-07-23T06:14:01.000Z</time>
      </trkpt>
      <trkpt lat="42.359681" lon="-4.935668">
        <ele>872</ele>
        <time>2018-07-23T06:14:02.990Z</time>
      </trkpt>
      <trkpt lat="42.359699" lon="-4.935799">
        <ele>872</ele>
        <time>2018-07-23T06:14:04.990Z</time>
      </trkpt>
      <trkpt lat="42.359703" lon="-4.935922">
        <ele>872</ele>
        <time>2018-07-23T06:14:07.000Z</time>
      </trkpt>
      <trkpt lat="42.359703" lon="-4.936045">
        <ele>872</ele>
        <time>2018-07-23T06:14:09.000Z</time>
      </trkpt>
      <trkpt lat="42.359712" lon="-4.936177">
        <ele>872.028994379209</ele>
        <time>2018-07-23T06:14:11.000Z</time>
      </trkpt>
      <trkpt lat="42.359726" lon="-4.93631">
        <ele>873</ele>
        <time>2018-07-23T06:14:12.990Z</time>
      </trkpt>
      <trkpt lat="42.359737" lon="-4.93644">
        <ele>873</ele>
        <time>2018-07-23T06:14:14.990Z</time>
      </trkpt>
      <trkpt lat="42.359747" lon="-4.936566">
        <ele>873</ele>
        <time>2018-07-23T06:14:16.990Z</time>
      </trkpt>
      <trkpt lat="42.359754" lon="-4.936743">
        <ele>873</ele>
        <time>2018-07-23T06:14:20.000Z</time>
      </trkpt>
      <trkpt lat="42.359758" lon="-4.936893">
        <ele>873</ele>
        <time>2018-07-23T06:14:22.000Z</time>
      </trkpt>
      <trkpt lat="42.359773" lon="-4.937013">
        <ele>873</ele>
        <time>2018-07-23T06:14:23.990Z</time>
      </trkpt>
      <trkpt lat="42.359795" lon="-4.937161">
        <ele>873</ele>
        <time>2018-07-23T06:14:25.990Z</time>
      </trkpt>
      <trkpt lat="42.359806" lon="-4.937304">
        <ele>873</ele>
        <time>2018-07-23T06:14:27.990Z</time>
      </trkpt>
      <trkpt lat="42.35981" lon="-4.937448">
        <ele>873</ele>
        <time>2018-07-23T06:14:29.990Z</time>
      </trkpt>
      <trkpt lat="42.359799" lon="-4.937582">
        <ele>873</ele>
        <time>2018-07-23T06:14:32.000Z</time>
      </trkpt>
      <trkpt lat="42.359782" lon="-4.937723">
        <ele>873</ele>
        <time>2018-07-23T06:14:33.990Z</time>
      </trkpt>
      <trkpt lat="42.359765" lon="-4.937862">
        <ele>873</ele>
        <time>2018-07-23T06:14:35.990Z</time>
      </trkpt>
      <trkpt lat="42.359741" lon="-4.938001">
        <ele>873</ele>
        <time>2018-07-23T06:14:37.990Z</time>
      </trkpt>
      <trkpt lat="42.359718" lon="-4.938137">
        <ele>874</ele>
        <time>2018-07-23T06:14:39.990Z</time>
      </trkpt>
      <trkpt lat="42.359671" lon="-4.938337">
        <ele>874</ele>
        <time>2018-07-23T06:14:43.000Z</time>
      </trkpt>
      <trkpt lat="42.359632" lon="-4.938452">
        <ele>874</ele>
        <time>2018-07-23T06:14:45.000Z</time>
      </trkpt>
      <trkpt lat="42.359599" lon="-4.938573">
        <ele>874</ele>
        <time>2018-07-23T06:14:47.000Z</time>
      </trkpt>
      <trkpt lat="42.359559" lon="-4.938747">
        <ele>874</ele>
        <time>2018-07-23T06:14:49.990Z</time>
      </trkpt>
      <trkpt lat="42.359529" lon="-4.938868">
        <ele>874</ele>
        <time>2018-07-23T06:14:52.000Z</time>
      </trkpt>
      <trkpt lat="42.359502" lon="-4.938985">
        <ele>874</ele>
        <time>2018-07-23T06:14:53.990Z</time>
      </trkpt>
      <trkpt lat="42.359479" lon="-4.939186">
        <ele>875</ele>
        <time>2018-07-23T06:14:57.000Z</time>
      </trkpt>
      <trkpt lat="42.359462" lon="-4.939309">
        <ele>875.32</ele>
        <time>2018-07-23T06:14:58.990Z</time>
      </trkpt>
      <trkpt lat="42.359442" lon="-4.939488">
        <ele>876</ele>
        <time>2018-07-23T06:15:02.000Z</time>
      </trkpt>
      <trkpt lat="42.359432" lon="-4.939662">
        <ele>877</ele>
        <time>2018-07-23T06:15:04.990Z</time>
      </trkpt>
      <trkpt lat="42.359426" lon="-4.93979">
        <ele>877</ele>
        <time>2018-07-23T06:15:07.000Z</time>
      </trkpt>
      <trkpt lat="42.359421" lon="-4.939927">
        <ele>877</ele>
        <time>2018-07-23T06:15:08.990Z</time>
      </trkpt>
      <trkpt lat="42.359422" lon="-4.940059">
        <ele>877</ele>
        <time>2018-07-23T06:15:10.990Z</time>
      </trkpt>
      <trkpt lat="42.359423" lon="-4.940199">
        <ele>876</ele>
        <time>2018-07-23T06:15:12.990Z</time>
      </trkpt>
      <trkpt lat="42.359435" lon="-4.940323">
        <ele>876</ele>
        <time>2018-07-23T06:15:14.990Z</time>
      </trkpt>
      <trkpt lat="42.359454" lon="-4.940446">
        <ele>876</ele>
        <time>2018-07-23T06:15:17.000Z</time>
      </trkpt>
      <trkpt lat="42.359475" lon="-4.94057">
        <ele>876</ele>
        <time>2018-07-23T06:15:18.990Z</time>
      </trkpt>
      <trkpt lat="42.359518" lon="-4.940741">
        <ele>876</ele>
        <time>2018-07-23T06:15:22.000Z</time>
      </trkpt>
      <trkpt lat="42.359547" lon="-4.940858">
        <ele>876</ele>
        <time>2018-07-23T06:15:23.990Z</time>
      </trkpt>
      <trkpt lat="42.359575" lon="-4.940991">
        <ele>875.68</ele>
        <time>2018-07-23T06:15:25.990Z</time>
      </trkpt>
      <trkpt lat="42.359594" lon="-4.941137">
        <ele>875</ele>
        <time>2018-07-23T06:15:27.990Z</time>
      </trkpt>
      <trkpt lat="42.359604" lon="-4.941292">
        <ele>874</ele>
        <time>2018-07-23T06:15:29.990Z</time>
      </trkpt>
      <trkpt lat="42.359592" lon="-4.941468">
        <ele>874</ele>
        <time>2018-07-23T06:15:32.000Z</time>
      </trkpt>
      <trkpt lat="42.35956" lon="-4.94166">
        <ele>872.753844942006</ele>
        <time>2018-07-23T06:15:33.990Z</time>
      </trkpt>
      <trkpt lat="42.359505" lon="-4.941857">
        <ele>871.68</ele>
        <time>2018-07-23T06:15:35.990Z</time>
      </trkpt>
      <trkpt lat="42.359438" lon="-4.942066">
        <ele>870.68</ele>
        <time>2018-07-23T06:15:37.990Z</time>
      </trkpt>
      <trkpt lat="42.35941" lon="-4.942278">
        <ele>869</ele>
        <time>2018-07-23T06:15:39.990Z</time>
      </trkpt>
      <trkpt lat="42.359395" lon="-4.942498">
        <ele>868</ele>
        <time>2018-07-23T06:15:42.000Z</time>
      </trkpt>
      <trkpt lat="42.359392" lon="-4.942701">
        <ele>868</ele>
        <time>2018-07-23T06:15:43.990Z</time>
      </trkpt>
      <trkpt lat="42.359384" lon="-4.942899">
        <ele>868</ele>
        <time>2018-07-23T06:15:45.990Z</time>
      </trkpt>
      <trkpt lat="42.359376" lon="-4.943087">
        <ele>868</ele>
        <time>2018-07-23T06:15:47.990Z</time>
      </trkpt>
      <trkpt lat="42.359365" lon="-4.943263">
        <ele>868</ele>
        <time>2018-07-23T06:15:49.990Z</time>
      </trkpt>
      <trkpt lat="42.359349" lon="-4.943432">
        <ele>868</ele>
        <time>2018-07-23T06:15:52.000Z</time>
      </trkpt>
      <trkpt lat="42.359327" lon="-4.943587">
        <ele>868</ele>
        <time>2018-07-23T06:15:53.990Z</time>
      </trkpt>
      <trkpt lat="42.359301" lon="-4.943746">
        <ele>868</ele>
        <time>2018-07-23T06:15:55.990Z</time>
      </trkpt>
      <trkpt lat="42.359277" lon="-4.943913">
        <ele>868</ele>
        <time>2018-07-23T06:15:57.990Z</time>
      </trkpt>
      <trkpt lat="42.359251" lon="-4.944087">
        <ele>867.007516409062</ele>
        <time>2018-07-23T06:15:59.990Z</time>
      </trkpt>
      <trkpt lat="42.35923" lon="-4.944268">
        <ele>867</ele>
        <time>2018-07-23T06:16:02.000Z</time>
      </trkpt>
      <trkpt lat="42.359213" lon="-4.944434">
        <ele>866.32</ele>
        <time>2018-07-23T06:16:03.990Z</time>
      </trkpt>
      <trkpt lat="42.359205" lon="-4.944598">
        <ele>867</ele>
        <time>2018-07-23T06:16:05.990Z</time>
      </trkpt>
      <trkpt lat="42.359197" lon="-4.944764">
        <ele>867</ele>
        <time>2018-07-23T06:16:07.990Z</time>
      </trkpt>
      <trkpt lat="42.359193" lon="-4.944934">
        <ele>865.68</ele>
        <time>2018-07-23T06:16:09.990Z</time>
      </trkpt>
      <trkpt lat="42.359189" lon="-4.945116">
        <ele>865</ele>
        <time>2018-07-23T06:16:12.000Z</time>
      </trkpt>
      <trkpt lat="42.359193" lon="-4.94529">
        <ele>864.68</ele>
        <time>2018-07-23T06:16:13.990Z</time>
      </trkpt>
      <trkpt lat="42.359204" lon="-4.945458">
        <ele>864</ele>
        <time>2018-07-23T06:16:15.990Z</time>
      </trkpt>
      <trkpt lat="42.359239" lon="-4.945604">
        <ele>864</ele>
        <time>2018-07-23T06:16:17.990Z</time>
      </trkpt>
      <trkpt lat="42.359297" lon="-4.945723">
        <ele>864</ele>
        <time>2018-07-23T06:16:19.990Z</time>
      </trkpt>
      <trkpt lat="42.359372" lon="-4.945853">
        <ele>864</ele>
        <time>2018-07-23T06:16:22.000Z</time>
      </trkpt>
      <trkpt lat="42.359472" lon="-4.945949">
        <ele>864</ele>
        <time>2018-07-23T06:16:23.990Z</time>
      </trkpt>
      <trkpt lat="42.359583" lon="-4.946028">
        <ele>864</ele>
        <time>2018-07-23T06:16:25.990Z</time>
      </trkpt>
      <trkpt lat="42.359684" lon="-4.946101">
        <ele>864</ele>
        <time>2018-07-23T06:16:27.990Z</time>
      </trkpt>
      <trkpt lat="42.359785" lon="-4.946179">
        <ele>865</ele>
        <time>2018-07-23T06:16:29.990Z</time>
      </trkpt>
      <trkpt lat="42.359885" lon="-4.946261">
        <ele>865</ele>
        <time>2018-07-23T06:16:32.000Z</time>
      </trkpt>
      <trkpt lat="42.359991" lon="-4.946334">
        <ele>865</ele>
        <time>2018-07-23T06:16:33.990Z</time>
      </trkpt>
      <trkpt lat="42.360093" lon="-4.946407">
        <ele>865</ele>
        <time>2018-07-23T06:16:35.990Z</time>
      </trkpt>
      <trkpt lat="42.360189" lon="-4.94647">
        <ele>865</ele>
        <time>2018-07-23T06:16:37.990Z</time>
      </trkpt>
      <trkpt lat="42.360283" lon="-4.946539">
        <ele>865</ele>
        <time>2018-07-23T06:16:39.990Z</time>
      </trkpt>
      <trkpt lat="42.360379" lon="-4.946601">
        <ele>865</ele>
        <time>2018-07-23T06:16:42.000Z</time>
      </trkpt>
      <trkpt lat="42.360494" lon="-4.94664">
        <ele>864</ele>
        <time>2018-07-23T06:16:43.990Z</time>
      </trkpt>
      <trkpt lat="42.360607" lon="-4.946671">
        <ele>863</ele>
        <time>2018-07-23T06:16:45.990Z</time>
      </trkpt>
      <trkpt lat="42.360713" lon="-4.946693">
        <ele>863</ele>
        <time>2018-07-23T06:16:47.990Z</time>
      </trkpt>
      <trkpt lat="42.360819" lon="-4.946716">
        <ele>863</ele>
        <time>2018-07-23T06:16:49.990Z</time>
      </trkpt>
      <trkpt lat="42.360932" lon="-4.946744">
        <ele>863</ele>
        <time>2018-07-23T06:16:52.000Z</time>
      </trkpt>
      <trkpt lat="42.36105" lon="-4.946771">
        <ele>863</ele>
        <time>2018-07-23T06:16:53.990Z</time>
      </trkpt>
      <trkpt lat="42.361174" lon="-4.9468">
        <ele>863</ele>
        <time>2018-07-23T06:16:55.990Z</time>
      </trkpt>
      <trkpt lat="42.361307" lon="-4.946848">
        <ele>862.68</ele>
        <time>2018-07-23T06:16:57.990Z</time>
      </trkpt>
      <trkpt lat="42.361456" lon="-4.946901">
        <ele>861.007516409062</ele>
        <time>2018-07-23T06:16:59.990Z</time>
      </trkpt>
      <trkpt lat="42.361593" lon="-4.946974">
        <ele>859</ele>
        <time>2018-07-23T06:17:02.000Z</time>
      </trkpt>
      <trkpt lat="42.36173" lon="-4.947063">
        <ele>858.68</ele>
        <time>2018-07-23T06:17:03.990Z</time>
      </trkpt>
      <trkpt lat="42.361872" lon="-4.947162">
        <ele>858</ele>
        <time>2018-07-23T06:17:05.990Z</time>
      </trkpt>
      <trkpt lat="42.36203" lon="-4.947252">
        <ele>856.68</ele>
        <time>2018-07-23T06:17:07.990Z</time>
      </trkpt>
      <trkpt lat="42.362185" lon="-4.947347">
        <ele>855.971419689877</ele>
        <time>2018-07-23T06:17:09.990Z</time>
      </trkpt>
      <trkpt lat="42.362334" lon="-4.947433">
        <ele>854</ele>
        <time>2018-07-23T06:17:12.000Z</time>
      </trkpt>
      <trkpt lat="42.362486" lon="-4.947522">
        <ele>854</ele>
        <time>2018-07-23T06:17:13.990Z</time>
      </trkpt>
      <trkpt lat="42.362634" lon="-4.947594">
        <ele>854</ele>
        <time>2018-07-23T06:17:15.990Z</time>
      </trkpt>
      <trkpt lat="42.362772" lon="-4.947663">
        <ele>854</ele>
        <time>2018-07-23T06:17:17.990Z</time>
      </trkpt>
      <trkpt lat="42.362907" lon="-4.947715">
        <ele>854</ele>
        <time>2018-07-23T06:17:19.990Z</time>
      </trkpt>
      <trkpt lat="42.363043" lon="-4.947769">
        <ele>853</ele>
        <time>2018-07-23T06:17:22.000Z</time>
      </trkpt>
      <trkpt lat="42.363193" lon="-4.947842">
        <ele>853</ele>
        <time>2018-07-23T06:17:23.990Z</time>
      </trkpt>
      <trkpt lat="42.363338" lon="-4.947966">
        <ele>852.007573333333</ele>
        <time>2018-07-23T06:17:25.990Z</time>
      </trkpt>
      <trkpt lat="42.363468" lon="-4.948118">
        <ele>849.755723400721</ele>
        <time>2018-07-23T06:17:27.990Z</time>
      </trkpt>
      <trkpt lat="42.363593" lon="-4.948278">
        <ele>849</ele>
        <time>2018-07-23T06:17:29.990Z</time>
      </trkpt>
      <trkpt lat="42.363727" lon="-4.948427">
        <ele>847.6700032</ele>
        <time>2018-07-23T06:17:32.000Z</time>
      </trkpt>
      <trkpt lat="42.363797" lon="-4.948508">
        <ele>846.68</ele>
        <time>2018-07-23T06:17:32.990Z</time>
      </trkpt>
      <trkpt lat="42.363867" lon="-4.948585">
        <ele>846</ele>
        <time>2018-07-23T06:17:33.990Z</time>
      </trkpt>
      <trkpt lat="42.363938" lon="-4.94866">
        <ele>846</ele>
        <time>2018-07-23T06:17:34.990Z</time>
      </trkpt>
      <trkpt lat="42.364075" lon="-4.94881">
        <ele>846</ele>
        <time>2018-07-23T06:17:37.000Z</time>
      </trkpt>
      <trkpt lat="42.364207" lon="-4.948961">
        <ele>845</ele>
        <time>2018-07-23T06:17:38.990Z</time>
      </trkpt>
      <trkpt lat="42.364299" lon="-4.949133">
        <ele>844</ele>
        <time>2018-07-23T06:17:40.990Z</time>
      </trkpt>
      <trkpt lat="42.364317" lon="-4.949323">
        <ele>844</ele>
        <time>2018-07-23T06:17:42.990Z</time>
      </trkpt>
      <trkpt lat="42.364306" lon="-4.949469">
        <ele>844</ele>
        <time>2018-07-23T06:17:44.990Z</time>
      </trkpt>
      <trkpt lat="42.364313" lon="-4.949616">
        <ele>844</ele>
        <time>2018-07-23T06:17:47.000Z</time>
      </trkpt>
      <trkpt lat="42.364335" lon="-4.949764">
        <ele>844</ele>
        <time>2018-07-23T06:17:48.990Z</time>
      </trkpt>
      <trkpt lat="42.364357" lon="-4.949914">
        <ele>844</ele>
        <time>2018-07-23T06:17:50.990Z</time>
      </trkpt>
      <trkpt lat="42.364366" lon="-4.950074">
        <ele>844</ele>
        <time>2018-07-23T06:17:52.990Z</time>
      </trkpt>
      <trkpt lat="42.364377" lon="-4.950199">
        <ele>844</ele>
        <time>2018-07-23T06:17:54.990Z</time>
      </trkpt>
      <trkpt lat="42.364368" lon="-4.950345">
        <ele>844</ele>
        <time>2018-07-23T06:17:57.000Z</time>
      </trkpt>
      <trkpt lat="42.36436" lon="-4.950488">
        <ele>844</ele>
        <time>2018-07-23T06:17:58.990Z</time>
      </trkpt>
      <trkpt lat="42.36435" lon="-4.950629">
        <ele>844</ele>
        <time>2018-07-23T06:18:00.990Z</time>
      </trkpt>
      <trkpt lat="42.364332" lon="-4.950759">
        <ele>844</ele>
        <time>2018-07-23T06:18:02.990Z</time>
      </trkpt>
      <trkpt lat="42.364314" lon="-4.950899">
        <ele>844</ele>
        <time>2018-07-23T06:18:04.990Z</time>
      </trkpt>
      <trkpt lat="42.36429" lon="-4.951019">
        <ele>843</ele>
        <time>2018-07-23T06:18:07.000Z</time>
      </trkpt>
      <trkpt lat="42.364224" lon="-4.95112">
        <ele>843</ele>
        <time>2018-07-23T06:18:09.990Z</time>
      </trkpt>
      <trkpt lat="42.364124" lon="-4.951177">
        <ele>843</ele>
        <time>2018-07-23T06:18:12.990Z</time>
      </trkpt>
      <trkpt lat="42.364026" lon="-4.951277">
        <ele>843</ele>
        <time>2018-07-23T06:18:15.990Z</time>
      </trkpt>
      <trkpt lat="42.363946" lon="-4.951389">
        <ele>843</ele>
        <time>2018-07-23T06:18:18.990Z</time>
      </trkpt>
      <trkpt lat="42.36386" lon="-4.951529">
        <ele>841.6700032</ele>
        <time>2018-07-23T06:18:22.000Z</time>
      </trkpt>
      <trkpt lat="42.363794" lon="-4.951631">
        <ele>841</ele>
        <time>2018-07-23T06:18:23.990Z</time>
      </trkpt>
      <trkpt lat="42.363744" lon="-4.95174">
        <ele>841</ele>
        <time>2018-07-23T06:18:25.990Z</time>
      </trkpt>
      <trkpt lat="42.363694" lon="-4.951873">
        <ele>841</ele>
        <time>2018-07-23T06:18:27.990Z</time>
      </trkpt>
      <trkpt lat="42.363642" lon="-4.951992">
        <ele>841</ele>
        <time>2018-07-23T06:18:29.990Z</time>
      </trkpt>
      <trkpt lat="42.363598" lon="-4.952108">
        <ele>841</ele>
        <time>2018-07-23T06:18:32.000Z</time>
      </trkpt>
      <trkpt lat="42.363566" lon="-4.952228">
        <ele>841</ele>
        <time>2018-07-23T06:18:33.990Z</time>
      </trkpt>
      <trkpt lat="42.363528" lon="-4.952353">
        <ele>841</ele>
        <time>2018-07-23T06:18:35.990Z</time>
      </trkpt>
      <trkpt lat="42.363488" lon="-4.952481">
        <ele>841</ele>
        <time>2018-07-23T06:18:37.990Z</time>
      </trkpt>
      <trkpt lat="42.363456" lon="-4.952611">
        <ele>841</ele>
        <time>2018-07-23T06:18:39.990Z</time>
      </trkpt>
      <trkpt lat="42.363434" lon="-4.95274">
        <ele>840</ele>
        <time>2018-07-23T06:18:42.000Z</time>
      </trkpt>
      <trkpt lat="42.363432" lon="-4.952868">
        <ele>840</ele>
        <time>2018-07-23T06:18:43.990Z</time>
      </trkpt>
      <trkpt lat="42.363458" lon="-4.952988">
        <ele>841</ele>
        <time>2018-07-23T06:18:45.990Z</time>
      </trkpt>
      <trkpt lat="42.363488" lon="-4.953211">
        <ele>840</ele>
        <time>2018-07-23T06:18:49.000Z</time>
      </trkpt>
      <trkpt lat="42.36352" lon="-4.953385">
        <ele>840</ele>
        <time>2018-07-23T06:18:52.000Z</time>
      </trkpt>
      <trkpt lat="42.363584" lon="-4.953558">
        <ele>840</ele>
        <time>2018-07-23T06:18:55.000Z</time>
      </trkpt>
      <trkpt lat="42.363624" lon="-4.953681">
        <ele>840</ele>
        <time>2018-07-23T06:18:57.000Z</time>
      </trkpt>
      <trkpt lat="42.363668" lon="-4.953801">
        <ele>840</ele>
        <time>2018-07-23T06:18:58.990Z</time>
      </trkpt>
      <trkpt lat="42.363692" lon="-4.953977">
        <ele>840</ele>
        <time>2018-07-23T06:19:01.990Z</time>
      </trkpt>
      <trkpt lat="42.363701" lon="-4.954109">
        <ele>840</ele>
        <time>2018-07-23T06:19:03.990Z</time>
      </trkpt>
      <trkpt lat="42.363703" lon="-4.954244">
        <ele>840</ele>
        <time>2018-07-23T06:19:05.990Z</time>
      </trkpt>
      <trkpt lat="42.363698" lon="-4.954375">
        <ele>839</ele>
        <time>2018-07-23T06:19:08.000Z</time>
      </trkpt>
      <trkpt lat="42.363747" lon="-4.954506">
        <ele>838.32</ele>
        <time>2018-07-23T06:19:10.990Z</time>
      </trkpt>
      <trkpt lat="42.363846" lon="-4.954519">
        <ele>839</ele>
        <time>2018-07-23T06:19:13.990Z</time>
      </trkpt>
      <trkpt lat="42.363953" lon="-4.954576">
        <ele>839</ele>
        <time>2018-07-23T06:19:16.990Z</time>
      </trkpt>
      <trkpt lat="42.364052" lon="-4.954652">
        <ele>839</ele>
        <time>2018-07-23T06:19:19.990Z</time>
      </trkpt>
      <trkpt lat="42.364126" lon="-4.954776">
        <ele>839.042861322411</ele>
        <time>2018-07-23T06:19:23.000Z</time>
      </trkpt>
      <trkpt lat="42.364148" lon="-4.954946">
        <ele>840</ele>
        <time>2018-07-23T06:19:25.990Z</time>
      </trkpt>
      <trkpt lat="42.364149" lon="-4.955069">
        <ele>840</ele>
        <time>2018-07-23T06:19:28.000Z</time>
      </trkpt>
      <trkpt lat="42.364148" lon="-4.955222">
        <ele>840</ele>
        <time>2018-07-23T06:19:30.990Z</time>
      </trkpt>
      <trkpt lat="42.364156" lon="-4.955353">
        <ele>841</ele>
        <time>2018-07-23T06:19:34.990Z</time>
      </trkpt>
      <trkpt lat="42.364266" lon="-4.955362">
        <ele>841</ele>
        <time>2018-07-23T06:19:39.990Z</time>
      </trkpt>
      <trkpt lat="42.364357" lon="-4.955349">
        <ele>841</ele>
        <time>2018-07-23T06:19:43.000Z</time>
      </trkpt>
      <trkpt lat="42.364463" lon="-4.955349">
        <ele>841</ele>
        <time>2018-07-23T06:19:45.990Z</time>
      </trkpt>
      <trkpt lat="42.364561" lon="-4.955346">
        <ele>841</ele>
        <time>2018-07-23T06:19:48.990Z</time>
      </trkpt>
      <trkpt lat="42.364671" lon="-4.955357">
        <ele>841</ele>
        <time>2018-07-23T06:19:51.990Z</time>
      </trkpt>
      <trkpt lat="42.36478" lon="-4.95537">
        <ele>841</ele>
        <time>2018-07-23T06:19:54.990Z</time>
      </trkpt>
      <trkpt lat="42.364877" lon="-4.95538">
        <ele>841</ele>
        <time>2018-07-23T06:19:58.000Z</time>
      </trkpt>
      <trkpt lat="42.36492" lon="-4.955493">
        <ele>841</ele>
        <time>2018-07-23T06:20:01.990Z</time>
      </trkpt>
      <trkpt lat="42.364928" lon="-4.95566">
        <ele>841</ele>
        <time>2018-07-23T06:20:04.990Z</time>
      </trkpt>
      <trkpt lat="42.36493" lon="-4.955782">
        <ele>841</ele>
        <time>2018-07-23T06:20:06.990Z</time>
      </trkpt>
      <trkpt lat="42.364935" lon="-4.955908">
        <ele>841</ele>
        <time>2018-07-23T06:20:08.990Z</time>
      </trkpt>
      <trkpt lat="42.364941" lon="-4.956034">
        <ele>841</ele>
        <time>2018-07-23T06:20:10.990Z</time>
      </trkpt>
      <trkpt lat="42.364943" lon="-4.956211">
        <ele>841.028580310123</ele>
        <time>2018-07-23T06:20:13.990Z</time>
      </trkpt>
      <trkpt lat="42.364945" lon="-4.956334">
        <ele>842</ele>
        <time>2018-07-23T06:20:15.990Z</time>
      </trkpt>
      <trkpt lat="42.364942" lon="-4.956458">
        <ele>842</ele>
        <time>2018-07-23T06:20:18.000Z</time>
      </trkpt>
      <trkpt lat="42.364946" lon="-4.956581">
        <ele>842</ele>
        <time>2018-07-23T06:20:19.990Z</time>
      </trkpt>
      <trkpt lat="42.364952" lon="-4.95675">
        <ele>843</ele>
        <time>2018-07-23T06:20:23.000Z</time>
      </trkpt>
      <trkpt lat="42.364956" lon="-4.956914">
        <ele>843</ele>
        <time>2018-07-23T06:20:25.990Z</time>
      </trkpt>
      <trkpt lat="42.364957" lon="-4.957099">
        <ele>843</ele>
        <time>2018-07-23T06:20:28.990Z</time>
      </trkpt>
      <trkpt lat="42.36496" lon="-4.957232">
        <ele>843</ele>
        <time>2018-07-23T06:20:30.990Z</time>
      </trkpt>
      <trkpt lat="42.364964" lon="-4.95736">
        <ele>843</ele>
        <time>2018-07-23T06:20:33.000Z</time>
      </trkpt>
      <trkpt lat="42.364963" lon="-4.957528">
        <ele>845</ele>
        <time>2018-07-23T06:20:35.990Z</time>
      </trkpt>
      <trkpt lat="42.364961" lon="-4.957656">
        <ele>845</ele>
        <time>2018-07-23T06:20:38.000Z</time>
      </trkpt>
      <trkpt lat="42.364967" lon="-4.957791">
        <ele>846</ele>
        <time>2018-07-23T06:20:39.990Z</time>
      </trkpt>
      <trkpt lat="42.364972" lon="-4.957933">
        <ele>847</ele>
        <time>2018-07-23T06:20:41.990Z</time>
      </trkpt>
      <trkpt lat="42.36498" lon="-4.958056">
        <ele>847</ele>
        <time>2018-07-23T06:20:43.990Z</time>
      </trkpt>
      <trkpt lat="42.364981" lon="-4.95818">
        <ele>847</ele>
        <time>2018-07-23T06:20:45.990Z</time>
      </trkpt>
      <trkpt lat="42.364972" lon="-4.958316">
        <ele>847.323231278444</ele>
        <time>2018-07-23T06:20:48.000Z</time>
      </trkpt>
      <trkpt lat="42.364976" lon="-4.958448">
        <ele>848</ele>
        <time>2018-07-23T06:20:49.990Z</time>
      </trkpt>
      <trkpt lat="42.364973" lon="-4.958581">
        <ele>848.32</ele>
        <time>2018-07-23T06:20:51.990Z</time>
      </trkpt>
      <trkpt lat="42.364973" lon="-4.958712">
        <ele>849</ele>
        <time>2018-07-23T06:20:53.990Z</time>
      </trkpt>
      <trkpt lat="42.364984" lon="-4.958833">
        <ele>849</ele>
        <time>2018-07-23T06:20:55.990Z</time>
      </trkpt>
      <trkpt lat="42.364984" lon="-4.958959">
        <ele>849</ele>
        <time>2018-07-23T06:20:58.000Z</time>
      </trkpt>
      <trkpt lat="42.364998" lon="-4.959083">
        <ele>850</ele>
        <time>2018-07-23T06:20:59.990Z</time>
      </trkpt>
      <trkpt lat="42.365006" lon="-4.959245">
        <ele>850</ele>
        <time>2018-07-23T06:21:03.000Z</time>
      </trkpt>
      <trkpt lat="42.365013" lon="-4.959415">
        <ele>850</ele>
        <time>2018-07-23T06:21:05.990Z</time>
      </trkpt>
      <trkpt lat="42.36501" lon="-4.959545">
        <ele>850</ele>
        <time>2018-07-23T06:21:08.100Z</time>
      </trkpt>
      <trkpt lat="42.365001" lon="-4.959697">
        <ele>850</ele>
        <time>2018-07-23T06:21:10.000Z</time>
      </trkpt>
      <trkpt lat="42.365004" lon="-4.959858">
        <ele>850</ele>
        <time>2018-07-23T06:21:12.000Z</time>
      </trkpt>
      <trkpt lat="42.36501" lon="-4.959997">
        <ele>850</ele>
        <time>2018-07-23T06:21:14.000Z</time>
      </trkpt>
      <trkpt lat="42.365025" lon="-4.960118">
        <ele>850</ele>
        <time>2018-07-23T06:21:16.000Z</time>
      </trkpt>
      <trkpt lat="42.365034" lon="-4.960264">
        <ele>850</ele>
        <time>2018-07-23T06:21:19.000Z</time>
      </trkpt>
      <trkpt lat="42.365052" lon="-4.960401">
        <ele>850</ele>
        <time>2018-07-23T06:21:22.000Z</time>
      </trkpt>
      <trkpt lat="42.365061" lon="-4.960578">
        <ele>850</ele>
        <time>2018-07-23T06:21:25.000Z</time>
      </trkpt>
      <trkpt lat="42.365068" lon="-4.960699">
        <ele>850</ele>
        <time>2018-07-23T06:21:27.000Z</time>
      </trkpt>
      <trkpt lat="42.365077" lon="-4.960877">
        <ele>850</ele>
        <time>2018-07-23T06:21:30.000Z</time>
      </trkpt>
      <trkpt lat="42.365086" lon="-4.961052">
        <ele>851</ele>
        <time>2018-07-23T06:21:33.000Z</time>
      </trkpt>
      <trkpt lat="42.365096" lon="-4.961225">
        <ele>851</ele>
        <time>2018-07-23T06:21:36.000Z</time>
      </trkpt>
      <trkpt lat="42.365108" lon="-4.961401">
        <ele>851</ele>
        <time>2018-07-23T06:21:39.000Z</time>
      </trkpt>
      <trkpt lat="42.365115" lon="-4.961529">
        <ele>850</ele>
        <time>2018-07-23T06:21:41.000Z</time>
      </trkpt>
      <trkpt lat="42.365129" lon="-4.961655">
        <ele>850</ele>
        <time>2018-07-23T06:21:43.000Z</time>
      </trkpt>
      <trkpt lat="42.365144" lon="-4.961775">
        <ele>851</ele>
        <time>2018-07-23T06:21:45.000Z</time>
      </trkpt>
      <trkpt lat="42.36516" lon="-4.961951">
        <ele>851</ele>
        <time>2018-07-23T06:21:48.000Z</time>
      </trkpt>
      <trkpt lat="42.365178" lon="-4.96212">
        <ele>851</ele>
        <time>2018-07-23T06:21:50.990Z</time>
      </trkpt>
      <trkpt lat="42.365192" lon="-4.962286">
        <ele>851</ele>
        <time>2018-07-23T06:21:53.990Z</time>
      </trkpt>
      <trkpt lat="42.36521" lon="-4.962458">
        <ele>851</ele>
        <time>2018-07-23T06:21:56.990Z</time>
      </trkpt>
      <trkpt lat="42.36522" lon="-4.962631">
        <ele>851.32</ele>
        <time>2018-07-23T06:21:59.990Z</time>
      </trkpt>
      <trkpt lat="42.365234" lon="-4.962788">
        <ele>852</ele>
        <time>2018-07-23T06:22:03.000Z</time>
      </trkpt>
      <trkpt lat="42.365247" lon="-4.962963">
        <ele>852</ele>
        <time>2018-07-23T06:22:05.990Z</time>
      </trkpt>
      <trkpt lat="42.365263" lon="-4.96313">
        <ele>852</ele>
        <time>2018-07-23T06:22:08.990Z</time>
      </trkpt>
      <trkpt lat="42.365267" lon="-4.963258">
        <ele>852</ele>
        <time>2018-07-23T06:22:10.990Z</time>
      </trkpt>
      <trkpt lat="42.365272" lon="-4.963381">
        <ele>852</ele>
        <time>2018-07-23T06:22:13.000Z</time>
      </trkpt>
      <trkpt lat="42.365282" lon="-4.963558">
        <ele>852</ele>
        <time>2018-07-23T06:22:15.990Z</time>
      </trkpt>
      <trkpt lat="42.365297" lon="-4.96374">
        <ele>852.32</ele>
        <time>2018-07-23T06:22:18.990Z</time>
      </trkpt>
      <trkpt lat="42.365316" lon="-4.963913">
        <ele>853</ele>
        <time>2018-07-23T06:22:21.990Z</time>
      </trkpt>
      <trkpt lat="42.365334" lon="-4.964086">
        <ele>853</ele>
        <time>2018-07-23T06:22:24.990Z</time>
      </trkpt>
      <trkpt lat="42.365346" lon="-4.964261">
        <ele>853</ele>
        <time>2018-07-23T06:22:28.000Z</time>
      </trkpt>
      <trkpt lat="42.365364" lon="-4.964433">
        <ele>854</ele>
        <time>2018-07-23T06:22:30.990Z</time>
      </trkpt>
      <trkpt lat="42.36538" lon="-4.964605">
        <ele>854</ele>
        <time>2018-07-23T06:22:33.990Z</time>
      </trkpt>
      <trkpt lat="42.365402" lon="-4.964766">
        <ele>854</ele>
        <time>2018-07-23T06:22:36.990Z</time>
      </trkpt>
      <trkpt lat="42.36541" lon="-4.964928">
        <ele>854</ele>
        <time>2018-07-23T06:22:39.990Z</time>
      </trkpt>
      <trkpt lat="42.365421" lon="-4.965097">
        <ele>854</ele>
        <time>2018-07-23T06:22:43.000Z</time>
      </trkpt>
      <trkpt lat="42.365438" lon="-4.965265">
        <ele>854</ele>
        <time>2018-07-23T06:22:45.990Z</time>
      </trkpt>
      <trkpt lat="42.365453" lon="-4.96543">
        <ele>854</ele>
        <time>2018-07-23T06:22:48.990Z</time>
      </trkpt>
      <trkpt lat="42.365468" lon="-4.965602">
        <ele>855</ele>
        <time>2018-07-23T06:22:51.990Z</time>
      </trkpt>
      <trkpt lat="42.365473" lon="-4.965763">
        <ele>855</ele>
        <time>2018-07-23T06:22:54.990Z</time>
      </trkpt>
      <trkpt lat="42.365483" lon="-4.965937">
        <ele>855</ele>
        <time>2018-07-23T06:22:58.000Z</time>
      </trkpt>
      <trkpt lat="42.365491" lon="-4.966105">
        <ele>855</ele>
        <time>2018-07-23T06:23:00.990Z</time>
      </trkpt>
      <trkpt lat="42.365496" lon="-4.966276">
        <ele>856</ele>
        <time>2018-07-23T06:23:03.990Z</time>
      </trkpt>
      <trkpt lat="42.365505" lon="-4.966439">
        <ele>856</ele>
        <time>2018-07-23T06:23:06.990Z</time>
      </trkpt>
      <trkpt lat="42.36552" lon="-4.966607">
        <ele>856</ele>
        <time>2018-07-23T06:23:09.990Z</time>
      </trkpt>
      <trkpt lat="42.365532" lon="-4.966783">
        <ele>856.3299968</ele>
        <time>2018-07-23T06:23:13.000Z</time>
      </trkpt>
      <trkpt lat="42.365536" lon="-4.96691">
        <ele>857</ele>
        <time>2018-07-23T06:23:14.990Z</time>
      </trkpt>
      <trkpt lat="42.365546" lon="-4.967036">
        <ele>856.68</ele>
        <time>2018-07-23T06:23:16.990Z</time>
      </trkpt>
      <trkpt lat="42.365552" lon="-4.967161">
        <ele>856</ele>
        <time>2018-07-23T06:23:18.990Z</time>
      </trkpt>
      <trkpt lat="42.365554" lon="-4.967284">
        <ele>856</ele>
        <time>2018-07-23T06:23:20.990Z</time>
      </trkpt>
      <trkpt lat="42.36556" lon="-4.967443">
        <ele>856.32</ele>
        <time>2018-07-23T06:23:23.990Z</time>
      </trkpt>
      <trkpt lat="42.365576" lon="-4.967589">
        <ele>857</ele>
        <time>2018-07-23T06:23:26.990Z</time>
      </trkpt>
      <trkpt lat="42.365582" lon="-4.967752">
        <ele>857</ele>
        <time>2018-07-23T06:23:29.990Z</time>
      </trkpt>
      <trkpt lat="42.365593" lon="-4.967909">
        <ele>858</ele>
        <time>2018-07-23T06:23:33.000Z</time>
      </trkpt>
      <trkpt lat="42.36561" lon="-4.968074">
        <ele>858</ele>
        <time>2018-07-23T06:23:35.990Z</time>
      </trkpt>
      <trkpt lat="42.365618" lon="-4.968243">
        <ele>858</ele>
        <time>2018-07-23T06:23:38.990Z</time>
      </trkpt>
      <trkpt lat="42.365636" lon="-4.968401">
        <ele>858</ele>
        <time>2018-07-23T06:23:41.990Z</time>
      </trkpt>
      <trkpt lat="42.36565" lon="-4.968554">
        <ele>858</ele>
        <time>2018-07-23T06:23:44.990Z</time>
      </trkpt>
      <trkpt lat="42.365658" lon="-4.968721">
        <ele>858</ele>
        <time>2018-07-23T06:23:48.000Z</time>
      </trkpt>
      <trkpt lat="42.36568" lon="-4.968889">
        <ele>859</ele>
        <time>2018-07-23T06:23:50.990Z</time>
      </trkpt>
      <trkpt lat="42.365696" lon="-4.969044">
        <ele>859</ele>
        <time>2018-07-23T06:23:53.990Z</time>
      </trkpt>
      <trkpt lat="42.365716" lon="-4.969202">
        <ele>859</ele>
        <time>2018-07-23T06:23:56.990Z</time>
      </trkpt>
      <trkpt lat="42.365718" lon="-4.969366">
        <ele>859</ele>
        <time>2018-07-23T06:23:59.990Z</time>
      </trkpt>
      <trkpt lat="42.365727" lon="-4.969521">
        <ele>860</ele>
        <time>2018-07-23T06:24:03.000Z</time>
      </trkpt>
      <trkpt lat="42.365731" lon="-4.969676">
        <ele>860</ele>
        <time>2018-07-23T06:24:05.990Z</time>
      </trkpt>
      <trkpt lat="42.365735" lon="-4.969828">
        <ele>861</ele>
        <time>2018-07-23T06:24:08.990Z</time>
      </trkpt>
      <trkpt lat="42.36574" lon="-4.969981">
        <ele>861</ele>
        <time>2018-07-23T06:24:11.990Z</time>
      </trkpt>
      <trkpt lat="42.36576" lon="-4.970138">
        <ele>861</ele>
        <time>2018-07-23T06:24:14.990Z</time>
      </trkpt>
      <trkpt lat="42.36577" lon="-4.970294">
        <ele>862</ele>
        <time>2018-07-23T06:24:18.000Z</time>
      </trkpt>
      <trkpt lat="42.365785" lon="-4.97044">
        <ele>862</ele>
        <time>2018-07-23T06:24:20.990Z</time>
      </trkpt>
      <trkpt lat="42.365797" lon="-4.970591">
        <ele>862</ele>
        <time>2018-07-23T06:24:23.990Z</time>
      </trkpt>
      <trkpt lat="42.365805" lon="-4.970764">
        <ele>862</ele>
        <time>2018-07-23T06:24:26.990Z</time>
      </trkpt>
      <trkpt lat="42.365819" lon="-4.970924">
        <ele>862.32</ele>
        <time>2018-07-23T06:24:29.990Z</time>
      </trkpt>
      <trkpt lat="42.365819" lon="-4.971073">
        <ele>863</ele>
        <time>2018-07-23T06:24:33.000Z</time>
      </trkpt>
      <trkpt lat="42.365831" lon="-4.971232">
        <ele>863</ele>
        <time>2018-07-23T06:24:35.990Z</time>
      </trkpt>
      <trkpt lat="42.365833" lon="-4.971384">
        <ele>863.32</ele>
        <time>2018-07-23T06:24:38.990Z</time>
      </trkpt>
      <trkpt lat="42.365846" lon="-4.971538">
        <ele>864</ele>
        <time>2018-07-23T06:24:41.990Z</time>
      </trkpt>
      <trkpt lat="42.36585" lon="-4.971688">
        <ele>864</ele>
        <time>2018-07-23T06:24:44.990Z</time>
      </trkpt>
      <trkpt lat="42.365854" lon="-4.971824">
        <ele>865</ele>
        <time>2018-07-23T06:24:48.000Z</time>
      </trkpt>
      <trkpt lat="42.365854" lon="-4.971974">
        <ele>865</ele>
        <time>2018-07-23T06:24:50.990Z</time>
      </trkpt>
      <trkpt lat="42.365861" lon="-4.972134">
        <ele>866</ele>
        <time>2018-07-23T06:24:53.990Z</time>
      </trkpt>
      <trkpt lat="42.36587" lon="-4.972269">
        <ele>866.32</ele>
        <time>2018-07-23T06:24:56.990Z</time>
      </trkpt>
      <trkpt lat="42.365869" lon="-4.972428">
        <ele>867</ele>
        <time>2018-07-23T06:25:00.990Z</time>
      </trkpt>
      <trkpt lat="42.365869" lon="-4.972584">
        <ele>867</ele>
        <time>2018-07-23T06:25:04.990Z</time>
      </trkpt>
      <trkpt lat="42.36583" lon="-4.972702">
        <ele>867.32</ele>
        <time>2018-07-23T06:25:08.990Z</time>
      </trkpt>
      <trkpt lat="42.365727" lon="-4.972732">
        <ele>868</ele>
        <time>2018-07-23T06:25:13.000Z</time>
      </trkpt>
      <trkpt lat="42.365627" lon="-4.972776">
        <ele>868</ele>
        <time>2018-07-23T06:25:15.990Z</time>
      </trkpt>
      <trkpt lat="42.365525" lon="-4.972836">
        <ele>868</ele>
        <time>2018-07-23T06:25:18.990Z</time>
      </trkpt>
      <trkpt lat="42.365432" lon="-4.972928">
        <ele>868</ele>
        <time>2018-07-23T06:25:21.990Z</time>
      </trkpt>
      <trkpt lat="42.365357" lon="-4.973048">
        <ele>868</ele>
        <time>2018-07-23T06:25:24.990Z</time>
      </trkpt>
      <trkpt lat="42.365305" lon="-4.973171">
        <ele>868</ele>
        <time>2018-07-23T06:25:28.000Z</time>
      </trkpt>
      <trkpt lat="42.365273" lon="-4.97332">
        <ele>867</ele>
        <time>2018-07-23T06:25:31.000Z</time>
      </trkpt>
      <trkpt lat="42.365238" lon="-4.973444">
        <ele>867</ele>
        <time>2018-07-23T06:25:33.000Z</time>
      </trkpt>
      <trkpt lat="42.365226" lon="-4.973622">
        <ele>867</ele>
        <time>2018-07-23T06:25:35.990Z</time>
      </trkpt>
      <trkpt lat="42.365249" lon="-4.973754">
        <ele>866</ele>
        <time>2018-07-23T06:25:37.990Z</time>
      </trkpt>
      <trkpt lat="42.365283" lon="-4.973872">
        <ele>866</ele>
        <time>2018-07-23T06:25:39.990Z</time>
      </trkpt>
      <trkpt lat="42.365353" lon="-4.974014">
        <ele>864</ele>
        <time>2018-07-23T06:25:42.990Z</time>
      </trkpt>
      <trkpt lat="42.365428" lon="-4.97416">
        <ele>864</ele>
        <time>2018-07-23T06:25:45.990Z</time>
      </trkpt>
      <trkpt lat="42.365478" lon="-4.974264">
        <ele>863.68</ele>
        <time>2018-07-23T06:25:47.990Z</time>
      </trkpt>
      <trkpt lat="42.365539" lon="-4.974424">
        <ele>863</ele>
        <time>2018-07-23T06:25:50.990Z</time>
      </trkpt>
      <trkpt lat="42.365568" lon="-4.97455">
        <ele>862</ele>
        <time>2018-07-23T06:25:52.990Z</time>
      </trkpt>
      <trkpt lat="42.365602" lon="-4.974664">
        <ele>862</ele>
        <time>2018-07-23T06:25:54.990Z</time>
      </trkpt>
      <trkpt lat="42.365637" lon="-4.97483">
        <ele>862</ele>
        <time>2018-07-23T06:25:57.990Z</time>
      </trkpt>
      <trkpt lat="42.36563" lon="-4.974974">
        <ele>862</ele>
        <time>2018-07-23T06:25:59.990Z</time>
      </trkpt>
      <trkpt lat="42.365626" lon="-4.975098">
        <ele>861.022215269086</ele>
        <time>2018-07-23T06:26:01.990Z</time>
      </trkpt>
      <trkpt lat="42.365606" lon="-4.975223">
        <ele>860</ele>
        <time>2018-07-23T06:26:04.000Z</time>
      </trkpt>
      <trkpt lat="42.365569" lon="-4.975357">
        <ele>859</ele>
        <time>2018-07-23T06:26:05.990Z</time>
      </trkpt>
      <trkpt lat="42.365517" lon="-4.975497">
        <ele>859</ele>
        <time>2018-07-23T06:26:07.990Z</time>
      </trkpt>
      <trkpt lat="42.365457" lon="-4.975643">
        <ele>859</ele>
        <time>2018-07-23T06:26:09.990Z</time>
      </trkpt>
      <trkpt lat="42.365378" lon="-4.975792">
        <ele>858.007516409062</ele>
        <time>2018-07-23T06:26:11.990Z</time>
      </trkpt>
      <trkpt lat="42.365284" lon="-4.97594">
        <ele>857</ele>
        <time>2018-07-23T06:26:14.000Z</time>
      </trkpt>
      <trkpt lat="42.365197" lon="-4.976098">
        <ele>856.68</ele>
        <time>2018-07-23T06:26:15.990Z</time>
      </trkpt>
      <trkpt lat="42.365121" lon="-4.976268">
        <ele>856</ele>
        <time>2018-07-23T06:26:17.990Z</time>
      </trkpt>
      <trkpt lat="42.365066" lon="-4.976393">
        <ele>855.753844942006</ele>
        <time>2018-07-23T06:26:19.990Z</time>
      </trkpt>
      <trkpt lat="42.365036" lon="-4.976513">
        <ele>854</ele>
        <time>2018-07-23T06:26:22.990Z</time>
      </trkpt>
      <trkpt lat="42.364979" lon="-4.976624">
        <ele>854</ele>
        <time>2018-07-23T06:26:26.000Z</time>
      </trkpt>
      <trkpt lat="42.364924" lon="-4.976765">
        <ele>853</ele>
        <time>2018-07-23T06:26:29.000Z</time>
      </trkpt>
      <trkpt lat="42.364896" lon="-4.976882">
        <ele>853</ele>
        <time>2018-07-23T06:26:30.990Z</time>
      </trkpt>
      <trkpt lat="42.364868" lon="-4.977002">
        <ele>853</ele>
        <time>2018-07-23T06:26:32.990Z</time>
      </trkpt>
      <trkpt lat="42.364848" lon="-4.977123">
        <ele>852</ele>
        <time>2018-07-23T06:26:35.000Z</time>
      </trkpt>
      <trkpt lat="42.364836" lon="-4.977256">
        <ele>852</ele>
        <time>2018-07-23T06:26:36.990Z</time>
      </trkpt>
      <trkpt lat="42.364851" lon="-4.977392">
        <ele>852</ele>
        <time>2018-07-23T06:26:38.990Z</time>
      </trkpt>
      <trkpt lat="42.364867" lon="-4.977549">
        <ele>852</ele>
        <time>2018-07-23T06:26:41.990Z</time>
      </trkpt>
      <trkpt lat="42.364892" lon="-4.977708">
        <ele>851</ele>
        <time>2018-07-23T06:26:45.000Z</time>
      </trkpt>
      <trkpt lat="42.364931" lon="-4.978028">
        <ele>849.712764508837</ele>
        <time>2018-07-23T06:26:50.000Z</time>
      </trkpt>
      <trkpt lat="42.364954" lon="-4.978152">
        <ele>849</ele>
        <time>2018-07-23T06:26:52.000Z</time>
      </trkpt>
      <trkpt lat="42.365009" lon="-4.978252">
        <ele>849</ele>
        <time>2018-07-23T06:26:54.000Z</time>
      </trkpt>
      <trkpt lat="42.365076" lon="-4.978384">
        <ele>849</ele>
        <time>2018-07-23T06:26:56.990Z</time>
      </trkpt>
      <trkpt lat="42.365157" lon="-4.978488">
        <ele>849</ele>
        <time>2018-07-23T06:27:00.000Z</time>
      </trkpt>
      <trkpt lat="42.365242" lon="-4.978573">
        <ele>849</ele>
        <time>2018-07-23T06:27:02.990Z</time>
      </trkpt>
      <trkpt lat="42.365324" lon="-4.978675">
        <ele>849</ele>
        <time>2018-07-23T06:27:06.990Z</time>
      </trkpt>
      <trkpt lat="42.365416" lon="-4.978781">
        <ele>849</ele>
        <time>2018-07-23T06:27:10.990Z</time>
      </trkpt>
      <trkpt lat="42.365509" lon="-4.978877">
        <ele>849</ele>
        <time>2018-07-23T06:27:13.990Z</time>
      </trkpt>
      <trkpt lat="42.365581" lon="-4.978963">
        <ele>849</ele>
        <time>2018-07-23T06:27:16.990Z</time>
      </trkpt>
      <trkpt lat="42.365604" lon="-4.979098">
        <ele>849</ele>
        <time>2018-07-23T06:27:20.990Z</time>
      </trkpt>
      <trkpt lat="42.365577" lon="-4.979233">
        <ele>849</ele>
        <time>2018-07-23T06:27:23.990Z</time>
      </trkpt>
      <trkpt lat="42.365561" lon="-4.979365">
        <ele>849</ele>
        <time>2018-07-23T06:27:26.990Z</time>
      </trkpt>
      <trkpt lat="42.365551" lon="-4.979515">
        <ele>849</ele>
        <time>2018-07-23T06:27:30.000Z</time>
      </trkpt>
      <trkpt lat="42.365542" lon="-4.979637">
        <ele>848</ele>
        <time>2018-07-23T06:27:31.990Z</time>
      </trkpt>
      <trkpt lat="42.365536" lon="-4.979759">
        <ele>848</ele>
        <time>2018-07-23T06:27:33.990Z</time>
      </trkpt>
      <trkpt lat="42.365531" lon="-4.979942">
        <ele>848</ele>
        <time>2018-07-23T06:27:36.990Z</time>
      </trkpt>
      <trkpt lat="42.365523" lon="-4.980071">
        <ele>847</ele>
        <time>2018-07-23T06:27:38.990Z</time>
      </trkpt>
      <trkpt lat="42.365507" lon="-4.980196">
        <ele>847</ele>
        <time>2018-07-23T06:27:40.990Z</time>
      </trkpt>
      <trkpt lat="42.365499" lon="-4.980323">
        <ele>846.68</ele>
        <time>2018-07-23T06:27:42.990Z</time>
      </trkpt>
      <trkpt lat="42.365491" lon="-4.980451">
        <ele>847</ele>
        <time>2018-07-23T06:27:45.000Z</time>
      </trkpt>
      <trkpt lat="42.365491" lon="-4.980585">
        <ele>846</ele>
        <time>2018-07-23T06:27:46.990Z</time>
      </trkpt>
      <trkpt lat="42.365491" lon="-4.980728">
        <ele>846</ele>
        <time>2018-07-23T06:27:48.990Z</time>
      </trkpt>
      <trkpt lat="42.365479" lon="-4.980878">
        <ele>846</ele>
        <time>2018-07-23T06:27:50.990Z</time>
      </trkpt>
      <trkpt lat="42.365475" lon="-4.981026">
        <ele>845.68</ele>
        <time>2018-07-23T06:27:52.990Z</time>
      </trkpt>
      <trkpt lat="42.365468" lon="-4.981176">
        <ele>845</ele>
        <time>2018-07-23T06:27:55.000Z</time>
      </trkpt>
      <trkpt lat="42.365466" lon="-4.981328">
        <ele>845</ele>
        <time>2018-07-23T06:27:56.990Z</time>
      </trkpt>
      <trkpt lat="42.365468" lon="-4.981484">
        <ele>845</ele>
        <time>2018-07-23T06:27:58.990Z</time>
      </trkpt>
      <trkpt lat="42.365471" lon="-4.981637">
        <ele>844.68</ele>
        <time>2018-07-23T06:28:00.990Z</time>
      </trkpt>
      <trkpt lat="42.365484" lon="-4.981803">
        <ele>843.68</ele>
        <time>2018-07-23T06:28:02.990Z</time>
      </trkpt>
      <trkpt lat="42.365501" lon="-4.981977">
        <ele>843</ele>
        <time>2018-07-23T06:28:05.000Z</time>
      </trkpt>
      <trkpt lat="42.365509" lon="-4.982152">
        <ele>842</ele>
        <time>2018-07-23T06:28:06.990Z</time>
      </trkpt>
      <trkpt lat="42.365523" lon="-4.982333">
        <ele>841</ele>
        <time>2018-07-23T06:28:08.990Z</time>
      </trkpt>
      <trkpt lat="42.36554" lon="-4.982505">
        <ele>841</ele>
        <time>2018-07-23T06:28:10.990Z</time>
      </trkpt>
      <trkpt lat="42.365558" lon="-4.982683">
        <ele>841</ele>
        <time>2018-07-23T06:28:13.990Z</time>
      </trkpt>
      <trkpt lat="42.36556" lon="-4.982836">
        <ele>840</ele>
        <time>2018-07-23T06:28:15.990Z</time>
      </trkpt>
      <trkpt lat="42.365574" lon="-4.983">
        <ele>838.68</ele>
        <time>2018-07-23T06:28:17.990Z</time>
      </trkpt>
      <trkpt lat="42.365586" lon="-4.983159">
        <ele>838</ele>
        <time>2018-07-23T06:28:20.000Z</time>
      </trkpt>
      <trkpt lat="42.3656" lon="-4.983308">
        <ele>838</ele>
        <time>2018-07-23T06:28:21.990Z</time>
      </trkpt>
      <trkpt lat="42.365617" lon="-4.983465">
        <ele>837</ele>
        <time>2018-07-23T06:28:23.990Z</time>
      </trkpt>
      <trkpt lat="42.365639" lon="-4.983625">
        <ele>837</ele>
        <time>2018-07-23T06:28:25.990Z</time>
      </trkpt>
      <trkpt lat="42.365659" lon="-4.983789">
        <ele>836</ele>
        <time>2018-07-23T06:28:27.990Z</time>
      </trkpt>
      <trkpt lat="42.365674" lon="-4.983959">
        <ele>836</ele>
        <time>2018-07-23T06:28:30.000Z</time>
      </trkpt>
      <trkpt lat="42.365696" lon="-4.984125">
        <ele>835.68</ele>
        <time>2018-07-23T06:28:31.990Z</time>
      </trkpt>
      <trkpt lat="42.36571" lon="-4.984314">
        <ele>835</ele>
        <time>2018-07-23T06:28:33.990Z</time>
      </trkpt>
      <trkpt lat="42.365721" lon="-4.984506">
        <ele>835</ele>
        <time>2018-07-23T06:28:35.990Z</time>
      </trkpt>
      <trkpt lat="42.365745" lon="-4.984689">
        <ele>835</ele>
        <time>2018-07-23T06:28:37.990Z</time>
      </trkpt>
      <trkpt lat="42.36576" lon="-4.984874">
        <ele>834.6700032</ele>
        <time>2018-07-23T06:28:40.000Z</time>
      </trkpt>
      <trkpt lat="42.365775" lon="-4.985044">
        <ele>834</ele>
        <time>2018-07-23T06:28:41.990Z</time>
      </trkpt>
      <trkpt lat="42.365789" lon="-4.98522">
        <ele>834</ele>
        <time>2018-07-23T06:28:43.990Z</time>
      </trkpt>
      <trkpt lat="42.365808" lon="-4.985372">
        <ele>833</ele>
        <time>2018-07-23T06:28:45.990Z</time>
      </trkpt>
      <trkpt lat="42.365828" lon="-4.985527">
        <ele>832</ele>
        <time>2018-07-23T06:28:47.990Z</time>
      </trkpt>
      <trkpt lat="42.365846" lon="-4.985687">
        <ele>832</ele>
        <time>2018-07-23T06:28:50.000Z</time>
      </trkpt>
      <trkpt lat="42.365863" lon="-4.985851">
        <ele>832</ele>
        <time>2018-07-23T06:28:51.990Z</time>
      </trkpt>
      <trkpt lat="42.365879" lon="-4.986017">
        <ele>832</ele>
        <time>2018-07-23T06:28:53.990Z</time>
      </trkpt>
      <trkpt lat="42.365897" lon="-4.986183">
        <ele>832</ele>
        <time>2018-07-23T06:28:55.990Z</time>
      </trkpt>
      <trkpt lat="42.365906" lon="-4.986339">
        <ele>831.68</ele>
        <time>2018-07-23T06:28:57.990Z</time>
      </trkpt>
      <trkpt lat="42.36592" lon="-4.986485">
        <ele>831</ele>
        <time>2018-07-23T06:29:00.000Z</time>
      </trkpt>
      <trkpt lat="42.365936" lon="-4.986638">
        <ele>831</ele>
        <time>2018-07-23T06:29:01.990Z</time>
      </trkpt>
      <trkpt lat="42.365943" lon="-4.986793">
        <ele>831</ele>
        <time>2018-07-23T06:29:03.990Z</time>
      </trkpt>
      <trkpt lat="42.365962" lon="-4.986942">
        <ele>831</ele>
        <time>2018-07-23T06:29:05.990Z</time>
      </trkpt>
      <trkpt lat="42.365986" lon="-4.987098">
        <ele>831</ele>
        <time>2018-07-23T06:29:07.990Z</time>
      </trkpt>
      <trkpt lat="42.366003" lon="-4.987243">
        <ele>830</ele>
        <time>2018-07-23T06:29:10.000Z</time>
      </trkpt>
      <trkpt lat="42.366033" lon="-4.987374">
        <ele>829</ele>
        <time>2018-07-23T06:29:11.990Z</time>
      </trkpt>
      <trkpt lat="42.366057" lon="-4.987504">
        <ele>829</ele>
        <time>2018-07-23T06:29:13.990Z</time>
      </trkpt>
      <trkpt lat="42.36606" lon="-4.987651">
        <ele>829</ele>
        <time>2018-07-23T06:29:15.990Z</time>
      </trkpt>
      <trkpt lat="42.366073" lon="-4.987795">
        <ele>829</ele>
        <time>2018-07-23T06:29:17.990Z</time>
      </trkpt>
      <trkpt lat="42.36609" lon="-4.987945">
        <ele>829</ele>
        <time>2018-07-23T06:29:20.000Z</time>
      </trkpt>
      <trkpt lat="42.366111" lon="-4.988095">
        <ele>829</ele>
        <time>2018-07-23T06:29:21.990Z</time>
      </trkpt>
      <trkpt lat="42.36613" lon="-4.988247">
        <ele>829</ele>
        <time>2018-07-23T06:29:23.990Z</time>
      </trkpt>
      <trkpt lat="42.366144" lon="-4.988398">
        <ele>829</ele>
        <time>2018-07-23T06:29:25.990Z</time>
      </trkpt>
      <trkpt lat="42.366161" lon="-4.988544">
        <ele>829</ele>
        <time>2018-07-23T06:29:27.990Z</time>
      </trkpt>
      <trkpt lat="42.366177" lon="-4.988689">
        <ele>828</ele>
        <time>2018-07-23T06:29:30.000Z</time>
      </trkpt>
      <trkpt lat="42.36619" lon="-4.988835">
        <ele>828</ele>
        <time>2018-07-23T06:29:31.990Z</time>
      </trkpt>
      <trkpt lat="42.366203" lon="-4.988979">
        <ele>828</ele>
        <time>2018-07-23T06:29:33.990Z</time>
      </trkpt>
      <trkpt lat="42.366208" lon="-4.989131">
        <ele>828</ele>
        <time>2018-07-23T06:29:35.990Z</time>
      </trkpt>
      <trkpt lat="42.36622" lon="-4.989278">
        <ele>828</ele>
        <time>2018-07-23T06:29:37.990Z</time>
      </trkpt>
      <trkpt lat="42.36624" lon="-4.989414">
        <ele>828</ele>
        <time>2018-07-23T06:29:40.000Z</time>
      </trkpt>
      <trkpt lat="42.366253" lon="-4.989548">
        <ele>828</ele>
        <time>2018-07-23T06:29:41.990Z</time>
      </trkpt>
      <trkpt lat="42.366266" lon="-4.989688">
        <ele>828</ele>
        <time>2018-07-23T06:29:43.990Z</time>
      </trkpt>
      <trkpt lat="42.366281" lon="-4.989831">
        <ele>828</ele>
        <time>2018-07-23T06:29:45.990Z</time>
      </trkpt>
      <trkpt lat="42.366296" lon="-4.989969">
        <ele>828</ele>
        <time>2018-07-23T06:29:47.990Z</time>
      </trkpt>
      <trkpt lat="42.366313" lon="-4.99012">
        <ele>828</ele>
        <time>2018-07-23T06:29:50.000Z</time>
      </trkpt>
      <trkpt lat="42.366328" lon="-4.990273">
        <ele>827</ele>
        <time>2018-07-23T06:29:51.990Z</time>
      </trkpt>
      <trkpt lat="42.366338" lon="-4.990419">
        <ele>827</ele>
        <time>2018-07-23T06:29:53.990Z</time>
      </trkpt>
      <trkpt lat="42.366357" lon="-4.990567">
        <ele>827</ele>
        <time>2018-07-23T06:29:55.990Z</time>
      </trkpt>
      <trkpt lat="42.36637" lon="-4.990709">
        <ele>827</ele>
        <time>2018-07-23T06:29:57.990Z</time>
      </trkpt>
      <trkpt lat="42.366385" lon="-4.990859">
        <ele>827</ele>
        <time>2018-07-23T06:30:00.000Z</time>
      </trkpt>
      <trkpt lat="42.366398" lon="-4.991004">
        <ele>826</ele>
        <time>2018-07-23T06:30:01.990Z</time>
      </trkpt>
      <trkpt lat="42.366408" lon="-4.991141">
        <ele>826</ele>
        <time>2018-07-23T06:30:03.990Z</time>
      </trkpt>
      <trkpt lat="42.366421" lon="-4.991293">
        <ele>826</ele>
        <time>2018-07-23T06:30:05.990Z</time>
      </trkpt>
      <trkpt lat="42.366434" lon="-4.99145">
        <ele>826</ele>
        <time>2018-07-23T06:30:07.990Z</time>
      </trkpt>
      <trkpt lat="42.366449" lon="-4.991591">
        <ele>826</ele>
        <time>2018-07-23T06:30:10.000Z</time>
      </trkpt>
      <trkpt lat="42.366459" lon="-4.99174">
        <ele>825.68</ele>
        <time>2018-07-23T06:30:11.990Z</time>
      </trkpt>
      <trkpt lat="42.366468" lon="-4.99189">
        <ele>825</ele>
        <time>2018-07-23T06:30:13.990Z</time>
      </trkpt>
      <trkpt lat="42.366484" lon="-4.99204">
        <ele>825</ele>
        <time>2018-07-23T06:30:15.990Z</time>
      </trkpt>
      <trkpt lat="42.366504" lon="-4.992194">
        <ele>824.68</ele>
        <time>2018-07-23T06:30:17.990Z</time>
      </trkpt>
      <trkpt lat="42.366522" lon="-4.992346">
        <ele>824</ele>
        <time>2018-07-23T06:30:20.000Z</time>
      </trkpt>
      <trkpt lat="42.366541" lon="-4.992508">
        <ele>824</ele>
        <time>2018-07-23T06:30:21.990Z</time>
      </trkpt>
      <trkpt lat="42.36656" lon="-4.99268">
        <ele>823</ele>
        <time>2018-07-23T06:30:23.990Z</time>
      </trkpt>
      <trkpt lat="42.366579" lon="-4.992846">
        <ele>822</ele>
        <time>2018-07-23T06:30:25.990Z</time>
      </trkpt>
      <trkpt lat="42.366604" lon="-4.993012">
        <ele>822</ele>
        <time>2018-07-23T06:30:27.990Z</time>
      </trkpt>
      <trkpt lat="42.366626" lon="-4.993168">
        <ele>822</ele>
        <time>2018-07-23T06:30:30.000Z</time>
      </trkpt>
      <trkpt lat="42.366649" lon="-4.993318">
        <ele>822</ele>
        <time>2018-07-23T06:30:31.990Z</time>
      </trkpt>
      <trkpt lat="42.36667" lon="-4.993448">
        <ele>822</ele>
        <time>2018-07-23T06:30:33.990Z</time>
      </trkpt>
      <trkpt lat="42.366685" lon="-4.993618">
        <ele>821</ele>
        <time>2018-07-23T06:30:36.990Z</time>
      </trkpt>
      <trkpt lat="42.366696" lon="-4.99375">
        <ele>821</ele>
        <time>2018-07-23T06:30:38.990Z</time>
      </trkpt>
      <trkpt lat="42.36671" lon="-4.993911">
        <ele>821</ele>
        <time>2018-07-23T06:30:40.990Z</time>
      </trkpt>
      <trkpt lat="42.366726" lon="-4.99407">
        <ele>820</ele>
        <time>2018-07-23T06:30:42.990Z</time>
      </trkpt>
      <trkpt lat="42.366742" lon="-4.994226">
        <ele>820</ele>
        <time>2018-07-23T06:30:45.000Z</time>
      </trkpt>
      <trkpt lat="42.366759" lon="-4.994378">
        <ele>820</ele>
        <time>2018-07-23T06:30:46.990Z</time>
      </trkpt>
      <trkpt lat="42.366773" lon="-4.99455">
        <ele>820</ele>
        <time>2018-07-23T06:30:48.990Z</time>
      </trkpt>
      <trkpt lat="42.366787" lon="-4.994718">
        <ele>820</ele>
        <time>2018-07-23T06:30:50.990Z</time>
      </trkpt>
      <trkpt lat="42.366804" lon="-4.99489">
        <ele>819.68</ele>
        <time>2018-07-23T06:30:52.990Z</time>
      </trkpt>
      <trkpt lat="42.366824" lon="-4.995068">
        <ele>819</ele>
        <time>2018-07-23T06:30:55.000Z</time>
      </trkpt>
      <trkpt lat="42.366831" lon="-4.995246">
        <ele>819</ele>
        <time>2018-07-23T06:30:56.990Z</time>
      </trkpt>
      <trkpt lat="42.366849" lon="-4.995408">
        <ele>818</ele>
        <time>2018-07-23T06:30:58.990Z</time>
      </trkpt>
      <trkpt lat="42.366867" lon="-4.995564">
        <ele>818</ele>
        <time>2018-07-23T06:31:00.990Z</time>
      </trkpt>
      <trkpt lat="42.366882" lon="-4.995735">
        <ele>817.68</ele>
        <time>2018-07-23T06:31:02.990Z</time>
      </trkpt>
      <trkpt lat="42.366901" lon="-4.995906">
        <ele>817</ele>
        <time>2018-07-23T06:31:05.000Z</time>
      </trkpt>
      <trkpt lat="42.366911" lon="-4.996058">
        <ele>816</ele>
        <time>2018-07-23T06:31:06.990Z</time>
      </trkpt>
      <trkpt lat="42.366894" lon="-4.996211">
        <ele>816</ele>
        <time>2018-07-23T06:31:08.990Z</time>
      </trkpt>
      <trkpt lat="42.366877" lon="-4.996388">
        <ele>815.32</ele>
        <time>2018-07-23T06:31:10.990Z</time>
      </trkpt>
      <trkpt lat="42.366897" lon="-4.996554">
        <ele>815.007516409062</ele>
        <time>2018-07-23T06:31:12.990Z</time>
      </trkpt>
      <trkpt lat="42.366913" lon="-4.996682">
        <ele>815</ele>
        <time>2018-07-23T06:31:15.000Z</time>
      </trkpt>
      <trkpt lat="42.366924" lon="-4.996818">
        <ele>815</ele>
        <time>2018-07-23T06:31:17.990Z</time>
      </trkpt>
      <trkpt lat="42.366925" lon="-4.996978">
        <ele>815</ele>
        <time>2018-07-23T06:31:20.990Z</time>
      </trkpt>
      <trkpt lat="42.366935" lon="-4.99712">
        <ele>815</ele>
        <time>2018-07-23T06:31:22.990Z</time>
      </trkpt>
      <trkpt lat="42.366951" lon="-4.997266">
        <ele>815</ele>
        <time>2018-07-23T06:31:25.000Z</time>
      </trkpt>
      <trkpt lat="42.366966" lon="-4.997415">
        <ele>814.68</ele>
        <time>2018-07-23T06:31:26.990Z</time>
      </trkpt>
      <trkpt lat="42.36698" lon="-4.99756">
        <ele>814</ele>
        <time>2018-07-23T06:31:28.990Z</time>
      </trkpt>
      <trkpt lat="42.366993" lon="-4.997702">
        <ele>814</ele>
        <time>2018-07-23T06:31:30.990Z</time>
      </trkpt>
      <trkpt lat="42.367012" lon="-4.997857">
        <ele>814</ele>
        <time>2018-07-23T06:31:32.990Z</time>
      </trkpt>
      <trkpt lat="42.367027" lon="-4.998002">
        <ele>814</ele>
        <time>2018-07-23T06:31:35.000Z</time>
      </trkpt>
      <trkpt lat="42.367045" lon="-4.998147">
        <ele>814</ele>
        <time>2018-07-23T06:31:36.990Z</time>
      </trkpt>
      <trkpt lat="42.367062" lon="-4.998292">
        <ele>814</ele>
        <time>2018-07-23T06:31:39.000Z</time>
      </trkpt>
      <trkpt lat="42.367089" lon="-4.998455">
        <ele>814</ele>
        <time>2018-07-23T06:31:41.000Z</time>
      </trkpt>
      <trkpt lat="42.367104" lon="-4.9986">
        <ele>814</ele>
        <time>2018-07-23T06:31:43.000Z</time>
      </trkpt>
      <trkpt lat="42.367119" lon="-4.998736">
        <ele>814</ele>
        <time>2018-07-23T06:31:45.000Z</time>
      </trkpt>
      <trkpt lat="42.367139" lon="-4.99888">
        <ele>814</ele>
        <time>2018-07-23T06:31:47.000Z</time>
      </trkpt>
      <trkpt lat="42.367153" lon="-4.999028">
        <ele>814</ele>
        <time>2018-07-23T06:31:49.000Z</time>
      </trkpt>
      <trkpt lat="42.367166" lon="-4.999175">
        <ele>814</ele>
        <time>2018-07-23T06:31:50.990Z</time>
      </trkpt>
      <trkpt lat="42.367185" lon="-4.999321">
        <ele>814</ele>
        <time>2018-07-23T06:31:52.990Z</time>
      </trkpt>
      <trkpt lat="42.367203" lon="-4.99944">
        <ele>814</ele>
        <time>2018-07-23T06:31:54.990Z</time>
      </trkpt>
      <trkpt lat="42.367263" lon="-4.999536">
        <ele>815</ele>
        <time>2018-07-23T06:31:59.000Z</time>
      </trkpt>
      <trkpt lat="42.367333" lon="-4.999612">
        <ele>817</ele>
        <time>2018-07-23T06:32:04.000Z</time>
      </trkpt>
      <trkpt lat="42.367393" lon="-4.999731">
        <ele>816.68</ele>
        <time>2018-07-23T06:32:07.990Z</time>
      </trkpt>
      <trkpt lat="42.367418" lon="-4.999856">
        <ele>817</ele>
        <time>2018-07-23T06:32:10.990Z</time>
      </trkpt>
      <trkpt lat="42.367478" lon="-4.999976">
        <ele>817</ele>
        <time>2018-07-23T06:32:14.990Z</time>
      </trkpt>
      <trkpt lat="42.367592" lon="-4.999952">
        <ele>815.68</ele>
        <time>2018-07-23T06:32:17.990Z</time>
      </trkpt>
      <trkpt lat="42.367724" lon="-4.999922">
        <ele>815</ele>
        <time>2018-07-23T06:32:20.990Z</time>
      </trkpt>
      <trkpt lat="42.367847" lon="-4.999894">
        <ele>815</ele>
        <time>2018-07-23T06:32:24.000Z</time>
      </trkpt>
      <trkpt lat="42.36796" lon="-4.999871">
        <ele>815</ele>
        <time>2018-07-23T06:32:26.990Z</time>
      </trkpt>
      <trkpt lat="42.36808" lon="-4.999866">
        <ele>815</ele>
        <time>2018-07-23T06:32:29.990Z</time>
      </trkpt>
      <trkpt lat="42.368196" lon="-4.999855">
        <ele>815</ele>
        <time>2018-07-23T06:32:32.990Z</time>
      </trkpt>
      <trkpt lat="42.368307" lon="-4.999842">
        <ele>815</ele>
        <time>2018-07-23T06:32:35.990Z</time>
      </trkpt>
      <trkpt lat="42.368423" lon="-4.999824">
        <ele>815</ele>
        <time>2018-07-23T06:32:39.000Z</time>
      </trkpt>
      <trkpt lat="42.368537" lon="-4.99981">
        <ele>815</ele>
        <time>2018-07-23T06:32:41.990Z</time>
      </trkpt>
      <trkpt lat="42.36863" lon="-4.99981">
        <ele>815</ele>
        <time>2018-07-23T06:32:44.990Z</time>
      </trkpt>
      <trkpt lat="42.368759" lon="-4.999788">
        <ele>815</ele>
        <time>2018-07-23T06:32:47.990Z</time>
      </trkpt>
      <trkpt lat="42.368864" lon="-4.99977">
        <ele>815</ele>
        <time>2018-07-23T06:32:50.990Z</time>
      </trkpt>
      <trkpt lat="42.368975" lon="-4.999744">
        <ele>815</ele>
        <time>2018-07-23T06:32:54.000Z</time>
      </trkpt>
      <trkpt lat="42.369083" lon="-4.999738">
        <ele>815</ele>
        <time>2018-07-23T06:32:56.990Z</time>
      </trkpt>
      <trkpt lat="42.369206" lon="-4.999724">
        <ele>815</ele>
        <time>2018-07-23T06:32:59.990Z</time>
      </trkpt>
      <trkpt lat="42.369331" lon="-4.999719">
        <ele>815</ele>
        <time>2018-07-23T06:33:02.990Z</time>
      </trkpt>
      <trkpt lat="42.36946" lon="-4.999703">
        <ele>816</ele>
        <time>2018-07-23T06:33:05.990Z</time>
      </trkpt>
      <trkpt lat="42.369554" lon="-4.999684">
        <ele>816</ele>
        <time>2018-07-23T06:33:07.990Z</time>
      </trkpt>
      <trkpt lat="42.369649" lon="-4.999666">
        <ele>816</ele>
        <time>2018-07-23T06:33:09.990Z</time>
      </trkpt>
      <trkpt lat="42.369742" lon="-4.999651">
        <ele>816</ele>
        <time>2018-07-23T06:33:11.990Z</time>
      </trkpt>
      <trkpt lat="42.369837" lon="-4.999629">
        <ele>816</ele>
        <time>2018-07-23T06:33:14.000Z</time>
      </trkpt>
      <trkpt lat="42.369936" lon="-4.999615">
        <ele>816</ele>
        <time>2018-07-23T06:33:15.990Z</time>
      </trkpt>
      <trkpt lat="42.370029" lon="-4.999597">
        <ele>816</ele>
        <time>2018-07-23T06:33:17.990Z</time>
      </trkpt>
      <trkpt lat="42.370149" lon="-4.999562">
        <ele>817</ele>
        <time>2018-07-23T06:33:20.990Z</time>
      </trkpt>
      <trkpt lat="42.370241" lon="-4.999542">
        <ele>817</ele>
        <time>2018-07-23T06:33:22.990Z</time>
      </trkpt>
      <trkpt lat="42.370328" lon="-4.99951">
        <ele>817</ele>
        <time>2018-07-23T06:33:24.990Z</time>
      </trkpt>
      <trkpt lat="42.370437" lon="-4.999482">
        <ele>817</ele>
        <time>2018-07-23T06:33:27.990Z</time>
      </trkpt>
      <trkpt lat="42.370507" lon="-4.999575">
        <ele>816</ele>
        <time>2018-07-23T06:33:31.990Z</time>
      </trkpt>
      <trkpt lat="42.370568" lon="-4.999684">
        <ele>816</ele>
        <time>2018-07-23T06:33:36.990Z</time>
      </trkpt>
      <trkpt lat="42.370595" lon="-4.999832">
        <ele>816</ele>
        <time>2018-07-23T06:33:40.990Z</time>
      </trkpt>
      <trkpt lat="42.370585" lon="-4.999955">
        <ele>816</ele>
        <time>2018-07-23T06:33:44.990Z</time>
      </trkpt>
      <trkpt lat="42.370546" lon="-5.000094">
        <ele>816</ele>
        <time>2018-07-23T06:33:49.990Z</time>
      </trkpt>
      <trkpt lat="42.370501" lon="-5.000204">
        <ele>816</ele>
        <time>2018-07-23T06:33:52.990Z</time>
      </trkpt>
      <trkpt lat="42.370442" lon="-5.000303">
        <ele>816</ele>
        <time>2018-07-23T06:33:55.990Z</time>
      </trkpt>
      <trkpt lat="42.370374" lon="-5.000403">
        <ele>815</ele>
        <time>2018-07-23T06:33:59.000Z</time>
      </trkpt>
      <trkpt lat="42.370291" lon="-5.000495">
        <ele>815</ele>
        <time>2018-07-23T06:34:01.990Z</time>
      </trkpt>
      <trkpt lat="42.370209" lon="-5.000584">
        <ele>815</ele>
        <time>2018-07-23T06:34:04.990Z</time>
      </trkpt>
      <trkpt lat="42.370129" lon="-5.000695">
        <ele>815</ele>
        <time>2018-07-23T06:34:07.990Z</time>
      </trkpt>
      <trkpt lat="42.370039" lon="-5.000813">
        <ele>815</ele>
        <time>2018-07-23T06:34:10.990Z</time>
      </trkpt>
      <trkpt lat="42.369953" lon="-5.000937">
        <ele>815</ele>
        <time>2018-07-23T06:34:14.000Z</time>
      </trkpt>
      <trkpt lat="42.369881" lon="-5.001065">
        <ele>815</ele>
        <time>2018-07-23T06:34:16.990Z</time>
      </trkpt>
      <trkpt lat="42.369813" lon="-5.001208">
        <ele>815</ele>
        <time>2018-07-23T06:34:19.990Z</time>
      </trkpt>
      <trkpt lat="42.369767" lon="-5.001348">
        <ele>815</ele>
        <time>2018-07-23T06:34:22.990Z</time>
      </trkpt>
      <trkpt lat="42.369731" lon="-5.001484">
        <ele>815</ele>
        <time>2018-07-23T06:34:25.990Z</time>
      </trkpt>
      <trkpt lat="42.369696" lon="-5.001639">
        <ele>815</ele>
        <time>2018-07-23T06:34:29.000Z</time>
      </trkpt>
      <trkpt lat="42.36967" lon="-5.001787">
        <ele>815</ele>
        <time>2018-07-23T06:34:31.990Z</time>
      </trkpt>
      <trkpt lat="42.369634" lon="-5.001954">
        <ele>815</ele>
        <time>2018-07-23T06:34:34.990Z</time>
      </trkpt>
      <trkpt lat="42.369601" lon="-5.002126">
        <ele>815</ele>
        <time>2018-07-23T06:34:37.990Z</time>
      </trkpt>
      <trkpt lat="42.369575" lon="-5.002299">
        <ele>815</ele>
        <time>2018-07-23T06:34:40.990Z</time>
      </trkpt>
      <trkpt lat="42.369546" lon="-5.002469">
        <ele>816</ele>
        <time>2018-07-23T06:34:44.000Z</time>
      </trkpt>
      <trkpt lat="42.369527" lon="-5.002625">
        <ele>816</ele>
        <time>2018-07-23T06:34:46.990Z</time>
      </trkpt>
      <trkpt lat="42.369516" lon="-5.00279">
        <ele>816</ele>
        <time>2018-07-23T06:34:49.990Z</time>
      </trkpt>
      <trkpt lat="42.369508" lon="-5.002963">
        <ele>816</ele>
        <time>2018-07-23T06:34:52.990Z</time>
      </trkpt>
      <trkpt lat="42.369504" lon="-5.003086">
        <ele>816</ele>
        <time>2018-07-23T06:34:54.990Z</time>
      </trkpt>
      <trkpt lat="42.369496" lon="-5.003267">
        <ele>816</ele>
        <time>2018-07-23T06:34:57.990Z</time>
      </trkpt>
      <trkpt lat="42.369479" lon="-5.003395">
        <ele>816</ele>
        <time>2018-07-23T06:34:59.990Z</time>
      </trkpt>
      <trkpt lat="42.369477" lon="-5.003522">
        <ele>815</ele>
        <time>2018-07-23T06:35:01.990Z</time>
      </trkpt>
      <trkpt lat="42.369476" lon="-5.003652">
        <ele>815</ele>
        <time>2018-07-23T06:35:04.000Z</time>
      </trkpt>
      <trkpt lat="42.369473" lon="-5.003773">
        <ele>815</ele>
        <time>2018-07-23T06:35:05.990Z</time>
      </trkpt>
      <trkpt lat="42.369475" lon="-5.003956">
        <ele>815</ele>
        <time>2018-07-23T06:35:09.000Z</time>
      </trkpt>
      <trkpt lat="42.369469" lon="-5.004088">
        <ele>815</ele>
        <time>2018-07-23T06:35:10.990Z</time>
      </trkpt>
      <trkpt lat="42.369469" lon="-5.004216">
        <ele>815</ele>
        <time>2018-07-23T06:35:12.990Z</time>
      </trkpt>
      <trkpt lat="42.369471" lon="-5.004339">
        <ele>815</ele>
        <time>2018-07-23T06:35:14.990Z</time>
      </trkpt>
      <trkpt lat="42.369476" lon="-5.004462">
        <ele>815</ele>
        <time>2018-07-23T06:35:16.990Z</time>
      </trkpt>
      <trkpt lat="42.369472" lon="-5.004586">
        <ele>815</ele>
        <time>2018-07-23T06:35:19.000Z</time>
      </trkpt>
      <trkpt lat="42.369472" lon="-5.004712">
        <ele>815</ele>
        <time>2018-07-23T06:35:20.990Z</time>
      </trkpt>
      <trkpt lat="42.369473" lon="-5.00489">
        <ele>815</ele>
        <time>2018-07-23T06:35:24.000Z</time>
      </trkpt>
      <trkpt lat="42.369477" lon="-5.005014">
        <ele>815.32</ele>
        <time>2018-07-23T06:35:25.990Z</time>
      </trkpt>
      <trkpt lat="42.369479" lon="-5.005136">
        <ele>815.68</ele>
        <time>2018-07-23T06:35:27.990Z</time>
      </trkpt>
      <trkpt lat="42.369475" lon="-5.005258">
        <ele>815</ele>
        <time>2018-07-23T06:35:29.990Z</time>
      </trkpt>
      <trkpt lat="42.369477" lon="-5.005434">
        <ele>815.32</ele>
        <time>2018-07-23T06:35:32.990Z</time>
      </trkpt>
      <trkpt lat="42.369473" lon="-5.005608">
        <ele>816</ele>
        <time>2018-07-23T06:35:35.990Z</time>
      </trkpt>
      <trkpt lat="42.369473" lon="-5.00578">
        <ele>816</ele>
        <time>2018-07-23T06:35:39.000Z</time>
      </trkpt>
      <trkpt lat="42.36948" lon="-5.00595">
        <ele>816</ele>
        <time>2018-07-23T06:35:41.990Z</time>
      </trkpt>
      <trkpt lat="42.369477" lon="-5.006114">
        <ele>816</ele>
        <time>2018-07-23T06:35:44.990Z</time>
      </trkpt>
      <trkpt lat="42.369483" lon="-5.00629">
        <ele>816</ele>
        <time>2018-07-23T06:35:47.990Z</time>
      </trkpt>
      <trkpt lat="42.369492" lon="-5.006466">
        <ele>816</ele>
        <time>2018-07-23T06:35:50.990Z</time>
      </trkpt>
      <trkpt lat="42.369505" lon="-5.006636">
        <ele>816</ele>
        <time>2018-07-23T06:35:54.000Z</time>
      </trkpt>
      <trkpt lat="42.369518" lon="-5.006812">
        <ele>816.68</ele>
        <time>2018-07-23T06:35:56.990Z</time>
      </trkpt>
      <trkpt lat="42.369523" lon="-5.006936">
        <ele>816</ele>
        <time>2018-07-23T06:35:59.000Z</time>
      </trkpt>
      <trkpt lat="42.369548" lon="-5.007109">
        <ele>816</ele>
        <time>2018-07-23T06:36:01.990Z</time>
      </trkpt>
      <trkpt lat="42.369563" lon="-5.007285">
        <ele>816</ele>
        <time>2018-07-23T06:36:04.990Z</time>
      </trkpt>
      <trkpt lat="42.369585" lon="-5.007445">
        <ele>817</ele>
        <time>2018-07-23T06:36:07.990Z</time>
      </trkpt>
      <trkpt lat="42.369612" lon="-5.007562">
        <ele>817</ele>
        <time>2018-07-23T06:36:09.990Z</time>
      </trkpt>
      <trkpt lat="42.369629" lon="-5.007682">
        <ele>817</ele>
        <time>2018-07-23T06:36:11.990Z</time>
      </trkpt>
      <trkpt lat="42.36965" lon="-5.007805">
        <ele>817</ele>
        <time>2018-07-23T06:36:14.000Z</time>
      </trkpt>
      <trkpt lat="42.369667" lon="-5.007935">
        <ele>817</ele>
        <time>2018-07-23T06:36:15.990Z</time>
      </trkpt>
      <trkpt lat="42.369691" lon="-5.008053">
        <ele>817</ele>
        <time>2018-07-23T06:36:17.990Z</time>
      </trkpt>
      <trkpt lat="42.36971" lon="-5.008176">
        <ele>817</ele>
        <time>2018-07-23T06:36:19.990Z</time>
      </trkpt>
      <trkpt lat="42.369725" lon="-5.008299">
        <ele>817</ele>
        <time>2018-07-23T06:36:21.990Z</time>
      </trkpt>
      <trkpt lat="42.369739" lon="-5.008428">
        <ele>817.3299968</ele>
        <time>2018-07-23T06:36:24.000Z</time>
      </trkpt>
      <trkpt lat="42.369755" lon="-5.008555">
        <ele>818</ele>
        <time>2018-07-23T06:36:25.990Z</time>
      </trkpt>
      <trkpt lat="42.369778" lon="-5.008736">
        <ele>818</ele>
        <time>2018-07-23T06:36:29.000Z</time>
      </trkpt>
      <trkpt lat="42.369802" lon="-5.008904">
        <ele>818</ele>
        <time>2018-07-23T06:36:31.990Z</time>
      </trkpt>
      <trkpt lat="42.369812" lon="-5.009025">
        <ele>818</ele>
        <time>2018-07-23T06:36:34.000Z</time>
      </trkpt>
      <trkpt lat="42.36982" lon="-5.00915">
        <ele>819</ele>
        <time>2018-07-23T06:36:35.990Z</time>
      </trkpt>
      <trkpt lat="42.369824" lon="-5.009276">
        <ele>819</ele>
        <time>2018-07-23T06:36:37.990Z</time>
      </trkpt>
      <trkpt lat="42.36985" lon="-5.009441">
        <ele>819.306126980395</ele>
        <time>2018-07-23T06:36:40.990Z</time>
      </trkpt>
      <trkpt lat="42.36986" lon="-5.009564">
        <ele>820</ele>
        <time>2018-07-23T06:36:42.990Z</time>
      </trkpt>
      <trkpt lat="42.369863" lon="-5.009727">
        <ele>820</ele>
        <time>2018-07-23T06:36:45.990Z</time>
      </trkpt>
      <trkpt lat="42.36988" lon="-5.009883">
        <ele>821</ele>
        <time>2018-07-23T06:36:49.000Z</time>
      </trkpt>
      <trkpt lat="42.369897" lon="-5.010031">
        <ele>821</ele>
        <time>2018-07-23T06:36:51.990Z</time>
      </trkpt>
      <trkpt lat="42.369898" lon="-5.010185">
        <ele>821</ele>
        <time>2018-07-23T06:36:54.990Z</time>
      </trkpt>
      <trkpt lat="42.369897" lon="-5.010343">
        <ele>822</ele>
        <time>2018-07-23T06:36:57.990Z</time>
      </trkpt>
      <trkpt lat="42.369913" lon="-5.010507">
        <ele>822</ele>
        <time>2018-07-23T06:37:00.990Z</time>
      </trkpt>
      <trkpt lat="42.369932" lon="-5.010654">
        <ele>822</ele>
        <time>2018-07-23T06:37:04.000Z</time>
      </trkpt>
      <trkpt lat="42.369959" lon="-5.01081">
        <ele>822</ele>
        <time>2018-07-23T06:37:06.990Z</time>
      </trkpt>
      <trkpt lat="42.36998" lon="-5.010977">
        <ele>823</ele>
        <time>2018-07-23T06:37:09.990Z</time>
      </trkpt>
      <trkpt lat="42.369995" lon="-5.011147">
        <ele>823</ele>
        <time>2018-07-23T06:37:12.990Z</time>
      </trkpt>
      <trkpt lat="42.37001" lon="-5.011322">
        <ele>823</ele>
        <time>2018-07-23T06:37:15.990Z</time>
      </trkpt>
      <trkpt lat="42.370011" lon="-5.0115">
        <ele>823</ele>
        <time>2018-07-23T06:37:19.000Z</time>
      </trkpt>
      <trkpt lat="42.370012" lon="-5.011665">
        <ele>823</ele>
        <time>2018-07-23T06:37:21.990Z</time>
      </trkpt>
      <trkpt lat="42.370014" lon="-5.011846">
        <ele>823</ele>
        <time>2018-07-23T06:37:24.990Z</time>
      </trkpt>
      <trkpt lat="42.370015" lon="-5.012012">
        <ele>823</ele>
        <time>2018-07-23T06:37:27.990Z</time>
      </trkpt>
      <trkpt lat="42.370026" lon="-5.012162">
        <ele>823</ele>
        <time>2018-07-23T06:37:30.990Z</time>
      </trkpt>
      <trkpt lat="42.370085" lon="-5.01229">
        <ele>824</ele>
        <time>2018-07-23T06:37:34.000Z</time>
      </trkpt>
      <trkpt lat="42.370164" lon="-5.012395">
        <ele>824</ele>
        <time>2018-07-23T06:37:36.990Z</time>
      </trkpt>
      <trkpt lat="42.37024" lon="-5.012514">
        <ele>824</ele>
        <time>2018-07-23T06:37:39.990Z</time>
      </trkpt>
      <trkpt lat="42.370292" lon="-5.012652">
        <ele>824</ele>
        <time>2018-07-23T06:37:42.990Z</time>
      </trkpt>
      <trkpt lat="42.370278" lon="-5.012792">
        <ele>824</ele>
        <time>2018-07-23T06:37:45.990Z</time>
      </trkpt>
      <trkpt lat="42.370141" lon="-5.012966">
        <ele>824</ele>
        <time>2018-07-23T06:37:51.000Z</time>
      </trkpt>
      <trkpt lat="42.37008" lon="-5.013127">
        <ele>825</ele>
        <time>2018-07-23T06:37:54.000Z</time>
      </trkpt>
      <trkpt lat="42.370073" lon="-5.0133">
        <ele>825</ele>
        <time>2018-07-23T06:37:56.990Z</time>
      </trkpt>
      <trkpt lat="42.370092" lon="-5.013477">
        <ele>825</ele>
        <time>2018-07-23T06:38:00.000Z</time>
      </trkpt>
      <trkpt lat="42.3701" lon="-5.013611">
        <ele>825</ele>
        <time>2018-07-23T06:38:01.990Z</time>
      </trkpt>
      <trkpt lat="42.370112" lon="-5.013784">
        <ele>825</ele>
        <time>2018-07-23T06:38:05.000Z</time>
      </trkpt>
      <trkpt lat="42.370126" lon="-5.013961">
        <ele>825</ele>
        <time>2018-07-23T06:38:07.990Z</time>
      </trkpt>
      <trkpt lat="42.370137" lon="-5.014083">
        <ele>825</ele>
        <time>2018-07-23T06:38:10.000Z</time>
      </trkpt>
      <trkpt lat="42.370142" lon="-5.014209">
        <ele>825</ele>
        <time>2018-07-23T06:38:11.990Z</time>
      </trkpt>
      <trkpt lat="42.370146" lon="-5.014333">
        <ele>825</ele>
        <time>2018-07-23T06:38:13.990Z</time>
      </trkpt>
      <trkpt lat="42.370147" lon="-5.014455">
        <ele>825</ele>
        <time>2018-07-23T06:38:15.990Z</time>
      </trkpt>
      <trkpt lat="42.370139" lon="-5.014638">
        <ele>825</ele>
        <time>2018-07-23T06:38:18.990Z</time>
      </trkpt>
      <trkpt lat="42.370131" lon="-5.014815">
        <ele>825</ele>
        <time>2018-07-23T06:38:21.990Z</time>
      </trkpt>
      <trkpt lat="42.370121" lon="-5.014939">
        <ele>825</ele>
        <time>2018-07-23T06:38:23.990Z</time>
      </trkpt>
      <trkpt lat="42.370102" lon="-5.015064">
        <ele>825</ele>
        <time>2018-07-23T06:38:25.990Z</time>
      </trkpt>
      <trkpt lat="42.370082" lon="-5.015239">
        <ele>825</ele>
        <time>2018-07-23T06:38:28.990Z</time>
      </trkpt>
      <trkpt lat="42.370071" lon="-5.015362">
        <ele>825</ele>
        <time>2018-07-23T06:38:30.990Z</time>
      </trkpt>
      <trkpt lat="42.370058" lon="-5.015493">
        <ele>825</ele>
        <time>2018-07-23T06:38:32.990Z</time>
      </trkpt>
      <trkpt lat="42.370049" lon="-5.015621">
        <ele>825</ele>
        <time>2018-07-23T06:38:35.000Z</time>
      </trkpt>
      <trkpt lat="42.370037" lon="-5.01579">
        <ele>826</ele>
        <time>2018-07-23T06:38:37.990Z</time>
      </trkpt>
      <trkpt lat="42.370026" lon="-5.015969">
        <ele>826</ele>
        <time>2018-07-23T06:38:40.990Z</time>
      </trkpt>
      <trkpt lat="42.370028" lon="-5.016142">
        <ele>827</ele>
        <time>2018-07-23T06:38:43.990Z</time>
      </trkpt>
      <trkpt lat="42.370028" lon="-5.016315">
        <ele>827</ele>
        <time>2018-07-23T06:38:46.990Z</time>
      </trkpt>
      <trkpt lat="42.370013" lon="-5.016475">
        <ele>827</ele>
        <time>2018-07-23T06:38:50.000Z</time>
      </trkpt>
      <trkpt lat="42.370023" lon="-5.016657">
        <ele>828</ele>
        <time>2018-07-23T06:38:52.990Z</time>
      </trkpt>
      <trkpt lat="42.370029" lon="-5.016784">
        <ele>828</ele>
        <time>2018-07-23T06:38:55.000Z</time>
      </trkpt>
      <trkpt lat="42.37004" lon="-5.016955">
        <ele>828</ele>
        <time>2018-07-23T06:38:57.990Z</time>
      </trkpt>
      <trkpt lat="42.370048" lon="-5.01714">
        <ele>829</ele>
        <time>2018-07-23T06:39:00.990Z</time>
      </trkpt>
      <trkpt lat="42.370046" lon="-5.017264">
        <ele>829</ele>
        <time>2018-07-23T06:39:02.990Z</time>
      </trkpt>
      <trkpt lat="42.37004" lon="-5.017391">
        <ele>829</ele>
        <time>2018-07-23T06:39:05.000Z</time>
      </trkpt>
      <trkpt lat="42.370027" lon="-5.017517">
        <ele>829</ele>
        <time>2018-07-23T06:39:06.990Z</time>
      </trkpt>
      <trkpt lat="42.370024" lon="-5.017645">
        <ele>829</ele>
        <time>2018-07-23T06:39:08.990Z</time>
      </trkpt>
      <trkpt lat="42.370031" lon="-5.01777">
        <ele>829</ele>
        <time>2018-07-23T06:39:10.990Z</time>
      </trkpt>
      <trkpt lat="42.370031" lon="-5.017897">
        <ele>829</ele>
        <time>2018-07-23T06:39:12.990Z</time>
      </trkpt>
      <trkpt lat="42.370031" lon="-5.018022">
        <ele>829</ele>
        <time>2018-07-23T06:39:15.000Z</time>
      </trkpt>
      <trkpt lat="42.370026" lon="-5.018199">
        <ele>829</ele>
        <time>2018-07-23T06:39:17.990Z</time>
      </trkpt>
      <trkpt lat="42.370027" lon="-5.018383">
        <ele>829</ele>
        <time>2018-07-23T06:39:20.990Z</time>
      </trkpt>
      <trkpt lat="42.370038" lon="-5.018504">
        <ele>829</ele>
        <time>2018-07-23T06:39:22.990Z</time>
      </trkpt>
      <trkpt lat="42.37005" lon="-5.018632">
        <ele>829</ele>
        <time>2018-07-23T06:39:25.000Z</time>
      </trkpt>
      <trkpt lat="42.370065" lon="-5.018811">
        <ele>829</ele>
        <time>2018-07-23T06:39:27.990Z</time>
      </trkpt>
      <trkpt lat="42.370067" lon="-5.018991">
        <ele>829</ele>
        <time>2018-07-23T06:39:30.990Z</time>
      </trkpt>
      <trkpt lat="42.370081" lon="-5.019114">
        <ele>829</ele>
        <time>2018-07-23T06:39:32.990Z</time>
      </trkpt>
      <trkpt lat="42.370083" lon="-5.019292">
        <ele>829.313727458682</ele>
        <time>2018-07-23T06:39:35.990Z</time>
      </trkpt>
      <trkpt lat="42.370096" lon="-5.019415">
        <ele>829.9799936</ele>
        <time>2018-07-23T06:39:37.990Z</time>
      </trkpt>
      <trkpt lat="42.370097" lon="-5.01954">
        <ele>829</ele>
        <time>2018-07-23T06:39:40.000Z</time>
      </trkpt>
      <trkpt lat="42.370116" lon="-5.019702">
        <ele>830</ele>
        <time>2018-07-23T06:39:42.990Z</time>
      </trkpt>
      <trkpt lat="42.370133" lon="-5.019868">
        <ele>830</ele>
        <time>2018-07-23T06:39:45.990Z</time>
      </trkpt>
      <trkpt lat="42.370139" lon="-5.020032">
        <ele>831</ele>
        <time>2018-07-23T06:39:48.990Z</time>
      </trkpt>
      <trkpt lat="42.370136" lon="-5.020197">
        <ele>831</ele>
        <time>2018-07-23T06:39:51.990Z</time>
      </trkpt>
      <trkpt lat="42.370139" lon="-5.020369">
        <ele>832</ele>
        <time>2018-07-23T06:39:55.000Z</time>
      </trkpt>
      <trkpt lat="42.370149" lon="-5.020523">
        <ele>832</ele>
        <time>2018-07-23T06:39:57.990Z</time>
      </trkpt>
      <trkpt lat="42.370166" lon="-5.020676">
        <ele>832</ele>
        <time>2018-07-23T06:40:00.990Z</time>
      </trkpt>
      <trkpt lat="42.370174" lon="-5.020833">
        <ele>833</ele>
        <time>2018-07-23T06:40:03.990Z</time>
      </trkpt>
      <trkpt lat="42.370185" lon="-5.020995">
        <ele>833.32</ele>
        <time>2018-07-23T06:40:06.990Z</time>
      </trkpt>
      <trkpt lat="42.370207" lon="-5.021156">
        <ele>834</ele>
        <time>2018-07-23T06:40:10.000Z</time>
      </trkpt>
      <trkpt lat="42.370206" lon="-5.021317">
        <ele>834</ele>
        <time>2018-07-23T06:40:12.990Z</time>
      </trkpt>
      <trkpt lat="42.370184" lon="-5.021459">
        <ele>835</ele>
        <time>2018-07-23T06:40:15.990Z</time>
      </trkpt>
      <trkpt lat="42.370172" lon="-5.021614">
        <ele>835</ele>
        <time>2018-07-23T06:40:20.000Z</time>
      </trkpt>
      <trkpt lat="42.370223" lon="-5.021724">
        <ele>835</ele>
        <time>2018-07-23T06:40:23.990Z</time>
      </trkpt>
      <trkpt lat="42.370263" lon="-5.021849">
        <ele>835</ele>
        <time>2018-07-23T06:40:27.990Z</time>
      </trkpt>
      <trkpt lat="42.370256" lon="-5.021974">
        <ele>835</ele>
        <time>2018-07-23T06:40:31.990Z</time>
      </trkpt>
      <trkpt lat="42.370234" lon="-5.022128">
        <ele>835</ele>
        <time>2018-07-23T06:40:36.990Z</time>
      </trkpt>
      <trkpt lat="42.37021" lon="-5.02227">
        <ele>835</ele>
        <time>2018-07-23T06:40:40.000Z</time>
      </trkpt>
      <trkpt lat="42.370202" lon="-5.022434">
        <ele>835</ele>
        <time>2018-07-23T06:40:42.990Z</time>
      </trkpt>
      <trkpt lat="42.370211" lon="-5.022602">
        <ele>835</ele>
        <time>2018-07-23T06:40:45.990Z</time>
      </trkpt>
      <trkpt lat="42.370228" lon="-5.022745">
        <ele>835</ele>
        <time>2018-07-23T06:40:48.990Z</time>
      </trkpt>
      <trkpt lat="42.370274" lon="-5.022896">
        <ele>836</ele>
        <time>2018-07-23T06:40:51.990Z</time>
      </trkpt>
      <trkpt lat="42.370342" lon="-5.023034">
        <ele>836</ele>
        <time>2018-07-23T06:40:55.000Z</time>
      </trkpt>
      <trkpt lat="42.370415" lon="-5.023176">
        <ele>836</ele>
        <time>2018-07-23T06:40:57.990Z</time>
      </trkpt>
      <trkpt lat="42.370475" lon="-5.023309">
        <ele>836</ele>
        <time>2018-07-23T06:41:00.990Z</time>
      </trkpt>
      <trkpt lat="42.370544" lon="-5.023451">
        <ele>836</ele>
        <time>2018-07-23T06:41:03.990Z</time>
      </trkpt>
      <trkpt lat="42.370628" lon="-5.023581">
        <ele>836.316832686995</ele>
        <time>2018-07-23T06:41:06.990Z</time>
      </trkpt>
      <trkpt lat="42.37073" lon="-5.023671">
        <ele>837</ele>
        <time>2018-07-23T06:41:10.000Z</time>
      </trkpt>
      <trkpt lat="42.370831" lon="-5.023752">
        <ele>838</ele>
        <time>2018-07-23T06:41:12.990Z</time>
      </trkpt>
      <trkpt lat="42.370927" lon="-5.023858">
        <ele>838</ele>
        <time>2018-07-23T06:41:15.990Z</time>
      </trkpt>
      <trkpt lat="42.371005" lon="-5.02398">
        <ele>838</ele>
        <time>2018-07-23T06:41:18.990Z</time>
      </trkpt>
      <trkpt lat="42.371053" lon="-5.024119">
        <ele>838</ele>
        <time>2018-07-23T06:41:21.990Z</time>
      </trkpt>
      <trkpt lat="42.371071" lon="-5.024265">
        <ele>839</ele>
        <time>2018-07-23T06:41:25.000Z</time>
      </trkpt>
      <trkpt lat="42.371108" lon="-5.024415">
        <ele>839</ele>
        <time>2018-07-23T06:41:29.100Z</time>
      </trkpt>
      <trkpt lat="42.371118" lon="-5.024576">
        <ele>839</ele>
        <time>2018-07-23T06:41:32.000Z</time>
      </trkpt>
      <trkpt lat="42.37113" lon="-5.024746">
        <ele>840</ele>
        <time>2018-07-23T06:41:34.990Z</time>
      </trkpt>
      <trkpt lat="42.371131" lon="-5.024902">
        <ele>840</ele>
        <time>2018-07-23T06:41:38.000Z</time>
      </trkpt>
      <trkpt lat="42.371146" lon="-5.025072">
        <ele>841</ele>
        <time>2018-07-23T06:41:40.990Z</time>
      </trkpt>
      <trkpt lat="42.371193" lon="-5.025205">
        <ele>841</ele>
        <time>2018-07-23T06:41:43.990Z</time>
      </trkpt>
      <trkpt lat="42.371265" lon="-5.025336">
        <ele>841</ele>
        <time>2018-07-23T06:41:47.000Z</time>
      </trkpt>
      <trkpt lat="42.371329" lon="-5.025468">
        <ele>841</ele>
        <time>2018-07-23T06:41:49.990Z</time>
      </trkpt>
      <trkpt lat="42.371391" lon="-5.025603">
        <ele>842</ele>
        <time>2018-07-23T06:41:53.000Z</time>
      </trkpt>
      <trkpt lat="42.371437" lon="-5.025745">
        <ele>842</ele>
        <time>2018-07-23T06:41:55.990Z</time>
      </trkpt>
      <trkpt lat="42.371417" lon="-5.025878">
        <ele>842</ele>
        <time>2018-07-23T06:41:58.990Z</time>
      </trkpt>
      <trkpt lat="42.371329" lon="-5.025978">
        <ele>842</ele>
        <time>2018-07-23T06:42:01.990Z</time>
      </trkpt>
      <trkpt lat="42.371252" lon="-5.026069">
        <ele>842</ele>
        <time>2018-07-23T06:42:04.990Z</time>
      </trkpt>
      <trkpt lat="42.371144" lon="-5.02616">
        <ele>842</ele>
        <time>2018-07-23T06:42:08.100Z</time>
      </trkpt>
      <trkpt lat="42.371038" lon="-5.026277">
        <ele>841.971005620791</ele>
        <time>2018-07-23T06:42:11.000Z</time>
      </trkpt>
      <trkpt lat="42.370958" lon="-5.026334">
        <ele>840</ele>
        <time>2018-07-23T06:42:13.000Z</time>
      </trkpt>
      <trkpt lat="42.37087" lon="-5.026377">
        <ele>840</ele>
        <time>2018-07-23T06:42:16.000Z</time>
      </trkpt>
      <trkpt lat="42.37093" lon="-5.026276">
        <ele>840</ele>
        <time>2018-07-23T06:42:43.990Z</time>
      </trkpt>
      <trkpt lat="42.371018" lon="-5.026185">
        <ele>840</ele>
        <time>2018-07-23T06:42:46.990Z</time>
      </trkpt>
      <trkpt lat="42.371108" lon="-5.026117">
        <ele>841</ele>
        <time>2018-07-23T06:42:51.990Z</time>
      </trkpt>
      <trkpt lat="42.371204" lon="-5.026173">
        <ele>842</ele>
        <time>2018-07-23T06:42:56.990Z</time>
      </trkpt>
      <trkpt lat="42.371262" lon="-5.026283">
        <ele>842</ele>
        <time>2018-07-23T06:43:00.000Z</time>
      </trkpt>
      <trkpt lat="42.371349" lon="-5.026397">
        <ele>842</ele>
        <time>2018-07-23T06:43:02.990Z</time>
      </trkpt>
      <trkpt lat="42.371419" lon="-5.026541">
        <ele>842</ele>
        <time>2018-07-23T06:43:05.990Z</time>
      </trkpt>
      <trkpt lat="42.371467" lon="-5.026645">
        <ele>842</ele>
        <time>2018-07-23T06:43:07.990Z</time>
      </trkpt>
      <trkpt lat="42.371503" lon="-5.026759">
        <ele>842</ele>
        <time>2018-07-23T06:43:10.000Z</time>
      </trkpt>
      <trkpt lat="42.371558" lon="-5.026925">
        <ele>842</ele>
        <time>2018-07-23T06:43:12.990Z</time>
      </trkpt>
      <trkpt lat="42.371599" lon="-5.02704">
        <ele>842</ele>
        <time>2018-07-23T06:43:15.000Z</time>
      </trkpt>
      <trkpt lat="42.371656" lon="-5.027147">
        <ele>842</ele>
        <time>2018-07-23T06:43:16.990Z</time>
      </trkpt>
      <trkpt lat="42.371709" lon="-5.027258">
        <ele>842</ele>
        <time>2018-07-23T06:43:18.990Z</time>
      </trkpt>
      <trkpt lat="42.371781" lon="-5.027405">
        <ele>842</ele>
        <time>2018-07-23T06:43:21.990Z</time>
      </trkpt>
      <trkpt lat="42.371834" lon="-5.027504">
        <ele>842.014488183134</ele>
        <time>2018-07-23T06:43:23.990Z</time>
      </trkpt>
      <trkpt lat="42.3719" lon="-5.0276">
        <ele>843</ele>
        <time>2018-07-23T06:43:25.990Z</time>
      </trkpt>
      <trkpt lat="42.371967" lon="-5.027705">
        <ele>843</ele>
        <time>2018-07-23T06:43:27.990Z</time>
      </trkpt>
      <trkpt lat="42.372041" lon="-5.027802">
        <ele>841.6700032</ele>
        <time>2018-07-23T06:43:30.000Z</time>
      </trkpt>
      <trkpt lat="42.372117" lon="-5.027892">
        <ele>841</ele>
        <time>2018-07-23T06:43:31.990Z</time>
      </trkpt>
      <trkpt lat="42.372205" lon="-5.027989">
        <ele>840.985511816866</ele>
        <time>2018-07-23T06:43:33.990Z</time>
      </trkpt>
      <trkpt lat="42.372309" lon="-5.028104">
        <ele>839</ele>
        <time>2018-07-23T06:43:35.990Z</time>
      </trkpt>
      <trkpt lat="42.372426" lon="-5.028208">
        <ele>838</ele>
        <time>2018-07-23T06:43:37.990Z</time>
      </trkpt>
      <trkpt lat="42.372545" lon="-5.028315">
        <ele>837.6700032</ele>
        <time>2018-07-23T06:43:40.000Z</time>
      </trkpt>
      <trkpt lat="42.37267" lon="-5.028428">
        <ele>837</ele>
        <time>2018-07-23T06:43:41.990Z</time>
      </trkpt>
      <trkpt lat="42.372797" lon="-5.028552">
        <ele>835</ele>
        <time>2018-07-23T06:43:43.990Z</time>
      </trkpt>
      <trkpt lat="42.372919" lon="-5.028668">
        <ele>834.985511816866</ele>
        <time>2018-07-23T06:43:45.990Z</time>
      </trkpt>
      <trkpt lat="42.373045" lon="-5.028796">
        <ele>833.007516409062</ele>
        <time>2018-07-23T06:43:47.990Z</time>
      </trkpt>
      <trkpt lat="42.373166" lon="-5.028944">
        <ele>831</ele>
        <time>2018-07-23T06:43:50.000Z</time>
      </trkpt>
      <trkpt lat="42.373269" lon="-5.029097">
        <ele>831</ele>
        <time>2018-07-23T06:43:51.990Z</time>
      </trkpt>
      <trkpt lat="42.373347" lon="-5.029251">
        <ele>831</ele>
        <time>2018-07-23T06:43:53.990Z</time>
      </trkpt>
      <trkpt lat="42.373408" lon="-5.029372">
        <ele>830.68</ele>
        <time>2018-07-23T06:43:55.990Z</time>
      </trkpt>
      <trkpt lat="42.373488" lon="-5.029506">
        <ele>829.68</ele>
        <time>2018-07-23T06:43:57.990Z</time>
      </trkpt>
      <trkpt lat="42.373591" lon="-5.029626">
        <ele>828</ele>
        <time>2018-07-23T06:44:00.000Z</time>
      </trkpt>
      <trkpt lat="42.3737" lon="-5.029704">
        <ele>828</ele>
        <time>2018-07-23T06:44:01.990Z</time>
      </trkpt>
      <trkpt lat="42.373807" lon="-5.029796">
        <ele>827.753844942006</ele>
        <time>2018-07-23T06:44:03.990Z</time>
      </trkpt>
      <trkpt lat="42.373915" lon="-5.029854">
        <ele>826.68</ele>
        <time>2018-07-23T06:44:05.990Z</time>
      </trkpt>
      <trkpt lat="42.374015" lon="-5.029892">
        <ele>826</ele>
        <time>2018-07-23T06:44:07.990Z</time>
      </trkpt>
      <trkpt lat="42.374116" lon="-5.029932">
        <ele>826</ele>
        <time>2018-07-23T06:44:10.000Z</time>
      </trkpt>
      <trkpt lat="42.374206" lon="-5.029962">
        <ele>826</ele>
        <time>2018-07-23T06:44:11.990Z</time>
      </trkpt>
      <trkpt lat="42.374333" lon="-5.030016">
        <ele>825</ele>
        <time>2018-07-23T06:44:15.000Z</time>
      </trkpt>
      <trkpt lat="42.374422" lon="-5.030055">
        <ele>825</ele>
        <time>2018-07-23T06:44:16.990Z</time>
      </trkpt>
      <trkpt lat="42.374548" lon="-5.030109">
        <ele>825</ele>
        <time>2018-07-23T06:44:20.000Z</time>
      </trkpt>
      <trkpt lat="42.374642" lon="-5.030145">
        <ele>825</ele>
        <time>2018-07-23T06:44:21.990Z</time>
      </trkpt>
      <trkpt lat="42.374736" lon="-5.030176">
        <ele>825</ele>
        <time>2018-07-23T06:44:23.990Z</time>
      </trkpt>
      <trkpt lat="42.374836" lon="-5.030202">
        <ele>825</ele>
        <time>2018-07-23T06:44:25.990Z</time>
      </trkpt>
      <trkpt lat="42.37493" lon="-5.030237">
        <ele>825</ele>
        <time>2018-07-23T06:44:27.990Z</time>
      </trkpt>
      <trkpt lat="42.375021" lon="-5.030271">
        <ele>825</ele>
        <time>2018-07-23T06:44:30.000Z</time>
      </trkpt>
      <trkpt lat="42.375111" lon="-5.030304">
        <ele>825</ele>
        <time>2018-07-23T06:44:31.990Z</time>
      </trkpt>
      <trkpt lat="42.375195" lon="-5.030361">
        <ele>825</ele>
        <time>2018-07-23T06:44:33.990Z</time>
      </trkpt>
      <trkpt lat="42.375279" lon="-5.030407">
        <ele>824.68</ele>
        <time>2018-07-23T06:44:35.990Z</time>
      </trkpt>
      <trkpt lat="42.375395" lon="-5.030461">
        <ele>824</ele>
        <time>2018-07-23T06:44:38.990Z</time>
      </trkpt>
      <trkpt lat="42.3755" lon="-5.030517">
        <ele>824</ele>
        <time>2018-07-23T06:44:42.990Z</time>
      </trkpt>
      <trkpt lat="42.375577" lon="-5.030621">
        <ele>824</ele>
        <time>2018-07-23T06:44:48.990Z</time>
      </trkpt>
      <trkpt lat="42.375584" lon="-5.030772">
        <ele>823</ele>
        <time>2018-07-23T06:44:52.990Z</time>
      </trkpt>
      <trkpt lat="42.37556" lon="-5.030904">
        <ele>823</ele>
        <time>2018-07-23T06:44:55.990Z</time>
      </trkpt>
      <trkpt lat="42.375527" lon="-5.031026">
        <ele>823</ele>
        <time>2018-07-23T06:44:58.990Z</time>
      </trkpt>
      <trkpt lat="42.375481" lon="-5.031136">
        <ele>823</ele>
        <time>2018-07-23T06:45:01.990Z</time>
      </trkpt>
      <trkpt lat="42.375408" lon="-5.03123">
        <ele>823</ele>
        <time>2018-07-23T06:45:05.000Z</time>
      </trkpt>
      <trkpt lat="42.375327" lon="-5.031325">
        <ele>823</ele>
        <time>2018-07-23T06:45:07.990Z</time>
      </trkpt>
      <trkpt lat="42.375236" lon="-5.031417">
        <ele>823.32</ele>
        <time>2018-07-23T06:45:10.990Z</time>
      </trkpt>
      <trkpt lat="42.37514" lon="-5.031464">
        <ele>824</ele>
        <time>2018-07-23T06:45:13.990Z</time>
      </trkpt>
      <trkpt lat="42.375027" lon="-5.031513">
        <ele>824</ele>
        <time>2018-07-23T06:45:16.990Z</time>
      </trkpt>
      <trkpt lat="42.374909" lon="-5.031569">
        <ele>824</ele>
        <time>2018-07-23T06:45:20.000Z</time>
      </trkpt>
      <trkpt lat="42.374792" lon="-5.031626">
        <ele>824</ele>
        <time>2018-07-23T06:45:22.990Z</time>
      </trkpt>
      <trkpt lat="42.374698" lon="-5.031654">
        <ele>824</ele>
        <time>2018-07-23T06:45:25.000Z</time>
      </trkpt>
      <trkpt lat="42.374602" lon="-5.031689">
        <ele>823.68</ele>
        <time>2018-07-23T06:45:26.990Z</time>
      </trkpt>
      <trkpt lat="42.374503" lon="-5.031733">
        <ele>823</ele>
        <time>2018-07-23T06:45:28.990Z</time>
      </trkpt>
      <trkpt lat="42.374406" lon="-5.03178">
        <ele>823</ele>
        <time>2018-07-23T06:45:30.990Z</time>
      </trkpt>
      <trkpt lat="42.374314" lon="-5.031848">
        <ele>823</ele>
        <time>2018-07-23T06:45:32.990Z</time>
      </trkpt>
      <trkpt lat="42.37422" lon="-5.031917">
        <ele>823</ele>
        <time>2018-07-23T06:45:35.000Z</time>
      </trkpt>
      <trkpt lat="42.374141" lon="-5.031982">
        <ele>823</ele>
        <time>2018-07-23T06:45:36.990Z</time>
      </trkpt>
      <trkpt lat="42.374055" lon="-5.032048">
        <ele>823</ele>
        <time>2018-07-23T06:45:38.990Z</time>
      </trkpt>
      <trkpt lat="42.373962" lon="-5.032109">
        <ele>823</ele>
        <time>2018-07-23T06:45:40.990Z</time>
      </trkpt>
      <trkpt lat="42.373875" lon="-5.032173">
        <ele>823</ele>
        <time>2018-07-23T06:45:42.990Z</time>
      </trkpt>
      <trkpt lat="42.37379" lon="-5.032234">
        <ele>823</ele>
        <time>2018-07-23T06:45:45.000Z</time>
      </trkpt>
      <trkpt lat="42.373699" lon="-5.032289">
        <ele>823</ele>
        <time>2018-07-23T06:45:46.990Z</time>
      </trkpt>
      <trkpt lat="42.373612" lon="-5.032345">
        <ele>822</ele>
        <time>2018-07-23T06:45:48.990Z</time>
      </trkpt>
      <trkpt lat="42.373523" lon="-5.032406">
        <ele>822.313133533306</ele>
        <time>2018-07-23T06:45:50.990Z</time>
      </trkpt>
      <trkpt lat="42.373428" lon="-5.032465">
        <ele>823</ele>
        <time>2018-07-23T06:45:52.990Z</time>
      </trkpt>
      <trkpt lat="42.373343" lon="-5.032528">
        <ele>823</ele>
        <time>2018-07-23T06:45:55.000Z</time>
      </trkpt>
      <trkpt lat="42.373259" lon="-5.032588">
        <ele>823</ele>
        <time>2018-07-23T06:45:56.990Z</time>
      </trkpt>
      <trkpt lat="42.373163" lon="-5.032647">
        <ele>823</ele>
        <time>2018-07-23T06:45:58.990Z</time>
      </trkpt>
      <trkpt lat="42.373067" lon="-5.032697">
        <ele>823</ele>
        <time>2018-07-23T06:46:00.990Z</time>
      </trkpt>
      <trkpt lat="42.372976" lon="-5.032741">
        <ele>823</ele>
        <time>2018-07-23T06:46:03.000Z</time>
      </trkpt>
      <trkpt lat="42.372869" lon="-5.03279">
        <ele>822</ele>
        <time>2018-07-23T06:46:05.000Z</time>
      </trkpt>
      <trkpt lat="42.372761" lon="-5.03281">
        <ele>822</ele>
        <time>2018-07-23T06:46:06.990Z</time>
      </trkpt>
      <trkpt lat="42.37265" lon="-5.032855">
        <ele>822</ele>
        <time>2018-07-23T06:46:08.990Z</time>
      </trkpt>
      <trkpt lat="42.372547" lon="-5.032896">
        <ele>822</ele>
        <time>2018-07-23T06:46:10.990Z</time>
      </trkpt>
      <trkpt lat="42.37245" lon="-5.032924">
        <ele>822</ele>
        <time>2018-07-23T06:46:12.990Z</time>
      </trkpt>
      <trkpt lat="42.372339" lon="-5.032966">
        <ele>821</ele>
        <time>2018-07-23T06:46:15.000Z</time>
      </trkpt>
      <trkpt lat="42.372246" lon="-5.033031">
        <ele>821</ele>
        <time>2018-07-23T06:46:16.990Z</time>
      </trkpt>
      <trkpt lat="42.372146" lon="-5.033079">
        <ele>820.009705600915</ele>
        <time>2018-07-23T06:46:18.990Z</time>
      </trkpt>
      <trkpt lat="42.372042" lon="-5.033131">
        <ele>820</ele>
        <time>2018-07-23T06:46:20.990Z</time>
      </trkpt>
      <trkpt lat="42.371936" lon="-5.033191">
        <ele>820</ele>
        <time>2018-07-23T06:46:22.990Z</time>
      </trkpt>
      <trkpt lat="42.371829" lon="-5.033246">
        <ele>820</ele>
        <time>2018-07-23T06:46:25.000Z</time>
      </trkpt>
      <trkpt lat="42.371723" lon="-5.033297">
        <ele>820</ele>
        <time>2018-07-23T06:46:26.990Z</time>
      </trkpt>
      <trkpt lat="42.371629" lon="-5.033353">
        <ele>820</ele>
        <time>2018-07-23T06:46:28.990Z</time>
      </trkpt>
      <trkpt lat="42.371532" lon="-5.033399">
        <ele>820</ele>
        <time>2018-07-23T06:46:30.990Z</time>
      </trkpt>
      <trkpt lat="42.371439" lon="-5.033437">
        <ele>820</ele>
        <time>2018-07-23T06:46:32.990Z</time>
      </trkpt>
      <trkpt lat="42.371349" lon="-5.033473">
        <ele>820.3299968</ele>
        <time>2018-07-23T06:46:35.000Z</time>
      </trkpt>
      <trkpt lat="42.371256" lon="-5.033512">
        <ele>821</ele>
        <time>2018-07-23T06:46:36.990Z</time>
      </trkpt>
      <trkpt lat="42.371135" lon="-5.033555">
        <ele>822</ele>
        <time>2018-07-23T06:46:40.000Z</time>
      </trkpt>
      <trkpt lat="42.371042" lon="-5.033587">
        <ele>822</ele>
        <time>2018-07-23T06:46:41.990Z</time>
      </trkpt>
      <trkpt lat="42.370914" lon="-5.033649">
        <ele>822</ele>
        <time>2018-07-23T06:46:45.000Z</time>
      </trkpt>
      <trkpt lat="42.370801" lon="-5.033702">
        <ele>822</ele>
        <time>2018-07-23T06:46:47.000Z</time>
      </trkpt>
      <trkpt lat="42.370701" lon="-5.033737">
        <ele>822</ele>
        <time>2018-07-23T06:46:49.000Z</time>
      </trkpt>
      <trkpt lat="42.370602" lon="-5.033753">
        <ele>822</ele>
        <time>2018-07-23T06:46:50.990Z</time>
      </trkpt>
      <trkpt lat="42.370506" lon="-5.033768">
        <ele>822</ele>
        <time>2018-07-23T06:46:52.990Z</time>
      </trkpt>
      <trkpt lat="42.370418" lon="-5.033801">
        <ele>822</ele>
        <time>2018-07-23T06:46:55.990Z</time>
      </trkpt>
      <trkpt lat="42.370394" lon="-5.033935">
        <ele>822</ele>
        <time>2018-07-23T06:46:59.990Z</time>
      </trkpt>
      <trkpt lat="42.370384" lon="-5.034068">
        <ele>822</ele>
        <time>2018-07-23T06:47:02.990Z</time>
      </trkpt>
      <trkpt lat="42.370349" lon="-5.034186">
        <ele>822</ele>
        <time>2018-07-23T06:47:05.990Z</time>
      </trkpt>
      <trkpt lat="42.370303" lon="-5.034297">
        <ele>822</ele>
        <time>2018-07-23T06:47:09.000Z</time>
      </trkpt>
      <trkpt lat="42.370252" lon="-5.034441">
        <ele>821</ele>
        <time>2018-07-23T06:47:11.990Z</time>
      </trkpt>
      <trkpt lat="42.370201" lon="-5.034622">
        <ele>821</ele>
        <time>2018-07-23T06:47:15.000Z</time>
      </trkpt>
      <trkpt lat="42.370159" lon="-5.034764">
        <ele>819</ele>
        <time>2018-07-23T06:47:16.990Z</time>
      </trkpt>
      <trkpt lat="42.370096" lon="-5.034891">
        <ele>818</ele>
        <time>2018-07-23T06:47:18.990Z</time>
      </trkpt>
      <trkpt lat="42.370005" lon="-5.035013">
        <ele>817</ele>
        <time>2018-07-23T06:47:20.990Z</time>
      </trkpt>
      <trkpt lat="42.369909" lon="-5.035135">
        <ele>817</ele>
        <time>2018-07-23T06:47:22.990Z</time>
      </trkpt>
      <trkpt lat="42.369787" lon="-5.035244">
        <ele>816.6700032</ele>
        <time>2018-07-23T06:47:25.000Z</time>
      </trkpt>
      <trkpt lat="42.369649" lon="-5.035313">
        <ele>815.6700032</ele>
        <time>2018-07-23T06:47:27.000Z</time>
      </trkpt>
      <trkpt lat="42.369533" lon="-5.035363">
        <ele>815</ele>
        <time>2018-07-23T06:47:29.000Z</time>
      </trkpt>
      <trkpt lat="42.369439" lon="-5.035452">
        <ele>815</ele>
        <time>2018-07-23T06:47:30.990Z</time>
      </trkpt>
      <trkpt lat="42.369347" lon="-5.035539">
        <ele>813.753844942006</ele>
        <time>2018-07-23T06:47:32.990Z</time>
      </trkpt>
      <trkpt lat="42.369239" lon="-5.035598">
        <ele>813</ele>
        <time>2018-07-23T06:47:34.990Z</time>
      </trkpt>
      <trkpt lat="42.369135" lon="-5.035667">
        <ele>812.68</ele>
        <time>2018-07-23T06:47:36.990Z</time>
      </trkpt>
      <trkpt lat="42.369051" lon="-5.035742">
        <ele>812</ele>
        <time>2018-07-23T06:47:39.000Z</time>
      </trkpt>
      <trkpt lat="42.36896" lon="-5.035777">
        <ele>812</ele>
        <time>2018-07-23T06:47:40.990Z</time>
      </trkpt>
      <trkpt lat="42.368839" lon="-5.035831">
        <ele>812</ele>
        <time>2018-07-23T06:47:44.000Z</time>
      </trkpt>
      <trkpt lat="42.368768" lon="-5.035951">
        <ele>812</ele>
        <time>2018-07-23T06:47:46.990Z</time>
      </trkpt>
      <trkpt lat="42.368794" lon="-5.036115">
        <ele>812</ele>
        <time>2018-07-23T06:47:49.990Z</time>
      </trkpt>
      <trkpt lat="42.368822" lon="-5.036271">
        <ele>813</ele>
        <time>2018-07-23T06:47:52.990Z</time>
      </trkpt>
      <trkpt lat="42.368846" lon="-5.036441">
        <ele>813</ele>
        <time>2018-07-23T06:47:55.990Z</time>
      </trkpt>
      <trkpt lat="42.368865" lon="-5.036572">
        <ele>813</ele>
        <time>2018-07-23T06:47:57.990Z</time>
      </trkpt>
      <trkpt lat="42.368898" lon="-5.036721">
        <ele>812.68</ele>
        <time>2018-07-23T06:47:59.990Z</time>
      </trkpt>
      <trkpt lat="42.368936" lon="-5.036859">
        <ele>812</ele>
        <time>2018-07-23T06:48:01.990Z</time>
      </trkpt>
      <trkpt lat="42.368989" lon="-5.036999">
        <ele>810.6700032</ele>
        <time>2018-07-23T06:48:04.000Z</time>
      </trkpt>
      <trkpt lat="42.369035" lon="-5.037135">
        <ele>810</ele>
        <time>2018-07-23T06:48:05.990Z</time>
      </trkpt>
      <trkpt lat="42.369084" lon="-5.037257">
        <ele>810</ele>
        <time>2018-07-23T06:48:07.990Z</time>
      </trkpt>
      <trkpt lat="42.369146" lon="-5.037377">
        <ele>810</ele>
        <time>2018-07-23T06:48:09.990Z</time>
      </trkpt>
      <trkpt lat="42.369211" lon="-5.0375">
        <ele>809.190185638899</ele>
        <time>2018-07-23T06:48:11.990Z</time>
      </trkpt>
      <trkpt lat="42.369262" lon="-5.037635">
        <ele>809</ele>
        <time>2018-07-23T06:48:14.000Z</time>
      </trkpt>
      <trkpt lat="42.369303" lon="-5.037766">
        <ele>809</ele>
        <time>2018-07-23T06:48:15.990Z</time>
      </trkpt>
      <trkpt lat="42.36936" lon="-5.037877">
        <ele>808</ele>
        <time>2018-07-23T06:48:17.990Z</time>
      </trkpt>
      <trkpt lat="42.369412" lon="-5.037989">
        <ele>808</ele>
        <time>2018-07-23T06:48:19.990Z</time>
      </trkpt>
      <trkpt lat="42.369426" lon="-5.038159">
        <ele>808.32</ele>
        <time>2018-07-23T06:48:22.990Z</time>
      </trkpt>
      <trkpt lat="42.369411" lon="-5.038333">
        <ele>809</ele>
        <time>2018-07-23T06:48:25.990Z</time>
      </trkpt>
      <trkpt lat="42.369419" lon="-5.038463">
        <ele>809</ele>
        <time>2018-07-23T06:48:29.000Z</time>
      </trkpt>
      <trkpt lat="42.369443" lon="-5.038592">
        <ele>809</ele>
        <time>2018-07-23T06:48:32.990Z</time>
      </trkpt>
      <trkpt lat="42.369486" lon="-5.038716">
        <ele>810</ele>
        <time>2018-07-23T06:48:36.990Z</time>
      </trkpt>
      <trkpt lat="42.369555" lon="-5.038837">
        <ele>810</ele>
        <time>2018-07-23T06:48:39.990Z</time>
      </trkpt>
      <trkpt lat="42.36961" lon="-5.038977">
        <ele>810</ele>
        <time>2018-07-23T06:48:42.990Z</time>
      </trkpt>
      <trkpt lat="42.369673" lon="-5.039125">
        <ele>810</ele>
        <time>2018-07-23T06:48:45.990Z</time>
      </trkpt>
      <trkpt lat="42.369726" lon="-5.03923">
        <ele>810</ele>
        <time>2018-07-23T06:48:47.990Z</time>
      </trkpt>
      <trkpt lat="42.369772" lon="-5.039341">
        <ele>810</ele>
        <time>2018-07-23T06:48:49.990Z</time>
      </trkpt>
      <trkpt lat="42.369827" lon="-5.03945">
        <ele>810</ele>
        <time>2018-07-23T06:48:51.990Z</time>
      </trkpt>
      <trkpt lat="42.369888" lon="-5.039566">
        <ele>810</ele>
        <time>2018-07-23T06:48:54.990Z</time>
      </trkpt>
      <trkpt lat="42.369935" lon="-5.039727">
        <ele>810</ele>
        <time>2018-07-23T06:48:57.990Z</time>
      </trkpt>
      <trkpt lat="42.369975" lon="-5.039843">
        <ele>810</ele>
        <time>2018-07-23T06:48:59.990Z</time>
      </trkpt>
      <trkpt lat="42.370022" lon="-5.039971">
        <ele>810</ele>
        <time>2018-07-23T06:49:01.990Z</time>
      </trkpt>
      <trkpt lat="42.370088" lon="-5.040141">
        <ele>810</ele>
        <time>2018-07-23T06:49:04.990Z</time>
      </trkpt>
      <trkpt lat="42.370129" lon="-5.040253">
        <ele>810</ele>
        <time>2018-07-23T06:49:06.990Z</time>
      </trkpt>
      <trkpt lat="42.370181" lon="-5.040372">
        <ele>810</ele>
        <time>2018-07-23T06:49:09.000Z</time>
      </trkpt>
      <trkpt lat="42.370246" lon="-5.04053">
        <ele>810</ele>
        <time>2018-07-23T06:49:11.990Z</time>
      </trkpt>
      <trkpt lat="42.370314" lon="-5.040683">
        <ele>810</ele>
        <time>2018-07-23T06:49:14.990Z</time>
      </trkpt>
      <trkpt lat="42.370357" lon="-5.040796">
        <ele>810</ele>
        <time>2018-07-23T06:49:16.990Z</time>
      </trkpt>
      <trkpt lat="42.370415" lon="-5.040929">
        <ele>810</ele>
        <time>2018-07-23T06:49:19.990Z</time>
      </trkpt>
      <trkpt lat="42.370452" lon="-5.041074">
        <ele>810</ele>
        <time>2018-07-23T06:49:22.990Z</time>
      </trkpt>
      <trkpt lat="42.370502" lon="-5.041195">
        <ele>810</ele>
        <time>2018-07-23T06:49:24.990Z</time>
      </trkpt>
      <trkpt lat="42.370552" lon="-5.041316">
        <ele>810</ele>
        <time>2018-07-23T06:49:26.990Z</time>
      </trkpt>
      <trkpt lat="42.370597" lon="-5.041432">
        <ele>810</ele>
        <time>2018-07-23T06:49:29.000Z</time>
      </trkpt>
      <trkpt lat="42.370643" lon="-5.041558">
        <ele>810</ele>
        <time>2018-07-23T06:49:30.990Z</time>
      </trkpt>
      <trkpt lat="42.370697" lon="-5.041688">
        <ele>810</ele>
        <time>2018-07-23T06:49:32.990Z</time>
      </trkpt>
      <trkpt lat="42.37076" lon="-5.04181">
        <ele>810</ele>
        <time>2018-07-23T06:49:34.990Z</time>
      </trkpt>
      <trkpt lat="42.370813" lon="-5.041941">
        <ele>810</ele>
        <time>2018-07-23T06:49:36.990Z</time>
      </trkpt>
      <trkpt lat="42.370862" lon="-5.042047">
        <ele>810</ele>
        <time>2018-07-23T06:49:39.000Z</time>
      </trkpt>
      <trkpt lat="42.370909" lon="-5.042158">
        <ele>810</ele>
        <time>2018-07-23T06:49:40.990Z</time>
      </trkpt>
      <trkpt lat="42.370963" lon="-5.04232">
        <ele>810</ele>
        <time>2018-07-23T06:49:44.000Z</time>
      </trkpt>
      <trkpt lat="42.37101" lon="-5.042435">
        <ele>810</ele>
        <time>2018-07-23T06:49:45.990Z</time>
      </trkpt>
      <trkpt lat="42.37105" lon="-5.042548">
        <ele>810</ele>
        <time>2018-07-23T06:49:47.990Z</time>
      </trkpt>
      <trkpt lat="42.371091" lon="-5.042667">
        <ele>810</ele>
        <time>2018-07-23T06:49:49.990Z</time>
      </trkpt>
      <trkpt lat="42.37117" lon="-5.042913">
        <ele>810</ele>
        <time>2018-07-23T06:49:54.000Z</time>
      </trkpt>
      <trkpt lat="42.371221" lon="-5.04308">
        <ele>810</ele>
        <time>2018-07-23T06:49:56.000Z</time>
      </trkpt>
      <trkpt lat="42.371263" lon="-5.043236">
        <ele>810</ele>
        <time>2018-07-23T06:49:58.000Z</time>
      </trkpt>
      <trkpt lat="42.371326" lon="-5.043415">
        <ele>810</ele>
        <time>2018-07-23T06:50:00.990Z</time>
      </trkpt>
      <trkpt lat="42.37137" lon="-5.043544">
        <ele>810</ele>
        <time>2018-07-23T06:50:03.000Z</time>
      </trkpt>
      <trkpt lat="42.371426" lon="-5.043666">
        <ele>810</ele>
        <time>2018-07-23T06:50:04.990Z</time>
      </trkpt>
      <trkpt lat="42.371469" lon="-5.043777">
        <ele>810</ele>
        <time>2018-07-23T06:50:06.990Z</time>
      </trkpt>
      <trkpt lat="42.371516" lon="-5.043894">
        <ele>810</ele>
        <time>2018-07-23T06:50:08.990Z</time>
      </trkpt>
      <trkpt lat="42.371592" lon="-5.044055">
        <ele>810</ele>
        <time>2018-07-23T06:50:12.100Z</time>
      </trkpt>
      <trkpt lat="42.371641" lon="-5.044203">
        <ele>810</ele>
        <time>2018-07-23T06:50:15.000Z</time>
      </trkpt>
      <trkpt lat="42.371672" lon="-5.044324">
        <ele>810</ele>
        <time>2018-07-23T06:50:16.990Z</time>
      </trkpt>
      <trkpt lat="42.371714" lon="-5.044442">
        <ele>810</ele>
        <time>2018-07-23T06:50:18.990Z</time>
      </trkpt>
      <trkpt lat="42.371765" lon="-5.044554">
        <ele>810</ele>
        <time>2018-07-23T06:50:21.000Z</time>
      </trkpt>
      <trkpt lat="42.371824" lon="-5.044672">
        <ele>810</ele>
        <time>2018-07-23T06:50:22.990Z</time>
      </trkpt>
      <trkpt lat="42.371885" lon="-5.044813">
        <ele>811</ele>
        <time>2018-07-23T06:50:26.000Z</time>
      </trkpt>
      <trkpt lat="42.371929" lon="-5.044921">
        <ele>811</ele>
        <time>2018-07-23T06:50:27.990Z</time>
      </trkpt>
      <trkpt lat="42.371976" lon="-5.04503">
        <ele>811</ele>
        <time>2018-07-23T06:50:29.990Z</time>
      </trkpt>
      <trkpt lat="42.372019" lon="-5.045146">
        <ele>811</ele>
        <time>2018-07-23T06:50:31.990Z</time>
      </trkpt>
      <trkpt lat="42.372066" lon="-5.045279">
        <ele>811</ele>
        <time>2018-07-23T06:50:33.990Z</time>
      </trkpt>
      <trkpt lat="42.372113" lon="-5.045404">
        <ele>811</ele>
        <time>2018-07-23T06:50:36.000Z</time>
      </trkpt>
      <trkpt lat="42.372159" lon="-5.045521">
        <ele>811</ele>
        <time>2018-07-23T06:50:37.990Z</time>
      </trkpt>
      <trkpt lat="42.372207" lon="-5.045627">
        <ele>811</ele>
        <time>2018-07-23T06:50:39.990Z</time>
      </trkpt>
      <trkpt lat="42.37226" lon="-5.045727">
        <ele>811</ele>
        <time>2018-07-23T06:50:41.990Z</time>
      </trkpt>
      <trkpt lat="42.372317" lon="-5.045836">
        <ele>811</ele>
        <time>2018-07-23T06:50:43.990Z</time>
      </trkpt>
      <trkpt lat="42.372375" lon="-5.045955">
        <ele>811</ele>
        <time>2018-07-23T06:50:46.000Z</time>
      </trkpt>
      <trkpt lat="42.372427" lon="-5.046059">
        <ele>811</ele>
        <time>2018-07-23T06:50:47.990Z</time>
      </trkpt>
      <trkpt lat="42.372479" lon="-5.046165">
        <ele>810.306126980395</ele>
        <time>2018-07-23T06:50:49.990Z</time>
      </trkpt>
      <trkpt lat="42.372533" lon="-5.046266">
        <ele>811</ele>
        <time>2018-07-23T06:50:51.990Z</time>
      </trkpt>
      <trkpt lat="42.372586" lon="-5.046381">
        <ele>811</ele>
        <time>2018-07-23T06:50:53.990Z</time>
      </trkpt>
      <trkpt lat="42.372641" lon="-5.046496">
        <ele>811</ele>
        <time>2018-07-23T06:50:56.000Z</time>
      </trkpt>
      <trkpt lat="42.372693" lon="-5.046598">
        <ele>811</ele>
        <time>2018-07-23T06:50:57.990Z</time>
      </trkpt>
      <trkpt lat="42.372753" lon="-5.046707">
        <ele>811</ele>
        <time>2018-07-23T06:51:00.000Z</time>
      </trkpt>
      <trkpt lat="42.372809" lon="-5.046821">
        <ele>811</ele>
        <time>2018-07-23T06:51:02.000Z</time>
      </trkpt>
      <trkpt lat="42.372866" lon="-5.046935">
        <ele>811</ele>
        <time>2018-07-23T06:51:03.990Z</time>
      </trkpt>
      <trkpt lat="42.372923" lon="-5.047046">
        <ele>811</ele>
        <time>2018-07-23T06:51:05.990Z</time>
      </trkpt>
      <trkpt lat="42.372985" lon="-5.047169">
        <ele>811</ele>
        <time>2018-07-23T06:51:07.990Z</time>
      </trkpt>
      <trkpt lat="42.373034" lon="-5.047271">
        <ele>811</ele>
        <time>2018-07-23T06:51:09.990Z</time>
      </trkpt>
      <trkpt lat="42.373091" lon="-5.047381">
        <ele>811</ele>
        <time>2018-07-23T06:51:12.000Z</time>
      </trkpt>
      <trkpt lat="42.373152" lon="-5.047493">
        <ele>811</ele>
        <time>2018-07-23T06:51:13.990Z</time>
      </trkpt>
      <trkpt lat="42.373213" lon="-5.047601">
        <ele>811</ele>
        <time>2018-07-23T06:51:15.990Z</time>
      </trkpt>
      <trkpt lat="42.373279" lon="-5.04771">
        <ele>811</ele>
        <time>2018-07-23T06:51:17.990Z</time>
      </trkpt>
      <trkpt lat="42.373342" lon="-5.047815">
        <ele>811</ele>
        <time>2018-07-23T06:51:19.990Z</time>
      </trkpt>
      <trkpt lat="42.373409" lon="-5.047926">
        <ele>811</ele>
        <time>2018-07-23T06:51:22.000Z</time>
      </trkpt>
      <trkpt lat="42.373474" lon="-5.048034">
        <ele>811</ele>
        <time>2018-07-23T06:51:23.990Z</time>
      </trkpt>
      <trkpt lat="42.373536" lon="-5.048144">
        <ele>811</ele>
        <time>2018-07-23T06:51:25.990Z</time>
      </trkpt>
      <trkpt lat="42.373586" lon="-5.048252">
        <ele>811</ele>
        <time>2018-07-23T06:51:27.990Z</time>
      </trkpt>
      <trkpt lat="42.373641" lon="-5.048359">
        <ele>811</ele>
        <time>2018-07-23T06:51:29.990Z</time>
      </trkpt>
      <trkpt lat="42.373699" lon="-5.048464">
        <ele>811</ele>
        <time>2018-07-23T06:51:32.000Z</time>
      </trkpt>
      <trkpt lat="42.373753" lon="-5.048565">
        <ele>811</ele>
        <time>2018-07-23T06:51:33.990Z</time>
      </trkpt>
      <trkpt lat="42.373806" lon="-5.048671">
        <ele>811</ele>
        <time>2018-07-23T06:51:35.990Z</time>
      </trkpt>
      <trkpt lat="42.37386" lon="-5.048779">
        <ele>811</ele>
        <time>2018-07-23T06:51:37.990Z</time>
      </trkpt>
      <trkpt lat="42.373908" lon="-5.048889">
        <ele>811</ele>
        <time>2018-07-23T06:51:39.990Z</time>
      </trkpt>
      <trkpt lat="42.373959" lon="-5.048995">
        <ele>811</ele>
        <time>2018-07-23T06:51:42.000Z</time>
      </trkpt>
      <trkpt lat="42.373991" lon="-5.049142">
        <ele>811</ele>
        <time>2018-07-23T06:51:44.990Z</time>
      </trkpt>
      <trkpt lat="42.373994" lon="-5.049269">
        <ele>811</ele>
        <time>2018-07-23T06:51:47.990Z</time>
      </trkpt>
      <trkpt lat="42.374013" lon="-5.049396">
        <ele>812</ele>
        <time>2018-07-23T06:51:54.990Z</time>
      </trkpt>
      <trkpt lat="42.374025" lon="-5.049533">
        <ele>812</ele>
        <time>2018-07-23T06:51:58.990Z</time>
      </trkpt>
      <trkpt lat="42.374064" lon="-5.049652">
        <ele>812</ele>
        <time>2018-07-23T06:52:02.990Z</time>
      </trkpt>
      <trkpt lat="42.374155" lon="-5.049735">
        <ele>812</ele>
        <time>2018-07-23T06:52:07.000Z</time>
      </trkpt>
      <trkpt lat="42.374243" lon="-5.049785">
        <ele>812</ele>
        <time>2018-07-23T06:52:10.990Z</time>
      </trkpt>
      <trkpt lat="42.374336" lon="-5.049859">
        <ele>812</ele>
        <time>2018-07-23T06:52:14.990Z</time>
      </trkpt>
      <trkpt lat="42.374418" lon="-5.049937">
        <ele>811</ele>
        <time>2018-07-23T06:52:18.990Z</time>
      </trkpt>
      <trkpt lat="42.3745" lon="-5.050047">
        <ele>811</ele>
        <time>2018-07-23T06:52:23.990Z</time>
      </trkpt>
      <trkpt lat="42.374567" lon="-5.050172">
        <ele>811.042861322411</ele>
        <time>2018-07-23T06:52:27.000Z</time>
      </trkpt>
      <trkpt lat="42.37463" lon="-5.050299">
        <ele>812</ele>
        <time>2018-07-23T06:52:29.990Z</time>
      </trkpt>
      <trkpt lat="42.374696" lon="-5.050423">
        <ele>812</ele>
        <time>2018-07-23T06:52:32.990Z</time>
      </trkpt>
      <trkpt lat="42.374768" lon="-5.050548">
        <ele>812</ele>
        <time>2018-07-23T06:52:35.990Z</time>
      </trkpt>
      <trkpt lat="42.374844" lon="-5.050687">
        <ele>812</ele>
        <time>2018-07-23T06:52:39.000Z</time>
      </trkpt>
      <trkpt lat="42.37489" lon="-5.050809">
        <ele>812.3299968</ele>
        <time>2018-07-23T06:52:41.000Z</time>
      </trkpt>
      <trkpt lat="42.37495" lon="-5.050924">
        <ele>813</ele>
        <time>2018-07-23T06:52:43.000Z</time>
      </trkpt>
      <trkpt lat="42.375033" lon="-5.05107">
        <ele>813</ele>
        <time>2018-07-23T06:52:46.000Z</time>
      </trkpt>
      <trkpt lat="42.375094" lon="-5.051173">
        <ele>813</ele>
        <time>2018-07-23T06:52:48.000Z</time>
      </trkpt>
      <trkpt lat="42.375149" lon="-5.051269">
        <ele>813</ele>
        <time>2018-07-23T06:52:50.000Z</time>
      </trkpt>
      <trkpt lat="42.375225" lon="-5.051417">
        <ele>813</ele>
        <time>2018-07-23T06:52:53.000Z</time>
      </trkpt>
      <trkpt lat="42.375279" lon="-5.051519">
        <ele>812.6700032</ele>
        <time>2018-07-23T06:52:55.000Z</time>
      </trkpt>
      <trkpt lat="42.375329" lon="-5.051632">
        <ele>812</ele>
        <time>2018-07-23T06:52:57.000Z</time>
      </trkpt>
      <trkpt lat="42.375378" lon="-5.051746">
        <ele>812</ele>
        <time>2018-07-23T06:52:59.000Z</time>
      </trkpt>
      <trkpt lat="42.375425" lon="-5.051855">
        <ele>812</ele>
        <time>2018-07-23T06:53:01.000Z</time>
      </trkpt>
      <trkpt lat="42.375474" lon="-5.05197">
        <ele>812</ele>
        <time>2018-07-23T06:53:03.000Z</time>
      </trkpt>
      <trkpt lat="42.375523" lon="-5.052096">
        <ele>812</ele>
        <time>2018-07-23T06:53:05.000Z</time>
      </trkpt>
      <trkpt lat="42.375569" lon="-5.052222">
        <ele>812</ele>
        <time>2018-07-23T06:53:07.000Z</time>
      </trkpt>
      <trkpt lat="42.375613" lon="-5.05234">
        <ele>812</ele>
        <time>2018-07-23T06:53:09.000Z</time>
      </trkpt>
      <trkpt lat="42.375655" lon="-5.052456">
        <ele>812</ele>
        <time>2018-07-23T06:53:11.000Z</time>
      </trkpt>
      <trkpt lat="42.375694" lon="-5.052586">
        <ele>812</ele>
        <time>2018-07-23T06:53:13.000Z</time>
      </trkpt>
      <trkpt lat="42.375731" lon="-5.05271">
        <ele>812.253844942006</ele>
        <time>2018-07-23T06:53:15.000Z</time>
      </trkpt>
      <trkpt lat="42.375765" lon="-5.052838">
        <ele>813</ele>
        <time>2018-07-23T06:53:17.000Z</time>
      </trkpt>
      <trkpt lat="42.375797" lon="-5.052968">
        <ele>813</ele>
        <time>2018-07-23T06:53:19.000Z</time>
      </trkpt>
      <trkpt lat="42.375825" lon="-5.0531">
        <ele>813</ele>
        <time>2018-07-23T06:53:21.000Z</time>
      </trkpt>
      <trkpt lat="42.375855" lon="-5.053234">
        <ele>813</ele>
        <time>2018-07-23T06:53:23.000Z</time>
      </trkpt>
      <trkpt lat="42.375882" lon="-5.05337">
        <ele>813</ele>
        <time>2018-07-23T06:53:25.000Z</time>
      </trkpt>
      <trkpt lat="42.375904" lon="-5.053506">
        <ele>813</ele>
        <time>2018-07-23T06:53:27.000Z</time>
      </trkpt>
      <trkpt lat="42.375928" lon="-5.05364">
        <ele>813</ele>
        <time>2018-07-23T06:53:29.000Z</time>
      </trkpt>
      <trkpt lat="42.37595" lon="-5.053773">
        <ele>813</ele>
        <time>2018-07-23T06:53:31.000Z</time>
      </trkpt>
      <trkpt lat="42.375974" lon="-5.053904">
        <ele>813</ele>
        <time>2018-07-23T06:53:33.000Z</time>
      </trkpt>
      <trkpt lat="42.375999" lon="-5.054034">
        <ele>813</ele>
        <time>2018-07-23T06:53:35.000Z</time>
      </trkpt>
      <trkpt lat="42.376022" lon="-5.054163">
        <ele>813</ele>
        <time>2018-07-23T06:53:37.000Z</time>
      </trkpt>
      <trkpt lat="42.376043" lon="-5.054288">
        <ele>813</ele>
        <time>2018-07-23T06:53:39.000Z</time>
      </trkpt>
      <trkpt lat="42.376078" lon="-5.054448">
        <ele>813</ele>
        <time>2018-07-23T06:53:42.000Z</time>
      </trkpt>
      <trkpt lat="42.376103" lon="-5.054612">
        <ele>813</ele>
        <time>2018-07-23T06:53:44.990Z</time>
      </trkpt>
      <trkpt lat="42.376131" lon="-5.054774">
        <ele>813</ele>
        <time>2018-07-23T06:53:47.990Z</time>
      </trkpt>
      <trkpt lat="42.376168" lon="-5.054936">
        <ele>813</ele>
        <time>2018-07-23T06:53:50.990Z</time>
      </trkpt>
      <trkpt lat="42.37621" lon="-5.055106">
        <ele>813</ele>
        <time>2018-07-23T06:53:54.000Z</time>
      </trkpt>
      <trkpt lat="42.376226" lon="-5.055228">
        <ele>813</ele>
        <time>2018-07-23T06:53:55.990Z</time>
      </trkpt>
      <trkpt lat="42.376247" lon="-5.055402">
        <ele>813</ele>
        <time>2018-07-23T06:53:59.000Z</time>
      </trkpt>
      <trkpt lat="42.376271" lon="-5.055567">
        <ele>813</ele>
        <time>2018-07-23T06:54:01.990Z</time>
      </trkpt>
      <trkpt lat="42.376302" lon="-5.055727">
        <ele>813</ele>
        <time>2018-07-23T06:54:04.990Z</time>
      </trkpt>
      <trkpt lat="42.376331" lon="-5.055895">
        <ele>813</ele>
        <time>2018-07-23T06:54:07.990Z</time>
      </trkpt>
      <trkpt lat="42.376363" lon="-5.056063">
        <ele>814</ele>
        <time>2018-07-23T06:54:10.990Z</time>
      </trkpt>
      <trkpt lat="42.376395" lon="-5.056221">
        <ele>814</ele>
        <time>2018-07-23T06:54:14.000Z</time>
      </trkpt>
      <trkpt lat="42.376405" lon="-5.056375">
        <ele>814</ele>
        <time>2018-07-23T06:54:16.990Z</time>
      </trkpt>
      <trkpt lat="42.376415" lon="-5.056541">
        <ele>814</ele>
        <time>2018-07-23T06:54:19.990Z</time>
      </trkpt>
      <trkpt lat="42.376446" lon="-5.056702">
        <ele>815</ele>
        <time>2018-07-23T06:54:22.990Z</time>
      </trkpt>
      <trkpt lat="42.376492" lon="-5.056862">
        <ele>815.32</ele>
        <time>2018-07-23T06:54:25.990Z</time>
      </trkpt>
      <trkpt lat="42.376528" lon="-5.05703">
        <ele>816.042861322411</ele>
        <time>2018-07-23T06:54:29.000Z</time>
      </trkpt>
      <trkpt lat="42.37657" lon="-5.057197">
        <ele>817</ele>
        <time>2018-07-23T06:54:31.990Z</time>
      </trkpt>
      <trkpt lat="42.376593" lon="-5.057315">
        <ele>817</ele>
        <time>2018-07-23T06:54:34.000Z</time>
      </trkpt>
      <trkpt lat="42.376621" lon="-5.057438">
        <ele>817</ele>
        <time>2018-07-23T06:54:35.990Z</time>
      </trkpt>
      <trkpt lat="42.376641" lon="-5.057559">
        <ele>817</ele>
        <time>2018-07-23T06:54:37.990Z</time>
      </trkpt>
      <trkpt lat="42.376665" lon="-5.057679">
        <ele>817</ele>
        <time>2018-07-23T06:54:39.990Z</time>
      </trkpt>
      <trkpt lat="42.376711" lon="-5.057848">
        <ele>817</ele>
        <time>2018-07-23T06:54:42.990Z</time>
      </trkpt>
      <trkpt lat="42.376746" lon="-5.057963">
        <ele>817</ele>
        <time>2018-07-23T06:54:44.990Z</time>
      </trkpt>
      <trkpt lat="42.376782" lon="-5.058122">
        <ele>818</ele>
        <time>2018-07-23T06:54:47.990Z</time>
      </trkpt>
      <trkpt lat="42.376826" lon="-5.058292">
        <ele>818</ele>
        <time>2018-07-23T06:54:50.990Z</time>
      </trkpt>
      <trkpt lat="42.376857" lon="-5.058411">
        <ele>818</ele>
        <time>2018-07-23T06:54:52.990Z</time>
      </trkpt>
      <trkpt lat="42.376903" lon="-5.058573">
        <ele>818.32</ele>
        <time>2018-07-23T06:54:55.990Z</time>
      </trkpt>
      <trkpt lat="42.376935" lon="-5.058687">
        <ele>819</ele>
        <time>2018-07-23T06:54:57.990Z</time>
      </trkpt>
      <trkpt lat="42.376978" lon="-5.058837">
        <ele>819</ele>
        <time>2018-07-23T06:55:00.990Z</time>
      </trkpt>
      <trkpt lat="42.377017" lon="-5.058981">
        <ele>819</ele>
        <time>2018-07-23T06:55:04.000Z</time>
      </trkpt>
      <trkpt lat="42.377043" lon="-5.059118">
        <ele>819</ele>
        <time>2018-07-23T06:55:06.990Z</time>
      </trkpt>
      <trkpt lat="42.377084" lon="-5.059277">
        <ele>819</ele>
        <time>2018-07-23T06:55:09.990Z</time>
      </trkpt>
      <trkpt lat="42.377129" lon="-5.059433">
        <ele>820</ele>
        <time>2018-07-23T06:55:12.990Z</time>
      </trkpt>
      <trkpt lat="42.377158" lon="-5.059551">
        <ele>820</ele>
        <time>2018-07-23T06:55:15.000Z</time>
      </trkpt>
      <trkpt lat="42.377185" lon="-5.059698">
        <ele>820</ele>
        <time>2018-07-23T06:55:18.000Z</time>
      </trkpt>
      <trkpt lat="42.377217" lon="-5.059815">
        <ele>821</ele>
        <time>2018-07-23T06:55:20.990Z</time>
      </trkpt>
      <trkpt lat="42.377255" lon="-5.059953">
        <ele>821</ele>
        <time>2018-07-23T06:55:23.990Z</time>
      </trkpt>
      <trkpt lat="42.377301" lon="-5.060082">
        <ele>821</ele>
        <time>2018-07-23T06:55:26.990Z</time>
      </trkpt>
      <trkpt lat="42.377338" lon="-5.060238">
        <ele>821</ele>
        <time>2018-07-23T06:55:29.990Z</time>
      </trkpt>
      <trkpt lat="42.377375" lon="-5.060397">
        <ele>821</ele>
        <time>2018-07-23T06:55:33.000Z</time>
      </trkpt>
      <trkpt lat="42.377416" lon="-5.060547">
        <ele>821.32</ele>
        <time>2018-07-23T06:55:35.990Z</time>
      </trkpt>
      <trkpt lat="42.377466" lon="-5.060704">
        <ele>822</ele>
        <time>2018-07-23T06:55:38.990Z</time>
      </trkpt>
      <trkpt lat="42.377521" lon="-5.060843">
        <ele>821.028580310123</ele>
        <time>2018-07-23T06:55:41.990Z</time>
      </trkpt>
      <trkpt lat="42.377563" lon="-5.060997">
        <ele>822</ele>
        <time>2018-07-23T06:55:44.990Z</time>
      </trkpt>
      <trkpt lat="42.377617" lon="-5.061159">
        <ele>822</ele>
        <time>2018-07-23T06:55:48.000Z</time>
      </trkpt>
      <trkpt lat="42.377648" lon="-5.061277">
        <ele>822</ele>
        <time>2018-07-23T06:55:49.990Z</time>
      </trkpt>
      <trkpt lat="42.377686" lon="-5.061446">
        <ele>822</ele>
        <time>2018-07-23T06:55:53.000Z</time>
      </trkpt>
      <trkpt lat="42.377727" lon="-5.061615">
        <ele>822</ele>
        <time>2018-07-23T06:55:55.990Z</time>
      </trkpt>
      <trkpt lat="42.377784" lon="-5.061771">
        <ele>822</ele>
        <time>2018-07-23T06:55:58.990Z</time>
      </trkpt>
      <trkpt lat="42.377815" lon="-5.061887">
        <ele>822</ele>
        <time>2018-07-23T06:56:00.990Z</time>
      </trkpt>
      <trkpt lat="42.377858" lon="-5.062066">
        <ele>822</ele>
        <time>2018-07-23T06:56:03.990Z</time>
      </trkpt>
      <trkpt lat="42.377894" lon="-5.062244">
        <ele>822</ele>
        <time>2018-07-23T06:56:06.990Z</time>
      </trkpt>
      <trkpt lat="42.377942" lon="-5.062406">
        <ele>822</ele>
        <time>2018-07-23T06:56:09.990Z</time>
      </trkpt>
      <trkpt lat="42.377983" lon="-5.062585">
        <ele>822</ele>
        <time>2018-07-23T06:56:13.000Z</time>
      </trkpt>
      <trkpt lat="42.378022" lon="-5.06273">
        <ele>822</ele>
        <time>2018-07-23T06:56:15.990Z</time>
      </trkpt>
      <trkpt lat="42.378052" lon="-5.062846">
        <ele>822</ele>
        <time>2018-07-23T06:56:18.000Z</time>
      </trkpt>
      <trkpt lat="42.37809" lon="-5.063007">
        <ele>822</ele>
        <time>2018-07-23T06:56:20.990Z</time>
      </trkpt>
      <trkpt lat="42.378128" lon="-5.06312">
        <ele>822</ele>
        <time>2018-07-23T06:56:23.000Z</time>
      </trkpt>
      <trkpt lat="42.378156" lon="-5.063244">
        <ele>822</ele>
        <time>2018-07-23T06:56:24.990Z</time>
      </trkpt>
      <trkpt lat="42.378192" lon="-5.063363">
        <ele>822</ele>
        <time>2018-07-23T06:56:26.990Z</time>
      </trkpt>
      <trkpt lat="42.378236" lon="-5.0635">
        <ele>822</ele>
        <time>2018-07-23T06:56:28.990Z</time>
      </trkpt>
      <trkpt lat="42.378288" lon="-5.063632">
        <ele>822</ele>
        <time>2018-07-23T06:56:30.990Z</time>
      </trkpt>
      <trkpt lat="42.378344" lon="-5.063776">
        <ele>820.6700032</ele>
        <time>2018-07-23T06:56:33.000Z</time>
      </trkpt>
      <trkpt lat="42.378402" lon="-5.063908">
        <ele>820</ele>
        <time>2018-07-23T06:56:34.990Z</time>
      </trkpt>
      <trkpt lat="42.37845" lon="-5.064044">
        <ele>819.68</ele>
        <time>2018-07-23T06:56:36.990Z</time>
      </trkpt>
      <trkpt lat="42.37851" lon="-5.064166">
        <ele>819</ele>
        <time>2018-07-23T06:56:38.990Z</time>
      </trkpt>
      <trkpt lat="42.37857" lon="-5.064301">
        <ele>819</ele>
        <time>2018-07-23T06:56:40.990Z</time>
      </trkpt>
      <trkpt lat="42.378634" lon="-5.064418">
        <ele>819</ele>
        <time>2018-07-23T06:56:43.000Z</time>
      </trkpt>
      <trkpt lat="42.378688" lon="-5.06454">
        <ele>819</ele>
        <time>2018-07-23T06:56:44.990Z</time>
      </trkpt>
      <trkpt lat="42.378746" lon="-5.064652">
        <ele>818</ele>
        <time>2018-07-23T06:56:46.990Z</time>
      </trkpt>
      <trkpt lat="42.378802" lon="-5.064754">
        <ele>818</ele>
        <time>2018-07-23T06:56:48.990Z</time>
      </trkpt>
      <trkpt lat="42.37888" lon="-5.064888">
        <ele>818</ele>
        <time>2018-07-23T06:56:51.990Z</time>
      </trkpt>
      <trkpt lat="42.37894" lon="-5.064982">
        <ele>818</ele>
        <time>2018-07-23T06:56:53.990Z</time>
      </trkpt>
      <trkpt lat="42.379004" lon="-5.065076">
        <ele>818</ele>
        <time>2018-07-23T06:56:55.990Z</time>
      </trkpt>
      <trkpt lat="42.379059" lon="-5.06518">
        <ele>818</ele>
        <time>2018-07-23T06:56:58.000Z</time>
      </trkpt>
      <trkpt lat="42.379113" lon="-5.065288">
        <ele>818</ele>
        <time>2018-07-23T06:56:59.990Z</time>
      </trkpt>
      <trkpt lat="42.379193" lon="-5.065437">
        <ele>818</ele>
        <time>2018-07-23T06:57:03.000Z</time>
      </trkpt>
      <trkpt lat="42.379256" lon="-5.06556">
        <ele>818</ele>
        <time>2018-07-23T06:57:05.000Z</time>
      </trkpt>
      <trkpt lat="42.379308" lon="-5.065665">
        <ele>818</ele>
        <time>2018-07-23T06:57:07.000Z</time>
      </trkpt>
      <trkpt lat="42.379375" lon="-5.065757">
        <ele>818</ele>
        <time>2018-07-23T06:57:08.990Z</time>
      </trkpt>
      <trkpt lat="42.37944" lon="-5.065858">
        <ele>818</ele>
        <time>2018-07-23T06:57:10.990Z</time>
      </trkpt>
      <trkpt lat="42.379506" lon="-5.065961">
        <ele>818</ele>
        <time>2018-07-23T06:57:12.990Z</time>
      </trkpt>
      <trkpt lat="42.379564" lon="-5.066066">
        <ele>818</ele>
        <time>2018-07-23T06:57:14.990Z</time>
      </trkpt>
      <trkpt lat="42.379626" lon="-5.066163">
        <ele>818.323231278444</ele>
        <time>2018-07-23T06:57:17.000Z</time>
      </trkpt>
      <trkpt lat="42.379712" lon="-5.066301">
        <ele>819</ele>
        <time>2018-07-23T06:57:19.990Z</time>
      </trkpt>
      <trkpt lat="42.379802" lon="-5.066439">
        <ele>818</ele>
        <time>2018-07-23T06:57:22.990Z</time>
      </trkpt>
      <trkpt lat="42.379866" lon="-5.066525">
        <ele>818</ele>
        <time>2018-07-23T06:57:24.990Z</time>
      </trkpt>
      <trkpt lat="42.379926" lon="-5.06662">
        <ele>818</ele>
        <time>2018-07-23T06:57:27.000Z</time>
      </trkpt>
      <trkpt lat="42.380012" lon="-5.066744">
        <ele>818</ele>
        <time>2018-07-23T06:57:29.990Z</time>
      </trkpt>
      <trkpt lat="42.380078" lon="-5.066831">
        <ele>818</ele>
        <time>2018-07-23T06:57:32.000Z</time>
      </trkpt>
      <trkpt lat="42.380142" lon="-5.066919">
        <ele>818</ele>
        <time>2018-07-23T06:57:33.990Z</time>
      </trkpt>
      <trkpt lat="42.380208" lon="-5.067016">
        <ele>818</ele>
        <time>2018-07-23T06:57:35.990Z</time>
      </trkpt>
      <trkpt lat="42.38027" lon="-5.06711">
        <ele>818</ele>
        <time>2018-07-23T06:57:37.990Z</time>
      </trkpt>
      <trkpt lat="42.38036" lon="-5.067247">
        <ele>818</ele>
        <time>2018-07-23T06:57:40.990Z</time>
      </trkpt>
      <trkpt lat="42.380422" lon="-5.067345">
        <ele>818</ele>
        <time>2018-07-23T06:57:42.990Z</time>
      </trkpt>
      <trkpt lat="42.38049" lon="-5.06744">
        <ele>818</ele>
        <time>2018-07-23T06:57:44.990Z</time>
      </trkpt>
      <trkpt lat="42.380556" lon="-5.067536">
        <ele>818</ele>
        <time>2018-07-23T06:57:47.000Z</time>
      </trkpt>
      <trkpt lat="42.380628" lon="-5.067638">
        <ele>818.028580310123</ele>
        <time>2018-07-23T06:57:49.990Z</time>
      </trkpt>
      <trkpt lat="42.380688" lon="-5.06774">
        <ele>819</ele>
        <time>2018-07-23T06:57:53.990Z</time>
      </trkpt>
      <trkpt lat="42.380744" lon="-5.067837">
        <ele>819.3299968</ele>
        <time>2018-07-23T06:57:57.000Z</time>
      </trkpt>
      <trkpt lat="42.380802" lon="-5.067937">
        <ele>820</ele>
        <time>2018-07-23T06:57:59.990Z</time>
      </trkpt>
      <trkpt lat="42.380853" lon="-5.068052">
        <ele>819</ele>
        <time>2018-07-23T06:58:02.990Z</time>
      </trkpt>
      <trkpt lat="42.380895" lon="-5.068173">
        <ele>819</ele>
        <time>2018-07-23T06:58:05.990Z</time>
      </trkpt>
      <trkpt lat="42.380928" lon="-5.068293">
        <ele>819</ele>
        <time>2018-07-23T06:58:08.990Z</time>
      </trkpt>
      <trkpt lat="42.38098" lon="-5.068438">
        <ele>819</ele>
        <time>2018-07-23T06:58:12.000Z</time>
      </trkpt>
      <trkpt lat="42.381046" lon="-5.06858">
        <ele>819</ele>
        <time>2018-07-23T06:58:14.990Z</time>
      </trkpt>
      <trkpt lat="42.38111" lon="-5.068732">
        <ele>819</ele>
        <time>2018-07-23T06:58:17.990Z</time>
      </trkpt>
      <trkpt lat="42.381171" lon="-5.068889">
        <ele>819</ele>
        <time>2018-07-23T06:58:20.990Z</time>
      </trkpt>
      <trkpt lat="42.381213" lon="-5.069008">
        <ele>819</ele>
        <time>2018-07-23T06:58:23.000Z</time>
      </trkpt>
      <trkpt lat="42.381249" lon="-5.069136">
        <ele>819</ele>
        <time>2018-07-23T06:58:25.000Z</time>
      </trkpt>
      <trkpt lat="42.381298" lon="-5.069278">
        <ele>819</ele>
        <time>2018-07-23T06:58:27.990Z</time>
      </trkpt>
      <trkpt lat="42.38135" lon="-5.069436">
        <ele>820</ele>
        <time>2018-07-23T06:58:31.000Z</time>
      </trkpt>
      <trkpt lat="42.381407" lon="-5.069592">
        <ele>820</ele>
        <time>2018-07-23T06:58:33.990Z</time>
      </trkpt>
      <trkpt lat="42.381448" lon="-5.069752">
        <ele>820</ele>
        <time>2018-07-23T06:58:37.000Z</time>
      </trkpt>
      <trkpt lat="42.381495" lon="-5.069904">
        <ele>820</ele>
        <time>2018-07-23T06:58:39.990Z</time>
      </trkpt>
      <trkpt lat="42.381551" lon="-5.070054">
        <ele>820</ele>
        <time>2018-07-23T06:58:42.990Z</time>
      </trkpt>
      <trkpt lat="42.381607" lon="-5.070206">
        <ele>821</ele>
        <time>2018-07-23T06:58:45.990Z</time>
      </trkpt>
      <trkpt lat="42.381631" lon="-5.070334">
        <ele>821</ele>
        <time>2018-07-23T06:58:48.000Z</time>
      </trkpt>
      <trkpt lat="42.381681" lon="-5.070489">
        <ele>821</ele>
        <time>2018-07-23T06:58:50.990Z</time>
      </trkpt>
      <trkpt lat="42.381731" lon="-5.070619">
        <ele>821.028580310123</ele>
        <time>2018-07-23T06:58:53.990Z</time>
      </trkpt>
      <trkpt lat="42.38178" lon="-5.070754">
        <ele>822</ele>
        <time>2018-07-23T06:58:56.990Z</time>
      </trkpt>
      <trkpt lat="42.381828" lon="-5.070902">
        <ele>822</ele>
        <time>2018-07-23T06:59:00.000Z</time>
      </trkpt>
      <trkpt lat="42.381868" lon="-5.071011">
        <ele>822</ele>
        <time>2018-07-23T06:59:01.990Z</time>
      </trkpt>
      <trkpt lat="42.381915" lon="-5.071166">
        <ele>822</ele>
        <time>2018-07-23T06:59:05.000Z</time>
      </trkpt>
      <trkpt lat="42.381961" lon="-5.071325">
        <ele>823</ele>
        <time>2018-07-23T06:59:07.990Z</time>
      </trkpt>
      <trkpt lat="42.381994" lon="-5.071465">
        <ele>823</ele>
        <time>2018-07-23T06:59:10.990Z</time>
      </trkpt>
      <trkpt lat="42.382026" lon="-5.071609">
        <ele>823</ele>
        <time>2018-07-23T06:59:13.990Z</time>
      </trkpt>
      <trkpt lat="42.382059" lon="-5.071752">
        <ele>823</ele>
        <time>2018-07-23T06:59:16.990Z</time>
      </trkpt>
      <trkpt lat="42.382088" lon="-5.0719">
        <ele>823</ele>
        <time>2018-07-23T06:59:19.970Z</time>
      </trkpt>
      <trkpt lat="42.382115" lon="-5.072056">
        <ele>823</ele>
        <time>2018-07-23T06:59:22.990Z</time>
      </trkpt>
      <trkpt lat="42.382125" lon="-5.072217">
        <ele>823</ele>
        <time>2018-07-23T06:59:25.990Z</time>
      </trkpt>
      <trkpt lat="42.38213" lon="-5.072385">
        <ele>824</ele>
        <time>2018-07-23T06:59:28.990Z</time>
      </trkpt>
      <trkpt lat="42.382145" lon="-5.072557">
        <ele>824</ele>
        <time>2018-07-23T06:59:31.990Z</time>
      </trkpt>
      <trkpt lat="42.382147" lon="-5.072728">
        <ele>824.253844942006</ele>
        <time>2018-07-23T06:59:35.000Z</time>
      </trkpt>
      <trkpt lat="42.382158" lon="-5.072886">
        <ele>825</ele>
        <time>2018-07-23T06:59:37.990Z</time>
      </trkpt>
      <trkpt lat="42.382166" lon="-5.073062">
        <ele>825.32</ele>
        <time>2018-07-23T06:59:40.990Z</time>
      </trkpt>
      <trkpt lat="42.382164" lon="-5.073185">
        <ele>826</ele>
        <time>2018-07-23T06:59:42.990Z</time>
      </trkpt>
      <trkpt lat="42.382173" lon="-5.073359">
        <ele>827</ele>
        <time>2018-07-23T06:59:45.990Z</time>
      </trkpt>
      <trkpt lat="42.382184" lon="-5.073526">
        <ele>827</ele>
        <time>2018-07-23T06:59:48.990Z</time>
      </trkpt>
      <trkpt lat="42.382191" lon="-5.073693">
        <ele>827</ele>
        <time>2018-07-23T06:59:51.990Z</time>
      </trkpt>
      <trkpt lat="42.382244" lon="-5.073827">
        <ele>827</ele>
        <time>2018-07-23T06:59:55.000Z</time>
      </trkpt>
      <trkpt lat="42.382301" lon="-5.073926">
        <ele>828</ele>
        <time>2018-07-23T07:00:02.990Z</time>
      </trkpt>
      <trkpt lat="42.382384" lon="-5.07401">
        <ele>828</ele>
        <time>2018-07-23T07:00:07.990Z</time>
      </trkpt>
      <trkpt lat="42.382393" lon="-5.074168">
        <ele>828</ele>
        <time>2018-07-23T07:00:11.990Z</time>
      </trkpt>
      <trkpt lat="42.382392" lon="-5.074298">
        <ele>828</ele>
        <time>2018-07-23T07:00:15.000Z</time>
      </trkpt>
      <trkpt lat="42.382392" lon="-5.074422">
        <ele>828</ele>
        <time>2018-07-23T07:00:17.990Z</time>
      </trkpt>
      <trkpt lat="42.382386" lon="-5.07457">
        <ele>828</ele>
        <time>2018-07-23T07:00:20.990Z</time>
      </trkpt>
      <trkpt lat="42.382393" lon="-5.074722">
        <ele>828</ele>
        <time>2018-07-23T07:00:23.990Z</time>
      </trkpt>
      <trkpt lat="42.382401" lon="-5.07488">
        <ele>828</ele>
        <time>2018-07-23T07:00:26.990Z</time>
      </trkpt>
      <trkpt lat="42.382415" lon="-5.075008">
        <ele>828</ele>
        <time>2018-07-23T07:00:30.000Z</time>
      </trkpt>
      <trkpt lat="42.382419" lon="-5.075162">
        <ele>828</ele>
        <time>2018-07-23T07:00:33.990Z</time>
      </trkpt>
      <trkpt lat="42.382424" lon="-5.075288">
        <ele>828</ele>
        <time>2018-07-23T07:00:36.990Z</time>
      </trkpt>
      <trkpt lat="42.382431" lon="-5.075429">
        <ele>828</ele>
        <time>2018-07-23T07:00:40.000Z</time>
      </trkpt>
      <trkpt lat="42.382439" lon="-5.075578">
        <ele>828</ele>
        <time>2018-07-23T07:00:42.990Z</time>
      </trkpt>
      <trkpt lat="42.382437" lon="-5.075716">
        <ele>829</ele>
        <time>2018-07-23T07:00:45.990Z</time>
      </trkpt>
      <trkpt lat="42.382454" lon="-5.075846">
        <ele>829.32</ele>
        <time>2018-07-23T07:00:48.990Z</time>
      </trkpt>
      <trkpt lat="42.382466" lon="-5.075988">
        <ele>829.971419689877</ele>
        <time>2018-07-23T07:00:51.990Z</time>
      </trkpt>
      <trkpt lat="42.382486" lon="-5.076138">
        <ele>829</ele>
        <time>2018-07-23T07:00:55.000Z</time>
      </trkpt>
      <trkpt lat="42.382479" lon="-5.07628">
        <ele>829</ele>
        <time>2018-07-23T07:00:57.990Z</time>
      </trkpt>
      <trkpt lat="42.382454" lon="-5.076397">
        <ele>829.028580310123</ele>
        <time>2018-07-23T07:01:01.990Z</time>
      </trkpt>
      <trkpt lat="42.382464" lon="-5.076525">
        <ele>830</ele>
        <time>2018-07-23T07:01:07.990Z</time>
      </trkpt>
      <trkpt lat="42.382505" lon="-5.076643">
        <ele>830</ele>
        <time>2018-07-23T07:01:11.990Z</time>
      </trkpt>
      <trkpt lat="42.382558" lon="-5.076754">
        <ele>830.3299968</ele>
        <time>2018-07-23T07:01:15.000Z</time>
      </trkpt>
      <trkpt lat="42.382662" lon="-5.076809">
        <ele>831</ele>
        <time>2018-07-23T07:01:18.990Z</time>
      </trkpt>
      <trkpt lat="42.382777" lon="-5.07684">
        <ele>832</ele>
        <time>2018-07-23T07:01:22.990Z</time>
      </trkpt>
      <trkpt lat="42.382864" lon="-5.076881">
        <ele>832</ele>
        <time>2018-07-23T07:01:25.990Z</time>
      </trkpt>
      <trkpt lat="42.382959" lon="-5.076947">
        <ele>833.32</ele>
        <time>2018-07-23T07:01:30.990Z</time>
      </trkpt>
      <trkpt lat="42.383046" lon="-5.076977">
        <ele>834.3299968</ele>
        <time>2018-07-23T07:01:35.000Z</time>
      </trkpt>
      <trkpt lat="42.383141" lon="-5.07702">
        <ele>835</ele>
        <time>2018-07-23T07:01:38.990Z</time>
      </trkpt>
      <trkpt lat="42.383247" lon="-5.077055">
        <ele>835</ele>
        <time>2018-07-23T07:01:42.990Z</time>
      </trkpt>
      <trkpt lat="42.383345" lon="-5.077082">
        <ele>836</ele>
        <time>2018-07-23T07:01:45.990Z</time>
      </trkpt>
      <trkpt lat="42.383465" lon="-5.077125">
        <ele>837</ele>
        <time>2018-07-23T07:01:50.000Z</time>
      </trkpt>
      <trkpt lat="42.383565" lon="-5.077158">
        <ele>837</ele>
        <time>2018-07-23T07:01:52.990Z</time>
      </trkpt>
      <trkpt lat="42.383667" lon="-5.077196">
        <ele>837</ele>
        <time>2018-07-23T07:01:55.990Z</time>
      </trkpt>
      <trkpt lat="42.383768" lon="-5.077229">
        <ele>837</ele>
        <time>2018-07-23T07:01:58.990Z</time>
      </trkpt>
      <trkpt lat="42.383873" lon="-5.07727">
        <ele>837</ele>
        <time>2018-07-23T07:02:01.990Z</time>
      </trkpt>
      <trkpt lat="42.383974" lon="-5.077315">
        <ele>837</ele>
        <time>2018-07-23T07:02:05.000Z</time>
      </trkpt>
      <trkpt lat="42.384086" lon="-5.077356">
        <ele>837</ele>
        <time>2018-07-23T07:02:07.990Z</time>
      </trkpt>
      <trkpt lat="42.384198" lon="-5.077399">
        <ele>837</ele>
        <time>2018-07-23T07:02:10.990Z</time>
      </trkpt>
      <trkpt lat="42.384314" lon="-5.077449">
        <ele>837</ele>
        <time>2018-07-23T07:02:13.990Z</time>
      </trkpt>
      <trkpt lat="42.3844" lon="-5.077485">
        <ele>837</ele>
        <time>2018-07-23T07:02:15.990Z</time>
      </trkpt>
      <trkpt lat="42.38449" lon="-5.077528">
        <ele>837</ele>
        <time>2018-07-23T07:02:17.990Z</time>
      </trkpt>
      <trkpt lat="42.384587" lon="-5.077581">
        <ele>836</ele>
        <time>2018-07-23T07:02:20.000Z</time>
      </trkpt>
      <trkpt lat="42.384697" lon="-5.077645">
        <ele>835</ele>
        <time>2018-07-23T07:02:21.990Z</time>
      </trkpt>
      <trkpt lat="42.384806" lon="-5.077718">
        <ele>833.693873019605</ele>
        <time>2018-07-23T07:02:23.990Z</time>
      </trkpt>
      <trkpt lat="42.384934" lon="-5.077796">
        <ele>832</ele>
        <time>2018-07-23T07:02:25.990Z</time>
      </trkpt>
      <trkpt lat="42.385068" lon="-5.07788">
        <ele>832</ele>
        <time>2018-07-23T07:02:27.990Z</time>
      </trkpt>
      <trkpt lat="42.385208" lon="-5.077974">
        <ele>831.985298823529</ele>
        <time>2018-07-23T07:02:30.000Z</time>
      </trkpt>
      <trkpt lat="42.385338" lon="-5.07806">
        <ele>831</ele>
        <time>2018-07-23T07:02:31.990Z</time>
      </trkpt>
      <trkpt lat="42.385463" lon="-5.078138">
        <ele>831</ele>
        <time>2018-07-23T07:02:33.990Z</time>
      </trkpt>
      <trkpt lat="42.385576" lon="-5.078212">
        <ele>831</ele>
        <time>2018-07-23T07:02:35.990Z</time>
      </trkpt>
      <trkpt lat="42.385683" lon="-5.07828">
        <ele>831</ele>
        <time>2018-07-23T07:02:37.990Z</time>
      </trkpt>
      <trkpt lat="42.385788" lon="-5.078351">
        <ele>831</ele>
        <time>2018-07-23T07:02:40.000Z</time>
      </trkpt>
      <trkpt lat="42.385884" lon="-5.078404">
        <ele>831</ele>
        <time>2018-07-23T07:02:41.990Z</time>
      </trkpt>
      <trkpt lat="42.385973" lon="-5.078462">
        <ele>831</ele>
        <time>2018-07-23T07:02:43.990Z</time>
      </trkpt>
      <trkpt lat="42.38606" lon="-5.078525">
        <ele>831</ele>
        <time>2018-07-23T07:02:45.990Z</time>
      </trkpt>
      <trkpt lat="42.386168" lon="-5.078607">
        <ele>831</ele>
        <time>2018-07-23T07:02:48.990Z</time>
      </trkpt>
      <trkpt lat="42.386228" lon="-5.07873">
        <ele>832</ele>
        <time>2018-07-23T07:02:53.990Z</time>
      </trkpt>
      <trkpt lat="42.386319" lon="-5.078836">
        <ele>832</ele>
        <time>2018-07-23T07:02:57.990Z</time>
      </trkpt>
      <trkpt lat="42.386416" lon="-5.078938">
        <ele>832</ele>
        <time>2018-07-23T07:03:00.990Z</time>
      </trkpt>
      <trkpt lat="42.386518" lon="-5.079062">
        <ele>832</ele>
        <time>2018-07-23T07:03:03.990Z</time>
      </trkpt>
      <trkpt lat="42.386614" lon="-5.079189">
        <ele>832</ele>
        <time>2018-07-23T07:03:06.990Z</time>
      </trkpt>
      <trkpt lat="42.386694" lon="-5.079304">
        <ele>832</ele>
        <time>2018-07-23T07:03:09.000Z</time>
      </trkpt>
      <trkpt lat="42.386764" lon="-5.079418">
        <ele>832</ele>
        <time>2018-07-23T07:03:11.000Z</time>
      </trkpt>
      <trkpt lat="42.386835" lon="-5.079525">
        <ele>832</ele>
        <time>2018-07-23T07:03:13.000Z</time>
      </trkpt>
      <trkpt lat="42.386899" lon="-5.079629">
        <ele>832</ele>
        <time>2018-07-23T07:03:15.000Z</time>
      </trkpt>
      <trkpt lat="42.386952" lon="-5.079734">
        <ele>832</ele>
        <time>2018-07-23T07:03:17.000Z</time>
      </trkpt>
      <trkpt lat="42.387012" lon="-5.079841">
        <ele>832</ele>
        <time>2018-07-23T07:03:19.000Z</time>
      </trkpt>
      <trkpt lat="42.387081" lon="-5.079928">
        <ele>832</ele>
        <time>2018-07-23T07:03:20.990Z</time>
      </trkpt>
      <trkpt lat="42.387155" lon="-5.080008">
        <ele>832</ele>
        <time>2018-07-23T07:03:22.990Z</time>
      </trkpt>
      <trkpt lat="42.387231" lon="-5.080095">
        <ele>832</ele>
        <time>2018-07-23T07:03:24.990Z</time>
      </trkpt>
      <trkpt lat="42.387309" lon="-5.080188">
        <ele>832</ele>
        <time>2018-07-23T07:03:26.990Z</time>
      </trkpt>
      <trkpt lat="42.387378" lon="-5.080271">
        <ele>832</ele>
        <time>2018-07-23T07:03:29.000Z</time>
      </trkpt>
      <trkpt lat="42.38745" lon="-5.080366">
        <ele>832</ele>
        <time>2018-07-23T07:03:30.990Z</time>
      </trkpt>
      <trkpt lat="42.387531" lon="-5.080452">
        <ele>832</ele>
        <time>2018-07-23T07:03:32.990Z</time>
      </trkpt>
      <trkpt lat="42.387601" lon="-5.080538">
        <ele>832</ele>
        <time>2018-07-23T07:03:34.990Z</time>
      </trkpt>
      <trkpt lat="42.387712" lon="-5.080636">
        <ele>832</ele>
        <time>2018-07-23T07:03:37.990Z</time>
      </trkpt>
      <trkpt lat="42.3878" lon="-5.080756">
        <ele>832</ele>
        <time>2018-07-23T07:03:40.990Z</time>
      </trkpt>
      <trkpt lat="42.387887" lon="-5.080881">
        <ele>832</ele>
        <time>2018-07-23T07:03:44.000Z</time>
      </trkpt>
      <trkpt lat="42.387948" lon="-5.080978">
        <ele>832</ele>
        <time>2018-07-23T07:03:45.990Z</time>
      </trkpt>
      <trkpt lat="42.388039" lon="-5.081107">
        <ele>832</ele>
        <time>2018-07-23T07:03:49.000Z</time>
      </trkpt>
      <trkpt lat="42.388124" lon="-5.081242">
        <ele>832</ele>
        <time>2018-07-23T07:03:51.990Z</time>
      </trkpt>
      <trkpt lat="42.388182" lon="-5.08134">
        <ele>832</ele>
        <time>2018-07-23T07:03:54.000Z</time>
      </trkpt>
      <trkpt lat="42.388258" lon="-5.081462">
        <ele>832</ele>
        <time>2018-07-23T07:03:56.990Z</time>
      </trkpt>
      <trkpt lat="42.388328" lon="-5.081608">
        <ele>832</ele>
        <time>2018-07-23T07:03:59.990Z</time>
      </trkpt>
      <trkpt lat="42.388392" lon="-5.081767">
        <ele>832</ele>
        <time>2018-07-23T07:04:02.990Z</time>
      </trkpt>
      <trkpt lat="42.388464" lon="-5.08192">
        <ele>832</ele>
        <time>2018-07-23T07:04:05.990Z</time>
      </trkpt>
      <trkpt lat="42.38852" lon="-5.082031">
        <ele>832</ele>
        <time>2018-07-23T07:04:07.990Z</time>
      </trkpt>
      <trkpt lat="42.388575" lon="-5.082131">
        <ele>832</ele>
        <time>2018-07-23T07:04:09.990Z</time>
      </trkpt>
      <trkpt lat="42.388633" lon="-5.082228">
        <ele>832.32</ele>
        <time>2018-07-23T07:04:11.990Z</time>
      </trkpt>
      <trkpt lat="42.3887" lon="-5.082333">
        <ele>833</ele>
        <time>2018-07-23T07:04:14.000Z</time>
      </trkpt>
      <trkpt lat="42.388758" lon="-5.082443">
        <ele>833</ele>
        <time>2018-07-23T07:04:15.990Z</time>
      </trkpt>
      <trkpt lat="42.388814" lon="-5.082558">
        <ele>833</ele>
        <time>2018-07-23T07:04:17.990Z</time>
      </trkpt>
      <trkpt lat="42.388866" lon="-5.082675">
        <ele>833</ele>
        <time>2018-07-23T07:04:19.990Z</time>
      </trkpt>
      <trkpt lat="42.388904" lon="-5.082801">
        <ele>832.68</ele>
        <time>2018-07-23T07:04:21.990Z</time>
      </trkpt>
      <trkpt lat="42.388948" lon="-5.082927">
        <ele>832</ele>
        <time>2018-07-23T07:04:24.000Z</time>
      </trkpt>
      <trkpt lat="42.389012" lon="-5.083049">
        <ele>832</ele>
        <time>2018-07-23T07:04:25.990Z</time>
      </trkpt>
      <trkpt lat="42.389056" lon="-5.083162">
        <ele>832</ele>
        <time>2018-07-23T07:04:27.990Z</time>
      </trkpt>
      <trkpt lat="42.389102" lon="-5.083289">
        <ele>832</ele>
        <time>2018-07-23T07:04:29.990Z</time>
      </trkpt>
      <trkpt lat="42.389146" lon="-5.083419">
        <ele>832.32</ele>
        <time>2018-07-23T07:04:31.990Z</time>
      </trkpt>
      <trkpt lat="42.38919" lon="-5.083554">
        <ele>833</ele>
        <time>2018-07-23T07:04:34.000Z</time>
      </trkpt>
      <trkpt lat="42.389234" lon="-5.083682">
        <ele>833</ele>
        <time>2018-07-23T07:04:35.990Z</time>
      </trkpt>
      <trkpt lat="42.389274" lon="-5.083809">
        <ele>833</ele>
        <time>2018-07-23T07:04:37.990Z</time>
      </trkpt>
      <trkpt lat="42.389332" lon="-5.083941">
        <ele>833</ele>
        <time>2018-07-23T07:04:39.990Z</time>
      </trkpt>
      <trkpt lat="42.389372" lon="-5.084069">
        <ele>833</ele>
        <time>2018-07-23T07:04:41.990Z</time>
      </trkpt>
      <trkpt lat="42.389426" lon="-5.084192">
        <ele>833</ele>
        <time>2018-07-23T07:04:44.000Z</time>
      </trkpt>
      <trkpt lat="42.389474" lon="-5.084305">
        <ele>833</ele>
        <time>2018-07-23T07:04:45.990Z</time>
      </trkpt>
      <trkpt lat="42.389542" lon="-5.084457">
        <ele>834</ele>
        <time>2018-07-23T07:04:49.000Z</time>
      </trkpt>
      <trkpt lat="42.389604" lon="-5.084563">
        <ele>834</ele>
        <time>2018-07-23T07:04:51.990Z</time>
      </trkpt>
      <trkpt lat="42.389677" lon="-5.084669">
        <ele>834</ele>
        <time>2018-07-23T07:04:55.990Z</time>
      </trkpt>
      <trkpt lat="42.389748" lon="-5.084769">
        <ele>834</ele>
        <time>2018-07-23T07:04:59.000Z</time>
      </trkpt>
      <trkpt lat="42.389831" lon="-5.084903">
        <ele>834</ele>
        <time>2018-07-23T07:05:01.990Z</time>
      </trkpt>
      <trkpt lat="42.38992" lon="-5.085042">
        <ele>834</ele>
        <time>2018-07-23T07:05:04.990Z</time>
      </trkpt>
      <trkpt lat="42.389989" lon="-5.085145">
        <ele>834</ele>
        <time>2018-07-23T07:05:06.990Z</time>
      </trkpt>
      <trkpt lat="42.390056" lon="-5.085241">
        <ele>834</ele>
        <time>2018-07-23T07:05:09.000Z</time>
      </trkpt>
      <trkpt lat="42.390153" lon="-5.085369">
        <ele>834</ele>
        <time>2018-07-23T07:05:11.990Z</time>
      </trkpt>
      <trkpt lat="42.390227" lon="-5.085457">
        <ele>834</ele>
        <time>2018-07-23T07:05:14.000Z</time>
      </trkpt>
      <trkpt lat="42.390294" lon="-5.085551">
        <ele>834</ele>
        <time>2018-07-23T07:05:15.990Z</time>
      </trkpt>
      <trkpt lat="42.390351" lon="-5.085654">
        <ele>834</ele>
        <time>2018-07-23T07:05:17.990Z</time>
      </trkpt>
      <trkpt lat="42.390416" lon="-5.085756">
        <ele>834</ele>
        <time>2018-07-23T07:05:19.990Z</time>
      </trkpt>
      <trkpt lat="42.390475" lon="-5.085866">
        <ele>834</ele>
        <time>2018-07-23T07:05:21.990Z</time>
      </trkpt>
      <trkpt lat="42.390528" lon="-5.085975">
        <ele>834</ele>
        <time>2018-07-23T07:05:24.000Z</time>
      </trkpt>
      <trkpt lat="42.390582" lon="-5.086083">
        <ele>834.32</ele>
        <time>2018-07-23T07:05:25.990Z</time>
      </trkpt>
      <trkpt lat="42.390633" lon="-5.086198">
        <ele>835</ele>
        <time>2018-07-23T07:05:27.990Z</time>
      </trkpt>
      <trkpt lat="42.390695" lon="-5.086308">
        <ele>835</ele>
        <time>2018-07-23T07:05:29.990Z</time>
      </trkpt>
      <trkpt lat="42.390758" lon="-5.086418">
        <ele>835</ele>
        <time>2018-07-23T07:05:31.990Z</time>
      </trkpt>
      <trkpt lat="42.390821" lon="-5.086533">
        <ele>835</ele>
        <time>2018-07-23T07:05:34.000Z</time>
      </trkpt>
      <trkpt lat="42.390883" lon="-5.086638">
        <ele>835</ele>
        <time>2018-07-23T07:05:35.990Z</time>
      </trkpt>
      <trkpt lat="42.390941" lon="-5.086741">
        <ele>835</ele>
        <time>2018-07-23T07:05:37.990Z</time>
      </trkpt>
      <trkpt lat="42.391007" lon="-5.08685">
        <ele>835</ele>
        <time>2018-07-23T07:05:39.990Z</time>
      </trkpt>
      <trkpt lat="42.391074" lon="-5.086952">
        <ele>835</ele>
        <time>2018-07-23T07:05:41.990Z</time>
      </trkpt>
      <trkpt lat="42.391144" lon="-5.087058">
        <ele>835</ele>
        <time>2018-07-23T07:05:44.000Z</time>
      </trkpt>
      <trkpt lat="42.391213" lon="-5.087165">
        <ele>835</ele>
        <time>2018-07-23T07:05:45.990Z</time>
      </trkpt>
      <trkpt lat="42.39128" lon="-5.087262">
        <ele>835</ele>
        <time>2018-07-23T07:05:47.990Z</time>
      </trkpt>
      <trkpt lat="42.391354" lon="-5.087355">
        <ele>835</ele>
        <time>2018-07-23T07:05:49.990Z</time>
      </trkpt>
      <trkpt lat="42.391429" lon="-5.087457">
        <ele>835</ele>
        <time>2018-07-23T07:05:51.990Z</time>
      </trkpt>
      <trkpt lat="42.391503" lon="-5.087553">
        <ele>835</ele>
        <time>2018-07-23T07:05:54.000Z</time>
      </trkpt>
      <trkpt lat="42.391574" lon="-5.087645">
        <ele>836</ele>
        <time>2018-07-23T07:05:55.990Z</time>
      </trkpt>
      <trkpt lat="42.391648" lon="-5.08774">
        <ele>836</ele>
        <time>2018-07-23T07:05:57.990Z</time>
      </trkpt>
      <trkpt lat="42.391719" lon="-5.087841">
        <ele>836</ele>
        <time>2018-07-23T07:05:59.990Z</time>
      </trkpt>
      <trkpt lat="42.391799" lon="-5.087942">
        <ele>836</ele>
        <time>2018-07-23T07:06:01.990Z</time>
      </trkpt>
      <trkpt lat="42.391876" lon="-5.088048">
        <ele>836</ele>
        <time>2018-07-23T07:06:04.000Z</time>
      </trkpt>
      <trkpt lat="42.391943" lon="-5.08816">
        <ele>836</ele>
        <time>2018-07-23T07:06:05.990Z</time>
      </trkpt>
      <trkpt lat="42.392012" lon="-5.08827">
        <ele>836</ele>
        <time>2018-07-23T07:06:07.990Z</time>
      </trkpt>
      <trkpt lat="42.392062" lon="-5.088394">
        <ele>836</ele>
        <time>2018-07-23T07:06:09.990Z</time>
      </trkpt>
      <trkpt lat="42.392103" lon="-5.08851">
        <ele>836</ele>
        <time>2018-07-23T07:06:11.990Z</time>
      </trkpt>
      <trkpt lat="42.392137" lon="-5.088637">
        <ele>836</ele>
        <time>2018-07-23T07:06:14.000Z</time>
      </trkpt>
      <trkpt lat="42.392175" lon="-5.088757">
        <ele>836</ele>
        <time>2018-07-23T07:06:15.990Z</time>
      </trkpt>
      <trkpt lat="42.392211" lon="-5.088885">
        <ele>836</ele>
        <time>2018-07-23T07:06:17.990Z</time>
      </trkpt>
      <trkpt lat="42.392252" lon="-5.089009">
        <ele>836</ele>
        <time>2018-07-23T07:06:19.990Z</time>
      </trkpt>
      <trkpt lat="42.392288" lon="-5.08914">
        <ele>836</ele>
        <time>2018-07-23T07:06:21.990Z</time>
      </trkpt>
      <trkpt lat="42.392323" lon="-5.089272">
        <ele>836</ele>
        <time>2018-07-23T07:06:24.000Z</time>
      </trkpt>
      <trkpt lat="42.392362" lon="-5.089404">
        <ele>837</ele>
        <time>2018-07-23T07:06:25.990Z</time>
      </trkpt>
      <trkpt lat="42.3924" lon="-5.089536">
        <ele>837</ele>
        <time>2018-07-23T07:06:27.990Z</time>
      </trkpt>
      <trkpt lat="42.392442" lon="-5.089665">
        <ele>837</ele>
        <time>2018-07-23T07:06:29.990Z</time>
      </trkpt>
      <trkpt lat="42.392485" lon="-5.089791">
        <ele>837</ele>
        <time>2018-07-23T07:06:31.990Z</time>
      </trkpt>
      <trkpt lat="42.392531" lon="-5.089913">
        <ele>837</ele>
        <time>2018-07-23T07:06:34.000Z</time>
      </trkpt>
      <trkpt lat="42.392569" lon="-5.090032">
        <ele>837</ele>
        <time>2018-07-23T07:06:35.990Z</time>
      </trkpt>
      <trkpt lat="42.392611" lon="-5.090151">
        <ele>837.992483590938</ele>
        <time>2018-07-23T07:06:37.990Z</time>
      </trkpt>
      <trkpt lat="42.392647" lon="-5.09028">
        <ele>838</ele>
        <time>2018-07-23T07:06:39.990Z</time>
      </trkpt>
      <trkpt lat="42.392689" lon="-5.090404">
        <ele>838</ele>
        <time>2018-07-23T07:06:41.990Z</time>
      </trkpt>
      <trkpt lat="42.39274" lon="-5.090542">
        <ele>838</ele>
        <time>2018-07-23T07:06:44.000Z</time>
      </trkpt>
      <trkpt lat="42.392787" lon="-5.090664">
        <ele>838</ele>
        <time>2018-07-23T07:06:45.990Z</time>
      </trkpt>
      <trkpt lat="42.392847" lon="-5.090799">
        <ele>838</ele>
        <time>2018-07-23T07:06:47.990Z</time>
      </trkpt>
      <trkpt lat="42.392903" lon="-5.090925">
        <ele>838</ele>
        <time>2018-07-23T07:06:49.990Z</time>
      </trkpt>
      <trkpt lat="42.39296" lon="-5.091042">
        <ele>838</ele>
        <time>2018-07-23T07:06:51.990Z</time>
      </trkpt>
      <trkpt lat="42.393015" lon="-5.091169">
        <ele>838</ele>
        <time>2018-07-23T07:06:54.000Z</time>
      </trkpt>
      <trkpt lat="42.393068" lon="-5.091292">
        <ele>838.32</ele>
        <time>2018-07-23T07:06:55.990Z</time>
      </trkpt>
      <trkpt lat="42.393122" lon="-5.09141">
        <ele>839</ele>
        <time>2018-07-23T07:06:57.990Z</time>
      </trkpt>
      <trkpt lat="42.393177" lon="-5.091531">
        <ele>839</ele>
        <time>2018-07-23T07:06:59.990Z</time>
      </trkpt>
      <trkpt lat="42.393221" lon="-5.091646">
        <ele>839</ele>
        <time>2018-07-23T07:07:01.990Z</time>
      </trkpt>
      <trkpt lat="42.39327" lon="-5.09177">
        <ele>839</ele>
        <time>2018-07-23T07:07:04.000Z</time>
      </trkpt>
      <trkpt lat="42.393328" lon="-5.09189">
        <ele>839</ele>
        <time>2018-07-23T07:07:05.990Z</time>
      </trkpt>
      <trkpt lat="42.393379" lon="-5.09201">
        <ele>839</ele>
        <time>2018-07-23T07:07:07.990Z</time>
      </trkpt>
      <trkpt lat="42.393428" lon="-5.092131">
        <ele>840</ele>
        <time>2018-07-23T07:07:09.990Z</time>
      </trkpt>
      <trkpt lat="42.393487" lon="-5.092248">
        <ele>839.028580310123</ele>
        <time>2018-07-23T07:07:11.990Z</time>
      </trkpt>
      <trkpt lat="42.393547" lon="-5.09237">
        <ele>840</ele>
        <time>2018-07-23T07:07:14.000Z</time>
      </trkpt>
      <trkpt lat="42.393612" lon="-5.092486">
        <ele>839</ele>
        <time>2018-07-23T07:07:15.990Z</time>
      </trkpt>
      <trkpt lat="42.393673" lon="-5.092592">
        <ele>839</ele>
        <time>2018-07-23T07:07:17.990Z</time>
      </trkpt>
      <trkpt lat="42.39373" lon="-5.0927">
        <ele>839</ele>
        <time>2018-07-23T07:07:19.990Z</time>
      </trkpt>
      <trkpt lat="42.393792" lon="-5.092818">
        <ele>839</ele>
        <time>2018-07-23T07:07:21.990Z</time>
      </trkpt>
      <trkpt lat="42.393851" lon="-5.092934">
        <ele>839.253844942006</ele>
        <time>2018-07-23T07:07:24.000Z</time>
      </trkpt>
      <trkpt lat="42.393904" lon="-5.093037">
        <ele>840</ele>
        <time>2018-07-23T07:07:25.990Z</time>
      </trkpt>
      <trkpt lat="42.393961" lon="-5.093149">
        <ele>840</ele>
        <time>2018-07-23T07:07:27.990Z</time>
      </trkpt>
      <trkpt lat="42.394023" lon="-5.093258">
        <ele>840</ele>
        <time>2018-07-23T07:07:29.990Z</time>
      </trkpt>
      <trkpt lat="42.394086" lon="-5.093364">
        <ele>840</ele>
        <time>2018-07-23T07:07:31.990Z</time>
      </trkpt>
      <trkpt lat="42.394147" lon="-5.093478">
        <ele>840</ele>
        <time>2018-07-23T07:07:34.000Z</time>
      </trkpt>
      <trkpt lat="42.394206" lon="-5.093594">
        <ele>840</ele>
        <time>2018-07-23T07:07:35.990Z</time>
      </trkpt>
      <trkpt lat="42.394261" lon="-5.0937">
        <ele>840</ele>
        <time>2018-07-23T07:07:37.990Z</time>
      </trkpt>
      <trkpt lat="42.394321" lon="-5.093798">
        <ele>840</ele>
        <time>2018-07-23T07:07:39.990Z</time>
      </trkpt>
      <trkpt lat="42.394379" lon="-5.093896">
        <ele>840</ele>
        <time>2018-07-23T07:07:41.990Z</time>
      </trkpt>
      <trkpt lat="42.394442" lon="-5.094006">
        <ele>840</ele>
        <time>2018-07-23T07:07:44.000Z</time>
      </trkpt>
      <trkpt lat="42.394502" lon="-5.094122">
        <ele>840.992368873603</ele>
        <time>2018-07-23T07:07:45.990Z</time>
      </trkpt>
      <trkpt lat="42.394558" lon="-5.094242">
        <ele>841</ele>
        <time>2018-07-23T07:07:47.990Z</time>
      </trkpt>
      <trkpt lat="42.394625" lon="-5.094352">
        <ele>841</ele>
        <time>2018-07-23T07:07:49.990Z</time>
      </trkpt>
      <trkpt lat="42.394689" lon="-5.094465">
        <ele>841</ele>
        <time>2018-07-23T07:07:51.990Z</time>
      </trkpt>
      <trkpt lat="42.394762" lon="-5.094568">
        <ele>840.6700032</ele>
        <time>2018-07-23T07:07:54.000Z</time>
      </trkpt>
      <trkpt lat="42.39483" lon="-5.09467">
        <ele>840</ele>
        <time>2018-07-23T07:07:55.990Z</time>
      </trkpt>
      <trkpt lat="42.394885" lon="-5.09477">
        <ele>841</ele>
        <time>2018-07-23T07:07:57.990Z</time>
      </trkpt>
      <trkpt lat="42.394949" lon="-5.094882">
        <ele>841</ele>
        <time>2018-07-23T07:07:59.990Z</time>
      </trkpt>
      <trkpt lat="42.39501" lon="-5.094995">
        <ele>841</ele>
        <time>2018-07-23T07:08:01.990Z</time>
      </trkpt>
      <trkpt lat="42.395073" lon="-5.09511">
        <ele>841</ele>
        <time>2018-07-23T07:08:04.000Z</time>
      </trkpt>
      <trkpt lat="42.395134" lon="-5.095213">
        <ele>841</ele>
        <time>2018-07-23T07:08:05.990Z</time>
      </trkpt>
      <trkpt lat="42.395193" lon="-5.095321">
        <ele>841</ele>
        <time>2018-07-23T07:08:07.990Z</time>
      </trkpt>
      <trkpt lat="42.395248" lon="-5.095438">
        <ele>841</ele>
        <time>2018-07-23T07:08:09.990Z</time>
      </trkpt>
      <trkpt lat="42.395303" lon="-5.095551">
        <ele>841</ele>
        <time>2018-07-23T07:08:11.990Z</time>
      </trkpt>
      <trkpt lat="42.395365" lon="-5.095669">
        <ele>841</ele>
        <time>2018-07-23T07:08:13.990Z</time>
      </trkpt>
      <trkpt lat="42.395434" lon="-5.095769">
        <ele>841</ele>
        <time>2018-07-23T07:08:15.990Z</time>
      </trkpt>
      <trkpt lat="42.395498" lon="-5.095874">
        <ele>841</ele>
        <time>2018-07-23T07:08:17.990Z</time>
      </trkpt>
      <trkpt lat="42.395565" lon="-5.095982">
        <ele>841</ele>
        <time>2018-07-23T07:08:19.990Z</time>
      </trkpt>
      <trkpt lat="42.395634" lon="-5.096098">
        <ele>841</ele>
        <time>2018-07-23T07:08:21.990Z</time>
      </trkpt>
      <trkpt lat="42.395707" lon="-5.096211">
        <ele>841</ele>
        <time>2018-07-23T07:08:24.000Z</time>
      </trkpt>
      <trkpt lat="42.39578" lon="-5.096317">
        <ele>841</ele>
        <time>2018-07-23T07:08:25.990Z</time>
      </trkpt>
      <trkpt lat="42.395855" lon="-5.096413">
        <ele>841</ele>
        <time>2018-07-23T07:08:27.990Z</time>
      </trkpt>
      <trkpt lat="42.395929" lon="-5.096504">
        <ele>841</ele>
        <time>2018-07-23T07:08:29.990Z</time>
      </trkpt>
      <trkpt lat="42.396" lon="-5.096606">
        <ele>841</ele>
        <time>2018-07-23T07:08:31.990Z</time>
      </trkpt>
      <trkpt lat="42.396073" lon="-5.09671">
        <ele>841</ele>
        <time>2018-07-23T07:08:34.000Z</time>
      </trkpt>
      <trkpt lat="42.396144" lon="-5.096805">
        <ele>841</ele>
        <time>2018-07-23T07:08:35.990Z</time>
      </trkpt>
      <trkpt lat="42.396212" lon="-5.096906">
        <ele>841</ele>
        <time>2018-07-23T07:08:37.990Z</time>
      </trkpt>
      <trkpt lat="42.396288" lon="-5.097002">
        <ele>841</ele>
        <time>2018-07-23T07:08:39.990Z</time>
      </trkpt>
      <trkpt lat="42.396364" lon="-5.097105">
        <ele>841</ele>
        <time>2018-07-23T07:08:41.990Z</time>
      </trkpt>
      <trkpt lat="42.396436" lon="-5.097202">
        <ele>841</ele>
        <time>2018-07-23T07:08:44.000Z</time>
      </trkpt>
      <trkpt lat="42.396507" lon="-5.097299">
        <ele>841</ele>
        <time>2018-07-23T07:08:45.990Z</time>
      </trkpt>
      <trkpt lat="42.396582" lon="-5.097396">
        <ele>841</ele>
        <time>2018-07-23T07:08:47.990Z</time>
      </trkpt>
      <trkpt lat="42.396659" lon="-5.097502">
        <ele>841</ele>
        <time>2018-07-23T07:08:49.990Z</time>
      </trkpt>
      <trkpt lat="42.396733" lon="-5.097602">
        <ele>841</ele>
        <time>2018-07-23T07:08:51.990Z</time>
      </trkpt>
      <trkpt lat="42.396812" lon="-5.097702">
        <ele>841</ele>
        <time>2018-07-23T07:08:54.000Z</time>
      </trkpt>
      <trkpt lat="42.39688" lon="-5.097804">
        <ele>841</ele>
        <time>2018-07-23T07:08:55.990Z</time>
      </trkpt>
      <trkpt lat="42.396966" lon="-5.097944">
        <ele>842</ele>
        <time>2018-07-23T07:08:59.000Z</time>
      </trkpt>
      <trkpt lat="42.397049" lon="-5.098086">
        <ele>842</ele>
        <time>2018-07-23T07:09:01.990Z</time>
      </trkpt>
      <trkpt lat="42.3971" lon="-5.098191">
        <ele>842</ele>
        <time>2018-07-23T07:09:04.000Z</time>
      </trkpt>
      <trkpt lat="42.397175" lon="-5.098342">
        <ele>842</ele>
        <time>2018-07-23T07:09:06.990Z</time>
      </trkpt>
      <trkpt lat="42.397245" lon="-5.098494">
        <ele>843</ele>
        <time>2018-07-23T07:09:09.990Z</time>
      </trkpt>
      <trkpt lat="42.397292" lon="-5.098633">
        <ele>843</ele>
        <time>2018-07-23T07:09:12.990Z</time>
      </trkpt>
      <trkpt lat="42.397329" lon="-5.098794">
        <ele>843</ele>
        <time>2018-07-23T07:09:15.990Z</time>
      </trkpt>
      <trkpt lat="42.397364" lon="-5.098967">
        <ele>844</ele>
        <time>2018-07-23T07:09:18.990Z</time>
      </trkpt>
      <trkpt lat="42.397397" lon="-5.099144">
        <ele>844</ele>
        <time>2018-07-23T07:09:21.990Z</time>
      </trkpt>
      <trkpt lat="42.397421" lon="-5.099265">
        <ele>844</ele>
        <time>2018-07-23T07:09:24.000Z</time>
      </trkpt>
      <trkpt lat="42.397452" lon="-5.09939">
        <ele>844</ele>
        <time>2018-07-23T07:09:25.990Z</time>
      </trkpt>
      <trkpt lat="42.397502" lon="-5.099559">
        <ele>844</ele>
        <time>2018-07-23T07:09:29.000Z</time>
      </trkpt>
      <trkpt lat="42.39753" lon="-5.099677">
        <ele>844</ele>
        <time>2018-07-23T07:09:30.990Z</time>
      </trkpt>
      <trkpt lat="42.397572" lon="-5.099842">
        <ele>845</ele>
        <time>2018-07-23T07:09:33.990Z</time>
      </trkpt>
      <trkpt lat="42.397609" lon="-5.099995">
        <ele>845</ele>
        <time>2018-07-23T07:09:36.990Z</time>
      </trkpt>
      <trkpt lat="42.397661" lon="-5.100133">
        <ele>845.028580310123</ele>
        <time>2018-07-23T07:09:39.990Z</time>
      </trkpt>
      <trkpt lat="42.397714" lon="-5.100272">
        <ele>847</ele>
        <time>2018-07-23T07:09:42.990Z</time>
      </trkpt>
      <trkpt lat="42.397765" lon="-5.100425">
        <ele>847</ele>
        <time>2018-07-23T07:09:45.990Z</time>
      </trkpt>
      <trkpt lat="42.397808" lon="-5.100577">
        <ele>848</ele>
        <time>2018-07-23T07:09:49.000Z</time>
      </trkpt>
      <trkpt lat="42.39785" lon="-5.100724">
        <ele>849</ele>
        <time>2018-07-23T07:09:51.990Z</time>
      </trkpt>
      <trkpt lat="42.397911" lon="-5.100854">
        <ele>850</ele>
        <time>2018-07-23T07:09:54.990Z</time>
      </trkpt>
      <trkpt lat="42.397988" lon="-5.100965">
        <ele>850</ele>
        <time>2018-07-23T07:09:57.990Z</time>
      </trkpt>
      <trkpt lat="42.398058" lon="-5.101063">
        <ele>850</ele>
        <time>2018-07-23T07:10:00.990Z</time>
      </trkpt>
      <trkpt lat="42.398141" lon="-5.101152">
        <ele>851</ele>
        <time>2018-07-23T07:10:04.000Z</time>
      </trkpt>
      <trkpt lat="42.398234" lon="-5.101231">
        <ele>851.992483590938</ele>
        <time>2018-07-23T07:10:06.990Z</time>
      </trkpt>
      <trkpt lat="42.398336" lon="-5.101304">
        <ele>852</ele>
        <time>2018-07-23T07:10:09.990Z</time>
      </trkpt>
      <trkpt lat="42.398431" lon="-5.101385">
        <ele>852.32</ele>
        <time>2018-07-23T07:10:12.990Z</time>
      </trkpt>
      <trkpt lat="42.398528" lon="-5.101476">
        <ele>853</ele>
        <time>2018-07-23T07:10:15.990Z</time>
      </trkpt>
      <trkpt lat="42.398609" lon="-5.101539">
        <ele>852.029411764706</ele>
        <time>2018-07-23T07:10:17.990Z</time>
      </trkpt>
      <trkpt lat="42.398697" lon="-5.101612">
        <ele>852</ele>
        <time>2018-07-23T07:10:19.990Z</time>
      </trkpt>
      <trkpt lat="42.398799" lon="-5.101685">
        <ele>851.971419689877</ele>
        <time>2018-07-23T07:10:21.990Z</time>
      </trkpt>
      <trkpt lat="42.398908" lon="-5.101771">
        <ele>850</ele>
        <time>2018-07-23T07:10:24.000Z</time>
      </trkpt>
      <trkpt lat="42.399021" lon="-5.101873">
        <ele>850</ele>
        <time>2018-07-23T07:10:25.990Z</time>
      </trkpt>
      <trkpt lat="42.399142" lon="-5.101981">
        <ele>848.693873019605</ele>
        <time>2018-07-23T07:10:27.990Z</time>
      </trkpt>
      <trkpt lat="42.39927" lon="-5.102095">
        <ele>847.68</ele>
        <time>2018-07-23T07:10:29.990Z</time>
      </trkpt>
      <trkpt lat="42.399399" lon="-5.102214">
        <ele>846.68</ele>
        <time>2018-07-23T07:10:31.990Z</time>
      </trkpt>
      <trkpt lat="42.399529" lon="-5.10234">
        <ele>846</ele>
        <time>2018-07-23T07:10:34.000Z</time>
      </trkpt>
      <trkpt lat="42.399647" lon="-5.102462">
        <ele>845</ele>
        <time>2018-07-23T07:10:35.990Z</time>
      </trkpt>
      <trkpt lat="42.399756" lon="-5.102577">
        <ele>845</ele>
        <time>2018-07-23T07:10:37.990Z</time>
      </trkpt>
      <trkpt lat="42.39987" lon="-5.102685">
        <ele>845</ele>
        <time>2018-07-23T07:10:39.990Z</time>
      </trkpt>
      <trkpt lat="42.399982" lon="-5.102788">
        <ele>845</ele>
        <time>2018-07-23T07:10:41.990Z</time>
      </trkpt>
      <trkpt lat="42.400083" lon="-5.102887">
        <ele>845</ele>
        <time>2018-07-23T07:10:44.000Z</time>
      </trkpt>
      <trkpt lat="42.400182" lon="-5.10298">
        <ele>845</ele>
        <time>2018-07-23T07:10:45.990Z</time>
      </trkpt>
      <trkpt lat="42.400279" lon="-5.103074">
        <ele>845.992368873603</ele>
        <time>2018-07-23T07:10:47.990Z</time>
      </trkpt>
      <trkpt lat="42.400374" lon="-5.103169">
        <ele>846</ele>
        <time>2018-07-23T07:10:49.990Z</time>
      </trkpt>
      <trkpt lat="42.400461" lon="-5.103257">
        <ele>846</ele>
        <time>2018-07-23T07:10:51.990Z</time>
      </trkpt>
      <trkpt lat="42.400551" lon="-5.103344">
        <ele>846</ele>
        <time>2018-07-23T07:10:54.000Z</time>
      </trkpt>
      <trkpt lat="42.400637" lon="-5.103426">
        <ele>846</ele>
        <time>2018-07-23T07:10:55.990Z</time>
      </trkpt>
      <trkpt lat="42.400723" lon="-5.103513">
        <ele>846</ele>
        <time>2018-07-23T07:10:57.990Z</time>
      </trkpt>
      <trkpt lat="42.400812" lon="-5.103605">
        <ele>846</ele>
        <time>2018-07-23T07:10:59.990Z</time>
      </trkpt>
      <trkpt lat="42.400895" lon="-5.103692">
        <ele>846</ele>
        <time>2018-07-23T07:11:01.990Z</time>
      </trkpt>
      <trkpt lat="42.400975" lon="-5.103774">
        <ele>847</ele>
        <time>2018-07-23T07:11:04.000Z</time>
      </trkpt>
      <trkpt lat="42.401054" lon="-5.103863">
        <ele>847</ele>
        <time>2018-07-23T07:11:05.990Z</time>
      </trkpt>
      <trkpt lat="42.40114" lon="-5.103951">
        <ele>847</ele>
        <time>2018-07-23T07:11:07.990Z</time>
      </trkpt>
      <trkpt lat="42.401226" lon="-5.104041">
        <ele>847</ele>
        <time>2018-07-23T07:11:09.990Z</time>
      </trkpt>
      <trkpt lat="42.40131" lon="-5.104131">
        <ele>847</ele>
        <time>2018-07-23T07:11:11.990Z</time>
      </trkpt>
      <trkpt lat="42.401394" lon="-5.104226">
        <ele>847</ele>
        <time>2018-07-23T07:11:14.000Z</time>
      </trkpt>
      <trkpt lat="42.401466" lon="-5.104311">
        <ele>847</ele>
        <time>2018-07-23T07:11:15.990Z</time>
      </trkpt>
      <trkpt lat="42.40155" lon="-5.104407">
        <ele>847</ele>
        <time>2018-07-23T07:11:17.990Z</time>
      </trkpt>
      <trkpt lat="42.401628" lon="-5.104499">
        <ele>847</ele>
        <time>2018-07-23T07:11:19.990Z</time>
      </trkpt>
      <trkpt lat="42.40171" lon="-5.104592">
        <ele>847</ele>
        <time>2018-07-23T07:11:21.990Z</time>
      </trkpt>
      <trkpt lat="42.401797" lon="-5.104688">
        <ele>847</ele>
        <time>2018-07-23T07:11:24.000Z</time>
      </trkpt>
      <trkpt lat="42.401875" lon="-5.104781">
        <ele>847</ele>
        <time>2018-07-23T07:11:25.990Z</time>
      </trkpt>
      <trkpt lat="42.401957" lon="-5.10487">
        <ele>847.32</ele>
        <time>2018-07-23T07:11:27.990Z</time>
      </trkpt>
      <trkpt lat="42.402044" lon="-5.104956">
        <ele>848</ele>
        <time>2018-07-23T07:11:29.990Z</time>
      </trkpt>
      <trkpt lat="42.402128" lon="-5.105045">
        <ele>848</ele>
        <time>2018-07-23T07:11:31.990Z</time>
      </trkpt>
      <trkpt lat="42.402207" lon="-5.105131">
        <ele>848</ele>
        <time>2018-07-23T07:11:34.000Z</time>
      </trkpt>
      <trkpt lat="42.402279" lon="-5.105221">
        <ele>848</ele>
        <time>2018-07-23T07:11:35.990Z</time>
      </trkpt>
      <trkpt lat="42.402347" lon="-5.105312">
        <ele>848.014488183134</ele>
        <time>2018-07-23T07:11:37.990Z</time>
      </trkpt>
      <trkpt lat="42.402414" lon="-5.105401">
        <ele>849</ele>
        <time>2018-07-23T07:11:39.990Z</time>
      </trkpt>
      <trkpt lat="42.40248" lon="-5.105487">
        <ele>849</ele>
        <time>2018-07-23T07:11:41.990Z</time>
      </trkpt>
      <trkpt lat="42.402575" lon="-5.105591">
        <ele>849</ele>
        <time>2018-07-23T07:11:44.990Z</time>
      </trkpt>
      <trkpt lat="42.402652" lon="-5.105699">
        <ele>850</ele>
        <time>2018-07-23T07:11:47.990Z</time>
      </trkpt>
      <trkpt lat="42.402743" lon="-5.105812">
        <ele>850</ele>
        <time>2018-07-23T07:11:50.990Z</time>
      </trkpt>
      <trkpt lat="42.402835" lon="-5.105919">
        <ele>850</ele>
        <time>2018-07-23T07:11:54.000Z</time>
      </trkpt>
      <trkpt lat="42.402925" lon="-5.10602">
        <ele>850.014506464838</ele>
        <time>2018-07-23T07:11:56.990Z</time>
      </trkpt>
      <trkpt lat="42.40301" lon="-5.106117">
        <ele>851</ele>
        <time>2018-07-23T07:11:59.990Z</time>
      </trkpt>
      <trkpt lat="42.403096" lon="-5.106208">
        <ele>851</ele>
        <time>2018-07-23T07:12:02.990Z</time>
      </trkpt>
      <trkpt lat="42.403182" lon="-5.106298">
        <ele>851</ele>
        <time>2018-07-23T07:12:05.990Z</time>
      </trkpt>
      <trkpt lat="42.403249" lon="-5.106396">
        <ele>851</ele>
        <time>2018-07-23T07:12:09.000Z</time>
      </trkpt>
      <trkpt lat="42.403331" lon="-5.106514">
        <ele>852</ele>
        <time>2018-07-23T07:12:11.990Z</time>
      </trkpt>
      <trkpt lat="42.403423" lon="-5.106632">
        <ele>852</ele>
        <time>2018-07-23T07:12:14.990Z</time>
      </trkpt>
      <trkpt lat="42.403522" lon="-5.106749">
        <ele>852</ele>
        <time>2018-07-23T07:12:17.990Z</time>
      </trkpt>
      <trkpt lat="42.403604" lon="-5.106844">
        <ele>852</ele>
        <time>2018-07-23T07:12:20.990Z</time>
      </trkpt>
      <trkpt lat="42.403696" lon="-5.106944">
        <ele>852</ele>
        <time>2018-07-23T07:12:24.000Z</time>
      </trkpt>
      <trkpt lat="42.40379" lon="-5.107076">
        <ele>853</ele>
        <time>2018-07-23T07:12:26.990Z</time>
      </trkpt>
      <trkpt lat="42.403887" lon="-5.107194">
        <ele>853</ele>
        <time>2018-07-23T07:12:29.990Z</time>
      </trkpt>
      <trkpt lat="42.403987" lon="-5.107314">
        <ele>853</ele>
        <time>2018-07-23T07:12:32.990Z</time>
      </trkpt>
      <trkpt lat="42.404054" lon="-5.107402">
        <ele>853</ele>
        <time>2018-07-23T07:12:34.990Z</time>
      </trkpt>
      <trkpt lat="42.404115" lon="-5.107492">
        <ele>853</ele>
        <time>2018-07-23T07:12:36.990Z</time>
      </trkpt>
      <trkpt lat="42.40418" lon="-5.107578">
        <ele>853</ele>
        <time>2018-07-23T07:12:39.000Z</time>
      </trkpt>
      <trkpt lat="42.404269" lon="-5.107704">
        <ele>853</ele>
        <time>2018-07-23T07:12:41.990Z</time>
      </trkpt>
      <trkpt lat="42.404354" lon="-5.107836">
        <ele>853</ele>
        <time>2018-07-23T07:12:44.990Z</time>
      </trkpt>
      <trkpt lat="42.404416" lon="-5.107928">
        <ele>853</ele>
        <time>2018-07-23T07:12:46.990Z</time>
      </trkpt>
      <trkpt lat="42.404475" lon="-5.108027">
        <ele>853.316327730105</ele>
        <time>2018-07-23T07:12:49.000Z</time>
      </trkpt>
      <trkpt lat="42.404558" lon="-5.10817">
        <ele>854</ele>
        <time>2018-07-23T07:12:51.990Z</time>
      </trkpt>
      <trkpt lat="42.404617" lon="-5.108266">
        <ele>854</ele>
        <time>2018-07-23T07:12:54.000Z</time>
      </trkpt>
      <trkpt lat="42.404674" lon="-5.10836">
        <ele>854</ele>
        <time>2018-07-23T07:12:55.990Z</time>
      </trkpt>
      <trkpt lat="42.404739" lon="-5.108458">
        <ele>854</ele>
        <time>2018-07-23T07:12:57.990Z</time>
      </trkpt>
      <trkpt lat="42.404797" lon="-5.108552">
        <ele>854</ele>
        <time>2018-07-23T07:12:59.990Z</time>
      </trkpt>
      <trkpt lat="42.404858" lon="-5.108654">
        <ele>854</ele>
        <time>2018-07-23T07:13:01.990Z</time>
      </trkpt>
      <trkpt lat="42.40492" lon="-5.108756">
        <ele>854</ele>
        <time>2018-07-23T07:13:04.000Z</time>
      </trkpt>
      <trkpt lat="42.404975" lon="-5.108853">
        <ele>854</ele>
        <time>2018-07-23T07:13:05.990Z</time>
      </trkpt>
      <trkpt lat="42.40504" lon="-5.108943">
        <ele>854</ele>
        <time>2018-07-23T07:13:07.990Z</time>
      </trkpt>
      <trkpt lat="42.405096" lon="-5.109044">
        <ele>854</ele>
        <time>2018-07-23T07:13:09.990Z</time>
      </trkpt>
      <trkpt lat="42.405178" lon="-5.10918">
        <ele>854</ele>
        <time>2018-07-23T07:13:12.990Z</time>
      </trkpt>
      <trkpt lat="42.405238" lon="-5.109281">
        <ele>854</ele>
        <time>2018-07-23T07:13:14.990Z</time>
      </trkpt>
      <trkpt lat="42.405318" lon="-5.109417">
        <ele>854</ele>
        <time>2018-07-23T07:13:17.990Z</time>
      </trkpt>
      <trkpt lat="42.405376" lon="-5.109521">
        <ele>854</ele>
        <time>2018-07-23T07:13:19.990Z</time>
      </trkpt>
      <trkpt lat="42.40543" lon="-5.109634">
        <ele>854</ele>
        <time>2018-07-23T07:13:21.990Z</time>
      </trkpt>
      <trkpt lat="42.405482" lon="-5.109755">
        <ele>854</ele>
        <time>2018-07-23T07:13:24.000Z</time>
      </trkpt>
      <trkpt lat="42.405536" lon="-5.10987">
        <ele>854</ele>
        <time>2018-07-23T07:13:25.990Z</time>
      </trkpt>
      <trkpt lat="42.405587" lon="-5.109996">
        <ele>854</ele>
        <time>2018-07-23T07:13:27.990Z</time>
      </trkpt>
      <trkpt lat="42.405638" lon="-5.110108">
        <ele>854</ele>
        <time>2018-07-23T07:13:29.990Z</time>
      </trkpt>
      <trkpt lat="42.405682" lon="-5.11023">
        <ele>854</ele>
        <time>2018-07-23T07:13:31.990Z</time>
      </trkpt>
      <trkpt lat="42.405739" lon="-5.110343">
        <ele>854</ele>
        <time>2018-07-23T07:13:34.000Z</time>
      </trkpt>
      <trkpt lat="42.405788" lon="-5.110452">
        <ele>854</ele>
        <time>2018-07-23T07:13:35.990Z</time>
      </trkpt>
      <trkpt lat="42.405837" lon="-5.110569">
        <ele>854</ele>
        <time>2018-07-23T07:13:38.000Z</time>
      </trkpt>
      <trkpt lat="42.405886" lon="-5.11068">
        <ele>854</ele>
        <time>2018-07-23T07:13:40.000Z</time>
      </trkpt>
      <trkpt lat="42.40596" lon="-5.11083">
        <ele>854</ele>
        <time>2018-07-23T07:13:43.000Z</time>
      </trkpt>
      <trkpt lat="42.406026" lon="-5.110972">
        <ele>855.3299968</ele>
        <time>2018-07-23T07:13:46.000Z</time>
      </trkpt>
      <trkpt lat="42.40609" lon="-5.111109">
        <ele>856</ele>
        <time>2018-07-23T07:13:49.000Z</time>
      </trkpt>
      <trkpt lat="42.406142" lon="-5.111246">
        <ele>856.014488183134</ele>
        <time>2018-07-23T07:13:51.990Z</time>
      </trkpt>
      <trkpt lat="42.406192" lon="-5.11138">
        <ele>857</ele>
        <time>2018-07-23T07:13:54.990Z</time>
      </trkpt>
      <trkpt lat="42.406246" lon="-5.111505">
        <ele>857</ele>
        <time>2018-07-23T07:13:57.990Z</time>
      </trkpt>
      <trkpt lat="42.406308" lon="-5.111642">
        <ele>857</ele>
        <time>2018-07-23T07:14:00.990Z</time>
      </trkpt>
      <trkpt lat="42.406371" lon="-5.111783">
        <ele>858</ele>
        <time>2018-07-23T07:14:04.000Z</time>
      </trkpt>
      <trkpt lat="42.406429" lon="-5.11191">
        <ele>859</ele>
        <time>2018-07-23T07:14:06.990Z</time>
      </trkpt>
      <trkpt lat="42.406483" lon="-5.112045">
        <ele>858.971419689877</ele>
        <time>2018-07-23T07:14:09.990Z</time>
      </trkpt>
      <trkpt lat="42.406542" lon="-5.1122">
        <ele>858</ele>
        <time>2018-07-23T07:14:12.990Z</time>
      </trkpt>
      <trkpt lat="42.406592" lon="-5.112324">
        <ele>857.68</ele>
        <time>2018-07-23T07:14:14.990Z</time>
      </trkpt>
      <trkpt lat="42.406644" lon="-5.112468">
        <ele>857</ele>
        <time>2018-07-23T07:14:16.990Z</time>
      </trkpt>
      <trkpt lat="42.406691" lon="-5.112622">
        <ele>855.6700032</ele>
        <time>2018-07-23T07:14:19.000Z</time>
      </trkpt>
      <trkpt lat="42.40674" lon="-5.112764">
        <ele>855</ele>
        <time>2018-07-23T07:14:20.990Z</time>
      </trkpt>
      <trkpt lat="42.406789" lon="-5.112895">
        <ele>855</ele>
        <time>2018-07-23T07:14:22.990Z</time>
      </trkpt>
      <trkpt lat="42.40683" lon="-5.113021">
        <ele>855</ele>
        <time>2018-07-23T07:14:24.990Z</time>
      </trkpt>
      <trkpt lat="42.406879" lon="-5.113177">
        <ele>855</ele>
        <time>2018-07-23T07:14:27.990Z</time>
      </trkpt>
      <trkpt lat="42.406933" lon="-5.113336">
        <ele>856</ele>
        <time>2018-07-23T07:14:30.990Z</time>
      </trkpt>
      <trkpt lat="42.406987" lon="-5.113506">
        <ele>856</ele>
        <time>2018-07-23T07:14:34.000Z</time>
      </trkpt>
      <trkpt lat="42.40703" lon="-5.113669">
        <ele>856.992483590938</ele>
        <time>2018-07-23T07:14:36.990Z</time>
      </trkpt>
      <trkpt lat="42.407074" lon="-5.113818">
        <ele>857</ele>
        <time>2018-07-23T07:14:39.990Z</time>
      </trkpt>
      <trkpt lat="42.407119" lon="-5.113969">
        <ele>858</ele>
        <time>2018-07-23T07:14:42.990Z</time>
      </trkpt>
      <trkpt lat="42.407158" lon="-5.114142">
        <ele>858</ele>
        <time>2018-07-23T07:14:45.990Z</time>
      </trkpt>
      <trkpt lat="42.407188" lon="-5.114285">
        <ele>859</ele>
        <time>2018-07-23T07:14:49.000Z</time>
      </trkpt>
      <trkpt lat="42.407238" lon="-5.114436">
        <ele>859</ele>
        <time>2018-07-23T07:14:51.990Z</time>
      </trkpt>
      <trkpt lat="42.407285" lon="-5.114592">
        <ele>859</ele>
        <time>2018-07-23T07:14:54.990Z</time>
      </trkpt>
      <trkpt lat="42.407335" lon="-5.114732">
        <ele>859.32</ele>
        <time>2018-07-23T07:14:57.990Z</time>
      </trkpt>
      <trkpt lat="42.40737" lon="-5.114882">
        <ele>860</ele>
        <time>2018-07-23T07:15:00.990Z</time>
      </trkpt>
      <trkpt lat="42.407405" lon="-5.115027">
        <ele>860</ele>
        <time>2018-07-23T07:15:04.000Z</time>
      </trkpt>
      <trkpt lat="42.407439" lon="-5.115171">
        <ele>860</ele>
        <time>2018-07-23T07:15:06.990Z</time>
      </trkpt>
      <trkpt lat="42.407476" lon="-5.115322">
        <ele>861</ele>
        <time>2018-07-23T07:15:09.990Z</time>
      </trkpt>
      <trkpt lat="42.4075" lon="-5.115465">
        <ele>861</ele>
        <time>2018-07-23T07:15:12.990Z</time>
      </trkpt>
      <trkpt lat="42.407532" lon="-5.115603">
        <ele>862</ele>
        <time>2018-07-23T07:15:15.990Z</time>
      </trkpt>
      <trkpt lat="42.407559" lon="-5.11573">
        <ele>862</ele>
        <time>2018-07-23T07:15:19.000Z</time>
      </trkpt>
      <trkpt lat="42.407581" lon="-5.115862">
        <ele>862</ele>
        <time>2018-07-23T07:15:21.990Z</time>
      </trkpt>
      <trkpt lat="42.407619" lon="-5.116012">
        <ele>862</ele>
        <time>2018-07-23T07:15:24.990Z</time>
      </trkpt>
      <trkpt lat="42.407656" lon="-5.116163">
        <ele>862</ele>
        <time>2018-07-23T07:15:27.990Z</time>
      </trkpt>
      <trkpt lat="42.407692" lon="-5.116311">
        <ele>862</ele>
        <time>2018-07-23T07:15:30.990Z</time>
      </trkpt>
      <trkpt lat="42.407726" lon="-5.116464">
        <ele>862</ele>
        <time>2018-07-23T07:15:34.000Z</time>
      </trkpt>
      <trkpt lat="42.407754" lon="-5.116626">
        <ele>863</ele>
        <time>2018-07-23T07:15:36.990Z</time>
      </trkpt>
      <trkpt lat="42.407797" lon="-5.116783">
        <ele>863</ele>
        <time>2018-07-23T07:15:39.990Z</time>
      </trkpt>
      <trkpt lat="42.407853" lon="-5.116932">
        <ele>863</ele>
        <time>2018-07-23T07:15:42.990Z</time>
      </trkpt>
      <trkpt lat="42.407908" lon="-5.117083">
        <ele>863</ele>
        <time>2018-07-23T07:15:45.990Z</time>
      </trkpt>
      <trkpt lat="42.407962" lon="-5.117234">
        <ele>863</ele>
        <time>2018-07-23T07:15:49.000Z</time>
      </trkpt>
      <trkpt lat="42.408018" lon="-5.117375">
        <ele>863</ele>
        <time>2018-07-23T07:15:51.990Z</time>
      </trkpt>
      <trkpt lat="42.408074" lon="-5.117514">
        <ele>863</ele>
        <time>2018-07-23T07:15:54.990Z</time>
      </trkpt>
      <trkpt lat="42.408125" lon="-5.117669">
        <ele>863</ele>
        <time>2018-07-23T07:15:57.990Z</time>
      </trkpt>
      <trkpt lat="42.40815" lon="-5.117798">
        <ele>863</ele>
        <time>2018-07-23T07:16:00.000Z</time>
      </trkpt>
      <trkpt lat="42.408184" lon="-5.117926">
        <ele>863</ele>
        <time>2018-07-23T07:16:02.000Z</time>
      </trkpt>
      <trkpt lat="42.408231" lon="-5.118033">
        <ele>863</ele>
        <time>2018-07-23T07:16:04.000Z</time>
      </trkpt>
      <trkpt lat="42.408265" lon="-5.118156">
        <ele>863</ele>
        <time>2018-07-23T07:16:05.990Z</time>
      </trkpt>
      <trkpt lat="42.408322" lon="-5.118314">
        <ele>863</ele>
        <time>2018-07-23T07:16:09.000Z</time>
      </trkpt>
      <trkpt lat="42.408363" lon="-5.118426">
        <ele>863</ele>
        <time>2018-07-23T07:16:11.000Z</time>
      </trkpt>
      <trkpt lat="42.408396" lon="-5.118552">
        <ele>863</ele>
        <time>2018-07-23T07:16:13.000Z</time>
      </trkpt>
      <trkpt lat="42.408434" lon="-5.11867">
        <ele>863</ele>
        <time>2018-07-23T07:16:15.000Z</time>
      </trkpt>
      <trkpt lat="42.408494" lon="-5.11879">
        <ele>863</ele>
        <time>2018-07-23T07:16:16.990Z</time>
      </trkpt>
      <trkpt lat="42.408538" lon="-5.1189">
        <ele>863</ele>
        <time>2018-07-23T07:16:18.990Z</time>
      </trkpt>
      <trkpt lat="42.408591" lon="-5.119022">
        <ele>863</ele>
        <time>2018-07-23T07:16:20.990Z</time>
      </trkpt>
      <trkpt lat="42.408639" lon="-5.119152">
        <ele>863</ele>
        <time>2018-07-23T07:16:22.990Z</time>
      </trkpt>
      <trkpt lat="42.408684" lon="-5.11927">
        <ele>863</ele>
        <time>2018-07-23T07:16:25.000Z</time>
      </trkpt>
      <trkpt lat="42.408754" lon="-5.119406">
        <ele>864</ele>
        <time>2018-07-23T07:16:27.990Z</time>
      </trkpt>
      <trkpt lat="42.408813" lon="-5.119508">
        <ele>864</ele>
        <time>2018-07-23T07:16:30.000Z</time>
      </trkpt>
      <trkpt lat="42.408865" lon="-5.119612">
        <ele>864</ele>
        <time>2018-07-23T07:16:31.990Z</time>
      </trkpt>
      <trkpt lat="42.408908" lon="-5.119728">
        <ele>864</ele>
        <time>2018-07-23T07:16:33.990Z</time>
      </trkpt>
      <trkpt lat="42.408953" lon="-5.119851">
        <ele>863</ele>
        <time>2018-07-23T07:16:35.990Z</time>
      </trkpt>
      <trkpt lat="42.408994" lon="-5.11997">
        <ele>863</ele>
        <time>2018-07-23T07:16:37.990Z</time>
      </trkpt>
      <trkpt lat="42.409049" lon="-5.120092">
        <ele>863</ele>
        <time>2018-07-23T07:16:40.000Z</time>
      </trkpt>
      <trkpt lat="42.409101" lon="-5.120208">
        <ele>863</ele>
        <time>2018-07-23T07:16:41.990Z</time>
      </trkpt>
      <trkpt lat="42.409152" lon="-5.120322">
        <ele>863</ele>
        <time>2018-07-23T07:16:43.990Z</time>
      </trkpt>
      <trkpt lat="42.409209" lon="-5.12044">
        <ele>863</ele>
        <time>2018-07-23T07:16:45.990Z</time>
      </trkpt>
      <trkpt lat="42.409262" lon="-5.120556">
        <ele>863</ele>
        <time>2018-07-23T07:16:47.990Z</time>
      </trkpt>
      <trkpt lat="42.409316" lon="-5.120674">
        <ele>863</ele>
        <time>2018-07-23T07:16:50.000Z</time>
      </trkpt>
      <trkpt lat="42.40937" lon="-5.12078">
        <ele>863</ele>
        <time>2018-07-23T07:16:51.990Z</time>
      </trkpt>
      <trkpt lat="42.409441" lon="-5.120928">
        <ele>864</ele>
        <time>2018-07-23T07:16:55.000Z</time>
      </trkpt>
      <trkpt lat="42.409489" lon="-5.121042">
        <ele>864</ele>
        <time>2018-07-23T07:16:56.990Z</time>
      </trkpt>
      <trkpt lat="42.40954" lon="-5.121154">
        <ele>864</ele>
        <time>2018-07-23T07:16:58.990Z</time>
      </trkpt>
      <trkpt lat="42.409597" lon="-5.121264">
        <ele>864</ele>
        <time>2018-07-23T07:17:00.990Z</time>
      </trkpt>
      <trkpt lat="42.40966" lon="-5.121379">
        <ele>864</ele>
        <time>2018-07-23T07:17:02.990Z</time>
      </trkpt>
      <trkpt lat="42.40972" lon="-5.121487">
        <ele>863</ele>
        <time>2018-07-23T07:17:05.000Z</time>
      </trkpt>
      <trkpt lat="42.409771" lon="-5.121615">
        <ele>864</ele>
        <time>2018-07-23T07:17:06.990Z</time>
      </trkpt>
      <trkpt lat="42.409821" lon="-5.121749">
        <ele>864</ele>
        <time>2018-07-23T07:17:08.990Z</time>
      </trkpt>
      <trkpt lat="42.409879" lon="-5.121868">
        <ele>864</ele>
        <time>2018-07-23T07:17:10.990Z</time>
      </trkpt>
      <trkpt lat="42.409932" lon="-5.12199">
        <ele>864</ele>
        <time>2018-07-23T07:17:12.990Z</time>
      </trkpt>
      <trkpt lat="42.409988" lon="-5.122111">
        <ele>864</ele>
        <time>2018-07-23T07:17:15.000Z</time>
      </trkpt>
      <trkpt lat="42.410036" lon="-5.122229">
        <ele>864</ele>
        <time>2018-07-23T07:17:16.990Z</time>
      </trkpt>
      <trkpt lat="42.41008" lon="-5.122338">
        <ele>864</ele>
        <time>2018-07-23T07:17:18.990Z</time>
      </trkpt>
      <trkpt lat="42.410134" lon="-5.122457">
        <ele>864</ele>
        <time>2018-07-23T07:17:20.990Z</time>
      </trkpt>
      <trkpt lat="42.410201" lon="-5.122608">
        <ele>864</ele>
        <time>2018-07-23T07:17:23.990Z</time>
      </trkpt>
      <trkpt lat="42.410232" lon="-5.122724">
        <ele>864</ele>
        <time>2018-07-23T07:17:25.990Z</time>
      </trkpt>
      <trkpt lat="42.410249" lon="-5.122857">
        <ele>864</ele>
        <time>2018-07-23T07:17:27.990Z</time>
      </trkpt>
      <trkpt lat="42.410293" lon="-5.123024">
        <ele>864</ele>
        <time>2018-07-23T07:17:30.990Z</time>
      </trkpt>
      <trkpt lat="42.410329" lon="-5.123183">
        <ele>864.32</ele>
        <time>2018-07-23T07:17:33.990Z</time>
      </trkpt>
      <trkpt lat="42.410369" lon="-5.123353">
        <ele>865</ele>
        <time>2018-07-23T07:17:36.990Z</time>
      </trkpt>
      <trkpt lat="42.41041" lon="-5.123515">
        <ele>865</ele>
        <time>2018-07-23T07:17:40.000Z</time>
      </trkpt>
      <trkpt lat="42.410445" lon="-5.123631">
        <ele>866</ele>
        <time>2018-07-23T07:17:41.990Z</time>
      </trkpt>
      <trkpt lat="42.410484" lon="-5.123744">
        <ele>866</ele>
        <time>2018-07-23T07:17:43.990Z</time>
      </trkpt>
      <trkpt lat="42.410528" lon="-5.123855">
        <ele>867</ele>
        <time>2018-07-23T07:17:45.990Z</time>
      </trkpt>
      <trkpt lat="42.410597" lon="-5.124016">
        <ele>867</ele>
        <time>2018-07-23T07:17:48.990Z</time>
      </trkpt>
      <trkpt lat="42.41065" lon="-5.124125">
        <ele>867</ele>
        <time>2018-07-23T07:17:50.990Z</time>
      </trkpt>
      <trkpt lat="42.410699" lon="-5.124236">
        <ele>867</ele>
        <time>2018-07-23T07:17:52.990Z</time>
      </trkpt>
      <trkpt lat="42.410757" lon="-5.124347">
        <ele>866</ele>
        <time>2018-07-23T07:17:55.000Z</time>
      </trkpt>
      <trkpt lat="42.410816" lon="-5.124453">
        <ele>866</ele>
        <time>2018-07-23T07:17:56.990Z</time>
      </trkpt>
      <trkpt lat="42.410878" lon="-5.124557">
        <ele>865</ele>
        <time>2018-07-23T07:17:58.990Z</time>
      </trkpt>
      <trkpt lat="42.410937" lon="-5.124669">
        <ele>865</ele>
        <time>2018-07-23T07:18:00.990Z</time>
      </trkpt>
      <trkpt lat="42.411002" lon="-5.124772">
        <ele>865</ele>
        <time>2018-07-23T07:18:02.990Z</time>
      </trkpt>
      <trkpt lat="42.411072" lon="-5.124868">
        <ele>864</ele>
        <time>2018-07-23T07:18:05.000Z</time>
      </trkpt>
      <trkpt lat="42.411147" lon="-5.124969">
        <ele>864</ele>
        <time>2018-07-23T07:18:06.990Z</time>
      </trkpt>
      <trkpt lat="42.411231" lon="-5.12506">
        <ele>864</ele>
        <time>2018-07-23T07:18:08.990Z</time>
      </trkpt>
      <trkpt lat="42.411315" lon="-5.125147">
        <ele>864</ele>
        <time>2018-07-23T07:18:10.990Z</time>
      </trkpt>
      <trkpt lat="42.411403" lon="-5.125226">
        <ele>863.759686845735</ele>
        <time>2018-07-23T07:18:12.990Z</time>
      </trkpt>
      <trkpt lat="42.411496" lon="-5.125298">
        <ele>863</ele>
        <time>2018-07-23T07:18:15.000Z</time>
      </trkpt>
      <trkpt lat="42.411578" lon="-5.125361">
        <ele>863</ele>
        <time>2018-07-23T07:18:16.990Z</time>
      </trkpt>
      <trkpt lat="42.411663" lon="-5.12542">
        <ele>863</ele>
        <time>2018-07-23T07:18:18.990Z</time>
      </trkpt>
      <trkpt lat="42.411759" lon="-5.125474">
        <ele>863</ele>
        <time>2018-07-23T07:18:20.990Z</time>
      </trkpt>
      <trkpt lat="42.411856" lon="-5.12552">
        <ele>863</ele>
        <time>2018-07-23T07:18:22.990Z</time>
      </trkpt>
      <trkpt lat="42.41195" lon="-5.125579">
        <ele>862.6700032</ele>
        <time>2018-07-23T07:18:25.000Z</time>
      </trkpt>
      <trkpt lat="42.412046" lon="-5.125635">
        <ele>862</ele>
        <time>2018-07-23T07:18:26.990Z</time>
      </trkpt>
      <trkpt lat="42.412137" lon="-5.125693">
        <ele>862</ele>
        <time>2018-07-23T07:18:28.990Z</time>
      </trkpt>
      <trkpt lat="42.412232" lon="-5.12576">
        <ele>862</ele>
        <time>2018-07-23T07:18:30.990Z</time>
      </trkpt>
      <trkpt lat="42.412326" lon="-5.125811">
        <ele>862</ele>
        <time>2018-07-23T07:18:32.990Z</time>
      </trkpt>
      <trkpt lat="42.412426" lon="-5.125864">
        <ele>862</ele>
        <time>2018-07-23T07:18:35.000Z</time>
      </trkpt>
      <trkpt lat="42.412527" lon="-5.125909">
        <ele>862</ele>
        <time>2018-07-23T07:18:36.990Z</time>
      </trkpt>
      <trkpt lat="42.412627" lon="-5.12596">
        <ele>862</ele>
        <time>2018-07-23T07:18:38.990Z</time>
      </trkpt>
      <trkpt lat="42.412727" lon="-5.126015">
        <ele>862</ele>
        <time>2018-07-23T07:18:40.990Z</time>
      </trkpt>
      <trkpt lat="42.412823" lon="-5.126051">
        <ele>862</ele>
        <time>2018-07-23T07:18:42.990Z</time>
      </trkpt>
      <trkpt lat="42.412908" lon="-5.126124">
        <ele>862</ele>
        <time>2018-07-23T07:18:45.000Z</time>
      </trkpt>
      <trkpt lat="42.412997" lon="-5.126188">
        <ele>862</ele>
        <time>2018-07-23T07:18:46.990Z</time>
      </trkpt>
      <trkpt lat="42.413088" lon="-5.12624">
        <ele>862</ele>
        <time>2018-07-23T07:18:48.990Z</time>
      </trkpt>
      <trkpt lat="42.413183" lon="-5.126302">
        <ele>862</ele>
        <time>2018-07-23T07:18:50.990Z</time>
      </trkpt>
      <trkpt lat="42.413268" lon="-5.126359">
        <ele>862</ele>
        <time>2018-07-23T07:18:52.990Z</time>
      </trkpt>
      <trkpt lat="42.41336" lon="-5.126418">
        <ele>862</ele>
        <time>2018-07-23T07:18:55.000Z</time>
      </trkpt>
      <trkpt lat="42.413445" lon="-5.126472">
        <ele>862</ele>
        <time>2018-07-23T07:18:56.990Z</time>
      </trkpt>
      <trkpt lat="42.413537" lon="-5.126533">
        <ele>862</ele>
        <time>2018-07-23T07:18:58.990Z</time>
      </trkpt>
      <trkpt lat="42.413633" lon="-5.126589">
        <ele>862.32</ele>
        <time>2018-07-23T07:19:00.990Z</time>
      </trkpt>
      <trkpt lat="42.413725" lon="-5.126639">
        <ele>863</ele>
        <time>2018-07-23T07:19:02.990Z</time>
      </trkpt>
      <trkpt lat="42.413808" lon="-5.12671">
        <ele>863</ele>
        <time>2018-07-23T07:19:05.000Z</time>
      </trkpt>
      <trkpt lat="42.413894" lon="-5.126793">
        <ele>863</ele>
        <time>2018-07-23T07:19:06.990Z</time>
      </trkpt>
      <trkpt lat="42.413984" lon="-5.126857">
        <ele>863</ele>
        <time>2018-07-23T07:19:08.990Z</time>
      </trkpt>
      <trkpt lat="42.414076" lon="-5.12692">
        <ele>862</ele>
        <time>2018-07-23T07:19:10.990Z</time>
      </trkpt>
      <trkpt lat="42.414158" lon="-5.126983">
        <ele>862</ele>
        <time>2018-07-23T07:19:12.990Z</time>
      </trkpt>
      <trkpt lat="42.414252" lon="-5.127044">
        <ele>863</ele>
        <time>2018-07-23T07:19:15.000Z</time>
      </trkpt>
      <trkpt lat="42.414339" lon="-5.127112">
        <ele>863</ele>
        <time>2018-07-23T07:19:16.990Z</time>
      </trkpt>
      <trkpt lat="42.414426" lon="-5.127178">
        <ele>863</ele>
        <time>2018-07-23T07:19:18.990Z</time>
      </trkpt>
      <trkpt lat="42.414511" lon="-5.127251">
        <ele>863</ele>
        <time>2018-07-23T07:19:20.990Z</time>
      </trkpt>
      <trkpt lat="42.414595" lon="-5.127311">
        <ele>863</ele>
        <time>2018-07-23T07:19:22.990Z</time>
      </trkpt>
      <trkpt lat="42.414682" lon="-5.12738">
        <ele>863</ele>
        <time>2018-07-23T07:19:25.000Z</time>
      </trkpt>
      <trkpt lat="42.414767" lon="-5.127443">
        <ele>863</ele>
        <time>2018-07-23T07:19:26.990Z</time>
      </trkpt>
      <trkpt lat="42.414858" lon="-5.1275">
        <ele>863</ele>
        <time>2018-07-23T07:19:28.990Z</time>
      </trkpt>
      <trkpt lat="42.414948" lon="-5.127562">
        <ele>863</ele>
        <time>2018-07-23T07:19:30.990Z</time>
      </trkpt>
      <trkpt lat="42.415029" lon="-5.127626">
        <ele>863</ele>
        <time>2018-07-23T07:19:32.990Z</time>
      </trkpt>
      <trkpt lat="42.415116" lon="-5.127691">
        <ele>863</ele>
        <time>2018-07-23T07:19:35.000Z</time>
      </trkpt>
      <trkpt lat="42.415191" lon="-5.12776">
        <ele>863</ele>
        <time>2018-07-23T07:19:36.990Z</time>
      </trkpt>
      <trkpt lat="42.41529" lon="-5.127867">
        <ele>863</ele>
        <time>2018-07-23T07:19:40.000Z</time>
      </trkpt>
      <trkpt lat="42.415404" lon="-5.127969">
        <ele>863</ele>
        <time>2018-07-23T07:19:42.990Z</time>
      </trkpt>
      <trkpt lat="42.415487" lon="-5.128042">
        <ele>864</ele>
        <time>2018-07-23T07:19:45.000Z</time>
      </trkpt>
      <trkpt lat="42.415567" lon="-5.128115">
        <ele>864</ele>
        <time>2018-07-23T07:19:46.990Z</time>
      </trkpt>
      <trkpt lat="42.415647" lon="-5.128191">
        <ele>864</ele>
        <time>2018-07-23T07:19:48.990Z</time>
      </trkpt>
      <trkpt lat="42.415739" lon="-5.12827">
        <ele>864</ele>
        <time>2018-07-23T07:19:50.990Z</time>
      </trkpt>
      <trkpt lat="42.415816" lon="-5.128336">
        <ele>864</ele>
        <time>2018-07-23T07:19:52.990Z</time>
      </trkpt>
      <trkpt lat="42.415894" lon="-5.128402">
        <ele>864</ele>
        <time>2018-07-23T07:19:55.000Z</time>
      </trkpt>
      <trkpt lat="42.415971" lon="-5.12847">
        <ele>864</ele>
        <time>2018-07-23T07:19:56.990Z</time>
      </trkpt>
      <trkpt lat="42.416046" lon="-5.128539">
        <ele>864</ele>
        <time>2018-07-23T07:19:58.990Z</time>
      </trkpt>
      <trkpt lat="42.416126" lon="-5.128609">
        <ele>864</ele>
        <time>2018-07-23T07:20:00.990Z</time>
      </trkpt>
      <trkpt lat="42.416202" lon="-5.128679">
        <ele>864</ele>
        <time>2018-07-23T07:20:02.990Z</time>
      </trkpt>
      <trkpt lat="42.416284" lon="-5.128745">
        <ele>864</ele>
        <time>2018-07-23T07:20:05.000Z</time>
      </trkpt>
      <trkpt lat="42.41639" lon="-5.128839">
        <ele>865</ele>
        <time>2018-07-23T07:20:07.990Z</time>
      </trkpt>
      <trkpt lat="42.416493" lon="-5.128938">
        <ele>865</ele>
        <time>2018-07-23T07:20:10.990Z</time>
      </trkpt>
      <trkpt lat="42.416592" lon="-5.129042">
        <ele>865</ele>
        <time>2018-07-23T07:20:13.990Z</time>
      </trkpt>
      <trkpt lat="42.416672" lon="-5.129115">
        <ele>865</ele>
        <time>2018-07-23T07:20:15.990Z</time>
      </trkpt>
      <trkpt lat="42.416747" lon="-5.129183">
        <ele>865</ele>
        <time>2018-07-23T07:20:17.990Z</time>
      </trkpt>
      <trkpt lat="42.416831" lon="-5.12925">
        <ele>865</ele>
        <time>2018-07-23T07:20:20.000Z</time>
      </trkpt>
      <trkpt lat="42.416913" lon="-5.129325">
        <ele>865</ele>
        <time>2018-07-23T07:20:21.990Z</time>
      </trkpt>
      <trkpt lat="42.416992" lon="-5.129401">
        <ele>865</ele>
        <time>2018-07-23T07:20:23.990Z</time>
      </trkpt>
      <trkpt lat="42.417076" lon="-5.129484">
        <ele>865</ele>
        <time>2018-07-23T07:20:25.990Z</time>
      </trkpt>
      <trkpt lat="42.417157" lon="-5.129556">
        <ele>865.32</ele>
        <time>2018-07-23T07:20:27.990Z</time>
      </trkpt>
      <trkpt lat="42.417246" lon="-5.129632">
        <ele>866</ele>
        <time>2018-07-23T07:20:30.000Z</time>
      </trkpt>
      <trkpt lat="42.41733" lon="-5.129705">
        <ele>866</ele>
        <time>2018-07-23T07:20:31.990Z</time>
      </trkpt>
      <trkpt lat="42.417413" lon="-5.12978">
        <ele>866</ele>
        <time>2018-07-23T07:20:33.990Z</time>
      </trkpt>
      <trkpt lat="42.417521" lon="-5.129882">
        <ele>866</ele>
        <time>2018-07-23T07:20:36.990Z</time>
      </trkpt>
      <trkpt lat="42.417602" lon="-5.129952">
        <ele>867</ele>
        <time>2018-07-23T07:20:38.990Z</time>
      </trkpt>
      <trkpt lat="42.417674" lon="-5.13003">
        <ele>867</ele>
        <time>2018-07-23T07:20:40.990Z</time>
      </trkpt>
      <trkpt lat="42.417748" lon="-5.130113">
        <ele>868</ele>
        <time>2018-07-23T07:20:42.990Z</time>
      </trkpt>
      <trkpt lat="42.417825" lon="-5.130201">
        <ele>867.755903607172</ele>
        <time>2018-07-23T07:20:45.000Z</time>
      </trkpt>
      <trkpt lat="42.417908" lon="-5.130278">
        <ele>867</ele>
        <time>2018-07-23T07:20:46.990Z</time>
      </trkpt>
      <trkpt lat="42.417987" lon="-5.130352">
        <ele>867</ele>
        <time>2018-07-23T07:20:48.990Z</time>
      </trkpt>
      <trkpt lat="42.418066" lon="-5.130417">
        <ele>867</ele>
        <time>2018-07-23T07:20:50.990Z</time>
      </trkpt>
      <trkpt lat="42.418141" lon="-5.130486">
        <ele>867</ele>
        <time>2018-07-23T07:20:52.990Z</time>
      </trkpt>
      <trkpt lat="42.418218" lon="-5.13056">
        <ele>867</ele>
        <time>2018-07-23T07:20:55.000Z</time>
      </trkpt>
      <trkpt lat="42.418299" lon="-5.130632">
        <ele>867.313133533306</ele>
        <time>2018-07-23T07:20:56.990Z</time>
      </trkpt>
      <trkpt lat="42.418384" lon="-5.130711">
        <ele>868</ele>
        <time>2018-07-23T07:20:58.990Z</time>
      </trkpt>
      <trkpt lat="42.418471" lon="-5.130787">
        <ele>868</ele>
        <time>2018-07-23T07:21:00.990Z</time>
      </trkpt>
      <trkpt lat="42.418552" lon="-5.130859">
        <ele>868</ele>
        <time>2018-07-23T07:21:02.990Z</time>
      </trkpt>
      <trkpt lat="42.418635" lon="-5.130937">
        <ele>868</ele>
        <time>2018-07-23T07:21:05.000Z</time>
      </trkpt>
      <trkpt lat="42.418723" lon="-5.131012">
        <ele>868</ele>
        <time>2018-07-23T07:21:06.990Z</time>
      </trkpt>
      <trkpt lat="42.41881" lon="-5.131081">
        <ele>868</ele>
        <time>2018-07-23T07:21:08.990Z</time>
      </trkpt>
      <trkpt lat="42.418893" lon="-5.131152">
        <ele>868</ele>
        <time>2018-07-23T07:21:10.990Z</time>
      </trkpt>
      <trkpt lat="42.418971" lon="-5.131224">
        <ele>868</ele>
        <time>2018-07-23T07:21:12.990Z</time>
      </trkpt>
      <trkpt lat="42.419064" lon="-5.131301">
        <ele>868</ele>
        <time>2018-07-23T07:21:15.000Z</time>
      </trkpt>
      <trkpt lat="42.419146" lon="-5.131369">
        <ele>868</ele>
        <time>2018-07-23T07:21:16.990Z</time>
      </trkpt>
      <trkpt lat="42.419225" lon="-5.131443">
        <ele>868</ele>
        <time>2018-07-23T07:21:18.990Z</time>
      </trkpt>
      <trkpt lat="42.4193" lon="-5.131514">
        <ele>868</ele>
        <time>2018-07-23T07:21:20.990Z</time>
      </trkpt>
      <trkpt lat="42.419379" lon="-5.131579">
        <ele>868</ele>
        <time>2018-07-23T07:21:22.990Z</time>
      </trkpt>
      <trkpt lat="42.419457" lon="-5.131661">
        <ele>868</ele>
        <time>2018-07-23T07:21:25.000Z</time>
      </trkpt>
      <trkpt lat="42.419565" lon="-5.131767">
        <ele>868</ele>
        <time>2018-07-23T07:21:27.990Z</time>
      </trkpt>
      <trkpt lat="42.419643" lon="-5.131843">
        <ele>868</ele>
        <time>2018-07-23T07:21:30.000Z</time>
      </trkpt>
      <trkpt lat="42.41972" lon="-5.131913">
        <ele>868</ele>
        <time>2018-07-23T07:21:31.990Z</time>
      </trkpt>
      <trkpt lat="42.419831" lon="-5.132015">
        <ele>868</ele>
        <time>2018-07-23T07:21:35.000Z</time>
      </trkpt>
      <trkpt lat="42.419909" lon="-5.132093">
        <ele>868</ele>
        <time>2018-07-23T07:21:36.990Z</time>
      </trkpt>
      <trkpt lat="42.419986" lon="-5.132162">
        <ele>868</ele>
        <time>2018-07-23T07:21:38.990Z</time>
      </trkpt>
      <trkpt lat="42.420065" lon="-5.132237">
        <ele>868</ele>
        <time>2018-07-23T07:21:40.990Z</time>
      </trkpt>
      <trkpt lat="42.420142" lon="-5.132321">
        <ele>868</ele>
        <time>2018-07-23T07:21:42.990Z</time>
      </trkpt>
      <trkpt lat="42.420221" lon="-5.132403">
        <ele>868</ele>
        <time>2018-07-23T07:21:45.000Z</time>
      </trkpt>
      <trkpt lat="42.420294" lon="-5.132481">
        <ele>868</ele>
        <time>2018-07-23T07:21:46.990Z</time>
      </trkpt>
      <trkpt lat="42.420369" lon="-5.13256">
        <ele>868.32</ele>
        <time>2018-07-23T07:21:48.990Z</time>
      </trkpt>
      <trkpt lat="42.420442" lon="-5.13264">
        <ele>869</ele>
        <time>2018-07-23T07:21:50.990Z</time>
      </trkpt>
      <trkpt lat="42.420514" lon="-5.132722">
        <ele>869</ele>
        <time>2018-07-23T07:21:52.990Z</time>
      </trkpt>
      <trkpt lat="42.420591" lon="-5.132803">
        <ele>869</ele>
        <time>2018-07-23T07:21:55.000Z</time>
      </trkpt>
      <trkpt lat="42.420668" lon="-5.132888">
        <ele>869</ele>
        <time>2018-07-23T07:21:56.990Z</time>
      </trkpt>
      <trkpt lat="42.420746" lon="-5.132973">
        <ele>870</ele>
        <time>2018-07-23T07:21:58.990Z</time>
      </trkpt>
      <trkpt lat="42.42083" lon="-5.133057">
        <ele>870</ele>
        <time>2018-07-23T07:22:00.990Z</time>
      </trkpt>
      <trkpt lat="42.420907" lon="-5.133141">
        <ele>870</ele>
        <time>2018-07-23T07:22:02.990Z</time>
      </trkpt>
      <trkpt lat="42.420988" lon="-5.133228">
        <ele>870</ele>
        <time>2018-07-23T07:22:05.000Z</time>
      </trkpt>
      <trkpt lat="42.421063" lon="-5.13331">
        <ele>870</ele>
        <time>2018-07-23T07:22:06.990Z</time>
      </trkpt>
      <trkpt lat="42.421136" lon="-5.13339">
        <ele>870</ele>
        <time>2018-07-23T07:22:08.990Z</time>
      </trkpt>
      <trkpt lat="42.421219" lon="-5.133476">
        <ele>870</ele>
        <time>2018-07-23T07:22:10.990Z</time>
      </trkpt>
      <trkpt lat="42.421297" lon="-5.13356">
        <ele>870.32</ele>
        <time>2018-07-23T07:22:12.990Z</time>
      </trkpt>
      <trkpt lat="42.421374" lon="-5.133644">
        <ele>871</ele>
        <time>2018-07-23T07:22:15.000Z</time>
      </trkpt>
      <trkpt lat="42.421446" lon="-5.133724">
        <ele>871</ele>
        <time>2018-07-23T07:22:16.990Z</time>
      </trkpt>
      <trkpt lat="42.421553" lon="-5.133839">
        <ele>871</ele>
        <time>2018-07-23T07:22:20.000Z</time>
      </trkpt>
      <trkpt lat="42.421628" lon="-5.133923">
        <ele>871</ele>
        <time>2018-07-23T07:22:21.990Z</time>
      </trkpt>
      <trkpt lat="42.421697" lon="-5.134004">
        <ele>872</ele>
        <time>2018-07-23T07:22:23.990Z</time>
      </trkpt>
      <trkpt lat="42.421775" lon="-5.134087">
        <ele>871.985511816866</ele>
        <time>2018-07-23T07:22:25.990Z</time>
      </trkpt>
      <trkpt lat="42.421849" lon="-5.134171">
        <ele>871</ele>
        <time>2018-07-23T07:22:27.990Z</time>
      </trkpt>
      <trkpt lat="42.421931" lon="-5.134266">
        <ele>871</ele>
        <time>2018-07-23T07:22:30.000Z</time>
      </trkpt>
      <trkpt lat="42.422007" lon="-5.134362">
        <ele>871</ele>
        <time>2018-07-23T07:22:31.990Z</time>
      </trkpt>
      <trkpt lat="42.422086" lon="-5.134463">
        <ele>871</ele>
        <time>2018-07-23T07:22:33.990Z</time>
      </trkpt>
      <trkpt lat="42.422156" lon="-5.134555">
        <ele>871</ele>
        <time>2018-07-23T07:22:35.990Z</time>
      </trkpt>
      <trkpt lat="42.422222" lon="-5.134649">
        <ele>870</ele>
        <time>2018-07-23T07:22:37.990Z</time>
      </trkpt>
      <trkpt lat="42.422298" lon="-5.134759">
        <ele>870</ele>
        <time>2018-07-23T07:22:40.000Z</time>
      </trkpt>
      <trkpt lat="42.422378" lon="-5.13487">
        <ele>871</ele>
        <time>2018-07-23T07:22:41.990Z</time>
      </trkpt>
      <trkpt lat="42.422452" lon="-5.134971">
        <ele>871</ele>
        <time>2018-07-23T07:22:43.990Z</time>
      </trkpt>
      <trkpt lat="42.422521" lon="-5.135065">
        <ele>871</ele>
        <time>2018-07-23T07:22:45.990Z</time>
      </trkpt>
      <trkpt lat="42.422596" lon="-5.135158">
        <ele>869.68</ele>
        <time>2018-07-23T07:22:47.990Z</time>
      </trkpt>
      <trkpt lat="42.422686" lon="-5.135255">
        <ele>869</ele>
        <time>2018-07-23T07:22:50.000Z</time>
      </trkpt>
      <trkpt lat="42.422781" lon="-5.135352">
        <ele>868.68</ele>
        <time>2018-07-23T07:22:51.990Z</time>
      </trkpt>
      <trkpt lat="42.422891" lon="-5.135452">
        <ele>868</ele>
        <time>2018-07-23T07:22:53.990Z</time>
      </trkpt>
      <trkpt lat="42.423009" lon="-5.135565">
        <ele>867.68</ele>
        <time>2018-07-23T07:22:55.990Z</time>
      </trkpt>
      <trkpt lat="42.423127" lon="-5.135674">
        <ele>867</ele>
        <time>2018-07-23T07:22:57.990Z</time>
      </trkpt>
      <trkpt lat="42.423239" lon="-5.135783">
        <ele>866</ele>
        <time>2018-07-23T07:23:00.000Z</time>
      </trkpt>
      <trkpt lat="42.423332" lon="-5.135877">
        <ele>866</ele>
        <time>2018-07-23T07:23:01.990Z</time>
      </trkpt>
      <trkpt lat="42.423422" lon="-5.135963">
        <ele>866</ele>
        <time>2018-07-23T07:23:03.990Z</time>
      </trkpt>
      <trkpt lat="42.423514" lon="-5.136039">
        <ele>866</ele>
        <time>2018-07-23T07:23:05.990Z</time>
      </trkpt>
      <trkpt lat="42.423608" lon="-5.136127">
        <ele>866</ele>
        <time>2018-07-23T07:23:07.990Z</time>
      </trkpt>
      <trkpt lat="42.423698" lon="-5.136218">
        <ele>866</ele>
        <time>2018-07-23T07:23:10.000Z</time>
      </trkpt>
      <trkpt lat="42.423792" lon="-5.136295">
        <ele>866</ele>
        <time>2018-07-23T07:23:11.990Z</time>
      </trkpt>
      <trkpt lat="42.423893" lon="-5.136375">
        <ele>866</ele>
        <time>2018-07-23T07:23:13.990Z</time>
      </trkpt>
      <trkpt lat="42.423986" lon="-5.136462">
        <ele>866.32</ele>
        <time>2018-07-23T07:23:15.990Z</time>
      </trkpt>
      <trkpt lat="42.424074" lon="-5.136541">
        <ele>867</ele>
        <time>2018-07-23T07:23:17.990Z</time>
      </trkpt>
      <trkpt lat="42.424168" lon="-5.136626">
        <ele>867</ele>
        <time>2018-07-23T07:23:20.000Z</time>
      </trkpt>
      <trkpt lat="42.42425" lon="-5.13671">
        <ele>867</ele>
        <time>2018-07-23T07:23:21.990Z</time>
      </trkpt>
      <trkpt lat="42.424327" lon="-5.136785">
        <ele>867</ele>
        <time>2018-07-23T07:23:23.990Z</time>
      </trkpt>
      <trkpt lat="42.424402" lon="-5.136863">
        <ele>867.32</ele>
        <time>2018-07-23T07:23:25.990Z</time>
      </trkpt>
      <trkpt lat="42.424474" lon="-5.136944">
        <ele>868</ele>
        <time>2018-07-23T07:23:27.990Z</time>
      </trkpt>
      <trkpt lat="42.424554" lon="-5.137027">
        <ele>868</ele>
        <time>2018-07-23T07:23:30.000Z</time>
      </trkpt>
      <trkpt lat="42.424664" lon="-5.137142">
        <ele>868</ele>
        <time>2018-07-23T07:23:32.990Z</time>
      </trkpt>
      <trkpt lat="42.424747" lon="-5.137228">
        <ele>868</ele>
        <time>2018-07-23T07:23:35.000Z</time>
      </trkpt>
      <trkpt lat="42.424815" lon="-5.137314">
        <ele>868</ele>
        <time>2018-07-23T07:23:36.990Z</time>
      </trkpt>
      <trkpt lat="42.424923" lon="-5.137435">
        <ele>868</ele>
        <time>2018-07-23T07:23:40.000Z</time>
      </trkpt>
      <trkpt lat="42.424994" lon="-5.137517">
        <ele>868</ele>
        <time>2018-07-23T07:23:41.990Z</time>
      </trkpt>
      <trkpt lat="42.425098" lon="-5.137628">
        <ele>869</ele>
        <time>2018-07-23T07:23:45.000Z</time>
      </trkpt>
      <trkpt lat="42.425165" lon="-5.137716">
        <ele>869</ele>
        <time>2018-07-23T07:23:46.990Z</time>
      </trkpt>
      <trkpt lat="42.425235" lon="-5.137802">
        <ele>869.32</ele>
        <time>2018-07-23T07:23:48.990Z</time>
      </trkpt>
      <trkpt lat="42.42531" lon="-5.137881">
        <ele>870</ele>
        <time>2018-07-23T07:23:50.990Z</time>
      </trkpt>
      <trkpt lat="42.425407" lon="-5.138001">
        <ele>871</ele>
        <time>2018-07-23T07:23:53.990Z</time>
      </trkpt>
      <trkpt lat="42.425483" lon="-5.138082">
        <ele>871</ele>
        <time>2018-07-23T07:23:55.990Z</time>
      </trkpt>
      <trkpt lat="42.425554" lon="-5.13816">
        <ele>871</ele>
        <time>2018-07-23T07:23:57.990Z</time>
      </trkpt>
      <trkpt lat="42.425655" lon="-5.138273">
        <ele>871.68</ele>
        <time>2018-07-23T07:24:00.990Z</time>
      </trkpt>
      <trkpt lat="42.425724" lon="-5.138354">
        <ele>871</ele>
        <time>2018-07-23T07:24:02.990Z</time>
      </trkpt>
      <trkpt lat="42.425804" lon="-5.138433">
        <ele>871</ele>
        <time>2018-07-23T07:24:05.000Z</time>
      </trkpt>
      <trkpt lat="42.425875" lon="-5.138515">
        <ele>871</ele>
        <time>2018-07-23T07:24:06.990Z</time>
      </trkpt>
      <trkpt lat="42.425951" lon="-5.138593">
        <ele>871.3299968</ele>
        <time>2018-07-23T07:24:09.000Z</time>
      </trkpt>
      <trkpt lat="42.426027" lon="-5.138678">
        <ele>872</ele>
        <time>2018-07-23T07:24:11.000Z</time>
      </trkpt>
      <trkpt lat="42.426103" lon="-5.138759">
        <ele>872</ele>
        <time>2018-07-23T07:24:13.000Z</time>
      </trkpt>
      <trkpt lat="42.426175" lon="-5.138836">
        <ele>872</ele>
        <time>2018-07-23T07:24:15.000Z</time>
      </trkpt>
      <trkpt lat="42.426245" lon="-5.138913">
        <ele>872</ele>
        <time>2018-07-23T07:24:17.000Z</time>
      </trkpt>
      <trkpt lat="42.426343" lon="-5.139026">
        <ele>873</ele>
        <time>2018-07-23T07:24:20.000Z</time>
      </trkpt>
      <trkpt lat="42.426443" lon="-5.139136">
        <ele>873</ele>
        <time>2018-07-23T07:24:23.000Z</time>
      </trkpt>
      <trkpt lat="42.426546" lon="-5.13925">
        <ele>873.3299968</ele>
        <time>2018-07-23T07:24:26.000Z</time>
      </trkpt>
      <trkpt lat="42.426619" lon="-5.139331">
        <ele>874</ele>
        <time>2018-07-23T07:24:28.000Z</time>
      </trkpt>
      <trkpt lat="42.426693" lon="-5.13941">
        <ele>874</ele>
        <time>2018-07-23T07:24:30.000Z</time>
      </trkpt>
      <trkpt lat="42.42677" lon="-5.139493">
        <ele>874</ele>
        <time>2018-07-23T07:24:32.000Z</time>
      </trkpt>
      <trkpt lat="42.426847" lon="-5.139575">
        <ele>874</ele>
        <time>2018-07-23T07:24:34.000Z</time>
      </trkpt>
      <trkpt lat="42.426925" lon="-5.139661">
        <ele>874</ele>
        <time>2018-07-23T07:24:36.000Z</time>
      </trkpt>
      <trkpt lat="42.427001" lon="-5.139739">
        <ele>874</ele>
        <time>2018-07-23T07:24:38.000Z</time>
      </trkpt>
      <trkpt lat="42.427072" lon="-5.139817">
        <ele>874</ele>
        <time>2018-07-23T07:24:40.000Z</time>
      </trkpt>
      <trkpt lat="42.427146" lon="-5.1399">
        <ele>874</ele>
        <time>2018-07-23T07:24:42.000Z</time>
      </trkpt>
      <trkpt lat="42.427221" lon="-5.139982">
        <ele>874</ele>
        <time>2018-07-23T07:24:44.000Z</time>
      </trkpt>
      <trkpt lat="42.427293" lon="-5.140061">
        <ele>874</ele>
        <time>2018-07-23T07:24:46.000Z</time>
      </trkpt>
      <trkpt lat="42.427365" lon="-5.140142">
        <ele>874</ele>
        <time>2018-07-23T07:24:48.000Z</time>
      </trkpt>
      <trkpt lat="42.427435" lon="-5.140225">
        <ele>874</ele>
        <time>2018-07-23T07:24:50.000Z</time>
      </trkpt>
      <trkpt lat="42.427506" lon="-5.140302">
        <ele>874</ele>
        <time>2018-07-23T07:24:52.000Z</time>
      </trkpt>
      <trkpt lat="42.427577" lon="-5.14038">
        <ele>874</ele>
        <time>2018-07-23T07:24:54.000Z</time>
      </trkpt>
      <trkpt lat="42.42768" lon="-5.140491">
        <ele>874</ele>
        <time>2018-07-23T07:24:57.000Z</time>
      </trkpt>
      <trkpt lat="42.42775" lon="-5.14057">
        <ele>874.323231278444</ele>
        <time>2018-07-23T07:24:59.000Z</time>
      </trkpt>
      <trkpt lat="42.427822" lon="-5.140648">
        <ele>874</ele>
        <time>2018-07-23T07:25:01.000Z</time>
      </trkpt>
      <trkpt lat="42.427895" lon="-5.140729">
        <ele>874</ele>
        <time>2018-07-23T07:25:03.000Z</time>
      </trkpt>
      <trkpt lat="42.42797" lon="-5.140812">
        <ele>874</ele>
        <time>2018-07-23T07:25:05.000Z</time>
      </trkpt>
      <trkpt lat="42.428044" lon="-5.140894">
        <ele>874</ele>
        <time>2018-07-23T07:25:07.000Z</time>
      </trkpt>
      <trkpt lat="42.428116" lon="-5.140973">
        <ele>874</ele>
        <time>2018-07-23T07:25:09.000Z</time>
      </trkpt>
      <trkpt lat="42.42819" lon="-5.141052">
        <ele>874</ele>
        <time>2018-07-23T07:25:10.990Z</time>
      </trkpt>
      <trkpt lat="42.428259" lon="-5.141136">
        <ele>874</ele>
        <time>2018-07-23T07:25:12.990Z</time>
      </trkpt>
      <trkpt lat="42.428333" lon="-5.141214">
        <ele>874</ele>
        <time>2018-07-23T07:25:15.000Z</time>
      </trkpt>
      <trkpt lat="42.428401" lon="-5.141294">
        <ele>874</ele>
        <time>2018-07-23T07:25:16.990Z</time>
      </trkpt>
      <trkpt lat="42.428475" lon="-5.14138">
        <ele>874</ele>
        <time>2018-07-23T07:25:18.990Z</time>
      </trkpt>
      <trkpt lat="42.428553" lon="-5.141468">
        <ele>875</ele>
        <time>2018-07-23T07:25:20.990Z</time>
      </trkpt>
      <trkpt lat="42.428626" lon="-5.141554">
        <ele>875</ele>
        <time>2018-07-23T07:25:22.990Z</time>
      </trkpt>
      <trkpt lat="42.428697" lon="-5.141642">
        <ele>875</ele>
        <time>2018-07-23T07:25:25.000Z</time>
      </trkpt>
      <trkpt lat="42.428789" lon="-5.141752">
        <ele>875</ele>
        <time>2018-07-23T07:25:27.990Z</time>
      </trkpt>
      <trkpt lat="42.428861" lon="-5.14184">
        <ele>876</ele>
        <time>2018-07-23T07:25:30.000Z</time>
      </trkpt>
      <trkpt lat="42.428957" lon="-5.141951">
        <ele>876</ele>
        <time>2018-07-23T07:25:32.990Z</time>
      </trkpt>
      <trkpt lat="42.429048" lon="-5.142064">
        <ele>877</ele>
        <time>2018-07-23T07:25:35.990Z</time>
      </trkpt>
      <trkpt lat="42.429152" lon="-5.142166">
        <ele>877</ele>
        <time>2018-07-23T07:25:38.990Z</time>
      </trkpt>
      <trkpt lat="42.429245" lon="-5.142286">
        <ele>877.32</ele>
        <time>2018-07-23T07:25:41.990Z</time>
      </trkpt>
      <trkpt lat="42.429333" lon="-5.1424">
        <ele>878</ele>
        <time>2018-07-23T07:25:45.000Z</time>
      </trkpt>
      <trkpt lat="42.429427" lon="-5.142511">
        <ele>878</ele>
        <time>2018-07-23T07:25:47.990Z</time>
      </trkpt>
      <trkpt lat="42.429518" lon="-5.142632">
        <ele>879</ele>
        <time>2018-07-23T07:25:50.990Z</time>
      </trkpt>
      <trkpt lat="42.429583" lon="-5.142718">
        <ele>879</ele>
        <time>2018-07-23T07:25:52.990Z</time>
      </trkpt>
      <trkpt lat="42.429671" lon="-5.142838">
        <ele>879.32</ele>
        <time>2018-07-23T07:25:55.990Z</time>
      </trkpt>
      <trkpt lat="42.429752" lon="-5.142958">
        <ele>880</ele>
        <time>2018-07-23T07:25:58.990Z</time>
      </trkpt>
      <trkpt lat="42.429839" lon="-5.143082">
        <ele>880</ele>
        <time>2018-07-23T07:26:01.990Z</time>
      </trkpt>
      <trkpt lat="42.429924" lon="-5.143214">
        <ele>880.042861322411</ele>
        <time>2018-07-23T07:26:05.000Z</time>
      </trkpt>
      <trkpt lat="42.429997" lon="-5.143352">
        <ele>882</ele>
        <time>2018-07-23T07:26:07.990Z</time>
      </trkpt>
      <trkpt lat="42.430072" lon="-5.143488">
        <ele>882</ele>
        <time>2018-07-23T07:26:10.990Z</time>
      </trkpt>
      <trkpt lat="42.430151" lon="-5.143629">
        <ele>882</ele>
        <time>2018-07-23T07:26:13.990Z</time>
      </trkpt>
      <trkpt lat="42.430213" lon="-5.143775">
        <ele>881</ele>
        <time>2018-07-23T07:26:16.990Z</time>
      </trkpt>
      <trkpt lat="42.43028" lon="-5.143929">
        <ele>881</ele>
        <time>2018-07-23T07:26:20.000Z</time>
      </trkpt>
      <trkpt lat="42.43034" lon="-5.144066">
        <ele>882</ele>
        <time>2018-07-23T07:26:22.990Z</time>
      </trkpt>
      <trkpt lat="42.430407" lon="-5.144206">
        <ele>883</ele>
        <time>2018-07-23T07:26:25.990Z</time>
      </trkpt>
      <trkpt lat="42.430467" lon="-5.144346">
        <ele>884</ele>
        <time>2018-07-23T07:26:28.990Z</time>
      </trkpt>
      <trkpt lat="42.430528" lon="-5.144487">
        <ele>884</ele>
        <time>2018-07-23T07:26:31.990Z</time>
      </trkpt>
      <trkpt lat="42.430592" lon="-5.144622">
        <ele>884</ele>
        <time>2018-07-23T07:26:35.000Z</time>
      </trkpt>
      <trkpt lat="42.430644" lon="-5.144764">
        <ele>885</ele>
        <time>2018-07-23T07:26:37.990Z</time>
      </trkpt>
      <trkpt lat="42.430692" lon="-5.144908">
        <ele>885</ele>
        <time>2018-07-23T07:26:40.990Z</time>
      </trkpt>
      <trkpt lat="42.430743" lon="-5.145056">
        <ele>885</ele>
        <time>2018-07-23T07:26:43.990Z</time>
      </trkpt>
      <trkpt lat="42.430798" lon="-5.145204">
        <ele>885</ele>
        <time>2018-07-23T07:26:46.990Z</time>
      </trkpt>
      <trkpt lat="42.430847" lon="-5.145362">
        <ele>885</ele>
        <time>2018-07-23T07:26:50.000Z</time>
      </trkpt>
      <trkpt lat="42.43091" lon="-5.145523">
        <ele>885</ele>
        <time>2018-07-23T07:26:52.990Z</time>
      </trkpt>
      <trkpt lat="42.430947" lon="-5.145636">
        <ele>885</ele>
        <time>2018-07-23T07:26:55.000Z</time>
      </trkpt>
      <trkpt lat="42.431" lon="-5.145794">
        <ele>885</ele>
        <time>2018-07-23T07:26:57.990Z</time>
      </trkpt>
      <trkpt lat="42.431039" lon="-5.145908">
        <ele>885</ele>
        <time>2018-07-23T07:27:00.000Z</time>
      </trkpt>
      <trkpt lat="42.431082" lon="-5.14602">
        <ele>885</ele>
        <time>2018-07-23T07:27:01.990Z</time>
      </trkpt>
      <trkpt lat="42.431124" lon="-5.146133">
        <ele>885</ele>
        <time>2018-07-23T07:27:03.990Z</time>
      </trkpt>
      <trkpt lat="42.43118" lon="-5.146303">
        <ele>885</ele>
        <time>2018-07-23T07:27:06.990Z</time>
      </trkpt>
      <trkpt lat="42.431217" lon="-5.146415">
        <ele>885</ele>
        <time>2018-07-23T07:27:08.990Z</time>
      </trkpt>
      <trkpt lat="42.431254" lon="-5.146528">
        <ele>885</ele>
        <time>2018-07-23T07:27:10.990Z</time>
      </trkpt>
      <trkpt lat="42.431295" lon="-5.146641">
        <ele>885</ele>
        <time>2018-07-23T07:27:12.990Z</time>
      </trkpt>
      <trkpt lat="42.431339" lon="-5.146754">
        <ele>885</ele>
        <time>2018-07-23T07:27:15.000Z</time>
      </trkpt>
      <trkpt lat="42.431373" lon="-5.146877">
        <ele>885</ele>
        <time>2018-07-23T07:27:16.990Z</time>
      </trkpt>
      <trkpt lat="42.431412" lon="-5.146997">
        <ele>885.32</ele>
        <time>2018-07-23T07:27:18.990Z</time>
      </trkpt>
      <trkpt lat="42.431444" lon="-5.147116">
        <ele>886</ele>
        <time>2018-07-23T07:27:20.990Z</time>
      </trkpt>
      <trkpt lat="42.431479" lon="-5.147238">
        <ele>885.68</ele>
        <time>2018-07-23T07:27:22.990Z</time>
      </trkpt>
      <trkpt lat="42.431514" lon="-5.14736">
        <ele>885</ele>
        <time>2018-07-23T07:27:25.000Z</time>
      </trkpt>
      <trkpt lat="42.431552" lon="-5.147482">
        <ele>885</ele>
        <time>2018-07-23T07:27:26.990Z</time>
      </trkpt>
      <trkpt lat="42.431586" lon="-5.147604">
        <ele>885.32</ele>
        <time>2018-07-23T07:27:28.990Z</time>
      </trkpt>
      <trkpt lat="42.431625" lon="-5.147719">
        <ele>886</ele>
        <time>2018-07-23T07:27:30.990Z</time>
      </trkpt>
      <trkpt lat="42.431664" lon="-5.147832">
        <ele>886</ele>
        <time>2018-07-23T07:27:32.990Z</time>
      </trkpt>
      <trkpt lat="42.431715" lon="-5.147951">
        <ele>886.042861322411</ele>
        <time>2018-07-23T07:27:35.000Z</time>
      </trkpt>
      <trkpt lat="42.431745" lon="-5.148067">
        <ele>887</ele>
        <time>2018-07-23T07:27:36.990Z</time>
      </trkpt>
      <trkpt lat="42.43178" lon="-5.148183">
        <ele>887</ele>
        <time>2018-07-23T07:27:38.990Z</time>
      </trkpt>
      <trkpt lat="42.431822" lon="-5.148291">
        <ele>886</ele>
        <time>2018-07-23T07:27:40.990Z</time>
      </trkpt>
      <trkpt lat="42.431875" lon="-5.148453">
        <ele>887</ele>
        <time>2018-07-23T07:27:43.990Z</time>
      </trkpt>
      <trkpt lat="42.431917" lon="-5.148565">
        <ele>887</ele>
        <time>2018-07-23T07:27:45.990Z</time>
      </trkpt>
      <trkpt lat="42.43196" lon="-5.148674">
        <ele>887</ele>
        <time>2018-07-23T07:27:47.990Z</time>
      </trkpt>
      <trkpt lat="42.432001" lon="-5.148794">
        <ele>888</ele>
        <time>2018-07-23T07:27:50.000Z</time>
      </trkpt>
      <trkpt lat="42.432055" lon="-5.14896">
        <ele>888</ele>
        <time>2018-07-23T07:27:52.990Z</time>
      </trkpt>
      <trkpt lat="42.432098" lon="-5.149073">
        <ele>888</ele>
        <time>2018-07-23T07:27:55.000Z</time>
      </trkpt>
      <trkpt lat="42.432152" lon="-5.149238">
        <ele>888</ele>
        <time>2018-07-23T07:27:57.990Z</time>
      </trkpt>
      <trkpt lat="42.432196" lon="-5.149356">
        <ele>888</ele>
        <time>2018-07-23T07:28:00.000Z</time>
      </trkpt>
      <trkpt lat="42.432234" lon="-5.149471">
        <ele>888</ele>
        <time>2018-07-23T07:28:01.990Z</time>
      </trkpt>
      <trkpt lat="42.432272" lon="-5.149584">
        <ele>888</ele>
        <time>2018-07-23T07:28:03.990Z</time>
      </trkpt>
      <trkpt lat="42.432304" lon="-5.149703">
        <ele>888</ele>
        <time>2018-07-23T07:28:05.990Z</time>
      </trkpt>
      <trkpt lat="42.432342" lon="-5.149826">
        <ele>889</ele>
        <time>2018-07-23T07:28:07.990Z</time>
      </trkpt>
      <trkpt lat="42.432376" lon="-5.149957">
        <ele>889</ele>
        <time>2018-07-23T07:28:10.000Z</time>
      </trkpt>
      <trkpt lat="42.432401" lon="-5.150081">
        <ele>889</ele>
        <time>2018-07-23T07:28:11.990Z</time>
      </trkpt>
      <trkpt lat="42.432426" lon="-5.150207">
        <ele>889</ele>
        <time>2018-07-23T07:28:13.990Z</time>
      </trkpt>
      <trkpt lat="42.432456" lon="-5.150327">
        <ele>889.32</ele>
        <time>2018-07-23T07:28:15.990Z</time>
      </trkpt>
      <trkpt lat="42.432477" lon="-5.150447">
        <ele>890</ele>
        <time>2018-07-23T07:28:17.990Z</time>
      </trkpt>
      <trkpt lat="42.432499" lon="-5.150569">
        <ele>890</ele>
        <time>2018-07-23T07:28:20.000Z</time>
      </trkpt>
      <trkpt lat="42.432524" lon="-5.150688">
        <ele>890</ele>
        <time>2018-07-23T07:28:21.990Z</time>
      </trkpt>
      <trkpt lat="42.43255" lon="-5.150807">
        <ele>890</ele>
        <time>2018-07-23T07:28:23.990Z</time>
      </trkpt>
      <trkpt lat="42.432572" lon="-5.15093">
        <ele>890</ele>
        <time>2018-07-23T07:28:25.990Z</time>
      </trkpt>
      <trkpt lat="42.432587" lon="-5.151051">
        <ele>891</ele>
        <time>2018-07-23T07:28:27.990Z</time>
      </trkpt>
      <trkpt lat="42.432611" lon="-5.151174">
        <ele>891</ele>
        <time>2018-07-23T07:28:30.000Z</time>
      </trkpt>
      <trkpt lat="42.432639" lon="-5.151341">
        <ele>891</ele>
        <time>2018-07-23T07:28:32.990Z</time>
      </trkpt>
      <trkpt lat="42.432663" lon="-5.151514">
        <ele>891.32</ele>
        <time>2018-07-23T07:28:35.990Z</time>
      </trkpt>
      <trkpt lat="42.4327" lon="-5.151684">
        <ele>892</ele>
        <time>2018-07-23T07:28:38.990Z</time>
      </trkpt>
      <trkpt lat="42.432732" lon="-5.151853">
        <ele>893</ele>
        <time>2018-07-23T07:28:41.990Z</time>
      </trkpt>
      <trkpt lat="42.432765" lon="-5.152015">
        <ele>893</ele>
        <time>2018-07-23T07:28:45.000Z</time>
      </trkpt>
      <trkpt lat="42.432806" lon="-5.152185">
        <ele>892</ele>
        <time>2018-07-23T07:28:47.990Z</time>
      </trkpt>
      <trkpt lat="42.432839" lon="-5.152353">
        <ele>893</ele>
        <time>2018-07-23T07:28:50.990Z</time>
      </trkpt>
      <trkpt lat="42.43287" lon="-5.152517">
        <ele>893</ele>
        <time>2018-07-23T07:28:53.990Z</time>
      </trkpt>
      <trkpt lat="42.432898" lon="-5.152669">
        <ele>894</ele>
        <time>2018-07-23T07:28:56.990Z</time>
      </trkpt>
      <trkpt lat="42.432934" lon="-5.152828">
        <ele>894</ele>
        <time>2018-07-23T07:29:00.000Z</time>
      </trkpt>
      <trkpt lat="42.43296" lon="-5.152984">
        <ele>895</ele>
        <time>2018-07-23T07:29:02.990Z</time>
      </trkpt>
      <trkpt lat="42.432982" lon="-5.153113">
        <ele>895</ele>
        <time>2018-07-23T07:29:05.990Z</time>
      </trkpt>
      <trkpt lat="42.433007" lon="-5.153259">
        <ele>895.3299968</ele>
        <time>2018-07-23T07:29:10.000Z</time>
      </trkpt>
      <trkpt lat="42.433029" lon="-5.153391">
        <ele>896</ele>
        <time>2018-07-23T07:29:13.990Z</time>
      </trkpt>
      <trkpt lat="42.433039" lon="-5.153522">
        <ele>896</ele>
        <time>2018-07-23T07:29:17.990Z</time>
      </trkpt>
      <trkpt lat="42.433065" lon="-5.15365">
        <ele>896</ele>
        <time>2018-07-23T07:29:21.990Z</time>
      </trkpt>
      <trkpt lat="42.433099" lon="-5.153796">
        <ele>896</ele>
        <time>2018-07-23T07:29:25.990Z</time>
      </trkpt>
      <trkpt lat="42.433108" lon="-5.153922">
        <ele>896</ele>
        <time>2018-07-23T07:29:28.990Z</time>
      </trkpt>
      <trkpt lat="42.433111" lon="-5.154056">
        <ele>896</ele>
        <time>2018-07-23T07:29:31.990Z</time>
      </trkpt>
      <trkpt lat="42.433129" lon="-5.15419">
        <ele>896</ele>
        <time>2018-07-23T07:29:35.000Z</time>
      </trkpt>
      <trkpt lat="42.433144" lon="-5.154325">
        <ele>896</ele>
        <time>2018-07-23T07:29:38.990Z</time>
      </trkpt>
      <trkpt lat="42.433149" lon="-5.154459">
        <ele>896</ele>
        <time>2018-07-23T07:29:41.990Z</time>
      </trkpt>
      <trkpt lat="42.433132" lon="-5.154605">
        <ele>896</ele>
        <time>2018-07-23T07:29:45.990Z</time>
      </trkpt>
      <trkpt lat="42.433156" lon="-5.154728">
        <ele>896</ele>
        <time>2018-07-23T07:29:50.000Z</time>
      </trkpt>
      <trkpt lat="42.433202" lon="-5.154853">
        <ele>896</ele>
        <time>2018-07-23T07:29:53.990Z</time>
      </trkpt>
      <trkpt lat="42.433235" lon="-5.155007">
        <ele>896</ele>
        <time>2018-07-23T07:29:57.990Z</time>
      </trkpt>
      <trkpt lat="42.433272" lon="-5.155145">
        <ele>896</ele>
        <time>2018-07-23T07:30:00.990Z</time>
      </trkpt>
      <trkpt lat="42.433328" lon="-5.15528">
        <ele>896</ele>
        <time>2018-07-23T07:30:03.990Z</time>
      </trkpt>
      <trkpt lat="42.433387" lon="-5.155428">
        <ele>895.68</ele>
        <time>2018-07-23T07:30:06.990Z</time>
      </trkpt>
      <trkpt lat="42.433443" lon="-5.155581">
        <ele>894</ele>
        <time>2018-07-23T07:30:10.000Z</time>
      </trkpt>
      <trkpt lat="42.433505" lon="-5.155739">
        <ele>894</ele>
        <time>2018-07-23T07:30:12.990Z</time>
      </trkpt>
      <trkpt lat="42.433553" lon="-5.155895">
        <ele>894</ele>
        <time>2018-07-23T07:30:15.990Z</time>
      </trkpt>
      <trkpt lat="42.433573" lon="-5.156027">
        <ele>894.32</ele>
        <time>2018-07-23T07:30:18.990Z</time>
      </trkpt>
      <trkpt lat="42.433597" lon="-5.156178">
        <ele>895</ele>
        <time>2018-07-23T07:30:22.000Z</time>
      </trkpt>
      <trkpt lat="42.433651" lon="-5.156297">
        <ele>895</ele>
        <time>2018-07-23T07:30:25.000Z</time>
      </trkpt>
      <trkpt lat="42.433692" lon="-5.156426">
        <ele>895</ele>
        <time>2018-07-23T07:30:27.990Z</time>
      </trkpt>
      <trkpt lat="42.433728" lon="-5.156552">
        <ele>895</ele>
        <time>2018-07-23T07:30:30.990Z</time>
      </trkpt>
      <trkpt lat="42.43378" lon="-5.156685">
        <ele>895</ele>
        <time>2018-07-23T07:30:35.000Z</time>
      </trkpt>
      <trkpt lat="42.433844" lon="-5.156813">
        <ele>895</ele>
        <time>2018-07-23T07:30:38.990Z</time>
      </trkpt>
      <trkpt lat="42.433905" lon="-5.156931">
        <ele>895</ele>
        <time>2018-07-23T07:30:41.990Z</time>
      </trkpt>
      <trkpt lat="42.433968" lon="-5.157024">
        <ele>895</ele>
        <time>2018-07-23T07:30:45.000Z</time>
      </trkpt>
      <trkpt lat="42.434032" lon="-5.157124">
        <ele>895</ele>
        <time>2018-07-23T07:30:47.990Z</time>
      </trkpt>
      <trkpt lat="42.434092" lon="-5.15722">
        <ele>895</ele>
        <time>2018-07-23T07:30:50.990Z</time>
      </trkpt>
      <trkpt lat="42.434106" lon="-5.157346">
        <ele>895</ele>
        <time>2018-07-23T07:30:55.000Z</time>
      </trkpt>
      <trkpt lat="42.434136" lon="-5.157479">
        <ele>895</ele>
        <time>2018-07-23T07:31:00.990Z</time>
      </trkpt>
      <trkpt lat="42.434193" lon="-5.157626">
        <ele>896</ele>
        <time>2018-07-23T07:31:05.000Z</time>
      </trkpt>
      <trkpt lat="42.434204" lon="-5.157762">
        <ele>896</ele>
        <time>2018-07-23T07:31:07.000Z</time>
      </trkpt>
      <trkpt lat="42.434244" lon="-5.157886">
        <ele>896</ele>
        <time>2018-07-23T07:31:09.990Z</time>
      </trkpt>
      <trkpt lat="42.434276" lon="-5.158006">
        <ele>896</ele>
        <time>2018-07-23T07:31:13.000Z</time>
      </trkpt>
      <trkpt lat="42.434318" lon="-5.158163">
        <ele>896</ele>
        <time>2018-07-23T07:31:16.990Z</time>
      </trkpt>
      <trkpt lat="42.434354" lon="-5.158301">
        <ele>896</ele>
        <time>2018-07-23T07:31:19.990Z</time>
      </trkpt>
      <trkpt lat="42.434371" lon="-5.158428">
        <ele>896</ele>
        <time>2018-07-23T07:31:23.000Z</time>
      </trkpt>
      <trkpt lat="42.434374" lon="-5.158583">
        <ele>897</ele>
        <time>2018-07-23T07:31:26.990Z</time>
      </trkpt>
      <trkpt lat="42.43439" lon="-5.158719">
        <ele>897</ele>
        <time>2018-07-23T07:31:29.990Z</time>
      </trkpt>
      <trkpt lat="42.434431" lon="-5.158863">
        <ele>897.3299968</ele>
        <time>2018-07-23T07:31:33.000Z</time>
      </trkpt>
      <trkpt lat="42.434466" lon="-5.158986">
        <ele>898</ele>
        <time>2018-07-23T07:31:35.990Z</time>
      </trkpt>
      <trkpt lat="42.434503" lon="-5.159137">
        <ele>899</ele>
        <time>2018-07-23T07:31:39.990Z</time>
      </trkpt>
      <trkpt lat="42.434545" lon="-5.159268">
        <ele>899</ele>
        <time>2018-07-23T07:31:43.000Z</time>
      </trkpt>
      <trkpt lat="42.434585" lon="-5.159411">
        <ele>899</ele>
        <time>2018-07-23T07:31:45.990Z</time>
      </trkpt>
      <trkpt lat="42.434633" lon="-5.159554">
        <ele>899</ele>
        <time>2018-07-23T07:31:48.990Z</time>
      </trkpt>
      <trkpt lat="42.434671" lon="-5.159688">
        <ele>899</ele>
        <time>2018-07-23T07:31:51.990Z</time>
      </trkpt>
      <trkpt lat="42.434718" lon="-5.159844">
        <ele>899</ele>
        <time>2018-07-23T07:31:54.990Z</time>
      </trkpt>
      <trkpt lat="42.434773" lon="-5.159996">
        <ele>899</ele>
        <time>2018-07-23T07:31:58.000Z</time>
      </trkpt>
      <trkpt lat="42.434818" lon="-5.160107">
        <ele>899</ele>
        <time>2018-07-23T07:31:59.990Z</time>
      </trkpt>
      <trkpt lat="42.434851" lon="-5.160222">
        <ele>899</ele>
        <time>2018-07-23T07:32:01.990Z</time>
      </trkpt>
      <trkpt lat="42.434899" lon="-5.16039">
        <ele>900</ele>
        <time>2018-07-23T07:32:04.990Z</time>
      </trkpt>
      <trkpt lat="42.434947" lon="-5.160562">
        <ele>900</ele>
        <time>2018-07-23T07:32:08.000Z</time>
      </trkpt>
      <trkpt lat="42.434995" lon="-5.160728">
        <ele>900</ele>
        <time>2018-07-23T07:32:10.990Z</time>
      </trkpt>
      <trkpt lat="42.435034" lon="-5.160842">
        <ele>901</ele>
        <time>2018-07-23T07:32:13.000Z</time>
      </trkpt>
      <trkpt lat="42.435076" lon="-5.160951">
        <ele>901</ele>
        <time>2018-07-23T07:32:14.990Z</time>
      </trkpt>
      <trkpt lat="42.435125" lon="-5.161058">
        <ele>901</ele>
        <time>2018-07-23T07:32:16.990Z</time>
      </trkpt>
      <trkpt lat="42.43519" lon="-5.161217">
        <ele>901</ele>
        <time>2018-07-23T07:32:19.990Z</time>
      </trkpt>
      <trkpt lat="42.435238" lon="-5.161325">
        <ele>901</ele>
        <time>2018-07-23T07:32:21.990Z</time>
      </trkpt>
      <trkpt lat="42.435297" lon="-5.161424">
        <ele>901</ele>
        <time>2018-07-23T07:32:23.990Z</time>
      </trkpt>
      <trkpt lat="42.435355" lon="-5.161528">
        <ele>901</ele>
        <time>2018-07-23T07:32:25.990Z</time>
      </trkpt>
      <trkpt lat="42.435407" lon="-5.161642">
        <ele>901</ele>
        <time>2018-07-23T07:32:28.000Z</time>
      </trkpt>
      <trkpt lat="42.435461" lon="-5.161752">
        <ele>901</ele>
        <time>2018-07-23T07:32:29.990Z</time>
      </trkpt>
      <trkpt lat="42.435507" lon="-5.161864">
        <ele>901</ele>
        <time>2018-07-23T07:32:31.990Z</time>
      </trkpt>
      <trkpt lat="42.435554" lon="-5.161978">
        <ele>901</ele>
        <time>2018-07-23T07:32:33.990Z</time>
      </trkpt>
      <trkpt lat="42.43559" lon="-5.162092">
        <ele>901.316832686995</ele>
        <time>2018-07-23T07:32:35.990Z</time>
      </trkpt>
      <trkpt lat="42.435629" lon="-5.162259">
        <ele>902</ele>
        <time>2018-07-23T07:32:38.990Z</time>
      </trkpt>
      <trkpt lat="42.435658" lon="-5.162378">
        <ele>902</ele>
        <time>2018-07-23T07:32:40.990Z</time>
      </trkpt>
      <trkpt lat="42.435688" lon="-5.162504">
        <ele>902</ele>
        <time>2018-07-23T07:32:43.000Z</time>
      </trkpt>
      <trkpt lat="42.435729" lon="-5.162678">
        <ele>902</ele>
        <time>2018-07-23T07:32:45.990Z</time>
      </trkpt>
      <trkpt lat="42.435764" lon="-5.162804">
        <ele>902</ele>
        <time>2018-07-23T07:32:48.000Z</time>
      </trkpt>
      <trkpt lat="42.435791" lon="-5.162927">
        <ele>903</ele>
        <time>2018-07-23T07:32:49.990Z</time>
      </trkpt>
      <trkpt lat="42.435821" lon="-5.16305">
        <ele>903</ele>
        <time>2018-07-23T07:32:51.990Z</time>
      </trkpt>
      <trkpt lat="42.435861" lon="-5.16318">
        <ele>903</ele>
        <time>2018-07-23T07:32:53.990Z</time>
      </trkpt>
      <trkpt lat="42.435893" lon="-5.163306">
        <ele>903</ele>
        <time>2018-07-23T07:32:55.990Z</time>
      </trkpt>
      <trkpt lat="42.435927" lon="-5.16344">
        <ele>903</ele>
        <time>2018-07-23T07:32:58.000Z</time>
      </trkpt>
      <trkpt lat="42.435961" lon="-5.163576">
        <ele>902</ele>
        <time>2018-07-23T07:32:59.990Z</time>
      </trkpt>
      <trkpt lat="42.436" lon="-5.163725">
        <ele>901</ele>
        <time>2018-07-23T07:33:01.990Z</time>
      </trkpt>
      <trkpt lat="42.436043" lon="-5.163888">
        <ele>901</ele>
        <time>2018-07-23T07:33:03.990Z</time>
      </trkpt>
      <trkpt lat="42.436091" lon="-5.164051">
        <ele>901</ele>
        <time>2018-07-23T07:33:05.990Z</time>
      </trkpt>
      <trkpt lat="42.436137" lon="-5.164222">
        <ele>901</ele>
        <time>2018-07-23T07:33:08.000Z</time>
      </trkpt>
      <trkpt lat="42.436181" lon="-5.164398">
        <ele>900</ele>
        <time>2018-07-23T07:33:09.990Z</time>
      </trkpt>
      <trkpt lat="42.436219" lon="-5.164577">
        <ele>899</ele>
        <time>2018-07-23T07:33:11.990Z</time>
      </trkpt>
      <trkpt lat="42.436265" lon="-5.164763">
        <ele>899</ele>
        <time>2018-07-23T07:33:13.990Z</time>
      </trkpt>
      <trkpt lat="42.436308" lon="-5.164948">
        <ele>898</ele>
        <time>2018-07-23T07:33:15.990Z</time>
      </trkpt>
      <trkpt lat="42.436351" lon="-5.165134">
        <ele>898</ele>
        <time>2018-07-23T07:33:18.000Z</time>
      </trkpt>
      <trkpt lat="42.436393" lon="-5.165313">
        <ele>897.68</ele>
        <time>2018-07-23T07:33:19.990Z</time>
      </trkpt>
      <trkpt lat="42.436433" lon="-5.165498">
        <ele>897</ele>
        <time>2018-07-23T07:33:21.990Z</time>
      </trkpt>
      <trkpt lat="42.436475" lon="-5.165689">
        <ele>896.68</ele>
        <time>2018-07-23T07:33:23.990Z</time>
      </trkpt>
      <trkpt lat="42.43651" lon="-5.165878">
        <ele>896</ele>
        <time>2018-07-23T07:33:25.990Z</time>
      </trkpt>
      <trkpt lat="42.436547" lon="-5.166067">
        <ele>896</ele>
        <time>2018-07-23T07:33:28.000Z</time>
      </trkpt>
      <trkpt lat="42.436583" lon="-5.166246">
        <ele>896</ele>
        <time>2018-07-23T07:33:29.990Z</time>
      </trkpt>
      <trkpt lat="42.436611" lon="-5.166427">
        <ele>896</ele>
        <time>2018-07-23T07:33:31.990Z</time>
      </trkpt>
      <trkpt lat="42.436637" lon="-5.1666">
        <ele>896</ele>
        <time>2018-07-23T07:33:33.990Z</time>
      </trkpt>
      <trkpt lat="42.43666" lon="-5.166766">
        <ele>896</ele>
        <time>2018-07-23T07:33:35.990Z</time>
      </trkpt>
      <trkpt lat="42.436685" lon="-5.16693">
        <ele>896</ele>
        <time>2018-07-23T07:33:38.000Z</time>
      </trkpt>
      <trkpt lat="42.436705" lon="-5.167079">
        <ele>896</ele>
        <time>2018-07-23T07:33:39.990Z</time>
      </trkpt>
      <trkpt lat="42.436727" lon="-5.167223">
        <ele>896</ele>
        <time>2018-07-23T07:33:41.990Z</time>
      </trkpt>
      <trkpt lat="42.436754" lon="-5.167351">
        <ele>896</ele>
        <time>2018-07-23T07:33:43.990Z</time>
      </trkpt>
      <trkpt lat="42.43678" lon="-5.167472">
        <ele>897</ele>
        <time>2018-07-23T07:33:45.990Z</time>
      </trkpt>
      <trkpt lat="42.436804" lon="-5.167589">
        <ele>898</ele>
        <time>2018-07-23T07:33:48.000Z</time>
      </trkpt>
      <trkpt lat="42.436816" lon="-5.167711">
        <ele>898</ele>
        <time>2018-07-23T07:33:49.990Z</time>
      </trkpt>
      <trkpt lat="42.436826" lon="-5.167835">
        <ele>899</ele>
        <time>2018-07-23T07:33:51.990Z</time>
      </trkpt>
      <trkpt lat="42.436847" lon="-5.168">
        <ele>900</ele>
        <time>2018-07-23T07:33:54.990Z</time>
      </trkpt>
      <trkpt lat="42.436872" lon="-5.168167">
        <ele>900</ele>
        <time>2018-07-23T07:33:58.000Z</time>
      </trkpt>
      <trkpt lat="42.436894" lon="-5.168339">
        <ele>901</ele>
        <time>2018-07-23T07:34:00.990Z</time>
      </trkpt>
      <trkpt lat="42.436916" lon="-5.168501">
        <ele>902</ele>
        <time>2018-07-23T07:34:03.990Z</time>
      </trkpt>
      <trkpt lat="42.436939" lon="-5.168678">
        <ele>902</ele>
        <time>2018-07-23T07:34:06.990Z</time>
      </trkpt>
      <trkpt lat="42.436962" lon="-5.16881">
        <ele>902</ele>
        <time>2018-07-23T07:34:08.990Z</time>
      </trkpt>
      <trkpt lat="42.43698" lon="-5.168932">
        <ele>903</ele>
        <time>2018-07-23T07:34:10.990Z</time>
      </trkpt>
      <trkpt lat="42.43699" lon="-5.169103">
        <ele>903</ele>
        <time>2018-07-23T07:34:13.990Z</time>
      </trkpt>
      <trkpt lat="42.437002" lon="-5.169229">
        <ele>903</ele>
        <time>2018-07-23T07:34:15.990Z</time>
      </trkpt>
      <trkpt lat="42.437016" lon="-5.169367">
        <ele>903</ele>
        <time>2018-07-23T07:34:18.000Z</time>
      </trkpt>
      <trkpt lat="42.437031" lon="-5.169506">
        <ele>902.971419689877</ele>
        <time>2018-07-23T07:34:19.990Z</time>
      </trkpt>
      <trkpt lat="42.437044" lon="-5.169652">
        <ele>902</ele>
        <time>2018-07-23T07:34:21.990Z</time>
      </trkpt>
      <trkpt lat="42.437064" lon="-5.169811">
        <ele>901.68</ele>
        <time>2018-07-23T07:34:23.990Z</time>
      </trkpt>
      <trkpt lat="42.437086" lon="-5.169976">
        <ele>901</ele>
        <time>2018-07-23T07:34:25.990Z</time>
      </trkpt>
      <trkpt lat="42.437105" lon="-5.170147">
        <ele>901</ele>
        <time>2018-07-23T07:34:28.000Z</time>
      </trkpt>
      <trkpt lat="42.437126" lon="-5.17031">
        <ele>900</ele>
        <time>2018-07-23T07:34:29.990Z</time>
      </trkpt>
      <trkpt lat="42.437143" lon="-5.170467">
        <ele>900</ele>
        <time>2018-07-23T07:34:31.990Z</time>
      </trkpt>
      <trkpt lat="42.437168" lon="-5.17061">
        <ele>900</ele>
        <time>2018-07-23T07:34:33.990Z</time>
      </trkpt>
      <trkpt lat="42.437188" lon="-5.170753">
        <ele>900</ele>
        <time>2018-07-23T07:34:35.990Z</time>
      </trkpt>
      <trkpt lat="42.437204" lon="-5.170892">
        <ele>901</ele>
        <time>2018-07-23T07:34:38.000Z</time>
      </trkpt>
      <trkpt lat="42.437225" lon="-5.171024">
        <ele>901</ele>
        <time>2018-07-23T07:34:40.000Z</time>
      </trkpt>
      <trkpt lat="42.437254" lon="-5.171144">
        <ele>901.042861322411</ele>
        <time>2018-07-23T07:34:42.000Z</time>
      </trkpt>
      <trkpt lat="42.43727" lon="-5.171267">
        <ele>902</ele>
        <time>2018-07-23T07:34:44.000Z</time>
      </trkpt>
      <trkpt lat="42.43729" lon="-5.171388">
        <ele>902</ele>
        <time>2018-07-23T07:34:46.000Z</time>
      </trkpt>
      <trkpt lat="42.437302" lon="-5.17151">
        <ele>902.014701176471</ele>
        <time>2018-07-23T07:34:48.000Z</time>
      </trkpt>
      <trkpt lat="42.437314" lon="-5.171632">
        <ele>903</ele>
        <time>2018-07-23T07:34:50.000Z</time>
      </trkpt>
      <trkpt lat="42.437328" lon="-5.171754">
        <ele>903</ele>
        <time>2018-07-23T07:34:52.000Z</time>
      </trkpt>
      <trkpt lat="42.437343" lon="-5.171879">
        <ele>903</ele>
        <time>2018-07-23T07:34:54.000Z</time>
      </trkpt>
      <trkpt lat="42.437361" lon="-5.172002">
        <ele>904</ele>
        <time>2018-07-23T07:34:56.000Z</time>
      </trkpt>
      <trkpt lat="42.437387" lon="-5.172158">
        <ele>904</ele>
        <time>2018-07-23T07:34:59.000Z</time>
      </trkpt>
      <trkpt lat="42.437407" lon="-5.172338">
        <ele>904</ele>
        <time>2018-07-23T07:35:02.000Z</time>
      </trkpt>
      <trkpt lat="42.437419" lon="-5.172465">
        <ele>904</ele>
        <time>2018-07-23T07:35:04.000Z</time>
      </trkpt>
      <trkpt lat="42.437427" lon="-5.172591">
        <ele>904</ele>
        <time>2018-07-23T07:35:05.990Z</time>
      </trkpt>
      <trkpt lat="42.437432" lon="-5.172724">
        <ele>904</ele>
        <time>2018-07-23T07:35:07.990Z</time>
      </trkpt>
      <trkpt lat="42.437449" lon="-5.172863">
        <ele>904</ele>
        <time>2018-07-23T07:35:10.000Z</time>
      </trkpt>
      <trkpt lat="42.43746" lon="-5.173007">
        <ele>904</ele>
        <time>2018-07-23T07:35:11.990Z</time>
      </trkpt>
      <trkpt lat="42.437479" lon="-5.173158">
        <ele>904</ele>
        <time>2018-07-23T07:35:13.990Z</time>
      </trkpt>
      <trkpt lat="42.437501" lon="-5.17331">
        <ele>904</ele>
        <time>2018-07-23T07:35:15.990Z</time>
      </trkpt>
      <trkpt lat="42.43753" lon="-5.173457">
        <ele>904</ele>
        <time>2018-07-23T07:35:17.990Z</time>
      </trkpt>
      <trkpt lat="42.437552" lon="-5.173604">
        <ele>904</ele>
        <time>2018-07-23T07:35:20.000Z</time>
      </trkpt>
      <trkpt lat="42.437573" lon="-5.173748">
        <ele>903</ele>
        <time>2018-07-23T07:35:21.990Z</time>
      </trkpt>
      <trkpt lat="42.437589" lon="-5.173888">
        <ele>903</ele>
        <time>2018-07-23T07:35:23.990Z</time>
      </trkpt>
      <trkpt lat="42.437607" lon="-5.174031">
        <ele>903.32</ele>
        <time>2018-07-23T07:35:25.990Z</time>
      </trkpt>
      <trkpt lat="42.437611" lon="-5.174165">
        <ele>904</ele>
        <time>2018-07-23T07:35:27.990Z</time>
      </trkpt>
      <trkpt lat="42.437606" lon="-5.174296">
        <ele>904</ele>
        <time>2018-07-23T07:35:30.000Z</time>
      </trkpt>
      <trkpt lat="42.437618" lon="-5.174419">
        <ele>905</ele>
        <time>2018-07-23T07:35:31.990Z</time>
      </trkpt>
      <trkpt lat="42.437628" lon="-5.174549">
        <ele>905</ele>
        <time>2018-07-23T07:35:33.990Z</time>
      </trkpt>
      <trkpt lat="42.437645" lon="-5.174672">
        <ele>905</ele>
        <time>2018-07-23T07:35:35.990Z</time>
      </trkpt>
      <trkpt lat="42.437661" lon="-5.174794">
        <ele>905</ele>
        <time>2018-07-23T07:35:37.990Z</time>
      </trkpt>
      <trkpt lat="42.437685" lon="-5.174971">
        <ele>905</ele>
        <time>2018-07-23T07:35:40.990Z</time>
      </trkpt>
      <trkpt lat="42.437707" lon="-5.175141">
        <ele>906</ele>
        <time>2018-07-23T07:35:43.990Z</time>
      </trkpt>
      <trkpt lat="42.437728" lon="-5.175308">
        <ele>907</ele>
        <time>2018-07-23T07:35:46.990Z</time>
      </trkpt>
      <trkpt lat="42.437748" lon="-5.175475">
        <ele>907</ele>
        <time>2018-07-23T07:35:50.000Z</time>
      </trkpt>
      <trkpt lat="42.437773" lon="-5.175636">
        <ele>907.32</ele>
        <time>2018-07-23T07:35:52.990Z</time>
      </trkpt>
      <trkpt lat="42.437801" lon="-5.175805">
        <ele>908</ele>
        <time>2018-07-23T07:35:55.990Z</time>
      </trkpt>
      <trkpt lat="42.437822" lon="-5.175958">
        <ele>908.32</ele>
        <time>2018-07-23T07:35:58.990Z</time>
      </trkpt>
      <trkpt lat="42.43785" lon="-5.176122">
        <ele>909</ele>
        <time>2018-07-23T07:36:01.990Z</time>
      </trkpt>
      <trkpt lat="42.437873" lon="-5.176285">
        <ele>909</ele>
        <time>2018-07-23T07:36:05.000Z</time>
      </trkpt>
      <trkpt lat="42.437899" lon="-5.176445">
        <ele>910</ele>
        <time>2018-07-23T07:36:07.990Z</time>
      </trkpt>
      <trkpt lat="42.437923" lon="-5.176618">
        <ele>911</ele>
        <time>2018-07-23T07:36:10.990Z</time>
      </trkpt>
      <trkpt lat="42.437934" lon="-5.176785">
        <ele>911</ele>
        <time>2018-07-23T07:36:13.990Z</time>
      </trkpt>
      <trkpt lat="42.437949" lon="-5.176927">
        <ele>912</ele>
        <time>2018-07-23T07:36:16.990Z</time>
      </trkpt>
      <trkpt lat="42.437962" lon="-5.177107">
        <ele>912</ele>
        <time>2018-07-23T07:36:20.000Z</time>
      </trkpt>
      <trkpt lat="42.437968" lon="-5.177269">
        <ele>912</ele>
        <time>2018-07-23T07:36:22.990Z</time>
      </trkpt>
      <trkpt lat="42.437959" lon="-5.177424">
        <ele>912</ele>
        <time>2018-07-23T07:36:25.990Z</time>
      </trkpt>
      <trkpt lat="42.437959" lon="-5.177571">
        <ele>912</ele>
        <time>2018-07-23T07:36:28.990Z</time>
      </trkpt>
      <trkpt lat="42.437968" lon="-5.177733">
        <ele>912</ele>
        <time>2018-07-23T07:36:31.990Z</time>
      </trkpt>
      <trkpt lat="42.437979" lon="-5.177916">
        <ele>912</ele>
        <time>2018-07-23T07:36:35.000Z</time>
      </trkpt>
      <trkpt lat="42.437981" lon="-5.178096">
        <ele>912</ele>
        <time>2018-07-23T07:36:37.990Z</time>
      </trkpt>
      <trkpt lat="42.437989" lon="-5.178233">
        <ele>912</ele>
        <time>2018-07-23T07:36:40.000Z</time>
      </trkpt>
      <trkpt lat="42.438003" lon="-5.17836">
        <ele>912</ele>
        <time>2018-07-23T07:36:41.990Z</time>
      </trkpt>
      <trkpt lat="42.438011" lon="-5.17849">
        <ele>912</ele>
        <time>2018-07-23T07:36:43.990Z</time>
      </trkpt>
      <trkpt lat="42.438018" lon="-5.178616">
        <ele>912</ele>
        <time>2018-07-23T07:36:45.990Z</time>
      </trkpt>
      <trkpt lat="42.438026" lon="-5.178743">
        <ele>912</ele>
        <time>2018-07-23T07:36:47.990Z</time>
      </trkpt>
      <trkpt lat="42.438028" lon="-5.178876">
        <ele>912</ele>
        <time>2018-07-23T07:36:50.000Z</time>
      </trkpt>
      <trkpt lat="42.43803" lon="-5.179015">
        <ele>911</ele>
        <time>2018-07-23T07:36:51.990Z</time>
      </trkpt>
      <trkpt lat="42.438031" lon="-5.179143">
        <ele>911</ele>
        <time>2018-07-23T07:36:53.990Z</time>
      </trkpt>
      <trkpt lat="42.438036" lon="-5.179287">
        <ele>911</ele>
        <time>2018-07-23T07:36:55.990Z</time>
      </trkpt>
      <trkpt lat="42.438043" lon="-5.179438">
        <ele>911</ele>
        <time>2018-07-23T07:36:57.990Z</time>
      </trkpt>
      <trkpt lat="42.438053" lon="-5.179604">
        <ele>911</ele>
        <time>2018-07-23T07:37:00.000Z</time>
      </trkpt>
      <trkpt lat="42.438066" lon="-5.179761">
        <ele>911</ele>
        <time>2018-07-23T07:37:01.990Z</time>
      </trkpt>
      <trkpt lat="42.438077" lon="-5.179918">
        <ele>911</ele>
        <time>2018-07-23T07:37:03.990Z</time>
      </trkpt>
      <trkpt lat="42.438084" lon="-5.180068">
        <ele>911</ele>
        <time>2018-07-23T07:37:05.990Z</time>
      </trkpt>
      <trkpt lat="42.438097" lon="-5.180216">
        <ele>911</ele>
        <time>2018-07-23T07:37:07.990Z</time>
      </trkpt>
      <trkpt lat="42.438107" lon="-5.180381">
        <ele>911</ele>
        <time>2018-07-23T07:37:10.000Z</time>
      </trkpt>
      <trkpt lat="42.438116" lon="-5.180547">
        <ele>911</ele>
        <time>2018-07-23T07:37:11.990Z</time>
      </trkpt>
      <trkpt lat="42.438119" lon="-5.180715">
        <ele>911</ele>
        <time>2018-07-23T07:37:13.990Z</time>
      </trkpt>
      <trkpt lat="42.438118" lon="-5.180892">
        <ele>910.007516409062</ele>
        <time>2018-07-23T07:37:15.990Z</time>
      </trkpt>
      <trkpt lat="42.438125" lon="-5.181075">
        <ele>910</ele>
        <time>2018-07-23T07:37:17.990Z</time>
      </trkpt>
      <trkpt lat="42.43813" lon="-5.18126">
        <ele>909.6700032</ele>
        <time>2018-07-23T07:37:20.000Z</time>
      </trkpt>
      <trkpt lat="42.438142" lon="-5.181442">
        <ele>909</ele>
        <time>2018-07-23T07:37:21.990Z</time>
      </trkpt>
      <trkpt lat="42.438153" lon="-5.181628">
        <ele>909</ele>
        <time>2018-07-23T07:37:23.990Z</time>
      </trkpt>
      <trkpt lat="42.438165" lon="-5.181826">
        <ele>909</ele>
        <time>2018-07-23T07:37:25.990Z</time>
      </trkpt>
      <trkpt lat="42.438167" lon="-5.182029">
        <ele>908</ele>
        <time>2018-07-23T07:37:27.990Z</time>
      </trkpt>
      <trkpt lat="42.438182" lon="-5.182231">
        <ele>908</ele>
        <time>2018-07-23T07:37:30.000Z</time>
      </trkpt>
      <trkpt lat="42.438192" lon="-5.182423">
        <ele>908</ele>
        <time>2018-07-23T07:37:31.990Z</time>
      </trkpt>
      <trkpt lat="42.438205" lon="-5.182611">
        <ele>908</ele>
        <time>2018-07-23T07:37:33.990Z</time>
      </trkpt>
      <trkpt lat="42.43822" lon="-5.182796">
        <ele>907.68</ele>
        <time>2018-07-23T07:37:35.990Z</time>
      </trkpt>
      <trkpt lat="42.438235" lon="-5.182993">
        <ele>907</ele>
        <time>2018-07-23T07:37:37.990Z</time>
      </trkpt>
      <trkpt lat="42.438251" lon="-5.183181">
        <ele>907</ele>
        <time>2018-07-23T07:37:40.000Z</time>
      </trkpt>
      <trkpt lat="42.438271" lon="-5.183363">
        <ele>907</ele>
        <time>2018-07-23T07:37:41.990Z</time>
      </trkpt>
      <trkpt lat="42.43828" lon="-5.183552">
        <ele>907</ele>
        <time>2018-07-23T07:37:43.990Z</time>
      </trkpt>
      <trkpt lat="42.438297" lon="-5.183751">
        <ele>907</ele>
        <time>2018-07-23T07:37:45.990Z</time>
      </trkpt>
      <trkpt lat="42.438315" lon="-5.183947">
        <ele>906.68</ele>
        <time>2018-07-23T07:37:47.990Z</time>
      </trkpt>
      <trkpt lat="42.438327" lon="-5.184157">
        <ele>905.6700032</ele>
        <time>2018-07-23T07:37:50.000Z</time>
      </trkpt>
      <trkpt lat="42.438338" lon="-5.184365">
        <ele>905</ele>
        <time>2018-07-23T07:37:51.990Z</time>
      </trkpt>
      <trkpt lat="42.438347" lon="-5.184585">
        <ele>904.68</ele>
        <time>2018-07-23T07:37:53.990Z</time>
      </trkpt>
      <trkpt lat="42.438354" lon="-5.184797">
        <ele>904</ele>
        <time>2018-07-23T07:37:55.990Z</time>
      </trkpt>
      <trkpt lat="42.438371" lon="-5.18501">
        <ele>904</ele>
        <time>2018-07-23T07:37:57.990Z</time>
      </trkpt>
      <trkpt lat="42.438387" lon="-5.185225">
        <ele>904</ele>
        <time>2018-07-23T07:38:00.000Z</time>
      </trkpt>
      <trkpt lat="42.438397" lon="-5.185441">
        <ele>904</ele>
        <time>2018-07-23T07:38:01.990Z</time>
      </trkpt>
      <trkpt lat="42.438412" lon="-5.185648">
        <ele>904</ele>
        <time>2018-07-23T07:38:03.990Z</time>
      </trkpt>
      <trkpt lat="42.438423" lon="-5.185845">
        <ele>903.68</ele>
        <time>2018-07-23T07:38:05.990Z</time>
      </trkpt>
      <trkpt lat="42.438427" lon="-5.186038">
        <ele>903</ele>
        <time>2018-07-23T07:38:07.990Z</time>
      </trkpt>
      <trkpt lat="42.438443" lon="-5.186229">
        <ele>903.010097875697</ele>
        <time>2018-07-23T07:38:10.000Z</time>
      </trkpt>
      <trkpt lat="42.438456" lon="-5.186412">
        <ele>904</ele>
        <time>2018-07-23T07:38:11.990Z</time>
      </trkpt>
      <trkpt lat="42.43847" lon="-5.18659">
        <ele>904</ele>
        <time>2018-07-23T07:38:13.990Z</time>
      </trkpt>
      <trkpt lat="42.438488" lon="-5.186765">
        <ele>904</ele>
        <time>2018-07-23T07:38:15.990Z</time>
      </trkpt>
      <trkpt lat="42.438499" lon="-5.186944">
        <ele>904</ele>
        <time>2018-07-23T07:38:17.990Z</time>
      </trkpt>
      <trkpt lat="42.438516" lon="-5.187118">
        <ele>905</ele>
        <time>2018-07-23T07:38:20.000Z</time>
      </trkpt>
      <trkpt lat="42.438527" lon="-5.187295">
        <ele>905</ele>
        <time>2018-07-23T07:38:21.990Z</time>
      </trkpt>
      <trkpt lat="42.438541" lon="-5.187472">
        <ele>905</ele>
        <time>2018-07-23T07:38:23.990Z</time>
      </trkpt>
      <trkpt lat="42.438555" lon="-5.187651">
        <ele>905</ele>
        <time>2018-07-23T07:38:25.990Z</time>
      </trkpt>
      <trkpt lat="42.438565" lon="-5.187824">
        <ele>905</ele>
        <time>2018-07-23T07:38:27.990Z</time>
      </trkpt>
      <trkpt lat="42.438579" lon="-5.187992">
        <ele>905</ele>
        <time>2018-07-23T07:38:30.000Z</time>
      </trkpt>
      <trkpt lat="42.438586" lon="-5.188171">
        <ele>905</ele>
        <time>2018-07-23T07:38:32.020Z</time>
      </trkpt>
      <trkpt lat="42.43859" lon="-5.188344">
        <ele>905</ele>
        <time>2018-07-23T07:38:33.990Z</time>
      </trkpt>
      <trkpt lat="42.438599" lon="-5.188514">
        <ele>905</ele>
        <time>2018-07-23T07:38:35.990Z</time>
      </trkpt>
      <trkpt lat="42.438606" lon="-5.188686">
        <ele>906</ele>
        <time>2018-07-23T07:38:37.990Z</time>
      </trkpt>
      <trkpt lat="42.438622" lon="-5.188859">
        <ele>906</ele>
        <time>2018-07-23T07:38:40.000Z</time>
      </trkpt>
      <trkpt lat="42.438632" lon="-5.189033">
        <ele>906</ele>
        <time>2018-07-23T07:38:41.990Z</time>
      </trkpt>
      <trkpt lat="42.438644" lon="-5.189202">
        <ele>906</ele>
        <time>2018-07-23T07:38:43.990Z</time>
      </trkpt>
      <trkpt lat="42.438657" lon="-5.189367">
        <ele>906</ele>
        <time>2018-07-23T07:38:45.990Z</time>
      </trkpt>
      <trkpt lat="42.438672" lon="-5.18953">
        <ele>906</ele>
        <time>2018-07-23T07:38:47.990Z</time>
      </trkpt>
      <trkpt lat="42.438677" lon="-5.189701">
        <ele>906</ele>
        <time>2018-07-23T07:38:50.000Z</time>
      </trkpt>
      <trkpt lat="42.438681" lon="-5.189862">
        <ele>906</ele>
        <time>2018-07-23T07:38:51.990Z</time>
      </trkpt>
      <trkpt lat="42.438695" lon="-5.190036">
        <ele>906</ele>
        <time>2018-07-23T07:38:53.990Z</time>
      </trkpt>
      <trkpt lat="42.438713" lon="-5.190218">
        <ele>906</ele>
        <time>2018-07-23T07:38:55.990Z</time>
      </trkpt>
      <trkpt lat="42.438729" lon="-5.190399">
        <ele>906</ele>
        <time>2018-07-23T07:38:57.990Z</time>
      </trkpt>
      <trkpt lat="42.438744" lon="-5.190584">
        <ele>905.6700032</ele>
        <time>2018-07-23T07:39:00.000Z</time>
      </trkpt>
      <trkpt lat="42.438761" lon="-5.190767">
        <ele>905</ele>
        <time>2018-07-23T07:39:01.990Z</time>
      </trkpt>
      <trkpt lat="42.43878" lon="-5.19095">
        <ele>904</ele>
        <time>2018-07-23T07:39:03.990Z</time>
      </trkpt>
      <trkpt lat="42.4388" lon="-5.19113">
        <ele>904</ele>
        <time>2018-07-23T07:39:05.990Z</time>
      </trkpt>
      <trkpt lat="42.438822" lon="-5.191313">
        <ele>904</ele>
        <time>2018-07-23T07:39:07.990Z</time>
      </trkpt>
      <trkpt lat="42.438841" lon="-5.191495">
        <ele>904</ele>
        <time>2018-07-23T07:39:10.000Z</time>
      </trkpt>
      <trkpt lat="42.438855" lon="-5.191678">
        <ele>904</ele>
        <time>2018-07-23T07:39:11.990Z</time>
      </trkpt>
      <trkpt lat="42.438875" lon="-5.191863">
        <ele>903</ele>
        <time>2018-07-23T07:39:13.990Z</time>
      </trkpt>
      <trkpt lat="42.438892" lon="-5.192045">
        <ele>903</ele>
        <time>2018-07-23T07:39:15.990Z</time>
      </trkpt>
      <trkpt lat="42.43891" lon="-5.192228">
        <ele>902.683167313005</ele>
        <time>2018-07-23T07:39:17.990Z</time>
      </trkpt>
      <trkpt lat="42.438927" lon="-5.192416">
        <ele>902.014701176471</ele>
        <time>2018-07-23T07:39:20.000Z</time>
      </trkpt>
      <trkpt lat="42.438946" lon="-5.192591">
        <ele>903</ele>
        <time>2018-07-23T07:39:21.990Z</time>
      </trkpt>
      <trkpt lat="42.438968" lon="-5.192767">
        <ele>903</ele>
        <time>2018-07-23T07:39:23.990Z</time>
      </trkpt>
      <trkpt lat="42.438985" lon="-5.192941">
        <ele>902.753844942006</ele>
        <time>2018-07-23T07:39:25.990Z</time>
      </trkpt>
      <trkpt lat="42.438996" lon="-5.193114">
        <ele>902</ele>
        <time>2018-07-23T07:39:27.990Z</time>
      </trkpt>
      <trkpt lat="42.439011" lon="-5.193296">
        <ele>902</ele>
        <time>2018-07-23T07:39:30.000Z</time>
      </trkpt>
      <trkpt lat="42.439027" lon="-5.193474">
        <ele>902</ele>
        <time>2018-07-23T07:39:31.990Z</time>
      </trkpt>
      <trkpt lat="42.439048" lon="-5.193647">
        <ele>902</ele>
        <time>2018-07-23T07:39:33.990Z</time>
      </trkpt>
      <trkpt lat="42.439071" lon="-5.193812">
        <ele>903</ele>
        <time>2018-07-23T07:39:35.990Z</time>
      </trkpt>
      <trkpt lat="42.439093" lon="-5.193976">
        <ele>903</ele>
        <time>2018-07-23T07:39:37.990Z</time>
      </trkpt>
      <trkpt lat="42.439111" lon="-5.194134">
        <ele>903</ele>
        <time>2018-07-23T07:39:40.000Z</time>
      </trkpt>
      <trkpt lat="42.439128" lon="-5.194291">
        <ele>903</ele>
        <time>2018-07-23T07:39:41.990Z</time>
      </trkpt>
      <trkpt lat="42.439149" lon="-5.194445">
        <ele>903</ele>
        <time>2018-07-23T07:39:43.990Z</time>
      </trkpt>
      <trkpt lat="42.439164" lon="-5.19459">
        <ele>903</ele>
        <time>2018-07-23T07:39:45.990Z</time>
      </trkpt>
      <trkpt lat="42.439177" lon="-5.194721">
        <ele>903</ele>
        <time>2018-07-23T07:39:47.990Z</time>
      </trkpt>
      <trkpt lat="42.439193" lon="-5.194863">
        <ele>903</ele>
        <time>2018-07-23T07:39:50.000Z</time>
      </trkpt>
      <trkpt lat="42.439208" lon="-5.195011">
        <ele>903</ele>
        <time>2018-07-23T07:39:51.990Z</time>
      </trkpt>
      <trkpt lat="42.439223" lon="-5.195166">
        <ele>903</ele>
        <time>2018-07-23T07:39:53.990Z</time>
      </trkpt>
      <trkpt lat="42.439248" lon="-5.195342">
        <ele>902</ele>
        <time>2018-07-23T07:39:55.990Z</time>
      </trkpt>
      <trkpt lat="42.439273" lon="-5.195511">
        <ele>902</ele>
        <time>2018-07-23T07:39:57.990Z</time>
      </trkpt>
      <trkpt lat="42.439296" lon="-5.195685">
        <ele>902</ele>
        <time>2018-07-23T07:40:00.000Z</time>
      </trkpt>
      <trkpt lat="42.439326" lon="-5.195855">
        <ele>901</ele>
        <time>2018-07-23T07:40:01.990Z</time>
      </trkpt>
      <trkpt lat="42.43935" lon="-5.196025">
        <ele>901</ele>
        <time>2018-07-23T07:40:03.990Z</time>
      </trkpt>
      <trkpt lat="42.439373" lon="-5.196196">
        <ele>901</ele>
        <time>2018-07-23T07:40:05.990Z</time>
      </trkpt>
      <trkpt lat="42.4394" lon="-5.196367">
        <ele>901</ele>
        <time>2018-07-23T07:40:07.990Z</time>
      </trkpt>
      <trkpt lat="42.43942" lon="-5.196545">
        <ele>900</ele>
        <time>2018-07-23T07:40:10.000Z</time>
      </trkpt>
      <trkpt lat="42.439448" lon="-5.196706">
        <ele>900</ele>
        <time>2018-07-23T07:40:11.990Z</time>
      </trkpt>
      <trkpt lat="42.439472" lon="-5.196855">
        <ele>900</ele>
        <time>2018-07-23T07:40:13.990Z</time>
      </trkpt>
      <trkpt lat="42.439498" lon="-5.196993">
        <ele>900</ele>
        <time>2018-07-23T07:40:15.990Z</time>
      </trkpt>
      <trkpt lat="42.439534" lon="-5.197128">
        <ele>900</ele>
        <time>2018-07-23T07:40:17.990Z</time>
      </trkpt>
      <trkpt lat="42.439558" lon="-5.197259">
        <ele>900</ele>
        <time>2018-07-23T07:40:20.000Z</time>
      </trkpt>
      <trkpt lat="42.439578" lon="-5.197405">
        <ele>900</ele>
        <time>2018-07-23T07:40:21.990Z</time>
      </trkpt>
      <trkpt lat="42.439608" lon="-5.197559">
        <ele>900</ele>
        <time>2018-07-23T07:40:23.990Z</time>
      </trkpt>
      <trkpt lat="42.439636" lon="-5.197715">
        <ele>900</ele>
        <time>2018-07-23T07:40:25.990Z</time>
      </trkpt>
      <trkpt lat="42.439662" lon="-5.197867">
        <ele>900</ele>
        <time>2018-07-23T07:40:27.990Z</time>
      </trkpt>
      <trkpt lat="42.439696" lon="-5.198015">
        <ele>899.6700032</ele>
        <time>2018-07-23T07:40:30.000Z</time>
      </trkpt>
      <trkpt lat="42.439722" lon="-5.198169">
        <ele>899</ele>
        <time>2018-07-23T07:40:31.990Z</time>
      </trkpt>
      <trkpt lat="42.439746" lon="-5.19832">
        <ele>899</ele>
        <time>2018-07-23T07:40:33.990Z</time>
      </trkpt>
      <trkpt lat="42.439768" lon="-5.198481">
        <ele>899</ele>
        <time>2018-07-23T07:40:35.990Z</time>
      </trkpt>
      <trkpt lat="42.439782" lon="-5.198645">
        <ele>899</ele>
        <time>2018-07-23T07:40:37.990Z</time>
      </trkpt>
      <trkpt lat="42.439812" lon="-5.198812">
        <ele>898.6700032</ele>
        <time>2018-07-23T07:40:40.000Z</time>
      </trkpt>
      <trkpt lat="42.439836" lon="-5.198974">
        <ele>898</ele>
        <time>2018-07-23T07:40:41.990Z</time>
      </trkpt>
      <trkpt lat="42.439866" lon="-5.199149">
        <ele>898</ele>
        <time>2018-07-23T07:40:43.990Z</time>
      </trkpt>
      <trkpt lat="42.43989" lon="-5.199323">
        <ele>898</ele>
        <time>2018-07-23T07:40:45.990Z</time>
      </trkpt>
      <trkpt lat="42.439914" lon="-5.199492">
        <ele>898</ele>
        <time>2018-07-23T07:40:47.990Z</time>
      </trkpt>
      <trkpt lat="42.439936" lon="-5.199662">
        <ele>898</ele>
        <time>2018-07-23T07:40:50.000Z</time>
      </trkpt>
      <trkpt lat="42.439958" lon="-5.199832">
        <ele>897</ele>
        <time>2018-07-23T07:40:51.990Z</time>
      </trkpt>
      <trkpt lat="42.439982" lon="-5.200007">
        <ele>897.32</ele>
        <time>2018-07-23T07:40:53.990Z</time>
      </trkpt>
      <trkpt lat="42.440004" lon="-5.200181">
        <ele>898</ele>
        <time>2018-07-23T07:40:55.990Z</time>
      </trkpt>
      <trkpt lat="42.440036" lon="-5.200354">
        <ele>898</ele>
        <time>2018-07-23T07:40:57.990Z</time>
      </trkpt>
      <trkpt lat="42.44006" lon="-5.200529">
        <ele>898</ele>
        <time>2018-07-23T07:41:00.000Z</time>
      </trkpt>
      <trkpt lat="42.440086" lon="-5.200703">
        <ele>897</ele>
        <time>2018-07-23T07:41:01.990Z</time>
      </trkpt>
      <trkpt lat="42.440107" lon="-5.200869">
        <ele>897</ele>
        <time>2018-07-23T07:41:03.990Z</time>
      </trkpt>
      <trkpt lat="42.440127" lon="-5.20104">
        <ele>897.992483590938</ele>
        <time>2018-07-23T07:41:05.990Z</time>
      </trkpt>
      <trkpt lat="42.440149" lon="-5.201193">
        <ele>898</ele>
        <time>2018-07-23T07:41:07.990Z</time>
      </trkpt>
      <trkpt lat="42.440179" lon="-5.201342">
        <ele>898</ele>
        <time>2018-07-23T07:41:10.000Z</time>
      </trkpt>
      <trkpt lat="42.44021" lon="-5.201488">
        <ele>898</ele>
        <time>2018-07-23T07:41:11.990Z</time>
      </trkpt>
      <trkpt lat="42.440236" lon="-5.201628">
        <ele>898</ele>
        <time>2018-07-23T07:41:13.990Z</time>
      </trkpt>
      <trkpt lat="42.44026" lon="-5.201769">
        <ele>899</ele>
        <time>2018-07-23T07:41:15.990Z</time>
      </trkpt>
      <trkpt lat="42.440285" lon="-5.201905">
        <ele>899</ele>
        <time>2018-07-23T07:41:17.990Z</time>
      </trkpt>
      <trkpt lat="42.440312" lon="-5.202053">
        <ele>899</ele>
        <time>2018-07-23T07:41:20.000Z</time>
      </trkpt>
      <trkpt lat="42.440333" lon="-5.202196">
        <ele>899</ele>
        <time>2018-07-23T07:41:21.990Z</time>
      </trkpt>
      <trkpt lat="42.440349" lon="-5.202347">
        <ele>899</ele>
        <time>2018-07-23T07:41:23.990Z</time>
      </trkpt>
      <trkpt lat="42.440367" lon="-5.202496">
        <ele>899</ele>
        <time>2018-07-23T07:41:25.990Z</time>
      </trkpt>
      <trkpt lat="42.440388" lon="-5.202639">
        <ele>899</ele>
        <time>2018-07-23T07:41:27.990Z</time>
      </trkpt>
      <trkpt lat="42.44042" lon="-5.202786">
        <ele>899</ele>
        <time>2018-07-23T07:41:30.000Z</time>
      </trkpt>
      <trkpt lat="42.440446" lon="-5.202932">
        <ele>899</ele>
        <time>2018-07-23T07:41:31.990Z</time>
      </trkpt>
      <trkpt lat="42.440473" lon="-5.203083">
        <ele>899</ele>
        <time>2018-07-23T07:41:33.990Z</time>
      </trkpt>
      <trkpt lat="42.440492" lon="-5.20324">
        <ele>899</ele>
        <time>2018-07-23T07:41:35.990Z</time>
      </trkpt>
      <trkpt lat="42.440513" lon="-5.203389">
        <ele>899</ele>
        <time>2018-07-23T07:41:37.990Z</time>
      </trkpt>
      <trkpt lat="42.440549" lon="-5.203549">
        <ele>899</ele>
        <time>2018-07-23T07:41:40.000Z</time>
      </trkpt>
      <trkpt lat="42.440589" lon="-5.203703">
        <ele>899</ele>
        <time>2018-07-23T07:41:41.990Z</time>
      </trkpt>
      <trkpt lat="42.440626" lon="-5.203866">
        <ele>898</ele>
        <time>2018-07-23T07:41:43.990Z</time>
      </trkpt>
      <trkpt lat="42.440655" lon="-5.204021">
        <ele>898</ele>
        <time>2018-07-23T07:41:45.990Z</time>
      </trkpt>
      <trkpt lat="42.440688" lon="-5.204177">
        <ele>898</ele>
        <time>2018-07-23T07:41:47.990Z</time>
      </trkpt>
      <trkpt lat="42.440731" lon="-5.204336">
        <ele>897.985298823529</ele>
        <time>2018-07-23T07:41:50.000Z</time>
      </trkpt>
      <trkpt lat="42.440774" lon="-5.204484">
        <ele>897</ele>
        <time>2018-07-23T07:41:51.990Z</time>
      </trkpt>
      <trkpt lat="42.44081" lon="-5.204636">
        <ele>897</ele>
        <time>2018-07-23T07:41:53.990Z</time>
      </trkpt>
      <trkpt lat="42.440838" lon="-5.204777">
        <ele>897</ele>
        <time>2018-07-23T07:41:55.990Z</time>
      </trkpt>
      <trkpt lat="42.440871" lon="-5.204919">
        <ele>897</ele>
        <time>2018-07-23T07:41:57.990Z</time>
      </trkpt>
      <trkpt lat="42.440913" lon="-5.205079">
        <ele>897</ele>
        <time>2018-07-23T07:42:00.000Z</time>
      </trkpt>
      <trkpt lat="42.440955" lon="-5.205243">
        <ele>897</ele>
        <time>2018-07-23T07:42:01.990Z</time>
      </trkpt>
      <trkpt lat="42.440989" lon="-5.205411">
        <ele>897</ele>
        <time>2018-07-23T07:42:03.990Z</time>
      </trkpt>
      <trkpt lat="42.441029" lon="-5.205578">
        <ele>896</ele>
        <time>2018-07-23T07:42:05.990Z</time>
      </trkpt>
      <trkpt lat="42.441072" lon="-5.205733">
        <ele>896</ele>
        <time>2018-07-23T07:42:07.990Z</time>
      </trkpt>
      <trkpt lat="42.441111" lon="-5.205893">
        <ele>896</ele>
        <time>2018-07-23T07:42:10.000Z</time>
      </trkpt>
      <trkpt lat="42.441146" lon="-5.206035">
        <ele>896</ele>
        <time>2018-07-23T07:42:11.990Z</time>
      </trkpt>
      <trkpt lat="42.441181" lon="-5.206183">
        <ele>896</ele>
        <time>2018-07-23T07:42:13.990Z</time>
      </trkpt>
      <trkpt lat="42.441214" lon="-5.206335">
        <ele>896</ele>
        <time>2018-07-23T07:42:15.990Z</time>
      </trkpt>
      <trkpt lat="42.441249" lon="-5.206483">
        <ele>895.971419689877</ele>
        <time>2018-07-23T07:42:17.990Z</time>
      </trkpt>
      <trkpt lat="42.441287" lon="-5.206637">
        <ele>895</ele>
        <time>2018-07-23T07:42:20.000Z</time>
      </trkpt>
      <trkpt lat="42.441327" lon="-5.206789">
        <ele>895</ele>
        <time>2018-07-23T07:42:21.990Z</time>
      </trkpt>
      <trkpt lat="42.441364" lon="-5.206942">
        <ele>895</ele>
        <time>2018-07-23T07:42:23.990Z</time>
      </trkpt>
      <trkpt lat="42.441398" lon="-5.207099">
        <ele>894.68</ele>
        <time>2018-07-23T07:42:25.990Z</time>
      </trkpt>
      <trkpt lat="42.441442" lon="-5.207253">
        <ele>894</ele>
        <time>2018-07-23T07:42:27.990Z</time>
      </trkpt>
      <trkpt lat="42.441479" lon="-5.207416">
        <ele>893.985298823529</ele>
        <time>2018-07-23T07:42:30.000Z</time>
      </trkpt>
      <trkpt lat="42.441521" lon="-5.207585">
        <ele>892.68</ele>
        <time>2018-07-23T07:42:31.990Z</time>
      </trkpt>
      <trkpt lat="42.441564" lon="-5.207758">
        <ele>892</ele>
        <time>2018-07-23T07:42:33.990Z</time>
      </trkpt>
      <trkpt lat="42.441602" lon="-5.207929">
        <ele>892</ele>
        <time>2018-07-23T07:42:35.990Z</time>
      </trkpt>
      <trkpt lat="42.441638" lon="-5.208097">
        <ele>892</ele>
        <time>2018-07-23T07:42:37.990Z</time>
      </trkpt>
      <trkpt lat="42.441678" lon="-5.208266">
        <ele>892</ele>
        <time>2018-07-23T07:42:40.000Z</time>
      </trkpt>
      <trkpt lat="42.44172" lon="-5.208435">
        <ele>892</ele>
        <time>2018-07-23T07:42:41.990Z</time>
      </trkpt>
      <trkpt lat="42.44176" lon="-5.208597">
        <ele>892</ele>
        <time>2018-07-23T07:42:43.990Z</time>
      </trkpt>
      <trkpt lat="42.4418" lon="-5.208759">
        <ele>892</ele>
        <time>2018-07-23T07:42:45.990Z</time>
      </trkpt>
      <trkpt lat="42.44184" lon="-5.208915">
        <ele>892</ele>
        <time>2018-07-23T07:42:47.990Z</time>
      </trkpt>
      <trkpt lat="42.441882" lon="-5.20908">
        <ele>891</ele>
        <time>2018-07-23T07:42:50.000Z</time>
      </trkpt>
      <trkpt lat="42.441926" lon="-5.209243">
        <ele>891</ele>
        <time>2018-07-23T07:42:51.990Z</time>
      </trkpt>
      <trkpt lat="42.44197" lon="-5.209399">
        <ele>891</ele>
        <time>2018-07-23T07:42:53.990Z</time>
      </trkpt>
      <trkpt lat="42.441994" lon="-5.209534">
        <ele>891</ele>
        <time>2018-07-23T07:42:55.990Z</time>
      </trkpt>
      <trkpt lat="42.442061" lon="-5.209705">
        <ele>891</ele>
        <time>2018-07-23T07:42:58.990Z</time>
      </trkpt>
      <trkpt lat="42.442099" lon="-5.209853">
        <ele>891</ele>
        <time>2018-07-23T07:43:00.990Z</time>
      </trkpt>
      <trkpt lat="42.442125" lon="-5.210009">
        <ele>891</ele>
        <time>2018-07-23T07:43:02.990Z</time>
      </trkpt>
      <trkpt lat="42.442153" lon="-5.210162">
        <ele>891</ele>
        <time>2018-07-23T07:43:05.000Z</time>
      </trkpt>
      <trkpt lat="42.442186" lon="-5.210309">
        <ele>891</ele>
        <time>2018-07-23T07:43:06.990Z</time>
      </trkpt>
      <trkpt lat="42.442213" lon="-5.210473">
        <ele>891</ele>
        <time>2018-07-23T07:43:08.990Z</time>
      </trkpt>
      <trkpt lat="42.442238" lon="-5.210639">
        <ele>891</ele>
        <time>2018-07-23T07:43:10.990Z</time>
      </trkpt>
      <trkpt lat="42.442265" lon="-5.210804">
        <ele>891</ele>
        <time>2018-07-23T07:43:12.990Z</time>
      </trkpt>
      <trkpt lat="42.442297" lon="-5.21098">
        <ele>890.957138677589</ele>
        <time>2018-07-23T07:43:15.000Z</time>
      </trkpt>
      <trkpt lat="42.442325" lon="-5.211152">
        <ele>890</ele>
        <time>2018-07-23T07:43:16.990Z</time>
      </trkpt>
      <trkpt lat="42.442353" lon="-5.211333">
        <ele>890</ele>
        <time>2018-07-23T07:43:18.990Z</time>
      </trkpt>
      <trkpt lat="42.442377" lon="-5.21151">
        <ele>890</ele>
        <time>2018-07-23T07:43:20.990Z</time>
      </trkpt>
      <trkpt lat="42.442402" lon="-5.211687">
        <ele>890</ele>
        <time>2018-07-23T07:43:22.990Z</time>
      </trkpt>
      <trkpt lat="42.442429" lon="-5.211863">
        <ele>890</ele>
        <time>2018-07-23T07:43:25.000Z</time>
      </trkpt>
      <trkpt lat="42.442463" lon="-5.212034">
        <ele>890</ele>
        <time>2018-07-23T07:43:26.990Z</time>
      </trkpt>
      <trkpt lat="42.442496" lon="-5.212205">
        <ele>890</ele>
        <time>2018-07-23T07:43:28.990Z</time>
      </trkpt>
      <trkpt lat="42.442525" lon="-5.212375">
        <ele>890</ele>
        <time>2018-07-23T07:43:30.990Z</time>
      </trkpt>
      <trkpt lat="42.442558" lon="-5.212544">
        <ele>890</ele>
        <time>2018-07-23T07:43:32.990Z</time>
      </trkpt>
      <trkpt lat="42.442592" lon="-5.212722">
        <ele>890</ele>
        <time>2018-07-23T07:43:35.000Z</time>
      </trkpt>
      <trkpt lat="42.44263" lon="-5.212895">
        <ele>890</ele>
        <time>2018-07-23T07:43:36.990Z</time>
      </trkpt>
      <trkpt lat="42.442667" lon="-5.213069">
        <ele>890</ele>
        <time>2018-07-23T07:43:38.990Z</time>
      </trkpt>
      <trkpt lat="42.442701" lon="-5.213246">
        <ele>890</ele>
        <time>2018-07-23T07:43:40.990Z</time>
      </trkpt>
      <trkpt lat="42.442739" lon="-5.213421">
        <ele>890</ele>
        <time>2018-07-23T07:43:42.990Z</time>
      </trkpt>
      <trkpt lat="42.442772" lon="-5.213593">
        <ele>890</ele>
        <time>2018-07-23T07:43:45.000Z</time>
      </trkpt>
      <trkpt lat="42.442801" lon="-5.213766">
        <ele>890</ele>
        <time>2018-07-23T07:43:46.990Z</time>
      </trkpt>
      <trkpt lat="42.442832" lon="-5.213939">
        <ele>889</ele>
        <time>2018-07-23T07:43:48.990Z</time>
      </trkpt>
      <trkpt lat="42.442859" lon="-5.214117">
        <ele>889.306126980395</ele>
        <time>2018-07-23T07:43:50.990Z</time>
      </trkpt>
      <trkpt lat="42.442892" lon="-5.214289">
        <ele>890</ele>
        <time>2018-07-23T07:43:52.990Z</time>
      </trkpt>
      <trkpt lat="42.442922" lon="-5.214453">
        <ele>890</ele>
        <time>2018-07-23T07:43:55.000Z</time>
      </trkpt>
      <trkpt lat="42.442956" lon="-5.214619">
        <ele>890</ele>
        <time>2018-07-23T07:43:56.990Z</time>
      </trkpt>
      <trkpt lat="42.442982" lon="-5.214793">
        <ele>890</ele>
        <time>2018-07-23T07:43:58.990Z</time>
      </trkpt>
      <trkpt lat="42.44301" lon="-5.214963">
        <ele>889.68</ele>
        <time>2018-07-23T07:44:00.990Z</time>
      </trkpt>
      <trkpt lat="42.443039" lon="-5.21513">
        <ele>889</ele>
        <time>2018-07-23T07:44:02.990Z</time>
      </trkpt>
      <trkpt lat="42.44307" lon="-5.215292">
        <ele>889</ele>
        <time>2018-07-23T07:44:05.000Z</time>
      </trkpt>
      <trkpt lat="42.4431" lon="-5.215454">
        <ele>889</ele>
        <time>2018-07-23T07:44:06.990Z</time>
      </trkpt>
      <trkpt lat="42.443134" lon="-5.215622">
        <ele>889</ele>
        <time>2018-07-23T07:44:08.990Z</time>
      </trkpt>
      <trkpt lat="42.443167" lon="-5.215786">
        <ele>889</ele>
        <time>2018-07-23T07:44:10.990Z</time>
      </trkpt>
      <trkpt lat="42.44319" lon="-5.215952">
        <ele>889</ele>
        <time>2018-07-23T07:44:12.990Z</time>
      </trkpt>
      <trkpt lat="42.443218" lon="-5.216116">
        <ele>889</ele>
        <time>2018-07-23T07:44:15.000Z</time>
      </trkpt>
      <trkpt lat="42.443247" lon="-5.216277">
        <ele>889</ele>
        <time>2018-07-23T07:44:16.990Z</time>
      </trkpt>
      <trkpt lat="42.443275" lon="-5.216438">
        <ele>889</ele>
        <time>2018-07-23T07:44:18.990Z</time>
      </trkpt>
      <trkpt lat="42.443307" lon="-5.216602">
        <ele>889</ele>
        <time>2018-07-23T07:44:20.990Z</time>
      </trkpt>
      <trkpt lat="42.443337" lon="-5.216768">
        <ele>888</ele>
        <time>2018-07-23T07:44:22.990Z</time>
      </trkpt>
      <trkpt lat="42.443367" lon="-5.216928">
        <ele>889</ele>
        <time>2018-07-23T07:44:25.000Z</time>
      </trkpt>
      <trkpt lat="42.443392" lon="-5.217088">
        <ele>889</ele>
        <time>2018-07-23T07:44:26.990Z</time>
      </trkpt>
      <trkpt lat="42.443423" lon="-5.217249">
        <ele>889</ele>
        <time>2018-07-23T07:44:28.990Z</time>
      </trkpt>
      <trkpt lat="42.44345" lon="-5.217406">
        <ele>889</ele>
        <time>2018-07-23T07:44:30.990Z</time>
      </trkpt>
      <trkpt lat="42.443482" lon="-5.217553">
        <ele>889</ele>
        <time>2018-07-23T07:44:32.990Z</time>
      </trkpt>
      <trkpt lat="42.443514" lon="-5.217719">
        <ele>889</ele>
        <time>2018-07-23T07:44:35.000Z</time>
      </trkpt>
      <trkpt lat="42.443545" lon="-5.217879">
        <ele>888.007516409062</ele>
        <time>2018-07-23T07:44:36.990Z</time>
      </trkpt>
      <trkpt lat="42.443572" lon="-5.218037">
        <ele>888</ele>
        <time>2018-07-23T07:44:38.990Z</time>
      </trkpt>
      <trkpt lat="42.443599" lon="-5.218196">
        <ele>888</ele>
        <time>2018-07-23T07:44:40.990Z</time>
      </trkpt>
      <trkpt lat="42.443628" lon="-5.218352">
        <ele>888</ele>
        <time>2018-07-23T07:44:42.990Z</time>
      </trkpt>
      <trkpt lat="42.443658" lon="-5.218514">
        <ele>888</ele>
        <time>2018-07-23T07:44:45.000Z</time>
      </trkpt>
      <trkpt lat="42.443695" lon="-5.218666">
        <ele>888</ele>
        <time>2018-07-23T07:44:46.990Z</time>
      </trkpt>
      <trkpt lat="42.443723" lon="-5.218824">
        <ele>888</ele>
        <time>2018-07-23T07:44:48.990Z</time>
      </trkpt>
      <trkpt lat="42.443755" lon="-5.218988">
        <ele>888</ele>
        <time>2018-07-23T07:44:50.990Z</time>
      </trkpt>
      <trkpt lat="42.443784" lon="-5.219152">
        <ele>888</ele>
        <time>2018-07-23T07:44:52.990Z</time>
      </trkpt>
      <trkpt lat="42.443806" lon="-5.219322">
        <ele>888</ele>
        <time>2018-07-23T07:44:55.000Z</time>
      </trkpt>
      <trkpt lat="42.443838" lon="-5.21948">
        <ele>888</ele>
        <time>2018-07-23T07:44:56.990Z</time>
      </trkpt>
      <trkpt lat="42.443873" lon="-5.21964">
        <ele>888</ele>
        <time>2018-07-23T07:44:58.990Z</time>
      </trkpt>
      <trkpt lat="42.443904" lon="-5.219802">
        <ele>888</ele>
        <time>2018-07-23T07:45:00.990Z</time>
      </trkpt>
      <trkpt lat="42.443933" lon="-5.219954">
        <ele>888</ele>
        <time>2018-07-23T07:45:02.990Z</time>
      </trkpt>
      <trkpt lat="42.443956" lon="-5.220113">
        <ele>888</ele>
        <time>2018-07-23T07:45:05.000Z</time>
      </trkpt>
      <trkpt lat="42.443971" lon="-5.220267">
        <ele>888</ele>
        <time>2018-07-23T07:45:06.990Z</time>
      </trkpt>
      <trkpt lat="42.443999" lon="-5.220417">
        <ele>888</ele>
        <time>2018-07-23T07:45:09.000Z</time>
      </trkpt>
      <trkpt lat="42.444031" lon="-5.220571">
        <ele>888</ele>
        <time>2018-07-23T07:45:11.000Z</time>
      </trkpt>
      <trkpt lat="42.444062" lon="-5.220732">
        <ele>888</ele>
        <time>2018-07-23T07:45:13.000Z</time>
      </trkpt>
      <trkpt lat="42.44409" lon="-5.22088">
        <ele>888</ele>
        <time>2018-07-23T07:45:15.000Z</time>
      </trkpt>
      <trkpt lat="42.44411" lon="-5.221022">
        <ele>888</ele>
        <time>2018-07-23T07:45:17.000Z</time>
      </trkpt>
      <trkpt lat="42.444138" lon="-5.221152">
        <ele>888</ele>
        <time>2018-07-23T07:45:19.000Z</time>
      </trkpt>
      <trkpt lat="42.444161" lon="-5.221279">
        <ele>888</ele>
        <time>2018-07-23T07:45:20.990Z</time>
      </trkpt>
      <trkpt lat="42.444184" lon="-5.221414">
        <ele>888</ele>
        <time>2018-07-23T07:45:22.990Z</time>
      </trkpt>
      <trkpt lat="42.444213" lon="-5.221554">
        <ele>888</ele>
        <time>2018-07-23T07:45:25.000Z</time>
      </trkpt>
      <trkpt lat="42.444236" lon="-5.221698">
        <ele>888.246155057994</ele>
        <time>2018-07-23T07:45:26.990Z</time>
      </trkpt>
      <trkpt lat="42.444266" lon="-5.221842">
        <ele>889</ele>
        <time>2018-07-23T07:45:28.990Z</time>
      </trkpt>
      <trkpt lat="42.444297" lon="-5.222002">
        <ele>888.68</ele>
        <time>2018-07-23T07:45:30.990Z</time>
      </trkpt>
      <trkpt lat="42.444325" lon="-5.222164">
        <ele>888</ele>
        <time>2018-07-23T07:45:32.990Z</time>
      </trkpt>
      <trkpt lat="42.444352" lon="-5.222326">
        <ele>888</ele>
        <time>2018-07-23T07:45:35.000Z</time>
      </trkpt>
      <trkpt lat="42.444377" lon="-5.222481">
        <ele>888</ele>
        <time>2018-07-23T07:45:36.990Z</time>
      </trkpt>
      <trkpt lat="42.444402" lon="-5.222647">
        <ele>889</ele>
        <time>2018-07-23T07:45:38.990Z</time>
      </trkpt>
      <trkpt lat="42.444429" lon="-5.222812">
        <ele>889</ele>
        <time>2018-07-23T07:45:40.990Z</time>
      </trkpt>
      <trkpt lat="42.444458" lon="-5.222964">
        <ele>889</ele>
        <time>2018-07-23T07:45:42.990Z</time>
      </trkpt>
      <trkpt lat="42.444489" lon="-5.223122">
        <ele>889</ele>
        <time>2018-07-23T07:45:45.000Z</time>
      </trkpt>
      <trkpt lat="42.444511" lon="-5.223266">
        <ele>889</ele>
        <time>2018-07-23T07:45:46.990Z</time>
      </trkpt>
      <trkpt lat="42.444535" lon="-5.223406">
        <ele>889</ele>
        <time>2018-07-23T07:45:48.990Z</time>
      </trkpt>
      <trkpt lat="42.444566" lon="-5.223546">
        <ele>889</ele>
        <time>2018-07-23T07:45:50.990Z</time>
      </trkpt>
      <trkpt lat="42.444594" lon="-5.223676">
        <ele>889</ele>
        <time>2018-07-23T07:45:52.990Z</time>
      </trkpt>
      <trkpt lat="42.44462" lon="-5.22381">
        <ele>889</ele>
        <time>2018-07-23T07:45:55.000Z</time>
      </trkpt>
      <trkpt lat="42.444639" lon="-5.223949">
        <ele>889</ele>
        <time>2018-07-23T07:45:56.990Z</time>
      </trkpt>
      <trkpt lat="42.44467" lon="-5.224088">
        <ele>889</ele>
        <time>2018-07-23T07:45:58.990Z</time>
      </trkpt>
      <trkpt lat="42.444701" lon="-5.224226">
        <ele>889</ele>
        <time>2018-07-23T07:46:00.990Z</time>
      </trkpt>
      <trkpt lat="42.444738" lon="-5.224371">
        <ele>889</ele>
        <time>2018-07-23T07:46:02.990Z</time>
      </trkpt>
      <trkpt lat="42.444774" lon="-5.224515">
        <ele>889</ele>
        <time>2018-07-23T07:46:05.000Z</time>
      </trkpt>
      <trkpt lat="42.444803" lon="-5.224659">
        <ele>889</ele>
        <time>2018-07-23T07:46:06.990Z</time>
      </trkpt>
      <trkpt lat="42.444834" lon="-5.224803">
        <ele>889</ele>
        <time>2018-07-23T07:46:08.990Z</time>
      </trkpt>
      <trkpt lat="42.444865" lon="-5.224948">
        <ele>889</ele>
        <time>2018-07-23T07:46:10.990Z</time>
      </trkpt>
      <trkpt lat="42.444898" lon="-5.225096">
        <ele>889</ele>
        <time>2018-07-23T07:46:12.990Z</time>
      </trkpt>
      <trkpt lat="42.444931" lon="-5.225245">
        <ele>889</ele>
        <time>2018-07-23T07:46:15.000Z</time>
      </trkpt>
      <trkpt lat="42.444964" lon="-5.225393">
        <ele>889</ele>
        <time>2018-07-23T07:46:16.990Z</time>
      </trkpt>
      <trkpt lat="42.444995" lon="-5.225542">
        <ele>889</ele>
        <time>2018-07-23T07:46:18.990Z</time>
      </trkpt>
      <trkpt lat="42.445022" lon="-5.22569">
        <ele>889</ele>
        <time>2018-07-23T07:46:20.990Z</time>
      </trkpt>
      <trkpt lat="42.445049" lon="-5.225839">
        <ele>889</ele>
        <time>2018-07-23T07:46:22.990Z</time>
      </trkpt>
      <trkpt lat="42.445082" lon="-5.225998">
        <ele>889</ele>
        <time>2018-07-23T07:46:25.000Z</time>
      </trkpt>
      <trkpt lat="42.445117" lon="-5.226156">
        <ele>889</ele>
        <time>2018-07-23T07:46:26.990Z</time>
      </trkpt>
      <trkpt lat="42.445152" lon="-5.226304">
        <ele>889</ele>
        <time>2018-07-23T07:46:28.990Z</time>
      </trkpt>
      <trkpt lat="42.445185" lon="-5.22646">
        <ele>889</ele>
        <time>2018-07-23T07:46:30.990Z</time>
      </trkpt>
      <trkpt lat="42.445219" lon="-5.226617">
        <ele>888.68</ele>
        <time>2018-07-23T07:46:32.990Z</time>
      </trkpt>
      <trkpt lat="42.445253" lon="-5.226773">
        <ele>888</ele>
        <time>2018-07-23T07:46:35.000Z</time>
      </trkpt>
      <trkpt lat="42.445288" lon="-5.226931">
        <ele>888</ele>
        <time>2018-07-23T07:46:36.990Z</time>
      </trkpt>
      <trkpt lat="42.445324" lon="-5.227089">
        <ele>888</ele>
        <time>2018-07-23T07:46:38.990Z</time>
      </trkpt>
      <trkpt lat="42.445356" lon="-5.227243">
        <ele>888</ele>
        <time>2018-07-23T07:46:40.990Z</time>
      </trkpt>
      <trkpt lat="42.445389" lon="-5.227409">
        <ele>888</ele>
        <time>2018-07-23T07:46:42.990Z</time>
      </trkpt>
      <trkpt lat="42.445422" lon="-5.227572">
        <ele>888</ele>
        <time>2018-07-23T07:46:45.000Z</time>
      </trkpt>
      <trkpt lat="42.445451" lon="-5.227733">
        <ele>888</ele>
        <time>2018-07-23T07:46:46.990Z</time>
      </trkpt>
      <trkpt lat="42.445475" lon="-5.227901">
        <ele>888</ele>
        <time>2018-07-23T07:46:48.990Z</time>
      </trkpt>
      <trkpt lat="42.445512" lon="-5.228071">
        <ele>888</ele>
        <time>2018-07-23T07:46:50.990Z</time>
      </trkpt>
      <trkpt lat="42.445554" lon="-5.228234">
        <ele>888</ele>
        <time>2018-07-23T07:46:52.990Z</time>
      </trkpt>
      <trkpt lat="42.445581" lon="-5.228389">
        <ele>888</ele>
        <time>2018-07-23T07:46:55.000Z</time>
      </trkpt>
      <trkpt lat="42.445609" lon="-5.228543">
        <ele>888</ele>
        <time>2018-07-23T07:46:56.990Z</time>
      </trkpt>
      <trkpt lat="42.445633" lon="-5.228698">
        <ele>888</ele>
        <time>2018-07-23T07:46:58.990Z</time>
      </trkpt>
      <trkpt lat="42.44567" lon="-5.228862">
        <ele>887</ele>
        <time>2018-07-23T07:47:00.990Z</time>
      </trkpt>
      <trkpt lat="42.445707" lon="-5.22901">
        <ele>887</ele>
        <time>2018-07-23T07:47:02.990Z</time>
      </trkpt>
      <trkpt lat="42.44576" lon="-5.229146">
        <ele>887</ele>
        <time>2018-07-23T07:47:05.000Z</time>
      </trkpt>
      <trkpt lat="42.445823" lon="-5.229264">
        <ele>887</ele>
        <time>2018-07-23T07:47:06.990Z</time>
      </trkpt>
      <trkpt lat="42.445894" lon="-5.229376">
        <ele>886.68</ele>
        <time>2018-07-23T07:47:08.990Z</time>
      </trkpt>
      <trkpt lat="42.445964" lon="-5.229483">
        <ele>886</ele>
        <time>2018-07-23T07:47:10.990Z</time>
      </trkpt>
      <trkpt lat="42.446039" lon="-5.229594">
        <ele>886</ele>
        <time>2018-07-23T07:47:12.990Z</time>
      </trkpt>
      <trkpt lat="42.446124" lon="-5.229709">
        <ele>886.6700032</ele>
        <time>2018-07-23T07:47:15.000Z</time>
      </trkpt>
      <trkpt lat="42.446205" lon="-5.229824">
        <ele>886</ele>
        <time>2018-07-23T07:47:16.990Z</time>
      </trkpt>
      <trkpt lat="42.446284" lon="-5.229939">
        <ele>886</ele>
        <time>2018-07-23T07:47:18.990Z</time>
      </trkpt>
      <trkpt lat="42.446363" lon="-5.230054">
        <ele>886</ele>
        <time>2018-07-23T07:47:20.990Z</time>
      </trkpt>
      <trkpt lat="42.446442" lon="-5.230158">
        <ele>884.68</ele>
        <time>2018-07-23T07:47:22.990Z</time>
      </trkpt>
      <trkpt lat="42.446526" lon="-5.230265">
        <ele>884</ele>
        <time>2018-07-23T07:47:25.000Z</time>
      </trkpt>
      <trkpt lat="42.44662" lon="-5.230365">
        <ele>884</ele>
        <time>2018-07-23T07:47:26.990Z</time>
      </trkpt>
      <trkpt lat="42.446715" lon="-5.230455">
        <ele>883</ele>
        <time>2018-07-23T07:47:28.990Z</time>
      </trkpt>
      <trkpt lat="42.446806" lon="-5.23054">
        <ele>883</ele>
        <time>2018-07-23T07:47:30.990Z</time>
      </trkpt>
      <trkpt lat="42.446905" lon="-5.230616">
        <ele>883</ele>
        <time>2018-07-23T07:47:32.990Z</time>
      </trkpt>
      <trkpt lat="42.447004" lon="-5.230693">
        <ele>882</ele>
        <time>2018-07-23T07:47:35.000Z</time>
      </trkpt>
      <trkpt lat="42.447102" lon="-5.230766">
        <ele>882.32</ele>
        <time>2018-07-23T07:47:36.990Z</time>
      </trkpt>
      <trkpt lat="42.447197" lon="-5.230828">
        <ele>883</ele>
        <time>2018-07-23T07:47:38.990Z</time>
      </trkpt>
      <trkpt lat="42.447293" lon="-5.230889">
        <ele>883</ele>
        <time>2018-07-23T07:47:40.990Z</time>
      </trkpt>
      <trkpt lat="42.44739" lon="-5.230957">
        <ele>883</ele>
        <time>2018-07-23T07:47:42.990Z</time>
      </trkpt>
      <trkpt lat="42.447479" lon="-5.231038">
        <ele>883</ele>
        <time>2018-07-23T07:47:45.000Z</time>
      </trkpt>
      <trkpt lat="42.447572" lon="-5.231112">
        <ele>883</ele>
        <time>2018-07-23T07:47:46.990Z</time>
      </trkpt>
      <trkpt lat="42.447659" lon="-5.231174">
        <ele>882.68</ele>
        <time>2018-07-23T07:47:48.990Z</time>
      </trkpt>
      <trkpt lat="42.447752" lon="-5.231238">
        <ele>883</ele>
        <time>2018-07-23T07:47:50.990Z</time>
      </trkpt>
      <trkpt lat="42.447848" lon="-5.231308">
        <ele>883</ele>
        <time>2018-07-23T07:47:52.990Z</time>
      </trkpt>
      <trkpt lat="42.447937" lon="-5.231374">
        <ele>883</ele>
        <time>2018-07-23T07:47:55.000Z</time>
      </trkpt>
      <trkpt lat="42.448029" lon="-5.231435">
        <ele>883</ele>
        <time>2018-07-23T07:47:56.990Z</time>
      </trkpt>
      <trkpt lat="42.44811" lon="-5.231488">
        <ele>883</ele>
        <time>2018-07-23T07:47:58.990Z</time>
      </trkpt>
      <trkpt lat="42.448199" lon="-5.231545">
        <ele>883</ele>
        <time>2018-07-23T07:48:00.990Z</time>
      </trkpt>
      <trkpt lat="42.448292" lon="-5.231609">
        <ele>883</ele>
        <time>2018-07-23T07:48:02.990Z</time>
      </trkpt>
      <trkpt lat="42.448374" lon="-5.231662">
        <ele>883.323528304491</ele>
        <time>2018-07-23T07:48:05.000Z</time>
      </trkpt>
      <trkpt lat="42.448486" lon="-5.231724">
        <ele>884</ele>
        <time>2018-07-23T07:48:07.990Z</time>
      </trkpt>
      <trkpt lat="42.448593" lon="-5.231782">
        <ele>884</ele>
        <time>2018-07-23T07:48:10.990Z</time>
      </trkpt>
      <trkpt lat="42.448705" lon="-5.231848">
        <ele>885</ele>
        <time>2018-07-23T07:48:13.990Z</time>
      </trkpt>
      <trkpt lat="42.448814" lon="-5.231929">
        <ele>885</ele>
        <time>2018-07-23T07:48:16.990Z</time>
      </trkpt>
      <trkpt lat="42.448913" lon="-5.232018">
        <ele>885</ele>
        <time>2018-07-23T07:48:20.000Z</time>
      </trkpt>
      <trkpt lat="42.449002" lon="-5.232104">
        <ele>885</ele>
        <time>2018-07-23T07:48:22.990Z</time>
      </trkpt>
      <trkpt lat="42.449082" lon="-5.232224">
        <ele>886</ele>
        <time>2018-07-23T07:48:25.990Z</time>
      </trkpt>
      <trkpt lat="42.449159" lon="-5.232347">
        <ele>886.32</ele>
        <time>2018-07-23T07:48:28.990Z</time>
      </trkpt>
      <trkpt lat="42.449229" lon="-5.232472">
        <ele>887</ele>
        <time>2018-07-23T07:48:31.990Z</time>
      </trkpt>
      <trkpt lat="42.449304" lon="-5.232604">
        <ele>887.042861322411</ele>
        <time>2018-07-23T07:48:35.000Z</time>
      </trkpt>
      <trkpt lat="42.449382" lon="-5.232725">
        <ele>888</ele>
        <time>2018-07-23T07:48:37.990Z</time>
      </trkpt>
      <trkpt lat="42.449451" lon="-5.232851">
        <ele>888</ele>
        <time>2018-07-23T07:48:40.990Z</time>
      </trkpt>
      <trkpt lat="42.449532" lon="-5.232984">
        <ele>888</ele>
        <time>2018-07-23T07:48:43.990Z</time>
      </trkpt>
      <trkpt lat="42.449616" lon="-5.233114">
        <ele>888</ele>
        <time>2018-07-23T07:48:46.990Z</time>
      </trkpt>
      <trkpt lat="42.449701" lon="-5.233246">
        <ele>888</ele>
        <time>2018-07-23T07:48:50.000Z</time>
      </trkpt>
      <trkpt lat="42.449763" lon="-5.233336">
        <ele>888</ele>
        <time>2018-07-23T07:48:51.990Z</time>
      </trkpt>
      <trkpt lat="42.449851" lon="-5.233475">
        <ele>888</ele>
        <time>2018-07-23T07:48:55.000Z</time>
      </trkpt>
      <trkpt lat="42.449915" lon="-5.233564">
        <ele>888</ele>
        <time>2018-07-23T07:48:56.990Z</time>
      </trkpt>
      <trkpt lat="42.450003" lon="-5.233694">
        <ele>888</ele>
        <time>2018-07-23T07:49:00.000Z</time>
      </trkpt>
      <trkpt lat="42.450086" lon="-5.233824">
        <ele>888</ele>
        <time>2018-07-23T07:49:02.990Z</time>
      </trkpt>
      <trkpt lat="42.450176" lon="-5.233946">
        <ele>888</ele>
        <time>2018-07-23T07:49:05.990Z</time>
      </trkpt>
      <trkpt lat="42.450267" lon="-5.234073">
        <ele>889</ele>
        <time>2018-07-23T07:49:08.990Z</time>
      </trkpt>
      <trkpt lat="42.450355" lon="-5.234206">
        <ele>889</ele>
        <time>2018-07-23T07:49:11.990Z</time>
      </trkpt>
      <trkpt lat="42.450446" lon="-5.234337">
        <ele>889</ele>
        <time>2018-07-23T07:49:15.000Z</time>
      </trkpt>
      <trkpt lat="42.450502" lon="-5.234433">
        <ele>889</ele>
        <time>2018-07-23T07:49:16.990Z</time>
      </trkpt>
      <trkpt lat="42.45056" lon="-5.234529">
        <ele>889</ele>
        <time>2018-07-23T07:49:18.990Z</time>
      </trkpt>
      <trkpt lat="42.450615" lon="-5.234628">
        <ele>889</ele>
        <time>2018-07-23T07:49:20.990Z</time>
      </trkpt>
      <trkpt lat="42.450692" lon="-5.234775">
        <ele>889</ele>
        <time>2018-07-23T07:49:23.990Z</time>
      </trkpt>
      <trkpt lat="42.450748" lon="-5.234925">
        <ele>889</ele>
        <time>2018-07-23T07:49:26.990Z</time>
      </trkpt>
      <trkpt lat="42.450806" lon="-5.23509">
        <ele>889</ele>
        <time>2018-07-23T07:49:30.000Z</time>
      </trkpt>
      <trkpt lat="42.450848" lon="-5.235204">
        <ele>889</ele>
        <time>2018-07-23T07:49:31.990Z</time>
      </trkpt>
      <trkpt lat="42.450884" lon="-5.235321">
        <ele>889</ele>
        <time>2018-07-23T07:49:33.990Z</time>
      </trkpt>
      <trkpt lat="42.450928" lon="-5.235446">
        <ele>889</ele>
        <time>2018-07-23T07:49:35.990Z</time>
      </trkpt>
      <trkpt lat="42.450971" lon="-5.235574">
        <ele>889</ele>
        <time>2018-07-23T07:49:37.990Z</time>
      </trkpt>
      <trkpt lat="42.451016" lon="-5.235701">
        <ele>889</ele>
        <time>2018-07-23T07:49:40.000Z</time>
      </trkpt>
      <trkpt lat="42.451059" lon="-5.235831">
        <ele>889</ele>
        <time>2018-07-23T07:49:41.990Z</time>
      </trkpt>
      <trkpt lat="42.451099" lon="-5.235961">
        <ele>888</ele>
        <time>2018-07-23T07:49:43.990Z</time>
      </trkpt>
      <trkpt lat="42.451148" lon="-5.236083">
        <ele>889</ele>
        <time>2018-07-23T07:49:45.990Z</time>
      </trkpt>
      <trkpt lat="42.451201" lon="-5.236211">
        <ele>889</ele>
        <time>2018-07-23T07:49:47.990Z</time>
      </trkpt>
      <trkpt lat="42.451251" lon="-5.236339">
        <ele>889</ele>
        <time>2018-07-23T07:49:50.000Z</time>
      </trkpt>
      <trkpt lat="42.451305" lon="-5.236462">
        <ele>889</ele>
        <time>2018-07-23T07:49:51.990Z</time>
      </trkpt>
      <trkpt lat="42.451349" lon="-5.236595">
        <ele>888</ele>
        <time>2018-07-23T07:49:53.990Z</time>
      </trkpt>
      <trkpt lat="42.451394" lon="-5.236721">
        <ele>889</ele>
        <time>2018-07-23T07:49:55.990Z</time>
      </trkpt>
      <trkpt lat="42.451441" lon="-5.236858">
        <ele>888</ele>
        <time>2018-07-23T07:49:57.990Z</time>
      </trkpt>
      <trkpt lat="42.451497" lon="-5.23698">
        <ele>888</ele>
        <time>2018-07-23T07:50:00.000Z</time>
      </trkpt>
      <trkpt lat="42.451543" lon="-5.237101">
        <ele>888</ele>
        <time>2018-07-23T07:50:01.990Z</time>
      </trkpt>
      <trkpt lat="42.451588" lon="-5.237218">
        <ele>888</ele>
        <time>2018-07-23T07:50:03.990Z</time>
      </trkpt>
      <trkpt lat="42.451631" lon="-5.23734">
        <ele>888</ele>
        <time>2018-07-23T07:50:05.990Z</time>
      </trkpt>
      <trkpt lat="42.451682" lon="-5.23746">
        <ele>888</ele>
        <time>2018-07-23T07:50:07.990Z</time>
      </trkpt>
      <trkpt lat="42.451725" lon="-5.237578">
        <ele>888</ele>
        <time>2018-07-23T07:50:10.000Z</time>
      </trkpt>
      <trkpt lat="42.451772" lon="-5.237699">
        <ele>888</ele>
        <time>2018-07-23T07:50:11.990Z</time>
      </trkpt>
      <trkpt lat="42.451824" lon="-5.237822">
        <ele>888</ele>
        <time>2018-07-23T07:50:13.990Z</time>
      </trkpt>
      <trkpt lat="42.451874" lon="-5.237943">
        <ele>888</ele>
        <time>2018-07-23T07:50:15.990Z</time>
      </trkpt>
      <trkpt lat="42.451923" lon="-5.238064">
        <ele>888</ele>
        <time>2018-07-23T07:50:17.990Z</time>
      </trkpt>
      <trkpt lat="42.451965" lon="-5.238193">
        <ele>888</ele>
        <time>2018-07-23T07:50:20.000Z</time>
      </trkpt>
      <trkpt lat="42.452004" lon="-5.238311">
        <ele>888</ele>
        <time>2018-07-23T07:50:21.990Z</time>
      </trkpt>
      <trkpt lat="42.452043" lon="-5.238426">
        <ele>888</ele>
        <time>2018-07-23T07:50:23.990Z</time>
      </trkpt>
      <trkpt lat="42.452085" lon="-5.238542">
        <ele>888</ele>
        <time>2018-07-23T07:50:25.990Z</time>
      </trkpt>
      <trkpt lat="42.452126" lon="-5.238658">
        <ele>888</ele>
        <time>2018-07-23T07:50:27.990Z</time>
      </trkpt>
      <trkpt lat="42.452162" lon="-5.23878">
        <ele>888</ele>
        <time>2018-07-23T07:50:30.000Z</time>
      </trkpt>
      <trkpt lat="42.452198" lon="-5.2389">
        <ele>888</ele>
        <time>2018-07-23T07:50:31.990Z</time>
      </trkpt>
      <trkpt lat="42.452233" lon="-5.239014">
        <ele>888</ele>
        <time>2018-07-23T07:50:33.990Z</time>
      </trkpt>
      <trkpt lat="42.452276" lon="-5.239132">
        <ele>888</ele>
        <time>2018-07-23T07:50:35.990Z</time>
      </trkpt>
      <trkpt lat="42.45231" lon="-5.23925">
        <ele>888</ele>
        <time>2018-07-23T07:50:37.990Z</time>
      </trkpt>
      <trkpt lat="42.452348" lon="-5.239372">
        <ele>888</ele>
        <time>2018-07-23T07:50:40.000Z</time>
      </trkpt>
      <trkpt lat="42.45237" lon="-5.239495">
        <ele>887.68</ele>
        <time>2018-07-23T07:50:41.990Z</time>
      </trkpt>
      <trkpt lat="42.452405" lon="-5.239671">
        <ele>887</ele>
        <time>2018-07-23T07:50:45.000Z</time>
      </trkpt>
      <trkpt lat="42.452457" lon="-5.239837">
        <ele>887</ele>
        <time>2018-07-23T07:50:47.990Z</time>
      </trkpt>
      <trkpt lat="42.452495" lon="-5.23995">
        <ele>887</ele>
        <time>2018-07-23T07:50:50.000Z</time>
      </trkpt>
      <trkpt lat="42.452541" lon="-5.240059">
        <ele>887</ele>
        <time>2018-07-23T07:50:51.990Z</time>
      </trkpt>
      <trkpt lat="42.452588" lon="-5.240173">
        <ele>887</ele>
        <time>2018-07-23T07:50:53.990Z</time>
      </trkpt>
      <trkpt lat="42.452634" lon="-5.240287">
        <ele>887</ele>
        <time>2018-07-23T07:50:55.990Z</time>
      </trkpt>
      <trkpt lat="42.452678" lon="-5.240405">
        <ele>887</ele>
        <time>2018-07-23T07:50:57.990Z</time>
      </trkpt>
      <trkpt lat="42.452726" lon="-5.240523">
        <ele>887</ele>
        <time>2018-07-23T07:51:00.000Z</time>
      </trkpt>
      <trkpt lat="42.452769" lon="-5.240638">
        <ele>887</ele>
        <time>2018-07-23T07:51:01.990Z</time>
      </trkpt>
      <trkpt lat="42.452815" lon="-5.240754">
        <ele>887</ele>
        <time>2018-07-23T07:51:03.990Z</time>
      </trkpt>
      <trkpt lat="42.452863" lon="-5.240876">
        <ele>887</ele>
        <time>2018-07-23T07:51:05.990Z</time>
      </trkpt>
      <trkpt lat="42.45291" lon="-5.241003">
        <ele>887</ele>
        <time>2018-07-23T07:51:07.990Z</time>
      </trkpt>
      <trkpt lat="42.452956" lon="-5.241127">
        <ele>887</ele>
        <time>2018-07-23T07:51:10.000Z</time>
      </trkpt>
      <trkpt lat="42.452996" lon="-5.24124">
        <ele>887</ele>
        <time>2018-07-23T07:51:11.990Z</time>
      </trkpt>
      <trkpt lat="42.453041" lon="-5.241363">
        <ele>886.68</ele>
        <time>2018-07-23T07:51:13.990Z</time>
      </trkpt>
      <trkpt lat="42.453092" lon="-5.241487">
        <ele>886</ele>
        <time>2018-07-23T07:51:15.990Z</time>
      </trkpt>
      <trkpt lat="42.453137" lon="-5.241609">
        <ele>886</ele>
        <time>2018-07-23T07:51:17.990Z</time>
      </trkpt>
      <trkpt lat="42.453183" lon="-5.241736">
        <ele>886</ele>
        <time>2018-07-23T07:51:20.000Z</time>
      </trkpt>
      <trkpt lat="42.453229" lon="-5.241864">
        <ele>886</ele>
        <time>2018-07-23T07:51:21.990Z</time>
      </trkpt>
      <trkpt lat="42.453273" lon="-5.241978">
        <ele>885.701023989866</ele>
        <time>2018-07-23T07:51:23.990Z</time>
      </trkpt>
      <trkpt lat="42.453317" lon="-5.242087">
        <ele>885</ele>
        <time>2018-07-23T07:51:25.990Z</time>
      </trkpt>
      <trkpt lat="42.453374" lon="-5.242244">
        <ele>885</ele>
        <time>2018-07-23T07:51:28.990Z</time>
      </trkpt>
      <trkpt lat="42.453429" lon="-5.242404">
        <ele>885</ele>
        <time>2018-07-23T07:51:31.990Z</time>
      </trkpt>
      <trkpt lat="42.453472" lon="-5.242512">
        <ele>885</ele>
        <time>2018-07-23T07:51:33.990Z</time>
      </trkpt>
      <trkpt lat="42.453511" lon="-5.242625">
        <ele>885</ele>
        <time>2018-07-23T07:51:35.990Z</time>
      </trkpt>
      <trkpt lat="42.453551" lon="-5.242738">
        <ele>885</ele>
        <time>2018-07-23T07:51:37.990Z</time>
      </trkpt>
      <trkpt lat="42.453592" lon="-5.242851">
        <ele>885</ele>
        <time>2018-07-23T07:51:40.000Z</time>
      </trkpt>
      <trkpt lat="42.453652" lon="-5.243016">
        <ele>884</ele>
        <time>2018-07-23T07:51:42.990Z</time>
      </trkpt>
      <trkpt lat="42.453686" lon="-5.243134">
        <ele>884</ele>
        <time>2018-07-23T07:51:45.000Z</time>
      </trkpt>
      <trkpt lat="42.453736" lon="-5.24329">
        <ele>885</ele>
        <time>2018-07-23T07:51:47.990Z</time>
      </trkpt>
      <trkpt lat="42.453797" lon="-5.243449">
        <ele>885</ele>
        <time>2018-07-23T07:51:50.990Z</time>
      </trkpt>
      <trkpt lat="42.453838" lon="-5.243557">
        <ele>885</ele>
        <time>2018-07-23T07:51:52.990Z</time>
      </trkpt>
      <trkpt lat="42.45388" lon="-5.243675">
        <ele>885</ele>
        <time>2018-07-23T07:51:55.000Z</time>
      </trkpt>
      <trkpt lat="42.453922" lon="-5.243789">
        <ele>885</ele>
        <time>2018-07-23T07:51:56.990Z</time>
      </trkpt>
      <trkpt lat="42.453982" lon="-5.24395">
        <ele>885</ele>
        <time>2018-07-23T07:52:00.000Z</time>
      </trkpt>
      <trkpt lat="42.454021" lon="-5.24406">
        <ele>885</ele>
        <time>2018-07-23T07:52:01.990Z</time>
      </trkpt>
      <trkpt lat="42.454083" lon="-5.244224">
        <ele>885</ele>
        <time>2018-07-23T07:52:05.000Z</time>
      </trkpt>
      <trkpt lat="42.454142" lon="-5.244385">
        <ele>885.028580310123</ele>
        <time>2018-07-23T07:52:07.990Z</time>
      </trkpt>
      <trkpt lat="42.454183" lon="-5.244499">
        <ele>886</ele>
        <time>2018-07-23T07:52:10.000Z</time>
      </trkpt>
      <trkpt lat="42.454223" lon="-5.244611">
        <ele>886</ele>
        <time>2018-07-23T07:52:11.990Z</time>
      </trkpt>
      <trkpt lat="42.454265" lon="-5.244733">
        <ele>885.68</ele>
        <time>2018-07-23T07:52:13.990Z</time>
      </trkpt>
      <trkpt lat="42.454305" lon="-5.244855">
        <ele>885</ele>
        <time>2018-07-23T07:52:15.990Z</time>
      </trkpt>
      <trkpt lat="42.45435" lon="-5.244973">
        <ele>885</ele>
        <time>2018-07-23T07:52:17.990Z</time>
      </trkpt>
      <trkpt lat="42.454394" lon="-5.245094">
        <ele>885</ele>
        <time>2018-07-23T07:52:20.000Z</time>
      </trkpt>
      <trkpt lat="42.454435" lon="-5.245214">
        <ele>885</ele>
        <time>2018-07-23T07:52:21.990Z</time>
      </trkpt>
      <trkpt lat="42.454483" lon="-5.245337">
        <ele>885</ele>
        <time>2018-07-23T07:52:23.990Z</time>
      </trkpt>
      <trkpt lat="42.454524" lon="-5.245457">
        <ele>885</ele>
        <time>2018-07-23T07:52:25.990Z</time>
      </trkpt>
      <trkpt lat="42.454568" lon="-5.245585">
        <ele>885</ele>
        <time>2018-07-23T07:52:27.990Z</time>
      </trkpt>
      <trkpt lat="42.454614" lon="-5.245712">
        <ele>885</ele>
        <time>2018-07-23T07:52:30.000Z</time>
      </trkpt>
      <trkpt lat="42.454667" lon="-5.245846">
        <ele>885</ele>
        <time>2018-07-23T07:52:31.990Z</time>
      </trkpt>
      <trkpt lat="42.454713" lon="-5.245963">
        <ele>885</ele>
        <time>2018-07-23T07:52:33.990Z</time>
      </trkpt>
      <trkpt lat="42.454754" lon="-5.246079">
        <ele>885</ele>
        <time>2018-07-23T07:52:35.990Z</time>
      </trkpt>
      <trkpt lat="42.454796" lon="-5.246197">
        <ele>885</ele>
        <time>2018-07-23T07:52:37.990Z</time>
      </trkpt>
      <trkpt lat="42.454843" lon="-5.246323">
        <ele>884.6700032</ele>
        <time>2018-07-23T07:52:40.000Z</time>
      </trkpt>
      <trkpt lat="42.454895" lon="-5.246446">
        <ele>884.316832686995</ele>
        <time>2018-07-23T07:52:41.990Z</time>
      </trkpt>
      <trkpt lat="42.454943" lon="-5.246571">
        <ele>885</ele>
        <time>2018-07-23T07:52:43.990Z</time>
      </trkpt>
      <trkpt lat="42.454997" lon="-5.246693">
        <ele>885</ele>
        <time>2018-07-23T07:52:45.990Z</time>
      </trkpt>
      <trkpt lat="42.455053" lon="-5.246805">
        <ele>885</ele>
        <time>2018-07-23T07:52:47.990Z</time>
      </trkpt>
      <trkpt lat="42.455102" lon="-5.246919">
        <ele>885</ele>
        <time>2018-07-23T07:52:50.000Z</time>
      </trkpt>
      <trkpt lat="42.455163" lon="-5.247028">
        <ele>885</ele>
        <time>2018-07-23T07:52:51.990Z</time>
      </trkpt>
      <trkpt lat="42.455222" lon="-5.247135">
        <ele>885</ele>
        <time>2018-07-23T07:52:53.990Z</time>
      </trkpt>
      <trkpt lat="42.455285" lon="-5.247247">
        <ele>885</ele>
        <time>2018-07-23T07:52:55.990Z</time>
      </trkpt>
      <trkpt lat="42.455349" lon="-5.247371">
        <ele>885</ele>
        <time>2018-07-23T07:52:57.990Z</time>
      </trkpt>
      <trkpt lat="42.455408" lon="-5.247487">
        <ele>885</ele>
        <time>2018-07-23T07:53:00.000Z</time>
      </trkpt>
      <trkpt lat="42.455469" lon="-5.247602">
        <ele>885</ele>
        <time>2018-07-23T07:53:01.990Z</time>
      </trkpt>
      <trkpt lat="42.455535" lon="-5.247721">
        <ele>885</ele>
        <time>2018-07-23T07:53:03.990Z</time>
      </trkpt>
      <trkpt lat="42.455599" lon="-5.247849">
        <ele>885</ele>
        <time>2018-07-23T07:53:05.990Z</time>
      </trkpt>
      <trkpt lat="42.455661" lon="-5.247964">
        <ele>885</ele>
        <time>2018-07-23T07:53:07.990Z</time>
      </trkpt>
      <trkpt lat="42.455726" lon="-5.248092">
        <ele>885</ele>
        <time>2018-07-23T07:53:10.000Z</time>
      </trkpt>
      <trkpt lat="42.45579" lon="-5.248208">
        <ele>885</ele>
        <time>2018-07-23T07:53:11.990Z</time>
      </trkpt>
      <trkpt lat="42.455851" lon="-5.248323">
        <ele>885</ele>
        <time>2018-07-23T07:53:13.990Z</time>
      </trkpt>
      <trkpt lat="42.455921" lon="-5.248444">
        <ele>885</ele>
        <time>2018-07-23T07:53:15.990Z</time>
      </trkpt>
      <trkpt lat="42.455981" lon="-5.248566">
        <ele>885</ele>
        <time>2018-07-23T07:53:17.990Z</time>
      </trkpt>
      <trkpt lat="42.456046" lon="-5.248689">
        <ele>885</ele>
        <time>2018-07-23T07:53:20.000Z</time>
      </trkpt>
      <trkpt lat="42.45611" lon="-5.248804">
        <ele>885</ele>
        <time>2018-07-23T07:53:21.990Z</time>
      </trkpt>
      <trkpt lat="42.456171" lon="-5.248918">
        <ele>885</ele>
        <time>2018-07-23T07:53:23.990Z</time>
      </trkpt>
      <trkpt lat="42.456234" lon="-5.249033">
        <ele>885</ele>
        <time>2018-07-23T07:53:25.990Z</time>
      </trkpt>
      <trkpt lat="42.456303" lon="-5.249154">
        <ele>885.32</ele>
        <time>2018-07-23T07:53:27.990Z</time>
      </trkpt>
      <trkpt lat="42.456374" lon="-5.249276">
        <ele>886</ele>
        <time>2018-07-23T07:53:30.000Z</time>
      </trkpt>
      <trkpt lat="42.456442" lon="-5.249395">
        <ele>886</ele>
        <time>2018-07-23T07:53:31.990Z</time>
      </trkpt>
      <trkpt lat="42.456503" lon="-5.249505">
        <ele>886</ele>
        <time>2018-07-23T07:53:33.990Z</time>
      </trkpt>
      <trkpt lat="42.456563" lon="-5.249619">
        <ele>885</ele>
        <time>2018-07-23T07:53:35.990Z</time>
      </trkpt>
      <trkpt lat="42.456631" lon="-5.249737">
        <ele>885</ele>
        <time>2018-07-23T07:53:37.990Z</time>
      </trkpt>
      <trkpt lat="42.456698" lon="-5.249854">
        <ele>885</ele>
        <time>2018-07-23T07:53:40.000Z</time>
      </trkpt>
      <trkpt lat="42.456759" lon="-5.249973">
        <ele>885</ele>
        <time>2018-07-23T07:53:41.990Z</time>
      </trkpt>
      <trkpt lat="42.456819" lon="-5.250105">
        <ele>885</ele>
        <time>2018-07-23T07:53:43.990Z</time>
      </trkpt>
      <trkpt lat="42.456887" lon="-5.250234">
        <ele>885</ele>
        <time>2018-07-23T07:53:45.990Z</time>
      </trkpt>
      <trkpt lat="42.45695" lon="-5.250364">
        <ele>885</ele>
        <time>2018-07-23T07:53:47.990Z</time>
      </trkpt>
      <trkpt lat="42.457017" lon="-5.250494">
        <ele>884.6700032</ele>
        <time>2018-07-23T07:53:50.000Z</time>
      </trkpt>
      <trkpt lat="42.457088" lon="-5.250624">
        <ele>884</ele>
        <time>2018-07-23T07:53:51.990Z</time>
      </trkpt>
      <trkpt lat="42.457163" lon="-5.250762">
        <ele>883</ele>
        <time>2018-07-23T07:53:53.990Z</time>
      </trkpt>
      <trkpt lat="42.457233" lon="-5.25091">
        <ele>882</ele>
        <time>2018-07-23T07:53:55.990Z</time>
      </trkpt>
      <trkpt lat="42.457313" lon="-5.251052">
        <ele>882</ele>
        <time>2018-07-23T07:53:57.990Z</time>
      </trkpt>
      <trkpt lat="42.457393" lon="-5.251201">
        <ele>881.746155057994</ele>
        <time>2018-07-23T07:54:00.000Z</time>
      </trkpt>
      <trkpt lat="42.457481" lon="-5.25135">
        <ele>880</ele>
        <time>2018-07-23T07:54:01.990Z</time>
      </trkpt>
      <trkpt lat="42.45757" lon="-5.251499">
        <ele>879</ele>
        <time>2018-07-23T07:54:03.990Z</time>
      </trkpt>
      <trkpt lat="42.457655" lon="-5.251654">
        <ele>879</ele>
        <time>2018-07-23T07:54:05.990Z</time>
      </trkpt>
      <trkpt lat="42.457736" lon="-5.251801">
        <ele>878</ele>
        <time>2018-07-23T07:54:07.990Z</time>
      </trkpt>
      <trkpt lat="42.457818" lon="-5.25195">
        <ele>878</ele>
        <time>2018-07-23T07:54:10.000Z</time>
      </trkpt>
      <trkpt lat="42.457885" lon="-5.252092">
        <ele>878</ele>
        <time>2018-07-23T07:54:11.990Z</time>
      </trkpt>
      <trkpt lat="42.457955" lon="-5.252229">
        <ele>878</ele>
        <time>2018-07-23T07:54:13.990Z</time>
      </trkpt>
      <trkpt lat="42.458014" lon="-5.252367">
        <ele>878</ele>
        <time>2018-07-23T07:54:15.990Z</time>
      </trkpt>
      <trkpt lat="42.458068" lon="-5.2525">
        <ele>878</ele>
        <time>2018-07-23T07:54:17.990Z</time>
      </trkpt>
      <trkpt lat="42.458119" lon="-5.252645">
        <ele>878</ele>
        <time>2018-07-23T07:54:20.000Z</time>
      </trkpt>
      <trkpt lat="42.458174" lon="-5.25277">
        <ele>878</ele>
        <time>2018-07-23T07:54:21.990Z</time>
      </trkpt>
      <trkpt lat="42.458225" lon="-5.252878">
        <ele>879</ele>
        <time>2018-07-23T07:54:23.990Z</time>
      </trkpt>
      <trkpt lat="42.458272" lon="-5.252994">
        <ele>879</ele>
        <time>2018-07-23T07:54:25.990Z</time>
      </trkpt>
      <trkpt lat="42.458317" lon="-5.2531">
        <ele>879</ele>
        <time>2018-07-23T07:54:27.990Z</time>
      </trkpt>
      <trkpt lat="42.458378" lon="-5.253258">
        <ele>879</ele>
        <time>2018-07-23T07:54:30.990Z</time>
      </trkpt>
      <trkpt lat="42.458432" lon="-5.253406">
        <ele>880</ele>
        <time>2018-07-23T07:54:33.990Z</time>
      </trkpt>
      <trkpt lat="42.458494" lon="-5.253543">
        <ele>880</ele>
        <time>2018-07-23T07:54:36.990Z</time>
      </trkpt>
      <trkpt lat="42.458549" lon="-5.253672">
        <ele>880</ele>
        <time>2018-07-23T07:54:40.000Z</time>
      </trkpt>
      <trkpt lat="42.458597" lon="-5.253804">
        <ele>881</ele>
        <time>2018-07-23T07:54:42.990Z</time>
      </trkpt>
      <trkpt lat="42.458648" lon="-5.253944">
        <ele>882</ele>
        <time>2018-07-23T07:54:45.990Z</time>
      </trkpt>
      <trkpt lat="42.458699" lon="-5.254074">
        <ele>882</ele>
        <time>2018-07-23T07:54:48.990Z</time>
      </trkpt>
      <trkpt lat="42.458744" lon="-5.254191">
        <ele>882.32</ele>
        <time>2018-07-23T07:54:51.990Z</time>
      </trkpt>
      <trkpt lat="42.458789" lon="-5.254307">
        <ele>883</ele>
        <time>2018-07-23T07:54:55.000Z</time>
      </trkpt>
      <trkpt lat="42.458848" lon="-5.254412">
        <ele>884</ele>
        <time>2018-07-23T07:54:57.990Z</time>
      </trkpt>
      <trkpt lat="42.458896" lon="-5.254522">
        <ele>884</ele>
        <time>2018-07-23T07:55:00.990Z</time>
      </trkpt>
      <trkpt lat="42.458947" lon="-5.254626">
        <ele>884</ele>
        <time>2018-07-23T07:55:03.990Z</time>
      </trkpt>
      <trkpt lat="42.458996" lon="-5.254738">
        <ele>884</ele>
        <time>2018-07-23T07:55:06.990Z</time>
      </trkpt>
      <trkpt lat="42.459048" lon="-5.254857">
        <ele>884</ele>
        <time>2018-07-23T07:55:10.000Z</time>
      </trkpt>
      <trkpt lat="42.459104" lon="-5.25498">
        <ele>884</ele>
        <time>2018-07-23T07:55:12.990Z</time>
      </trkpt>
      <trkpt lat="42.459151" lon="-5.2551">
        <ele>884.0200064</ele>
        <time>2018-07-23T07:55:15.990Z</time>
      </trkpt>
      <trkpt lat="42.459203" lon="-5.255233">
        <ele>885</ele>
        <time>2018-07-23T07:55:18.990Z</time>
      </trkpt>
      <trkpt lat="42.459253" lon="-5.25537">
        <ele>885</ele>
        <time>2018-07-23T07:55:21.990Z</time>
      </trkpt>
      <trkpt lat="42.459308" lon="-5.25549">
        <ele>886</ele>
        <time>2018-07-23T07:55:25.000Z</time>
      </trkpt>
      <trkpt lat="42.459359" lon="-5.25561">
        <ele>886</ele>
        <time>2018-07-23T07:55:27.990Z</time>
      </trkpt>
      <trkpt lat="42.459407" lon="-5.255729">
        <ele>886</ele>
        <time>2018-07-23T07:55:30.990Z</time>
      </trkpt>
      <trkpt lat="42.45946" lon="-5.255844">
        <ele>886</ele>
        <time>2018-07-23T07:55:33.990Z</time>
      </trkpt>
      <trkpt lat="42.459502" lon="-5.255964">
        <ele>886</ele>
        <time>2018-07-23T07:55:36.990Z</time>
      </trkpt>
      <trkpt lat="42.459557" lon="-5.256097">
        <ele>886</ele>
        <time>2018-07-23T07:55:40.000Z</time>
      </trkpt>
      <trkpt lat="42.459607" lon="-5.256207">
        <ele>886</ele>
        <time>2018-07-23T07:55:43.000Z</time>
      </trkpt>
      <trkpt lat="42.459659" lon="-5.256335">
        <ele>886</ele>
        <time>2018-07-23T07:55:46.000Z</time>
      </trkpt>
      <trkpt lat="42.45971" lon="-5.256461">
        <ele>886</ele>
        <time>2018-07-23T07:55:49.000Z</time>
      </trkpt>
      <trkpt lat="42.459764" lon="-5.256601">
        <ele>886</ele>
        <time>2018-07-23T07:55:52.000Z</time>
      </trkpt>
      <trkpt lat="42.459826" lon="-5.256759">
        <ele>886</ele>
        <time>2018-07-23T07:55:55.000Z</time>
      </trkpt>
      <trkpt lat="42.459869" lon="-5.256867">
        <ele>886</ele>
        <time>2018-07-23T07:55:57.000Z</time>
      </trkpt>
      <trkpt lat="42.459912" lon="-5.256977">
        <ele>886</ele>
        <time>2018-07-23T07:55:59.000Z</time>
      </trkpt>
      <trkpt lat="42.459957" lon="-5.257086">
        <ele>886</ele>
        <time>2018-07-23T07:56:01.000Z</time>
      </trkpt>
      <trkpt lat="42.460015" lon="-5.257232">
        <ele>886</ele>
        <time>2018-07-23T07:56:04.000Z</time>
      </trkpt>
      <trkpt lat="42.460071" lon="-5.257367">
        <ele>886</ele>
        <time>2018-07-23T07:56:07.000Z</time>
      </trkpt>
      <trkpt lat="42.460124" lon="-5.25752">
        <ele>886</ele>
        <time>2018-07-23T07:56:10.000Z</time>
      </trkpt>
      <trkpt lat="42.460169" lon="-5.257686">
        <ele>886</ele>
        <time>2018-07-23T07:56:13.000Z</time>
      </trkpt>
      <trkpt lat="42.460213" lon="-5.257858">
        <ele>886</ele>
        <time>2018-07-23T07:56:16.000Z</time>
      </trkpt>
      <trkpt lat="42.460241" lon="-5.25798">
        <ele>886</ele>
        <time>2018-07-23T07:56:18.000Z</time>
      </trkpt>
      <trkpt lat="42.460265" lon="-5.258098">
        <ele>886</ele>
        <time>2018-07-23T07:56:20.000Z</time>
      </trkpt>
      <trkpt lat="42.460297" lon="-5.258276">
        <ele>886</ele>
        <time>2018-07-23T07:56:23.000Z</time>
      </trkpt>
      <trkpt lat="42.460314" lon="-5.258398">
        <ele>886</ele>
        <time>2018-07-23T07:56:25.000Z</time>
      </trkpt>
      <trkpt lat="42.460337" lon="-5.258575">
        <ele>886</ele>
        <time>2018-07-23T07:56:28.000Z</time>
      </trkpt>
      <trkpt lat="42.460367" lon="-5.258744">
        <ele>886</ele>
        <time>2018-07-23T07:56:30.990Z</time>
      </trkpt>
      <trkpt lat="42.460412" lon="-5.258916">
        <ele>886</ele>
        <time>2018-07-23T07:56:34.000Z</time>
      </trkpt>
      <trkpt lat="42.460446" lon="-5.259079">
        <ele>886</ele>
        <time>2018-07-23T07:56:36.990Z</time>
      </trkpt>
      <trkpt lat="42.460477" lon="-5.259232">
        <ele>885.68</ele>
        <time>2018-07-23T07:56:39.990Z</time>
      </trkpt>
      <trkpt lat="42.460503" lon="-5.259389">
        <ele>885</ele>
        <time>2018-07-23T07:56:42.990Z</time>
      </trkpt>
      <trkpt lat="42.460533" lon="-5.259546">
        <ele>885</ele>
        <time>2018-07-23T07:56:45.990Z</time>
      </trkpt>
      <trkpt lat="42.460569" lon="-5.259709">
        <ele>885</ele>
        <time>2018-07-23T07:56:49.000Z</time>
      </trkpt>
      <trkpt lat="42.460595" lon="-5.25988">
        <ele>885</ele>
        <time>2018-07-23T07:56:51.990Z</time>
      </trkpt>
      <trkpt lat="42.460617" lon="-5.260011">
        <ele>885</ele>
        <time>2018-07-23T07:56:54.000Z</time>
      </trkpt>
      <trkpt lat="42.46065" lon="-5.260187">
        <ele>885</ele>
        <time>2018-07-23T07:56:56.990Z</time>
      </trkpt>
      <trkpt lat="42.460677" lon="-5.260323">
        <ele>885</ele>
        <time>2018-07-23T07:56:59.000Z</time>
      </trkpt>
      <trkpt lat="42.460711" lon="-5.260494">
        <ele>884</ele>
        <time>2018-07-23T07:57:01.990Z</time>
      </trkpt>
      <trkpt lat="42.46073" lon="-5.260618">
        <ele>884</ele>
        <time>2018-07-23T07:57:04.000Z</time>
      </trkpt>
      <trkpt lat="42.460746" lon="-5.260786">
        <ele>884</ele>
        <time>2018-07-23T07:57:06.990Z</time>
      </trkpt>
      <trkpt lat="42.460765" lon="-5.260913">
        <ele>883.6700032</ele>
        <time>2018-07-23T07:57:09.000Z</time>
      </trkpt>
      <trkpt lat="42.460781" lon="-5.261036">
        <ele>883</ele>
        <time>2018-07-23T07:57:10.990Z</time>
      </trkpt>
      <trkpt lat="42.460796" lon="-5.261157">
        <ele>882.686866466694</ele>
        <time>2018-07-23T07:57:12.990Z</time>
      </trkpt>
      <trkpt lat="42.460827" lon="-5.2613">
        <ele>882</ele>
        <time>2018-07-23T07:57:14.990Z</time>
      </trkpt>
      <trkpt lat="42.460856" lon="-5.261432">
        <ele>882</ele>
        <time>2018-07-23T07:57:16.990Z</time>
      </trkpt>
      <trkpt lat="42.460882" lon="-5.26158">
        <ele>881.6700032</ele>
        <time>2018-07-23T07:57:19.000Z</time>
      </trkpt>
      <trkpt lat="42.460902" lon="-5.261718">
        <ele>881</ele>
        <time>2018-07-23T07:57:20.990Z</time>
      </trkpt>
      <trkpt lat="42.460921" lon="-5.261862">
        <ele>881</ele>
        <time>2018-07-23T07:57:22.990Z</time>
      </trkpt>
      <trkpt lat="42.460947" lon="-5.262008">
        <ele>880.68</ele>
        <time>2018-07-23T07:57:24.990Z</time>
      </trkpt>
      <trkpt lat="42.460975" lon="-5.262167">
        <ele>880</ele>
        <time>2018-07-23T07:57:26.990Z</time>
      </trkpt>
      <trkpt lat="42.461001" lon="-5.26233">
        <ele>879</ele>
        <time>2018-07-23T07:57:29.000Z</time>
      </trkpt>
      <trkpt lat="42.461029" lon="-5.262488">
        <ele>878</ele>
        <time>2018-07-23T07:57:30.990Z</time>
      </trkpt>
      <trkpt lat="42.461058" lon="-5.262642">
        <ele>878</ele>
        <time>2018-07-23T07:57:32.990Z</time>
      </trkpt>
      <trkpt lat="42.461079" lon="-5.262792">
        <ele>878</ele>
        <time>2018-07-23T07:57:34.990Z</time>
      </trkpt>
      <trkpt lat="42.461104" lon="-5.262932">
        <ele>878</ele>
        <time>2018-07-23T07:57:36.990Z</time>
      </trkpt>
      <trkpt lat="42.46113" lon="-5.263074">
        <ele>878</ele>
        <time>2018-07-23T07:57:39.000Z</time>
      </trkpt>
      <trkpt lat="42.461153" lon="-5.263221">
        <ele>878</ele>
        <time>2018-07-23T07:57:40.990Z</time>
      </trkpt>
      <trkpt lat="42.461184" lon="-5.263368">
        <ele>878</ele>
        <time>2018-07-23T07:57:42.990Z</time>
      </trkpt>
      <trkpt lat="42.461201" lon="-5.263507">
        <ele>878</ele>
        <time>2018-07-23T07:57:44.990Z</time>
      </trkpt>
      <trkpt lat="42.46123" lon="-5.26363">
        <ele>878</ele>
        <time>2018-07-23T07:57:46.990Z</time>
      </trkpt>
      <trkpt lat="42.461254" lon="-5.263762">
        <ele>878</ele>
        <time>2018-07-23T07:57:49.000Z</time>
      </trkpt>
      <trkpt lat="42.461277" lon="-5.263895">
        <ele>878</ele>
        <time>2018-07-23T07:57:50.990Z</time>
      </trkpt>
      <trkpt lat="42.461305" lon="-5.264029">
        <ele>878</ele>
        <time>2018-07-23T07:57:52.990Z</time>
      </trkpt>
      <trkpt lat="42.461326" lon="-5.264154">
        <ele>878</ele>
        <time>2018-07-23T07:57:54.990Z</time>
      </trkpt>
      <trkpt lat="42.461347" lon="-5.264272">
        <ele>878</ele>
        <time>2018-07-23T07:57:56.990Z</time>
      </trkpt>
      <trkpt lat="42.46137" lon="-5.264408">
        <ele>878</ele>
        <time>2018-07-23T07:57:59.000Z</time>
      </trkpt>
      <trkpt lat="42.461392" lon="-5.264537">
        <ele>878</ele>
        <time>2018-07-23T07:58:00.990Z</time>
      </trkpt>
      <trkpt lat="42.461412" lon="-5.264668">
        <ele>877.971419689877</ele>
        <time>2018-07-23T07:58:02.990Z</time>
      </trkpt>
      <trkpt lat="42.461429" lon="-5.264799">
        <ele>877</ele>
        <time>2018-07-23T07:58:04.990Z</time>
      </trkpt>
      <trkpt lat="42.461451" lon="-5.264927">
        <ele>878</ele>
        <time>2018-07-23T07:58:06.990Z</time>
      </trkpt>
      <trkpt lat="42.461481" lon="-5.265061">
        <ele>877</ele>
        <time>2018-07-23T07:58:09.000Z</time>
      </trkpt>
      <trkpt lat="42.461497" lon="-5.265181">
        <ele>877</ele>
        <time>2018-07-23T07:58:10.990Z</time>
      </trkpt>
      <trkpt lat="42.461514" lon="-5.265342">
        <ele>877.042861322411</ele>
        <time>2018-07-23T07:58:14.000Z</time>
      </trkpt>
      <trkpt lat="42.461545" lon="-5.265458">
        <ele>878.32</ele>
        <time>2018-07-23T07:58:27.990Z</time>
      </trkpt>
      <trkpt lat="42.461568" lon="-5.265583">
        <ele>879</ele>
        <time>2018-07-23T08:00:44.990Z</time>
      </trkpt>
      <trkpt lat="42.461593" lon="-5.265715">
        <ele>879</ele>
        <time>2018-07-23T08:00:57.990Z</time>
      </trkpt>
      <trkpt lat="42.461619" lon="-5.265859">
        <ele>879</ele>
        <time>2018-07-23T08:01:01.990Z</time>
      </trkpt>
      <trkpt lat="42.461645" lon="-5.266011">
        <ele>879</ele>
        <time>2018-07-23T08:01:05.990Z</time>
      </trkpt>
      <trkpt lat="42.461661" lon="-5.266147">
        <ele>879</ele>
        <time>2018-07-23T08:01:09.000Z</time>
      </trkpt>
      <trkpt lat="42.461684" lon="-5.26629">
        <ele>879</ele>
        <time>2018-07-23T08:01:11.990Z</time>
      </trkpt>
      <trkpt lat="42.46171" lon="-5.266445">
        <ele>879</ele>
        <time>2018-07-23T08:01:14.990Z</time>
      </trkpt>
      <trkpt lat="42.461736" lon="-5.266609">
        <ele>878</ele>
        <time>2018-07-23T08:01:17.990Z</time>
      </trkpt>
      <trkpt lat="42.461757" lon="-5.266731">
        <ele>878</ele>
        <time>2018-07-23T08:01:19.990Z</time>
      </trkpt>
      <trkpt lat="42.461789" lon="-5.266904">
        <ele>878.68</ele>
        <time>2018-07-23T08:01:22.990Z</time>
      </trkpt>
      <trkpt lat="42.461824" lon="-5.267068">
        <ele>879</ele>
        <time>2018-07-23T08:01:25.990Z</time>
      </trkpt>
      <trkpt lat="42.461847" lon="-5.267205">
        <ele>879</ele>
        <time>2018-07-23T08:01:29.000Z</time>
      </trkpt>
      <trkpt lat="42.46189" lon="-5.267333">
        <ele>879</ele>
        <time>2018-07-23T08:01:32.990Z</time>
      </trkpt>
      <trkpt lat="42.461914" lon="-5.267461">
        <ele>879</ele>
        <time>2018-07-23T08:01:35.990Z</time>
      </trkpt>
      <trkpt lat="42.461937" lon="-5.267616">
        <ele>878.6700032</ele>
        <time>2018-07-23T08:01:39.000Z</time>
      </trkpt>
      <trkpt lat="42.461959" lon="-5.267773">
        <ele>878</ele>
        <time>2018-07-23T08:01:41.990Z</time>
      </trkpt>
      <trkpt lat="42.461983" lon="-5.267948">
        <ele>878</ele>
        <time>2018-07-23T08:01:44.990Z</time>
      </trkpt>
      <trkpt lat="42.462005" lon="-5.268127">
        <ele>878</ele>
        <time>2018-07-23T08:01:47.990Z</time>
      </trkpt>
      <trkpt lat="42.462023" lon="-5.268253">
        <ele>878</ele>
        <time>2018-07-23T08:01:49.990Z</time>
      </trkpt>
      <trkpt lat="42.462045" lon="-5.268381">
        <ele>878</ele>
        <time>2018-07-23T08:01:51.990Z</time>
      </trkpt>
      <trkpt lat="42.462064" lon="-5.268505">
        <ele>877.3299968</ele>
        <time>2018-07-23T08:01:54.000Z</time>
      </trkpt>
      <trkpt lat="42.462088" lon="-5.268629">
        <ele>878</ele>
        <time>2018-07-23T08:01:55.990Z</time>
      </trkpt>
      <trkpt lat="42.462115" lon="-5.268746">
        <ele>878</ele>
        <time>2018-07-23T08:01:57.990Z</time>
      </trkpt>
      <trkpt lat="42.462136" lon="-5.268865">
        <ele>878</ele>
        <time>2018-07-23T08:01:59.990Z</time>
      </trkpt>
      <trkpt lat="42.462157" lon="-5.268986">
        <ele>878</ele>
        <time>2018-07-23T08:02:01.990Z</time>
      </trkpt>
      <trkpt lat="42.462176" lon="-5.269108">
        <ele>878</ele>
        <time>2018-07-23T08:02:04.000Z</time>
      </trkpt>
      <trkpt lat="42.462208" lon="-5.269285">
        <ele>878</ele>
        <time>2018-07-23T08:02:06.990Z</time>
      </trkpt>
      <trkpt lat="42.462225" lon="-5.269414">
        <ele>878</ele>
        <time>2018-07-23T08:02:09.000Z</time>
      </trkpt>
      <trkpt lat="42.46225" lon="-5.269533">
        <ele>878</ele>
        <time>2018-07-23T08:02:10.990Z</time>
      </trkpt>
      <trkpt lat="42.46228" lon="-5.269711">
        <ele>878</ele>
        <time>2018-07-23T08:02:14.000Z</time>
      </trkpt>
      <trkpt lat="42.462316" lon="-5.269886">
        <ele>878</ele>
        <time>2018-07-23T08:02:16.990Z</time>
      </trkpt>
      <trkpt lat="42.462346" lon="-5.270059">
        <ele>878</ele>
        <time>2018-07-23T08:02:19.990Z</time>
      </trkpt>
      <trkpt lat="42.462369" lon="-5.270233">
        <ele>878</ele>
        <time>2018-07-23T08:02:22.990Z</time>
      </trkpt>
      <trkpt lat="42.462396" lon="-5.270402">
        <ele>878</ele>
        <time>2018-07-23T08:02:25.990Z</time>
      </trkpt>
      <trkpt lat="42.462423" lon="-5.270567">
        <ele>878</ele>
        <time>2018-07-23T08:02:29.000Z</time>
      </trkpt>
      <trkpt lat="42.462447" lon="-5.270728">
        <ele>878</ele>
        <time>2018-07-23T08:02:31.990Z</time>
      </trkpt>
      <trkpt lat="42.462475" lon="-5.270884">
        <ele>878</ele>
        <time>2018-07-23T08:02:34.990Z</time>
      </trkpt>
      <trkpt lat="42.462506" lon="-5.271046">
        <ele>878</ele>
        <time>2018-07-23T08:02:37.990Z</time>
      </trkpt>
      <trkpt lat="42.462536" lon="-5.271217">
        <ele>878</ele>
        <time>2018-07-23T08:02:40.990Z</time>
      </trkpt>
      <trkpt lat="42.462572" lon="-5.271395">
        <ele>878</ele>
        <time>2018-07-23T08:02:44.000Z</time>
      </trkpt>
      <trkpt lat="42.462604" lon="-5.271567">
        <ele>878</ele>
        <time>2018-07-23T08:02:46.990Z</time>
      </trkpt>
      <trkpt lat="42.46263" lon="-5.271743">
        <ele>878</ele>
        <time>2018-07-23T08:02:49.990Z</time>
      </trkpt>
      <trkpt lat="42.462657" lon="-5.271873">
        <ele>878</ele>
        <time>2018-07-23T08:02:51.990Z</time>
      </trkpt>
      <trkpt lat="42.462676" lon="-5.272001">
        <ele>878</ele>
        <time>2018-07-23T08:02:54.000Z</time>
      </trkpt>
      <trkpt lat="42.462699" lon="-5.272122">
        <ele>878</ele>
        <time>2018-07-23T08:02:55.990Z</time>
      </trkpt>
      <trkpt lat="42.462724" lon="-5.272243">
        <ele>878</ele>
        <time>2018-07-23T08:02:57.990Z</time>
      </trkpt>
      <trkpt lat="42.462747" lon="-5.27237">
        <ele>878</ele>
        <time>2018-07-23T08:02:59.990Z</time>
      </trkpt>
      <trkpt lat="42.46277" lon="-5.272498">
        <ele>878</ele>
        <time>2018-07-23T08:03:01.990Z</time>
      </trkpt>
      <trkpt lat="42.462788" lon="-5.272621">
        <ele>878</ele>
        <time>2018-07-23T08:03:04.000Z</time>
      </trkpt>
      <trkpt lat="42.462808" lon="-5.272743">
        <ele>878</ele>
        <time>2018-07-23T08:03:05.990Z</time>
      </trkpt>
      <trkpt lat="42.462828" lon="-5.272864">
        <ele>878</ele>
        <time>2018-07-23T08:03:07.990Z</time>
      </trkpt>
      <trkpt lat="42.462849" lon="-5.272987">
        <ele>878</ele>
        <time>2018-07-23T08:03:09.990Z</time>
      </trkpt>
      <trkpt lat="42.462873" lon="-5.273114">
        <ele>878</ele>
        <time>2018-07-23T08:03:11.990Z</time>
      </trkpt>
      <trkpt lat="42.462898" lon="-5.273243">
        <ele>878</ele>
        <time>2018-07-23T08:03:14.000Z</time>
      </trkpt>
      <trkpt lat="42.462927" lon="-5.273369">
        <ele>878</ele>
        <time>2018-07-23T08:03:15.990Z</time>
      </trkpt>
      <trkpt lat="42.462958" lon="-5.273499">
        <ele>878</ele>
        <time>2018-07-23T08:03:17.990Z</time>
      </trkpt>
      <trkpt lat="42.462985" lon="-5.273624">
        <ele>878</ele>
        <time>2018-07-23T08:03:19.990Z</time>
      </trkpt>
      <trkpt lat="42.463009" lon="-5.273753">
        <ele>878</ele>
        <time>2018-07-23T08:03:21.990Z</time>
      </trkpt>
      <trkpt lat="42.463029" lon="-5.273887">
        <ele>878</ele>
        <time>2018-07-23T08:03:24.000Z</time>
      </trkpt>
      <trkpt lat="42.463054" lon="-5.27401">
        <ele>878</ele>
        <time>2018-07-23T08:03:25.990Z</time>
      </trkpt>
      <trkpt lat="42.463095" lon="-5.274185">
        <ele>878</ele>
        <time>2018-07-23T08:03:29.000Z</time>
      </trkpt>
      <trkpt lat="42.463121" lon="-5.274306">
        <ele>878</ele>
        <time>2018-07-23T08:03:30.990Z</time>
      </trkpt>
      <trkpt lat="42.463145" lon="-5.274439">
        <ele>877</ele>
        <time>2018-07-23T08:03:32.990Z</time>
      </trkpt>
      <trkpt lat="42.463167" lon="-5.274561">
        <ele>877</ele>
        <time>2018-07-23T08:03:34.990Z</time>
      </trkpt>
      <trkpt lat="42.463188" lon="-5.27468">
        <ele>877</ele>
        <time>2018-07-23T08:03:36.990Z</time>
      </trkpt>
      <trkpt lat="42.463209" lon="-5.274804">
        <ele>877</ele>
        <time>2018-07-23T08:03:39.000Z</time>
      </trkpt>
      <trkpt lat="42.463242" lon="-5.274977">
        <ele>877</ele>
        <time>2018-07-23T08:03:41.990Z</time>
      </trkpt>
      <trkpt lat="42.46327" lon="-5.275096">
        <ele>877</ele>
        <time>2018-07-23T08:03:44.000Z</time>
      </trkpt>
      <trkpt lat="42.463305" lon="-5.275264">
        <ele>876</ele>
        <time>2018-07-23T08:03:46.990Z</time>
      </trkpt>
      <trkpt lat="42.463335" lon="-5.27543">
        <ele>875.971419689877</ele>
        <time>2018-07-23T08:03:49.990Z</time>
      </trkpt>
      <trkpt lat="42.463369" lon="-5.275599">
        <ele>874.68</ele>
        <time>2018-07-23T08:03:52.990Z</time>
      </trkpt>
      <trkpt lat="42.463399" lon="-5.275734">
        <ele>874</ele>
        <time>2018-07-23T08:03:54.990Z</time>
      </trkpt>
      <trkpt lat="42.463434" lon="-5.275891">
        <ele>873</ele>
        <time>2018-07-23T08:03:56.990Z</time>
      </trkpt>
      <trkpt lat="42.463463" lon="-5.276064">
        <ele>872.6700032</ele>
        <time>2018-07-23T08:03:59.000Z</time>
      </trkpt>
      <trkpt lat="42.463487" lon="-5.276231">
        <ele>872</ele>
        <time>2018-07-23T08:04:00.990Z</time>
      </trkpt>
      <trkpt lat="42.463509" lon="-5.276393">
        <ele>872</ele>
        <time>2018-07-23T08:04:02.990Z</time>
      </trkpt>
      <trkpt lat="42.463538" lon="-5.276549">
        <ele>872</ele>
        <time>2018-07-23T08:04:04.990Z</time>
      </trkpt>
      <trkpt lat="42.463566" lon="-5.276681">
        <ele>872</ele>
        <time>2018-07-23T08:04:06.990Z</time>
      </trkpt>
      <trkpt lat="42.463583" lon="-5.276802">
        <ele>872.042861322411</ele>
        <time>2018-07-23T08:04:09.000Z</time>
      </trkpt>
      <trkpt lat="42.463615" lon="-5.27698">
        <ele>873</ele>
        <time>2018-07-23T08:04:11.990Z</time>
      </trkpt>
      <trkpt lat="42.463648" lon="-5.277118">
        <ele>873</ele>
        <time>2018-07-23T08:04:14.000Z</time>
      </trkpt>
      <trkpt lat="42.463667" lon="-5.277251">
        <ele>873</ele>
        <time>2018-07-23T08:04:15.990Z</time>
      </trkpt>
      <trkpt lat="42.463688" lon="-5.277388">
        <ele>873</ele>
        <time>2018-07-23T08:04:17.990Z</time>
      </trkpt>
      <trkpt lat="42.46371" lon="-5.277534">
        <ele>873</ele>
        <time>2018-07-23T08:04:19.990Z</time>
      </trkpt>
      <trkpt lat="42.463732" lon="-5.277675">
        <ele>873</ele>
        <time>2018-07-23T08:04:21.990Z</time>
      </trkpt>
      <trkpt lat="42.463757" lon="-5.277815">
        <ele>872.985298823529</ele>
        <time>2018-07-23T08:04:24.000Z</time>
      </trkpt>
      <trkpt lat="42.463784" lon="-5.277956">
        <ele>872</ele>
        <time>2018-07-23T08:04:25.990Z</time>
      </trkpt>
      <trkpt lat="42.463809" lon="-5.278102">
        <ele>872</ele>
        <time>2018-07-23T08:04:27.990Z</time>
      </trkpt>
      <trkpt lat="42.463837" lon="-5.278246">
        <ele>872</ele>
        <time>2018-07-23T08:04:29.990Z</time>
      </trkpt>
      <trkpt lat="42.463863" lon="-5.27838">
        <ele>872</ele>
        <time>2018-07-23T08:04:31.990Z</time>
      </trkpt>
      <trkpt lat="42.463887" lon="-5.278501">
        <ele>873</ele>
        <time>2018-07-23T08:04:34.000Z</time>
      </trkpt>
      <trkpt lat="42.463907" lon="-5.278627">
        <ele>873</ele>
        <time>2018-07-23T08:04:35.990Z</time>
      </trkpt>
      <trkpt lat="42.463928" lon="-5.27876">
        <ele>873</ele>
        <time>2018-07-23T08:04:37.990Z</time>
      </trkpt>
      <trkpt lat="42.463954" lon="-5.278885">
        <ele>873</ele>
        <time>2018-07-23T08:04:39.990Z</time>
      </trkpt>
      <trkpt lat="42.463977" lon="-5.279008">
        <ele>873</ele>
        <time>2018-07-23T08:04:41.990Z</time>
      </trkpt>
      <trkpt lat="42.464001" lon="-5.279138">
        <ele>873</ele>
        <time>2018-07-23T08:04:44.000Z</time>
      </trkpt>
      <trkpt lat="42.464024" lon="-5.279261">
        <ele>873</ele>
        <time>2018-07-23T08:04:45.990Z</time>
      </trkpt>
      <trkpt lat="42.464045" lon="-5.279389">
        <ele>872.68</ele>
        <time>2018-07-23T08:04:47.990Z</time>
      </trkpt>
      <trkpt lat="42.464071" lon="-5.279516">
        <ele>872</ele>
        <time>2018-07-23T08:04:49.990Z</time>
      </trkpt>
      <trkpt lat="42.464087" lon="-5.279642">
        <ele>872</ele>
        <time>2018-07-23T08:04:51.990Z</time>
      </trkpt>
      <trkpt lat="42.464109" lon="-5.279777">
        <ele>872</ele>
        <time>2018-07-23T08:04:54.000Z</time>
      </trkpt>
      <trkpt lat="42.464127" lon="-5.279909">
        <ele>872</ele>
        <time>2018-07-23T08:04:55.990Z</time>
      </trkpt>
      <trkpt lat="42.464143" lon="-5.280035">
        <ele>872</ele>
        <time>2018-07-23T08:04:57.990Z</time>
      </trkpt>
      <trkpt lat="42.464167" lon="-5.280168">
        <ele>872.32</ele>
        <time>2018-07-23T08:04:59.990Z</time>
      </trkpt>
      <trkpt lat="42.46419" lon="-5.280304">
        <ele>873</ele>
        <time>2018-07-23T08:05:01.990Z</time>
      </trkpt>
      <trkpt lat="42.464211" lon="-5.280444">
        <ele>873</ele>
        <time>2018-07-23T08:05:04.000Z</time>
      </trkpt>
      <trkpt lat="42.464236" lon="-5.280586">
        <ele>873</ele>
        <time>2018-07-23T08:05:05.990Z</time>
      </trkpt>
      <trkpt lat="42.464258" lon="-5.280724">
        <ele>873</ele>
        <time>2018-07-23T08:05:07.990Z</time>
      </trkpt>
      <trkpt lat="42.464287" lon="-5.280868">
        <ele>873</ele>
        <time>2018-07-23T08:05:09.990Z</time>
      </trkpt>
      <trkpt lat="42.464309" lon="-5.281004">
        <ele>873</ele>
        <time>2018-07-23T08:05:11.990Z</time>
      </trkpt>
      <trkpt lat="42.464323" lon="-5.281138">
        <ele>872</ele>
        <time>2018-07-23T08:05:14.000Z</time>
      </trkpt>
      <trkpt lat="42.464337" lon="-5.281267">
        <ele>872</ele>
        <time>2018-07-23T08:05:15.990Z</time>
      </trkpt>
      <trkpt lat="42.464359" lon="-5.281394">
        <ele>873</ele>
        <time>2018-07-23T08:05:17.990Z</time>
      </trkpt>
      <trkpt lat="42.464384" lon="-5.281524">
        <ele>873</ele>
        <time>2018-07-23T08:05:19.990Z</time>
      </trkpt>
      <trkpt lat="42.464406" lon="-5.281649">
        <ele>872</ele>
        <time>2018-07-23T08:05:21.990Z</time>
      </trkpt>
      <trkpt lat="42.46442" lon="-5.281778">
        <ele>872</ele>
        <time>2018-07-23T08:05:24.000Z</time>
      </trkpt>
      <trkpt lat="42.464438" lon="-5.281906">
        <ele>872</ele>
        <time>2018-07-23T08:05:25.990Z</time>
      </trkpt>
      <trkpt lat="42.464458" lon="-5.28204">
        <ele>872</ele>
        <time>2018-07-23T08:05:27.990Z</time>
      </trkpt>
      <trkpt lat="42.464472" lon="-5.282173">
        <ele>872</ele>
        <time>2018-07-23T08:05:29.990Z</time>
      </trkpt>
      <trkpt lat="42.464493" lon="-5.282306">
        <ele>872</ele>
        <time>2018-07-23T08:05:31.990Z</time>
      </trkpt>
      <trkpt lat="42.464517" lon="-5.282444">
        <ele>872</ele>
        <time>2018-07-23T08:05:34.000Z</time>
      </trkpt>
      <trkpt lat="42.46454" lon="-5.282578">
        <ele>872</ele>
        <time>2018-07-23T08:05:35.990Z</time>
      </trkpt>
      <trkpt lat="42.464565" lon="-5.282709">
        <ele>872</ele>
        <time>2018-07-23T08:05:37.990Z</time>
      </trkpt>
      <trkpt lat="42.464585" lon="-5.28285">
        <ele>872</ele>
        <time>2018-07-23T08:05:39.990Z</time>
      </trkpt>
      <trkpt lat="42.464601" lon="-5.282992">
        <ele>872</ele>
        <time>2018-07-23T08:05:41.990Z</time>
      </trkpt>
      <trkpt lat="42.464628" lon="-5.283147">
        <ele>872</ele>
        <time>2018-07-23T08:05:44.000Z</time>
      </trkpt>
      <trkpt lat="42.464653" lon="-5.2833">
        <ele>872</ele>
        <time>2018-07-23T08:05:45.990Z</time>
      </trkpt>
      <trkpt lat="42.464672" lon="-5.283449">
        <ele>871</ele>
        <time>2018-07-23T08:05:47.990Z</time>
      </trkpt>
      <trkpt lat="42.46469" lon="-5.2836">
        <ele>871</ele>
        <time>2018-07-23T08:05:49.990Z</time>
      </trkpt>
      <trkpt lat="42.464703" lon="-5.283739">
        <ele>871</ele>
        <time>2018-07-23T08:05:51.990Z</time>
      </trkpt>
      <trkpt lat="42.464722" lon="-5.283882">
        <ele>871</ele>
        <time>2018-07-23T08:05:54.000Z</time>
      </trkpt>
      <trkpt lat="42.464745" lon="-5.284026">
        <ele>871</ele>
        <time>2018-07-23T08:05:55.990Z</time>
      </trkpt>
      <trkpt lat="42.464757" lon="-5.284169">
        <ele>871</ele>
        <time>2018-07-23T08:05:57.990Z</time>
      </trkpt>
      <trkpt lat="42.464774" lon="-5.284309">
        <ele>871</ele>
        <time>2018-07-23T08:05:59.990Z</time>
      </trkpt>
      <trkpt lat="42.464788" lon="-5.28445">
        <ele>871</ele>
        <time>2018-07-23T08:06:01.990Z</time>
      </trkpt>
      <trkpt lat="42.464802" lon="-5.284592">
        <ele>871</ele>
        <time>2018-07-23T08:06:04.000Z</time>
      </trkpt>
      <trkpt lat="42.464818" lon="-5.284734">
        <ele>871</ele>
        <time>2018-07-23T08:06:05.990Z</time>
      </trkpt>
      <trkpt lat="42.464825" lon="-5.284879">
        <ele>871</ele>
        <time>2018-07-23T08:06:07.990Z</time>
      </trkpt>
      <trkpt lat="42.464835" lon="-5.285017">
        <ele>870</ele>
        <time>2018-07-23T08:06:09.990Z</time>
      </trkpt>
      <trkpt lat="42.464841" lon="-5.285154">
        <ele>870</ele>
        <time>2018-07-23T08:06:11.990Z</time>
      </trkpt>
      <trkpt lat="42.464856" lon="-5.285298">
        <ele>871</ele>
        <time>2018-07-23T08:06:14.000Z</time>
      </trkpt>
      <trkpt lat="42.464864" lon="-5.285448">
        <ele>871</ele>
        <time>2018-07-23T08:06:15.990Z</time>
      </trkpt>
      <trkpt lat="42.464875" lon="-5.285596">
        <ele>870.68</ele>
        <time>2018-07-23T08:06:17.990Z</time>
      </trkpt>
      <trkpt lat="42.464894" lon="-5.285742">
        <ele>870</ele>
        <time>2018-07-23T08:06:19.990Z</time>
      </trkpt>
      <trkpt lat="42.46491" lon="-5.28589">
        <ele>870</ele>
        <time>2018-07-23T08:06:21.990Z</time>
      </trkpt>
      <trkpt lat="42.464922" lon="-5.286033">
        <ele>870</ele>
        <time>2018-07-23T08:06:24.000Z</time>
      </trkpt>
      <trkpt lat="42.464933" lon="-5.286171">
        <ele>870</ele>
        <time>2018-07-23T08:06:25.990Z</time>
      </trkpt>
      <trkpt lat="42.46495" lon="-5.28631">
        <ele>870</ele>
        <time>2018-07-23T08:06:27.990Z</time>
      </trkpt>
      <trkpt lat="42.464968" lon="-5.286452">
        <ele>870</ele>
        <time>2018-07-23T08:06:29.990Z</time>
      </trkpt>
      <trkpt lat="42.464983" lon="-5.286593">
        <ele>870</ele>
        <time>2018-07-23T08:06:31.990Z</time>
      </trkpt>
      <trkpt lat="42.464997" lon="-5.28674">
        <ele>870</ele>
        <time>2018-07-23T08:06:34.000Z</time>
      </trkpt>
      <trkpt lat="42.46501" lon="-5.286887">
        <ele>870</ele>
        <time>2018-07-23T08:06:35.990Z</time>
      </trkpt>
      <trkpt lat="42.465023" lon="-5.287036">
        <ele>870</ele>
        <time>2018-07-23T08:06:37.990Z</time>
      </trkpt>
      <trkpt lat="42.465035" lon="-5.287175">
        <ele>870</ele>
        <time>2018-07-23T08:06:39.990Z</time>
      </trkpt>
      <trkpt lat="42.46505" lon="-5.287319">
        <ele>870</ele>
        <time>2018-07-23T08:06:41.990Z</time>
      </trkpt>
      <trkpt lat="42.46507" lon="-5.287471">
        <ele>870</ele>
        <time>2018-07-23T08:06:44.000Z</time>
      </trkpt>
      <trkpt lat="42.465081" lon="-5.287616">
        <ele>870</ele>
        <time>2018-07-23T08:06:45.990Z</time>
      </trkpt>
      <trkpt lat="42.465094" lon="-5.287766">
        <ele>870</ele>
        <time>2018-07-23T08:06:47.990Z</time>
      </trkpt>
      <trkpt lat="42.465112" lon="-5.287918">
        <ele>870</ele>
        <time>2018-07-23T08:06:49.990Z</time>
      </trkpt>
      <trkpt lat="42.465136" lon="-5.28806">
        <ele>870</ele>
        <time>2018-07-23T08:06:51.990Z</time>
      </trkpt>
      <trkpt lat="42.465153" lon="-5.288202">
        <ele>870</ele>
        <time>2018-07-23T08:06:54.000Z</time>
      </trkpt>
      <trkpt lat="42.465173" lon="-5.288347">
        <ele>870</ele>
        <time>2018-07-23T08:06:55.990Z</time>
      </trkpt>
      <trkpt lat="42.465191" lon="-5.288494">
        <ele>870</ele>
        <time>2018-07-23T08:06:57.990Z</time>
      </trkpt>
      <trkpt lat="42.465201" lon="-5.288645">
        <ele>870</ele>
        <time>2018-07-23T08:06:59.990Z</time>
      </trkpt>
      <trkpt lat="42.465213" lon="-5.288794">
        <ele>870</ele>
        <time>2018-07-23T08:07:01.990Z</time>
      </trkpt>
      <trkpt lat="42.465231" lon="-5.288948">
        <ele>870</ele>
        <time>2018-07-23T08:07:04.000Z</time>
      </trkpt>
      <trkpt lat="42.465256" lon="-5.289087">
        <ele>869</ele>
        <time>2018-07-23T08:07:05.990Z</time>
      </trkpt>
      <trkpt lat="42.46529" lon="-5.289219">
        <ele>869</ele>
        <time>2018-07-23T08:07:07.990Z</time>
      </trkpt>
      <trkpt lat="42.465324" lon="-5.28934">
        <ele>869</ele>
        <time>2018-07-23T08:07:09.990Z</time>
      </trkpt>
      <trkpt lat="42.465363" lon="-5.289459">
        <ele>869</ele>
        <time>2018-07-23T08:07:11.990Z</time>
      </trkpt>
      <trkpt lat="42.465405" lon="-5.289588">
        <ele>869</ele>
        <time>2018-07-23T08:07:14.000Z</time>
      </trkpt>
      <trkpt lat="42.465453" lon="-5.289724">
        <ele>868.683167313005</ele>
        <time>2018-07-23T08:07:15.990Z</time>
      </trkpt>
      <trkpt lat="42.465502" lon="-5.289863">
        <ele>868</ele>
        <time>2018-07-23T08:07:17.990Z</time>
      </trkpt>
      <trkpt lat="42.465561" lon="-5.289987">
        <ele>868</ele>
        <time>2018-07-23T08:07:19.990Z</time>
      </trkpt>
      <trkpt lat="42.465618" lon="-5.290109">
        <ele>868</ele>
        <time>2018-07-23T08:07:21.990Z</time>
      </trkpt>
      <trkpt lat="42.465666" lon="-5.290237">
        <ele>868</ele>
        <time>2018-07-23T08:07:24.000Z</time>
      </trkpt>
      <trkpt lat="42.46571" lon="-5.290378">
        <ele>867</ele>
        <time>2018-07-23T08:07:25.990Z</time>
      </trkpt>
      <trkpt lat="42.465743" lon="-5.290522">
        <ele>867.306126980395</ele>
        <time>2018-07-23T08:07:27.990Z</time>
      </trkpt>
      <trkpt lat="42.465782" lon="-5.290658">
        <ele>868</ele>
        <time>2018-07-23T08:07:29.990Z</time>
      </trkpt>
      <trkpt lat="42.465811" lon="-5.290802">
        <ele>868</ele>
        <time>2018-07-23T08:07:31.990Z</time>
      </trkpt>
      <trkpt lat="42.465838" lon="-5.29094">
        <ele>868</ele>
        <time>2018-07-23T08:07:34.000Z</time>
      </trkpt>
      <trkpt lat="42.465867" lon="-5.291081">
        <ele>868</ele>
        <time>2018-07-23T08:07:35.990Z</time>
      </trkpt>
      <trkpt lat="42.465896" lon="-5.29123">
        <ele>868</ele>
        <time>2018-07-23T08:07:37.990Z</time>
      </trkpt>
      <trkpt lat="42.465938" lon="-5.291383">
        <ele>868</ele>
        <time>2018-07-23T08:07:39.990Z</time>
      </trkpt>
      <trkpt lat="42.465972" lon="-5.291534">
        <ele>868</ele>
        <time>2018-07-23T08:07:41.990Z</time>
      </trkpt>
      <trkpt lat="42.466001" lon="-5.29168">
        <ele>868</ele>
        <time>2018-07-23T08:07:44.000Z</time>
      </trkpt>
      <trkpt lat="42.466019" lon="-5.291816">
        <ele>868</ele>
        <time>2018-07-23T08:07:45.990Z</time>
      </trkpt>
      <trkpt lat="42.466047" lon="-5.29194">
        <ele>868</ele>
        <time>2018-07-23T08:07:47.990Z</time>
      </trkpt>
      <trkpt lat="42.466077" lon="-5.292076">
        <ele>868</ele>
        <time>2018-07-23T08:07:49.990Z</time>
      </trkpt>
      <trkpt lat="42.4661" lon="-5.292213">
        <ele>868</ele>
        <time>2018-07-23T08:07:51.990Z</time>
      </trkpt>
      <trkpt lat="42.466117" lon="-5.292358">
        <ele>868</ele>
        <time>2018-07-23T08:07:54.990Z</time>
      </trkpt>
      <trkpt lat="42.466142" lon="-5.292499">
        <ele>869</ele>
        <time>2018-07-23T08:08:01.990Z</time>
      </trkpt>
      <trkpt lat="42.466232" lon="-5.29256">
        <ele>869</ele>
        <time>2018-07-23T08:08:06.990Z</time>
      </trkpt>
      <trkpt lat="42.466309" lon="-5.29264">
        <ele>869</ele>
        <time>2018-07-23T08:08:10.990Z</time>
      </trkpt>
      <trkpt lat="42.466396" lon="-5.292758">
        <ele>868</ele>
        <time>2018-07-23T08:08:14.990Z</time>
      </trkpt>
      <trkpt lat="42.466482" lon="-5.292864">
        <ele>868</ele>
        <time>2018-07-23T08:08:17.990Z</time>
      </trkpt>
      <trkpt lat="42.466565" lon="-5.292958">
        <ele>869</ele>
        <time>2018-07-23T08:08:20.990Z</time>
      </trkpt>
      <trkpt lat="42.466649" lon="-5.293069">
        <ele>869</ele>
        <time>2018-07-23T08:08:24.000Z</time>
      </trkpt>
      <trkpt lat="42.466732" lon="-5.293184">
        <ele>869</ele>
        <time>2018-07-23T08:08:26.990Z</time>
      </trkpt>
      <trkpt lat="42.466773" lon="-5.293331">
        <ele>869</ele>
        <time>2018-07-23T08:08:29.990Z</time>
      </trkpt>
      <trkpt lat="42.466791" lon="-5.293504">
        <ele>869</ele>
        <time>2018-07-23T08:08:32.990Z</time>
      </trkpt>
      <trkpt lat="42.4668" lon="-5.293641">
        <ele>869</ele>
        <time>2018-07-23T08:08:34.990Z</time>
      </trkpt>
      <trkpt lat="42.466807" lon="-5.293783">
        <ele>869</ele>
        <time>2018-07-23T08:08:36.990Z</time>
      </trkpt>
      <trkpt lat="42.466813" lon="-5.293929">
        <ele>869</ele>
        <time>2018-07-23T08:08:39.000Z</time>
      </trkpt>
      <trkpt lat="42.466825" lon="-5.294065">
        <ele>868.686866466694</ele>
        <time>2018-07-23T08:08:40.990Z</time>
      </trkpt>
      <trkpt lat="42.466835" lon="-5.294203">
        <ele>868</ele>
        <time>2018-07-23T08:08:42.990Z</time>
      </trkpt>
      <trkpt lat="42.466838" lon="-5.29433">
        <ele>868</ele>
        <time>2018-07-23T08:08:44.990Z</time>
      </trkpt>
      <trkpt lat="42.466852" lon="-5.294511">
        <ele>868</ele>
        <time>2018-07-23T08:08:47.990Z</time>
      </trkpt>
      <trkpt lat="42.46686" lon="-5.294641">
        <ele>868</ele>
        <time>2018-07-23T08:08:49.990Z</time>
      </trkpt>
      <trkpt lat="42.466863" lon="-5.294775">
        <ele>868</ele>
        <time>2018-07-23T08:08:51.990Z</time>
      </trkpt>
      <trkpt lat="42.46687" lon="-5.294912">
        <ele>868</ele>
        <time>2018-07-23T08:08:54.000Z</time>
      </trkpt>
      <trkpt lat="42.466881" lon="-5.295042">
        <ele>868</ele>
        <time>2018-07-23T08:08:55.990Z</time>
      </trkpt>
      <trkpt lat="42.466891" lon="-5.295169">
        <ele>868</ele>
        <time>2018-07-23T08:08:57.990Z</time>
      </trkpt>
      <trkpt lat="42.466907" lon="-5.295303">
        <ele>868</ele>
        <time>2018-07-23T08:08:59.990Z</time>
      </trkpt>
      <trkpt lat="42.466907" lon="-5.295431">
        <ele>868</ele>
        <time>2018-07-23T08:09:01.990Z</time>
      </trkpt>
      <trkpt lat="42.466917" lon="-5.295559">
        <ele>868</ele>
        <time>2018-07-23T08:09:04.000Z</time>
      </trkpt>
      <trkpt lat="42.466928" lon="-5.29574">
        <ele>868</ele>
        <time>2018-07-23T08:09:06.990Z</time>
      </trkpt>
      <trkpt lat="42.466936" lon="-5.295869">
        <ele>868.3299968</ele>
        <time>2018-07-23T08:09:09.000Z</time>
      </trkpt>
      <trkpt lat="42.466943" lon="-5.296051">
        <ele>869</ele>
        <time>2018-07-23T08:09:11.990Z</time>
      </trkpt>
      <trkpt lat="42.466955" lon="-5.296185">
        <ele>869</ele>
        <time>2018-07-23T08:09:14.000Z</time>
      </trkpt>
      <trkpt lat="42.466964" lon="-5.296362">
        <ele>869</ele>
        <time>2018-07-23T08:09:16.990Z</time>
      </trkpt>
      <trkpt lat="42.466967" lon="-5.296484">
        <ele>869</ele>
        <time>2018-07-23T08:09:19.000Z</time>
      </trkpt>
      <trkpt lat="42.466974" lon="-5.296665">
        <ele>869</ele>
        <time>2018-07-23T08:09:21.990Z</time>
      </trkpt>
      <trkpt lat="42.466982" lon="-5.29679">
        <ele>869</ele>
        <time>2018-07-23T08:09:24.000Z</time>
      </trkpt>
      <trkpt lat="42.46698" lon="-5.296912">
        <ele>869</ele>
        <time>2018-07-23T08:09:25.990Z</time>
      </trkpt>
      <trkpt lat="42.466983" lon="-5.297041">
        <ele>869</ele>
        <time>2018-07-23T08:09:27.990Z</time>
      </trkpt>
      <trkpt lat="42.466983" lon="-5.29717">
        <ele>869</ele>
        <time>2018-07-23T08:09:29.990Z</time>
      </trkpt>
      <trkpt lat="42.466986" lon="-5.297297">
        <ele>869</ele>
        <time>2018-07-23T08:09:31.990Z</time>
      </trkpt>
      <trkpt lat="42.466989" lon="-5.297426">
        <ele>869</ele>
        <time>2018-07-23T08:09:34.000Z</time>
      </trkpt>
      <trkpt lat="42.466993" lon="-5.297557">
        <ele>869</ele>
        <time>2018-07-23T08:09:35.990Z</time>
      </trkpt>
      <trkpt lat="42.466998" lon="-5.297691">
        <ele>869</ele>
        <time>2018-07-23T08:09:37.990Z</time>
      </trkpt>
      <trkpt lat="42.467004" lon="-5.297815">
        <ele>869</ele>
        <time>2018-07-23T08:09:39.990Z</time>
      </trkpt>
      <trkpt lat="42.467013" lon="-5.297993">
        <ele>869</ele>
        <time>2018-07-23T08:09:42.990Z</time>
      </trkpt>
      <trkpt lat="42.467024" lon="-5.298123">
        <ele>869</ele>
        <time>2018-07-23T08:09:44.990Z</time>
      </trkpt>
      <trkpt lat="42.467033" lon="-5.298253">
        <ele>869</ele>
        <time>2018-07-23T08:09:46.990Z</time>
      </trkpt>
      <trkpt lat="42.467047" lon="-5.298388">
        <ele>870</ele>
        <time>2018-07-23T08:09:49.000Z</time>
      </trkpt>
      <trkpt lat="42.467056" lon="-5.298515">
        <ele>870</ele>
        <time>2018-07-23T08:09:50.990Z</time>
      </trkpt>
      <trkpt lat="42.467066" lon="-5.298648">
        <ele>870</ele>
        <time>2018-07-23T08:09:52.990Z</time>
      </trkpt>
      <trkpt lat="42.467072" lon="-5.298783">
        <ele>869.68</ele>
        <time>2018-07-23T08:09:54.990Z</time>
      </trkpt>
      <trkpt lat="42.467078" lon="-5.298919">
        <ele>870</ele>
        <time>2018-07-23T08:09:56.990Z</time>
      </trkpt>
      <trkpt lat="42.467092" lon="-5.299058">
        <ele>870</ele>
        <time>2018-07-23T08:09:59.000Z</time>
      </trkpt>
      <trkpt lat="42.467095" lon="-5.299193">
        <ele>870</ele>
        <time>2018-07-23T08:10:00.990Z</time>
      </trkpt>
      <trkpt lat="42.467103" lon="-5.299328">
        <ele>870</ele>
        <time>2018-07-23T08:10:02.990Z</time>
      </trkpt>
      <trkpt lat="42.467118" lon="-5.299464">
        <ele>869</ele>
        <time>2018-07-23T08:10:04.990Z</time>
      </trkpt>
      <trkpt lat="42.467127" lon="-5.299597">
        <ele>870</ele>
        <time>2018-07-23T08:10:06.990Z</time>
      </trkpt>
      <trkpt lat="42.46714" lon="-5.299731">
        <ele>870</ele>
        <time>2018-07-23T08:10:09.000Z</time>
      </trkpt>
      <trkpt lat="42.467149" lon="-5.299857">
        <ele>869.68</ele>
        <time>2018-07-23T08:10:10.990Z</time>
      </trkpt>
      <trkpt lat="42.46716" lon="-5.299989">
        <ele>869</ele>
        <time>2018-07-23T08:10:12.990Z</time>
      </trkpt>
      <trkpt lat="42.467178" lon="-5.300124">
        <ele>870</ele>
        <time>2018-07-23T08:10:14.990Z</time>
      </trkpt>
      <trkpt lat="42.467187" lon="-5.300257">
        <ele>870</ele>
        <time>2018-07-23T08:10:16.990Z</time>
      </trkpt>
      <trkpt lat="42.4672" lon="-5.300392">
        <ele>870</ele>
        <time>2018-07-23T08:10:19.000Z</time>
      </trkpt>
      <trkpt lat="42.467212" lon="-5.300521">
        <ele>870</ele>
        <time>2018-07-23T08:10:20.990Z</time>
      </trkpt>
      <trkpt lat="42.467225" lon="-5.300645">
        <ele>870</ele>
        <time>2018-07-23T08:10:22.990Z</time>
      </trkpt>
      <trkpt lat="42.467237" lon="-5.300774">
        <ele>870</ele>
        <time>2018-07-23T08:10:24.990Z</time>
      </trkpt>
      <trkpt lat="42.467248" lon="-5.300898">
        <ele>870</ele>
        <time>2018-07-23T08:10:26.990Z</time>
      </trkpt>
      <trkpt lat="42.467265" lon="-5.301025">
        <ele>870</ele>
        <time>2018-07-23T08:10:29.000Z</time>
      </trkpt>
      <trkpt lat="42.467275" lon="-5.301147">
        <ele>869.686866466694</ele>
        <time>2018-07-23T08:10:30.990Z</time>
      </trkpt>
      <trkpt lat="42.467286" lon="-5.301272">
        <ele>869</ele>
        <time>2018-07-23T08:10:32.990Z</time>
      </trkpt>
      <trkpt lat="42.4673" lon="-5.301405">
        <ele>869</ele>
        <time>2018-07-23T08:10:34.990Z</time>
      </trkpt>
      <trkpt lat="42.467314" lon="-5.301538">
        <ele>869</ele>
        <time>2018-07-23T08:10:36.990Z</time>
      </trkpt>
      <trkpt lat="42.46734" lon="-5.301675">
        <ele>869</ele>
        <time>2018-07-23T08:10:39.000Z</time>
      </trkpt>
      <trkpt lat="42.467367" lon="-5.301804">
        <ele>869</ele>
        <time>2018-07-23T08:10:40.990Z</time>
      </trkpt>
      <trkpt lat="42.467399" lon="-5.301937">
        <ele>869</ele>
        <time>2018-07-23T08:10:42.990Z</time>
      </trkpt>
      <trkpt lat="42.467431" lon="-5.302064">
        <ele>869</ele>
        <time>2018-07-23T08:10:44.990Z</time>
      </trkpt>
      <trkpt lat="42.467464" lon="-5.302189">
        <ele>869</ele>
        <time>2018-07-23T08:10:46.990Z</time>
      </trkpt>
      <trkpt lat="42.467489" lon="-5.302316">
        <ele>869</ele>
        <time>2018-07-23T08:10:49.000Z</time>
      </trkpt>
      <trkpt lat="42.46752" lon="-5.302443">
        <ele>869</ele>
        <time>2018-07-23T08:10:50.990Z</time>
      </trkpt>
      <trkpt lat="42.467549" lon="-5.30257">
        <ele>869</ele>
        <time>2018-07-23T08:10:52.990Z</time>
      </trkpt>
      <trkpt lat="42.46759" lon="-5.302699">
        <ele>869</ele>
        <time>2018-07-23T08:10:54.990Z</time>
      </trkpt>
      <trkpt lat="42.467638" lon="-5.302834">
        <ele>868.693873019605</ele>
        <time>2018-07-23T08:10:56.990Z</time>
      </trkpt>
      <trkpt lat="42.467684" lon="-5.302975">
        <ele>868</ele>
        <time>2018-07-23T08:10:59.000Z</time>
      </trkpt>
      <trkpt lat="42.467734" lon="-5.303112">
        <ele>868</ele>
        <time>2018-07-23T08:11:00.990Z</time>
      </trkpt>
      <trkpt lat="42.46778" lon="-5.303241">
        <ele>868</ele>
        <time>2018-07-23T08:11:02.990Z</time>
      </trkpt>
      <trkpt lat="42.467824" lon="-5.30337">
        <ele>868</ele>
        <time>2018-07-23T08:11:04.990Z</time>
      </trkpt>
      <trkpt lat="42.467864" lon="-5.303486">
        <ele>868</ele>
        <time>2018-07-23T08:11:06.990Z</time>
      </trkpt>
      <trkpt lat="42.467905" lon="-5.303604">
        <ele>868</ele>
        <time>2018-07-23T08:11:09.000Z</time>
      </trkpt>
      <trkpt lat="42.467948" lon="-5.303731">
        <ele>868</ele>
        <time>2018-07-23T08:11:10.990Z</time>
      </trkpt>
      <trkpt lat="42.467989" lon="-5.303856">
        <ele>868</ele>
        <time>2018-07-23T08:11:12.990Z</time>
      </trkpt>
      <trkpt lat="42.468029" lon="-5.303985">
        <ele>868</ele>
        <time>2018-07-23T08:11:14.990Z</time>
      </trkpt>
      <trkpt lat="42.468068" lon="-5.304113">
        <ele>868</ele>
        <time>2018-07-23T08:11:16.990Z</time>
      </trkpt>
      <trkpt lat="42.468108" lon="-5.304248">
        <ele>868</ele>
        <time>2018-07-23T08:11:19.000Z</time>
      </trkpt>
      <trkpt lat="42.468149" lon="-5.304384">
        <ele>868</ele>
        <time>2018-07-23T08:11:20.990Z</time>
      </trkpt>
      <trkpt lat="42.468195" lon="-5.304519">
        <ele>868</ele>
        <time>2018-07-23T08:11:22.990Z</time>
      </trkpt>
      <trkpt lat="42.468235" lon="-5.304647">
        <ele>867.75572578754</ele>
        <time>2018-07-23T08:11:24.990Z</time>
      </trkpt>
      <trkpt lat="42.468278" lon="-5.30478">
        <ele>867</ele>
        <time>2018-07-23T08:11:26.990Z</time>
      </trkpt>
      <trkpt lat="42.468326" lon="-5.304929">
        <ele>867</ele>
        <time>2018-07-23T08:11:29.000Z</time>
      </trkpt>
      <trkpt lat="42.468367" lon="-5.30507">
        <ele>867</ele>
        <time>2018-07-23T08:11:30.990Z</time>
      </trkpt>
      <trkpt lat="42.468414" lon="-5.305194">
        <ele>867</ele>
        <time>2018-07-23T08:11:32.990Z</time>
      </trkpt>
      <trkpt lat="42.468456" lon="-5.305323">
        <ele>867</ele>
        <time>2018-07-23T08:11:34.990Z</time>
      </trkpt>
      <trkpt lat="42.468496" lon="-5.305452">
        <ele>867</ele>
        <time>2018-07-23T08:11:36.990Z</time>
      </trkpt>
      <trkpt lat="42.468533" lon="-5.30559">
        <ele>867</ele>
        <time>2018-07-23T08:11:39.000Z</time>
      </trkpt>
      <trkpt lat="42.468577" lon="-5.305728">
        <ele>867</ele>
        <time>2018-07-23T08:11:40.990Z</time>
      </trkpt>
      <trkpt lat="42.468625" lon="-5.305856">
        <ele>867</ele>
        <time>2018-07-23T08:11:42.990Z</time>
      </trkpt>
      <trkpt lat="42.468673" lon="-5.305984">
        <ele>867</ele>
        <time>2018-07-23T08:11:44.990Z</time>
      </trkpt>
      <trkpt lat="42.468717" lon="-5.306114">
        <ele>867</ele>
        <time>2018-07-23T08:11:46.990Z</time>
      </trkpt>
      <trkpt lat="42.468765" lon="-5.306254">
        <ele>867</ele>
        <time>2018-07-23T08:11:49.000Z</time>
      </trkpt>
      <trkpt lat="42.468812" lon="-5.306389">
        <ele>867</ele>
        <time>2018-07-23T08:11:50.990Z</time>
      </trkpt>
      <trkpt lat="42.468869" lon="-5.306531">
        <ele>866.68</ele>
        <time>2018-07-23T08:11:52.990Z</time>
      </trkpt>
      <trkpt lat="42.468921" lon="-5.306678">
        <ele>866</ele>
        <time>2018-07-23T08:11:54.990Z</time>
      </trkpt>
      <trkpt lat="42.468967" lon="-5.306813">
        <ele>865.683167313005</ele>
        <time>2018-07-23T08:11:56.990Z</time>
      </trkpt>
      <trkpt lat="42.469018" lon="-5.306958">
        <ele>865</ele>
        <time>2018-07-23T08:11:59.000Z</time>
      </trkpt>
      <trkpt lat="42.469065" lon="-5.307099">
        <ele>865</ele>
        <time>2018-07-23T08:12:00.990Z</time>
      </trkpt>
      <trkpt lat="42.469109" lon="-5.30723">
        <ele>865</ele>
        <time>2018-07-23T08:12:02.990Z</time>
      </trkpt>
      <trkpt lat="42.469149" lon="-5.307361">
        <ele>865</ele>
        <time>2018-07-23T08:12:04.990Z</time>
      </trkpt>
      <trkpt lat="42.46919" lon="-5.307483">
        <ele>865.32</ele>
        <time>2018-07-23T08:12:06.990Z</time>
      </trkpt>
      <trkpt lat="42.469228" lon="-5.307615">
        <ele>866</ele>
        <time>2018-07-23T08:12:09.000Z</time>
      </trkpt>
      <trkpt lat="42.469272" lon="-5.307744">
        <ele>865</ele>
        <time>2018-07-23T08:12:10.990Z</time>
      </trkpt>
      <trkpt lat="42.469304" lon="-5.307868">
        <ele>865</ele>
        <time>2018-07-23T08:12:12.990Z</time>
      </trkpt>
      <trkpt lat="42.469354" lon="-5.308001">
        <ele>865</ele>
        <time>2018-07-23T08:12:14.990Z</time>
      </trkpt>
      <trkpt lat="42.469398" lon="-5.308135">
        <ele>865</ele>
        <time>2018-07-23T08:12:16.990Z</time>
      </trkpt>
      <trkpt lat="42.469437" lon="-5.308276">
        <ele>865</ele>
        <time>2018-07-23T08:12:19.000Z</time>
      </trkpt>
      <trkpt lat="42.46948" lon="-5.308417">
        <ele>865</ele>
        <time>2018-07-23T08:12:20.990Z</time>
      </trkpt>
      <trkpt lat="42.469528" lon="-5.308552">
        <ele>865</ele>
        <time>2018-07-23T08:12:22.990Z</time>
      </trkpt>
      <trkpt lat="42.469567" lon="-5.308688">
        <ele>865</ele>
        <time>2018-07-23T08:12:24.990Z</time>
      </trkpt>
      <trkpt lat="42.469603" lon="-5.308819">
        <ele>865</ele>
        <time>2018-07-23T08:12:26.990Z</time>
      </trkpt>
      <trkpt lat="42.469648" lon="-5.308961">
        <ele>864.6700032</ele>
        <time>2018-07-23T08:12:29.000Z</time>
      </trkpt>
      <trkpt lat="42.469689" lon="-5.309094">
        <ele>864</ele>
        <time>2018-07-23T08:12:30.990Z</time>
      </trkpt>
      <trkpt lat="42.469733" lon="-5.309234">
        <ele>863.68</ele>
        <time>2018-07-23T08:12:32.990Z</time>
      </trkpt>
      <trkpt lat="42.469779" lon="-5.309382">
        <ele>863</ele>
        <time>2018-07-23T08:12:34.990Z</time>
      </trkpt>
      <trkpt lat="42.469827" lon="-5.309522">
        <ele>863</ele>
        <time>2018-07-23T08:12:36.990Z</time>
      </trkpt>
      <trkpt lat="42.469872" lon="-5.309669">
        <ele>862</ele>
        <time>2018-07-23T08:12:39.000Z</time>
      </trkpt>
      <trkpt lat="42.469923" lon="-5.309815">
        <ele>861.753844942006</ele>
        <time>2018-07-23T08:12:40.990Z</time>
      </trkpt>
      <trkpt lat="42.469965" lon="-5.309951">
        <ele>861</ele>
        <time>2018-07-23T08:12:42.990Z</time>
      </trkpt>
      <trkpt lat="42.470014" lon="-5.31009">
        <ele>861</ele>
        <time>2018-07-23T08:12:44.990Z</time>
      </trkpt>
      <trkpt lat="42.470071" lon="-5.310231">
        <ele>861</ele>
        <time>2018-07-23T08:12:46.990Z</time>
      </trkpt>
      <trkpt lat="42.470126" lon="-5.310367">
        <ele>861</ele>
        <time>2018-07-23T08:12:49.000Z</time>
      </trkpt>
      <trkpt lat="42.470184" lon="-5.3105">
        <ele>861</ele>
        <time>2018-07-23T08:12:50.990Z</time>
      </trkpt>
      <trkpt lat="42.47024" lon="-5.310628">
        <ele>860.68</ele>
        <time>2018-07-23T08:12:52.990Z</time>
      </trkpt>
      <trkpt lat="42.470288" lon="-5.310765">
        <ele>860</ele>
        <time>2018-07-23T08:12:54.990Z</time>
      </trkpt>
      <trkpt lat="42.470347" lon="-5.3109">
        <ele>860</ele>
        <time>2018-07-23T08:12:56.990Z</time>
      </trkpt>
      <trkpt lat="42.470407" lon="-5.311024">
        <ele>860</ele>
        <time>2018-07-23T08:12:59.000Z</time>
      </trkpt>
      <trkpt lat="42.470461" lon="-5.311137">
        <ele>860</ele>
        <time>2018-07-23T08:13:00.990Z</time>
      </trkpt>
      <trkpt lat="42.47051" lon="-5.31125">
        <ele>860</ele>
        <time>2018-07-23T08:13:02.990Z</time>
      </trkpt>
      <trkpt lat="42.470555" lon="-5.311361">
        <ele>860</ele>
        <time>2018-07-23T08:13:04.990Z</time>
      </trkpt>
      <trkpt lat="42.4706" lon="-5.311477">
        <ele>860</ele>
        <time>2018-07-23T08:13:06.990Z</time>
      </trkpt>
      <trkpt lat="42.470649" lon="-5.311598">
        <ele>860</ele>
        <time>2018-07-23T08:13:09.000Z</time>
      </trkpt>
      <trkpt lat="42.470693" lon="-5.311722">
        <ele>860</ele>
        <time>2018-07-23T08:13:10.990Z</time>
      </trkpt>
      <trkpt lat="42.470742" lon="-5.311847">
        <ele>860</ele>
        <time>2018-07-23T08:13:12.990Z</time>
      </trkpt>
      <trkpt lat="42.470792" lon="-5.311981">
        <ele>860</ele>
        <time>2018-07-23T08:13:14.990Z</time>
      </trkpt>
      <trkpt lat="42.470849" lon="-5.312112">
        <ele>860</ele>
        <time>2018-07-23T08:13:16.990Z</time>
      </trkpt>
      <trkpt lat="42.470904" lon="-5.312251">
        <ele>860</ele>
        <time>2018-07-23T08:13:19.000Z</time>
      </trkpt>
      <trkpt lat="42.470961" lon="-5.312379">
        <ele>860</ele>
        <time>2018-07-23T08:13:20.990Z</time>
      </trkpt>
      <trkpt lat="42.471022" lon="-5.312502">
        <ele>860</ele>
        <time>2018-07-23T08:13:22.990Z</time>
      </trkpt>
      <trkpt lat="42.471073" lon="-5.312623">
        <ele>860</ele>
        <time>2018-07-23T08:13:24.990Z</time>
      </trkpt>
      <trkpt lat="42.471125" lon="-5.312746">
        <ele>860</ele>
        <time>2018-07-23T08:13:26.990Z</time>
      </trkpt>
      <trkpt lat="42.471172" lon="-5.312873">
        <ele>860</ele>
        <time>2018-07-23T08:13:29.000Z</time>
      </trkpt>
      <trkpt lat="42.471216" lon="-5.31299">
        <ele>860</ele>
        <time>2018-07-23T08:13:30.990Z</time>
      </trkpt>
      <trkpt lat="42.471264" lon="-5.3131">
        <ele>860</ele>
        <time>2018-07-23T08:13:32.990Z</time>
      </trkpt>
      <trkpt lat="42.471312" lon="-5.313212">
        <ele>860</ele>
        <time>2018-07-23T08:13:34.990Z</time>
      </trkpt>
      <trkpt lat="42.471361" lon="-5.31333">
        <ele>860</ele>
        <time>2018-07-23T08:13:36.990Z</time>
      </trkpt>
      <trkpt lat="42.47141" lon="-5.313449">
        <ele>860.042861322411</ele>
        <time>2018-07-23T08:13:39.000Z</time>
      </trkpt>
      <trkpt lat="42.471458" lon="-5.313562">
        <ele>861</ele>
        <time>2018-07-23T08:13:40.990Z</time>
      </trkpt>
      <trkpt lat="42.471505" lon="-5.313678">
        <ele>861</ele>
        <time>2018-07-23T08:13:42.990Z</time>
      </trkpt>
      <trkpt lat="42.471556" lon="-5.313802">
        <ele>861</ele>
        <time>2018-07-23T08:13:44.990Z</time>
      </trkpt>
      <trkpt lat="42.471606" lon="-5.313916">
        <ele>860.68</ele>
        <time>2018-07-23T08:13:46.990Z</time>
      </trkpt>
      <trkpt lat="42.471661" lon="-5.314032">
        <ele>860</ele>
        <time>2018-07-23T08:13:49.000Z</time>
      </trkpt>
      <trkpt lat="42.471713" lon="-5.314146">
        <ele>860</ele>
        <time>2018-07-23T08:13:50.990Z</time>
      </trkpt>
      <trkpt lat="42.471761" lon="-5.314262">
        <ele>860.992483590938</ele>
        <time>2018-07-23T08:13:52.990Z</time>
      </trkpt>
      <trkpt lat="42.471807" lon="-5.314376">
        <ele>861</ele>
        <time>2018-07-23T08:13:54.990Z</time>
      </trkpt>
      <trkpt lat="42.471855" lon="-5.31449">
        <ele>860</ele>
        <time>2018-07-23T08:13:56.990Z</time>
      </trkpt>
      <trkpt lat="42.471899" lon="-5.314607">
        <ele>860</ele>
        <time>2018-07-23T08:13:59.000Z</time>
      </trkpt>
      <trkpt lat="42.47195" lon="-5.314723">
        <ele>860</ele>
        <time>2018-07-23T08:14:00.990Z</time>
      </trkpt>
      <trkpt lat="42.471997" lon="-5.314833">
        <ele>861</ele>
        <time>2018-07-23T08:14:02.990Z</time>
      </trkpt>
      <trkpt lat="42.472045" lon="-5.314947">
        <ele>860.68</ele>
        <time>2018-07-23T08:14:04.990Z</time>
      </trkpt>
      <trkpt lat="42.472096" lon="-5.315061">
        <ele>860</ele>
        <time>2018-07-23T08:14:06.990Z</time>
      </trkpt>
      <trkpt lat="42.472138" lon="-5.315181">
        <ele>860</ele>
        <time>2018-07-23T08:14:09.000Z</time>
      </trkpt>
      <trkpt lat="42.472188" lon="-5.315298">
        <ele>860</ele>
        <time>2018-07-23T08:14:10.990Z</time>
      </trkpt>
      <trkpt lat="42.472242" lon="-5.315419">
        <ele>860</ele>
        <time>2018-07-23T08:14:12.990Z</time>
      </trkpt>
      <trkpt lat="42.472299" lon="-5.315546">
        <ele>860</ele>
        <time>2018-07-23T08:14:14.990Z</time>
      </trkpt>
      <trkpt lat="42.472349" lon="-5.31568">
        <ele>860</ele>
        <time>2018-07-23T08:14:16.990Z</time>
      </trkpt>
      <trkpt lat="42.472403" lon="-5.315816">
        <ele>860</ele>
        <time>2018-07-23T08:14:19.000Z</time>
      </trkpt>
      <trkpt lat="42.472452" lon="-5.315945">
        <ele>860</ele>
        <time>2018-07-23T08:14:20.990Z</time>
      </trkpt>
      <trkpt lat="42.472494" lon="-5.316068">
        <ele>860</ele>
        <time>2018-07-23T08:14:22.990Z</time>
      </trkpt>
      <trkpt lat="42.472539" lon="-5.316208">
        <ele>860</ele>
        <time>2018-07-23T08:14:24.990Z</time>
      </trkpt>
      <trkpt lat="42.47259" lon="-5.316337">
        <ele>860</ele>
        <time>2018-07-23T08:14:26.990Z</time>
      </trkpt>
      <trkpt lat="42.472632" lon="-5.316466">
        <ele>860</ele>
        <time>2018-07-23T08:14:29.000Z</time>
      </trkpt>
      <trkpt lat="42.472676" lon="-5.316598">
        <ele>860</ele>
        <time>2018-07-23T08:14:30.990Z</time>
      </trkpt>
      <trkpt lat="42.472718" lon="-5.316726">
        <ele>860</ele>
        <time>2018-07-23T08:14:32.990Z</time>
      </trkpt>
      <trkpt lat="42.472776" lon="-5.316855">
        <ele>860</ele>
        <time>2018-07-23T08:14:34.990Z</time>
      </trkpt>
      <trkpt lat="42.472823" lon="-5.316991">
        <ele>860</ele>
        <time>2018-07-23T08:14:36.990Z</time>
      </trkpt>
      <trkpt lat="42.472871" lon="-5.317124">
        <ele>860</ele>
        <time>2018-07-23T08:14:39.000Z</time>
      </trkpt>
      <trkpt lat="42.472911" lon="-5.317253">
        <ele>860</ele>
        <time>2018-07-23T08:14:40.990Z</time>
      </trkpt>
      <trkpt lat="42.472956" lon="-5.317376">
        <ele>860</ele>
        <time>2018-07-23T08:14:42.990Z</time>
      </trkpt>
      <trkpt lat="42.473005" lon="-5.317509">
        <ele>860</ele>
        <time>2018-07-23T08:14:44.990Z</time>
      </trkpt>
      <trkpt lat="42.473048" lon="-5.317638">
        <ele>860</ele>
        <time>2018-07-23T08:14:46.990Z</time>
      </trkpt>
      <trkpt lat="42.473097" lon="-5.317771">
        <ele>860</ele>
        <time>2018-07-23T08:14:49.000Z</time>
      </trkpt>
      <trkpt lat="42.473136" lon="-5.317888">
        <ele>860</ele>
        <time>2018-07-23T08:14:50.990Z</time>
      </trkpt>
      <trkpt lat="42.473186" lon="-5.318056">
        <ele>860</ele>
        <time>2018-07-23T08:14:54.000Z</time>
      </trkpt>
      <trkpt lat="42.473231" lon="-5.31819">
        <ele>860</ele>
        <time>2018-07-23T08:14:56.990Z</time>
      </trkpt>
      <trkpt lat="42.473264" lon="-5.318323">
        <ele>860</ele>
        <time>2018-07-23T08:14:59.990Z</time>
      </trkpt>
      <trkpt lat="42.473301" lon="-5.318437">
        <ele>859</ele>
        <time>2018-07-23T08:15:01.990Z</time>
      </trkpt>
      <trkpt lat="42.473341" lon="-5.31856">
        <ele>859</ele>
        <time>2018-07-23T08:15:04.000Z</time>
      </trkpt>
      <trkpt lat="42.473394" lon="-5.318723">
        <ele>859</ele>
        <time>2018-07-23T08:15:06.990Z</time>
      </trkpt>
      <trkpt lat="42.473433" lon="-5.318833">
        <ele>859</ele>
        <time>2018-07-23T08:15:09.000Z</time>
      </trkpt>
      <trkpt lat="42.473476" lon="-5.318955">
        <ele>859</ele>
        <time>2018-07-23T08:15:10.990Z</time>
      </trkpt>
      <trkpt lat="42.47353" lon="-5.319112">
        <ele>859</ele>
        <time>2018-07-23T08:15:14.000Z</time>
      </trkpt>
      <trkpt lat="42.473592" lon="-5.319259">
        <ele>860</ele>
        <time>2018-07-23T08:15:16.990Z</time>
      </trkpt>
      <trkpt lat="42.473649" lon="-5.319416">
        <ele>860</ele>
        <time>2018-07-23T08:15:19.990Z</time>
      </trkpt>
      <trkpt lat="42.47371" lon="-5.319575">
        <ele>860</ele>
        <time>2018-07-23T08:15:22.990Z</time>
      </trkpt>
      <trkpt lat="42.473753" lon="-5.319701">
        <ele>860</ele>
        <time>2018-07-23T08:15:24.990Z</time>
      </trkpt>
      <trkpt lat="42.473793" lon="-5.319823">
        <ele>860</ele>
        <time>2018-07-23T08:15:26.990Z</time>
      </trkpt>
      <trkpt lat="42.473828" lon="-5.319956">
        <ele>860</ele>
        <time>2018-07-23T08:15:29.000Z</time>
      </trkpt>
      <trkpt lat="42.473866" lon="-5.320097">
        <ele>860</ele>
        <time>2018-07-23T08:15:30.990Z</time>
      </trkpt>
      <trkpt lat="42.473893" lon="-5.32024">
        <ele>860</ele>
        <time>2018-07-23T08:15:32.990Z</time>
      </trkpt>
      <trkpt lat="42.473916" lon="-5.320387">
        <ele>859</ele>
        <time>2018-07-23T08:15:34.990Z</time>
      </trkpt>
      <trkpt lat="42.473943" lon="-5.320522">
        <ele>859</ele>
        <time>2018-07-23T08:15:36.990Z</time>
      </trkpt>
      <trkpt lat="42.473972" lon="-5.320657">
        <ele>859</ele>
        <time>2018-07-23T08:15:39.000Z</time>
      </trkpt>
      <trkpt lat="42.473999" lon="-5.320794">
        <ele>859</ele>
        <time>2018-07-23T08:15:41.000Z</time>
      </trkpt>
      <trkpt lat="42.474046" lon="-5.320935">
        <ele>859</ele>
        <time>2018-07-23T08:15:43.000Z</time>
      </trkpt>
      <trkpt lat="42.474115" lon="-5.321077">
        <ele>858.6700032</ele>
        <time>2018-07-23T08:15:45.000Z</time>
      </trkpt>
      <trkpt lat="42.474213" lon="-5.321209">
        <ele>857</ele>
        <time>2018-07-23T08:15:47.000Z</time>
      </trkpt>
      <trkpt lat="42.47432" lon="-5.321341">
        <ele>856.6700032</ele>
        <time>2018-07-23T08:15:49.000Z</time>
      </trkpt>
      <trkpt lat="42.474407" lon="-5.32151">
        <ele>855</ele>
        <time>2018-07-23T08:15:51.000Z</time>
      </trkpt>
      <trkpt lat="42.474471" lon="-5.321719">
        <ele>854</ele>
        <time>2018-07-23T08:15:53.000Z</time>
      </trkpt>
      <trkpt lat="42.47452" lon="-5.321955">
        <ele>852.673269459864</ele>
        <time>2018-07-23T08:15:55.000Z</time>
      </trkpt>
      <trkpt lat="42.474546" lon="-5.322075">
        <ele>851.757575757576</ele>
        <time>2018-07-23T08:15:56.000Z</time>
      </trkpt>
      <trkpt lat="42.474577" lon="-5.322197">
        <ele>851</ele>
        <time>2018-07-23T08:15:57.000Z</time>
      </trkpt>
      <trkpt lat="42.474613" lon="-5.322316">
        <ele>849.6700032</ele>
        <time>2018-07-23T08:15:58.000Z</time>
      </trkpt>
      <trkpt lat="42.474655" lon="-5.32243">
        <ele>848.6700032</ele>
        <time>2018-07-23T08:15:59.000Z</time>
      </trkpt>
      <trkpt lat="42.474748" lon="-5.322634">
        <ele>848</ele>
        <time>2018-07-23T08:16:01.000Z</time>
      </trkpt>
      <trkpt lat="42.474854" lon="-5.32281">
        <ele>848.3299968</ele>
        <time>2018-07-23T08:16:03.000Z</time>
      </trkpt>
      <trkpt lat="42.474963" lon="-5.322962">
        <ele>849</ele>
        <time>2018-07-23T08:16:05.000Z</time>
      </trkpt>
      <trkpt lat="42.475064" lon="-5.323102">
        <ele>849</ele>
        <time>2018-07-23T08:16:07.000Z</time>
      </trkpt>
      <trkpt lat="42.475162" lon="-5.323225">
        <ele>849</ele>
        <time>2018-07-23T08:16:09.000Z</time>
      </trkpt>
      <trkpt lat="42.475255" lon="-5.32334">
        <ele>849</ele>
        <time>2018-07-23T08:16:11.000Z</time>
      </trkpt>
      <trkpt lat="42.47534" lon="-5.323445">
        <ele>849</ele>
        <time>2018-07-23T08:16:13.000Z</time>
      </trkpt>
      <trkpt lat="42.475427" lon="-5.323527">
        <ele>849</ele>
        <time>2018-07-23T08:16:15.000Z</time>
      </trkpt>
      <trkpt lat="42.475518" lon="-5.323583">
        <ele>850</ele>
        <time>2018-07-23T08:16:17.000Z</time>
      </trkpt>
      <trkpt lat="42.475604" lon="-5.323624">
        <ele>850</ele>
        <time>2018-07-23T08:16:19.000Z</time>
      </trkpt>
      <trkpt lat="42.475722" lon="-5.323675">
        <ele>850</ele>
        <time>2018-07-23T08:16:22.000Z</time>
      </trkpt>
      <trkpt lat="42.475808" lon="-5.323717">
        <ele>850</ele>
        <time>2018-07-23T08:16:24.000Z</time>
      </trkpt>
      <trkpt lat="42.475893" lon="-5.323759">
        <ele>850</ele>
        <time>2018-07-23T08:16:26.000Z</time>
      </trkpt>
      <trkpt lat="42.476" lon="-5.323815">
        <ele>851.206248</ele>
        <time>2018-07-23T08:16:29.000Z</time>
      </trkpt>
      <trkpt lat="42.476094" lon="-5.323878">
        <ele>853.3299968</ele>
        <time>2018-07-23T08:16:32.000Z</time>
      </trkpt>
      <trkpt lat="42.47618" lon="-5.323948">
        <ele>854</ele>
        <time>2018-07-23T08:16:35.000Z</time>
      </trkpt>
      <trkpt lat="42.47626" lon="-5.324033">
        <ele>855</ele>
        <time>2018-07-23T08:16:38.000Z</time>
      </trkpt>
      <trkpt lat="42.476338" lon="-5.324121">
        <ele>856.3299968</ele>
        <time>2018-07-23T08:16:41.000Z</time>
      </trkpt>
      <trkpt lat="42.476414" lon="-5.324241">
        <ele>858</ele>
        <time>2018-07-23T08:16:44.990Z</time>
      </trkpt>
      <trkpt lat="42.47646" lon="-5.324348">
        <ele>858</ele>
        <time>2018-07-23T08:16:47.990Z</time>
      </trkpt>
      <trkpt lat="42.476497" lon="-5.324481">
        <ele>858.32</ele>
        <time>2018-07-23T08:16:50.990Z</time>
      </trkpt>
      <trkpt lat="42.47652" lon="-5.324627">
        <ele>859</ele>
        <time>2018-07-23T08:16:54.000Z</time>
      </trkpt>
      <trkpt lat="42.476542" lon="-5.324793">
        <ele>859</ele>
        <time>2018-07-23T08:16:56.990Z</time>
      </trkpt>
      <trkpt lat="42.476561" lon="-5.324957">
        <ele>859</ele>
        <time>2018-07-23T08:16:59.990Z</time>
      </trkpt>
      <trkpt lat="42.476586" lon="-5.325106">
        <ele>859</ele>
        <time>2018-07-23T08:17:02.990Z</time>
      </trkpt>
      <trkpt lat="42.476609" lon="-5.325243">
        <ele>859</ele>
        <time>2018-07-23T08:17:05.990Z</time>
      </trkpt>
      <trkpt lat="42.476622" lon="-5.325379">
        <ele>859</ele>
        <time>2018-07-23T08:17:09.000Z</time>
      </trkpt>
      <trkpt lat="42.476644" lon="-5.325513">
        <ele>859</ele>
        <time>2018-07-23T08:17:11.990Z</time>
      </trkpt>
      <trkpt lat="42.476665" lon="-5.325663">
        <ele>859</ele>
        <time>2018-07-23T08:17:14.990Z</time>
      </trkpt>
      <trkpt lat="42.476698" lon="-5.325837">
        <ele>858</ele>
        <time>2018-07-23T08:17:17.990Z</time>
      </trkpt>
      <trkpt lat="42.476718" lon="-5.325998">
        <ele>858</ele>
        <time>2018-07-23T08:17:20.990Z</time>
      </trkpt>
      <trkpt lat="42.476744" lon="-5.326144">
        <ele>858</ele>
        <time>2018-07-23T08:17:24.000Z</time>
      </trkpt>
      <trkpt lat="42.476764" lon="-5.326263">
        <ele>858</ele>
        <time>2018-07-23T08:17:26.990Z</time>
      </trkpt>
      <trkpt lat="42.476777" lon="-5.326403">
        <ele>859</ele>
        <time>2018-07-23T08:17:29.990Z</time>
      </trkpt>
      <trkpt lat="42.476777" lon="-5.326541">
        <ele>859</ele>
        <time>2018-07-23T08:17:32.990Z</time>
      </trkpt>
      <trkpt lat="42.476791" lon="-5.326671">
        <ele>859</ele>
        <time>2018-07-23T08:17:34.990Z</time>
      </trkpt>
      <trkpt lat="42.476804" lon="-5.326797">
        <ele>859</ele>
        <time>2018-07-23T08:17:36.990Z</time>
      </trkpt>
      <trkpt lat="42.476823" lon="-5.326921">
        <ele>859</ele>
        <time>2018-07-23T08:17:39.000Z</time>
      </trkpt>
      <trkpt lat="42.476845" lon="-5.327089">
        <ele>859</ele>
        <time>2018-07-23T08:17:41.990Z</time>
      </trkpt>
      <trkpt lat="42.476862" lon="-5.327251">
        <ele>859</ele>
        <time>2018-07-23T08:17:44.990Z</time>
      </trkpt>
      <trkpt lat="42.476882" lon="-5.327411">
        <ele>858</ele>
        <time>2018-07-23T08:17:47.990Z</time>
      </trkpt>
      <trkpt lat="42.476907" lon="-5.32759">
        <ele>858</ele>
        <time>2018-07-23T08:17:50.990Z</time>
      </trkpt>
      <trkpt lat="42.476927" lon="-5.327755">
        <ele>858</ele>
        <time>2018-07-23T08:17:54.000Z</time>
      </trkpt>
      <trkpt lat="42.476954" lon="-5.327911">
        <ele>858</ele>
        <time>2018-07-23T08:17:56.990Z</time>
      </trkpt>
      <trkpt lat="42.476975" lon="-5.328072">
        <ele>858</ele>
        <time>2018-07-23T08:17:59.990Z</time>
      </trkpt>
      <trkpt lat="42.477004" lon="-5.328217">
        <ele>858</ele>
        <time>2018-07-23T08:18:02.990Z</time>
      </trkpt>
      <trkpt lat="42.477052" lon="-5.328385">
        <ele>858</ele>
        <time>2018-07-23T08:18:05.990Z</time>
      </trkpt>
      <trkpt lat="42.477092" lon="-5.328508">
        <ele>858</ele>
        <time>2018-07-23T08:18:07.990Z</time>
      </trkpt>
      <trkpt lat="42.47714" lon="-5.32863">
        <ele>857</ele>
        <time>2018-07-23T08:18:09.990Z</time>
      </trkpt>
      <trkpt lat="42.477183" lon="-5.328766">
        <ele>857</ele>
        <time>2018-07-23T08:18:11.990Z</time>
      </trkpt>
      <trkpt lat="42.477202" lon="-5.328892">
        <ele>857</ele>
        <time>2018-07-23T08:18:14.000Z</time>
      </trkpt>
      <trkpt lat="42.477196" lon="-5.32902">
        <ele>857</ele>
        <time>2018-07-23T08:18:15.990Z</time>
      </trkpt>
      <trkpt lat="42.477175" lon="-5.329144">
        <ele>857</ele>
        <time>2018-07-23T08:18:17.990Z</time>
      </trkpt>
      <trkpt lat="42.477126" lon="-5.329297">
        <ele>858</ele>
        <time>2018-07-23T08:18:20.990Z</time>
      </trkpt>
      <trkpt lat="42.477054" lon="-5.329432">
        <ele>858</ele>
        <time>2018-07-23T08:18:24.000Z</time>
      </trkpt>
      <trkpt lat="42.476974" lon="-5.32955">
        <ele>859</ele>
        <time>2018-07-23T08:18:26.990Z</time>
      </trkpt>
      <trkpt lat="42.47689" lon="-5.329654">
        <ele>859</ele>
        <time>2018-07-23T08:18:29.990Z</time>
      </trkpt>
      <trkpt lat="42.476824" lon="-5.329766">
        <ele>859</ele>
        <time>2018-07-23T08:18:34.000Z</time>
      </trkpt>
      <trkpt lat="42.476812" lon="-5.329929">
        <ele>858</ele>
        <time>2018-07-23T08:18:36.990Z</time>
      </trkpt>
      <trkpt lat="42.476841" lon="-5.330058">
        <ele>857</ele>
        <time>2018-07-23T08:18:39.000Z</time>
      </trkpt>
      <trkpt lat="42.476878" lon="-5.330211">
        <ele>857</ele>
        <time>2018-07-23T08:18:40.990Z</time>
      </trkpt>
      <trkpt lat="42.476876" lon="-5.33038">
        <ele>856</ele>
        <time>2018-07-23T08:18:42.990Z</time>
      </trkpt>
      <trkpt lat="42.47684" lon="-5.330559">
        <ele>856</ele>
        <time>2018-07-23T08:18:44.990Z</time>
      </trkpt>
      <trkpt lat="42.476791" lon="-5.330756">
        <ele>853.68</ele>
        <time>2018-07-23T08:18:46.990Z</time>
      </trkpt>
      <trkpt lat="42.476736" lon="-5.330973">
        <ele>852.6700032</ele>
        <time>2018-07-23T08:18:49.000Z</time>
      </trkpt>
      <trkpt lat="42.476682" lon="-5.331188">
        <ele>851.007516409062</ele>
        <time>2018-07-23T08:18:50.990Z</time>
      </trkpt>
      <trkpt lat="42.476628" lon="-5.331387">
        <ele>851</ele>
        <time>2018-07-23T08:18:52.990Z</time>
      </trkpt>
      <trkpt lat="42.476584" lon="-5.331583">
        <ele>851</ele>
        <time>2018-07-23T08:18:54.990Z</time>
      </trkpt>
      <trkpt lat="42.476539" lon="-5.331762">
        <ele>851</ele>
        <time>2018-07-23T08:18:56.990Z</time>
      </trkpt>
      <trkpt lat="42.476489" lon="-5.331939">
        <ele>851</ele>
        <time>2018-07-23T08:18:59.000Z</time>
      </trkpt>
      <trkpt lat="42.476439" lon="-5.332104">
        <ele>851</ele>
        <time>2018-07-23T08:19:00.990Z</time>
      </trkpt>
      <trkpt lat="42.476392" lon="-5.332256">
        <ele>851</ele>
        <time>2018-07-23T08:19:02.990Z</time>
      </trkpt>
      <trkpt lat="42.476352" lon="-5.332406">
        <ele>851</ele>
        <time>2018-07-23T08:19:04.990Z</time>
      </trkpt>
      <trkpt lat="42.47631" lon="-5.332548">
        <ele>851</ele>
        <time>2018-07-23T08:19:06.990Z</time>
      </trkpt>
      <trkpt lat="42.476284" lon="-5.332689">
        <ele>851</ele>
        <time>2018-07-23T08:19:09.000Z</time>
      </trkpt>
      <trkpt lat="42.476254" lon="-5.332822">
        <ele>851</ele>
        <time>2018-07-23T08:19:10.990Z</time>
      </trkpt>
      <trkpt lat="42.476216" lon="-5.332956">
        <ele>851.316832686995</ele>
        <time>2018-07-23T08:19:12.990Z</time>
      </trkpt>
      <trkpt lat="42.476172" lon="-5.333082">
        <ele>852</ele>
        <time>2018-07-23T08:19:14.990Z</time>
      </trkpt>
      <trkpt lat="42.476158" lon="-5.333218">
        <ele>852</ele>
        <time>2018-07-23T08:19:16.990Z</time>
      </trkpt>
      <trkpt lat="42.476154" lon="-5.33335">
        <ele>852</ele>
        <time>2018-07-23T08:19:19.000Z</time>
      </trkpt>
      <trkpt lat="42.476162" lon="-5.333476">
        <ele>852.028580310123</ele>
        <time>2018-07-23T08:19:20.990Z</time>
      </trkpt>
      <trkpt lat="42.476176" lon="-5.333652">
        <ele>853</ele>
        <time>2018-07-23T08:19:24.000Z</time>
      </trkpt>
      <trkpt lat="42.476204" lon="-5.333812">
        <ele>853</ele>
        <time>2018-07-23T08:19:26.990Z</time>
      </trkpt>
      <trkpt lat="42.476234" lon="-5.333968">
        <ele>854.32</ele>
        <time>2018-07-23T08:19:29.990Z</time>
      </trkpt>
      <trkpt lat="42.476273" lon="-5.334116">
        <ele>855</ele>
        <time>2018-07-23T08:19:32.990Z</time>
      </trkpt>
      <trkpt lat="42.47629" lon="-5.334254">
        <ele>856</ele>
        <time>2018-07-23T08:19:35.990Z</time>
      </trkpt>
      <trkpt lat="42.476318" lon="-5.334412">
        <ele>857</ele>
        <time>2018-07-23T08:19:39.000Z</time>
      </trkpt>
      <trkpt lat="42.476344" lon="-5.334562">
        <ele>857</ele>
        <time>2018-07-23T08:19:41.990Z</time>
      </trkpt>
      <trkpt lat="42.476368" lon="-5.334716">
        <ele>857</ele>
        <time>2018-07-23T08:19:44.990Z</time>
      </trkpt>
      <trkpt lat="42.476394" lon="-5.334882">
        <ele>857</ele>
        <time>2018-07-23T08:19:47.990Z</time>
      </trkpt>
      <trkpt lat="42.476408" lon="-5.33501">
        <ele>857</ele>
        <time>2018-07-23T08:19:49.990Z</time>
      </trkpt>
      <trkpt lat="42.476426" lon="-5.33513">
        <ele>857</ele>
        <time>2018-07-23T08:19:51.990Z</time>
      </trkpt>
      <trkpt lat="42.476443" lon="-5.335254">
        <ele>857</ele>
        <time>2018-07-23T08:19:54.000Z</time>
      </trkpt>
      <trkpt lat="42.476462" lon="-5.335382">
        <ele>857</ele>
        <time>2018-07-23T08:19:55.990Z</time>
      </trkpt>
      <trkpt lat="42.476488" lon="-5.33552">
        <ele>857</ele>
        <time>2018-07-23T08:19:57.990Z</time>
      </trkpt>
      <trkpt lat="42.476509" lon="-5.335647">
        <ele>857</ele>
        <time>2018-07-23T08:19:59.990Z</time>
      </trkpt>
      <trkpt lat="42.476536" lon="-5.33578">
        <ele>857</ele>
        <time>2018-07-23T08:20:01.990Z</time>
      </trkpt>
      <trkpt lat="42.476553" lon="-5.335923">
        <ele>857</ele>
        <time>2018-07-23T08:20:04.000Z</time>
      </trkpt>
      <trkpt lat="42.476578" lon="-5.33606">
        <ele>857</ele>
        <time>2018-07-23T08:20:05.990Z</time>
      </trkpt>
      <trkpt lat="42.4766" lon="-5.336188">
        <ele>857</ele>
        <time>2018-07-23T08:20:07.990Z</time>
      </trkpt>
      <trkpt lat="42.476618" lon="-5.336369">
        <ele>857</ele>
        <time>2018-07-23T08:20:10.990Z</time>
      </trkpt>
      <trkpt lat="42.476639" lon="-5.336497">
        <ele>857</ele>
        <time>2018-07-23T08:20:12.990Z</time>
      </trkpt>
      <trkpt lat="42.476655" lon="-5.336619">
        <ele>857</ele>
        <time>2018-07-23T08:20:14.990Z</time>
      </trkpt>
      <trkpt lat="42.476674" lon="-5.336739">
        <ele>857</ele>
        <time>2018-07-23T08:20:16.990Z</time>
      </trkpt>
      <trkpt lat="42.476689" lon="-5.336873">
        <ele>857</ele>
        <time>2018-07-23T08:20:19.000Z</time>
      </trkpt>
      <trkpt lat="42.476702" lon="-5.336994">
        <ele>857</ele>
        <time>2018-07-23T08:20:20.990Z</time>
      </trkpt>
      <trkpt lat="42.476715" lon="-5.337119">
        <ele>857</ele>
        <time>2018-07-23T08:20:22.990Z</time>
      </trkpt>
      <trkpt lat="42.476727" lon="-5.337244">
        <ele>857</ele>
        <time>2018-07-23T08:20:24.990Z</time>
      </trkpt>
      <trkpt lat="42.476739" lon="-5.33737">
        <ele>857</ele>
        <time>2018-07-23T08:20:26.990Z</time>
      </trkpt>
      <trkpt lat="42.476749" lon="-5.337504">
        <ele>857</ele>
        <time>2018-07-23T08:20:29.000Z</time>
      </trkpt>
      <trkpt lat="42.476766" lon="-5.337639">
        <ele>857</ele>
        <time>2018-07-23T08:20:30.990Z</time>
      </trkpt>
      <trkpt lat="42.476783" lon="-5.337763">
        <ele>857</ele>
        <time>2018-07-23T08:20:32.990Z</time>
      </trkpt>
      <trkpt lat="42.476797" lon="-5.337906">
        <ele>857</ele>
        <time>2018-07-23T08:20:34.990Z</time>
      </trkpt>
      <trkpt lat="42.476806" lon="-5.338042">
        <ele>858</ele>
        <time>2018-07-23T08:20:36.990Z</time>
      </trkpt>
      <trkpt lat="42.476817" lon="-5.338172">
        <ele>858</ele>
        <time>2018-07-23T08:20:39.000Z</time>
      </trkpt>
      <trkpt lat="42.476828" lon="-5.338293">
        <ele>858</ele>
        <time>2018-07-23T08:20:40.990Z</time>
      </trkpt>
      <trkpt lat="42.47685" lon="-5.338465">
        <ele>858</ele>
        <time>2018-07-23T08:20:44.000Z</time>
      </trkpt>
      <trkpt lat="42.476882" lon="-5.338643">
        <ele>858</ele>
        <time>2018-07-23T08:20:46.990Z</time>
      </trkpt>
      <trkpt lat="42.476893" lon="-5.338785">
        <ele>858</ele>
        <time>2018-07-23T08:20:49.000Z</time>
      </trkpt>
      <trkpt lat="42.476902" lon="-5.338914">
        <ele>858</ele>
        <time>2018-07-23T08:20:50.990Z</time>
      </trkpt>
      <trkpt lat="42.476896" lon="-5.33909">
        <ele>858</ele>
        <time>2018-07-23T08:20:54.000Z</time>
      </trkpt>
      <trkpt lat="42.476888" lon="-5.339227">
        <ele>858</ele>
        <time>2018-07-23T08:20:55.990Z</time>
      </trkpt>
      <trkpt lat="42.476879" lon="-5.339362">
        <ele>858</ele>
        <time>2018-07-23T08:20:57.990Z</time>
      </trkpt>
      <trkpt lat="42.476866" lon="-5.339499">
        <ele>858</ele>
        <time>2018-07-23T08:20:59.990Z</time>
      </trkpt>
      <trkpt lat="42.476858" lon="-5.33964">
        <ele>858</ele>
        <time>2018-07-23T08:21:01.990Z</time>
      </trkpt>
      <trkpt lat="42.476849" lon="-5.339788">
        <ele>858</ele>
        <time>2018-07-23T08:21:04.000Z</time>
      </trkpt>
      <trkpt lat="42.476833" lon="-5.339929">
        <ele>858</ele>
        <time>2018-07-23T08:21:05.990Z</time>
      </trkpt>
      <trkpt lat="42.476816" lon="-5.340076">
        <ele>858</ele>
        <time>2018-07-23T08:21:07.990Z</time>
      </trkpt>
      <trkpt lat="42.476798" lon="-5.340215">
        <ele>858</ele>
        <time>2018-07-23T08:21:09.990Z</time>
      </trkpt>
      <trkpt lat="42.476774" lon="-5.340351">
        <ele>858</ele>
        <time>2018-07-23T08:21:11.990Z</time>
      </trkpt>
      <trkpt lat="42.476738" lon="-5.34049">
        <ele>858</ele>
        <time>2018-07-23T08:21:14.000Z</time>
      </trkpt>
      <trkpt lat="42.476703" lon="-5.340632">
        <ele>857</ele>
        <time>2018-07-23T08:21:15.990Z</time>
      </trkpt>
      <trkpt lat="42.476669" lon="-5.340767">
        <ele>857</ele>
        <time>2018-07-23T08:21:17.990Z</time>
      </trkpt>
      <trkpt lat="42.476633" lon="-5.340899">
        <ele>857</ele>
        <time>2018-07-23T08:21:19.990Z</time>
      </trkpt>
      <trkpt lat="42.4766" lon="-5.341034">
        <ele>857</ele>
        <time>2018-07-23T08:21:21.990Z</time>
      </trkpt>
      <trkpt lat="42.476571" lon="-5.341178">
        <ele>857</ele>
        <time>2018-07-23T08:21:24.000Z</time>
      </trkpt>
      <trkpt lat="42.476534" lon="-5.341308">
        <ele>857</ele>
        <time>2018-07-23T08:21:25.990Z</time>
      </trkpt>
      <trkpt lat="42.476506" lon="-5.341463">
        <ele>857</ele>
        <time>2018-07-23T08:21:27.990Z</time>
      </trkpt>
      <trkpt lat="42.476487" lon="-5.341618">
        <ele>857</ele>
        <time>2018-07-23T08:21:29.990Z</time>
      </trkpt>
      <trkpt lat="42.476468" lon="-5.341764">
        <ele>857</ele>
        <time>2018-07-23T08:21:31.990Z</time>
      </trkpt>
      <trkpt lat="42.476443" lon="-5.341916">
        <ele>857</ele>
        <time>2018-07-23T08:21:34.000Z</time>
      </trkpt>
      <trkpt lat="42.476424" lon="-5.34207">
        <ele>857</ele>
        <time>2018-07-23T08:21:35.990Z</time>
      </trkpt>
      <trkpt lat="42.476404" lon="-5.342219">
        <ele>857</ele>
        <time>2018-07-23T08:21:37.990Z</time>
      </trkpt>
      <trkpt lat="42.476379" lon="-5.342372">
        <ele>857</ele>
        <time>2018-07-23T08:21:39.990Z</time>
      </trkpt>
      <trkpt lat="42.476357" lon="-5.342522">
        <ele>856.971419689877</ele>
        <time>2018-07-23T08:21:41.990Z</time>
      </trkpt>
      <trkpt lat="42.47633" lon="-5.342672">
        <ele>856</ele>
        <time>2018-07-23T08:21:44.000Z</time>
      </trkpt>
      <trkpt lat="42.476302" lon="-5.342809">
        <ele>856</ele>
        <time>2018-07-23T08:21:45.990Z</time>
      </trkpt>
      <trkpt lat="42.476279" lon="-5.342941">
        <ele>856</ele>
        <time>2018-07-23T08:21:47.990Z</time>
      </trkpt>
      <trkpt lat="42.476258" lon="-5.343075">
        <ele>856</ele>
        <time>2018-07-23T08:21:49.990Z</time>
      </trkpt>
      <trkpt lat="42.476241" lon="-5.34322">
        <ele>856</ele>
        <time>2018-07-23T08:21:51.990Z</time>
      </trkpt>
      <trkpt lat="42.47622" lon="-5.343356">
        <ele>856</ele>
        <time>2018-07-23T08:21:54.000Z</time>
      </trkpt>
      <trkpt lat="42.476203" lon="-5.343499">
        <ele>855.68</ele>
        <time>2018-07-23T08:21:55.990Z</time>
      </trkpt>
      <trkpt lat="42.476185" lon="-5.343646">
        <ele>855</ele>
        <time>2018-07-23T08:21:57.990Z</time>
      </trkpt>
      <trkpt lat="42.476167" lon="-5.343795">
        <ele>855</ele>
        <time>2018-07-23T08:21:59.990Z</time>
      </trkpt>
      <trkpt lat="42.476149" lon="-5.343933">
        <ele>855</ele>
        <time>2018-07-23T08:22:01.990Z</time>
      </trkpt>
      <trkpt lat="42.476127" lon="-5.344068">
        <ele>855</ele>
        <time>2018-07-23T08:22:04.000Z</time>
      </trkpt>
      <trkpt lat="42.476114" lon="-5.344214">
        <ele>855</ele>
        <time>2018-07-23T08:22:05.990Z</time>
      </trkpt>
      <trkpt lat="42.476095" lon="-5.344355">
        <ele>855</ele>
        <time>2018-07-23T08:22:07.990Z</time>
      </trkpt>
      <trkpt lat="42.476069" lon="-5.344496">
        <ele>855</ele>
        <time>2018-07-23T08:22:09.990Z</time>
      </trkpt>
      <trkpt lat="42.476048" lon="-5.344639">
        <ele>855</ele>
        <time>2018-07-23T08:22:11.990Z</time>
      </trkpt>
      <trkpt lat="42.476023" lon="-5.344775">
        <ele>855</ele>
        <time>2018-07-23T08:22:14.000Z</time>
      </trkpt>
      <trkpt lat="42.47599" lon="-5.344913">
        <ele>855</ele>
        <time>2018-07-23T08:22:15.990Z</time>
      </trkpt>
      <trkpt lat="42.475955" lon="-5.345054">
        <ele>855</ele>
        <time>2018-07-23T08:22:17.990Z</time>
      </trkpt>
      <trkpt lat="42.475919" lon="-5.345192">
        <ele>855</ele>
        <time>2018-07-23T08:22:19.990Z</time>
      </trkpt>
      <trkpt lat="42.475875" lon="-5.345331">
        <ele>855</ele>
        <time>2018-07-23T08:22:21.990Z</time>
      </trkpt>
      <trkpt lat="42.475832" lon="-5.345477">
        <ele>855</ele>
        <time>2018-07-23T08:22:24.000Z</time>
      </trkpt>
      <trkpt lat="42.475796" lon="-5.345626">
        <ele>855</ele>
        <time>2018-07-23T08:22:25.990Z</time>
      </trkpt>
      <trkpt lat="42.475749" lon="-5.345772">
        <ele>855</ele>
        <time>2018-07-23T08:22:27.990Z</time>
      </trkpt>
      <trkpt lat="42.475704" lon="-5.345918">
        <ele>855</ele>
        <time>2018-07-23T08:22:29.990Z</time>
      </trkpt>
      <trkpt lat="42.47566" lon="-5.346067">
        <ele>855</ele>
        <time>2018-07-23T08:22:31.990Z</time>
      </trkpt>
      <trkpt lat="42.475613" lon="-5.346218">
        <ele>855</ele>
        <time>2018-07-23T08:22:34.000Z</time>
      </trkpt>
      <trkpt lat="42.475572" lon="-5.346368">
        <ele>855</ele>
        <time>2018-07-23T08:22:35.990Z</time>
      </trkpt>
      <trkpt lat="42.475524" lon="-5.346522">
        <ele>854.68</ele>
        <time>2018-07-23T08:22:37.990Z</time>
      </trkpt>
      <trkpt lat="42.475481" lon="-5.346671">
        <ele>854</ele>
        <time>2018-07-23T08:22:39.990Z</time>
      </trkpt>
      <trkpt lat="42.475438" lon="-5.346821">
        <ele>854</ele>
        <time>2018-07-23T08:22:41.990Z</time>
      </trkpt>
      <trkpt lat="42.475396" lon="-5.346971">
        <ele>854</ele>
        <time>2018-07-23T08:22:44.000Z</time>
      </trkpt>
      <trkpt lat="42.475357" lon="-5.347119">
        <ele>854</ele>
        <time>2018-07-23T08:22:45.990Z</time>
      </trkpt>
      <trkpt lat="42.475318" lon="-5.347268">
        <ele>854</ele>
        <time>2018-07-23T08:22:47.990Z</time>
      </trkpt>
      <trkpt lat="42.475286" lon="-5.347426">
        <ele>854</ele>
        <time>2018-07-23T08:22:49.990Z</time>
      </trkpt>
      <trkpt lat="42.475265" lon="-5.347589">
        <ele>854</ele>
        <time>2018-07-23T08:22:51.990Z</time>
      </trkpt>
      <trkpt lat="42.475256" lon="-5.347751">
        <ele>854</ele>
        <time>2018-07-23T08:22:54.000Z</time>
      </trkpt>
      <trkpt lat="42.475244" lon="-5.347907">
        <ele>854</ele>
        <time>2018-07-23T08:22:55.990Z</time>
      </trkpt>
      <trkpt lat="42.475228" lon="-5.348057">
        <ele>854</ele>
        <time>2018-07-23T08:22:57.990Z</time>
      </trkpt>
      <trkpt lat="42.475208" lon="-5.348201">
        <ele>854</ele>
        <time>2018-07-23T08:22:59.990Z</time>
      </trkpt>
      <trkpt lat="42.475189" lon="-5.348325">
        <ele>854</ele>
        <time>2018-07-23T08:23:01.990Z</time>
      </trkpt>
      <trkpt lat="42.475181" lon="-5.348498">
        <ele>854</ele>
        <time>2018-07-23T08:23:04.990Z</time>
      </trkpt>
      <trkpt lat="42.475171" lon="-5.348658">
        <ele>854</ele>
        <time>2018-07-23T08:23:07.990Z</time>
      </trkpt>
      <trkpt lat="42.47516" lon="-5.348821">
        <ele>854</ele>
        <time>2018-07-23T08:23:10.990Z</time>
      </trkpt>
      <trkpt lat="42.475149" lon="-5.34897">
        <ele>854</ele>
        <time>2018-07-23T08:23:14.000Z</time>
      </trkpt>
      <trkpt lat="42.475136" lon="-5.349107">
        <ele>854</ele>
        <time>2018-07-23T08:23:16.990Z</time>
      </trkpt>
      <trkpt lat="42.475128" lon="-5.349267">
        <ele>854</ele>
        <time>2018-07-23T08:23:19.990Z</time>
      </trkpt>
      <trkpt lat="42.475112" lon="-5.349437">
        <ele>853</ele>
        <time>2018-07-23T08:23:22.990Z</time>
      </trkpt>
      <trkpt lat="42.475102" lon="-5.349561">
        <ele>853</ele>
        <time>2018-07-23T08:23:24.990Z</time>
      </trkpt>
      <trkpt lat="42.475094" lon="-5.349693">
        <ele>852</ele>
        <time>2018-07-23T08:23:26.990Z</time>
      </trkpt>
      <trkpt lat="42.475083" lon="-5.349831">
        <ele>851.676471695509</ele>
        <time>2018-07-23T08:23:29.000Z</time>
      </trkpt>
      <trkpt lat="42.475085" lon="-5.34998">
        <ele>851</ele>
        <time>2018-07-23T08:23:30.990Z</time>
      </trkpt>
      <trkpt lat="42.475084" lon="-5.350145">
        <ele>850.68</ele>
        <time>2018-07-23T08:23:32.990Z</time>
      </trkpt>
      <trkpt lat="42.475075" lon="-5.350319">
        <ele>850</ele>
        <time>2018-07-23T08:23:34.990Z</time>
      </trkpt>
      <trkpt lat="42.475069" lon="-5.350501">
        <ele>848.68</ele>
        <time>2018-07-23T08:23:36.990Z</time>
      </trkpt>
      <trkpt lat="42.475054" lon="-5.350684">
        <ele>848</ele>
        <time>2018-07-23T08:23:39.000Z</time>
      </trkpt>
      <trkpt lat="42.475031" lon="-5.350877">
        <ele>847.683167313005</ele>
        <time>2018-07-23T08:23:40.990Z</time>
      </trkpt>
      <trkpt lat="42.475013" lon="-5.351065">
        <ele>847</ele>
        <time>2018-07-23T08:23:42.990Z</time>
      </trkpt>
      <trkpt lat="42.474987" lon="-5.351253">
        <ele>844.68</ele>
        <time>2018-07-23T08:23:44.990Z</time>
      </trkpt>
      <trkpt lat="42.474956" lon="-5.351445">
        <ele>844</ele>
        <time>2018-07-23T08:23:46.990Z</time>
      </trkpt>
      <trkpt lat="42.474944" lon="-5.351648">
        <ele>843.985298823529</ele>
        <time>2018-07-23T08:23:49.000Z</time>
      </trkpt>
      <trkpt lat="42.474948" lon="-5.351843">
        <ele>842.68</ele>
        <time>2018-07-23T08:23:50.990Z</time>
      </trkpt>
      <trkpt lat="42.474912" lon="-5.352041">
        <ele>841.68</ele>
        <time>2018-07-23T08:23:52.990Z</time>
      </trkpt>
      <trkpt lat="42.474837" lon="-5.352249">
        <ele>841</ele>
        <time>2018-07-23T08:23:54.990Z</time>
      </trkpt>
      <trkpt lat="42.474746" lon="-5.352459">
        <ele>839.68</ele>
        <time>2018-07-23T08:23:56.990Z</time>
      </trkpt>
      <trkpt lat="42.4747" lon="-5.352564">
        <ele>838.68</ele>
        <time>2018-07-23T08:23:57.990Z</time>
      </trkpt>
      <trkpt lat="42.47461" lon="-5.352744">
        <ele>835.68</ele>
        <time>2018-07-23T08:23:59.990Z</time>
      </trkpt>
      <trkpt lat="42.474531" lon="-5.352927">
        <ele>834</ele>
        <time>2018-07-23T08:24:01.990Z</time>
      </trkpt>
      <trkpt lat="42.474469" lon="-5.353123">
        <ele>832.6700032</ele>
        <time>2018-07-23T08:24:04.000Z</time>
      </trkpt>
      <trkpt lat="42.474399" lon="-5.353303">
        <ele>832</ele>
        <time>2018-07-23T08:24:05.990Z</time>
      </trkpt>
      <trkpt lat="42.474319" lon="-5.353421">
        <ele>832</ele>
        <time>2018-07-23T08:24:07.990Z</time>
      </trkpt>
      <trkpt lat="42.47424" lon="-5.353533">
        <ele>832</ele>
        <time>2018-07-23T08:24:09.990Z</time>
      </trkpt>
      <trkpt lat="42.474175" lon="-5.353662">
        <ele>831</ele>
        <time>2018-07-23T08:24:11.990Z</time>
      </trkpt>
      <trkpt lat="42.474151" lon="-5.353801">
        <ele>830.6700032</ele>
        <time>2018-07-23T08:24:14.000Z</time>
      </trkpt>
      <trkpt lat="42.474198" lon="-5.353928">
        <ele>829</ele>
        <time>2018-07-23T08:24:17.990Z</time>
      </trkpt>
      <trkpt lat="42.4743" lon="-5.354015">
        <ele>829</ele>
        <time>2018-07-23T08:24:20.990Z</time>
      </trkpt>
      <trkpt lat="42.474372" lon="-5.354098">
        <ele>828.68</ele>
        <time>2018-07-23T08:24:22.990Z</time>
      </trkpt>
      <trkpt lat="42.474436" lon="-5.354188">
        <ele>827</ele>
        <time>2018-07-23T08:24:25.100Z</time>
      </trkpt>
      <trkpt lat="42.474524" lon="-5.354281">
        <ele>827</ele>
        <time>2018-07-23T08:24:27.000Z</time>
      </trkpt>
      <trkpt lat="42.474597" lon="-5.354393">
        <ele>827</ele>
        <time>2018-07-23T08:24:29.000Z</time>
      </trkpt>
      <trkpt lat="42.474657" lon="-5.354492">
        <ele>827</ele>
        <time>2018-07-23T08:24:30.990Z</time>
      </trkpt>
      <trkpt lat="42.474724" lon="-5.354583">
        <ele>826</ele>
        <time>2018-07-23T08:24:32.990Z</time>
      </trkpt>
      <trkpt lat="42.474789" lon="-5.354676">
        <ele>826</ele>
        <time>2018-07-23T08:24:34.990Z</time>
      </trkpt>
      <trkpt lat="42.474812" lon="-5.354809">
        <ele>826</ele>
        <time>2018-07-23T08:24:36.990Z</time>
      </trkpt>
      <trkpt lat="42.474849" lon="-5.354938">
        <ele>826</ele>
        <time>2018-07-23T08:24:39.000Z</time>
      </trkpt>
      <trkpt lat="42.474896" lon="-5.355056">
        <ele>826</ele>
        <time>2018-07-23T08:24:40.990Z</time>
      </trkpt>
      <trkpt lat="42.474952" lon="-5.355165">
        <ele>826</ele>
        <time>2018-07-23T08:24:42.990Z</time>
      </trkpt>
      <trkpt lat="42.475" lon="-5.355282">
        <ele>826</ele>
        <time>2018-07-23T08:24:44.990Z</time>
      </trkpt>
      <trkpt lat="42.475089" lon="-5.355404">
        <ele>826</ele>
        <time>2018-07-23T08:24:47.990Z</time>
      </trkpt>
      <trkpt lat="42.475193" lon="-5.355511">
        <ele>826</ele>
        <time>2018-07-23T08:24:50.990Z</time>
      </trkpt>
      <trkpt lat="42.475301" lon="-5.355573">
        <ele>826</ele>
        <time>2018-07-23T08:24:54.000Z</time>
      </trkpt>
      <trkpt lat="42.475388" lon="-5.355665">
        <ele>826</ele>
        <time>2018-07-23T08:24:56.990Z</time>
      </trkpt>
      <trkpt lat="42.475499" lon="-5.355798">
        <ele>825.917816626045</ele>
        <time>2018-07-23T08:25:01.000Z</time>
      </trkpt>
      <trkpt lat="42.475563" lon="-5.355937">
        <ele>825</ele>
        <time>2018-07-23T08:25:04.000Z</time>
      </trkpt>
      <trkpt lat="42.475593" lon="-5.356092">
        <ele>825</ele>
        <time>2018-07-23T08:25:06.990Z</time>
      </trkpt>
      <trkpt lat="42.475556" lon="-5.35622">
        <ele>825</ele>
        <time>2018-07-23T08:25:10.000Z</time>
      </trkpt>
      <trkpt lat="42.475499" lon="-5.356341">
        <ele>825</ele>
        <time>2018-07-23T08:25:12.990Z</time>
      </trkpt>
      <trkpt lat="42.47552" lon="-5.356479">
        <ele>825</ele>
        <time>2018-07-23T08:25:15.990Z</time>
      </trkpt>
      <trkpt lat="42.475554" lon="-5.356627">
        <ele>825</ele>
        <time>2018-07-23T08:25:18.990Z</time>
      </trkpt>
      <trkpt lat="42.47558" lon="-5.356744">
        <ele>825</ele>
        <time>2018-07-23T08:25:20.990Z</time>
      </trkpt>
      <trkpt lat="42.475608" lon="-5.35686">
        <ele>825</ele>
        <time>2018-07-23T08:25:22.990Z</time>
      </trkpt>
      <trkpt lat="42.475636" lon="-5.357026">
        <ele>825</ele>
        <time>2018-07-23T08:25:25.990Z</time>
      </trkpt>
      <trkpt lat="42.475659" lon="-5.357194">
        <ele>825</ele>
        <time>2018-07-23T08:25:28.990Z</time>
      </trkpt>
      <trkpt lat="42.475689" lon="-5.357336">
        <ele>825</ele>
        <time>2018-07-23T08:25:30.990Z</time>
      </trkpt>
      <trkpt lat="42.475718" lon="-5.35747">
        <ele>825</ele>
        <time>2018-07-23T08:25:32.990Z</time>
      </trkpt>
      <trkpt lat="42.475742" lon="-5.357599">
        <ele>825</ele>
        <time>2018-07-23T08:25:35.000Z</time>
      </trkpt>
      <trkpt lat="42.475754" lon="-5.357721">
        <ele>825</ele>
        <time>2018-07-23T08:25:36.990Z</time>
      </trkpt>
      <trkpt lat="42.475774" lon="-5.357899">
        <ele>824.9699968</ele>
        <time>2018-07-23T08:25:40.000Z</time>
      </trkpt>
      <trkpt lat="42.4758" lon="-5.358069">
        <ele>824</ele>
        <time>2018-07-23T08:25:42.990Z</time>
      </trkpt>
      <trkpt lat="42.475838" lon="-5.358189">
        <ele>824</ele>
        <time>2018-07-23T08:25:45.000Z</time>
      </trkpt>
      <trkpt lat="42.475891" lon="-5.358296">
        <ele>824</ele>
        <time>2018-07-23T08:25:46.990Z</time>
      </trkpt>
      <trkpt lat="42.475945" lon="-5.358394">
        <ele>824</ele>
        <time>2018-07-23T08:25:48.990Z</time>
      </trkpt>
      <trkpt lat="42.475997" lon="-5.358498">
        <ele>824</ele>
        <time>2018-07-23T08:25:50.990Z</time>
      </trkpt>
      <trkpt lat="42.476068" lon="-5.358652">
        <ele>824</ele>
        <time>2018-07-23T08:25:53.990Z</time>
      </trkpt>
      <trkpt lat="42.476136" lon="-5.358804">
        <ele>824</ele>
        <time>2018-07-23T08:25:56.990Z</time>
      </trkpt>
      <trkpt lat="42.476184" lon="-5.358913">
        <ele>824</ele>
        <time>2018-07-23T08:25:58.990Z</time>
      </trkpt>
      <trkpt lat="42.476232" lon="-5.359019">
        <ele>824</ele>
        <time>2018-07-23T08:26:00.990Z</time>
      </trkpt>
      <trkpt lat="42.476288" lon="-5.359126">
        <ele>824.992483590938</ele>
        <time>2018-07-23T08:26:02.990Z</time>
      </trkpt>
      <trkpt lat="42.476338" lon="-5.359238">
        <ele>825</ele>
        <time>2018-07-23T08:26:05.000Z</time>
      </trkpt>
      <trkpt lat="42.476391" lon="-5.359341">
        <ele>824.68</ele>
        <time>2018-07-23T08:26:06.990Z</time>
      </trkpt>
      <trkpt lat="42.476445" lon="-5.359442">
        <ele>824</ele>
        <time>2018-07-23T08:26:08.990Z</time>
      </trkpt>
      <trkpt lat="42.476499" lon="-5.359546">
        <ele>824</ele>
        <time>2018-07-23T08:26:10.990Z</time>
      </trkpt>
      <trkpt lat="42.476552" lon="-5.359657">
        <ele>825</ele>
        <time>2018-07-23T08:26:12.990Z</time>
      </trkpt>
      <trkpt lat="42.476595" lon="-5.359776">
        <ele>825</ele>
        <time>2018-07-23T08:26:15.000Z</time>
      </trkpt>
      <trkpt lat="42.476655" lon="-5.359902">
        <ele>825</ele>
        <time>2018-07-23T08:26:16.990Z</time>
      </trkpt>
      <trkpt lat="42.476712" lon="-5.360019">
        <ele>825</ele>
        <time>2018-07-23T08:26:18.990Z</time>
      </trkpt>
      <trkpt lat="42.476772" lon="-5.360131">
        <ele>824.68</ele>
        <time>2018-07-23T08:26:20.990Z</time>
      </trkpt>
      <trkpt lat="42.476837" lon="-5.360257">
        <ele>824</ele>
        <time>2018-07-23T08:26:22.990Z</time>
      </trkpt>
      <trkpt lat="42.476902" lon="-5.360393">
        <ele>824</ele>
        <time>2018-07-23T08:26:25.000Z</time>
      </trkpt>
      <trkpt lat="42.47696" lon="-5.360516">
        <ele>824</ele>
        <time>2018-07-23T08:26:26.990Z</time>
      </trkpt>
      <trkpt lat="42.477015" lon="-5.360638">
        <ele>824</ele>
        <time>2018-07-23T08:26:28.990Z</time>
      </trkpt>
      <trkpt lat="42.477073" lon="-5.360765">
        <ele>824</ele>
        <time>2018-07-23T08:26:30.990Z</time>
      </trkpt>
      <trkpt lat="42.477127" lon="-5.360891">
        <ele>824</ele>
        <time>2018-07-23T08:26:32.990Z</time>
      </trkpt>
      <trkpt lat="42.477185" lon="-5.361015">
        <ele>824</ele>
        <time>2018-07-23T08:26:35.000Z</time>
      </trkpt>
      <trkpt lat="42.477239" lon="-5.361148">
        <ele>824</ele>
        <time>2018-07-23T08:26:36.990Z</time>
      </trkpt>
      <trkpt lat="42.477294" lon="-5.361282">
        <ele>824</ele>
        <time>2018-07-23T08:26:38.990Z</time>
      </trkpt>
      <trkpt lat="42.477354" lon="-5.361413">
        <ele>824</ele>
        <time>2018-07-23T08:26:40.990Z</time>
      </trkpt>
      <trkpt lat="42.477414" lon="-5.361544">
        <ele>824</ele>
        <time>2018-07-23T08:26:42.990Z</time>
      </trkpt>
      <trkpt lat="42.477472" lon="-5.361668">
        <ele>824</ele>
        <time>2018-07-23T08:26:45.000Z</time>
      </trkpt>
      <trkpt lat="42.477534" lon="-5.361801">
        <ele>824</ele>
        <time>2018-07-23T08:26:46.990Z</time>
      </trkpt>
      <trkpt lat="42.4776" lon="-5.36193">
        <ele>824</ele>
        <time>2018-07-23T08:26:48.990Z</time>
      </trkpt>
      <trkpt lat="42.477669" lon="-5.362064">
        <ele>824</ele>
        <time>2018-07-23T08:26:50.990Z</time>
      </trkpt>
      <trkpt lat="42.477732" lon="-5.362202">
        <ele>824</ele>
        <time>2018-07-23T08:26:52.990Z</time>
      </trkpt>
      <trkpt lat="42.477785" lon="-5.362338">
        <ele>824</ele>
        <time>2018-07-23T08:26:55.000Z</time>
      </trkpt>
      <trkpt lat="42.477846" lon="-5.362473">
        <ele>824</ele>
        <time>2018-07-23T08:26:56.990Z</time>
      </trkpt>
      <trkpt lat="42.477912" lon="-5.362605">
        <ele>824</ele>
        <time>2018-07-23T08:26:58.990Z</time>
      </trkpt>
      <trkpt lat="42.477972" lon="-5.362741">
        <ele>824</ele>
        <time>2018-07-23T08:27:00.990Z</time>
      </trkpt>
      <trkpt lat="42.478029" lon="-5.362875">
        <ele>824</ele>
        <time>2018-07-23T08:27:02.990Z</time>
      </trkpt>
      <trkpt lat="42.47809" lon="-5.363002">
        <ele>824</ele>
        <time>2018-07-23T08:27:05.000Z</time>
      </trkpt>
      <trkpt lat="42.478152" lon="-5.363135">
        <ele>824</ele>
        <time>2018-07-23T08:27:06.990Z</time>
      </trkpt>
      <trkpt lat="42.478213" lon="-5.363264">
        <ele>824</ele>
        <time>2018-07-23T08:27:08.990Z</time>
      </trkpt>
      <trkpt lat="42.478271" lon="-5.363402">
        <ele>824</ele>
        <time>2018-07-23T08:27:10.990Z</time>
      </trkpt>
      <trkpt lat="42.478326" lon="-5.36353">
        <ele>824</ele>
        <time>2018-07-23T08:27:12.990Z</time>
      </trkpt>
      <trkpt lat="42.478379" lon="-5.363643">
        <ele>824</ele>
        <time>2018-07-23T08:27:15.000Z</time>
      </trkpt>
      <trkpt lat="42.47843" lon="-5.363747">
        <ele>824</ele>
        <time>2018-07-23T08:27:16.990Z</time>
      </trkpt>
      <trkpt lat="42.4785" lon="-5.363895">
        <ele>824</ele>
        <time>2018-07-23T08:27:20.000Z</time>
      </trkpt>
      <trkpt lat="42.478584" lon="-5.364038">
        <ele>824</ele>
        <time>2018-07-23T08:27:22.990Z</time>
      </trkpt>
      <trkpt lat="42.478645" lon="-5.364175">
        <ele>824</ele>
        <time>2018-07-23T08:27:25.990Z</time>
      </trkpt>
      <trkpt lat="42.478708" lon="-5.364323">
        <ele>824</ele>
        <time>2018-07-23T08:27:28.990Z</time>
      </trkpt>
      <trkpt lat="42.478778" lon="-5.364463">
        <ele>824</ele>
        <time>2018-07-23T08:27:31.990Z</time>
      </trkpt>
      <trkpt lat="42.478836" lon="-5.364559">
        <ele>824</ele>
        <time>2018-07-23T08:27:33.990Z</time>
      </trkpt>
      <trkpt lat="42.478897" lon="-5.364675">
        <ele>824</ele>
        <time>2018-07-23T08:27:35.990Z</time>
      </trkpt>
      <trkpt lat="42.478955" lon="-5.364802">
        <ele>824</ele>
        <time>2018-07-23T08:27:37.990Z</time>
      </trkpt>
      <trkpt lat="42.479003" lon="-5.364926">
        <ele>824</ele>
        <time>2018-07-23T08:27:40.000Z</time>
      </trkpt>
      <trkpt lat="42.479044" lon="-5.365045">
        <ele>824</ele>
        <time>2018-07-23T08:27:41.990Z</time>
      </trkpt>
      <trkpt lat="42.479091" lon="-5.365169">
        <ele>824</ele>
        <time>2018-07-23T08:27:43.990Z</time>
      </trkpt>
      <trkpt lat="42.479131" lon="-5.36529">
        <ele>824</ele>
        <time>2018-07-23T08:27:45.990Z</time>
      </trkpt>
      <trkpt lat="42.479168" lon="-5.365415">
        <ele>824</ele>
        <time>2018-07-23T08:27:47.990Z</time>
      </trkpt>
      <trkpt lat="42.4792" lon="-5.365544">
        <ele>823</ele>
        <time>2018-07-23T08:27:50.000Z</time>
      </trkpt>
      <trkpt lat="42.479237" lon="-5.365685">
        <ele>823</ele>
        <time>2018-07-23T08:27:51.990Z</time>
      </trkpt>
      <trkpt lat="42.479271" lon="-5.365825">
        <ele>823</ele>
        <time>2018-07-23T08:27:53.990Z</time>
      </trkpt>
      <trkpt lat="42.479312" lon="-5.365962">
        <ele>822</ele>
        <time>2018-07-23T08:27:55.990Z</time>
      </trkpt>
      <trkpt lat="42.479351" lon="-5.36611">
        <ele>822</ele>
        <time>2018-07-23T08:27:57.990Z</time>
      </trkpt>
      <trkpt lat="42.479396" lon="-5.36628">
        <ele>821</ele>
        <time>2018-07-23T08:28:00.000Z</time>
      </trkpt>
      <trkpt lat="42.479447" lon="-5.36644">
        <ele>820</ele>
        <time>2018-07-23T08:28:01.990Z</time>
      </trkpt>
      <trkpt lat="42.479509" lon="-5.366601">
        <ele>820</ele>
        <time>2018-07-23T08:28:03.990Z</time>
      </trkpt>
      <trkpt lat="42.479571" lon="-5.366766">
        <ele>818.68</ele>
        <time>2018-07-23T08:28:05.990Z</time>
      </trkpt>
      <trkpt lat="42.479635" lon="-5.366944">
        <ele>818</ele>
        <time>2018-07-23T08:28:07.990Z</time>
      </trkpt>
      <trkpt lat="42.479693" lon="-5.367128">
        <ele>817.676471695509</ele>
        <time>2018-07-23T08:28:10.000Z</time>
      </trkpt>
      <trkpt lat="42.479749" lon="-5.367304">
        <ele>817</ele>
        <time>2018-07-23T08:28:11.990Z</time>
      </trkpt>
      <trkpt lat="42.479798" lon="-5.367475">
        <ele>815.68</ele>
        <time>2018-07-23T08:28:13.990Z</time>
      </trkpt>
      <trkpt lat="42.479847" lon="-5.367653">
        <ele>816</ele>
        <time>2018-07-23T08:28:15.990Z</time>
      </trkpt>
      <trkpt lat="42.479907" lon="-5.367824">
        <ele>816</ele>
        <time>2018-07-23T08:28:17.990Z</time>
      </trkpt>
      <trkpt lat="42.479963" lon="-5.367999">
        <ele>816</ele>
        <time>2018-07-23T08:28:20.000Z</time>
      </trkpt>
      <trkpt lat="42.480015" lon="-5.368169">
        <ele>816</ele>
        <time>2018-07-23T08:28:21.990Z</time>
      </trkpt>
      <trkpt lat="42.480062" lon="-5.368331">
        <ele>816</ele>
        <time>2018-07-23T08:28:23.990Z</time>
      </trkpt>
      <trkpt lat="42.48012" lon="-5.368489">
        <ele>816</ele>
        <time>2018-07-23T08:28:25.990Z</time>
      </trkpt>
      <trkpt lat="42.480173" lon="-5.368641">
        <ele>816</ele>
        <time>2018-07-23T08:28:27.990Z</time>
      </trkpt>
      <trkpt lat="42.480225" lon="-5.368785">
        <ele>815.6700032</ele>
        <time>2018-07-23T08:28:30.000Z</time>
      </trkpt>
      <trkpt lat="42.480269" lon="-5.368925">
        <ele>815</ele>
        <time>2018-07-23T08:28:31.990Z</time>
      </trkpt>
      <trkpt lat="42.480308" lon="-5.369058">
        <ele>816</ele>
        <time>2018-07-23T08:28:33.990Z</time>
      </trkpt>
      <trkpt lat="42.480348" lon="-5.369187">
        <ele>816</ele>
        <time>2018-07-23T08:28:35.990Z</time>
      </trkpt>
      <trkpt lat="42.480406" lon="-5.3693">
        <ele>816.32</ele>
        <time>2018-07-23T08:28:37.990Z</time>
      </trkpt>
      <trkpt lat="42.480444" lon="-5.369434">
        <ele>817</ele>
        <time>2018-07-23T08:28:40.000Z</time>
      </trkpt>
      <trkpt lat="42.480481" lon="-5.369553">
        <ele>817.32</ele>
        <time>2018-07-23T08:28:41.990Z</time>
      </trkpt>
      <trkpt lat="42.480525" lon="-5.36967">
        <ele>818</ele>
        <time>2018-07-23T08:28:43.990Z</time>
      </trkpt>
      <trkpt lat="42.480573" lon="-5.369793">
        <ele>818.014488183134</ele>
        <time>2018-07-23T08:28:45.990Z</time>
      </trkpt>
      <trkpt lat="42.480623" lon="-5.369928">
        <ele>819</ele>
        <time>2018-07-23T08:28:47.990Z</time>
      </trkpt>
      <trkpt lat="42.480672" lon="-5.370067">
        <ele>820</ele>
        <time>2018-07-23T08:28:50.000Z</time>
      </trkpt>
      <trkpt lat="42.480709" lon="-5.370196">
        <ele>820.32</ele>
        <time>2018-07-23T08:28:51.990Z</time>
      </trkpt>
      <trkpt lat="42.480735" lon="-5.370328">
        <ele>821</ele>
        <time>2018-07-23T08:28:53.990Z</time>
      </trkpt>
      <trkpt lat="42.480768" lon="-5.370457">
        <ele>822</ele>
        <time>2018-07-23T08:28:55.990Z</time>
      </trkpt>
      <trkpt lat="42.480816" lon="-5.370585">
        <ele>823</ele>
        <time>2018-07-23T08:28:57.990Z</time>
      </trkpt>
      <trkpt lat="42.480848" lon="-5.370709">
        <ele>823</ele>
        <time>2018-07-23T08:29:00.000Z</time>
      </trkpt>
      <trkpt lat="42.480889" lon="-5.370824">
        <ele>824</ele>
        <time>2018-07-23T08:29:01.990Z</time>
      </trkpt>
      <trkpt lat="42.480927" lon="-5.370946">
        <ele>824</ele>
        <time>2018-07-23T08:29:03.990Z</time>
      </trkpt>
      <trkpt lat="42.480965" lon="-5.371121">
        <ele>824</ele>
        <time>2018-07-23T08:29:06.990Z</time>
      </trkpt>
      <trkpt lat="42.481017" lon="-5.371271">
        <ele>824.042861322411</ele>
        <time>2018-07-23T08:29:10.000Z</time>
      </trkpt>
      <trkpt lat="42.481057" lon="-5.371407">
        <ele>825</ele>
        <time>2018-07-23T08:29:12.990Z</time>
      </trkpt>
      <trkpt lat="42.481095" lon="-5.371537">
        <ele>826</ele>
        <time>2018-07-23T08:29:15.990Z</time>
      </trkpt>
      <trkpt lat="42.481137" lon="-5.37166">
        <ele>826</ele>
        <time>2018-07-23T08:29:18.990Z</time>
      </trkpt>
      <trkpt lat="42.481181" lon="-5.371792">
        <ele>825</ele>
        <time>2018-07-23T08:29:21.990Z</time>
      </trkpt>
      <trkpt lat="42.48123" lon="-5.37194">
        <ele>825</ele>
        <time>2018-07-23T08:29:25.000Z</time>
      </trkpt>
      <trkpt lat="42.481283" lon="-5.372098">
        <ele>825</ele>
        <time>2018-07-23T08:29:27.990Z</time>
      </trkpt>
      <trkpt lat="42.481317" lon="-5.372217">
        <ele>824</ele>
        <time>2018-07-23T08:29:30.000Z</time>
      </trkpt>
      <trkpt lat="42.481353" lon="-5.372343">
        <ele>824</ele>
        <time>2018-07-23T08:29:31.990Z</time>
      </trkpt>
      <trkpt lat="42.481397" lon="-5.372485">
        <ele>823.68</ele>
        <time>2018-07-23T08:29:33.990Z</time>
      </trkpt>
      <trkpt lat="42.481445" lon="-5.372645">
        <ele>823</ele>
        <time>2018-07-23T08:29:35.990Z</time>
      </trkpt>
      <trkpt lat="42.481493" lon="-5.372819">
        <ele>822.971419689877</ele>
        <time>2018-07-23T08:29:37.990Z</time>
      </trkpt>
      <trkpt lat="42.48155" lon="-5.373012">
        <ele>821.676768721556</ele>
        <time>2018-07-23T08:29:40.000Z</time>
      </trkpt>
      <trkpt lat="42.481612" lon="-5.373218">
        <ele>819.68</ele>
        <time>2018-07-23T08:29:41.990Z</time>
      </trkpt>
      <trkpt lat="42.48168" lon="-5.373442">
        <ele>819</ele>
        <time>2018-07-23T08:29:43.990Z</time>
      </trkpt>
      <trkpt lat="42.481712" lon="-5.37356">
        <ele>817.6700032</ele>
        <time>2018-07-23T08:29:45.000Z</time>
      </trkpt>
      <trkpt lat="42.481748" lon="-5.373676">
        <ele>816.68</ele>
        <time>2018-07-23T08:29:45.990Z</time>
      </trkpt>
      <trkpt lat="42.481785" lon="-5.373796">
        <ele>815.75572578754</ele>
        <time>2018-07-23T08:29:46.990Z</time>
      </trkpt>
      <trkpt lat="42.481818" lon="-5.373913">
        <ele>815</ele>
        <time>2018-07-23T08:29:47.990Z</time>
      </trkpt>
      <trkpt lat="42.481847" lon="-5.374029">
        <ele>815</ele>
        <time>2018-07-23T08:29:48.990Z</time>
      </trkpt>
      <trkpt lat="42.481881" lon="-5.374144">
        <ele>815</ele>
        <time>2018-07-23T08:29:50.000Z</time>
      </trkpt>
      <trkpt lat="42.481944" lon="-5.374361">
        <ele>815</ele>
        <time>2018-07-23T08:29:51.990Z</time>
      </trkpt>
      <trkpt lat="42.482005" lon="-5.374571">
        <ele>814</ele>
        <time>2018-07-23T08:29:53.990Z</time>
      </trkpt>
      <trkpt lat="42.48206" lon="-5.37477">
        <ele>814</ele>
        <time>2018-07-23T08:29:55.990Z</time>
      </trkpt>
      <trkpt lat="42.482116" lon="-5.374955">
        <ele>814</ele>
        <time>2018-07-23T08:29:57.990Z</time>
      </trkpt>
      <trkpt lat="42.48217" lon="-5.375133">
        <ele>814</ele>
        <time>2018-07-23T08:30:00.000Z</time>
      </trkpt>
      <trkpt lat="42.482229" lon="-5.375318">
        <ele>814</ele>
        <time>2018-07-23T08:30:01.990Z</time>
      </trkpt>
      <trkpt lat="42.482278" lon="-5.375495">
        <ele>814</ele>
        <time>2018-07-23T08:30:03.990Z</time>
      </trkpt>
      <trkpt lat="42.482324" lon="-5.375667">
        <ele>814</ele>
        <time>2018-07-23T08:30:05.990Z</time>
      </trkpt>
      <trkpt lat="42.482377" lon="-5.37584">
        <ele>814</ele>
        <time>2018-07-23T08:30:07.990Z</time>
      </trkpt>
      <trkpt lat="42.482438" lon="-5.376012">
        <ele>814</ele>
        <time>2018-07-23T08:30:10.000Z</time>
      </trkpt>
      <trkpt lat="42.482498" lon="-5.376191">
        <ele>814</ele>
        <time>2018-07-23T08:30:11.990Z</time>
      </trkpt>
      <trkpt lat="42.482543" lon="-5.376357">
        <ele>814</ele>
        <time>2018-07-23T08:30:13.990Z</time>
      </trkpt>
      <trkpt lat="42.482593" lon="-5.376528">
        <ele>814</ele>
        <time>2018-07-23T08:30:15.990Z</time>
      </trkpt>
      <trkpt lat="42.482643" lon="-5.376696">
        <ele>814</ele>
        <time>2018-07-23T08:30:17.990Z</time>
      </trkpt>
      <trkpt lat="42.482699" lon="-5.376877">
        <ele>814</ele>
        <time>2018-07-23T08:30:20.000Z</time>
      </trkpt>
      <trkpt lat="42.482746" lon="-5.377043">
        <ele>814</ele>
        <time>2018-07-23T08:30:21.990Z</time>
      </trkpt>
      <trkpt lat="42.4828" lon="-5.377218">
        <ele>814</ele>
        <time>2018-07-23T08:30:23.990Z</time>
      </trkpt>
      <trkpt lat="42.482851" lon="-5.377393">
        <ele>814</ele>
        <time>2018-07-23T08:30:25.990Z</time>
      </trkpt>
      <trkpt lat="42.482906" lon="-5.377562">
        <ele>814</ele>
        <time>2018-07-23T08:30:27.990Z</time>
      </trkpt>
      <trkpt lat="42.482961" lon="-5.377736">
        <ele>814</ele>
        <time>2018-07-23T08:30:30.000Z</time>
      </trkpt>
      <trkpt lat="42.48302" lon="-5.377909">
        <ele>814</ele>
        <time>2018-07-23T08:30:31.990Z</time>
      </trkpt>
      <trkpt lat="42.483091" lon="-5.37809">
        <ele>814</ele>
        <time>2018-07-23T08:30:33.990Z</time>
      </trkpt>
      <trkpt lat="42.48315" lon="-5.378266">
        <ele>814</ele>
        <time>2018-07-23T08:30:35.990Z</time>
      </trkpt>
      <trkpt lat="42.483204" lon="-5.378438">
        <ele>814</ele>
        <time>2018-07-23T08:30:37.990Z</time>
      </trkpt>
      <trkpt lat="42.483244" lon="-5.378612">
        <ele>814</ele>
        <time>2018-07-23T08:30:40.000Z</time>
      </trkpt>
      <trkpt lat="42.4833" lon="-5.378787">
        <ele>814</ele>
        <time>2018-07-23T08:30:41.990Z</time>
      </trkpt>
      <trkpt lat="42.483349" lon="-5.378959">
        <ele>814</ele>
        <time>2018-07-23T08:30:43.990Z</time>
      </trkpt>
      <trkpt lat="42.483405" lon="-5.379135">
        <ele>814</ele>
        <time>2018-07-23T08:30:45.990Z</time>
      </trkpt>
      <trkpt lat="42.483448" lon="-5.379304">
        <ele>814</ele>
        <time>2018-07-23T08:30:47.990Z</time>
      </trkpt>
      <trkpt lat="42.483499" lon="-5.379467">
        <ele>814</ele>
        <time>2018-07-23T08:30:50.000Z</time>
      </trkpt>
      <trkpt lat="42.483546" lon="-5.379632">
        <ele>814</ele>
        <time>2018-07-23T08:30:51.990Z</time>
      </trkpt>
      <trkpt lat="42.483593" lon="-5.379802">
        <ele>814</ele>
        <time>2018-07-23T08:30:53.990Z</time>
      </trkpt>
      <trkpt lat="42.483644" lon="-5.379966">
        <ele>813.68</ele>
        <time>2018-07-23T08:30:55.990Z</time>
      </trkpt>
      <trkpt lat="42.4837" lon="-5.380135">
        <ele>813</ele>
        <time>2018-07-23T08:30:57.990Z</time>
      </trkpt>
      <trkpt lat="42.48376" lon="-5.380306">
        <ele>813</ele>
        <time>2018-07-23T08:31:00.000Z</time>
      </trkpt>
      <trkpt lat="42.48381" lon="-5.38048">
        <ele>813</ele>
        <time>2018-07-23T08:31:01.990Z</time>
      </trkpt>
      <trkpt lat="42.483871" lon="-5.380652">
        <ele>813</ele>
        <time>2018-07-23T08:31:03.990Z</time>
      </trkpt>
      <trkpt lat="42.483911" lon="-5.380817">
        <ele>813</ele>
        <time>2018-07-23T08:31:05.990Z</time>
      </trkpt>
      <trkpt lat="42.483956" lon="-5.380984">
        <ele>813</ele>
        <time>2018-07-23T08:31:08.000Z</time>
      </trkpt>
      <trkpt lat="42.484011" lon="-5.381163">
        <ele>813</ele>
        <time>2018-07-23T08:31:10.000Z</time>
      </trkpt>
      <trkpt lat="42.484069" lon="-5.381342">
        <ele>813</ele>
        <time>2018-07-23T08:31:12.000Z</time>
      </trkpt>
      <trkpt lat="42.484126" lon="-5.381521">
        <ele>813</ele>
        <time>2018-07-23T08:31:14.000Z</time>
      </trkpt>
      <trkpt lat="42.484184" lon="-5.381699">
        <ele>813</ele>
        <time>2018-07-23T08:31:16.000Z</time>
      </trkpt>
      <trkpt lat="42.484243" lon="-5.381891">
        <ele>813</ele>
        <time>2018-07-23T08:31:18.000Z</time>
      </trkpt>
      <trkpt lat="42.484299" lon="-5.382079">
        <ele>812</ele>
        <time>2018-07-23T08:31:19.990Z</time>
      </trkpt>
      <trkpt lat="42.484356" lon="-5.382264">
        <ele>812</ele>
        <time>2018-07-23T08:31:21.990Z</time>
      </trkpt>
      <trkpt lat="42.484418" lon="-5.382451">
        <ele>813</ele>
        <time>2018-07-23T08:31:24.000Z</time>
      </trkpt>
      <trkpt lat="42.484472" lon="-5.382624">
        <ele>812.68</ele>
        <time>2018-07-23T08:31:25.990Z</time>
      </trkpt>
      <trkpt lat="42.484527" lon="-5.38279">
        <ele>812</ele>
        <time>2018-07-23T08:31:27.990Z</time>
      </trkpt>
      <trkpt lat="42.484574" lon="-5.382962">
        <ele>812</ele>
        <time>2018-07-23T08:31:29.990Z</time>
      </trkpt>
      <trkpt lat="42.484633" lon="-5.383137">
        <ele>812</ele>
        <time>2018-07-23T08:31:31.990Z</time>
      </trkpt>
      <trkpt lat="42.484691" lon="-5.38332">
        <ele>811.6700032</ele>
        <time>2018-07-23T08:31:34.000Z</time>
      </trkpt>
      <trkpt lat="42.484751" lon="-5.383502">
        <ele>811</ele>
        <time>2018-07-23T08:31:35.990Z</time>
      </trkpt>
      <trkpt lat="42.484807" lon="-5.383682">
        <ele>811</ele>
        <time>2018-07-23T08:31:37.990Z</time>
      </trkpt>
      <trkpt lat="42.48487" lon="-5.383866">
        <ele>811</ele>
        <time>2018-07-23T08:31:39.990Z</time>
      </trkpt>
      <trkpt lat="42.484929" lon="-5.384048">
        <ele>811</ele>
        <time>2018-07-23T08:31:41.990Z</time>
      </trkpt>
      <trkpt lat="42.484989" lon="-5.384238">
        <ele>810.6700032</ele>
        <time>2018-07-23T08:31:44.000Z</time>
      </trkpt>
      <trkpt lat="42.48504" lon="-5.384422">
        <ele>810</ele>
        <time>2018-07-23T08:31:45.990Z</time>
      </trkpt>
      <trkpt lat="42.485097" lon="-5.384597">
        <ele>810</ele>
        <time>2018-07-23T08:31:47.990Z</time>
      </trkpt>
      <trkpt lat="42.485149" lon="-5.384778">
        <ele>810</ele>
        <time>2018-07-23T08:31:49.990Z</time>
      </trkpt>
      <trkpt lat="42.485189" lon="-5.384953">
        <ele>810</ele>
        <time>2018-07-23T08:31:51.990Z</time>
      </trkpt>
      <trkpt lat="42.485248" lon="-5.385133">
        <ele>810</ele>
        <time>2018-07-23T08:31:54.000Z</time>
      </trkpt>
      <trkpt lat="42.485289" lon="-5.385303">
        <ele>810</ele>
        <time>2018-07-23T08:31:55.990Z</time>
      </trkpt>
      <trkpt lat="42.485334" lon="-5.385457">
        <ele>809.007573333333</ele>
        <time>2018-07-23T08:31:57.990Z</time>
      </trkpt>
      <trkpt lat="42.485385" lon="-5.385615">
        <ele>809</ele>
        <time>2018-07-23T08:31:59.990Z</time>
      </trkpt>
      <trkpt lat="42.485436" lon="-5.385775">
        <ele>809</ele>
        <time>2018-07-23T08:32:01.990Z</time>
      </trkpt>
      <trkpt lat="42.48549" lon="-5.385932">
        <ele>809</ele>
        <time>2018-07-23T08:32:04.000Z</time>
      </trkpt>
      <trkpt lat="42.485547" lon="-5.386081">
        <ele>809</ele>
        <time>2018-07-23T08:32:05.990Z</time>
      </trkpt>
      <trkpt lat="42.485604" lon="-5.386224">
        <ele>809</ele>
        <time>2018-07-23T08:32:07.990Z</time>
      </trkpt>
      <trkpt lat="42.485659" lon="-5.38637">
        <ele>809.313727458682</ele>
        <time>2018-07-23T08:32:09.990Z</time>
      </trkpt>
      <trkpt lat="42.485722" lon="-5.386526">
        <ele>810</ele>
        <time>2018-07-23T08:32:11.990Z</time>
      </trkpt>
      <trkpt lat="42.485784" lon="-5.386682">
        <ele>810</ele>
        <time>2018-07-23T08:32:14.000Z</time>
      </trkpt>
      <trkpt lat="42.485854" lon="-5.38684">
        <ele>809.68</ele>
        <time>2018-07-23T08:32:15.990Z</time>
      </trkpt>
      <trkpt lat="42.485921" lon="-5.387001">
        <ele>809</ele>
        <time>2018-07-23T08:32:17.990Z</time>
      </trkpt>
      <trkpt lat="42.485995" lon="-5.387159">
        <ele>809</ele>
        <time>2018-07-23T08:32:19.990Z</time>
      </trkpt>
      <trkpt lat="42.486068" lon="-5.387324">
        <ele>809</ele>
        <time>2018-07-23T08:32:21.990Z</time>
      </trkpt>
      <trkpt lat="42.486139" lon="-5.387485">
        <ele>809</ele>
        <time>2018-07-23T08:32:24.000Z</time>
      </trkpt>
      <trkpt lat="42.486204" lon="-5.387643">
        <ele>809</ele>
        <time>2018-07-23T08:32:25.990Z</time>
      </trkpt>
      <trkpt lat="42.48628" lon="-5.387807">
        <ele>809</ele>
        <time>2018-07-23T08:32:27.990Z</time>
      </trkpt>
      <trkpt lat="42.486347" lon="-5.387976">
        <ele>809</ele>
        <time>2018-07-23T08:32:29.990Z</time>
      </trkpt>
      <trkpt lat="42.486416" lon="-5.388137">
        <ele>809</ele>
        <time>2018-07-23T08:32:31.990Z</time>
      </trkpt>
      <trkpt lat="42.486487" lon="-5.388301">
        <ele>809</ele>
        <time>2018-07-23T08:32:34.000Z</time>
      </trkpt>
      <trkpt lat="42.486558" lon="-5.388452">
        <ele>809</ele>
        <time>2018-07-23T08:32:35.990Z</time>
      </trkpt>
      <trkpt lat="42.486623" lon="-5.388611">
        <ele>809</ele>
        <time>2018-07-23T08:32:37.990Z</time>
      </trkpt>
      <trkpt lat="42.486692" lon="-5.38877">
        <ele>809</ele>
        <time>2018-07-23T08:32:39.990Z</time>
      </trkpt>
      <trkpt lat="42.486762" lon="-5.388932">
        <ele>809</ele>
        <time>2018-07-23T08:32:41.990Z</time>
      </trkpt>
      <trkpt lat="42.486831" lon="-5.389095">
        <ele>809</ele>
        <time>2018-07-23T08:32:44.000Z</time>
      </trkpt>
      <trkpt lat="42.486904" lon="-5.389251">
        <ele>809</ele>
        <time>2018-07-23T08:32:45.990Z</time>
      </trkpt>
      <trkpt lat="42.486972" lon="-5.389406">
        <ele>809</ele>
        <time>2018-07-23T08:32:47.990Z</time>
      </trkpt>
      <trkpt lat="42.487043" lon="-5.389564">
        <ele>809</ele>
        <time>2018-07-23T08:32:49.990Z</time>
      </trkpt>
      <trkpt lat="42.487116" lon="-5.389719">
        <ele>809</ele>
        <time>2018-07-23T08:32:51.990Z</time>
      </trkpt>
      <trkpt lat="42.487179" lon="-5.38988">
        <ele>809</ele>
        <time>2018-07-23T08:32:54.000Z</time>
      </trkpt>
      <trkpt lat="42.487257" lon="-5.390039">
        <ele>809</ele>
        <time>2018-07-23T08:32:55.990Z</time>
      </trkpt>
      <trkpt lat="42.487327" lon="-5.390204">
        <ele>809</ele>
        <time>2018-07-23T08:32:57.990Z</time>
      </trkpt>
      <trkpt lat="42.487394" lon="-5.39037">
        <ele>809</ele>
        <time>2018-07-23T08:32:59.990Z</time>
      </trkpt>
      <trkpt lat="42.487463" lon="-5.390522">
        <ele>809</ele>
        <time>2018-07-23T08:33:01.990Z</time>
      </trkpt>
      <trkpt lat="42.487534" lon="-5.390685">
        <ele>809</ele>
        <time>2018-07-23T08:33:04.000Z</time>
      </trkpt>
      <trkpt lat="42.4876" lon="-5.390847">
        <ele>809</ele>
        <time>2018-07-23T08:33:05.990Z</time>
      </trkpt>
      <trkpt lat="42.487663" lon="-5.391006">
        <ele>809</ele>
        <time>2018-07-23T08:33:07.990Z</time>
      </trkpt>
      <trkpt lat="42.48773" lon="-5.391163">
        <ele>809</ele>
        <time>2018-07-23T08:33:09.990Z</time>
      </trkpt>
      <trkpt lat="42.487792" lon="-5.391317">
        <ele>809</ele>
        <time>2018-07-23T08:33:11.990Z</time>
      </trkpt>
      <trkpt lat="42.487858" lon="-5.391477">
        <ele>809</ele>
        <time>2018-07-23T08:33:14.000Z</time>
      </trkpt>
      <trkpt lat="42.487923" lon="-5.391627">
        <ele>809</ele>
        <time>2018-07-23T08:33:15.990Z</time>
      </trkpt>
      <trkpt lat="42.487989" lon="-5.391776">
        <ele>809</ele>
        <time>2018-07-23T08:33:17.990Z</time>
      </trkpt>
      <trkpt lat="42.488053" lon="-5.39193">
        <ele>809</ele>
        <time>2018-07-23T08:33:19.990Z</time>
      </trkpt>
      <trkpt lat="42.488124" lon="-5.392087">
        <ele>808.68</ele>
        <time>2018-07-23T08:33:21.990Z</time>
      </trkpt>
      <trkpt lat="42.488181" lon="-5.392239">
        <ele>808</ele>
        <time>2018-07-23T08:33:24.000Z</time>
      </trkpt>
      <trkpt lat="42.488241" lon="-5.392387">
        <ele>808</ele>
        <time>2018-07-23T08:33:25.990Z</time>
      </trkpt>
      <trkpt lat="42.488312" lon="-5.392544">
        <ele>809</ele>
        <time>2018-07-23T08:33:27.990Z</time>
      </trkpt>
      <trkpt lat="42.488382" lon="-5.392702">
        <ele>809</ele>
        <time>2018-07-23T08:33:29.990Z</time>
      </trkpt>
      <trkpt lat="42.488451" lon="-5.392854">
        <ele>809</ele>
        <time>2018-07-23T08:33:31.990Z</time>
      </trkpt>
      <trkpt lat="42.488515" lon="-5.393006">
        <ele>809</ele>
        <time>2018-07-23T08:33:34.000Z</time>
      </trkpt>
      <trkpt lat="42.488584" lon="-5.39316">
        <ele>809</ele>
        <time>2018-07-23T08:33:35.990Z</time>
      </trkpt>
      <trkpt lat="42.488657" lon="-5.393315">
        <ele>809</ele>
        <time>2018-07-23T08:33:37.990Z</time>
      </trkpt>
      <trkpt lat="42.488726" lon="-5.393474">
        <ele>809</ele>
        <time>2018-07-23T08:33:39.990Z</time>
      </trkpt>
      <trkpt lat="42.488782" lon="-5.393637">
        <ele>809</ele>
        <time>2018-07-23T08:33:41.990Z</time>
      </trkpt>
      <trkpt lat="42.488849" lon="-5.393794">
        <ele>809</ele>
        <time>2018-07-23T08:33:44.000Z</time>
      </trkpt>
      <trkpt lat="42.488909" lon="-5.393949">
        <ele>809</ele>
        <time>2018-07-23T08:33:45.990Z</time>
      </trkpt>
      <trkpt lat="42.488971" lon="-5.394089">
        <ele>809</ele>
        <time>2018-07-23T08:33:47.990Z</time>
      </trkpt>
      <trkpt lat="42.489036" lon="-5.394239">
        <ele>809</ele>
        <time>2018-07-23T08:33:49.990Z</time>
      </trkpt>
      <trkpt lat="42.489105" lon="-5.394404">
        <ele>809</ele>
        <time>2018-07-23T08:33:51.990Z</time>
      </trkpt>
      <trkpt lat="42.489167" lon="-5.394564">
        <ele>809</ele>
        <time>2018-07-23T08:33:54.000Z</time>
      </trkpt>
      <trkpt lat="42.489238" lon="-5.39472">
        <ele>809</ele>
        <time>2018-07-23T08:33:55.990Z</time>
      </trkpt>
      <trkpt lat="42.489305" lon="-5.394889">
        <ele>809</ele>
        <time>2018-07-23T08:33:57.990Z</time>
      </trkpt>
      <trkpt lat="42.489375" lon="-5.395047">
        <ele>809</ele>
        <time>2018-07-23T08:33:59.990Z</time>
      </trkpt>
      <trkpt lat="42.489446" lon="-5.3952">
        <ele>809</ele>
        <time>2018-07-23T08:34:01.990Z</time>
      </trkpt>
      <trkpt lat="42.489511" lon="-5.395357">
        <ele>809</ele>
        <time>2018-07-23T08:34:04.000Z</time>
      </trkpt>
      <trkpt lat="42.489575" lon="-5.395509">
        <ele>809</ele>
        <time>2018-07-23T08:34:05.990Z</time>
      </trkpt>
      <trkpt lat="42.489642" lon="-5.395668">
        <ele>809</ele>
        <time>2018-07-23T08:34:07.990Z</time>
      </trkpt>
      <trkpt lat="42.48971" lon="-5.395824">
        <ele>809</ele>
        <time>2018-07-23T08:34:09.990Z</time>
      </trkpt>
      <trkpt lat="42.489783" lon="-5.395982">
        <ele>809</ele>
        <time>2018-07-23T08:34:11.990Z</time>
      </trkpt>
      <trkpt lat="42.489854" lon="-5.396144">
        <ele>808.028976366267</ele>
        <time>2018-07-23T08:34:14.000Z</time>
      </trkpt>
      <trkpt lat="42.489921" lon="-5.396301">
        <ele>809</ele>
        <time>2018-07-23T08:34:15.990Z</time>
      </trkpt>
      <trkpt lat="42.489994" lon="-5.396457">
        <ele>808</ele>
        <time>2018-07-23T08:34:17.990Z</time>
      </trkpt>
      <trkpt lat="42.490068" lon="-5.396615">
        <ele>808</ele>
        <time>2018-07-23T08:34:19.990Z</time>
      </trkpt>
      <trkpt lat="42.490132" lon="-5.396773">
        <ele>808</ele>
        <time>2018-07-23T08:34:21.990Z</time>
      </trkpt>
      <trkpt lat="42.490195" lon="-5.396938">
        <ele>808</ele>
        <time>2018-07-23T08:34:24.000Z</time>
      </trkpt>
      <trkpt lat="42.490257" lon="-5.397083">
        <ele>808</ele>
        <time>2018-07-23T08:34:25.990Z</time>
      </trkpt>
      <trkpt lat="42.490321" lon="-5.397238">
        <ele>808</ele>
        <time>2018-07-23T08:34:27.990Z</time>
      </trkpt>
      <trkpt lat="42.490385" lon="-5.397383">
        <ele>808</ele>
        <time>2018-07-23T08:34:29.990Z</time>
      </trkpt>
      <trkpt lat="42.49045" lon="-5.397543">
        <ele>808</ele>
        <time>2018-07-23T08:34:31.990Z</time>
      </trkpt>
      <trkpt lat="42.490525" lon="-5.397707">
        <ele>808</ele>
        <time>2018-07-23T08:34:34.000Z</time>
      </trkpt>
      <trkpt lat="42.490593" lon="-5.397858">
        <ele>808</ele>
        <time>2018-07-23T08:34:35.990Z</time>
      </trkpt>
      <trkpt lat="42.490662" lon="-5.398007">
        <ele>808</ele>
        <time>2018-07-23T08:34:37.990Z</time>
      </trkpt>
      <trkpt lat="42.490727" lon="-5.398164">
        <ele>808</ele>
        <time>2018-07-23T08:34:39.990Z</time>
      </trkpt>
      <trkpt lat="42.490787" lon="-5.398327">
        <ele>808.028580310123</ele>
        <time>2018-07-23T08:34:41.990Z</time>
      </trkpt>
      <trkpt lat="42.490852" lon="-5.398496">
        <ele>809</ele>
        <time>2018-07-23T08:34:44.000Z</time>
      </trkpt>
      <trkpt lat="42.490923" lon="-5.39865">
        <ele>809</ele>
        <time>2018-07-23T08:34:45.990Z</time>
      </trkpt>
      <trkpt lat="42.490994" lon="-5.398814">
        <ele>809</ele>
        <time>2018-07-23T08:34:47.990Z</time>
      </trkpt>
      <trkpt lat="42.491062" lon="-5.398975">
        <ele>809</ele>
        <time>2018-07-23T08:34:49.990Z</time>
      </trkpt>
      <trkpt lat="42.491131" lon="-5.399136">
        <ele>809</ele>
        <time>2018-07-23T08:34:51.990Z</time>
      </trkpt>
      <trkpt lat="42.491198" lon="-5.399289">
        <ele>808</ele>
        <time>2018-07-23T08:34:54.000Z</time>
      </trkpt>
      <trkpt lat="42.491268" lon="-5.399446">
        <ele>808</ele>
        <time>2018-07-23T08:34:55.990Z</time>
      </trkpt>
      <trkpt lat="42.491335" lon="-5.399609">
        <ele>808</ele>
        <time>2018-07-23T08:34:57.990Z</time>
      </trkpt>
      <trkpt lat="42.4914" lon="-5.399764">
        <ele>808.32</ele>
        <time>2018-07-23T08:34:59.990Z</time>
      </trkpt>
      <trkpt lat="42.491468" lon="-5.399931">
        <ele>809</ele>
        <time>2018-07-23T08:35:01.990Z</time>
      </trkpt>
      <trkpt lat="42.491531" lon="-5.400097">
        <ele>808.957138677589</ele>
        <time>2018-07-23T08:35:04.000Z</time>
      </trkpt>
      <trkpt lat="42.491598" lon="-5.400251">
        <ele>808</ele>
        <time>2018-07-23T08:35:05.990Z</time>
      </trkpt>
      <trkpt lat="42.491664" lon="-5.400412">
        <ele>808</ele>
        <time>2018-07-23T08:35:07.990Z</time>
      </trkpt>
      <trkpt lat="42.491733" lon="-5.40057">
        <ele>808</ele>
        <time>2018-07-23T08:35:09.990Z</time>
      </trkpt>
      <trkpt lat="42.491799" lon="-5.400729">
        <ele>808</ele>
        <time>2018-07-23T08:35:11.990Z</time>
      </trkpt>
      <trkpt lat="42.491864" lon="-5.400886">
        <ele>808</ele>
        <time>2018-07-23T08:35:14.000Z</time>
      </trkpt>
      <trkpt lat="42.491933" lon="-5.401042">
        <ele>808</ele>
        <time>2018-07-23T08:35:15.990Z</time>
      </trkpt>
      <trkpt lat="42.492002" lon="-5.401205">
        <ele>808</ele>
        <time>2018-07-23T08:35:17.990Z</time>
      </trkpt>
      <trkpt lat="42.492068" lon="-5.40136">
        <ele>808</ele>
        <time>2018-07-23T08:35:19.990Z</time>
      </trkpt>
      <trkpt lat="42.492136" lon="-5.401517">
        <ele>808</ele>
        <time>2018-07-23T08:35:21.990Z</time>
      </trkpt>
      <trkpt lat="42.492197" lon="-5.401669">
        <ele>808</ele>
        <time>2018-07-23T08:35:24.000Z</time>
      </trkpt>
      <trkpt lat="42.49227" lon="-5.401823">
        <ele>809</ele>
        <time>2018-07-23T08:35:25.990Z</time>
      </trkpt>
      <trkpt lat="42.492347" lon="-5.401983">
        <ele>809</ele>
        <time>2018-07-23T08:35:27.990Z</time>
      </trkpt>
      <trkpt lat="42.492417" lon="-5.402148">
        <ele>809</ele>
        <time>2018-07-23T08:35:29.990Z</time>
      </trkpt>
      <trkpt lat="42.49248" lon="-5.402307">
        <ele>809</ele>
        <time>2018-07-23T08:35:31.990Z</time>
      </trkpt>
      <trkpt lat="42.49255" lon="-5.402467">
        <ele>809</ele>
        <time>2018-07-23T08:35:34.000Z</time>
      </trkpt>
      <trkpt lat="42.492621" lon="-5.402632">
        <ele>809</ele>
        <time>2018-07-23T08:35:35.990Z</time>
      </trkpt>
      <trkpt lat="42.492694" lon="-5.402797">
        <ele>809</ele>
        <time>2018-07-23T08:35:37.990Z</time>
      </trkpt>
      <trkpt lat="42.492756" lon="-5.40296">
        <ele>809</ele>
        <time>2018-07-23T08:35:39.990Z</time>
      </trkpt>
      <trkpt lat="42.492818" lon="-5.403111">
        <ele>808.68</ele>
        <time>2018-07-23T08:35:41.990Z</time>
      </trkpt>
      <trkpt lat="42.492883" lon="-5.403265">
        <ele>808</ele>
        <time>2018-07-23T08:35:44.000Z</time>
      </trkpt>
      <trkpt lat="42.492954" lon="-5.403417">
        <ele>808</ele>
        <time>2018-07-23T08:35:45.990Z</time>
      </trkpt>
      <trkpt lat="42.493019" lon="-5.403567">
        <ele>808</ele>
        <time>2018-07-23T08:35:47.990Z</time>
      </trkpt>
      <trkpt lat="42.49308" lon="-5.40371">
        <ele>808</ele>
        <time>2018-07-23T08:35:49.990Z</time>
      </trkpt>
      <trkpt lat="42.493141" lon="-5.403848">
        <ele>808</ele>
        <time>2018-07-23T08:35:51.990Z</time>
      </trkpt>
      <trkpt lat="42.493205" lon="-5.40399">
        <ele>808</ele>
        <time>2018-07-23T08:35:54.000Z</time>
      </trkpt>
      <trkpt lat="42.493266" lon="-5.404134">
        <ele>808</ele>
        <time>2018-07-23T08:35:55.990Z</time>
      </trkpt>
      <trkpt lat="42.493328" lon="-5.404284">
        <ele>808</ele>
        <time>2018-07-23T08:35:57.990Z</time>
      </trkpt>
      <trkpt lat="42.493392" lon="-5.404437">
        <ele>808</ele>
        <time>2018-07-23T08:35:59.990Z</time>
      </trkpt>
      <trkpt lat="42.493469" lon="-5.404592">
        <ele>809</ele>
        <time>2018-07-23T08:36:01.990Z</time>
      </trkpt>
      <trkpt lat="42.493543" lon="-5.404743">
        <ele>809</ele>
        <time>2018-07-23T08:36:04.000Z</time>
      </trkpt>
      <trkpt lat="42.49361" lon="-5.404886">
        <ele>809</ele>
        <time>2018-07-23T08:36:05.990Z</time>
      </trkpt>
      <trkpt lat="42.493663" lon="-5.405031">
        <ele>809</ele>
        <time>2018-07-23T08:36:07.990Z</time>
      </trkpt>
      <trkpt lat="42.493728" lon="-5.405169">
        <ele>808.68</ele>
        <time>2018-07-23T08:36:09.990Z</time>
      </trkpt>
      <trkpt lat="42.493785" lon="-5.405298">
        <ele>808</ele>
        <time>2018-07-23T08:36:11.990Z</time>
      </trkpt>
      <trkpt lat="42.49383" lon="-5.405438">
        <ele>808.3299968</ele>
        <time>2018-07-23T08:36:14.000Z</time>
      </trkpt>
      <trkpt lat="42.493872" lon="-5.405579">
        <ele>809</ele>
        <time>2018-07-23T08:36:15.990Z</time>
      </trkpt>
      <trkpt lat="42.493927" lon="-5.405718">
        <ele>810</ele>
        <time>2018-07-23T08:36:17.990Z</time>
      </trkpt>
      <trkpt lat="42.493977" lon="-5.405847">
        <ele>810</ele>
        <time>2018-07-23T08:36:19.990Z</time>
      </trkpt>
      <trkpt lat="42.494023" lon="-5.40598">
        <ele>810.32</ele>
        <time>2018-07-23T08:36:21.990Z</time>
      </trkpt>
      <trkpt lat="42.49406" lon="-5.406108">
        <ele>812</ele>
        <time>2018-07-23T08:36:24.000Z</time>
      </trkpt>
      <trkpt lat="42.4941" lon="-5.40623">
        <ele>812.242424242424</ele>
        <time>2018-07-23T08:36:25.990Z</time>
      </trkpt>
      <trkpt lat="42.49415" lon="-5.406355">
        <ele>813.32</ele>
        <time>2018-07-23T08:36:27.990Z</time>
      </trkpt>
      <trkpt lat="42.494194" lon="-5.406479">
        <ele>814</ele>
        <time>2018-07-23T08:36:29.990Z</time>
      </trkpt>
      <trkpt lat="42.494245" lon="-5.406595">
        <ele>814</ele>
        <time>2018-07-23T08:36:31.990Z</time>
      </trkpt>
      <trkpt lat="42.494285" lon="-5.406723">
        <ele>814</ele>
        <time>2018-07-23T08:36:34.000Z</time>
      </trkpt>
      <trkpt lat="42.494319" lon="-5.40685">
        <ele>814</ele>
        <time>2018-07-23T08:36:35.990Z</time>
      </trkpt>
      <trkpt lat="42.494354" lon="-5.406978">
        <ele>815</ele>
        <time>2018-07-23T08:36:37.990Z</time>
      </trkpt>
      <trkpt lat="42.49438" lon="-5.407096">
        <ele>815</ele>
        <time>2018-07-23T08:36:39.990Z</time>
      </trkpt>
      <trkpt lat="42.494395" lon="-5.407253">
        <ele>815</ele>
        <time>2018-07-23T08:36:42.990Z</time>
      </trkpt>
      <trkpt lat="42.494404" lon="-5.407415">
        <ele>815</ele>
        <time>2018-07-23T08:36:45.990Z</time>
      </trkpt>
      <trkpt lat="42.494413" lon="-5.407572">
        <ele>815.3299968</ele>
        <time>2018-07-23T08:36:49.000Z</time>
      </trkpt>
      <trkpt lat="42.494431" lon="-5.407722">
        <ele>816</ele>
        <time>2018-07-23T08:36:51.990Z</time>
      </trkpt>
      <trkpt lat="42.494487" lon="-5.407881">
        <ele>815</ele>
        <time>2018-07-23T08:36:54.990Z</time>
      </trkpt>
      <trkpt lat="42.494555" lon="-5.40798">
        <ele>815</ele>
        <time>2018-07-23T08:36:56.990Z</time>
      </trkpt>
      <trkpt lat="42.49464" lon="-5.408075">
        <ele>814.6700032</ele>
        <time>2018-07-23T08:36:59.000Z</time>
      </trkpt>
      <trkpt lat="42.494749" lon="-5.408152">
        <ele>813.68</ele>
        <time>2018-07-23T08:37:00.990Z</time>
      </trkpt>
      <trkpt lat="42.494873" lon="-5.408222">
        <ele>813</ele>
        <time>2018-07-23T08:37:02.990Z</time>
      </trkpt>
      <trkpt lat="42.495001" lon="-5.408309">
        <ele>812</ele>
        <time>2018-07-23T08:37:04.990Z</time>
      </trkpt>
      <trkpt lat="42.495138" lon="-5.408419">
        <ele>810.68</ele>
        <time>2018-07-23T08:37:06.990Z</time>
      </trkpt>
      <trkpt lat="42.495258" lon="-5.408567">
        <ele>810</ele>
        <time>2018-07-23T08:37:09.000Z</time>
      </trkpt>
      <trkpt lat="42.49536" lon="-5.408754">
        <ele>808.68</ele>
        <time>2018-07-23T08:37:10.990Z</time>
      </trkpt>
      <trkpt lat="42.495447" lon="-5.408951">
        <ele>807</ele>
        <time>2018-07-23T08:37:12.990Z</time>
      </trkpt>
      <trkpt lat="42.495524" lon="-5.409146">
        <ele>807</ele>
        <time>2018-07-23T08:37:14.990Z</time>
      </trkpt>
      <trkpt lat="42.495594" lon="-5.409327">
        <ele>807</ele>
        <time>2018-07-23T08:37:16.990Z</time>
      </trkpt>
      <trkpt lat="42.495655" lon="-5.409513">
        <ele>806.6700032</ele>
        <time>2018-07-23T08:37:19.000Z</time>
      </trkpt>
      <trkpt lat="42.495723" lon="-5.409687">
        <ele>806</ele>
        <time>2018-07-23T08:37:20.990Z</time>
      </trkpt>
      <trkpt lat="42.495791" lon="-5.409872">
        <ele>806</ele>
        <time>2018-07-23T08:37:22.990Z</time>
      </trkpt>
      <trkpt lat="42.495852" lon="-5.410049">
        <ele>806</ele>
        <time>2018-07-23T08:37:24.990Z</time>
      </trkpt>
      <trkpt lat="42.495917" lon="-5.410224">
        <ele>806</ele>
        <time>2018-07-23T08:37:26.990Z</time>
      </trkpt>
      <trkpt lat="42.495987" lon="-5.410382">
        <ele>806</ele>
        <time>2018-07-23T08:37:29.000Z</time>
      </trkpt>
      <trkpt lat="42.496057" lon="-5.410537">
        <ele>806</ele>
        <time>2018-07-23T08:37:30.990Z</time>
      </trkpt>
      <trkpt lat="42.496112" lon="-5.41069">
        <ele>806</ele>
        <time>2018-07-23T08:37:32.990Z</time>
      </trkpt>
      <trkpt lat="42.496167" lon="-5.410839">
        <ele>806</ele>
        <time>2018-07-23T08:37:34.990Z</time>
      </trkpt>
      <trkpt lat="42.496226" lon="-5.410993">
        <ele>806</ele>
        <time>2018-07-23T08:37:36.990Z</time>
      </trkpt>
      <trkpt lat="42.496284" lon="-5.411148">
        <ele>806</ele>
        <time>2018-07-23T08:37:39.000Z</time>
      </trkpt>
      <trkpt lat="42.496342" lon="-5.411298">
        <ele>806</ele>
        <time>2018-07-23T08:37:40.990Z</time>
      </trkpt>
      <trkpt lat="42.496399" lon="-5.411451">
        <ele>806</ele>
        <time>2018-07-23T08:37:42.990Z</time>
      </trkpt>
      <trkpt lat="42.496453" lon="-5.411607">
        <ele>806</ele>
        <time>2018-07-23T08:37:44.990Z</time>
      </trkpt>
      <trkpt lat="42.496508" lon="-5.411753">
        <ele>806</ele>
        <time>2018-07-23T08:37:46.990Z</time>
      </trkpt>
      <trkpt lat="42.496567" lon="-5.4119">
        <ele>806</ele>
        <time>2018-07-23T08:37:49.000Z</time>
      </trkpt>
      <trkpt lat="42.49663" lon="-5.412042">
        <ele>806</ele>
        <time>2018-07-23T08:37:50.990Z</time>
      </trkpt>
      <trkpt lat="42.496693" lon="-5.412189">
        <ele>806</ele>
        <time>2018-07-23T08:37:52.990Z</time>
      </trkpt>
      <trkpt lat="42.496758" lon="-5.412344">
        <ele>806</ele>
        <time>2018-07-23T08:37:54.990Z</time>
      </trkpt>
      <trkpt lat="42.496816" lon="-5.412488">
        <ele>805</ele>
        <time>2018-07-23T08:37:56.990Z</time>
      </trkpt>
      <trkpt lat="42.496881" lon="-5.41263">
        <ele>805</ele>
        <time>2018-07-23T08:37:59.000Z</time>
      </trkpt>
      <trkpt lat="42.496945" lon="-5.412766">
        <ele>805</ele>
        <time>2018-07-23T08:38:00.990Z</time>
      </trkpt>
      <trkpt lat="42.496999" lon="-5.412904">
        <ele>805</ele>
        <time>2018-07-23T08:38:02.990Z</time>
      </trkpt>
      <trkpt lat="42.497058" lon="-5.413035">
        <ele>805</ele>
        <time>2018-07-23T08:38:04.990Z</time>
      </trkpt>
      <trkpt lat="42.497123" lon="-5.413168">
        <ele>805</ele>
        <time>2018-07-23T08:38:06.990Z</time>
      </trkpt>
      <trkpt lat="42.497182" lon="-5.413295">
        <ele>805</ele>
        <time>2018-07-23T08:38:09.000Z</time>
      </trkpt>
      <trkpt lat="42.497241" lon="-5.41342">
        <ele>805</ele>
        <time>2018-07-23T08:38:10.990Z</time>
      </trkpt>
      <trkpt lat="42.497296" lon="-5.413543">
        <ele>805</ele>
        <time>2018-07-23T08:38:12.990Z</time>
      </trkpt>
      <trkpt lat="42.497354" lon="-5.413678">
        <ele>805</ele>
        <time>2018-07-23T08:38:14.990Z</time>
      </trkpt>
      <trkpt lat="42.497397" lon="-5.4138">
        <ele>805</ele>
        <time>2018-07-23T08:38:16.990Z</time>
      </trkpt>
      <trkpt lat="42.497449" lon="-5.413936">
        <ele>805</ele>
        <time>2018-07-23T08:38:19.000Z</time>
      </trkpt>
      <trkpt lat="42.497489" lon="-5.41408">
        <ele>805</ele>
        <time>2018-07-23T08:38:20.990Z</time>
      </trkpt>
      <trkpt lat="42.497536" lon="-5.414226">
        <ele>805</ele>
        <time>2018-07-23T08:38:22.990Z</time>
      </trkpt>
      <trkpt lat="42.49757" lon="-5.41436">
        <ele>805</ele>
        <time>2018-07-23T08:38:24.990Z</time>
      </trkpt>
      <trkpt lat="42.497593" lon="-5.41449">
        <ele>805</ele>
        <time>2018-07-23T08:38:26.990Z</time>
      </trkpt>
      <trkpt lat="42.497623" lon="-5.41462">
        <ele>805</ele>
        <time>2018-07-23T08:38:29.000Z</time>
      </trkpt>
      <trkpt lat="42.497654" lon="-5.414742">
        <ele>805</ele>
        <time>2018-07-23T08:38:30.990Z</time>
      </trkpt>
      <trkpt lat="42.497696" lon="-5.414893">
        <ele>805</ele>
        <time>2018-07-23T08:38:34.000Z</time>
      </trkpt>
      <trkpt lat="42.497725" lon="-5.415022">
        <ele>805</ele>
        <time>2018-07-23T08:38:49.990Z</time>
      </trkpt>
      <trkpt lat="42.497674" lon="-5.415157">
        <ele>805</ele>
        <time>2018-07-23T08:38:54.000Z</time>
      </trkpt>
      <trkpt lat="42.497637" lon="-5.415282">
        <ele>805</ele>
        <time>2018-07-23T08:38:56.990Z</time>
      </trkpt>
      <trkpt lat="42.497631" lon="-5.415438">
        <ele>805</ele>
        <time>2018-07-23T08:39:00.990Z</time>
      </trkpt>
      <trkpt lat="42.497661" lon="-5.41557">
        <ele>805</ele>
        <time>2018-07-23T08:39:04.000Z</time>
      </trkpt>
      <trkpt lat="42.497752" lon="-5.415657">
        <ele>805</ele>
        <time>2018-07-23T08:39:07.990Z</time>
      </trkpt>
      <trkpt lat="42.497841" lon="-5.41574">
        <ele>805</ele>
        <time>2018-07-23T08:39:11.990Z</time>
      </trkpt>
      <trkpt lat="42.497919" lon="-5.415826">
        <ele>805</ele>
        <time>2018-07-23T08:39:14.990Z</time>
      </trkpt>
      <trkpt lat="42.497973" lon="-5.415935">
        <ele>805.014488183134</ele>
        <time>2018-07-23T08:39:17.990Z</time>
      </trkpt>
      <trkpt lat="42.498035" lon="-5.416036">
        <ele>806</ele>
        <time>2018-07-23T08:39:20.990Z</time>
      </trkpt>
      <trkpt lat="42.498093" lon="-5.416151">
        <ele>806</ele>
        <time>2018-07-23T08:39:24.000Z</time>
      </trkpt>
      <trkpt lat="42.498146" lon="-5.416303">
        <ele>806</ele>
        <time>2018-07-23T08:39:27.000Z</time>
      </trkpt>
      <trkpt lat="42.498197" lon="-5.416413">
        <ele>806</ele>
        <time>2018-07-23T08:39:29.990Z</time>
      </trkpt>
      <trkpt lat="42.498262" lon="-5.416517">
        <ele>806</ele>
        <time>2018-07-23T08:39:31.990Z</time>
      </trkpt>
      <trkpt lat="42.498358" lon="-5.41672">
        <ele>806</ele>
        <time>2018-07-23T08:39:36.000Z</time>
      </trkpt>
      <trkpt lat="42.498413" lon="-5.416837">
        <ele>805</ele>
        <time>2018-07-23T08:39:38.000Z</time>
      </trkpt>
      <trkpt lat="42.498447" lon="-5.416957">
        <ele>805</ele>
        <time>2018-07-23T08:39:40.000Z</time>
      </trkpt>
      <trkpt lat="42.498513" lon="-5.417073">
        <ele>805</ele>
        <time>2018-07-23T08:39:41.990Z</time>
      </trkpt>
      <trkpt lat="42.498564" lon="-5.417183">
        <ele>805</ele>
        <time>2018-07-23T08:39:43.990Z</time>
      </trkpt>
      <trkpt lat="42.498594" lon="-5.417311">
        <ele>805</ele>
        <time>2018-07-23T08:39:46.000Z</time>
      </trkpt>
      <trkpt lat="42.498639" lon="-5.41743">
        <ele>805.014488183134</ele>
        <time>2018-07-23T08:39:47.990Z</time>
      </trkpt>
      <trkpt lat="42.49869" lon="-5.417546">
        <ele>806</ele>
        <time>2018-07-23T08:39:49.990Z</time>
      </trkpt>
      <trkpt lat="42.498753" lon="-5.417698">
        <ele>806</ele>
        <time>2018-07-23T08:39:52.990Z</time>
      </trkpt>
      <trkpt lat="42.498832" lon="-5.417817">
        <ele>806</ele>
        <time>2018-07-23T08:39:56.000Z</time>
      </trkpt>
      <trkpt lat="42.498883" lon="-5.417917">
        <ele>806</ele>
        <time>2018-07-23T08:39:58.990Z</time>
      </trkpt>
      <trkpt lat="42.49894" lon="-5.418026">
        <ele>806</ele>
        <time>2018-07-23T08:40:01.990Z</time>
      </trkpt>
      <trkpt lat="42.499037" lon="-5.418136">
        <ele>806</ele>
        <time>2018-07-23T08:40:05.100Z</time>
      </trkpt>
      <trkpt lat="42.499123" lon="-5.418213">
        <ele>806</ele>
        <time>2018-07-23T08:40:07.000Z</time>
      </trkpt>
      <trkpt lat="42.499254" lon="-5.418381">
        <ele>806</ele>
        <time>2018-07-23T08:40:11.000Z</time>
      </trkpt>
      <trkpt lat="42.499373" lon="-5.418464">
        <ele>806</ele>
        <time>2018-07-23T08:40:13.000Z</time>
      </trkpt>
      <trkpt lat="42.499449" lon="-5.418545">
        <ele>806</ele>
        <time>2018-07-23T08:40:15.000Z</time>
      </trkpt>
      <trkpt lat="42.499517" lon="-5.418631">
        <ele>806</ele>
        <time>2018-07-23T08:40:16.990Z</time>
      </trkpt>
      <trkpt lat="42.499596" lon="-5.418691">
        <ele>806</ele>
        <time>2018-07-23T08:40:19.100Z</time>
      </trkpt>
      <trkpt lat="42.499674" lon="-5.4188">
        <ele>806</ele>
        <time>2018-07-23T08:40:22.000Z</time>
      </trkpt>
      <trkpt lat="42.49976" lon="-5.418868">
        <ele>806</ele>
        <time>2018-07-23T08:40:23.990Z</time>
      </trkpt>
      <trkpt lat="42.499845" lon="-5.418929">
        <ele>806</ele>
        <time>2018-07-23T08:40:25.990Z</time>
      </trkpt>
      <trkpt lat="42.499941" lon="-5.419057">
        <ele>805.68</ele>
        <time>2018-07-23T08:40:28.990Z</time>
      </trkpt>
      <trkpt lat="42.500056" lon="-5.419137">
        <ele>805</ele>
        <time>2018-07-23T08:40:31.990Z</time>
      </trkpt>
      <trkpt lat="42.500145" lon="-5.419177">
        <ele>805</ele>
        <time>2018-07-23T08:40:33.990Z</time>
      </trkpt>
      <trkpt lat="42.500237" lon="-5.419195">
        <ele>805</ele>
        <time>2018-07-23T08:40:35.990Z</time>
      </trkpt>
      <trkpt lat="42.500334" lon="-5.419247">
        <ele>805</ele>
        <time>2018-07-23T08:40:38.990Z</time>
      </trkpt>
      <trkpt lat="42.500418" lon="-5.419302">
        <ele>806</ele>
        <time>2018-07-23T08:40:43.000Z</time>
      </trkpt>
      <trkpt lat="42.500518" lon="-5.419342">
        <ele>806</ele>
        <time>2018-07-23T08:40:45.990Z</time>
      </trkpt>
      <trkpt lat="42.500603" lon="-5.419412">
        <ele>807</ele>
        <time>2018-07-23T08:40:49.990Z</time>
      </trkpt>
      <trkpt lat="42.5007" lon="-5.419467">
        <ele>807</ele>
        <time>2018-07-23T08:40:53.000Z</time>
      </trkpt>
      <trkpt lat="42.500818" lon="-5.419529">
        <ele>807</ele>
        <time>2018-07-23T08:40:55.990Z</time>
      </trkpt>
      <trkpt lat="42.500933" lon="-5.419608">
        <ele>807</ele>
        <time>2018-07-23T08:40:58.990Z</time>
      </trkpt>
      <trkpt lat="42.501019" lon="-5.419659">
        <ele>807</ele>
        <time>2018-07-23T08:41:00.990Z</time>
      </trkpt>
      <trkpt lat="42.501129" lon="-5.419722">
        <ele>808</ele>
        <time>2018-07-23T08:41:03.990Z</time>
      </trkpt>
      <trkpt lat="42.501246" lon="-5.419794">
        <ele>807.68</ele>
        <time>2018-07-23T08:41:06.990Z</time>
      </trkpt>
      <trkpt lat="42.501331" lon="-5.419852">
        <ele>807</ele>
        <time>2018-07-23T08:41:08.990Z</time>
      </trkpt>
      <trkpt lat="42.50142" lon="-5.41992">
        <ele>806.757575757576</ele>
        <time>2018-07-23T08:41:10.990Z</time>
      </trkpt>
      <trkpt lat="42.501517" lon="-5.419989">
        <ele>806</ele>
        <time>2018-07-23T08:41:13.000Z</time>
      </trkpt>
      <trkpt lat="42.501612" lon="-5.420049">
        <ele>806</ele>
        <time>2018-07-23T08:41:14.990Z</time>
      </trkpt>
      <trkpt lat="42.501717" lon="-5.420107">
        <ele>806</ele>
        <time>2018-07-23T08:41:16.990Z</time>
      </trkpt>
      <trkpt lat="42.501823" lon="-5.420171">
        <ele>806</ele>
        <time>2018-07-23T08:41:18.990Z</time>
      </trkpt>
      <trkpt lat="42.501932" lon="-5.420249">
        <ele>805.022224539912</ele>
        <time>2018-07-23T08:41:20.990Z</time>
      </trkpt>
      <trkpt lat="42.502037" lon="-5.420325">
        <ele>805</ele>
        <time>2018-07-23T08:41:23.000Z</time>
      </trkpt>
      <trkpt lat="42.50214" lon="-5.420394">
        <ele>805</ele>
        <time>2018-07-23T08:41:24.990Z</time>
      </trkpt>
      <trkpt lat="42.502244" lon="-5.420474">
        <ele>805</ele>
        <time>2018-07-23T08:41:26.990Z</time>
      </trkpt>
      <trkpt lat="42.502354" lon="-5.420558">
        <ele>805</ele>
        <time>2018-07-23T08:41:28.990Z</time>
      </trkpt>
      <trkpt lat="42.502465" lon="-5.420633">
        <ele>805</ele>
        <time>2018-07-23T08:41:30.990Z</time>
      </trkpt>
      <trkpt lat="42.502568" lon="-5.42071">
        <ele>804</ele>
        <time>2018-07-23T08:41:33.000Z</time>
      </trkpt>
      <trkpt lat="42.502671" lon="-5.420791">
        <ele>804</ele>
        <time>2018-07-23T08:41:34.990Z</time>
      </trkpt>
      <trkpt lat="42.502779" lon="-5.420868">
        <ele>804</ele>
        <time>2018-07-23T08:41:36.990Z</time>
      </trkpt>
      <trkpt lat="42.502882" lon="-5.420964">
        <ele>804</ele>
        <time>2018-07-23T08:41:39.000Z</time>
      </trkpt>
      <trkpt lat="42.502982" lon="-5.421037">
        <ele>803</ele>
        <time>2018-07-23T08:41:41.000Z</time>
      </trkpt>
      <trkpt lat="42.503079" lon="-5.421103">
        <ele>803</ele>
        <time>2018-07-23T08:41:43.000Z</time>
      </trkpt>
      <trkpt lat="42.503175" lon="-5.421169">
        <ele>803</ele>
        <time>2018-07-23T08:41:45.000Z</time>
      </trkpt>
      <trkpt lat="42.503277" lon="-5.421234">
        <ele>803</ele>
        <time>2018-07-23T08:41:47.000Z</time>
      </trkpt>
      <trkpt lat="42.503369" lon="-5.421302">
        <ele>803</ele>
        <time>2018-07-23T08:41:49.000Z</time>
      </trkpt>
      <trkpt lat="42.503458" lon="-5.421367">
        <ele>803</ele>
        <time>2018-07-23T08:41:51.000Z</time>
      </trkpt>
      <trkpt lat="42.503542" lon="-5.421432">
        <ele>803</ele>
        <time>2018-07-23T08:41:53.000Z</time>
      </trkpt>
      <trkpt lat="42.503624" lon="-5.421498">
        <ele>803</ele>
        <time>2018-07-23T08:41:55.000Z</time>
      </trkpt>
      <trkpt lat="42.503705" lon="-5.421564">
        <ele>803</ele>
        <time>2018-07-23T08:41:57.000Z</time>
      </trkpt>
      <trkpt lat="42.503797" lon="-5.421622">
        <ele>802.6700032</ele>
        <time>2018-07-23T08:41:59.000Z</time>
      </trkpt>
      <trkpt lat="42.503901" lon="-5.421683">
        <ele>802</ele>
        <time>2018-07-23T08:42:01.000Z</time>
      </trkpt>
      <trkpt lat="42.504001" lon="-5.421754">
        <ele>802</ele>
        <time>2018-07-23T08:42:03.000Z</time>
      </trkpt>
      <trkpt lat="42.504094" lon="-5.421823">
        <ele>802.246267444859</ele>
        <time>2018-07-23T08:42:05.000Z</time>
      </trkpt>
      <trkpt lat="42.504168" lon="-5.421912">
        <ele>803</ele>
        <time>2018-07-23T08:42:07.000Z</time>
      </trkpt>
      <trkpt lat="42.504254" lon="-5.421996">
        <ele>803</ele>
        <time>2018-07-23T08:42:10.000Z</time>
      </trkpt>
      <trkpt lat="42.504352" lon="-5.422057">
        <ele>803</ele>
        <time>2018-07-23T08:42:13.000Z</time>
      </trkpt>
      <trkpt lat="42.504456" lon="-5.422132">
        <ele>803</ele>
        <time>2018-07-23T08:42:16.000Z</time>
      </trkpt>
      <trkpt lat="42.504571" lon="-5.422223">
        <ele>803</ele>
        <time>2018-07-23T08:42:18.990Z</time>
      </trkpt>
      <trkpt lat="42.504652" lon="-5.422295">
        <ele>803</ele>
        <time>2018-07-23T08:42:21.000Z</time>
      </trkpt>
      <trkpt lat="42.504744" lon="-5.422367">
        <ele>803</ele>
        <time>2018-07-23T08:42:22.990Z</time>
      </trkpt>
      <trkpt lat="42.504836" lon="-5.422432">
        <ele>802</ele>
        <time>2018-07-23T08:42:24.990Z</time>
      </trkpt>
      <trkpt lat="42.504916" lon="-5.422494">
        <ele>803</ele>
        <time>2018-07-23T08:42:26.990Z</time>
      </trkpt>
      <trkpt lat="42.504995" lon="-5.422553">
        <ele>803</ele>
        <time>2018-07-23T08:42:28.990Z</time>
      </trkpt>
      <trkpt lat="42.505081" lon="-5.42263">
        <ele>803</ele>
        <time>2018-07-23T08:42:31.000Z</time>
      </trkpt>
      <trkpt lat="42.505165" lon="-5.422694">
        <ele>803</ele>
        <time>2018-07-23T08:42:32.990Z</time>
      </trkpt>
      <trkpt lat="42.505282" lon="-5.422773">
        <ele>803</ele>
        <time>2018-07-23T08:42:36.000Z</time>
      </trkpt>
      <trkpt lat="42.505365" lon="-5.422828">
        <ele>802</ele>
        <time>2018-07-23T08:42:37.990Z</time>
      </trkpt>
      <trkpt lat="42.505467" lon="-5.422903">
        <ele>802.028994379209</ele>
        <time>2018-07-23T08:42:41.000Z</time>
      </trkpt>
      <trkpt lat="42.505566" lon="-5.422962">
        <ele>803</ele>
        <time>2018-07-23T08:42:43.990Z</time>
      </trkpt>
      <trkpt lat="42.505671" lon="-5.423048">
        <ele>802</ele>
        <time>2018-07-23T08:42:46.990Z</time>
      </trkpt>
      <trkpt lat="42.505757" lon="-5.423181">
        <ele>802</ele>
        <time>2018-07-23T08:42:49.990Z</time>
      </trkpt>
      <trkpt lat="42.505814" lon="-5.42328">
        <ele>802</ele>
        <time>2018-07-23T08:42:51.990Z</time>
      </trkpt>
      <trkpt lat="42.505924" lon="-5.423376">
        <ele>802</ele>
        <time>2018-07-23T08:42:54.990Z</time>
      </trkpt>
      <trkpt lat="42.50601" lon="-5.423435">
        <ele>802</ele>
        <time>2018-07-23T08:42:56.990Z</time>
      </trkpt>
      <trkpt lat="42.506094" lon="-5.423491">
        <ele>802</ele>
        <time>2018-07-23T08:42:58.990Z</time>
      </trkpt>
      <trkpt lat="42.50619" lon="-5.423559">
        <ele>802</ele>
        <time>2018-07-23T08:43:01.000Z</time>
      </trkpt>
      <trkpt lat="42.506296" lon="-5.423628">
        <ele>802</ele>
        <time>2018-07-23T08:43:03.990Z</time>
      </trkpt>
      <trkpt lat="42.506408" lon="-5.423706">
        <ele>802</ele>
        <time>2018-07-23T08:43:06.990Z</time>
      </trkpt>
      <trkpt lat="42.506532" lon="-5.423783">
        <ele>802</ele>
        <time>2018-07-23T08:43:09.990Z</time>
      </trkpt>
      <trkpt lat="42.506617" lon="-5.423858">
        <ele>802</ele>
        <time>2018-07-23T08:43:11.990Z</time>
      </trkpt>
      <trkpt lat="42.506696" lon="-5.42392">
        <ele>802</ele>
        <time>2018-07-23T08:43:13.990Z</time>
      </trkpt>
      <trkpt lat="42.506808" lon="-5.424002">
        <ele>802</ele>
        <time>2018-07-23T08:43:16.990Z</time>
      </trkpt>
      <trkpt lat="42.506894" lon="-5.424048">
        <ele>802</ele>
        <time>2018-07-23T08:43:18.990Z</time>
      </trkpt>
      <trkpt lat="42.506978" lon="-5.424115">
        <ele>802</ele>
        <time>2018-07-23T08:43:21.000Z</time>
      </trkpt>
      <trkpt lat="42.50706" lon="-5.424178">
        <ele>802</ele>
        <time>2018-07-23T08:43:22.990Z</time>
      </trkpt>
      <trkpt lat="42.507147" lon="-5.424232">
        <ele>801.185181966151</ele>
        <time>2018-07-23T08:43:24.990Z</time>
      </trkpt>
      <trkpt lat="42.507236" lon="-5.424296">
        <ele>801</ele>
        <time>2018-07-23T08:43:26.990Z</time>
      </trkpt>
      <trkpt lat="42.507318" lon="-5.424372">
        <ele>801</ele>
        <time>2018-07-23T08:43:28.990Z</time>
      </trkpt>
      <trkpt lat="42.507398" lon="-5.424433">
        <ele>801</ele>
        <time>2018-07-23T08:43:31.000Z</time>
      </trkpt>
      <trkpt lat="42.507476" lon="-5.424497">
        <ele>801</ele>
        <time>2018-07-23T08:43:32.990Z</time>
      </trkpt>
      <trkpt lat="42.507564" lon="-5.424553">
        <ele>801</ele>
        <time>2018-07-23T08:43:34.990Z</time>
      </trkpt>
      <trkpt lat="42.507682" lon="-5.424636">
        <ele>801</ele>
        <time>2018-07-23T08:43:37.990Z</time>
      </trkpt>
      <trkpt lat="42.507764" lon="-5.42469">
        <ele>801</ele>
        <time>2018-07-23T08:43:39.990Z</time>
      </trkpt>
      <trkpt lat="42.507858" lon="-5.424758">
        <ele>801</ele>
        <time>2018-07-23T08:43:41.990Z</time>
      </trkpt>
      <trkpt lat="42.507942" lon="-5.424819">
        <ele>801</ele>
        <time>2018-07-23T08:43:43.990Z</time>
      </trkpt>
      <trkpt lat="42.508018" lon="-5.424887">
        <ele>801</ele>
        <time>2018-07-23T08:43:46.000Z</time>
      </trkpt>
      <trkpt lat="42.508112" lon="-5.424945">
        <ele>801</ele>
        <time>2018-07-23T08:43:47.990Z</time>
      </trkpt>
      <trkpt lat="42.508198" lon="-5.425002">
        <ele>801</ele>
        <time>2018-07-23T08:43:49.990Z</time>
      </trkpt>
      <trkpt lat="42.508324" lon="-5.425088">
        <ele>801</ele>
        <time>2018-07-23T08:43:52.990Z</time>
      </trkpt>
      <trkpt lat="42.50841" lon="-5.425148">
        <ele>801</ele>
        <time>2018-07-23T08:43:54.990Z</time>
      </trkpt>
      <trkpt lat="42.508486" lon="-5.425218">
        <ele>801</ele>
        <time>2018-07-23T08:43:56.990Z</time>
      </trkpt>
      <trkpt lat="42.508602" lon="-5.425319">
        <ele>801</ele>
        <time>2018-07-23T08:43:59.990Z</time>
      </trkpt>
      <trkpt lat="42.508688" lon="-5.425397">
        <ele>801.244276599279</ele>
        <time>2018-07-23T08:44:01.990Z</time>
      </trkpt>
      <trkpt lat="42.508759" lon="-5.425499">
        <ele>802</ele>
        <time>2018-07-23T08:44:03.990Z</time>
      </trkpt>
      <trkpt lat="42.508818" lon="-5.425599">
        <ele>802</ele>
        <time>2018-07-23T08:44:06.000Z</time>
      </trkpt>
      <trkpt lat="42.508874" lon="-5.425712">
        <ele>802</ele>
        <time>2018-07-23T08:44:07.990Z</time>
      </trkpt>
      <trkpt lat="42.508919" lon="-5.425822">
        <ele>802</ele>
        <time>2018-07-23T08:44:09.990Z</time>
      </trkpt>
      <trkpt lat="42.509006" lon="-5.425956">
        <ele>802</ele>
        <time>2018-07-23T08:44:12.990Z</time>
      </trkpt>
      <trkpt lat="42.509094" lon="-5.42601">
        <ele>802</ele>
        <time>2018-07-23T08:44:14.990Z</time>
      </trkpt>
      <trkpt lat="42.509212" lon="-5.426056">
        <ele>802</ele>
        <time>2018-07-23T08:44:17.990Z</time>
      </trkpt>
      <trkpt lat="42.509303" lon="-5.426096">
        <ele>802</ele>
        <time>2018-07-23T08:44:19.990Z</time>
      </trkpt>
      <trkpt lat="42.509396" lon="-5.426135">
        <ele>802</ele>
        <time>2018-07-23T08:44:21.990Z</time>
      </trkpt>
      <trkpt lat="42.509483" lon="-5.426176">
        <ele>802</ele>
        <time>2018-07-23T08:44:23.990Z</time>
      </trkpt>
      <trkpt lat="42.509572" lon="-5.426221">
        <ele>802</ele>
        <time>2018-07-23T08:44:26.000Z</time>
      </trkpt>
      <trkpt lat="42.509673" lon="-5.426269">
        <ele>802</ele>
        <time>2018-07-23T08:44:27.990Z</time>
      </trkpt>
      <trkpt lat="42.509769" lon="-5.426307">
        <ele>802</ele>
        <time>2018-07-23T08:44:29.990Z</time>
      </trkpt>
      <trkpt lat="42.509867" lon="-5.426347">
        <ele>802</ele>
        <time>2018-07-23T08:44:31.990Z</time>
      </trkpt>
      <trkpt lat="42.509957" lon="-5.426389">
        <ele>802</ele>
        <time>2018-07-23T08:44:33.990Z</time>
      </trkpt>
      <trkpt lat="42.510049" lon="-5.426436">
        <ele>802</ele>
        <time>2018-07-23T08:44:36.000Z</time>
      </trkpt>
      <trkpt lat="42.510143" lon="-5.426491">
        <ele>802</ele>
        <time>2018-07-23T08:44:37.990Z</time>
      </trkpt>
      <trkpt lat="42.510234" lon="-5.426553">
        <ele>802</ele>
        <time>2018-07-23T08:44:39.990Z</time>
      </trkpt>
      <trkpt lat="42.510317" lon="-5.426611">
        <ele>801.68</ele>
        <time>2018-07-23T08:44:41.990Z</time>
      </trkpt>
      <trkpt lat="42.510418" lon="-5.42669">
        <ele>802</ele>
        <time>2018-07-23T08:44:44.990Z</time>
      </trkpt>
      <trkpt lat="42.510515" lon="-5.426763">
        <ele>802</ele>
        <time>2018-07-23T08:44:48.990Z</time>
      </trkpt>
      <trkpt lat="42.510608" lon="-5.426835">
        <ele>802</ele>
        <time>2018-07-23T08:44:51.990Z</time>
      </trkpt>
      <trkpt lat="42.510724" lon="-5.426911">
        <ele>802</ele>
        <time>2018-07-23T08:44:54.990Z</time>
      </trkpt>
      <trkpt lat="42.510814" lon="-5.426963">
        <ele>801.68</ele>
        <time>2018-07-23T08:44:56.990Z</time>
      </trkpt>
      <trkpt lat="42.510904" lon="-5.42702">
        <ele>801</ele>
        <time>2018-07-23T08:44:58.990Z</time>
      </trkpt>
      <trkpt lat="42.511034" lon="-5.427112">
        <ele>801</ele>
        <time>2018-07-23T08:45:02.020Z</time>
      </trkpt>
      <trkpt lat="42.511129" lon="-5.427182">
        <ele>801.32</ele>
        <time>2018-07-23T08:45:03.990Z</time>
      </trkpt>
      <trkpt lat="42.511222" lon="-5.427246">
        <ele>802</ele>
        <time>2018-07-23T08:45:06.000Z</time>
      </trkpt>
      <trkpt lat="42.511306" lon="-5.427299">
        <ele>802</ele>
        <time>2018-07-23T08:45:07.990Z</time>
      </trkpt>
      <trkpt lat="42.511393" lon="-5.427356">
        <ele>802</ele>
        <time>2018-07-23T08:45:09.990Z</time>
      </trkpt>
      <trkpt lat="42.511488" lon="-5.427426">
        <ele>802</ele>
        <time>2018-07-23T08:45:11.990Z</time>
      </trkpt>
      <trkpt lat="42.511571" lon="-5.42748">
        <ele>802</ele>
        <time>2018-07-23T08:45:13.990Z</time>
      </trkpt>
      <trkpt lat="42.511667" lon="-5.42754">
        <ele>802</ele>
        <time>2018-07-23T08:45:16.000Z</time>
      </trkpt>
      <trkpt lat="42.511758" lon="-5.427602">
        <ele>802</ele>
        <time>2018-07-23T08:45:17.990Z</time>
      </trkpt>
      <trkpt lat="42.51185" lon="-5.427672">
        <ele>802</ele>
        <time>2018-07-23T08:45:19.990Z</time>
      </trkpt>
      <trkpt lat="42.51194" lon="-5.427738">
        <ele>802.985079331722</ele>
        <time>2018-07-23T08:45:21.990Z</time>
      </trkpt>
      <trkpt lat="42.512031" lon="-5.427821">
        <ele>803</ele>
        <time>2018-07-23T08:45:23.990Z</time>
      </trkpt>
      <trkpt lat="42.51213" lon="-5.4279">
        <ele>803</ele>
        <time>2018-07-23T08:45:26.000Z</time>
      </trkpt>
      <trkpt lat="42.512218" lon="-5.427962">
        <ele>802</ele>
        <time>2018-07-23T08:45:27.990Z</time>
      </trkpt>
      <trkpt lat="42.512314" lon="-5.428033">
        <ele>802</ele>
        <time>2018-07-23T08:45:29.990Z</time>
      </trkpt>
      <trkpt lat="42.512413" lon="-5.428114">
        <ele>802</ele>
        <time>2018-07-23T08:45:31.990Z</time>
      </trkpt>
      <trkpt lat="42.512509" lon="-5.428183">
        <ele>802</ele>
        <time>2018-07-23T08:45:33.990Z</time>
      </trkpt>
      <trkpt lat="42.512603" lon="-5.42825">
        <ele>802</ele>
        <time>2018-07-23T08:45:36.000Z</time>
      </trkpt>
      <trkpt lat="42.5127" lon="-5.428318">
        <ele>802</ele>
        <time>2018-07-23T08:45:37.990Z</time>
      </trkpt>
      <trkpt lat="42.512786" lon="-5.428392">
        <ele>802</ele>
        <time>2018-07-23T08:45:39.990Z</time>
      </trkpt>
      <trkpt lat="42.512871" lon="-5.428448">
        <ele>802</ele>
        <time>2018-07-23T08:45:41.990Z</time>
      </trkpt>
      <trkpt lat="42.512964" lon="-5.428508">
        <ele>802</ele>
        <time>2018-07-23T08:45:43.990Z</time>
      </trkpt>
      <trkpt lat="42.513051" lon="-5.428572">
        <ele>802</ele>
        <time>2018-07-23T08:45:46.000Z</time>
      </trkpt>
      <trkpt lat="42.513164" lon="-5.428656">
        <ele>802</ele>
        <time>2018-07-23T08:45:48.990Z</time>
      </trkpt>
      <trkpt lat="42.513281" lon="-5.428748">
        <ele>802</ele>
        <time>2018-07-23T08:45:51.990Z</time>
      </trkpt>
      <trkpt lat="42.513397" lon="-5.428842">
        <ele>802</ele>
        <time>2018-07-23T08:45:54.990Z</time>
      </trkpt>
      <trkpt lat="42.51348" lon="-5.428895">
        <ele>802</ele>
        <time>2018-07-23T08:45:56.990Z</time>
      </trkpt>
      <trkpt lat="42.513575" lon="-5.428956">
        <ele>802</ele>
        <time>2018-07-23T08:45:58.990Z</time>
      </trkpt>
      <trkpt lat="42.513661" lon="-5.429018">
        <ele>802</ele>
        <time>2018-07-23T08:46:01.000Z</time>
      </trkpt>
      <trkpt lat="42.513748" lon="-5.429081">
        <ele>802</ele>
        <time>2018-07-23T08:46:02.990Z</time>
      </trkpt>
      <trkpt lat="42.513835" lon="-5.429153">
        <ele>802.32</ele>
        <time>2018-07-23T08:46:04.990Z</time>
      </trkpt>
      <trkpt lat="42.513928" lon="-5.429213">
        <ele>803</ele>
        <time>2018-07-23T08:46:06.990Z</time>
      </trkpt>
      <trkpt lat="42.514016" lon="-5.429271">
        <ele>803</ele>
        <time>2018-07-23T08:46:08.990Z</time>
      </trkpt>
      <trkpt lat="42.514099" lon="-5.429331">
        <ele>803</ele>
        <time>2018-07-23T08:46:11.000Z</time>
      </trkpt>
      <trkpt lat="42.514192" lon="-5.429393">
        <ele>802.68</ele>
        <time>2018-07-23T08:46:12.990Z</time>
      </trkpt>
      <trkpt lat="42.51428" lon="-5.429456">
        <ele>803</ele>
        <time>2018-07-23T08:46:14.990Z</time>
      </trkpt>
      <trkpt lat="42.514369" lon="-5.429514">
        <ele>802</ele>
        <time>2018-07-23T08:46:16.990Z</time>
      </trkpt>
      <trkpt lat="42.514452" lon="-5.429574">
        <ele>802.32</ele>
        <time>2018-07-23T08:46:18.990Z</time>
      </trkpt>
      <trkpt lat="42.514543" lon="-5.429647">
        <ele>803</ele>
        <time>2018-07-23T08:46:21.000Z</time>
      </trkpt>
      <trkpt lat="42.514631" lon="-5.429714">
        <ele>803</ele>
        <time>2018-07-23T08:46:22.990Z</time>
      </trkpt>
      <trkpt lat="42.514719" lon="-5.429781">
        <ele>803</ele>
        <time>2018-07-23T08:46:24.990Z</time>
      </trkpt>
      <trkpt lat="42.514813" lon="-5.429856">
        <ele>803</ele>
        <time>2018-07-23T08:46:26.990Z</time>
      </trkpt>
      <trkpt lat="42.514905" lon="-5.429927">
        <ele>803</ele>
        <time>2018-07-23T08:46:28.990Z</time>
      </trkpt>
      <trkpt lat="42.514997" lon="-5.43">
        <ele>803</ele>
        <time>2018-07-23T08:46:31.000Z</time>
      </trkpt>
      <trkpt lat="42.515076" lon="-5.430061">
        <ele>803</ele>
        <time>2018-07-23T08:46:32.990Z</time>
      </trkpt>
      <trkpt lat="42.515156" lon="-5.430123">
        <ele>803</ele>
        <time>2018-07-23T08:46:34.990Z</time>
      </trkpt>
      <trkpt lat="42.51524" lon="-5.430184">
        <ele>803</ele>
        <time>2018-07-23T08:46:36.990Z</time>
      </trkpt>
      <trkpt lat="42.515319" lon="-5.430243">
        <ele>803</ele>
        <time>2018-07-23T08:46:38.990Z</time>
      </trkpt>
      <trkpt lat="42.515433" lon="-5.430325">
        <ele>803</ele>
        <time>2018-07-23T08:46:41.990Z</time>
      </trkpt>
      <trkpt lat="42.515518" lon="-5.43039">
        <ele>803</ele>
        <time>2018-07-23T08:46:43.990Z</time>
      </trkpt>
      <trkpt lat="42.515611" lon="-5.430458">
        <ele>803</ele>
        <time>2018-07-23T08:46:46.000Z</time>
      </trkpt>
      <trkpt lat="42.5157" lon="-5.430528">
        <ele>803</ele>
        <time>2018-07-23T08:46:47.990Z</time>
      </trkpt>
      <trkpt lat="42.515791" lon="-5.43059">
        <ele>803</ele>
        <time>2018-07-23T08:46:49.990Z</time>
      </trkpt>
      <trkpt lat="42.515883" lon="-5.430654">
        <ele>803</ele>
        <time>2018-07-23T08:46:51.990Z</time>
      </trkpt>
      <trkpt lat="42.51597" lon="-5.430719">
        <ele>803</ele>
        <time>2018-07-23T08:46:53.990Z</time>
      </trkpt>
      <trkpt lat="42.516059" lon="-5.43079">
        <ele>803</ele>
        <time>2018-07-23T08:46:56.000Z</time>
      </trkpt>
      <trkpt lat="42.516152" lon="-5.430864">
        <ele>803</ele>
        <time>2018-07-23T08:46:57.990Z</time>
      </trkpt>
      <trkpt lat="42.516243" lon="-5.430935">
        <ele>803</ele>
        <time>2018-07-23T08:46:59.990Z</time>
      </trkpt>
      <trkpt lat="42.516331" lon="-5.430997">
        <ele>803</ele>
        <time>2018-07-23T08:47:01.990Z</time>
      </trkpt>
      <trkpt lat="42.516422" lon="-5.431066">
        <ele>804</ele>
        <time>2018-07-23T08:47:03.990Z</time>
      </trkpt>
      <trkpt lat="42.516521" lon="-5.431134">
        <ele>803.6700032</ele>
        <time>2018-07-23T08:47:06.000Z</time>
      </trkpt>
      <trkpt lat="42.516616" lon="-5.431202">
        <ele>803</ele>
        <time>2018-07-23T08:47:07.990Z</time>
      </trkpt>
      <trkpt lat="42.516711" lon="-5.43127">
        <ele>803</ele>
        <time>2018-07-23T08:47:09.990Z</time>
      </trkpt>
      <trkpt lat="42.516802" lon="-5.431345">
        <ele>803</ele>
        <time>2018-07-23T08:47:11.990Z</time>
      </trkpt>
      <trkpt lat="42.516891" lon="-5.431415">
        <ele>803</ele>
        <time>2018-07-23T08:47:13.990Z</time>
      </trkpt>
      <trkpt lat="42.516983" lon="-5.431483">
        <ele>803</ele>
        <time>2018-07-23T08:47:16.000Z</time>
      </trkpt>
      <trkpt lat="42.517076" lon="-5.431548">
        <ele>803.313727458682</ele>
        <time>2018-07-23T08:47:17.990Z</time>
      </trkpt>
      <trkpt lat="42.517175" lon="-5.431622">
        <ele>804</ele>
        <time>2018-07-23T08:47:19.990Z</time>
      </trkpt>
      <trkpt lat="42.517273" lon="-5.43169">
        <ele>803</ele>
        <time>2018-07-23T08:47:21.990Z</time>
      </trkpt>
      <trkpt lat="42.517368" lon="-5.431758">
        <ele>803</ele>
        <time>2018-07-23T08:47:23.990Z</time>
      </trkpt>
      <trkpt lat="42.517461" lon="-5.431827">
        <ele>803</ele>
        <time>2018-07-23T08:47:26.000Z</time>
      </trkpt>
      <trkpt lat="42.517553" lon="-5.431892">
        <ele>803</ele>
        <time>2018-07-23T08:47:27.990Z</time>
      </trkpt>
      <trkpt lat="42.517635" lon="-5.431955">
        <ele>803</ele>
        <time>2018-07-23T08:47:29.990Z</time>
      </trkpt>
      <trkpt lat="42.517726" lon="-5.432022">
        <ele>803</ele>
        <time>2018-07-23T08:47:31.990Z</time>
      </trkpt>
      <trkpt lat="42.517825" lon="-5.432086">
        <ele>803</ele>
        <time>2018-07-23T08:47:33.990Z</time>
      </trkpt>
      <trkpt lat="42.517918" lon="-5.432151">
        <ele>803</ele>
        <time>2018-07-23T08:47:36.000Z</time>
      </trkpt>
      <trkpt lat="42.518013" lon="-5.432218">
        <ele>803</ele>
        <time>2018-07-23T08:47:37.990Z</time>
      </trkpt>
      <trkpt lat="42.518094" lon="-5.432284">
        <ele>803</ele>
        <time>2018-07-23T08:47:39.990Z</time>
      </trkpt>
      <trkpt lat="42.518176" lon="-5.432355">
        <ele>803</ele>
        <time>2018-07-23T08:47:41.990Z</time>
      </trkpt>
      <trkpt lat="42.518267" lon="-5.432423">
        <ele>803</ele>
        <time>2018-07-23T08:47:43.990Z</time>
      </trkpt>
      <trkpt lat="42.518358" lon="-5.432489">
        <ele>803</ele>
        <time>2018-07-23T08:47:46.000Z</time>
      </trkpt>
      <trkpt lat="42.51845" lon="-5.432557">
        <ele>803</ele>
        <time>2018-07-23T08:47:47.990Z</time>
      </trkpt>
      <trkpt lat="42.518538" lon="-5.432631">
        <ele>803</ele>
        <time>2018-07-23T08:47:49.990Z</time>
      </trkpt>
      <trkpt lat="42.51862" lon="-5.432694">
        <ele>803</ele>
        <time>2018-07-23T08:47:51.990Z</time>
      </trkpt>
      <trkpt lat="42.518714" lon="-5.432762">
        <ele>803</ele>
        <time>2018-07-23T08:47:53.990Z</time>
      </trkpt>
      <trkpt lat="42.518805" lon="-5.432822">
        <ele>803</ele>
        <time>2018-07-23T08:47:56.000Z</time>
      </trkpt>
      <trkpt lat="42.518901" lon="-5.432884">
        <ele>803</ele>
        <time>2018-07-23T08:47:57.990Z</time>
      </trkpt>
      <trkpt lat="42.518994" lon="-5.432951">
        <ele>803</ele>
        <time>2018-07-23T08:47:59.990Z</time>
      </trkpt>
      <trkpt lat="42.519091" lon="-5.433018">
        <ele>803</ele>
        <time>2018-07-23T08:48:01.990Z</time>
      </trkpt>
      <trkpt lat="42.519183" lon="-5.433083">
        <ele>803</ele>
        <time>2018-07-23T08:48:03.990Z</time>
      </trkpt>
      <trkpt lat="42.519264" lon="-5.43315">
        <ele>804</ele>
        <time>2018-07-23T08:48:06.000Z</time>
      </trkpt>
      <trkpt lat="42.519347" lon="-5.433216">
        <ele>804</ele>
        <time>2018-07-23T08:48:07.990Z</time>
      </trkpt>
      <trkpt lat="42.51944" lon="-5.433277">
        <ele>804</ele>
        <time>2018-07-23T08:48:09.990Z</time>
      </trkpt>
      <trkpt lat="42.519532" lon="-5.433341">
        <ele>804</ele>
        <time>2018-07-23T08:48:11.990Z</time>
      </trkpt>
      <trkpt lat="42.519626" lon="-5.433401">
        <ele>804</ele>
        <time>2018-07-23T08:48:13.990Z</time>
      </trkpt>
      <trkpt lat="42.519716" lon="-5.43347">
        <ele>804</ele>
        <time>2018-07-23T08:48:16.000Z</time>
      </trkpt>
      <trkpt lat="42.5198" lon="-5.433528">
        <ele>804</ele>
        <time>2018-07-23T08:48:17.990Z</time>
      </trkpt>
      <trkpt lat="42.519891" lon="-5.433587">
        <ele>804</ele>
        <time>2018-07-23T08:48:19.990Z</time>
      </trkpt>
      <trkpt lat="42.51997" lon="-5.433649">
        <ele>804</ele>
        <time>2018-07-23T08:48:21.990Z</time>
      </trkpt>
      <trkpt lat="42.520053" lon="-5.433707">
        <ele>804</ele>
        <time>2018-07-23T08:48:23.990Z</time>
      </trkpt>
      <trkpt lat="42.520143" lon="-5.433769">
        <ele>803</ele>
        <time>2018-07-23T08:48:26.000Z</time>
      </trkpt>
      <trkpt lat="42.520225" lon="-5.433824">
        <ele>804</ele>
        <time>2018-07-23T08:48:27.990Z</time>
      </trkpt>
      <trkpt lat="42.52031" lon="-5.433903">
        <ele>804</ele>
        <time>2018-07-23T08:48:29.990Z</time>
      </trkpt>
      <trkpt lat="42.520373" lon="-5.434">
        <ele>804</ele>
        <time>2018-07-23T08:48:31.990Z</time>
      </trkpt>
      <trkpt lat="42.520428" lon="-5.434111">
        <ele>804</ele>
        <time>2018-07-23T08:48:33.990Z</time>
      </trkpt>
      <trkpt lat="42.520466" lon="-5.434224">
        <ele>804</ele>
        <time>2018-07-23T08:48:36.000Z</time>
      </trkpt>
      <trkpt lat="42.52051" lon="-5.434336">
        <ele>803</ele>
        <time>2018-07-23T08:48:37.990Z</time>
      </trkpt>
      <trkpt lat="42.520561" lon="-5.434453">
        <ele>803</ele>
        <time>2018-07-23T08:48:39.990Z</time>
      </trkpt>
      <trkpt lat="42.520613" lon="-5.434567">
        <ele>803</ele>
        <time>2018-07-23T08:48:41.990Z</time>
      </trkpt>
      <trkpt lat="42.520683" lon="-5.434655">
        <ele>803</ele>
        <time>2018-07-23T08:48:43.990Z</time>
      </trkpt>
      <trkpt lat="42.520774" lon="-5.434695">
        <ele>803</ele>
        <time>2018-07-23T08:48:46.000Z</time>
      </trkpt>
      <trkpt lat="42.5209" lon="-5.43469">
        <ele>803</ele>
        <time>2018-07-23T08:48:48.990Z</time>
      </trkpt>
      <trkpt lat="42.521007" lon="-5.434679">
        <ele>803</ele>
        <time>2018-07-23T08:48:51.990Z</time>
      </trkpt>
      <trkpt lat="42.521125" lon="-5.434673">
        <ele>803</ele>
        <time>2018-07-23T08:48:54.990Z</time>
      </trkpt>
      <trkpt lat="42.521216" lon="-5.434665">
        <ele>803</ele>
        <time>2018-07-23T08:48:56.990Z</time>
      </trkpt>
      <trkpt lat="42.521313" lon="-5.434669">
        <ele>803.32</ele>
        <time>2018-07-23T08:48:58.990Z</time>
      </trkpt>
      <trkpt lat="42.5214" lon="-5.434699">
        <ele>804</ele>
        <time>2018-07-23T08:49:01.000Z</time>
      </trkpt>
      <trkpt lat="42.521484" lon="-5.434755">
        <ele>804</ele>
        <time>2018-07-23T08:49:02.990Z</time>
      </trkpt>
      <trkpt lat="42.521566" lon="-5.434814">
        <ele>804</ele>
        <time>2018-07-23T08:49:04.990Z</time>
      </trkpt>
      <trkpt lat="42.521649" lon="-5.434876">
        <ele>804</ele>
        <time>2018-07-23T08:49:06.990Z</time>
      </trkpt>
      <trkpt lat="42.52173" lon="-5.434931">
        <ele>804</ele>
        <time>2018-07-23T08:49:08.990Z</time>
      </trkpt>
      <trkpt lat="42.521811" lon="-5.434995">
        <ele>804</ele>
        <time>2018-07-23T08:49:11.000Z</time>
      </trkpt>
      <trkpt lat="42.521898" lon="-5.435058">
        <ele>804</ele>
        <time>2018-07-23T08:49:12.990Z</time>
      </trkpt>
      <trkpt lat="42.521988" lon="-5.435112">
        <ele>804.32</ele>
        <time>2018-07-23T08:49:14.990Z</time>
      </trkpt>
      <trkpt lat="42.522078" lon="-5.43517">
        <ele>805</ele>
        <time>2018-07-23T08:49:16.990Z</time>
      </trkpt>
      <trkpt lat="42.522164" lon="-5.435232">
        <ele>805</ele>
        <time>2018-07-23T08:49:18.990Z</time>
      </trkpt>
      <trkpt lat="42.522249" lon="-5.435305">
        <ele>805</ele>
        <time>2018-07-23T08:49:21.000Z</time>
      </trkpt>
      <trkpt lat="42.522339" lon="-5.435368">
        <ele>805</ele>
        <time>2018-07-23T08:49:22.990Z</time>
      </trkpt>
      <trkpt lat="42.522429" lon="-5.43543">
        <ele>805</ele>
        <time>2018-07-23T08:49:24.990Z</time>
      </trkpt>
      <trkpt lat="42.522517" lon="-5.43549">
        <ele>805</ele>
        <time>2018-07-23T08:49:26.990Z</time>
      </trkpt>
      <trkpt lat="42.5226" lon="-5.435548">
        <ele>805</ele>
        <time>2018-07-23T08:49:28.990Z</time>
      </trkpt>
      <trkpt lat="42.52268" lon="-5.435621">
        <ele>805</ele>
        <time>2018-07-23T08:49:31.000Z</time>
      </trkpt>
      <trkpt lat="42.522769" lon="-5.435683">
        <ele>805</ele>
        <time>2018-07-23T08:49:32.990Z</time>
      </trkpt>
      <trkpt lat="42.522852" lon="-5.435745">
        <ele>805</ele>
        <time>2018-07-23T08:49:34.990Z</time>
      </trkpt>
      <trkpt lat="42.522932" lon="-5.435807">
        <ele>805</ele>
        <time>2018-07-23T08:49:36.990Z</time>
      </trkpt>
      <trkpt lat="42.523015" lon="-5.435858">
        <ele>805</ele>
        <time>2018-07-23T08:49:38.990Z</time>
      </trkpt>
      <trkpt lat="42.52311" lon="-5.435918">
        <ele>805</ele>
        <time>2018-07-23T08:49:41.000Z</time>
      </trkpt>
      <trkpt lat="42.523193" lon="-5.435972">
        <ele>805</ele>
        <time>2018-07-23T08:49:42.990Z</time>
      </trkpt>
      <trkpt lat="42.523308" lon="-5.436046">
        <ele>805</ele>
        <time>2018-07-23T08:49:46.000Z</time>
      </trkpt>
      <trkpt lat="42.523395" lon="-5.436109">
        <ele>805</ele>
        <time>2018-07-23T08:49:47.990Z</time>
      </trkpt>
      <trkpt lat="42.523494" lon="-5.436178">
        <ele>805</ele>
        <time>2018-07-23T08:49:49.990Z</time>
      </trkpt>
      <trkpt lat="42.523582" lon="-5.436256">
        <ele>805</ele>
        <time>2018-07-23T08:49:51.990Z</time>
      </trkpt>
      <trkpt lat="42.523674" lon="-5.436325">
        <ele>805</ele>
        <time>2018-07-23T08:49:53.990Z</time>
      </trkpt>
      <trkpt lat="42.52376" lon="-5.436392">
        <ele>805</ele>
        <time>2018-07-23T08:49:56.000Z</time>
      </trkpt>
      <trkpt lat="42.523849" lon="-5.436462">
        <ele>805</ele>
        <time>2018-07-23T08:49:57.990Z</time>
      </trkpt>
      <trkpt lat="42.523935" lon="-5.436537">
        <ele>805</ele>
        <time>2018-07-23T08:49:59.990Z</time>
      </trkpt>
      <trkpt lat="42.524031" lon="-5.436617">
        <ele>805</ele>
        <time>2018-07-23T08:50:01.990Z</time>
      </trkpt>
      <trkpt lat="42.52413" lon="-5.436691">
        <ele>804.971419689877</ele>
        <time>2018-07-23T08:50:03.990Z</time>
      </trkpt>
      <trkpt lat="42.524233" lon="-5.436768">
        <ele>804</ele>
        <time>2018-07-23T08:50:06.000Z</time>
      </trkpt>
      <trkpt lat="42.52433" lon="-5.436841">
        <ele>804</ele>
        <time>2018-07-23T08:50:07.990Z</time>
      </trkpt>
      <trkpt lat="42.524431" lon="-5.436916">
        <ele>804</ele>
        <time>2018-07-23T08:50:09.990Z</time>
      </trkpt>
      <trkpt lat="42.524528" lon="-5.436991">
        <ele>804</ele>
        <time>2018-07-23T08:50:11.990Z</time>
      </trkpt>
      <trkpt lat="42.524633" lon="-5.437062">
        <ele>804</ele>
        <time>2018-07-23T08:50:13.990Z</time>
      </trkpt>
      <trkpt lat="42.524738" lon="-5.437135">
        <ele>804</ele>
        <time>2018-07-23T08:50:16.000Z</time>
      </trkpt>
      <trkpt lat="42.524835" lon="-5.437201">
        <ele>804</ele>
        <time>2018-07-23T08:50:17.990Z</time>
      </trkpt>
      <trkpt lat="42.524927" lon="-5.437271">
        <ele>804</ele>
        <time>2018-07-23T08:50:19.990Z</time>
      </trkpt>
      <trkpt lat="42.52502" lon="-5.437339">
        <ele>804</ele>
        <time>2018-07-23T08:50:21.990Z</time>
      </trkpt>
      <trkpt lat="42.525112" lon="-5.437407">
        <ele>804</ele>
        <time>2018-07-23T08:50:23.990Z</time>
      </trkpt>
      <trkpt lat="42.525207" lon="-5.437468">
        <ele>804</ele>
        <time>2018-07-23T08:50:26.000Z</time>
      </trkpt>
      <trkpt lat="42.525297" lon="-5.437534">
        <ele>804</ele>
        <time>2018-07-23T08:50:27.990Z</time>
      </trkpt>
      <trkpt lat="42.525381" lon="-5.437595">
        <ele>804</ele>
        <time>2018-07-23T08:50:29.990Z</time>
      </trkpt>
      <trkpt lat="42.525467" lon="-5.437656">
        <ele>804</ele>
        <time>2018-07-23T08:50:31.990Z</time>
      </trkpt>
      <trkpt lat="42.525556" lon="-5.437719">
        <ele>804</ele>
        <time>2018-07-23T08:50:33.990Z</time>
      </trkpt>
      <trkpt lat="42.525645" lon="-5.437785">
        <ele>804</ele>
        <time>2018-07-23T08:50:36.000Z</time>
      </trkpt>
      <trkpt lat="42.525735" lon="-5.437849">
        <ele>804</ele>
        <time>2018-07-23T08:50:37.990Z</time>
      </trkpt>
      <trkpt lat="42.525825" lon="-5.437909">
        <ele>804</ele>
        <time>2018-07-23T08:50:39.990Z</time>
      </trkpt>
      <trkpt lat="42.525906" lon="-5.437977">
        <ele>804</ele>
        <time>2018-07-23T08:50:41.990Z</time>
      </trkpt>
      <trkpt lat="42.525992" lon="-5.438034">
        <ele>804</ele>
        <time>2018-07-23T08:50:43.990Z</time>
      </trkpt>
      <trkpt lat="42.526085" lon="-5.438099">
        <ele>804</ele>
        <time>2018-07-23T08:50:46.000Z</time>
      </trkpt>
      <trkpt lat="42.526171" lon="-5.438175">
        <ele>804</ele>
        <time>2018-07-23T08:50:47.990Z</time>
      </trkpt>
      <trkpt lat="42.526271" lon="-5.438251">
        <ele>805</ele>
        <time>2018-07-23T08:50:49.990Z</time>
      </trkpt>
      <trkpt lat="42.526365" lon="-5.438335">
        <ele>804.68</ele>
        <time>2018-07-23T08:50:51.990Z</time>
      </trkpt>
      <trkpt lat="42.526466" lon="-5.438411">
        <ele>804</ele>
        <time>2018-07-23T08:50:53.990Z</time>
      </trkpt>
      <trkpt lat="42.52656" lon="-5.438472">
        <ele>804</ele>
        <time>2018-07-23T08:50:56.000Z</time>
      </trkpt>
      <trkpt lat="42.52665" lon="-5.438535">
        <ele>804</ele>
        <time>2018-07-23T08:50:57.990Z</time>
      </trkpt>
      <trkpt lat="42.526743" lon="-5.438603">
        <ele>804</ele>
        <time>2018-07-23T08:50:59.990Z</time>
      </trkpt>
      <trkpt lat="42.526838" lon="-5.438671">
        <ele>804</ele>
        <time>2018-07-23T08:51:01.990Z</time>
      </trkpt>
      <trkpt lat="42.526934" lon="-5.438736">
        <ele>804</ele>
        <time>2018-07-23T08:51:03.990Z</time>
      </trkpt>
      <trkpt lat="42.52703" lon="-5.438808">
        <ele>804</ele>
        <time>2018-07-23T08:51:06.000Z</time>
      </trkpt>
      <trkpt lat="42.527126" lon="-5.438885">
        <ele>804</ele>
        <time>2018-07-23T08:51:07.990Z</time>
      </trkpt>
      <trkpt lat="42.527223" lon="-5.438955">
        <ele>804</ele>
        <time>2018-07-23T08:51:09.990Z</time>
      </trkpt>
      <trkpt lat="42.52731" lon="-5.43902">
        <ele>804</ele>
        <time>2018-07-23T08:51:11.990Z</time>
      </trkpt>
      <trkpt lat="42.527404" lon="-5.439085">
        <ele>803.68</ele>
        <time>2018-07-23T08:51:13.990Z</time>
      </trkpt>
      <trkpt lat="42.527494" lon="-5.439149">
        <ele>803</ele>
        <time>2018-07-23T08:51:16.000Z</time>
      </trkpt>
      <trkpt lat="42.527582" lon="-5.439217">
        <ele>803</ele>
        <time>2018-07-23T08:51:17.990Z</time>
      </trkpt>
      <trkpt lat="42.527669" lon="-5.439282">
        <ele>803</ele>
        <time>2018-07-23T08:51:19.990Z</time>
      </trkpt>
      <trkpt lat="42.527762" lon="-5.439349">
        <ele>803</ele>
        <time>2018-07-23T08:51:21.990Z</time>
      </trkpt>
      <trkpt lat="42.527854" lon="-5.439414">
        <ele>803</ele>
        <time>2018-07-23T08:51:23.990Z</time>
      </trkpt>
      <trkpt lat="42.527949" lon="-5.439491">
        <ele>803</ele>
        <time>2018-07-23T08:51:26.000Z</time>
      </trkpt>
      <trkpt lat="42.528042" lon="-5.439562">
        <ele>803</ele>
        <time>2018-07-23T08:51:27.990Z</time>
      </trkpt>
      <trkpt lat="42.528134" lon="-5.439625">
        <ele>803</ele>
        <time>2018-07-23T08:51:29.990Z</time>
      </trkpt>
      <trkpt lat="42.528226" lon="-5.439695">
        <ele>803</ele>
        <time>2018-07-23T08:51:31.990Z</time>
      </trkpt>
      <trkpt lat="42.528324" lon="-5.439776">
        <ele>803</ele>
        <time>2018-07-23T08:51:33.990Z</time>
      </trkpt>
      <trkpt lat="42.52842" lon="-5.439845">
        <ele>803.014701176471</ele>
        <time>2018-07-23T08:51:36.000Z</time>
      </trkpt>
      <trkpt lat="42.528514" lon="-5.439912">
        <ele>804</ele>
        <time>2018-07-23T08:51:37.990Z</time>
      </trkpt>
      <trkpt lat="42.528604" lon="-5.439978">
        <ele>804</ele>
        <time>2018-07-23T08:51:39.990Z</time>
      </trkpt>
      <trkpt lat="42.528692" lon="-5.44004">
        <ele>804</ele>
        <time>2018-07-23T08:51:41.990Z</time>
      </trkpt>
      <trkpt lat="42.52877" lon="-5.4401">
        <ele>803</ele>
        <time>2018-07-23T08:51:43.990Z</time>
      </trkpt>
      <trkpt lat="42.528858" lon="-5.440166">
        <ele>803.014701176471</ele>
        <time>2018-07-23T08:51:46.000Z</time>
      </trkpt>
      <trkpt lat="42.528944" lon="-5.440234">
        <ele>804</ele>
        <time>2018-07-23T08:51:47.990Z</time>
      </trkpt>
      <trkpt lat="42.529026" lon="-5.440298">
        <ele>804</ele>
        <time>2018-07-23T08:51:49.990Z</time>
      </trkpt>
      <trkpt lat="42.529108" lon="-5.440353">
        <ele>804</ele>
        <time>2018-07-23T08:51:51.990Z</time>
      </trkpt>
      <trkpt lat="42.529222" lon="-5.44043">
        <ele>804</ele>
        <time>2018-07-23T08:51:54.990Z</time>
      </trkpt>
      <trkpt lat="42.529332" lon="-5.440499">
        <ele>804</ele>
        <time>2018-07-23T08:51:57.990Z</time>
      </trkpt>
      <trkpt lat="42.529416" lon="-5.440566">
        <ele>804</ele>
        <time>2018-07-23T08:51:59.990Z</time>
      </trkpt>
      <trkpt lat="42.529513" lon="-5.440636">
        <ele>804</ele>
        <time>2018-07-23T08:52:01.990Z</time>
      </trkpt>
      <trkpt lat="42.529596" lon="-5.440694">
        <ele>804</ele>
        <time>2018-07-23T08:52:03.990Z</time>
      </trkpt>
      <trkpt lat="42.529681" lon="-5.440757">
        <ele>804</ele>
        <time>2018-07-23T08:52:06.000Z</time>
      </trkpt>
      <trkpt lat="42.529773" lon="-5.440833">
        <ele>804</ele>
        <time>2018-07-23T08:52:08.100Z</time>
      </trkpt>
      <trkpt lat="42.529868" lon="-5.440914">
        <ele>804</ele>
        <time>2018-07-23T08:52:10.000Z</time>
      </trkpt>
      <trkpt lat="42.529948" lon="-5.440978">
        <ele>804</ele>
        <time>2018-07-23T08:52:12.000Z</time>
      </trkpt>
      <trkpt lat="42.530032" lon="-5.441046">
        <ele>804</ele>
        <time>2018-07-23T08:52:14.000Z</time>
      </trkpt>
      <trkpt lat="42.530126" lon="-5.441115">
        <ele>804</ele>
        <time>2018-07-23T08:52:16.000Z</time>
      </trkpt>
      <trkpt lat="42.530212" lon="-5.44118">
        <ele>804</ele>
        <time>2018-07-23T08:52:18.000Z</time>
      </trkpt>
      <trkpt lat="42.530292" lon="-5.441237">
        <ele>804</ele>
        <time>2018-07-23T08:52:20.000Z</time>
      </trkpt>
      <trkpt lat="42.530384" lon="-5.441299">
        <ele>804</ele>
        <time>2018-07-23T08:52:22.000Z</time>
      </trkpt>
      <trkpt lat="42.530476" lon="-5.441369">
        <ele>804</ele>
        <time>2018-07-23T08:52:24.000Z</time>
      </trkpt>
      <trkpt lat="42.530563" lon="-5.441427">
        <ele>804</ele>
        <time>2018-07-23T08:52:26.000Z</time>
      </trkpt>
      <trkpt lat="42.530646" lon="-5.44149">
        <ele>804</ele>
        <time>2018-07-23T08:52:28.000Z</time>
      </trkpt>
      <trkpt lat="42.530735" lon="-5.441557">
        <ele>804</ele>
        <time>2018-07-23T08:52:30.000Z</time>
      </trkpt>
      <trkpt lat="42.53082" lon="-5.441616">
        <ele>804</ele>
        <time>2018-07-23T08:52:32.000Z</time>
      </trkpt>
      <trkpt lat="42.530931" lon="-5.441691">
        <ele>804</ele>
        <time>2018-07-23T08:52:35.000Z</time>
      </trkpt>
      <trkpt lat="42.531043" lon="-5.441779">
        <ele>804</ele>
        <time>2018-07-23T08:52:38.000Z</time>
      </trkpt>
      <trkpt lat="42.531125" lon="-5.441837">
        <ele>804</ele>
        <time>2018-07-23T08:52:40.000Z</time>
      </trkpt>
      <trkpt lat="42.531242" lon="-5.441863">
        <ele>804.3299968</ele>
        <time>2018-07-23T08:52:43.000Z</time>
      </trkpt>
      <trkpt lat="42.531345" lon="-5.441904">
        <ele>805.32</ele>
        <time>2018-07-23T08:52:46.990Z</time>
      </trkpt>
      <trkpt lat="42.531424" lon="-5.44197">
        <ele>806</ele>
        <time>2018-07-23T08:52:50.990Z</time>
      </trkpt>
      <trkpt lat="42.53151" lon="-5.442026">
        <ele>806</ele>
        <time>2018-07-23T08:52:53.990Z</time>
      </trkpt>
      <trkpt lat="42.5316" lon="-5.442095">
        <ele>806</ele>
        <time>2018-07-23T08:52:56.990Z</time>
      </trkpt>
      <trkpt lat="42.531698" lon="-5.44216">
        <ele>806</ele>
        <time>2018-07-23T08:53:00.990Z</time>
      </trkpt>
      <trkpt lat="42.531813" lon="-5.442239">
        <ele>806</ele>
        <time>2018-07-23T08:53:05.000Z</time>
      </trkpt>
      <trkpt lat="42.531914" lon="-5.442325">
        <ele>806</ele>
        <time>2018-07-23T08:53:07.990Z</time>
      </trkpt>
      <trkpt lat="42.532005" lon="-5.4424">
        <ele>806</ele>
        <time>2018-07-23T08:53:10.990Z</time>
      </trkpt>
      <trkpt lat="42.532108" lon="-5.442476">
        <ele>805</ele>
        <time>2018-07-23T08:53:13.990Z</time>
      </trkpt>
      <trkpt lat="42.532206" lon="-5.442555">
        <ele>805</ele>
        <time>2018-07-23T08:53:16.990Z</time>
      </trkpt>
      <trkpt lat="42.532317" lon="-5.442632">
        <ele>805</ele>
        <time>2018-07-23T08:53:20.000Z</time>
      </trkpt>
      <trkpt lat="42.532412" lon="-5.442702">
        <ele>805</ele>
        <time>2018-07-23T08:53:22.990Z</time>
      </trkpt>
      <trkpt lat="42.532505" lon="-5.442767">
        <ele>806</ele>
        <time>2018-07-23T08:53:25.990Z</time>
      </trkpt>
      <trkpt lat="42.532597" lon="-5.442826">
        <ele>806</ele>
        <time>2018-07-23T08:53:28.990Z</time>
      </trkpt>
      <trkpt lat="42.532713" lon="-5.442898">
        <ele>806</ele>
        <time>2018-07-23T08:53:31.990Z</time>
      </trkpt>
      <trkpt lat="42.532828" lon="-5.442979">
        <ele>806</ele>
        <time>2018-07-23T08:53:35.000Z</time>
      </trkpt>
      <trkpt lat="42.532952" lon="-5.443068">
        <ele>806</ele>
        <time>2018-07-23T08:53:38.000Z</time>
      </trkpt>
      <trkpt lat="42.533032" lon="-5.443133">
        <ele>806</ele>
        <time>2018-07-23T08:53:40.000Z</time>
      </trkpt>
      <trkpt lat="42.533121" lon="-5.443194">
        <ele>806</ele>
        <time>2018-07-23T08:53:42.000Z</time>
      </trkpt>
      <trkpt lat="42.533204" lon="-5.443254">
        <ele>806</ele>
        <time>2018-07-23T08:53:43.990Z</time>
      </trkpt>
      <trkpt lat="42.533309" lon="-5.443325">
        <ele>806</ele>
        <time>2018-07-23T08:53:47.000Z</time>
      </trkpt>
      <trkpt lat="42.533388" lon="-5.443398">
        <ele>806</ele>
        <time>2018-07-23T08:53:49.990Z</time>
      </trkpt>
      <trkpt lat="42.53349" lon="-5.443464">
        <ele>806</ele>
        <time>2018-07-23T08:53:52.990Z</time>
      </trkpt>
      <trkpt lat="42.533605" lon="-5.443538">
        <ele>806</ele>
        <time>2018-07-23T08:53:55.990Z</time>
      </trkpt>
      <trkpt lat="42.533706" lon="-5.443623">
        <ele>806</ele>
        <time>2018-07-23T08:53:58.990Z</time>
      </trkpt>
      <trkpt lat="42.533812" lon="-5.443698">
        <ele>806</ele>
        <time>2018-07-23T08:54:02.000Z</time>
      </trkpt>
      <trkpt lat="42.533908" lon="-5.443773">
        <ele>806</ele>
        <time>2018-07-23T08:54:04.990Z</time>
      </trkpt>
      <trkpt lat="42.534013" lon="-5.443861">
        <ele>806</ele>
        <time>2018-07-23T08:54:07.990Z</time>
      </trkpt>
      <trkpt lat="42.534124" lon="-5.443947">
        <ele>806</ele>
        <time>2018-07-23T08:54:10.990Z</time>
      </trkpt>
      <trkpt lat="42.534228" lon="-5.444034">
        <ele>806</ele>
        <time>2018-07-23T08:54:13.990Z</time>
      </trkpt>
      <trkpt lat="42.534308" lon="-5.44409">
        <ele>806</ele>
        <time>2018-07-23T08:54:15.990Z</time>
      </trkpt>
      <trkpt lat="42.534389" lon="-5.444147">
        <ele>806</ele>
        <time>2018-07-23T08:54:17.990Z</time>
      </trkpt>
      <trkpt lat="42.534489" lon="-5.44421">
        <ele>806</ele>
        <time>2018-07-23T08:54:20.990Z</time>
      </trkpt>
      <trkpt lat="42.534588" lon="-5.444271">
        <ele>807</ele>
        <time>2018-07-23T08:54:23.990Z</time>
      </trkpt>
      <trkpt lat="42.534709" lon="-5.444359">
        <ele>807</ele>
        <time>2018-07-23T08:54:27.100Z</time>
      </trkpt>
      <trkpt lat="42.534801" lon="-5.444424">
        <ele>807</ele>
        <time>2018-07-23T08:54:29.000Z</time>
      </trkpt>
      <trkpt lat="42.534879" lon="-5.444488">
        <ele>807</ele>
        <time>2018-07-23T08:54:30.990Z</time>
      </trkpt>
      <trkpt lat="42.53499" lon="-5.444566">
        <ele>807</ele>
        <time>2018-07-23T08:54:33.990Z</time>
      </trkpt>
      <trkpt lat="42.535102" lon="-5.444647">
        <ele>807</ele>
        <time>2018-07-23T08:54:36.990Z</time>
      </trkpt>
      <trkpt lat="42.535211" lon="-5.444718">
        <ele>807</ele>
        <time>2018-07-23T08:54:40.000Z</time>
      </trkpt>
      <trkpt lat="42.535322" lon="-5.44479">
        <ele>807</ele>
        <time>2018-07-23T08:54:42.990Z</time>
      </trkpt>
      <trkpt lat="42.535423" lon="-5.444863">
        <ele>807.68</ele>
        <time>2018-07-23T08:54:45.990Z</time>
      </trkpt>
      <trkpt lat="42.535522" lon="-5.444924">
        <ele>807</ele>
        <time>2018-07-23T08:54:48.990Z</time>
      </trkpt>
      <trkpt lat="42.535614" lon="-5.445022">
        <ele>807</ele>
        <time>2018-07-23T08:54:51.990Z</time>
      </trkpt>
      <trkpt lat="42.535721" lon="-5.445105">
        <ele>807</ele>
        <time>2018-07-23T08:54:55.000Z</time>
      </trkpt>
      <trkpt lat="42.535837" lon="-5.445192">
        <ele>807</ele>
        <time>2018-07-23T08:54:57.990Z</time>
      </trkpt>
      <trkpt lat="42.535934" lon="-5.445258">
        <ele>807</ele>
        <time>2018-07-23T08:55:00.990Z</time>
      </trkpt>
      <trkpt lat="42.536033" lon="-5.445337">
        <ele>807</ele>
        <time>2018-07-23T08:55:03.990Z</time>
      </trkpt>
      <trkpt lat="42.536112" lon="-5.445402">
        <ele>807</ele>
        <time>2018-07-23T08:55:05.990Z</time>
      </trkpt>
      <trkpt lat="42.536236" lon="-5.445479">
        <ele>807</ele>
        <time>2018-07-23T08:55:08.990Z</time>
      </trkpt>
      <trkpt lat="42.536339" lon="-5.445547">
        <ele>807</ele>
        <time>2018-07-23T08:55:11.990Z</time>
      </trkpt>
      <trkpt lat="42.536459" lon="-5.445636">
        <ele>807</ele>
        <time>2018-07-23T08:55:15.000Z</time>
      </trkpt>
      <trkpt lat="42.536574" lon="-5.445725">
        <ele>807</ele>
        <time>2018-07-23T08:55:17.990Z</time>
      </trkpt>
      <trkpt lat="42.536667" lon="-5.445793">
        <ele>807</ele>
        <time>2018-07-23T08:55:20.000Z</time>
      </trkpt>
      <trkpt lat="42.536753" lon="-5.445857">
        <ele>807</ele>
        <time>2018-07-23T08:55:21.990Z</time>
      </trkpt>
      <trkpt lat="42.536835" lon="-5.445915">
        <ele>807</ele>
        <time>2018-07-23T08:55:23.990Z</time>
      </trkpt>
      <trkpt lat="42.536923" lon="-5.445978">
        <ele>807</ele>
        <time>2018-07-23T08:55:25.990Z</time>
      </trkpt>
      <trkpt lat="42.537034" lon="-5.446047">
        <ele>807</ele>
        <time>2018-07-23T08:55:28.990Z</time>
      </trkpt>
      <trkpt lat="42.537153" lon="-5.446145">
        <ele>808</ele>
        <time>2018-07-23T08:55:31.990Z</time>
      </trkpt>
      <trkpt lat="42.537243" lon="-5.446208">
        <ele>808</ele>
        <time>2018-07-23T08:55:33.990Z</time>
      </trkpt>
      <trkpt lat="42.537331" lon="-5.446276">
        <ele>808</ele>
        <time>2018-07-23T08:55:35.990Z</time>
      </trkpt>
      <trkpt lat="42.537417" lon="-5.446336">
        <ele>808</ele>
        <time>2018-07-23T08:55:37.990Z</time>
      </trkpt>
      <trkpt lat="42.53753" lon="-5.446409">
        <ele>808</ele>
        <time>2018-07-23T08:55:40.990Z</time>
      </trkpt>
      <trkpt lat="42.537632" lon="-5.446488">
        <ele>807</ele>
        <time>2018-07-23T08:55:43.990Z</time>
      </trkpt>
      <trkpt lat="42.537693" lon="-5.446585">
        <ele>807</ele>
        <time>2018-07-23T08:55:45.990Z</time>
      </trkpt>
      <trkpt lat="42.537771" lon="-5.446676">
        <ele>807</ele>
        <time>2018-07-23T08:55:47.990Z</time>
      </trkpt>
      <trkpt lat="42.53787" lon="-5.446755">
        <ele>806</ele>
        <time>2018-07-23T08:55:50.000Z</time>
      </trkpt>
      <trkpt lat="42.537961" lon="-5.446824">
        <ele>806</ele>
        <time>2018-07-23T08:55:51.990Z</time>
      </trkpt>
      <trkpt lat="42.538046" lon="-5.446898">
        <ele>806</ele>
        <time>2018-07-23T08:55:53.990Z</time>
      </trkpt>
      <trkpt lat="42.538126" lon="-5.446973">
        <ele>806</ele>
        <time>2018-07-23T08:55:55.990Z</time>
      </trkpt>
      <trkpt lat="42.538214" lon="-5.447039">
        <ele>806</ele>
        <time>2018-07-23T08:55:57.990Z</time>
      </trkpt>
      <trkpt lat="42.538304" lon="-5.447101">
        <ele>806</ele>
        <time>2018-07-23T08:56:00.000Z</time>
      </trkpt>
      <trkpt lat="42.538394" lon="-5.44716">
        <ele>806</ele>
        <time>2018-07-23T08:56:01.990Z</time>
      </trkpt>
      <trkpt lat="42.538479" lon="-5.447228">
        <ele>806</ele>
        <time>2018-07-23T08:56:03.990Z</time>
      </trkpt>
      <trkpt lat="42.538568" lon="-5.4473">
        <ele>806</ele>
        <time>2018-07-23T08:56:05.990Z</time>
      </trkpt>
      <trkpt lat="42.538655" lon="-5.447358">
        <ele>806</ele>
        <time>2018-07-23T08:56:07.990Z</time>
      </trkpt>
      <trkpt lat="42.538742" lon="-5.447422">
        <ele>806</ele>
        <time>2018-07-23T08:56:10.000Z</time>
      </trkpt>
      <trkpt lat="42.538837" lon="-5.447488">
        <ele>806</ele>
        <time>2018-07-23T08:56:11.990Z</time>
      </trkpt>
      <trkpt lat="42.538931" lon="-5.447556">
        <ele>806</ele>
        <time>2018-07-23T08:56:13.990Z</time>
      </trkpt>
      <trkpt lat="42.539019" lon="-5.447627">
        <ele>806</ele>
        <time>2018-07-23T08:56:15.990Z</time>
      </trkpt>
      <trkpt lat="42.539119" lon="-5.447706">
        <ele>806</ele>
        <time>2018-07-23T08:56:17.990Z</time>
      </trkpt>
      <trkpt lat="42.539217" lon="-5.44778">
        <ele>806</ele>
        <time>2018-07-23T08:56:20.000Z</time>
      </trkpt>
      <trkpt lat="42.539313" lon="-5.447846">
        <ele>806</ele>
        <time>2018-07-23T08:56:21.990Z</time>
      </trkpt>
      <trkpt lat="42.5394" lon="-5.447914">
        <ele>806</ele>
        <time>2018-07-23T08:56:23.990Z</time>
      </trkpt>
      <trkpt lat="42.53949" lon="-5.447986">
        <ele>806</ele>
        <time>2018-07-23T08:56:26.020Z</time>
      </trkpt>
      <trkpt lat="42.539576" lon="-5.448052">
        <ele>805.32</ele>
        <time>2018-07-23T08:56:27.990Z</time>
      </trkpt>
      <trkpt lat="42.539665" lon="-5.44812">
        <ele>806</ele>
        <time>2018-07-23T08:56:30.990Z</time>
      </trkpt>
      <trkpt lat="42.539777" lon="-5.4482">
        <ele>806</ele>
        <time>2018-07-23T08:56:33.990Z</time>
      </trkpt>
      <trkpt lat="42.539895" lon="-5.448286">
        <ele>806</ele>
        <time>2018-07-23T08:56:36.990Z</time>
      </trkpt>
      <trkpt lat="42.539976" lon="-5.448346">
        <ele>805.6700032</ele>
        <time>2018-07-23T08:56:39.000Z</time>
      </trkpt>
      <trkpt lat="42.540078" lon="-5.448422">
        <ele>805</ele>
        <time>2018-07-23T08:56:41.000Z</time>
      </trkpt>
      <trkpt lat="42.540191" lon="-5.448514">
        <ele>805</ele>
        <time>2018-07-23T08:56:43.990Z</time>
      </trkpt>
      <trkpt lat="42.540292" lon="-5.448592">
        <ele>806</ele>
        <time>2018-07-23T08:56:46.990Z</time>
      </trkpt>
      <trkpt lat="42.540376" lon="-5.448652">
        <ele>806</ele>
        <time>2018-07-23T08:56:48.990Z</time>
      </trkpt>
      <trkpt lat="42.54048" lon="-5.448726">
        <ele>806</ele>
        <time>2018-07-23T08:56:51.990Z</time>
      </trkpt>
      <trkpt lat="42.540592" lon="-5.448782">
        <ele>806</ele>
        <time>2018-07-23T08:56:54.990Z</time>
      </trkpt>
      <trkpt lat="42.540674" lon="-5.448866">
        <ele>806</ele>
        <time>2018-07-23T08:56:57.100Z</time>
      </trkpt>
      <trkpt lat="42.540783" lon="-5.448955">
        <ele>806</ele>
        <time>2018-07-23T08:57:00.000Z</time>
      </trkpt>
      <trkpt lat="42.540868" lon="-5.449026">
        <ele>806</ele>
        <time>2018-07-23T08:57:02.990Z</time>
      </trkpt>
      <trkpt lat="42.540984" lon="-5.449066">
        <ele>806</ele>
        <time>2018-07-23T08:57:06.990Z</time>
      </trkpt>
      <trkpt lat="42.541076" lon="-5.449066">
        <ele>807</ele>
        <time>2018-07-23T08:57:12.990Z</time>
      </trkpt>
      <trkpt lat="42.541173" lon="-5.449107">
        <ele>808</ele>
        <time>2018-07-23T08:57:18.990Z</time>
      </trkpt>
      <trkpt lat="42.541265" lon="-5.449173">
        <ele>807</ele>
        <time>2018-07-23T08:57:22.990Z</time>
      </trkpt>
      <trkpt lat="42.541352" lon="-5.449229">
        <ele>808</ele>
        <time>2018-07-23T08:57:26.990Z</time>
      </trkpt>
      <trkpt lat="42.541449" lon="-5.449292">
        <ele>808</ele>
        <time>2018-07-23T08:57:31.000Z</time>
      </trkpt>
      <trkpt lat="42.541523" lon="-5.449365">
        <ele>808</ele>
        <time>2018-07-23T08:57:33.990Z</time>
      </trkpt>
      <trkpt lat="42.54162" lon="-5.44945">
        <ele>808</ele>
        <time>2018-07-23T08:57:37.990Z</time>
      </trkpt>
      <trkpt lat="42.541702" lon="-5.449536">
        <ele>808</ele>
        <time>2018-07-23T08:57:41.990Z</time>
      </trkpt>
      <trkpt lat="42.541775" lon="-5.449655">
        <ele>808</ele>
        <time>2018-07-23T08:57:46.000Z</time>
      </trkpt>
      <trkpt lat="42.541863" lon="-5.449774">
        <ele>807</ele>
        <time>2018-07-23T08:57:48.990Z</time>
      </trkpt>
      <trkpt lat="42.541939" lon="-5.449856">
        <ele>807</ele>
        <time>2018-07-23T08:57:51.000Z</time>
      </trkpt>
      <trkpt lat="42.542027" lon="-5.449948">
        <ele>806</ele>
        <time>2018-07-23T08:57:53.990Z</time>
      </trkpt>
      <trkpt lat="42.542106" lon="-5.450045">
        <ele>806</ele>
        <time>2018-07-23T08:57:56.990Z</time>
      </trkpt>
      <trkpt lat="42.542191" lon="-5.45014">
        <ele>806</ele>
        <time>2018-07-23T08:57:59.990Z</time>
      </trkpt>
      <trkpt lat="42.542283" lon="-5.450236">
        <ele>806</ele>
        <time>2018-07-23T08:58:02.990Z</time>
      </trkpt>
      <trkpt lat="42.542357" lon="-5.450319">
        <ele>806</ele>
        <time>2018-07-23T08:58:06.990Z</time>
      </trkpt>
      <trkpt lat="42.54244" lon="-5.450391">
        <ele>807</ele>
        <time>2018-07-23T08:58:11.000Z</time>
      </trkpt>
      <trkpt lat="42.542525" lon="-5.450452">
        <ele>807</ele>
        <time>2018-07-23T08:58:13.990Z</time>
      </trkpt>
      <trkpt lat="42.542618" lon="-5.450556">
        <ele>806</ele>
        <time>2018-07-23T08:58:17.990Z</time>
      </trkpt>
      <trkpt lat="42.542666" lon="-5.45066">
        <ele>806</ele>
        <time>2018-07-23T08:58:19.990Z</time>
      </trkpt>
      <trkpt lat="42.542699" lon="-5.450804">
        <ele>806</ele>
        <time>2018-07-23T08:58:22.990Z</time>
      </trkpt>
      <trkpt lat="42.542704" lon="-5.450941">
        <ele>806.3299968</ele>
        <time>2018-07-23T08:58:26.000Z</time>
      </trkpt>
      <trkpt lat="42.542684" lon="-5.451102">
        <ele>807</ele>
        <time>2018-07-23T08:58:29.990Z</time>
      </trkpt>
      <trkpt lat="42.5427" lon="-5.451228">
        <ele>808</ele>
        <time>2018-07-23T08:58:33.990Z</time>
      </trkpt>
      <trkpt lat="42.542806" lon="-5.451394">
        <ele>809</ele>
        <time>2018-07-23T08:58:39.000Z</time>
      </trkpt>
      <trkpt lat="42.542866" lon="-5.451494">
        <ele>808.6700032</ele>
        <time>2018-07-23T08:58:41.000Z</time>
      </trkpt>
      <trkpt lat="42.542961" lon="-5.451612">
        <ele>808</ele>
        <time>2018-07-23T08:58:43.990Z</time>
      </trkpt>
      <trkpt lat="42.543053" lon="-5.451713">
        <ele>808</ele>
        <time>2018-07-23T08:58:46.990Z</time>
      </trkpt>
      <trkpt lat="42.543138" lon="-5.45184">
        <ele>808</ele>
        <time>2018-07-23T08:58:49.990Z</time>
      </trkpt>
      <trkpt lat="42.543198" lon="-5.45195">
        <ele>807.68</ele>
        <time>2018-07-23T08:58:51.990Z</time>
      </trkpt>
      <trkpt lat="42.543242" lon="-5.452072">
        <ele>806</ele>
        <time>2018-07-23T08:58:53.990Z</time>
      </trkpt>
      <trkpt lat="42.543298" lon="-5.452204">
        <ele>806</ele>
        <time>2018-07-23T08:58:55.990Z</time>
      </trkpt>
      <trkpt lat="42.543346" lon="-5.452332">
        <ele>806</ele>
        <time>2018-07-23T08:58:58.000Z</time>
      </trkpt>
      <trkpt lat="42.543385" lon="-5.452452">
        <ele>806</ele>
        <time>2018-07-23T08:58:59.990Z</time>
      </trkpt>
      <trkpt lat="42.54342" lon="-5.45258">
        <ele>806</ele>
        <time>2018-07-23T08:59:01.990Z</time>
      </trkpt>
      <trkpt lat="42.543456" lon="-5.452702">
        <ele>806</ele>
        <time>2018-07-23T08:59:03.990Z</time>
      </trkpt>
      <trkpt lat="42.543487" lon="-5.45283">
        <ele>806</ele>
        <time>2018-07-23T08:59:05.990Z</time>
      </trkpt>
      <trkpt lat="42.543514" lon="-5.452948">
        <ele>806</ele>
        <time>2018-07-23T08:59:08.000Z</time>
      </trkpt>
      <trkpt lat="42.543544" lon="-5.4531">
        <ele>806</ele>
        <time>2018-07-23T08:59:10.990Z</time>
      </trkpt>
      <trkpt lat="42.543572" lon="-5.45324">
        <ele>806</ele>
        <time>2018-07-23T08:59:13.990Z</time>
      </trkpt>
      <trkpt lat="42.543608" lon="-5.45339">
        <ele>806</ele>
        <time>2018-07-23T08:59:16.990Z</time>
      </trkpt>
      <trkpt lat="42.543636" lon="-5.45351">
        <ele>806</ele>
        <time>2018-07-23T08:59:18.990Z</time>
      </trkpt>
      <trkpt lat="42.54371" lon="-5.45363">
        <ele>806</ele>
        <time>2018-07-23T08:59:21.990Z</time>
      </trkpt>
      <trkpt lat="42.543747" lon="-5.453754">
        <ele>806.992483590938</ele>
        <time>2018-07-23T08:59:25.990Z</time>
      </trkpt>
      <trkpt lat="42.543802" lon="-5.453888">
        <ele>807</ele>
        <time>2018-07-23T08:59:29.990Z</time>
      </trkpt>
      <trkpt lat="42.543839" lon="-5.454022">
        <ele>807.253844942006</ele>
        <time>2018-07-23T08:59:33.000Z</time>
      </trkpt>
      <trkpt lat="42.543867" lon="-5.454156">
        <ele>808</ele>
        <time>2018-07-23T08:59:36.000Z</time>
      </trkpt>
      <trkpt lat="42.543854" lon="-5.454282">
        <ele>808</ele>
        <time>2018-07-23T08:59:38.000Z</time>
      </trkpt>
      <trkpt lat="42.543859" lon="-5.454408">
        <ele>808.2899968</ele>
        <time>2018-07-23T08:59:40.960Z</time>
      </trkpt>
      <trkpt lat="42.54392" lon="-5.454542">
        <ele>810</ele>
        <time>2018-07-23T08:59:45.000Z</time>
      </trkpt>
      <trkpt lat="42.543973" lon="-5.454655">
        <ele>811</ele>
        <time>2018-07-23T08:59:50.000Z</time>
      </trkpt>
      <trkpt lat="42.544028" lon="-5.45478">
        <ele>811</ele>
        <time>2018-07-23T08:59:52.990Z</time>
      </trkpt>
      <trkpt lat="42.544072" lon="-5.454935">
        <ele>811</ele>
        <time>2018-07-23T08:59:55.990Z</time>
      </trkpt>
      <trkpt lat="42.544114" lon="-5.455092">
        <ele>811</ele>
        <time>2018-07-23T08:59:58.990Z</time>
      </trkpt>
      <trkpt lat="42.544156" lon="-5.45524">
        <ele>811</ele>
        <time>2018-07-23T09:00:01.990Z</time>
      </trkpt>
      <trkpt lat="42.544201" lon="-5.455384">
        <ele>811</ele>
        <time>2018-07-23T09:00:05.000Z</time>
      </trkpt>
      <trkpt lat="42.544247" lon="-5.455539">
        <ele>811</ele>
        <time>2018-07-23T09:00:07.990Z</time>
      </trkpt>
      <trkpt lat="42.544262" lon="-5.45566">
        <ele>811</ele>
        <time>2018-07-23T09:00:10.000Z</time>
      </trkpt>
      <trkpt lat="42.544296" lon="-5.455838">
        <ele>811</ele>
        <time>2018-07-23T09:00:12.990Z</time>
      </trkpt>
      <trkpt lat="42.544316" lon="-5.456003">
        <ele>811</ele>
        <time>2018-07-23T09:00:15.990Z</time>
      </trkpt>
      <trkpt lat="42.544346" lon="-5.456168">
        <ele>811</ele>
        <time>2018-07-23T09:00:18.990Z</time>
      </trkpt>
      <trkpt lat="42.544383" lon="-5.456332">
        <ele>811</ele>
        <time>2018-07-23T09:00:21.990Z</time>
      </trkpt>
      <trkpt lat="42.544393" lon="-5.456515">
        <ele>811</ele>
        <time>2018-07-23T09:00:25.000Z</time>
      </trkpt>
      <trkpt lat="42.54442" lon="-5.456686">
        <ele>811</ele>
        <time>2018-07-23T09:00:27.990Z</time>
      </trkpt>
      <trkpt lat="42.544442" lon="-5.456851">
        <ele>811</ele>
        <time>2018-07-23T09:00:30.990Z</time>
      </trkpt>
      <trkpt lat="42.544472" lon="-5.45701">
        <ele>811</ele>
        <time>2018-07-23T09:00:33.990Z</time>
      </trkpt>
      <trkpt lat="42.544496" lon="-5.457161">
        <ele>811</ele>
        <time>2018-07-23T09:00:36.990Z</time>
      </trkpt>
      <trkpt lat="42.544529" lon="-5.457312">
        <ele>811.3299968</ele>
        <time>2018-07-23T09:00:40.000Z</time>
      </trkpt>
      <trkpt lat="42.544571" lon="-5.457455">
        <ele>812</ele>
        <time>2018-07-23T09:00:42.990Z</time>
      </trkpt>
      <trkpt lat="42.544622" lon="-5.457599">
        <ele>812</ele>
        <time>2018-07-23T09:00:45.990Z</time>
      </trkpt>
      <trkpt lat="42.544668" lon="-5.457754">
        <ele>812</ele>
        <time>2018-07-23T09:00:48.990Z</time>
      </trkpt>
      <trkpt lat="42.544724" lon="-5.457873">
        <ele>812</ele>
        <time>2018-07-23T09:00:51.990Z</time>
      </trkpt>
      <trkpt lat="42.544779" lon="-5.45798">
        <ele>813.3299968</ele>
        <time>2018-07-23T09:00:55.000Z</time>
      </trkpt>
      <trkpt lat="42.544835" lon="-5.458085">
        <ele>814</ele>
        <time>2018-07-23T09:00:57.990Z</time>
      </trkpt>
      <trkpt lat="42.544897" lon="-5.458188">
        <ele>814</ele>
        <time>2018-07-23T09:01:00.990Z</time>
      </trkpt>
      <trkpt lat="42.544965" lon="-5.458291">
        <ele>814</ele>
        <time>2018-07-23T09:01:03.990Z</time>
      </trkpt>
      <trkpt lat="42.545041" lon="-5.458401">
        <ele>814</ele>
        <time>2018-07-23T09:01:06.990Z</time>
      </trkpt>
      <trkpt lat="42.545118" lon="-5.458505">
        <ele>814</ele>
        <time>2018-07-23T09:01:10.000Z</time>
      </trkpt>
      <trkpt lat="42.545207" lon="-5.45861">
        <ele>814.028580310123</ele>
        <time>2018-07-23T09:01:12.990Z</time>
      </trkpt>
      <trkpt lat="42.545337" lon="-5.458772">
        <ele>815</ele>
        <time>2018-07-23T09:01:17.000Z</time>
      </trkpt>
      <trkpt lat="42.5454" lon="-5.458917">
        <ele>815</ele>
        <time>2018-07-23T09:01:20.000Z</time>
      </trkpt>
      <trkpt lat="42.545462" lon="-5.459047">
        <ele>815</ele>
        <time>2018-07-23T09:01:22.990Z</time>
      </trkpt>
      <trkpt lat="42.545531" lon="-5.459157">
        <ele>815</ele>
        <time>2018-07-23T09:01:26.000Z</time>
      </trkpt>
      <trkpt lat="42.54563" lon="-5.459262">
        <ele>815</ele>
        <time>2018-07-23T09:01:28.990Z</time>
      </trkpt>
      <trkpt lat="42.545709" lon="-5.4594">
        <ele>815</ele>
        <time>2018-07-23T09:01:31.990Z</time>
      </trkpt>
      <trkpt lat="42.545799" lon="-5.459506">
        <ele>815</ele>
        <time>2018-07-23T09:01:34.990Z</time>
      </trkpt>
      <trkpt lat="42.545881" lon="-5.459617">
        <ele>815</ele>
        <time>2018-07-23T09:01:37.990Z</time>
      </trkpt>
      <trkpt lat="42.545944" lon="-5.459709">
        <ele>815</ele>
        <time>2018-07-23T09:01:39.990Z</time>
      </trkpt>
      <trkpt lat="42.546035" lon="-5.45983">
        <ele>815</ele>
        <time>2018-07-23T09:01:42.990Z</time>
      </trkpt>
      <trkpt lat="42.546121" lon="-5.45994">
        <ele>815</ele>
        <time>2018-07-23T09:01:46.000Z</time>
      </trkpt>
      <trkpt lat="42.546207" lon="-5.460026">
        <ele>815</ele>
        <time>2018-07-23T09:01:48.990Z</time>
      </trkpt>
      <trkpt lat="42.546273" lon="-5.460142">
        <ele>815</ele>
        <time>2018-07-23T09:01:51.990Z</time>
      </trkpt>
      <trkpt lat="42.546341" lon="-5.460271">
        <ele>815</ele>
        <time>2018-07-23T09:01:54.990Z</time>
      </trkpt>
      <trkpt lat="42.546412" lon="-5.460396">
        <ele>815</ele>
        <time>2018-07-23T09:01:57.990Z</time>
      </trkpt>
      <trkpt lat="42.546491" lon="-5.460514">
        <ele>815</ele>
        <time>2018-07-23T09:02:01.000Z</time>
      </trkpt>
      <trkpt lat="42.546588" lon="-5.460628">
        <ele>815</ele>
        <time>2018-07-23T09:02:03.990Z</time>
      </trkpt>
      <trkpt lat="42.546684" lon="-5.460745">
        <ele>815</ele>
        <time>2018-07-23T09:02:06.990Z</time>
      </trkpt>
      <trkpt lat="42.54676" lon="-5.460845">
        <ele>815</ele>
        <time>2018-07-23T09:02:09.990Z</time>
      </trkpt>
      <trkpt lat="42.54683" lon="-5.460932">
        <ele>815</ele>
        <time>2018-07-23T09:02:12.990Z</time>
      </trkpt>
      <trkpt lat="42.546916" lon="-5.461025">
        <ele>815</ele>
        <time>2018-07-23T09:02:16.990Z</time>
      </trkpt>
      <trkpt lat="42.546992" lon="-5.461114">
        <ele>816</ele>
        <time>2018-07-23T09:02:19.990Z</time>
      </trkpt>
      <trkpt lat="42.547074" lon="-5.461204">
        <ele>816</ele>
        <time>2018-07-23T09:02:22.990Z</time>
      </trkpt>
      <trkpt lat="42.547165" lon="-5.461307">
        <ele>816</ele>
        <time>2018-07-23T09:02:25.990Z</time>
      </trkpt>
      <trkpt lat="42.547234" lon="-5.461391">
        <ele>816</ele>
        <time>2018-07-23T09:02:27.990Z</time>
      </trkpt>
      <trkpt lat="42.547316" lon="-5.461537">
        <ele>816</ele>
        <time>2018-07-23T09:02:31.000Z</time>
      </trkpt>
      <trkpt lat="42.547386" lon="-5.461664">
        <ele>816</ele>
        <time>2018-07-23T09:02:33.990Z</time>
      </trkpt>
      <trkpt lat="42.54746" lon="-5.461771">
        <ele>815.68</ele>
        <time>2018-07-23T09:02:36.990Z</time>
      </trkpt>
      <trkpt lat="42.54754" lon="-5.4619">
        <ele>815</ele>
        <time>2018-07-23T09:02:40.000Z</time>
      </trkpt>
      <trkpt lat="42.547608" lon="-5.461996">
        <ele>815</ele>
        <time>2018-07-23T09:02:42.000Z</time>
      </trkpt>
      <trkpt lat="42.547704" lon="-5.462119">
        <ele>816</ele>
        <time>2018-07-23T09:02:45.000Z</time>
      </trkpt>
      <trkpt lat="42.54779" lon="-5.462228">
        <ele>816</ele>
        <time>2018-07-23T09:02:48.000Z</time>
      </trkpt>
      <trkpt lat="42.547868" lon="-5.462319">
        <ele>816</ele>
        <time>2018-07-23T09:02:51.000Z</time>
      </trkpt>
      <trkpt lat="42.547938" lon="-5.462412">
        <ele>815</ele>
        <time>2018-07-23T09:02:54.000Z</time>
      </trkpt>
      <trkpt lat="42.548038" lon="-5.462489">
        <ele>815</ele>
        <time>2018-07-23T09:02:58.000Z</time>
      </trkpt>
      <trkpt lat="42.548112" lon="-5.462577">
        <ele>815.253844942006</ele>
        <time>2018-07-23T09:03:02.000Z</time>
      </trkpt>
      <trkpt lat="42.548189" lon="-5.462681">
        <ele>816</ele>
        <time>2018-07-23T09:03:06.000Z</time>
      </trkpt>
      <trkpt lat="42.548269" lon="-5.462798">
        <ele>815</ele>
        <time>2018-07-23T09:03:09.000Z</time>
      </trkpt>
      <trkpt lat="42.548347" lon="-5.462916">
        <ele>815</ele>
        <time>2018-07-23T09:03:12.000Z</time>
      </trkpt>
      <trkpt lat="42.548423" lon="-5.463032">
        <ele>816</ele>
        <time>2018-07-23T09:03:15.000Z</time>
      </trkpt>
      <trkpt lat="42.548508" lon="-5.463157">
        <ele>815</ele>
        <time>2018-07-23T09:03:18.000Z</time>
      </trkpt>
      <trkpt lat="42.548589" lon="-5.463274">
        <ele>815</ele>
        <time>2018-07-23T09:03:21.000Z</time>
      </trkpt>
      <trkpt lat="42.548659" lon="-5.463386">
        <ele>815</ele>
        <time>2018-07-23T09:03:24.000Z</time>
      </trkpt>
      <trkpt lat="42.548748" lon="-5.463512">
        <ele>815.3299968</ele>
        <time>2018-07-23T09:03:27.000Z</time>
      </trkpt>
      <trkpt lat="42.548833" lon="-5.46362">
        <ele>815</ele>
        <time>2018-07-23T09:03:29.990Z</time>
      </trkpt>
      <trkpt lat="42.548914" lon="-5.463746">
        <ele>815</ele>
        <time>2018-07-23T09:03:32.990Z</time>
      </trkpt>
      <trkpt lat="42.549" lon="-5.463875">
        <ele>815</ele>
        <time>2018-07-23T09:03:35.990Z</time>
      </trkpt>
      <trkpt lat="42.549065" lon="-5.463977">
        <ele>816</ele>
        <time>2018-07-23T09:03:37.990Z</time>
      </trkpt>
      <trkpt lat="42.549135" lon="-5.464068">
        <ele>816</ele>
        <time>2018-07-23T09:03:39.990Z</time>
      </trkpt>
      <trkpt lat="42.549199" lon="-5.464163">
        <ele>816</ele>
        <time>2018-07-23T09:03:41.990Z</time>
      </trkpt>
      <trkpt lat="42.549268" lon="-5.464256">
        <ele>816</ele>
        <time>2018-07-23T09:03:44.000Z</time>
      </trkpt>
      <trkpt lat="42.549334" lon="-5.464342">
        <ele>816</ele>
        <time>2018-07-23T09:03:45.990Z</time>
      </trkpt>
      <trkpt lat="42.54943" lon="-5.464474">
        <ele>816</ele>
        <time>2018-07-23T09:03:49.000Z</time>
      </trkpt>
      <trkpt lat="42.549491" lon="-5.464568">
        <ele>816</ele>
        <time>2018-07-23T09:03:50.990Z</time>
      </trkpt>
      <trkpt lat="42.549551" lon="-5.464659">
        <ele>816</ele>
        <time>2018-07-23T09:03:52.990Z</time>
      </trkpt>
      <trkpt lat="42.549639" lon="-5.464797">
        <ele>816</ele>
        <time>2018-07-23T09:03:55.990Z</time>
      </trkpt>
      <trkpt lat="42.549708" lon="-5.464882">
        <ele>816</ele>
        <time>2018-07-23T09:03:57.990Z</time>
      </trkpt>
      <trkpt lat="42.549776" lon="-5.46497">
        <ele>816</ele>
        <time>2018-07-23T09:03:59.990Z</time>
      </trkpt>
      <trkpt lat="42.549843" lon="-5.465064">
        <ele>816</ele>
        <time>2018-07-23T09:04:01.990Z</time>
      </trkpt>
      <trkpt lat="42.549905" lon="-5.465163">
        <ele>816</ele>
        <time>2018-07-23T09:04:04.000Z</time>
      </trkpt>
      <trkpt lat="42.549968" lon="-5.465253">
        <ele>816.32</ele>
        <time>2018-07-23T09:04:05.990Z</time>
      </trkpt>
      <trkpt lat="42.550062" lon="-5.465379">
        <ele>817</ele>
        <time>2018-07-23T09:04:09.000Z</time>
      </trkpt>
      <trkpt lat="42.550146" lon="-5.465505">
        <ele>817</ele>
        <time>2018-07-23T09:04:11.990Z</time>
      </trkpt>
      <trkpt lat="42.550239" lon="-5.465619">
        <ele>817</ele>
        <time>2018-07-23T09:04:14.990Z</time>
      </trkpt>
      <trkpt lat="42.550298" lon="-5.465716">
        <ele>817</ele>
        <time>2018-07-23T09:04:16.990Z</time>
      </trkpt>
      <trkpt lat="42.550361" lon="-5.465804">
        <ele>817.042861322411</ele>
        <time>2018-07-23T09:04:19.000Z</time>
      </trkpt>
      <trkpt lat="42.55046" lon="-5.46592">
        <ele>817</ele>
        <time>2018-07-23T09:04:21.990Z</time>
      </trkpt>
      <trkpt lat="42.550548" lon="-5.466036">
        <ele>816.68</ele>
        <time>2018-07-23T09:04:24.990Z</time>
      </trkpt>
      <trkpt lat="42.55062" lon="-5.466116">
        <ele>816</ele>
        <time>2018-07-23T09:04:26.990Z</time>
      </trkpt>
      <trkpt lat="42.550708" lon="-5.466227">
        <ele>817</ele>
        <time>2018-07-23T09:04:29.990Z</time>
      </trkpt>
      <trkpt lat="42.550798" lon="-5.46636">
        <ele>818</ele>
        <time>2018-07-23T09:04:32.990Z</time>
      </trkpt>
      <trkpt lat="42.550858" lon="-5.466454">
        <ele>817</ele>
        <time>2018-07-23T09:04:34.990Z</time>
      </trkpt>
      <trkpt lat="42.550958" lon="-5.466481">
        <ele>817</ele>
        <time>2018-07-23T09:04:37.990Z</time>
      </trkpt>
      <trkpt lat="42.551062" lon="-5.466417">
        <ele>817</ele>
        <time>2018-07-23T09:04:41.990Z</time>
      </trkpt>
      <trkpt lat="42.551178" lon="-5.466449">
        <ele>817</ele>
        <time>2018-07-23T09:04:44.990Z</time>
      </trkpt>
      <trkpt lat="42.551287" lon="-5.466506">
        <ele>817</ele>
        <time>2018-07-23T09:04:47.990Z</time>
      </trkpt>
      <trkpt lat="42.551378" lon="-5.466569">
        <ele>817</ele>
        <time>2018-07-23T09:04:50.990Z</time>
      </trkpt>
      <trkpt lat="42.55147" lon="-5.466669">
        <ele>817</ele>
        <time>2018-07-23T09:04:54.000Z</time>
      </trkpt>
      <trkpt lat="42.551572" lon="-5.466762">
        <ele>817</ele>
        <time>2018-07-23T09:04:56.990Z</time>
      </trkpt>
      <trkpt lat="42.551667" lon="-5.466862">
        <ele>817</ele>
        <time>2018-07-23T09:04:59.990Z</time>
      </trkpt>
      <trkpt lat="42.551764" lon="-5.466961">
        <ele>818</ele>
        <time>2018-07-23T09:05:02.990Z</time>
      </trkpt>
      <trkpt lat="42.551852" lon="-5.467059">
        <ele>818</ele>
        <time>2018-07-23T09:05:05.990Z</time>
      </trkpt>
      <trkpt lat="42.55194" lon="-5.467165">
        <ele>818</ele>
        <time>2018-07-23T09:05:09.000Z</time>
      </trkpt>
      <trkpt lat="42.55202" lon="-5.467272">
        <ele>818</ele>
        <time>2018-07-23T09:05:11.990Z</time>
      </trkpt>
      <trkpt lat="42.552102" lon="-5.467357">
        <ele>818</ele>
        <time>2018-07-23T09:05:14.990Z</time>
      </trkpt>
      <trkpt lat="42.552181" lon="-5.467437">
        <ele>819</ele>
        <time>2018-07-23T09:05:17.990Z</time>
      </trkpt>
      <trkpt lat="42.552272" lon="-5.467547">
        <ele>819</ele>
        <time>2018-07-23T09:05:20.990Z</time>
      </trkpt>
      <trkpt lat="42.552372" lon="-5.467642">
        <ele>819</ele>
        <time>2018-07-23T09:05:24.000Z</time>
      </trkpt>
      <trkpt lat="42.552454" lon="-5.467733">
        <ele>819</ele>
        <time>2018-07-23T09:05:26.990Z</time>
      </trkpt>
      <trkpt lat="42.552529" lon="-5.467822">
        <ele>819</ele>
        <time>2018-07-23T09:05:29.990Z</time>
      </trkpt>
      <trkpt lat="42.552616" lon="-5.467911">
        <ele>819</ele>
        <time>2018-07-23T09:05:32.990Z</time>
      </trkpt>
      <trkpt lat="42.552711" lon="-5.468">
        <ele>819</ele>
        <time>2018-07-23T09:05:35.990Z</time>
      </trkpt>
      <trkpt lat="42.552798" lon="-5.46808">
        <ele>819</ele>
        <time>2018-07-23T09:05:39.000Z</time>
      </trkpt>
      <trkpt lat="42.552878" lon="-5.468162">
        <ele>819.32</ele>
        <time>2018-07-23T09:05:41.990Z</time>
      </trkpt>
      <trkpt lat="42.552963" lon="-5.468248">
        <ele>820</ele>
        <time>2018-07-23T09:05:44.990Z</time>
      </trkpt>
      <trkpt lat="42.553043" lon="-5.468326">
        <ele>820</ele>
        <time>2018-07-23T09:05:47.990Z</time>
      </trkpt>
      <trkpt lat="42.55312" lon="-5.468406">
        <ele>821</ele>
        <time>2018-07-23T09:05:50.990Z</time>
      </trkpt>
      <trkpt lat="42.553206" lon="-5.46849">
        <ele>821</ele>
        <time>2018-07-23T09:05:54.000Z</time>
      </trkpt>
      <trkpt lat="42.553309" lon="-5.468567">
        <ele>822</ele>
        <time>2018-07-23T09:05:57.990Z</time>
      </trkpt>
      <trkpt lat="42.553388" lon="-5.468633">
        <ele>823</ele>
        <time>2018-07-23T09:06:00.990Z</time>
      </trkpt>
      <trkpt lat="42.553478" lon="-5.468713">
        <ele>823</ele>
        <time>2018-07-23T09:06:04.000Z</time>
      </trkpt>
      <trkpt lat="42.553567" lon="-5.468782">
        <ele>823</ele>
        <time>2018-07-23T09:06:06.990Z</time>
      </trkpt>
      <trkpt lat="42.553658" lon="-5.468884">
        <ele>824</ele>
        <time>2018-07-23T09:06:10.990Z</time>
      </trkpt>
      <trkpt lat="42.553732" lon="-5.468979">
        <ele>824</ele>
        <time>2018-07-23T09:06:14.000Z</time>
      </trkpt>
      <trkpt lat="42.553804" lon="-5.469089">
        <ele>824</ele>
        <time>2018-07-23T09:06:16.990Z</time>
      </trkpt>
      <trkpt lat="42.553888" lon="-5.469194">
        <ele>824</ele>
        <time>2018-07-23T09:06:19.990Z</time>
      </trkpt>
      <trkpt lat="42.553965" lon="-5.469313">
        <ele>824</ele>
        <time>2018-07-23T09:06:22.990Z</time>
      </trkpt>
      <trkpt lat="42.554041" lon="-5.469431">
        <ele>825</ele>
        <time>2018-07-23T09:06:25.990Z</time>
      </trkpt>
      <trkpt lat="42.554122" lon="-5.469549">
        <ele>824</ele>
        <time>2018-07-23T09:06:29.000Z</time>
      </trkpt>
      <trkpt lat="42.554207" lon="-5.469662">
        <ele>824</ele>
        <time>2018-07-23T09:06:31.990Z</time>
      </trkpt>
      <trkpt lat="42.554288" lon="-5.469779">
        <ele>825</ele>
        <time>2018-07-23T09:06:34.990Z</time>
      </trkpt>
      <trkpt lat="42.55437" lon="-5.469886">
        <ele>825</ele>
        <time>2018-07-23T09:06:37.990Z</time>
      </trkpt>
      <trkpt lat="42.554466" lon="-5.46999">
        <ele>825</ele>
        <time>2018-07-23T09:06:40.990Z</time>
      </trkpt>
      <trkpt lat="42.554561" lon="-5.470102">
        <ele>826</ele>
        <time>2018-07-23T09:06:44.000Z</time>
      </trkpt>
      <trkpt lat="42.55466" lon="-5.470202">
        <ele>826</ele>
        <time>2018-07-23T09:06:46.990Z</time>
      </trkpt>
      <trkpt lat="42.554744" lon="-5.470315">
        <ele>826</ele>
        <time>2018-07-23T09:06:49.990Z</time>
      </trkpt>
      <trkpt lat="42.554807" lon="-5.470449">
        <ele>826</ele>
        <time>2018-07-23T09:06:52.990Z</time>
      </trkpt>
      <trkpt lat="42.554876" lon="-5.470568">
        <ele>826</ele>
        <time>2018-07-23T09:06:55.990Z</time>
      </trkpt>
      <trkpt lat="42.554957" lon="-5.470685">
        <ele>826</ele>
        <time>2018-07-23T09:06:59.000Z</time>
      </trkpt>
      <trkpt lat="42.555038" lon="-5.470796">
        <ele>826</ele>
        <time>2018-07-23T09:07:01.990Z</time>
      </trkpt>
      <trkpt lat="42.55512" lon="-5.470911">
        <ele>826</ele>
        <time>2018-07-23T09:07:04.990Z</time>
      </trkpt>
      <trkpt lat="42.555206" lon="-5.471024">
        <ele>826</ele>
        <time>2018-07-23T09:07:07.990Z</time>
      </trkpt>
      <trkpt lat="42.555282" lon="-5.471148">
        <ele>827</ele>
        <time>2018-07-23T09:07:10.990Z</time>
      </trkpt>
      <trkpt lat="42.555358" lon="-5.471267">
        <ele>826</ele>
        <time>2018-07-23T09:07:14.000Z</time>
      </trkpt>
      <trkpt lat="42.555428" lon="-5.47139">
        <ele>826</ele>
        <time>2018-07-23T09:07:16.990Z</time>
      </trkpt>
      <trkpt lat="42.555496" lon="-5.471513">
        <ele>827</ele>
        <time>2018-07-23T09:07:19.990Z</time>
      </trkpt>
      <trkpt lat="42.55556" lon="-5.471637">
        <ele>826</ele>
        <time>2018-07-23T09:07:22.990Z</time>
      </trkpt>
      <trkpt lat="42.55562" lon="-5.471763">
        <ele>826</ele>
        <time>2018-07-23T09:07:25.990Z</time>
      </trkpt>
      <trkpt lat="42.555688" lon="-5.471893">
        <ele>826</ele>
        <time>2018-07-23T09:07:29.000Z</time>
      </trkpt>
      <trkpt lat="42.555746" lon="-5.472034">
        <ele>826</ele>
        <time>2018-07-23T09:07:31.990Z</time>
      </trkpt>
      <trkpt lat="42.555804" lon="-5.472176">
        <ele>826</ele>
        <time>2018-07-23T09:07:34.990Z</time>
      </trkpt>
      <trkpt lat="42.55586" lon="-5.472315">
        <ele>826</ele>
        <time>2018-07-23T09:07:37.990Z</time>
      </trkpt>
      <trkpt lat="42.555922" lon="-5.472459">
        <ele>826</ele>
        <time>2018-07-23T09:07:40.990Z</time>
      </trkpt>
      <trkpt lat="42.555985" lon="-5.472595">
        <ele>827</ele>
        <time>2018-07-23T09:07:44.000Z</time>
      </trkpt>
      <trkpt lat="42.556048" lon="-5.472725">
        <ele>827</ele>
        <time>2018-07-23T09:07:46.990Z</time>
      </trkpt>
      <trkpt lat="42.556122" lon="-5.47285">
        <ele>827</ele>
        <time>2018-07-23T09:07:49.990Z</time>
      </trkpt>
      <trkpt lat="42.556196" lon="-5.472955">
        <ele>827</ele>
        <time>2018-07-23T09:07:52.990Z</time>
      </trkpt>
      <trkpt lat="42.556244" lon="-5.473072">
        <ele>827.32</ele>
        <time>2018-07-23T09:07:55.990Z</time>
      </trkpt>
      <trkpt lat="42.5563" lon="-5.473209">
        <ele>828</ele>
        <time>2018-07-23T09:07:59.000Z</time>
      </trkpt>
      <trkpt lat="42.556351" lon="-5.473346">
        <ele>828</ele>
        <time>2018-07-23T09:08:01.990Z</time>
      </trkpt>
      <trkpt lat="42.5564" lon="-5.473492">
        <ele>828</ele>
        <time>2018-07-23T09:08:04.990Z</time>
      </trkpt>
      <trkpt lat="42.55644" lon="-5.473642">
        <ele>828</ele>
        <time>2018-07-23T09:08:07.990Z</time>
      </trkpt>
      <trkpt lat="42.556479" lon="-5.473792">
        <ele>828</ele>
        <time>2018-07-23T09:08:10.990Z</time>
      </trkpt>
      <trkpt lat="42.556511" lon="-5.473947">
        <ele>828</ele>
        <time>2018-07-23T09:08:14.000Z</time>
      </trkpt>
      <trkpt lat="42.556551" lon="-5.474104">
        <ele>828</ele>
        <time>2018-07-23T09:08:16.990Z</time>
      </trkpt>
      <trkpt lat="42.556616" lon="-5.474244">
        <ele>828</ele>
        <time>2018-07-23T09:08:19.990Z</time>
      </trkpt>
      <trkpt lat="42.556679" lon="-5.474385">
        <ele>827</ele>
        <time>2018-07-23T09:08:22.990Z</time>
      </trkpt>
      <trkpt lat="42.556734" lon="-5.474522">
        <ele>827</ele>
        <time>2018-07-23T09:08:25.990Z</time>
      </trkpt>
      <trkpt lat="42.556789" lon="-5.47467">
        <ele>827</ele>
        <time>2018-07-23T09:08:29.000Z</time>
      </trkpt>
      <trkpt lat="42.556842" lon="-5.474812">
        <ele>827</ele>
        <time>2018-07-23T09:08:31.990Z</time>
      </trkpt>
      <trkpt lat="42.556897" lon="-5.474962">
        <ele>827</ele>
        <time>2018-07-23T09:08:34.990Z</time>
      </trkpt>
      <trkpt lat="42.556952" lon="-5.475115">
        <ele>827</ele>
        <time>2018-07-23T09:08:37.990Z</time>
      </trkpt>
      <trkpt lat="42.557007" lon="-5.475244">
        <ele>827</ele>
        <time>2018-07-23T09:08:40.990Z</time>
      </trkpt>
      <trkpt lat="42.557069" lon="-5.475366">
        <ele>827</ele>
        <time>2018-07-23T09:08:44.000Z</time>
      </trkpt>
      <trkpt lat="42.55714" lon="-5.475504">
        <ele>827</ele>
        <time>2018-07-23T09:08:46.990Z</time>
      </trkpt>
      <trkpt lat="42.557219" lon="-5.47563">
        <ele>827</ele>
        <time>2018-07-23T09:08:49.990Z</time>
      </trkpt>
      <trkpt lat="42.557296" lon="-5.475742">
        <ele>827</ele>
        <time>2018-07-23T09:08:52.990Z</time>
      </trkpt>
      <trkpt lat="42.557368" lon="-5.475862">
        <ele>827</ele>
        <time>2018-07-23T09:08:55.990Z</time>
      </trkpt>
      <trkpt lat="42.557442" lon="-5.475974">
        <ele>828</ele>
        <time>2018-07-23T09:08:59.000Z</time>
      </trkpt>
      <trkpt lat="42.557511" lon="-5.476076">
        <ele>828</ele>
        <time>2018-07-23T09:09:01.990Z</time>
      </trkpt>
      <trkpt lat="42.557593" lon="-5.476179">
        <ele>828</ele>
        <time>2018-07-23T09:09:04.990Z</time>
      </trkpt>
      <trkpt lat="42.557672" lon="-5.476279">
        <ele>828</ele>
        <time>2018-07-23T09:09:07.990Z</time>
      </trkpt>
      <trkpt lat="42.557745" lon="-5.476393">
        <ele>828</ele>
        <time>2018-07-23T09:09:10.990Z</time>
      </trkpt>
      <trkpt lat="42.557822" lon="-5.476508">
        <ele>829</ele>
        <time>2018-07-23T09:09:14.000Z</time>
      </trkpt>
      <trkpt lat="42.5579" lon="-5.476623">
        <ele>829</ele>
        <time>2018-07-23T09:09:16.990Z</time>
      </trkpt>
      <trkpt lat="42.55799" lon="-5.476755">
        <ele>829</ele>
        <time>2018-07-23T09:09:19.990Z</time>
      </trkpt>
      <trkpt lat="42.558077" lon="-5.476897">
        <ele>829</ele>
        <time>2018-07-23T09:09:22.990Z</time>
      </trkpt>
      <trkpt lat="42.558135" lon="-5.476997">
        <ele>829</ele>
        <time>2018-07-23T09:09:24.990Z</time>
      </trkpt>
      <trkpt lat="42.558219" lon="-5.477138">
        <ele>829</ele>
        <time>2018-07-23T09:09:27.990Z</time>
      </trkpt>
      <trkpt lat="42.558309" lon="-5.477264">
        <ele>829</ele>
        <time>2018-07-23T09:09:30.990Z</time>
      </trkpt>
      <trkpt lat="42.558372" lon="-5.477354">
        <ele>829</ele>
        <time>2018-07-23T09:09:32.990Z</time>
      </trkpt>
      <trkpt lat="42.55845" lon="-5.477495">
        <ele>829</ele>
        <time>2018-07-23T09:09:35.990Z</time>
      </trkpt>
      <trkpt lat="42.55853" lon="-5.477631">
        <ele>829</ele>
        <time>2018-07-23T09:09:39.000Z</time>
      </trkpt>
      <trkpt lat="42.558599" lon="-5.477768">
        <ele>830</ele>
        <time>2018-07-23T09:09:41.990Z</time>
      </trkpt>
      <trkpt lat="42.558668" lon="-5.477911">
        <ele>830</ele>
        <time>2018-07-23T09:09:44.990Z</time>
      </trkpt>
      <trkpt lat="42.558737" lon="-5.478057">
        <ele>830</ele>
        <time>2018-07-23T09:09:47.990Z</time>
      </trkpt>
      <trkpt lat="42.558811" lon="-5.478209">
        <ele>830</ele>
        <time>2018-07-23T09:09:50.990Z</time>
      </trkpt>
      <trkpt lat="42.558875" lon="-5.478366">
        <ele>830</ele>
        <time>2018-07-23T09:09:54.000Z</time>
      </trkpt>
      <trkpt lat="42.558948" lon="-5.478506">
        <ele>830</ele>
        <time>2018-07-23T09:09:56.990Z</time>
      </trkpt>
      <trkpt lat="42.559018" lon="-5.478641">
        <ele>831</ele>
        <time>2018-07-23T09:09:59.990Z</time>
      </trkpt>
      <trkpt lat="42.559085" lon="-5.478781">
        <ele>831</ele>
        <time>2018-07-23T09:10:02.990Z</time>
      </trkpt>
      <trkpt lat="42.559155" lon="-5.478927">
        <ele>831</ele>
        <time>2018-07-23T09:10:05.990Z</time>
      </trkpt>
      <trkpt lat="42.559223" lon="-5.47907">
        <ele>831</ele>
        <time>2018-07-23T09:10:09.000Z</time>
      </trkpt>
      <trkpt lat="42.559295" lon="-5.479205">
        <ele>831</ele>
        <time>2018-07-23T09:10:11.990Z</time>
      </trkpt>
      <trkpt lat="42.55937" lon="-5.479336">
        <ele>832</ele>
        <time>2018-07-23T09:10:14.990Z</time>
      </trkpt>
      <trkpt lat="42.559444" lon="-5.479455">
        <ele>832</ele>
        <time>2018-07-23T09:10:17.990Z</time>
      </trkpt>
      <trkpt lat="42.559532" lon="-5.47956">
        <ele>833</ele>
        <time>2018-07-23T09:10:20.990Z</time>
      </trkpt>
      <trkpt lat="42.559623" lon="-5.47966">
        <ele>833</ele>
        <time>2018-07-23T09:10:24.000Z</time>
      </trkpt>
      <trkpt lat="42.559722" lon="-5.479747">
        <ele>834</ele>
        <time>2018-07-23T09:10:26.990Z</time>
      </trkpt>
      <trkpt lat="42.55981" lon="-5.47983">
        <ele>833.68</ele>
        <time>2018-07-23T09:10:29.990Z</time>
      </trkpt>
      <trkpt lat="42.559905" lon="-5.479924">
        <ele>833</ele>
        <time>2018-07-23T09:10:32.990Z</time>
      </trkpt>
      <trkpt lat="42.559998" lon="-5.480018">
        <ele>834</ele>
        <time>2018-07-23T09:10:35.990Z</time>
      </trkpt>
      <trkpt lat="42.560097" lon="-5.480114">
        <ele>834</ele>
        <time>2018-07-23T09:10:39.000Z</time>
      </trkpt>
      <trkpt lat="42.560198" lon="-5.480204">
        <ele>834</ele>
        <time>2018-07-23T09:10:41.990Z</time>
      </trkpt>
      <trkpt lat="42.560299" lon="-5.4803">
        <ele>834</ele>
        <time>2018-07-23T09:10:44.990Z</time>
      </trkpt>
      <trkpt lat="42.560387" lon="-5.480393">
        <ele>835</ele>
        <time>2018-07-23T09:10:47.990Z</time>
      </trkpt>
      <trkpt lat="42.560479" lon="-5.480485">
        <ele>835</ele>
        <time>2018-07-23T09:10:50.990Z</time>
      </trkpt>
      <trkpt lat="42.560575" lon="-5.480581">
        <ele>835</ele>
        <time>2018-07-23T09:10:54.000Z</time>
      </trkpt>
      <trkpt lat="42.560666" lon="-5.480683">
        <ele>835</ele>
        <time>2018-07-23T09:10:56.990Z</time>
      </trkpt>
      <trkpt lat="42.560764" lon="-5.480791">
        <ele>835</ele>
        <time>2018-07-23T09:10:59.990Z</time>
      </trkpt>
      <trkpt lat="42.560852" lon="-5.480909">
        <ele>835</ele>
        <time>2018-07-23T09:11:02.990Z</time>
      </trkpt>
      <trkpt lat="42.560927" lon="-5.481036">
        <ele>835</ele>
        <time>2018-07-23T09:11:05.990Z</time>
      </trkpt>
      <trkpt lat="42.561023" lon="-5.481155">
        <ele>835</ele>
        <time>2018-07-23T09:11:09.000Z</time>
      </trkpt>
      <trkpt lat="42.561088" lon="-5.481242">
        <ele>835</ele>
        <time>2018-07-23T09:11:10.990Z</time>
      </trkpt>
      <trkpt lat="42.561179" lon="-5.481375">
        <ele>835</ele>
        <time>2018-07-23T09:11:14.000Z</time>
      </trkpt>
      <trkpt lat="42.56127" lon="-5.481496">
        <ele>835</ele>
        <time>2018-07-23T09:11:16.990Z</time>
      </trkpt>
      <trkpt lat="42.561337" lon="-5.481595">
        <ele>834.6700032</ele>
        <time>2018-07-23T09:11:19.000Z</time>
      </trkpt>
      <trkpt lat="42.561404" lon="-5.481698">
        <ele>834</ele>
        <time>2018-07-23T09:11:20.990Z</time>
      </trkpt>
      <trkpt lat="42.561479" lon="-5.481801">
        <ele>834</ele>
        <time>2018-07-23T09:11:22.990Z</time>
      </trkpt>
      <trkpt lat="42.56155" lon="-5.481898">
        <ele>833.68</ele>
        <time>2018-07-23T09:11:24.990Z</time>
      </trkpt>
      <trkpt lat="42.561625" lon="-5.481992">
        <ele>833</ele>
        <time>2018-07-23T09:11:26.990Z</time>
      </trkpt>
      <trkpt lat="42.561692" lon="-5.482082">
        <ele>833</ele>
        <time>2018-07-23T09:11:29.000Z</time>
      </trkpt>
      <trkpt lat="42.561755" lon="-5.482182">
        <ele>833</ele>
        <time>2018-07-23T09:11:30.990Z</time>
      </trkpt>
      <trkpt lat="42.561856" lon="-5.482308">
        <ele>833</ele>
        <time>2018-07-23T09:11:34.000Z</time>
      </trkpt>
      <trkpt lat="42.561935" lon="-5.482391">
        <ele>833</ele>
        <time>2018-07-23T09:11:35.990Z</time>
      </trkpt>
      <trkpt lat="42.562006" lon="-5.482475">
        <ele>833</ele>
        <time>2018-07-23T09:11:37.990Z</time>
      </trkpt>
      <trkpt lat="42.56207" lon="-5.482572">
        <ele>833</ele>
        <time>2018-07-23T09:11:39.990Z</time>
      </trkpt>
      <trkpt lat="42.562141" lon="-5.482672">
        <ele>833</ele>
        <time>2018-07-23T09:11:41.990Z</time>
      </trkpt>
      <trkpt lat="42.562222" lon="-5.482774">
        <ele>833</ele>
        <time>2018-07-23T09:11:44.000Z</time>
      </trkpt>
      <trkpt lat="42.5623" lon="-5.482865">
        <ele>833</ele>
        <time>2018-07-23T09:11:45.990Z</time>
      </trkpt>
      <trkpt lat="42.562379" lon="-5.482952">
        <ele>833</ele>
        <time>2018-07-23T09:11:47.990Z</time>
      </trkpt>
      <trkpt lat="42.562443" lon="-5.483041">
        <ele>833</ele>
        <time>2018-07-23T09:11:49.990Z</time>
      </trkpt>
      <trkpt lat="42.562524" lon="-5.483123">
        <ele>834</ele>
        <time>2018-07-23T09:11:52.990Z</time>
      </trkpt>
      <trkpt lat="42.562595" lon="-5.483223">
        <ele>834</ele>
        <time>2018-07-23T09:11:55.990Z</time>
      </trkpt>
      <trkpt lat="42.562662" lon="-5.483328">
        <ele>834</ele>
        <time>2018-07-23T09:11:59.000Z</time>
      </trkpt>
      <trkpt lat="42.562709" lon="-5.483465">
        <ele>834</ele>
        <time>2018-07-23T09:12:01.990Z</time>
      </trkpt>
      <trkpt lat="42.562757" lon="-5.483603">
        <ele>834.32</ele>
        <time>2018-07-23T09:12:04.990Z</time>
      </trkpt>
      <trkpt lat="42.562789" lon="-5.483719">
        <ele>835</ele>
        <time>2018-07-23T09:12:07.990Z</time>
      </trkpt>
      <trkpt lat="42.56283" lon="-5.483829">
        <ele>835</ele>
        <time>2018-07-23T09:12:10.990Z</time>
      </trkpt>
      <trkpt lat="42.562871" lon="-5.483951">
        <ele>835</ele>
        <time>2018-07-23T09:12:13.990Z</time>
      </trkpt>
      <trkpt lat="42.562915" lon="-5.484081">
        <ele>835</ele>
        <time>2018-07-23T09:12:16.990Z</time>
      </trkpt>
      <trkpt lat="42.562963" lon="-5.48422">
        <ele>835.32</ele>
        <time>2018-07-23T09:12:19.990Z</time>
      </trkpt>
      <trkpt lat="42.563009" lon="-5.484371">
        <ele>836</ele>
        <time>2018-07-23T09:12:22.990Z</time>
      </trkpt>
      <trkpt lat="42.563058" lon="-5.484519">
        <ele>836</ele>
        <time>2018-07-23T09:12:25.990Z</time>
      </trkpt>
      <trkpt lat="42.563111" lon="-5.484648">
        <ele>836</ele>
        <time>2018-07-23T09:12:29.000Z</time>
      </trkpt>
      <trkpt lat="42.563148" lon="-5.484767">
        <ele>836.246155057994</ele>
        <time>2018-07-23T09:12:31.990Z</time>
      </trkpt>
      <trkpt lat="42.563201" lon="-5.484894">
        <ele>837</ele>
        <time>2018-07-23T09:12:34.990Z</time>
      </trkpt>
      <trkpt lat="42.563253" lon="-5.485027">
        <ele>837</ele>
        <time>2018-07-23T09:12:37.990Z</time>
      </trkpt>
      <trkpt lat="42.563307" lon="-5.485157">
        <ele>837</ele>
        <time>2018-07-23T09:12:40.990Z</time>
      </trkpt>
      <trkpt lat="42.563354" lon="-5.485283">
        <ele>837</ele>
        <time>2018-07-23T09:12:44.000Z</time>
      </trkpt>
      <trkpt lat="42.563414" lon="-5.485422">
        <ele>837</ele>
        <time>2018-07-23T09:12:46.990Z</time>
      </trkpt>
      <trkpt lat="42.563497" lon="-5.485553">
        <ele>837</ele>
        <time>2018-07-23T09:12:49.990Z</time>
      </trkpt>
      <trkpt lat="42.563588" lon="-5.485639">
        <ele>837</ele>
        <time>2018-07-23T09:12:52.990Z</time>
      </trkpt>
      <trkpt lat="42.563669" lon="-5.485706">
        <ele>837</ele>
        <time>2018-07-23T09:12:55.990Z</time>
      </trkpt>
      <trkpt lat="42.564271" lon="-5.486146">
        <ele>837</ele>
        <time>2018-07-23T09:13:13.000Z</time>
      </trkpt>
      <trkpt lat="42.564373" lon="-5.48623">
        <ele>837</ele>
        <time>2018-07-23T09:13:17.000Z</time>
      </trkpt>
      <trkpt lat="42.564444" lon="-5.486381">
        <ele>837</ele>
        <time>2018-07-23T09:13:20.000Z</time>
      </trkpt>
      <trkpt lat="42.564479" lon="-5.486546">
        <ele>836.6700032</ele>
        <time>2018-07-23T09:13:23.000Z</time>
      </trkpt>
      <trkpt lat="42.564474" lon="-5.4867">
        <ele>836</ele>
        <time>2018-07-23T09:13:26.000Z</time>
      </trkpt>
      <trkpt lat="42.564466" lon="-5.486848">
        <ele>836</ele>
        <time>2018-07-23T09:13:29.000Z</time>
      </trkpt>
      <trkpt lat="42.564458" lon="-5.48701">
        <ele>837</ele>
        <time>2018-07-23T09:13:32.000Z</time>
      </trkpt>
      <trkpt lat="42.564451" lon="-5.487155">
        <ele>837</ele>
        <time>2018-07-23T09:13:35.000Z</time>
      </trkpt>
      <trkpt lat="42.564444" lon="-5.487301">
        <ele>837</ele>
        <time>2018-07-23T09:13:38.000Z</time>
      </trkpt>
      <trkpt lat="42.564437" lon="-5.48746">
        <ele>837</ele>
        <time>2018-07-23T09:13:41.000Z</time>
      </trkpt>
      <trkpt lat="42.564429" lon="-5.487619">
        <ele>837</ele>
        <time>2018-07-23T09:13:44.000Z</time>
      </trkpt>
      <trkpt lat="42.564425" lon="-5.487776">
        <ele>837</ele>
        <time>2018-07-23T09:13:47.000Z</time>
      </trkpt>
      <trkpt lat="42.564418" lon="-5.487937">
        <ele>837</ele>
        <time>2018-07-23T09:13:50.000Z</time>
      </trkpt>
      <trkpt lat="42.564419" lon="-5.488103">
        <ele>837.3299968</ele>
        <time>2018-07-23T09:13:53.000Z</time>
      </trkpt>
      <trkpt lat="42.564431" lon="-5.488258">
        <ele>838</ele>
        <time>2018-07-23T09:13:56.000Z</time>
      </trkpt>
      <trkpt lat="42.564472" lon="-5.4884">
        <ele>838</ele>
        <time>2018-07-23T09:13:59.000Z</time>
      </trkpt>
      <trkpt lat="42.564524" lon="-5.488538">
        <ele>837.3299968</ele>
        <time>2018-07-23T09:14:02.000Z</time>
      </trkpt>
      <trkpt lat="42.564575" lon="-5.488674">
        <ele>838</ele>
        <time>2018-07-23T09:14:05.000Z</time>
      </trkpt>
      <trkpt lat="42.564626" lon="-5.488808">
        <ele>838</ele>
        <time>2018-07-23T09:14:08.000Z</time>
      </trkpt>
      <trkpt lat="42.564676" lon="-5.48894">
        <ele>838</ele>
        <time>2018-07-23T09:14:11.000Z</time>
      </trkpt>
      <trkpt lat="42.564726" lon="-5.489078">
        <ele>839</ele>
        <time>2018-07-23T09:14:14.000Z</time>
      </trkpt>
      <trkpt lat="42.56477" lon="-5.489221">
        <ele>839</ele>
        <time>2018-07-23T09:14:16.990Z</time>
      </trkpt>
      <trkpt lat="42.564821" lon="-5.489361">
        <ele>839</ele>
        <time>2018-07-23T09:14:19.990Z</time>
      </trkpt>
      <trkpt lat="42.564872" lon="-5.489502">
        <ele>839</ele>
        <time>2018-07-23T09:14:22.990Z</time>
      </trkpt>
      <trkpt lat="42.564924" lon="-5.489638">
        <ele>839.253844942006</ele>
        <time>2018-07-23T09:14:26.000Z</time>
      </trkpt>
      <trkpt lat="42.564979" lon="-5.489784">
        <ele>840</ele>
        <time>2018-07-23T09:14:28.990Z</time>
      </trkpt>
      <trkpt lat="42.565033" lon="-5.489932">
        <ele>840</ele>
        <time>2018-07-23T09:14:31.990Z</time>
      </trkpt>
      <trkpt lat="42.565081" lon="-5.490076">
        <ele>840</ele>
        <time>2018-07-23T09:14:34.990Z</time>
      </trkpt>
      <trkpt lat="42.565133" lon="-5.490222">
        <ele>840</ele>
        <time>2018-07-23T09:14:37.990Z</time>
      </trkpt>
      <trkpt lat="42.565182" lon="-5.49037">
        <ele>840</ele>
        <time>2018-07-23T09:14:41.000Z</time>
      </trkpt>
      <trkpt lat="42.56524" lon="-5.49051">
        <ele>841</ele>
        <time>2018-07-23T09:14:43.990Z</time>
      </trkpt>
      <trkpt lat="42.565284" lon="-5.49065">
        <ele>841</ele>
        <time>2018-07-23T09:14:46.990Z</time>
      </trkpt>
      <trkpt lat="42.565331" lon="-5.490791">
        <ele>841</ele>
        <time>2018-07-23T09:14:49.990Z</time>
      </trkpt>
      <trkpt lat="42.565378" lon="-5.490932">
        <ele>842</ele>
        <time>2018-07-23T09:14:52.990Z</time>
      </trkpt>
      <trkpt lat="42.565419" lon="-5.491082">
        <ele>842</ele>
        <time>2018-07-23T09:14:56.000Z</time>
      </trkpt>
      <trkpt lat="42.565464" lon="-5.491232">
        <ele>842</ele>
        <time>2018-07-23T09:14:58.990Z</time>
      </trkpt>
      <trkpt lat="42.565509" lon="-5.491382">
        <ele>842</ele>
        <time>2018-07-23T09:15:01.990Z</time>
      </trkpt>
      <trkpt lat="42.565553" lon="-5.491534">
        <ele>842</ele>
        <time>2018-07-23T09:15:04.990Z</time>
      </trkpt>
      <trkpt lat="42.565604" lon="-5.491684">
        <ele>842</ele>
        <time>2018-07-23T09:15:07.990Z</time>
      </trkpt>
      <trkpt lat="42.565649" lon="-5.491796">
        <ele>842</ele>
        <time>2018-07-23T09:15:09.990Z</time>
      </trkpt>
      <trkpt lat="42.565703" lon="-5.491964">
        <ele>842</ele>
        <time>2018-07-23T09:15:12.990Z</time>
      </trkpt>
      <trkpt lat="42.565754" lon="-5.492116">
        <ele>842</ele>
        <time>2018-07-23T09:15:16.000Z</time>
      </trkpt>
      <trkpt lat="42.565795" lon="-5.492277">
        <ele>842</ele>
        <time>2018-07-23T09:15:18.990Z</time>
      </trkpt>
      <trkpt lat="42.56584" lon="-5.492441">
        <ele>841.6700032</ele>
        <time>2018-07-23T09:15:22.000Z</time>
      </trkpt>
      <trkpt lat="42.565855" lon="-5.492608">
        <ele>841</ele>
        <time>2018-07-23T09:15:25.000Z</time>
      </trkpt>
      <trkpt lat="42.565914" lon="-5.492761">
        <ele>841</ele>
        <time>2018-07-23T09:15:27.990Z</time>
      </trkpt>
      <trkpt lat="42.565965" lon="-5.492866">
        <ele>842</ele>
        <time>2018-07-23T09:15:29.990Z</time>
      </trkpt>
      <trkpt lat="42.566016" lon="-5.492969">
        <ele>842</ele>
        <time>2018-07-23T09:15:31.990Z</time>
      </trkpt>
      <trkpt lat="42.566089" lon="-5.493107">
        <ele>842</ele>
        <time>2018-07-23T09:15:34.990Z</time>
      </trkpt>
      <trkpt lat="42.566165" lon="-5.493247">
        <ele>843</ele>
        <time>2018-07-23T09:15:37.990Z</time>
      </trkpt>
      <trkpt lat="42.56623" lon="-5.493401">
        <ele>843</ele>
        <time>2018-07-23T09:15:41.000Z</time>
      </trkpt>
      <trkpt lat="42.566278" lon="-5.493546">
        <ele>843.32</ele>
        <time>2018-07-23T09:15:43.990Z</time>
      </trkpt>
      <trkpt lat="42.566343" lon="-5.493668">
        <ele>844</ele>
        <time>2018-07-23T09:15:46.990Z</time>
      </trkpt>
      <trkpt lat="42.566428" lon="-5.49377">
        <ele>845.3299968</ele>
        <time>2018-07-23T09:15:51.000Z</time>
      </trkpt>
      <trkpt lat="42.566495" lon="-5.493854">
        <ele>847.32</ele>
        <time>2018-07-23T09:15:53.990Z</time>
      </trkpt>
      <trkpt lat="42.566539" lon="-5.493983">
        <ele>848</ele>
        <time>2018-07-23T09:15:57.990Z</time>
      </trkpt>
      <trkpt lat="42.566582" lon="-5.494106">
        <ele>849</ele>
        <time>2018-07-23T09:16:01.990Z</time>
      </trkpt>
      <trkpt lat="42.566623" lon="-5.494231">
        <ele>850</ele>
        <time>2018-07-23T09:16:06.990Z</time>
      </trkpt>
      <trkpt lat="42.566658" lon="-5.494361">
        <ele>851</ele>
        <time>2018-07-23T09:16:13.990Z</time>
      </trkpt>
      <trkpt lat="42.566699" lon="-5.494486">
        <ele>851.246155057994</ele>
        <time>2018-07-23T09:16:19.990Z</time>
      </trkpt>
      <trkpt lat="42.566732" lon="-5.494608">
        <ele>852</ele>
        <time>2018-07-23T09:16:24.990Z</time>
      </trkpt>
      <trkpt lat="42.566781" lon="-5.49473">
        <ele>854</ele>
        <time>2018-07-23T09:16:31.000Z</time>
      </trkpt>
      <trkpt lat="42.566826" lon="-5.494859">
        <ele>854.028580310123</ele>
        <time>2018-07-23T09:16:36.990Z</time>
      </trkpt>
      <trkpt lat="42.566853" lon="-5.494977">
        <ele>855.32</ele>
        <time>2018-07-23T09:16:42.990Z</time>
      </trkpt>
      <trkpt lat="42.566891" lon="-5.495096">
        <ele>858</ele>
        <time>2018-07-23T09:16:47.990Z</time>
      </trkpt>
      <trkpt lat="42.566939" lon="-5.495206">
        <ele>858</ele>
        <time>2018-07-23T09:16:52.990Z</time>
      </trkpt>
      <trkpt lat="42.566991" lon="-5.495335">
        <ele>858</ele>
        <time>2018-07-23T09:16:57.990Z</time>
      </trkpt>
      <trkpt lat="42.567042" lon="-5.495453">
        <ele>859</ele>
        <time>2018-07-23T09:17:01.990Z</time>
      </trkpt>
      <trkpt lat="42.567082" lon="-5.495567">
        <ele>860</ele>
        <time>2018-07-23T09:17:06.990Z</time>
      </trkpt>
      <trkpt lat="42.56711" lon="-5.495684">
        <ele>860</ele>
        <time>2018-07-23T09:17:11.990Z</time>
      </trkpt>
      <trkpt lat="42.567176" lon="-5.49578">
        <ele>860</ele>
        <time>2018-07-23T09:17:16.990Z</time>
      </trkpt>
      <trkpt lat="42.567247" lon="-5.495869">
        <ele>860</ele>
        <time>2018-07-23T09:17:21.000Z</time>
      </trkpt>
      <trkpt lat="42.567327" lon="-5.495971">
        <ele>860</ele>
        <time>2018-07-23T09:17:26.000Z</time>
      </trkpt>
      <trkpt lat="42.567395" lon="-5.496069">
        <ele>860</ele>
        <time>2018-07-23T09:17:32.990Z</time>
      </trkpt>
      <trkpt lat="42.567407" lon="-5.496192">
        <ele>860</ele>
        <time>2018-07-23T09:17:37.990Z</time>
      </trkpt>
      <trkpt lat="42.567315" lon="-5.496182">
        <ele>860</ele>
        <time>2018-07-23T09:17:41.990Z</time>
      </trkpt>
      <trkpt lat="42.567221" lon="-5.496121">
        <ele>860</ele>
        <time>2018-07-23T09:17:46.000Z</time>
      </trkpt>
      <trkpt lat="42.567159" lon="-5.496">
        <ele>860</ele>
        <time>2018-07-23T09:17:50.990Z</time>
      </trkpt>
      <trkpt lat="42.567091" lon="-5.495893">
        <ele>860</ele>
        <time>2018-07-23T09:17:56.000Z</time>
      </trkpt>
      <trkpt lat="42.567076" lon="-5.495763">
        <ele>860</ele>
        <time>2018-07-23T09:17:59.990Z</time>
      </trkpt>
      <trkpt lat="42.566985" lon="-5.495733">
        <ele>860</ele>
        <time>2018-07-23T09:19:54.990Z</time>
      </trkpt>
      <trkpt lat="42.566917" lon="-5.495814">
        <ele>860</ele>
        <time>2018-07-23T09:26:38.990Z</time>
      </trkpt>
      <trkpt lat="42.566987" lon="-5.495732">
        <ele>860</ele>
        <time>2018-07-23T09:27:42.000Z</time>
      </trkpt>
      <trkpt lat="42.567026" lon="-5.495853">
        <ele>860</ele>
        <time>2018-07-23T09:29:50.990Z</time>
      </trkpt>
      <trkpt lat="42.56709" lon="-5.495941">
        <ele>860</ele>
        <time>2018-07-23T09:29:57.990Z</time>
      </trkpt>
      <trkpt lat="42.567148" lon="-5.496068">
        <ele>860</ele>
        <time>2018-07-23T09:30:04.000Z</time>
      </trkpt>
      <trkpt lat="42.567223" lon="-5.496146">
        <ele>860</ele>
        <time>2018-07-23T09:30:07.990Z</time>
      </trkpt>
      <trkpt lat="42.567301" lon="-5.496248">
        <ele>860</ele>
        <time>2018-07-23T09:30:11.990Z</time>
      </trkpt>
      <trkpt lat="42.567396" lon="-5.496333">
        <ele>860</ele>
        <time>2018-07-23T09:30:16.990Z</time>
      </trkpt>
      <trkpt lat="42.567443" lon="-5.496463">
        <ele>860</ele>
        <time>2018-07-23T09:30:20.990Z</time>
      </trkpt>
      <trkpt lat="42.567495" lon="-5.496611">
        <ele>860</ele>
        <time>2018-07-23T09:30:24.990Z</time>
      </trkpt>
      <trkpt lat="42.567543" lon="-5.496719">
        <ele>860</ele>
        <time>2018-07-23T09:30:27.990Z</time>
      </trkpt>
      <trkpt lat="42.567571" lon="-5.49684">
        <ele>860</ele>
        <time>2018-07-23T09:30:30.990Z</time>
      </trkpt>
      <trkpt lat="42.567608" lon="-5.496964">
        <ele>860</ele>
        <time>2018-07-23T09:30:34.000Z</time>
      </trkpt>
      <trkpt lat="42.567645" lon="-5.497079">
        <ele>861</ele>
        <time>2018-07-23T09:30:36.990Z</time>
      </trkpt>
      <trkpt lat="42.567678" lon="-5.497231">
        <ele>860.683167313005</ele>
        <time>2018-07-23T09:30:40.990Z</time>
      </trkpt>
      <trkpt lat="42.567694" lon="-5.497387">
        <ele>860.316832686995</ele>
        <time>2018-07-23T09:30:44.990Z</time>
      </trkpt>
      <trkpt lat="42.567692" lon="-5.497535">
        <ele>861</ele>
        <time>2018-07-23T09:30:47.990Z</time>
      </trkpt>
      <trkpt lat="42.567692" lon="-5.497683">
        <ele>861</ele>
        <time>2018-07-23T09:30:50.990Z</time>
      </trkpt>
      <trkpt lat="42.567694" lon="-5.497844">
        <ele>860</ele>
        <time>2018-07-23T09:30:54.000Z</time>
      </trkpt>
      <trkpt lat="42.567699" lon="-5.498005">
        <ele>860</ele>
        <time>2018-07-23T09:30:56.990Z</time>
      </trkpt>
      <trkpt lat="42.567711" lon="-5.498165">
        <ele>860</ele>
        <time>2018-07-23T09:30:59.990Z</time>
      </trkpt>
      <trkpt lat="42.567724" lon="-5.498336">
        <ele>860</ele>
        <time>2018-07-23T09:31:02.990Z</time>
      </trkpt>
      <trkpt lat="42.567736" lon="-5.498504">
        <ele>860</ele>
        <time>2018-07-23T09:31:05.990Z</time>
      </trkpt>
      <trkpt lat="42.567759" lon="-5.498674">
        <ele>860</ele>
        <time>2018-07-23T09:31:09.000Z</time>
      </trkpt>
      <trkpt lat="42.567785" lon="-5.498854">
        <ele>859</ele>
        <time>2018-07-23T09:31:11.990Z</time>
      </trkpt>
      <trkpt lat="42.567797" lon="-5.49899">
        <ele>859</ele>
        <time>2018-07-23T09:31:14.000Z</time>
      </trkpt>
      <trkpt lat="42.567814" lon="-5.499141">
        <ele>859</ele>
        <time>2018-07-23T09:31:15.990Z</time>
      </trkpt>
      <trkpt lat="42.567833" lon="-5.499308">
        <ele>858</ele>
        <time>2018-07-23T09:31:17.990Z</time>
      </trkpt>
      <trkpt lat="42.567854" lon="-5.499477">
        <ele>857.014920668278</ele>
        <time>2018-07-23T09:31:19.990Z</time>
      </trkpt>
      <trkpt lat="42.567878" lon="-5.49965">
        <ele>856.68</ele>
        <time>2018-07-23T09:31:21.990Z</time>
      </trkpt>
      <trkpt lat="42.567904" lon="-5.499826">
        <ele>856</ele>
        <time>2018-07-23T09:31:24.000Z</time>
      </trkpt>
      <trkpt lat="42.567922" lon="-5.500008">
        <ele>855</ele>
        <time>2018-07-23T09:31:25.990Z</time>
      </trkpt>
      <trkpt lat="42.567947" lon="-5.500188">
        <ele>854</ele>
        <time>2018-07-23T09:31:27.990Z</time>
      </trkpt>
      <trkpt lat="42.567969" lon="-5.50035">
        <ele>853</ele>
        <time>2018-07-23T09:31:29.990Z</time>
      </trkpt>
      <trkpt lat="42.567984" lon="-5.500514">
        <ele>853</ele>
        <time>2018-07-23T09:31:31.990Z</time>
      </trkpt>
      <trkpt lat="42.568001" lon="-5.500676">
        <ele>853</ele>
        <time>2018-07-23T09:31:34.000Z</time>
      </trkpt>
      <trkpt lat="42.56802" lon="-5.500832">
        <ele>854</ele>
        <time>2018-07-23T09:31:35.990Z</time>
      </trkpt>
      <trkpt lat="42.568043" lon="-5.500992">
        <ele>854</ele>
        <time>2018-07-23T09:31:37.990Z</time>
      </trkpt>
      <trkpt lat="42.56807" lon="-5.501128">
        <ele>854</ele>
        <time>2018-07-23T09:31:39.990Z</time>
      </trkpt>
      <trkpt lat="42.568087" lon="-5.501256">
        <ele>853</ele>
        <time>2018-07-23T09:31:41.990Z</time>
      </trkpt>
      <trkpt lat="42.568107" lon="-5.501376">
        <ele>853.3299968</ele>
        <time>2018-07-23T09:31:44.000Z</time>
      </trkpt>
      <trkpt lat="42.568123" lon="-5.5015">
        <ele>854</ele>
        <time>2018-07-23T09:31:45.990Z</time>
      </trkpt>
      <trkpt lat="42.568149" lon="-5.50164">
        <ele>853.68</ele>
        <time>2018-07-23T09:31:47.990Z</time>
      </trkpt>
      <trkpt lat="42.568174" lon="-5.501788">
        <ele>853</ele>
        <time>2018-07-23T09:31:49.990Z</time>
      </trkpt>
      <trkpt lat="42.568192" lon="-5.501918">
        <ele>853</ele>
        <time>2018-07-23T09:31:51.990Z</time>
      </trkpt>
      <trkpt lat="42.568209" lon="-5.502048">
        <ele>853</ele>
        <time>2018-07-23T09:31:54.000Z</time>
      </trkpt>
      <trkpt lat="42.568225" lon="-5.502191">
        <ele>853</ele>
        <time>2018-07-23T09:31:55.990Z</time>
      </trkpt>
      <trkpt lat="42.568245" lon="-5.502328">
        <ele>853</ele>
        <time>2018-07-23T09:31:57.990Z</time>
      </trkpt>
      <trkpt lat="42.568271" lon="-5.50246">
        <ele>854</ele>
        <time>2018-07-23T09:31:59.990Z</time>
      </trkpt>
      <trkpt lat="42.568301" lon="-5.502581">
        <ele>854</ele>
        <time>2018-07-23T09:32:01.990Z</time>
      </trkpt>
      <trkpt lat="42.568336" lon="-5.502761">
        <ele>854</ele>
        <time>2018-07-23T09:32:04.990Z</time>
      </trkpt>
      <trkpt lat="42.568355" lon="-5.502893">
        <ele>854</ele>
        <time>2018-07-23T09:32:06.990Z</time>
      </trkpt>
      <trkpt lat="42.568378" lon="-5.503021">
        <ele>854</ele>
        <time>2018-07-23T09:32:09.000Z</time>
      </trkpt>
      <trkpt lat="42.5684" lon="-5.503147">
        <ele>854</ele>
        <time>2018-07-23T09:32:10.990Z</time>
      </trkpt>
      <trkpt lat="42.568429" lon="-5.503284">
        <ele>854</ele>
        <time>2018-07-23T09:32:12.990Z</time>
      </trkpt>
      <trkpt lat="42.568458" lon="-5.503413">
        <ele>854</ele>
        <time>2018-07-23T09:32:14.990Z</time>
      </trkpt>
      <trkpt lat="42.568484" lon="-5.503546">
        <ele>854.028580310123</ele>
        <time>2018-07-23T09:32:16.990Z</time>
      </trkpt>
      <trkpt lat="42.568522" lon="-5.503665">
        <ele>855</ele>
        <time>2018-07-23T09:32:19.000Z</time>
      </trkpt>
      <trkpt lat="42.568555" lon="-5.503787">
        <ele>855</ele>
        <time>2018-07-23T09:32:20.990Z</time>
      </trkpt>
      <trkpt lat="42.568587" lon="-5.503921">
        <ele>855</ele>
        <time>2018-07-23T09:32:22.990Z</time>
      </trkpt>
      <trkpt lat="42.568623" lon="-5.504045">
        <ele>855</ele>
        <time>2018-07-23T09:32:24.990Z</time>
      </trkpt>
      <trkpt lat="42.568651" lon="-5.504162">
        <ele>855</ele>
        <time>2018-07-23T09:32:26.990Z</time>
      </trkpt>
      <trkpt lat="42.568683" lon="-5.504282">
        <ele>854.751937369147</ele>
        <time>2018-07-23T09:32:29.000Z</time>
      </trkpt>
      <trkpt lat="42.568712" lon="-5.504401">
        <ele>854</ele>
        <time>2018-07-23T09:32:30.990Z</time>
      </trkpt>
      <trkpt lat="42.568749" lon="-5.504516">
        <ele>854</ele>
        <time>2018-07-23T09:32:32.990Z</time>
      </trkpt>
      <trkpt lat="42.568789" lon="-5.504642">
        <ele>854</ele>
        <time>2018-07-23T09:32:34.990Z</time>
      </trkpt>
      <trkpt lat="42.568818" lon="-5.504767">
        <ele>854</ele>
        <time>2018-07-23T09:32:36.990Z</time>
      </trkpt>
      <trkpt lat="42.568862" lon="-5.504888">
        <ele>854</ele>
        <time>2018-07-23T09:32:39.000Z</time>
      </trkpt>
      <trkpt lat="42.568903" lon="-5.50501">
        <ele>854</ele>
        <time>2018-07-23T09:32:40.990Z</time>
      </trkpt>
      <trkpt lat="42.568944" lon="-5.50512">
        <ele>854</ele>
        <time>2018-07-23T09:32:42.990Z</time>
      </trkpt>
      <trkpt lat="42.569013" lon="-5.505283">
        <ele>854</ele>
        <time>2018-07-23T09:32:45.990Z</time>
      </trkpt>
      <trkpt lat="42.569048" lon="-5.5054">
        <ele>854</ele>
        <time>2018-07-23T09:32:47.990Z</time>
      </trkpt>
      <trkpt lat="42.569086" lon="-5.505518">
        <ele>854</ele>
        <time>2018-07-23T09:32:49.990Z</time>
      </trkpt>
      <trkpt lat="42.569128" lon="-5.505635">
        <ele>854</ele>
        <time>2018-07-23T09:32:51.990Z</time>
      </trkpt>
      <trkpt lat="42.569173" lon="-5.505748">
        <ele>855</ele>
        <time>2018-07-23T09:32:54.000Z</time>
      </trkpt>
      <trkpt lat="42.569221" lon="-5.50587">
        <ele>855</ele>
        <time>2018-07-23T09:32:55.990Z</time>
      </trkpt>
      <trkpt lat="42.569275" lon="-5.505989">
        <ele>855</ele>
        <time>2018-07-23T09:32:57.990Z</time>
      </trkpt>
      <trkpt lat="42.569317" lon="-5.506105">
        <ele>855</ele>
        <time>2018-07-23T09:32:59.990Z</time>
      </trkpt>
      <trkpt lat="42.569364" lon="-5.506231">
        <ele>855</ele>
        <time>2018-07-23T09:33:01.990Z</time>
      </trkpt>
      <trkpt lat="42.569404" lon="-5.506353">
        <ele>855</ele>
        <time>2018-07-23T09:33:04.000Z</time>
      </trkpt>
      <trkpt lat="42.569444" lon="-5.506468">
        <ele>855</ele>
        <time>2018-07-23T09:33:05.990Z</time>
      </trkpt>
      <trkpt lat="42.569472" lon="-5.506587">
        <ele>855</ele>
        <time>2018-07-23T09:33:07.990Z</time>
      </trkpt>
      <trkpt lat="42.569514" lon="-5.506754">
        <ele>856</ele>
        <time>2018-07-23T09:33:10.990Z</time>
      </trkpt>
      <trkpt lat="42.569556" lon="-5.50692">
        <ele>856</ele>
        <time>2018-07-23T09:33:14.000Z</time>
      </trkpt>
      <trkpt lat="42.569598" lon="-5.507063">
        <ele>856.32</ele>
        <time>2018-07-23T09:33:16.990Z</time>
      </trkpt>
      <trkpt lat="42.569643" lon="-5.507214">
        <ele>857</ele>
        <time>2018-07-23T09:33:19.990Z</time>
      </trkpt>
      <trkpt lat="42.569674" lon="-5.507354">
        <ele>857</ele>
        <time>2018-07-23T09:33:22.990Z</time>
      </trkpt>
      <trkpt lat="42.5697" lon="-5.507486">
        <ele>857</ele>
        <time>2018-07-23T09:33:25.990Z</time>
      </trkpt>
      <trkpt lat="42.569734" lon="-5.507625">
        <ele>858</ele>
        <time>2018-07-23T09:33:28.990Z</time>
      </trkpt>
      <trkpt lat="42.569766" lon="-5.507773">
        <ele>858</ele>
        <time>2018-07-23T09:33:31.990Z</time>
      </trkpt>
      <trkpt lat="42.569784" lon="-5.50792">
        <ele>858</ele>
        <time>2018-07-23T09:33:34.990Z</time>
      </trkpt>
      <trkpt lat="42.569799" lon="-5.508056">
        <ele>858</ele>
        <time>2018-07-23T09:33:37.990Z</time>
      </trkpt>
      <trkpt lat="42.56984" lon="-5.508209">
        <ele>858</ele>
        <time>2018-07-23T09:33:41.990Z</time>
      </trkpt>
      <trkpt lat="42.569872" lon="-5.508334">
        <ele>858</ele>
        <time>2018-07-23T09:33:44.990Z</time>
      </trkpt>
      <trkpt lat="42.569896" lon="-5.508477">
        <ele>858</ele>
        <time>2018-07-23T09:33:47.990Z</time>
      </trkpt>
      <trkpt lat="42.569936" lon="-5.508614">
        <ele>858</ele>
        <time>2018-07-23T09:33:50.990Z</time>
      </trkpt>
      <trkpt lat="42.569976" lon="-5.508743">
        <ele>859</ele>
        <time>2018-07-23T09:33:54.000Z</time>
      </trkpt>
      <trkpt lat="42.570004" lon="-5.508866">
        <ele>859</ele>
        <time>2018-07-23T09:33:56.990Z</time>
      </trkpt>
      <trkpt lat="42.570036" lon="-5.508986">
        <ele>859</ele>
        <time>2018-07-23T09:33:59.990Z</time>
      </trkpt>
      <trkpt lat="42.570058" lon="-5.509103">
        <ele>860</ele>
        <time>2018-07-23T09:34:02.990Z</time>
      </trkpt>
      <trkpt lat="42.570092" lon="-5.509263">
        <ele>860</ele>
        <time>2018-07-23T09:34:06.990Z</time>
      </trkpt>
      <trkpt lat="42.570111" lon="-5.509387">
        <ele>860</ele>
        <time>2018-07-23T09:34:10.000Z</time>
      </trkpt>
      <trkpt lat="42.570148" lon="-5.509511">
        <ele>860.3299968</ele>
        <time>2018-07-23T09:34:13.000Z</time>
      </trkpt>
      <trkpt lat="42.570181" lon="-5.509648">
        <ele>861</ele>
        <time>2018-07-23T09:34:16.000Z</time>
      </trkpt>
      <trkpt lat="42.570203" lon="-5.509783">
        <ele>861</ele>
        <time>2018-07-23T09:34:19.000Z</time>
      </trkpt>
      <trkpt lat="42.570232" lon="-5.509906">
        <ele>861</ele>
        <time>2018-07-23T09:34:22.000Z</time>
      </trkpt>
      <trkpt lat="42.570256" lon="-5.510028">
        <ele>861</ele>
        <time>2018-07-23T09:34:25.000Z</time>
      </trkpt>
      <trkpt lat="42.570283" lon="-5.510146">
        <ele>862</ele>
        <time>2018-07-23T09:34:28.000Z</time>
      </trkpt>
      <trkpt lat="42.570304" lon="-5.510304">
        <ele>862</ele>
        <time>2018-07-23T09:34:32.000Z</time>
      </trkpt>
      <trkpt lat="42.570342" lon="-5.510437">
        <ele>863</ele>
        <time>2018-07-23T09:34:35.990Z</time>
      </trkpt>
      <trkpt lat="42.570372" lon="-5.510572">
        <ele>863</ele>
        <time>2018-07-23T09:34:40.000Z</time>
      </trkpt>
      <trkpt lat="42.570394" lon="-5.510718">
        <ele>863.3299968</ele>
        <time>2018-07-23T09:34:45.000Z</time>
      </trkpt>
      <trkpt lat="42.570431" lon="-5.510862">
        <ele>864</ele>
        <time>2018-07-23T09:34:50.000Z</time>
      </trkpt>
      <trkpt lat="42.570462" lon="-5.510985">
        <ele>866.3299968</ele>
        <time>2018-07-23T09:34:55.000Z</time>
      </trkpt>
      <trkpt lat="42.570484" lon="-5.511106">
        <ele>867</ele>
        <time>2018-07-23T09:34:58.990Z</time>
      </trkpt>
      <trkpt lat="42.570512" lon="-5.511226">
        <ele>868</ele>
        <time>2018-07-23T09:35:02.990Z</time>
      </trkpt>
      <trkpt lat="42.570525" lon="-5.511357">
        <ele>868</ele>
        <time>2018-07-23T09:35:06.990Z</time>
      </trkpt>
      <trkpt lat="42.57055" lon="-5.511479">
        <ele>868</ele>
        <time>2018-07-23T09:35:10.990Z</time>
      </trkpt>
      <trkpt lat="42.570567" lon="-5.511602">
        <ele>868.306126980395</ele>
        <time>2018-07-23T09:35:14.990Z</time>
      </trkpt>
      <trkpt lat="42.57058" lon="-5.511732">
        <ele>870</ele>
        <time>2018-07-23T09:35:18.990Z</time>
      </trkpt>
      <trkpt lat="42.570609" lon="-5.511864">
        <ele>870</ele>
        <time>2018-07-23T09:35:22.990Z</time>
      </trkpt>
      <trkpt lat="42.570638" lon="-5.511998">
        <ele>871</ele>
        <time>2018-07-23T09:35:26.990Z</time>
      </trkpt>
      <trkpt lat="42.57067" lon="-5.512145">
        <ele>871</ele>
        <time>2018-07-23T09:35:30.990Z</time>
      </trkpt>
      <trkpt lat="42.570711" lon="-5.512293">
        <ele>871</ele>
        <time>2018-07-23T09:35:35.000Z</time>
      </trkpt>
      <trkpt lat="42.570752" lon="-5.512439">
        <ele>871</ele>
        <time>2018-07-23T09:35:38.990Z</time>
      </trkpt>
      <trkpt lat="42.570789" lon="-5.512592">
        <ele>871</ele>
        <time>2018-07-23T09:35:42.990Z</time>
      </trkpt>
      <trkpt lat="42.570828" lon="-5.512734">
        <ele>871</ele>
        <time>2018-07-23T09:35:46.990Z</time>
      </trkpt>
      <trkpt lat="42.570863" lon="-5.512879">
        <ele>871</ele>
        <time>2018-07-23T09:35:50.990Z</time>
      </trkpt>
      <trkpt lat="42.570883" lon="-5.513015">
        <ele>871</ele>
        <time>2018-07-23T09:35:55.000Z</time>
      </trkpt>
      <trkpt lat="42.570917" lon="-5.513167">
        <ele>872</ele>
        <time>2018-07-23T09:35:58.990Z</time>
      </trkpt>
      <trkpt lat="42.570935" lon="-5.513296">
        <ele>872</ele>
        <time>2018-07-23T09:36:02.990Z</time>
      </trkpt>
      <trkpt lat="42.57096" lon="-5.513437">
        <ele>872</ele>
        <time>2018-07-23T09:36:06.990Z</time>
      </trkpt>
      <trkpt lat="42.571002" lon="-5.513586">
        <ele>873</ele>
        <time>2018-07-23T09:36:10.990Z</time>
      </trkpt>
      <trkpt lat="42.571038" lon="-5.513717">
        <ele>874</ele>
        <time>2018-07-23T09:36:15.000Z</time>
      </trkpt>
      <trkpt lat="42.571074" lon="-5.513862">
        <ele>874</ele>
        <time>2018-07-23T09:36:18.990Z</time>
      </trkpt>
      <trkpt lat="42.571098" lon="-5.513993">
        <ele>875</ele>
        <time>2018-07-23T09:36:22.990Z</time>
      </trkpt>
      <trkpt lat="42.571112" lon="-5.514126">
        <ele>875</ele>
        <time>2018-07-23T09:36:26.990Z</time>
      </trkpt>
      <trkpt lat="42.571138" lon="-5.514266">
        <ele>875.32</ele>
        <time>2018-07-23T09:36:31.990Z</time>
      </trkpt>
      <trkpt lat="42.57116" lon="-5.514385">
        <ele>876</ele>
        <time>2018-07-23T09:36:36.990Z</time>
      </trkpt>
      <trkpt lat="42.571182" lon="-5.514513">
        <ele>877</ele>
        <time>2018-07-23T09:36:42.990Z</time>
      </trkpt>
      <trkpt lat="42.571218" lon="-5.514642">
        <ele>878.32</ele>
        <time>2018-07-23T09:36:50.990Z</time>
      </trkpt>
      <trkpt lat="42.571244" lon="-5.514775">
        <ele>879.32</ele>
        <time>2018-07-23T09:36:57.990Z</time>
      </trkpt>
      <trkpt lat="42.571271" lon="-5.514906">
        <ele>881</ele>
        <time>2018-07-23T09:37:03.990Z</time>
      </trkpt>
      <trkpt lat="42.571293" lon="-5.515038">
        <ele>882.028580310123</ele>
        <time>2018-07-23T09:37:10.990Z</time>
      </trkpt>
      <trkpt lat="42.571332" lon="-5.515155">
        <ele>882</ele>
        <time>2018-07-23T09:37:16.990Z</time>
      </trkpt>
      <trkpt lat="42.571369" lon="-5.515289">
        <ele>883</ele>
        <time>2018-07-23T09:37:22.990Z</time>
      </trkpt>
      <trkpt lat="42.571387" lon="-5.515411">
        <ele>884</ele>
        <time>2018-07-23T09:37:28.990Z</time>
      </trkpt>
      <trkpt lat="42.571402" lon="-5.515533">
        <ele>885</ele>
        <time>2018-07-23T09:37:34.990Z</time>
      </trkpt>
      <trkpt lat="42.57143" lon="-5.515665">
        <ele>886</ele>
        <time>2018-07-23T09:37:40.990Z</time>
      </trkpt>
      <trkpt lat="42.571461" lon="-5.515795">
        <ele>887</ele>
        <time>2018-07-23T09:37:46.990Z</time>
      </trkpt>
      <trkpt lat="42.571506" lon="-5.515918">
        <ele>887</ele>
        <time>2018-07-23T09:37:52.990Z</time>
      </trkpt>
      <trkpt lat="42.571542" lon="-5.516056">
        <ele>888</ele>
        <time>2018-07-23T09:37:58.990Z</time>
      </trkpt>
      <trkpt lat="42.571574" lon="-5.516193">
        <ele>888</ele>
        <time>2018-07-23T09:38:05.000Z</time>
      </trkpt>
      <trkpt lat="42.571604" lon="-5.516321">
        <ele>888</ele>
        <time>2018-07-23T09:38:08.990Z</time>
      </trkpt>
      <trkpt lat="42.571626" lon="-5.516448">
        <ele>888</ele>
        <time>2018-07-23T09:38:13.990Z</time>
      </trkpt>
      <trkpt lat="42.571654" lon="-5.516563">
        <ele>888</ele>
        <time>2018-07-23T09:38:17.990Z</time>
      </trkpt>
      <trkpt lat="42.57169" lon="-5.516683">
        <ele>888</ele>
        <time>2018-07-23T09:38:22.990Z</time>
      </trkpt>
      <trkpt lat="42.571712" lon="-5.516816">
        <ele>889</ele>
        <time>2018-07-23T09:38:27.990Z</time>
      </trkpt>
      <trkpt lat="42.571732" lon="-5.516962">
        <ele>890</ele>
        <time>2018-07-23T09:38:33.990Z</time>
      </trkpt>
      <trkpt lat="42.57175" lon="-5.517095">
        <ele>890</ele>
        <time>2018-07-23T09:38:38.990Z</time>
      </trkpt>
      <trkpt lat="42.571776" lon="-5.517219">
        <ele>891</ele>
        <time>2018-07-23T09:38:43.990Z</time>
      </trkpt>
      <trkpt lat="42.571796" lon="-5.51735">
        <ele>892</ele>
        <time>2018-07-23T09:38:48.990Z</time>
      </trkpt>
      <trkpt lat="42.571828" lon="-5.517499">
        <ele>893</ele>
        <time>2018-07-23T09:38:53.990Z</time>
      </trkpt>
      <trkpt lat="42.571866" lon="-5.517624">
        <ele>893</ele>
        <time>2018-07-23T09:38:57.990Z</time>
      </trkpt>
      <trkpt lat="42.571899" lon="-5.517746">
        <ele>894</ele>
        <time>2018-07-23T09:39:01.990Z</time>
      </trkpt>
      <trkpt lat="42.571928" lon="-5.517886">
        <ele>894.32</ele>
        <time>2018-07-23T09:39:06.990Z</time>
      </trkpt>
      <trkpt lat="42.571974" lon="-5.518025">
        <ele>894</ele>
        <time>2018-07-23T09:39:11.990Z</time>
      </trkpt>
      <trkpt lat="42.572003" lon="-5.51815">
        <ele>894</ele>
        <time>2018-07-23T09:39:15.000Z</time>
      </trkpt>
      <trkpt lat="42.572029" lon="-5.518324">
        <ele>894</ele>
        <time>2018-07-23T09:39:17.990Z</time>
      </trkpt>
      <trkpt lat="42.572059" lon="-5.518457">
        <ele>892.6700032</ele>
        <time>2018-07-23T09:39:20.000Z</time>
      </trkpt>
      <trkpt lat="42.572092" lon="-5.518601">
        <ele>891.68</ele>
        <time>2018-07-23T09:39:21.990Z</time>
      </trkpt>
      <trkpt lat="42.572126" lon="-5.518755">
        <ele>891</ele>
        <time>2018-07-23T09:39:23.990Z</time>
      </trkpt>
      <trkpt lat="42.572167" lon="-5.518914">
        <ele>891</ele>
        <time>2018-07-23T09:39:25.990Z</time>
      </trkpt>
      <trkpt lat="42.572216" lon="-5.519079">
        <ele>888.971419689877</ele>
        <time>2018-07-23T09:39:27.990Z</time>
      </trkpt>
      <trkpt lat="42.572254" lon="-5.519259">
        <ele>887.6700032</ele>
        <time>2018-07-23T09:39:30.000Z</time>
      </trkpt>
      <trkpt lat="42.572297" lon="-5.519444">
        <ele>886.68</ele>
        <time>2018-07-23T09:39:31.990Z</time>
      </trkpt>
      <trkpt lat="42.572341" lon="-5.519617">
        <ele>886</ele>
        <time>2018-07-23T09:39:33.990Z</time>
      </trkpt>
      <trkpt lat="42.572379" lon="-5.519788">
        <ele>886</ele>
        <time>2018-07-23T09:39:35.990Z</time>
      </trkpt>
      <trkpt lat="42.572417" lon="-5.519962">
        <ele>886</ele>
        <time>2018-07-23T09:39:37.990Z</time>
      </trkpt>
      <trkpt lat="42.572455" lon="-5.520127">
        <ele>886</ele>
        <time>2018-07-23T09:39:40.000Z</time>
      </trkpt>
      <trkpt lat="42.572481" lon="-5.520266">
        <ele>886</ele>
        <time>2018-07-23T09:39:41.990Z</time>
      </trkpt>
      <trkpt lat="42.572521" lon="-5.52043">
        <ele>887.3299968</ele>
        <time>2018-07-23T09:39:45.000Z</time>
      </trkpt>
      <trkpt lat="42.572554" lon="-5.520569">
        <ele>888</ele>
        <time>2018-07-23T09:39:47.990Z</time>
      </trkpt>
      <trkpt lat="42.572576" lon="-5.520704">
        <ele>888.32</ele>
        <time>2018-07-23T09:39:50.990Z</time>
      </trkpt>
      <trkpt lat="42.572574" lon="-5.520835">
        <ele>890</ele>
        <time>2018-07-23T09:39:53.990Z</time>
      </trkpt>
      <trkpt lat="42.572556" lon="-5.520976">
        <ele>890</ele>
        <time>2018-07-23T09:39:56.990Z</time>
      </trkpt>
      <trkpt lat="42.572562" lon="-5.521133">
        <ele>890</ele>
        <time>2018-07-23T09:40:00.000Z</time>
      </trkpt>
      <trkpt lat="42.572623" lon="-5.521272">
        <ele>890</ele>
        <time>2018-07-23T09:40:02.990Z</time>
      </trkpt>
      <trkpt lat="42.572703" lon="-5.521403">
        <ele>890</ele>
        <time>2018-07-23T09:40:05.990Z</time>
      </trkpt>
      <trkpt lat="42.572766" lon="-5.521562">
        <ele>890</ele>
        <time>2018-07-23T09:40:08.990Z</time>
      </trkpt>
      <trkpt lat="42.572805" lon="-5.521683">
        <ele>888.68</ele>
        <time>2018-07-23T09:40:10.990Z</time>
      </trkpt>
      <trkpt lat="42.572843" lon="-5.521824">
        <ele>887</ele>
        <time>2018-07-23T09:40:12.990Z</time>
      </trkpt>
      <trkpt lat="42.572878" lon="-5.521986">
        <ele>886.673269459864</ele>
        <time>2018-07-23T09:40:15.000Z</time>
      </trkpt>
      <trkpt lat="42.572913" lon="-5.522174">
        <ele>886</ele>
        <time>2018-07-23T09:40:16.990Z</time>
      </trkpt>
      <trkpt lat="42.572952" lon="-5.522368">
        <ele>885</ele>
        <time>2018-07-23T09:40:18.990Z</time>
      </trkpt>
      <trkpt lat="42.572996" lon="-5.522561">
        <ele>884</ele>
        <time>2018-07-23T09:40:20.990Z</time>
      </trkpt>
      <trkpt lat="42.573042" lon="-5.522733">
        <ele>884</ele>
        <time>2018-07-23T09:40:22.990Z</time>
      </trkpt>
      <trkpt lat="42.57308" lon="-5.522874">
        <ele>884.042861322411</ele>
        <time>2018-07-23T09:40:25.000Z</time>
      </trkpt>
      <trkpt lat="42.573111" lon="-5.523003">
        <ele>885</ele>
        <time>2018-07-23T09:40:26.990Z</time>
      </trkpt>
      <trkpt lat="42.573152" lon="-5.523156">
        <ele>886</ele>
        <time>2018-07-23T09:40:30.000Z</time>
      </trkpt>
      <trkpt lat="42.573183" lon="-5.523302">
        <ele>886.32</ele>
        <time>2018-07-23T09:40:32.990Z</time>
      </trkpt>
      <trkpt lat="42.573211" lon="-5.52346">
        <ele>887</ele>
        <time>2018-07-23T09:40:35.990Z</time>
      </trkpt>
      <trkpt lat="42.573239" lon="-5.523602">
        <ele>888</ele>
        <time>2018-07-23T09:40:38.990Z</time>
      </trkpt>
      <trkpt lat="42.573268" lon="-5.523733">
        <ele>889</ele>
        <time>2018-07-23T09:40:41.990Z</time>
      </trkpt>
      <trkpt lat="42.573292" lon="-5.523861">
        <ele>889</ele>
        <time>2018-07-23T09:40:45.000Z</time>
      </trkpt>
      <trkpt lat="42.573296" lon="-5.52401">
        <ele>890</ele>
        <time>2018-07-23T09:40:47.990Z</time>
      </trkpt>
      <trkpt lat="42.573258" lon="-5.524145">
        <ele>890</ele>
        <time>2018-07-23T09:40:51.990Z</time>
      </trkpt>
      <trkpt lat="42.573194" lon="-5.524275">
        <ele>890</ele>
        <time>2018-07-23T09:40:55.990Z</time>
      </trkpt>
      <trkpt lat="42.573099" lon="-5.52439">
        <ele>890</ele>
        <time>2018-07-23T09:40:58.990Z</time>
      </trkpt>
      <trkpt lat="42.572987" lon="-5.524489">
        <ele>889</ele>
        <time>2018-07-23T09:41:01.990Z</time>
      </trkpt>
      <trkpt lat="42.57288" lon="-5.524587">
        <ele>888.985298823529</ele>
        <time>2018-07-23T09:41:05.000Z</time>
      </trkpt>
      <trkpt lat="42.572788" lon="-5.524693">
        <ele>888</ele>
        <time>2018-07-23T09:41:07.990Z</time>
      </trkpt>
      <trkpt lat="42.572703" lon="-5.524782">
        <ele>888.316832686995</ele>
        <time>2018-07-23T09:41:10.990Z</time>
      </trkpt>
      <trkpt lat="42.572615" lon="-5.524866">
        <ele>889</ele>
        <time>2018-07-23T09:41:13.990Z</time>
      </trkpt>
      <trkpt lat="42.572521" lon="-5.524921">
        <ele>889</ele>
        <time>2018-07-23T09:41:16.990Z</time>
      </trkpt>
      <trkpt lat="42.57242" lon="-5.524987">
        <ele>888</ele>
        <time>2018-07-23T09:41:20.000Z</time>
      </trkpt>
      <trkpt lat="42.572316" lon="-5.525086">
        <ele>888</ele>
        <time>2018-07-23T09:41:22.990Z</time>
      </trkpt>
      <trkpt lat="42.572227" lon="-5.525172">
        <ele>887</ele>
        <time>2018-07-23T09:41:25.000Z</time>
      </trkpt>
      <trkpt lat="42.572131" lon="-5.525252">
        <ele>887</ele>
        <time>2018-07-23T09:41:26.990Z</time>
      </trkpt>
      <trkpt lat="42.57202" lon="-5.525365">
        <ele>886.68</ele>
        <time>2018-07-23T09:41:28.990Z</time>
      </trkpt>
      <trkpt lat="42.571956" lon="-5.525517">
        <ele>886</ele>
        <time>2018-07-23T09:41:30.990Z</time>
      </trkpt>
      <trkpt lat="42.571966" lon="-5.525663">
        <ele>886</ele>
        <time>2018-07-23T09:41:32.990Z</time>
      </trkpt>
      <trkpt lat="42.571988" lon="-5.525783">
        <ele>886.3299968</ele>
        <time>2018-07-23T09:41:35.000Z</time>
      </trkpt>
      <trkpt lat="42.572014" lon="-5.525947">
        <ele>887</ele>
        <time>2018-07-23T09:41:37.990Z</time>
      </trkpt>
      <trkpt lat="42.572047" lon="-5.526113">
        <ele>887.028580310123</ele>
        <time>2018-07-23T09:41:40.990Z</time>
      </trkpt>
      <trkpt lat="42.572074" lon="-5.526271">
        <ele>889</ele>
        <time>2018-07-23T09:41:43.990Z</time>
      </trkpt>
      <trkpt lat="42.572094" lon="-5.526422">
        <ele>889</ele>
        <time>2018-07-23T09:41:46.990Z</time>
      </trkpt>
      <trkpt lat="42.572128" lon="-5.526575">
        <ele>890</ele>
        <time>2018-07-23T09:41:50.000Z</time>
      </trkpt>
      <trkpt lat="42.572157" lon="-5.526721">
        <ele>890</ele>
        <time>2018-07-23T09:41:52.990Z</time>
      </trkpt>
      <trkpt lat="42.572171" lon="-5.52686">
        <ele>890</ele>
        <time>2018-07-23T09:41:56.990Z</time>
      </trkpt>
      <trkpt lat="42.57226" lon="-5.526825">
        <ele>891</ele>
        <time>2018-07-23T09:42:07.990Z</time>
      </trkpt>
      <trkpt lat="42.572306" lon="-5.526933">
        <ele>891</ele>
        <time>2018-07-23T09:42:12.990Z</time>
      </trkpt>
      <trkpt lat="42.572371" lon="-5.527025">
        <ele>892</ele>
        <time>2018-07-23T09:42:15.990Z</time>
      </trkpt>
      <trkpt lat="42.572431" lon="-5.527129">
        <ele>892</ele>
        <time>2018-07-23T09:42:20.000Z</time>
      </trkpt>
      <trkpt lat="42.572506" lon="-5.527237">
        <ele>892.32</ele>
        <time>2018-07-23T09:42:23.990Z</time>
      </trkpt>
      <trkpt lat="42.572597" lon="-5.5273">
        <ele>894</ele>
        <time>2018-07-23T09:42:30.000Z</time>
      </trkpt>
      <trkpt lat="42.572689" lon="-5.52732">
        <ele>895</ele>
        <time>2018-07-23T09:42:35.000Z</time>
      </trkpt>
      <trkpt lat="42.572789" lon="-5.527328">
        <ele>896.028580310123</ele>
        <time>2018-07-23T09:42:40.990Z</time>
      </trkpt>
      <trkpt lat="42.572878" lon="-5.527359">
        <ele>899</ele>
        <time>2018-07-23T09:42:50.990Z</time>
      </trkpt>
      <trkpt lat="42.572975" lon="-5.527413">
        <ele>899</ele>
        <time>2018-07-23T09:42:57.990Z</time>
      </trkpt>
      <trkpt lat="42.573052" lon="-5.527486">
        <ele>900</ele>
        <time>2018-07-23T09:43:01.990Z</time>
      </trkpt>
      <trkpt lat="42.573118" lon="-5.527604">
        <ele>900</ele>
        <time>2018-07-23T09:43:06.990Z</time>
      </trkpt>
      <trkpt lat="42.573176" lon="-5.527702">
        <ele>900</ele>
        <time>2018-07-23T09:43:11.990Z</time>
      </trkpt>
      <trkpt lat="42.573208" lon="-5.527824">
        <ele>901</ele>
        <time>2018-07-23T09:43:16.990Z</time>
      </trkpt>
      <trkpt lat="42.573248" lon="-5.527945">
        <ele>902</ele>
        <time>2018-07-23T09:43:22.990Z</time>
      </trkpt>
      <trkpt lat="42.573266" lon="-5.528066">
        <ele>903</ele>
        <time>2018-07-23T09:43:27.990Z</time>
      </trkpt>
      <trkpt lat="42.573286" lon="-5.528196">
        <ele>904</ele>
        <time>2018-07-23T09:43:32.990Z</time>
      </trkpt>
      <trkpt lat="42.573292" lon="-5.528322">
        <ele>904</ele>
        <time>2018-07-23T09:43:36.990Z</time>
      </trkpt>
      <trkpt lat="42.5733" lon="-5.528458">
        <ele>904</ele>
        <time>2018-07-23T09:43:40.000Z</time>
      </trkpt>
      <trkpt lat="42.57331" lon="-5.528579">
        <ele>904</ele>
        <time>2018-07-23T09:43:42.990Z</time>
      </trkpt>
      <trkpt lat="42.573322" lon="-5.52874">
        <ele>904</ele>
        <time>2018-07-23T09:43:46.990Z</time>
      </trkpt>
      <trkpt lat="42.573342" lon="-5.528902">
        <ele>904</ele>
        <time>2018-07-23T09:43:50.990Z</time>
      </trkpt>
      <trkpt lat="42.573366" lon="-5.529044">
        <ele>903.190185638899</ele>
        <time>2018-07-23T09:43:53.990Z</time>
      </trkpt>
      <trkpt lat="42.573416" lon="-5.529193">
        <ele>902</ele>
        <time>2018-07-23T09:43:56.990Z</time>
      </trkpt>
      <trkpt lat="42.573454" lon="-5.529305">
        <ele>902</ele>
        <time>2018-07-23T09:43:58.990Z</time>
      </trkpt>
      <trkpt lat="42.573518" lon="-5.529455">
        <ele>902</ele>
        <time>2018-07-23T09:44:01.990Z</time>
      </trkpt>
      <trkpt lat="42.573576" lon="-5.529608">
        <ele>901</ele>
        <time>2018-07-23T09:44:05.000Z</time>
      </trkpt>
      <trkpt lat="42.573637" lon="-5.529731">
        <ele>899.68</ele>
        <time>2018-07-23T09:44:06.990Z</time>
      </trkpt>
      <trkpt lat="42.573712" lon="-5.529854">
        <ele>899</ele>
        <time>2018-07-23T09:44:08.990Z</time>
      </trkpt>
      <trkpt lat="42.573779" lon="-5.529976">
        <ele>898</ele>
        <time>2018-07-23T09:44:10.990Z</time>
      </trkpt>
      <trkpt lat="42.573839" lon="-5.530091">
        <ele>898</ele>
        <time>2018-07-23T09:44:12.990Z</time>
      </trkpt>
      <trkpt lat="42.573884" lon="-5.530229">
        <ele>898</ele>
        <time>2018-07-23T09:44:16.990Z</time>
      </trkpt>
      <trkpt lat="42.573932" lon="-5.530361">
        <ele>898</ele>
        <time>2018-07-23T09:44:20.990Z</time>
      </trkpt>
      <trkpt lat="42.573999" lon="-5.530447">
        <ele>898</ele>
        <time>2018-07-23T09:44:25.000Z</time>
      </trkpt>
      <trkpt lat="42.574087" lon="-5.530552">
        <ele>898</ele>
        <time>2018-07-23T09:44:30.000Z</time>
      </trkpt>
      <trkpt lat="42.574164" lon="-5.530657">
        <ele>899</ele>
        <time>2018-07-23T09:44:33.990Z</time>
      </trkpt>
      <trkpt lat="42.574234" lon="-5.530758">
        <ele>899</ele>
        <time>2018-07-23T09:44:38.000Z</time>
      </trkpt>
      <trkpt lat="42.57429" lon="-5.530855">
        <ele>899</ele>
        <time>2018-07-23T09:44:41.000Z</time>
      </trkpt>
      <trkpt lat="42.574369" lon="-5.530974">
        <ele>899</ele>
        <time>2018-07-23T09:44:45.000Z</time>
      </trkpt>
      <trkpt lat="42.574436" lon="-5.531098">
        <ele>899</ele>
        <time>2018-07-23T09:44:49.000Z</time>
      </trkpt>
      <trkpt lat="42.57451" lon="-5.531208">
        <ele>900</ele>
        <time>2018-07-23T09:44:52.960Z</time>
      </trkpt>
      <trkpt lat="42.574577" lon="-5.531291">
        <ele>900.32</ele>
        <time>2018-07-23T09:44:55.990Z</time>
      </trkpt>
      <trkpt lat="42.574641" lon="-5.53138">
        <ele>901.32</ele>
        <time>2018-07-23T09:44:58.990Z</time>
      </trkpt>
      <trkpt lat="42.574717" lon="-5.531455">
        <ele>902</ele>
        <time>2018-07-23T09:45:02.000Z</time>
      </trkpt>
      <trkpt lat="42.574802" lon="-5.531536">
        <ele>902.32</ele>
        <time>2018-07-23T09:45:05.990Z</time>
      </trkpt>
      <trkpt lat="42.5749" lon="-5.531618">
        <ele>903</ele>
        <time>2018-07-23T09:45:09.990Z</time>
      </trkpt>
      <trkpt lat="42.574997" lon="-5.531697">
        <ele>904</ele>
        <time>2018-07-23T09:45:13.990Z</time>
      </trkpt>
      <trkpt lat="42.575088" lon="-5.531758">
        <ele>905</ele>
        <time>2018-07-23T09:45:17.990Z</time>
      </trkpt>
      <trkpt lat="42.575168" lon="-5.531814">
        <ele>905.32</ele>
        <time>2018-07-23T09:45:20.990Z</time>
      </trkpt>
      <trkpt lat="42.57527" lon="-5.531874">
        <ele>906</ele>
        <time>2018-07-23T09:45:24.990Z</time>
      </trkpt>
      <trkpt lat="42.575374" lon="-5.53195">
        <ele>906.814818033849</ele>
        <time>2018-07-23T09:45:28.990Z</time>
      </trkpt>
      <trkpt lat="42.575478" lon="-5.532024">
        <ele>909</ele>
        <time>2018-07-23T09:45:32.990Z</time>
      </trkpt>
      <trkpt lat="42.575554" lon="-5.532098">
        <ele>909.32</ele>
        <time>2018-07-23T09:45:35.990Z</time>
      </trkpt>
      <trkpt lat="42.575638" lon="-5.532181">
        <ele>910</ele>
        <time>2018-07-23T09:45:38.990Z</time>
      </trkpt>
      <trkpt lat="42.575716" lon="-5.532269">
        <ele>910</ele>
        <time>2018-07-23T09:45:42.000Z</time>
      </trkpt>
      <trkpt lat="42.575798" lon="-5.532351">
        <ele>911</ele>
        <time>2018-07-23T09:45:44.990Z</time>
      </trkpt>
      <trkpt lat="42.575884" lon="-5.532436">
        <ele>911</ele>
        <time>2018-07-23T09:45:47.990Z</time>
      </trkpt>
      <trkpt lat="42.575974" lon="-5.532512">
        <ele>912</ele>
        <time>2018-07-23T09:45:50.990Z</time>
      </trkpt>
      <trkpt lat="42.576066" lon="-5.532576">
        <ele>912</ele>
        <time>2018-07-23T09:45:53.990Z</time>
      </trkpt>
      <trkpt lat="42.576154" lon="-5.532646">
        <ele>913</ele>
        <time>2018-07-23T09:45:57.000Z</time>
      </trkpt>
      <trkpt lat="42.576255" lon="-5.532696">
        <ele>913</ele>
        <time>2018-07-23T09:45:59.990Z</time>
      </trkpt>
      <trkpt lat="42.576364" lon="-5.532737">
        <ele>913</ele>
        <time>2018-07-23T09:46:03.990Z</time>
      </trkpt>
      <trkpt lat="42.576466" lon="-5.532772">
        <ele>913</ele>
        <time>2018-07-23T09:46:07.990Z</time>
      </trkpt>
      <trkpt lat="42.576576" lon="-5.532788">
        <ele>913</ele>
        <time>2018-07-23T09:46:11.990Z</time>
      </trkpt>
      <trkpt lat="42.576678" lon="-5.532793">
        <ele>913</ele>
        <time>2018-07-23T09:46:15.990Z</time>
      </trkpt>
      <trkpt lat="42.576796" lon="-5.532808">
        <ele>913</ele>
        <time>2018-07-23T09:46:19.990Z</time>
      </trkpt>
      <trkpt lat="42.576892" lon="-5.532816">
        <ele>913</ele>
        <time>2018-07-23T09:46:23.990Z</time>
      </trkpt>
      <trkpt lat="42.576999" lon="-5.532812">
        <ele>913</ele>
        <time>2018-07-23T09:46:29.990Z</time>
      </trkpt>
      <trkpt lat="42.577101" lon="-5.532788">
        <ele>913</ele>
        <time>2018-07-23T09:46:34.990Z</time>
      </trkpt>
      <trkpt lat="42.577216" lon="-5.532776">
        <ele>913</ele>
        <time>2018-07-23T09:46:38.990Z</time>
      </trkpt>
      <trkpt lat="42.577321" lon="-5.532777">
        <ele>913</ele>
        <time>2018-07-23T09:46:42.990Z</time>
      </trkpt>
      <trkpt lat="42.577422" lon="-5.532769">
        <ele>913</ele>
        <time>2018-07-23T09:46:45.990Z</time>
      </trkpt>
      <trkpt lat="42.577518" lon="-5.532761">
        <ele>913</ele>
        <time>2018-07-23T09:46:48.990Z</time>
      </trkpt>
      <trkpt lat="42.577625" lon="-5.532743">
        <ele>913</ele>
        <time>2018-07-23T09:46:52.990Z</time>
      </trkpt>
      <trkpt lat="42.577726" lon="-5.532746">
        <ele>913.3299968</ele>
        <time>2018-07-23T09:46:57.000Z</time>
      </trkpt>
      <trkpt lat="42.577826" lon="-5.532772">
        <ele>914</ele>
        <time>2018-07-23T09:47:02.000Z</time>
      </trkpt>
      <trkpt lat="42.577924" lon="-5.53282">
        <ele>914</ele>
        <time>2018-07-23T09:47:05.990Z</time>
      </trkpt>
      <trkpt lat="42.578017" lon="-5.532876">
        <ele>915</ele>
        <time>2018-07-23T09:47:10.990Z</time>
      </trkpt>
      <trkpt lat="42.578097" lon="-5.532958">
        <ele>915</ele>
        <time>2018-07-23T09:47:14.990Z</time>
      </trkpt>
      <trkpt lat="42.578177" lon="-5.533026">
        <ele>916</ele>
        <time>2018-07-23T09:47:17.990Z</time>
      </trkpt>
      <trkpt lat="42.578267" lon="-5.53313">
        <ele>916.25190780024</ele>
        <time>2018-07-23T09:47:22.000Z</time>
      </trkpt>
      <trkpt lat="42.578346" lon="-5.533243">
        <ele>917</ele>
        <time>2018-07-23T09:47:25.990Z</time>
      </trkpt>
      <trkpt lat="42.578424" lon="-5.53334">
        <ele>918</ele>
        <time>2018-07-23T09:47:29.990Z</time>
      </trkpt>
      <trkpt lat="42.5785" lon="-5.533466">
        <ele>918</ele>
        <time>2018-07-23T09:47:33.990Z</time>
      </trkpt>
      <trkpt lat="42.57857" lon="-5.533573">
        <ele>919</ele>
        <time>2018-07-23T09:47:37.000Z</time>
      </trkpt>
      <trkpt lat="42.578631" lon="-5.533665">
        <ele>919.32</ele>
        <time>2018-07-23T09:47:39.990Z</time>
      </trkpt>
      <trkpt lat="42.578694" lon="-5.533754">
        <ele>920</ele>
        <time>2018-07-23T09:47:42.990Z</time>
      </trkpt>
      <trkpt lat="42.578781" lon="-5.533864">
        <ele>921</ele>
        <time>2018-07-23T09:47:47.000Z</time>
      </trkpt>
      <trkpt lat="42.578867" lon="-5.533949">
        <ele>922</ele>
        <time>2018-07-23T09:47:50.990Z</time>
      </trkpt>
      <trkpt lat="42.578942" lon="-5.534017">
        <ele>922</ele>
        <time>2018-07-23T09:47:53.990Z</time>
      </trkpt>
      <trkpt lat="42.579027" lon="-5.534067">
        <ele>922</ele>
        <time>2018-07-23T09:47:57.000Z</time>
      </trkpt>
      <trkpt lat="42.579109" lon="-5.534127">
        <ele>922</ele>
        <time>2018-07-23T09:47:59.990Z</time>
      </trkpt>
      <trkpt lat="42.579202" lon="-5.534193">
        <ele>923</ele>
        <time>2018-07-23T09:48:03.990Z</time>
      </trkpt>
      <trkpt lat="42.579287" lon="-5.534239">
        <ele>923</ele>
        <time>2018-07-23T09:48:07.990Z</time>
      </trkpt>
      <trkpt lat="42.579373" lon="-5.534305">
        <ele>925</ele>
        <time>2018-07-23T09:48:12.000Z</time>
      </trkpt>
      <trkpt lat="42.579475" lon="-5.534345">
        <ele>926</ele>
        <time>2018-07-23T09:48:17.000Z</time>
      </trkpt>
      <trkpt lat="42.579567" lon="-5.53439">
        <ele>927</ele>
        <time>2018-07-23T09:48:22.000Z</time>
      </trkpt>
      <trkpt lat="42.579665" lon="-5.534461">
        <ele>929.014701176471</ele>
        <time>2018-07-23T09:48:27.000Z</time>
      </trkpt>
      <trkpt lat="42.579769" lon="-5.534516">
        <ele>930.3299968</ele>
        <time>2018-07-23T09:48:32.000Z</time>
      </trkpt>
      <trkpt lat="42.579879" lon="-5.53454">
        <ele>931</ele>
        <time>2018-07-23T09:48:37.000Z</time>
      </trkpt>
      <trkpt lat="42.579975" lon="-5.534572">
        <ele>931</ele>
        <time>2018-07-23T09:48:40.990Z</time>
      </trkpt>
      <trkpt lat="42.580068" lon="-5.534605">
        <ele>931.32</ele>
        <time>2018-07-23T09:48:44.990Z</time>
      </trkpt>
      <trkpt lat="42.580158" lon="-5.534627">
        <ele>932</ele>
        <time>2018-07-23T09:48:48.990Z</time>
      </trkpt>
      <trkpt lat="42.580266" lon="-5.534648">
        <ele>932</ele>
        <time>2018-07-23T09:48:52.990Z</time>
      </trkpt>
      <trkpt lat="42.580383" lon="-5.534661">
        <ele>932</ele>
        <time>2018-07-23T09:48:57.000Z</time>
      </trkpt>
      <trkpt lat="42.580496" lon="-5.534673">
        <ele>932</ele>
        <time>2018-07-23T09:49:00.990Z</time>
      </trkpt>
      <trkpt lat="42.580603" lon="-5.534675">
        <ele>932</ele>
        <time>2018-07-23T09:49:04.990Z</time>
      </trkpt>
      <trkpt lat="42.580696" lon="-5.534689">
        <ele>932</ele>
        <time>2018-07-23T09:49:07.990Z</time>
      </trkpt>
      <trkpt lat="42.580811" lon="-5.534696">
        <ele>932</ele>
        <time>2018-07-23T09:49:12.000Z</time>
      </trkpt>
      <trkpt lat="42.580928" lon="-5.534698">
        <ele>932</ele>
        <time>2018-07-23T09:49:15.990Z</time>
      </trkpt>
      <trkpt lat="42.581027" lon="-5.534686">
        <ele>931.2899968</ele>
        <time>2018-07-23T09:49:18.960Z</time>
      </trkpt>
      <trkpt lat="42.581128" lon="-5.53467">
        <ele>932</ele>
        <time>2018-07-23T09:49:22.000Z</time>
      </trkpt>
      <trkpt lat="42.581245" lon="-5.534668">
        <ele>932</ele>
        <time>2018-07-23T09:49:24.990Z</time>
      </trkpt>
      <trkpt lat="42.581342" lon="-5.534667">
        <ele>931.6700032</ele>
        <time>2018-07-23T09:49:27.000Z</time>
      </trkpt>
      <trkpt lat="42.581435" lon="-5.534666">
        <ele>931</ele>
        <time>2018-07-23T09:49:28.990Z</time>
      </trkpt>
      <trkpt lat="42.581526" lon="-5.534665">
        <ele>931</ele>
        <time>2018-07-23T09:49:30.990Z</time>
      </trkpt>
      <trkpt lat="42.581617" lon="-5.534667">
        <ele>930</ele>
        <time>2018-07-23T09:49:32.990Z</time>
      </trkpt>
      <trkpt lat="42.581726" lon="-5.534725">
        <ele>929.175</ele>
        <time>2018-07-23T09:49:35.990Z</time>
      </trkpt>
      <trkpt lat="42.581773" lon="-5.534831">
        <ele>929</ele>
        <time>2018-07-23T09:50:00.990Z</time>
      </trkpt>
      <trkpt lat="42.581725" lon="-5.534958">
        <ele>927</ele>
        <time>2018-07-23T09:51:22.990Z</time>
      </trkpt>
      <trkpt lat="42.581672" lon="-5.53508">
        <ele>924.68</ele>
        <time>2018-07-23T09:51:25.990Z</time>
      </trkpt>
      <trkpt lat="42.581601" lon="-5.535161">
        <ele>922.985511816866</ele>
        <time>2018-07-23T09:51:29.990Z</time>
      </trkpt>
      <trkpt lat="42.581523" lon="-5.535254">
        <ele>921</ele>
        <time>2018-07-23T09:51:33.990Z</time>
      </trkpt>
      <trkpt lat="42.581485" lon="-5.535369">
        <ele>921</ele>
        <time>2018-07-23T09:51:52.990Z</time>
      </trkpt>
      <trkpt lat="42.581456" lon="-5.535508">
        <ele>919.68</ele>
        <time>2018-07-23T09:51:56.990Z</time>
      </trkpt>
      <trkpt lat="42.581414" lon="-5.535627">
        <ele>917.68</ele>
        <time>2018-07-23T09:51:58.990Z</time>
      </trkpt>
      <trkpt lat="42.581405" lon="-5.535759">
        <ele>915.36</ele>
        <time>2018-07-23T09:52:00.990Z</time>
      </trkpt>
      <trkpt lat="42.581391" lon="-5.535908">
        <ele>914</ele>
        <time>2018-07-23T09:52:02.990Z</time>
      </trkpt>
      <trkpt lat="42.5814" lon="-5.536095">
        <ele>912.6700032</ele>
        <time>2018-07-23T09:52:05.000Z</time>
      </trkpt>
      <trkpt lat="42.581403" lon="-5.536265">
        <ele>912</ele>
        <time>2018-07-23T09:52:06.990Z</time>
      </trkpt>
      <trkpt lat="42.581398" lon="-5.536418">
        <ele>912</ele>
        <time>2018-07-23T09:52:08.990Z</time>
      </trkpt>
      <trkpt lat="42.581378" lon="-5.536578">
        <ele>911</ele>
        <time>2018-07-23T09:52:11.990Z</time>
      </trkpt>
      <trkpt lat="42.581323" lon="-5.536683">
        <ele>909</ele>
        <time>2018-07-23T09:52:15.000Z</time>
      </trkpt>
      <trkpt lat="42.581293" lon="-5.536825">
        <ele>906.683167313005</ele>
        <time>2018-07-23T09:52:17.990Z</time>
      </trkpt>
      <trkpt lat="42.581302" lon="-5.536966">
        <ele>903.68</ele>
        <time>2018-07-23T09:52:21.990Z</time>
      </trkpt>
      <trkpt lat="42.581328" lon="-5.537104">
        <ele>902.783955689702</ele>
        <time>2018-07-23T09:52:26.020Z</time>
      </trkpt>
      <trkpt lat="42.581356" lon="-5.537262">
        <ele>901</ele>
        <time>2018-07-23T09:52:28.990Z</time>
      </trkpt>
      <trkpt lat="42.581399" lon="-5.537375">
        <ele>898.68</ele>
        <time>2018-07-23T09:52:30.990Z</time>
      </trkpt>
      <trkpt lat="42.581419" lon="-5.537517">
        <ele>896.36</ele>
        <time>2018-07-23T09:52:32.990Z</time>
      </trkpt>
      <trkpt lat="42.581423" lon="-5.537679">
        <ele>893.6700032</ele>
        <time>2018-07-23T09:52:35.000Z</time>
      </trkpt>
      <trkpt lat="42.581414" lon="-5.537828">
        <ele>891.75572578754</ele>
        <time>2018-07-23T09:52:36.990Z</time>
      </trkpt>
      <trkpt lat="42.581416" lon="-5.53798">
        <ele>890.68</ele>
        <time>2018-07-23T09:52:38.990Z</time>
      </trkpt>
      <trkpt lat="42.581428" lon="-5.538151">
        <ele>888.36</ele>
        <time>2018-07-23T09:52:40.990Z</time>
      </trkpt>
      <trkpt lat="42.581455" lon="-5.538325">
        <ele>885.68</ele>
        <time>2018-07-23T09:52:42.990Z</time>
      </trkpt>
      <trkpt lat="42.581516" lon="-5.538503">
        <ele>883.979598234111</ele>
        <time>2018-07-23T09:52:45.000Z</time>
      </trkpt>
      <trkpt lat="42.58157" lon="-5.538663">
        <ele>880.68</ele>
        <time>2018-07-23T09:52:46.990Z</time>
      </trkpt>
      <trkpt lat="42.581602" lon="-5.538813">
        <ele>879</ele>
        <time>2018-07-23T09:52:48.990Z</time>
      </trkpt>
      <trkpt lat="42.581626" lon="-5.539001">
        <ele>877.683167313005</ele>
        <time>2018-07-23T09:52:50.990Z</time>
      </trkpt>
      <trkpt lat="42.58164" lon="-5.53921">
        <ele>875.759397917348</ele>
        <time>2018-07-23T09:52:52.990Z</time>
      </trkpt>
      <trkpt lat="42.581667" lon="-5.539428">
        <ele>873.3400064</ele>
        <time>2018-07-23T09:52:55.000Z</time>
      </trkpt>
      <trkpt lat="42.581698" lon="-5.539645">
        <ele>870.68</ele>
        <time>2018-07-23T09:52:56.990Z</time>
      </trkpt>
      <trkpt lat="42.581716" lon="-5.539825">
        <ele>869.007516409062</ele>
        <time>2018-07-23T09:52:58.990Z</time>
      </trkpt>
      <trkpt lat="42.581745" lon="-5.54">
        <ele>868.68</ele>
        <time>2018-07-23T09:53:00.990Z</time>
      </trkpt>
      <trkpt lat="42.581784" lon="-5.540179">
        <ele>868</ele>
        <time>2018-07-23T09:53:02.990Z</time>
      </trkpt>
      <trkpt lat="42.581826" lon="-5.540335">
        <ele>867</ele>
        <time>2018-07-23T09:53:05.000Z</time>
      </trkpt>
      <trkpt lat="42.581867" lon="-5.540465">
        <ele>867</ele>
        <time>2018-07-23T09:53:06.960Z</time>
      </trkpt>
      <trkpt lat="42.581895" lon="-5.540583">
        <ele>868</ele>
        <time>2018-07-23T09:53:08.990Z</time>
      </trkpt>
      <trkpt lat="42.581871" lon="-5.5407">
        <ele>869</ele>
        <time>2018-07-23T09:53:26.990Z</time>
      </trkpt>
      <trkpt lat="42.581887" lon="-5.540826">
        <ele>869</ele>
        <time>2018-07-23T09:53:52.990Z</time>
      </trkpt>
      <trkpt lat="42.581925" lon="-5.540948">
        <ele>869</ele>
        <time>2018-07-23T09:54:01.990Z</time>
      </trkpt>
      <trkpt lat="42.581974" lon="-5.541056">
        <ele>869</ele>
        <time>2018-07-23T09:54:07.990Z</time>
      </trkpt>
      <trkpt lat="42.582002" lon="-5.541183">
        <ele>869</ele>
        <time>2018-07-23T09:54:12.990Z</time>
      </trkpt>
      <trkpt lat="42.582045" lon="-5.541299">
        <ele>869</ele>
        <time>2018-07-23T09:54:17.990Z</time>
      </trkpt>
      <trkpt lat="42.582045" lon="-5.541425">
        <ele>869</ele>
        <time>2018-07-23T09:54:58.990Z</time>
      </trkpt>
      <trkpt lat="42.582086" lon="-5.541536">
        <ele>869</ele>
        <time>2018-07-23T09:55:05.000Z</time>
      </trkpt>
      <trkpt lat="42.582132" lon="-5.541655">
        <ele>869</ele>
        <time>2018-07-23T09:55:11.000Z</time>
      </trkpt>
      <trkpt lat="42.58217" lon="-5.541789">
        <ele>869</ele>
        <time>2018-07-23T09:55:16.000Z</time>
      </trkpt>
      <trkpt lat="42.582201" lon="-5.541928">
        <ele>869</ele>
        <time>2018-07-23T09:55:20.000Z</time>
      </trkpt>
      <trkpt lat="42.582216" lon="-5.542062">
        <ele>868</ele>
        <time>2018-07-23T09:55:23.000Z</time>
      </trkpt>
      <trkpt lat="42.582218" lon="-5.542231">
        <ele>866.68</ele>
        <time>2018-07-23T09:55:25.990Z</time>
      </trkpt>
      <trkpt lat="42.582223" lon="-5.542415">
        <ele>864.971419689877</ele>
        <time>2018-07-23T09:55:28.990Z</time>
      </trkpt>
      <trkpt lat="42.582227" lon="-5.542552">
        <ele>862.68</ele>
        <time>2018-07-23T09:55:30.990Z</time>
      </trkpt>
      <trkpt lat="42.582227" lon="-5.542681">
        <ele>861</ele>
        <time>2018-07-23T09:55:33.000Z</time>
      </trkpt>
      <trkpt lat="42.582226" lon="-5.542847">
        <ele>859.753844942006</ele>
        <time>2018-07-23T09:55:35.990Z</time>
      </trkpt>
      <trkpt lat="42.582233" lon="-5.542988">
        <ele>857.971419689877</ele>
        <time>2018-07-23T09:55:38.990Z</time>
      </trkpt>
      <trkpt lat="42.582198" lon="-5.54315">
        <ele>856</ele>
        <time>2018-07-23T09:55:41.990Z</time>
      </trkpt>
      <trkpt lat="42.582165" lon="-5.543296">
        <ele>854.68</ele>
        <time>2018-07-23T09:55:43.990Z</time>
      </trkpt>
      <trkpt lat="42.582151" lon="-5.543458">
        <ele>853</ele>
        <time>2018-07-23T09:55:45.990Z</time>
      </trkpt>
      <trkpt lat="42.582158" lon="-5.543637">
        <ele>851.746155057994</ele>
        <time>2018-07-23T09:55:48.000Z</time>
      </trkpt>
      <trkpt lat="42.582165" lon="-5.543836">
        <ele>850.686272541318</ele>
        <time>2018-07-23T09:55:49.990Z</time>
      </trkpt>
      <trkpt lat="42.582178" lon="-5.544058">
        <ele>849</ele>
        <time>2018-07-23T09:55:51.990Z</time>
      </trkpt>
      <trkpt lat="42.582196" lon="-5.544277">
        <ele>848.68</ele>
        <time>2018-07-23T09:55:53.990Z</time>
      </trkpt>
      <trkpt lat="42.582193" lon="-5.544483">
        <ele>848</ele>
        <time>2018-07-23T09:55:55.990Z</time>
      </trkpt>
      <trkpt lat="42.582183" lon="-5.544659">
        <ele>848</ele>
        <time>2018-07-23T09:55:58.000Z</time>
      </trkpt>
      <trkpt lat="42.582167" lon="-5.544781">
        <ele>848</ele>
        <time>2018-07-23T09:55:59.990Z</time>
      </trkpt>
      <trkpt lat="42.582085" lon="-5.544847">
        <ele>849</ele>
        <time>2018-07-23T09:56:03.990Z</time>
      </trkpt>
      <trkpt lat="42.581985" lon="-5.544882">
        <ele>848</ele>
        <time>2018-07-23T09:56:08.000Z</time>
      </trkpt>
      <trkpt lat="42.581916" lon="-5.544984">
        <ele>848</ele>
        <time>2018-07-23T09:56:11.990Z</time>
      </trkpt>
      <trkpt lat="42.58185" lon="-5.54509">
        <ele>848</ele>
        <time>2018-07-23T09:56:15.990Z</time>
      </trkpt>
      <trkpt lat="42.581818" lon="-5.545258">
        <ele>848</ele>
        <time>2018-07-23T09:56:19.990Z</time>
      </trkpt>
      <trkpt lat="42.581783" lon="-5.545433">
        <ele>847</ele>
        <time>2018-07-23T09:56:23.000Z</time>
      </trkpt>
      <trkpt lat="42.581766" lon="-5.545556">
        <ele>847</ele>
        <time>2018-07-23T09:56:24.990Z</time>
      </trkpt>
      <trkpt lat="42.581737" lon="-5.545733">
        <ele>847</ele>
        <time>2018-07-23T09:56:28.000Z</time>
      </trkpt>
      <trkpt lat="42.581705" lon="-5.54591">
        <ele>847</ele>
        <time>2018-07-23T09:56:30.990Z</time>
      </trkpt>
      <trkpt lat="42.581689" lon="-5.546079">
        <ele>847</ele>
        <time>2018-07-23T09:56:33.990Z</time>
      </trkpt>
      <trkpt lat="42.581669" lon="-5.546234">
        <ele>847</ele>
        <time>2018-07-23T09:56:36.990Z</time>
      </trkpt>
      <trkpt lat="42.581649" lon="-5.546396">
        <ele>847</ele>
        <time>2018-07-23T09:56:39.990Z</time>
      </trkpt>
      <trkpt lat="42.581634" lon="-5.546541">
        <ele>847</ele>
        <time>2018-07-23T09:56:43.000Z</time>
      </trkpt>
      <trkpt lat="42.581603" lon="-5.546693">
        <ele>847</ele>
        <time>2018-07-23T09:56:45.990Z</time>
      </trkpt>
      <trkpt lat="42.581578" lon="-5.546852">
        <ele>847</ele>
        <time>2018-07-23T09:56:48.990Z</time>
      </trkpt>
      <trkpt lat="42.581553" lon="-5.547001">
        <ele>847</ele>
        <time>2018-07-23T09:56:51.990Z</time>
      </trkpt>
      <trkpt lat="42.581525" lon="-5.547159">
        <ele>847</ele>
        <time>2018-07-23T09:56:54.960Z</time>
      </trkpt>
      <trkpt lat="42.581526" lon="-5.54733">
        <ele>847</ele>
        <time>2018-07-23T09:56:58.000Z</time>
      </trkpt>
      <trkpt lat="42.581536" lon="-5.547517">
        <ele>845.971419689877</ele>
        <time>2018-07-23T09:57:00.990Z</time>
      </trkpt>
      <trkpt lat="42.581556" lon="-5.547663">
        <ele>844.676768721556</ele>
        <time>2018-07-23T09:57:03.000Z</time>
      </trkpt>
      <trkpt lat="42.581591" lon="-5.547826">
        <ele>843</ele>
        <time>2018-07-23T09:57:04.990Z</time>
      </trkpt>
      <trkpt lat="42.581638" lon="-5.548008">
        <ele>842.36</ele>
        <time>2018-07-23T09:57:06.990Z</time>
      </trkpt>
      <trkpt lat="42.581669" lon="-5.548195">
        <ele>840</ele>
        <time>2018-07-23T09:57:08.990Z</time>
      </trkpt>
      <trkpt lat="42.581681" lon="-5.548351">
        <ele>838</ele>
        <time>2018-07-23T09:57:10.990Z</time>
      </trkpt>
      <trkpt lat="42.581689" lon="-5.5485">
        <ele>838</ele>
        <time>2018-07-23T09:57:13.000Z</time>
      </trkpt>
      <trkpt lat="42.581693" lon="-5.548646">
        <ele>837.68</ele>
        <time>2018-07-23T09:57:14.990Z</time>
      </trkpt>
      <trkpt lat="42.581693" lon="-5.548829">
        <ele>837</ele>
        <time>2018-07-23T09:57:16.990Z</time>
      </trkpt>
      <trkpt lat="42.581682" lon="-5.549005">
        <ele>837</ele>
        <time>2018-07-23T09:57:18.990Z</time>
      </trkpt>
      <trkpt lat="42.581672" lon="-5.549183">
        <ele>837</ele>
        <time>2018-07-23T09:57:20.990Z</time>
      </trkpt>
      <trkpt lat="42.581651" lon="-5.549377">
        <ele>836</ele>
        <time>2018-07-23T09:57:23.000Z</time>
      </trkpt>
      <trkpt lat="42.581619" lon="-5.549568">
        <ele>835</ele>
        <time>2018-07-23T09:57:24.990Z</time>
      </trkpt>
      <trkpt lat="42.581579" lon="-5.549759">
        <ele>834.68</ele>
        <time>2018-07-23T09:57:26.990Z</time>
      </trkpt>
      <trkpt lat="42.581531" lon="-5.549941">
        <ele>834</ele>
        <time>2018-07-23T09:57:28.990Z</time>
      </trkpt>
      <trkpt lat="42.581478" lon="-5.550123">
        <ele>834</ele>
        <time>2018-07-23T09:57:30.990Z</time>
      </trkpt>
      <trkpt lat="42.581433" lon="-5.550305">
        <ele>833</ele>
        <time>2018-07-23T09:57:33.000Z</time>
      </trkpt>
      <trkpt lat="42.581391" lon="-5.550488">
        <ele>833</ele>
        <time>2018-07-23T09:57:34.990Z</time>
      </trkpt>
      <trkpt lat="42.581345" lon="-5.550657">
        <ele>832</ele>
        <time>2018-07-23T09:57:36.990Z</time>
      </trkpt>
      <trkpt lat="42.581302" lon="-5.550825">
        <ele>832</ele>
        <time>2018-07-23T09:57:38.990Z</time>
      </trkpt>
      <trkpt lat="42.581258" lon="-5.550994">
        <ele>831.6499968</ele>
        <time>2018-07-23T09:57:41.020Z</time>
      </trkpt>
      <trkpt lat="42.581187" lon="-5.551243">
        <ele>830</ele>
        <time>2018-07-23T09:57:44.000Z</time>
      </trkpt>
      <trkpt lat="42.581143" lon="-5.551404">
        <ele>829.751881508286</ele>
        <time>2018-07-23T09:57:46.000Z</time>
      </trkpt>
      <trkpt lat="42.581093" lon="-5.55156">
        <ele>829</ele>
        <time>2018-07-23T09:57:48.030Z</time>
      </trkpt>
      <trkpt lat="42.581042" lon="-5.551706">
        <ele>829</ele>
        <time>2018-07-23T09:57:49.990Z</time>
      </trkpt>
      <trkpt lat="42.581006" lon="-5.551856">
        <ele>828</ele>
        <time>2018-07-23T09:57:51.990Z</time>
      </trkpt>
      <trkpt lat="42.580973" lon="-5.551994">
        <ele>828</ele>
        <time>2018-07-23T09:57:53.990Z</time>
      </trkpt>
      <trkpt lat="42.580945" lon="-5.552162">
        <ele>827</ele>
        <time>2018-07-23T09:57:56.990Z</time>
      </trkpt>
      <trkpt lat="42.580922" lon="-5.552326">
        <ele>827</ele>
        <time>2018-07-23T09:57:59.990Z</time>
      </trkpt>
      <trkpt lat="42.580948" lon="-5.552485">
        <ele>827</ele>
        <time>2018-07-23T09:58:03.000Z</time>
      </trkpt>
      <trkpt lat="42.580982" lon="-5.552686">
        <ele>825.750002424242</ele>
        <time>2018-07-23T09:58:06.000Z</time>
      </trkpt>
      <trkpt lat="42.581002" lon="-5.552878">
        <ele>825</ele>
        <time>2018-07-23T09:58:08.020Z</time>
      </trkpt>
      <trkpt lat="42.581022" lon="-5.55304">
        <ele>824.68</ele>
        <time>2018-07-23T09:58:09.990Z</time>
      </trkpt>
      <trkpt lat="42.581061" lon="-5.553207">
        <ele>823</ele>
        <time>2018-07-23T09:58:12.000Z</time>
      </trkpt>
      <trkpt lat="42.581095" lon="-5.553388">
        <ele>823</ele>
        <time>2018-07-23T09:58:13.990Z</time>
      </trkpt>
      <trkpt lat="42.581143" lon="-5.553563">
        <ele>822.68</ele>
        <time>2018-07-23T09:58:15.990Z</time>
      </trkpt>
      <trkpt lat="42.581169" lon="-5.553743">
        <ele>822</ele>
        <time>2018-07-23T09:58:17.990Z</time>
      </trkpt>
      <trkpt lat="42.581215" lon="-5.553908">
        <ele>822</ele>
        <time>2018-07-23T09:58:19.990Z</time>
      </trkpt>
      <trkpt lat="42.581258" lon="-5.554078">
        <ele>822</ele>
        <time>2018-07-23T09:58:22.000Z</time>
      </trkpt>
      <trkpt lat="42.581308" lon="-5.554219">
        <ele>821.68</ele>
        <time>2018-07-23T09:58:23.990Z</time>
      </trkpt>
      <trkpt lat="42.581349" lon="-5.554374">
        <ele>821</ele>
        <time>2018-07-23T09:58:25.990Z</time>
      </trkpt>
      <trkpt lat="42.581389" lon="-5.554516">
        <ele>821</ele>
        <time>2018-07-23T09:58:27.990Z</time>
      </trkpt>
      <trkpt lat="42.581418" lon="-5.554647">
        <ele>821</ele>
        <time>2018-07-23T09:58:29.990Z</time>
      </trkpt>
      <trkpt lat="42.581422" lon="-5.554789">
        <ele>822</ele>
        <time>2018-07-23T09:58:33.990Z</time>
      </trkpt>
      <trkpt lat="42.581435" lon="-5.554936">
        <ele>822</ele>
        <time>2018-07-23T09:58:37.990Z</time>
      </trkpt>
      <trkpt lat="42.581441" lon="-5.555078">
        <ele>822</ele>
        <time>2018-07-23T09:58:42.990Z</time>
      </trkpt>
      <trkpt lat="42.58138" lon="-5.555168">
        <ele>822</ele>
        <time>2018-07-23T09:58:57.990Z</time>
      </trkpt>
      <trkpt lat="42.581445" lon="-5.55528">
        <ele>822</ele>
        <time>2018-07-23T10:02:44.990Z</time>
      </trkpt>
      <trkpt lat="42.581502" lon="-5.555397">
        <ele>822</ele>
        <time>2018-07-23T10:02:48.990Z</time>
      </trkpt>
      <trkpt lat="42.581565" lon="-5.55553">
        <ele>822</ele>
        <time>2018-07-23T10:02:53.000Z</time>
      </trkpt>
      <trkpt lat="42.581631" lon="-5.555642">
        <ele>823.32</ele>
        <time>2018-07-23T10:02:56.990Z</time>
      </trkpt>
      <trkpt lat="42.581701" lon="-5.555763">
        <ele>824</ele>
        <time>2018-07-23T10:03:00.990Z</time>
      </trkpt>
      <trkpt lat="42.581773" lon="-5.555886">
        <ele>824</ele>
        <time>2018-07-23T10:03:04.990Z</time>
      </trkpt>
      <trkpt lat="42.581832" lon="-5.555991">
        <ele>825</ele>
        <time>2018-07-23T10:03:08.990Z</time>
      </trkpt>
      <trkpt lat="42.581893" lon="-5.556109">
        <ele>824</ele>
        <time>2018-07-23T10:03:13.000Z</time>
      </trkpt>
      <trkpt lat="42.581953" lon="-5.556217">
        <ele>824</ele>
        <time>2018-07-23T10:03:15.990Z</time>
      </trkpt>
      <trkpt lat="42.582034" lon="-5.556345">
        <ele>824</ele>
        <time>2018-07-23T10:03:18.990Z</time>
      </trkpt>
      <trkpt lat="42.582117" lon="-5.556435">
        <ele>822.68</ele>
        <time>2018-07-23T10:03:20.990Z</time>
      </trkpt>
      <trkpt lat="42.582206" lon="-5.556523">
        <ele>822</ele>
        <time>2018-07-23T10:03:23.000Z</time>
      </trkpt>
      <trkpt lat="42.582291" lon="-5.556603">
        <ele>821</ele>
        <time>2018-07-23T10:03:24.990Z</time>
      </trkpt>
      <trkpt lat="42.58238" lon="-5.556692">
        <ele>821</ele>
        <time>2018-07-23T10:03:28.000Z</time>
      </trkpt>
      <trkpt lat="42.58248" lon="-5.556662">
        <ele>822</ele>
        <time>2018-07-23T10:03:33.000Z</time>
      </trkpt>
      <trkpt lat="42.582595" lon="-5.556596">
        <ele>822</ele>
        <time>2018-07-23T10:03:39.000Z</time>
      </trkpt>
      <trkpt lat="42.582681" lon="-5.556534">
        <ele>822.3299968</ele>
        <time>2018-07-23T10:03:41.000Z</time>
      </trkpt>
      <trkpt lat="42.582771" lon="-5.556483">
        <ele>823.3299968</ele>
        <time>2018-07-23T10:03:43.000Z</time>
      </trkpt>
      <trkpt lat="42.582811" lon="-5.556372">
        <ele>824</ele>
        <time>2018-07-23T10:03:48.000Z</time>
      </trkpt>
      <trkpt lat="42.582897" lon="-5.556451">
        <ele>824</ele>
        <time>2018-07-23T10:03:54.990Z</time>
      </trkpt>
      <trkpt lat="42.582967" lon="-5.55654">
        <ele>824</ele>
        <time>2018-07-23T10:03:58.000Z</time>
      </trkpt>
      <trkpt lat="42.583021" lon="-5.556654">
        <ele>824</ele>
        <time>2018-07-23T10:04:01.990Z</time>
      </trkpt>
      <trkpt lat="42.583064" lon="-5.556779">
        <ele>824</ele>
        <time>2018-07-23T10:04:06.990Z</time>
      </trkpt>
      <trkpt lat="42.583154" lon="-5.556887">
        <ele>824</ele>
        <time>2018-07-23T10:04:11.020Z</time>
      </trkpt>
      <trkpt lat="42.583258" lon="-5.55697">
        <ele>824</ele>
        <time>2018-07-23T10:04:13.990Z</time>
      </trkpt>
      <trkpt lat="42.583357" lon="-5.557064">
        <ele>824</ele>
        <time>2018-07-23T10:04:16.990Z</time>
      </trkpt>
      <trkpt lat="42.583455" lon="-5.557125">
        <ele>824</ele>
        <time>2018-07-23T10:04:19.990Z</time>
      </trkpt>
      <trkpt lat="42.583554" lon="-5.557192">
        <ele>824</ele>
        <time>2018-07-23T10:04:23.000Z</time>
      </trkpt>
      <trkpt lat="42.58366" lon="-5.557278">
        <ele>825</ele>
        <time>2018-07-23T10:04:25.990Z</time>
      </trkpt>
      <trkpt lat="42.583748" lon="-5.557369">
        <ele>824.985493535162</ele>
        <time>2018-07-23T10:04:28.990Z</time>
      </trkpt>
      <trkpt lat="42.58383" lon="-5.557453">
        <ele>824</ele>
        <time>2018-07-23T10:04:31.990Z</time>
      </trkpt>
      <trkpt lat="42.583913" lon="-5.557546">
        <ele>824</ele>
        <time>2018-07-23T10:04:34.990Z</time>
      </trkpt>
      <trkpt lat="42.584008" lon="-5.557654">
        <ele>824</ele>
        <time>2018-07-23T10:04:38.000Z</time>
      </trkpt>
      <trkpt lat="42.584108" lon="-5.557756">
        <ele>824</ele>
        <time>2018-07-23T10:04:40.960Z</time>
      </trkpt>
      <trkpt lat="42.584212" lon="-5.557864">
        <ele>824</ele>
        <time>2018-07-23T10:04:43.990Z</time>
      </trkpt>
      <trkpt lat="42.584309" lon="-5.557973">
        <ele>825</ele>
        <time>2018-07-23T10:04:46.990Z</time>
      </trkpt>
      <trkpt lat="42.584414" lon="-5.558064">
        <ele>825</ele>
        <time>2018-07-23T10:04:49.960Z</time>
      </trkpt>
      <trkpt lat="42.584515" lon="-5.558162">
        <ele>825</ele>
        <time>2018-07-23T10:04:53.000Z</time>
      </trkpt>
      <trkpt lat="42.584605" lon="-5.558248">
        <ele>825</ele>
        <time>2018-07-23T10:04:55.990Z</time>
      </trkpt>
      <trkpt lat="42.584695" lon="-5.558334">
        <ele>825</ele>
        <time>2018-07-23T10:04:58.990Z</time>
      </trkpt>
      <trkpt lat="42.584768" lon="-5.558417">
        <ele>825</ele>
        <time>2018-07-23T10:05:01.990Z</time>
      </trkpt>
      <trkpt lat="42.584837" lon="-5.558499">
        <ele>825</ele>
        <time>2018-07-23T10:05:04.960Z</time>
      </trkpt>
      <trkpt lat="42.584922" lon="-5.558562">
        <ele>825</ele>
        <time>2018-07-23T10:05:08.030Z</time>
      </trkpt>
      <trkpt lat="42.584997" lon="-5.558645">
        <ele>825</ele>
        <time>2018-07-23T10:05:11.990Z</time>
      </trkpt>
      <trkpt lat="42.585101" lon="-5.558692">
        <ele>825</ele>
        <time>2018-07-23T10:05:16.990Z</time>
      </trkpt>
      <trkpt lat="42.585186" lon="-5.558731">
        <ele>825</ele>
        <time>2018-07-23T10:05:19.990Z</time>
      </trkpt>
      <trkpt lat="42.585264" lon="-5.558799">
        <ele>825</ele>
        <time>2018-07-23T10:05:23.990Z</time>
      </trkpt>
      <trkpt lat="42.585349" lon="-5.558872">
        <ele>825</ele>
        <time>2018-07-23T10:05:27.020Z</time>
      </trkpt>
      <trkpt lat="42.585432" lon="-5.558953">
        <ele>825</ele>
        <time>2018-07-23T10:05:29.990Z</time>
      </trkpt>
      <trkpt lat="42.585514" lon="-5.559028">
        <ele>825</ele>
        <time>2018-07-23T10:05:33.000Z</time>
      </trkpt>
      <trkpt lat="42.585603" lon="-5.559082">
        <ele>825</ele>
        <time>2018-07-23T10:05:35.990Z</time>
      </trkpt>
      <trkpt lat="42.58571" lon="-5.559175">
        <ele>825</ele>
        <time>2018-07-23T10:05:39.000Z</time>
      </trkpt>
      <trkpt lat="42.58579" lon="-5.559242">
        <ele>825</ele>
        <time>2018-07-23T10:05:41.000Z</time>
      </trkpt>
      <trkpt lat="42.585862" lon="-5.559323">
        <ele>825</ele>
        <time>2018-07-23T10:05:43.000Z</time>
      </trkpt>
      <trkpt lat="42.585937" lon="-5.559401">
        <ele>825</ele>
        <time>2018-07-23T10:05:45.000Z</time>
      </trkpt>
      <trkpt lat="42.586031" lon="-5.559509">
        <ele>824.746155057994</ele>
        <time>2018-07-23T10:05:48.000Z</time>
      </trkpt>
      <trkpt lat="42.586104" lon="-5.559587">
        <ele>824</ele>
        <time>2018-07-23T10:05:50.000Z</time>
      </trkpt>
      <trkpt lat="42.586173" lon="-5.559665">
        <ele>824.3299968</ele>
        <time>2018-07-23T10:05:52.000Z</time>
      </trkpt>
      <trkpt lat="42.586256" lon="-5.559748">
        <ele>825</ele>
        <time>2018-07-23T10:05:55.000Z</time>
      </trkpt>
      <trkpt lat="42.586347" lon="-5.559817">
        <ele>825</ele>
        <time>2018-07-23T10:05:58.000Z</time>
      </trkpt>
      <trkpt lat="42.58642" lon="-5.559904">
        <ele>825</ele>
        <time>2018-07-23T10:06:01.000Z</time>
      </trkpt>
      <trkpt lat="42.586494" lon="-5.559996">
        <ele>825</ele>
        <time>2018-07-23T10:06:04.000Z</time>
      </trkpt>
      <trkpt lat="42.586575" lon="-5.560082">
        <ele>825</ele>
        <time>2018-07-23T10:06:07.000Z</time>
      </trkpt>
      <trkpt lat="42.586675" lon="-5.56016">
        <ele>825</ele>
        <time>2018-07-23T10:06:10.000Z</time>
      </trkpt>
      <trkpt lat="42.586779" lon="-5.560249">
        <ele>825</ele>
        <time>2018-07-23T10:06:13.000Z</time>
      </trkpt>
      <trkpt lat="42.586879" lon="-5.560336">
        <ele>825</ele>
        <time>2018-07-23T10:06:16.000Z</time>
      </trkpt>
      <trkpt lat="42.586976" lon="-5.560434">
        <ele>825</ele>
        <time>2018-07-23T10:06:19.000Z</time>
      </trkpt>
      <trkpt lat="42.587035" lon="-5.56053">
        <ele>825</ele>
        <time>2018-07-23T10:06:21.000Z</time>
      </trkpt>
      <trkpt lat="42.587091" lon="-5.560654">
        <ele>825</ele>
        <time>2018-07-23T10:06:24.000Z</time>
      </trkpt>
      <trkpt lat="42.587123" lon="-5.56077">
        <ele>825</ele>
        <time>2018-07-23T10:06:27.000Z</time>
      </trkpt>
      <trkpt lat="42.58716" lon="-5.560899">
        <ele>825</ele>
        <time>2018-07-23T10:06:30.000Z</time>
      </trkpt>
      <trkpt lat="42.587195" lon="-5.561026">
        <ele>825</ele>
        <time>2018-07-23T10:06:33.000Z</time>
      </trkpt>
      <trkpt lat="42.587248" lon="-5.561176">
        <ele>825</ele>
        <time>2018-07-23T10:06:36.000Z</time>
      </trkpt>
      <trkpt lat="42.587289" lon="-5.56129">
        <ele>825</ele>
        <time>2018-07-23T10:06:39.000Z</time>
      </trkpt>
      <trkpt lat="42.587375" lon="-5.561399">
        <ele>825</ele>
        <time>2018-07-23T10:06:46.000Z</time>
      </trkpt>
      <trkpt lat="42.587483" lon="-5.561222">
        <ele>825</ele>
        <time>2018-07-23T10:06:58.000Z</time>
      </trkpt>
      <trkpt lat="42.587493" lon="-5.561032">
        <ele>825</ele>
        <time>2018-07-23T10:07:01.000Z</time>
      </trkpt>
      <trkpt lat="42.587652" lon="-5.560971">
        <ele>825</ele>
        <time>2018-07-23T10:07:06.000Z</time>
      </trkpt>
      <trkpt lat="42.587747" lon="-5.561011">
        <ele>825</ele>
        <time>2018-07-23T10:07:08.000Z</time>
      </trkpt>
      <trkpt lat="42.587822" lon="-5.561091">
        <ele>825</ele>
        <time>2018-07-23T10:07:10.030Z</time>
      </trkpt>
      <trkpt lat="42.5879" lon="-5.561179">
        <ele>825</ele>
        <time>2018-07-23T10:07:11.990Z</time>
      </trkpt>
      <trkpt lat="42.588002" lon="-5.561284">
        <ele>825</ele>
        <time>2018-07-23T10:07:15.000Z</time>
      </trkpt>
      <trkpt lat="42.588074" lon="-5.561361">
        <ele>825</ele>
        <time>2018-07-23T10:07:17.990Z</time>
      </trkpt>
      <trkpt lat="42.588172" lon="-5.561432">
        <ele>825</ele>
        <time>2018-07-23T10:07:20.990Z</time>
      </trkpt>
      <trkpt lat="42.588286" lon="-5.561514">
        <ele>825</ele>
        <time>2018-07-23T10:07:23.990Z</time>
      </trkpt>
      <trkpt lat="42.588377" lon="-5.561594">
        <ele>825</ele>
        <time>2018-07-23T10:07:26.020Z</time>
      </trkpt>
      <trkpt lat="42.588479" lon="-5.56167">
        <ele>825</ele>
        <time>2018-07-23T10:07:28.990Z</time>
      </trkpt>
      <trkpt lat="42.588564" lon="-5.561727">
        <ele>825</ele>
        <time>2018-07-23T10:07:31.990Z</time>
      </trkpt>
      <trkpt lat="42.588657" lon="-5.561748">
        <ele>825</ele>
        <time>2018-07-23T10:07:35.000Z</time>
      </trkpt>
      <trkpt lat="42.588755" lon="-5.561784">
        <ele>825</ele>
        <time>2018-07-23T10:07:37.990Z</time>
      </trkpt>
      <trkpt lat="42.588851" lon="-5.56179">
        <ele>825</ele>
        <time>2018-07-23T10:07:40.990Z</time>
      </trkpt>
      <trkpt lat="42.588921" lon="-5.561983">
        <ele>825</ele>
        <time>2018-07-23T10:07:46.000Z</time>
      </trkpt>
      <trkpt lat="42.58894" lon="-5.562134">
        <ele>825</ele>
        <time>2018-07-23T10:07:49.000Z</time>
      </trkpt>
      <trkpt lat="42.589089" lon="-5.562006">
        <ele>825</ele>
        <time>2018-07-23T10:07:54.000Z</time>
      </trkpt>
      <trkpt lat="42.589214" lon="-5.562042">
        <ele>825.746155057994</ele>
        <time>2018-07-23T10:07:57.000Z</time>
      </trkpt>
      <trkpt lat="42.589312" lon="-5.562041">
        <ele>825</ele>
        <time>2018-07-23T10:08:01.100Z</time>
      </trkpt>
      <trkpt lat="42.589416" lon="-5.56189">
        <ele>825</ele>
        <time>2018-07-23T10:08:05.990Z</time>
      </trkpt>
      <trkpt lat="42.589511" lon="-5.561868">
        <ele>826</ele>
        <time>2018-07-23T10:08:09.000Z</time>
      </trkpt>
      <trkpt lat="42.589589" lon="-5.561981">
        <ele>826</ele>
        <time>2018-07-23T10:08:10.000Z</time>
      </trkpt>
      <trkpt lat="42.589565" lon="-5.562109">
        <ele>826</ele>
        <time>2018-07-23T10:08:12.000Z</time>
      </trkpt>
      <trkpt lat="42.589663" lon="-5.562084">
        <ele>825.971419689877</ele>
        <time>2018-07-23T10:08:14.990Z</time>
      </trkpt>
      <trkpt lat="42.589674" lon="-5.562214">
        <ele>825</ele>
        <time>2018-07-23T10:08:18.960Z</time>
      </trkpt>
      <trkpt lat="42.589714" lon="-5.562324">
        <ele>826</ele>
        <time>2018-07-23T10:08:23.990Z</time>
      </trkpt>
      <trkpt lat="42.589792" lon="-5.562413">
        <ele>826</ele>
        <time>2018-07-23T10:08:27.000Z</time>
      </trkpt>
      <trkpt lat="42.589883" lon="-5.56251">
        <ele>826</ele>
        <time>2018-07-23T10:08:29.990Z</time>
      </trkpt>
      <trkpt lat="42.589967" lon="-5.5626">
        <ele>826</ele>
        <time>2018-07-23T10:08:32.990Z</time>
      </trkpt>
      <trkpt lat="42.590045" lon="-5.562716">
        <ele>826</ele>
        <time>2018-07-23T10:08:35.990Z</time>
      </trkpt>
      <trkpt lat="42.590134" lon="-5.562822">
        <ele>826</ele>
        <time>2018-07-23T10:08:38.990Z</time>
      </trkpt>
      <trkpt lat="42.590193" lon="-5.562915">
        <ele>827</ele>
        <time>2018-07-23T10:08:43.990Z</time>
      </trkpt>
      <trkpt lat="42.590291" lon="-5.562995">
        <ele>827</ele>
        <time>2018-07-23T10:08:47.000Z</time>
      </trkpt>
      <trkpt lat="42.590372" lon="-5.563087">
        <ele>827</ele>
        <time>2018-07-23T10:08:49.990Z</time>
      </trkpt>
      <trkpt lat="42.59044" lon="-5.56319">
        <ele>827</ele>
        <time>2018-07-23T10:08:52.990Z</time>
      </trkpt>
      <trkpt lat="42.590537" lon="-5.563331">
        <ele>827</ele>
        <time>2018-07-23T10:08:58.000Z</time>
      </trkpt>
      <trkpt lat="42.590617" lon="-5.563416">
        <ele>827</ele>
        <time>2018-07-23T10:09:00.000Z</time>
      </trkpt>
      <trkpt lat="42.590709" lon="-5.563374">
        <ele>827</ele>
        <time>2018-07-23T10:09:02.000Z</time>
      </trkpt>
      <trkpt lat="42.590818" lon="-5.563243">
        <ele>827</ele>
        <time>2018-07-23T10:09:04.000Z</time>
      </trkpt>
      <trkpt lat="42.59093" lon="-5.563094">
        <ele>827</ele>
        <time>2018-07-23T10:09:12.000Z</time>
      </trkpt>
      <trkpt lat="42.591024" lon="-5.563129">
        <ele>827</ele>
        <time>2018-07-23T10:09:21.990Z</time>
      </trkpt>
      <trkpt lat="42.591127" lon="-5.563212">
        <ele>827</ele>
        <time>2018-07-23T10:10:29.990Z</time>
      </trkpt>
      <trkpt lat="42.591209" lon="-5.563296">
        <ele>827</ele>
        <time>2018-07-23T10:10:32.960Z</time>
      </trkpt>
      <trkpt lat="42.591274" lon="-5.563439">
        <ele>827</ele>
        <time>2018-07-23T10:10:35.990Z</time>
      </trkpt>
      <trkpt lat="42.591347" lon="-5.56359">
        <ele>827</ele>
        <time>2018-07-23T10:10:39.000Z</time>
      </trkpt>
      <trkpt lat="42.59139" lon="-5.563705">
        <ele>827</ele>
        <time>2018-07-23T10:10:40.990Z</time>
      </trkpt>
      <trkpt lat="42.591457" lon="-5.563846">
        <ele>827</ele>
        <time>2018-07-23T10:10:43.970Z</time>
      </trkpt>
      <trkpt lat="42.591521" lon="-5.563989">
        <ele>827</ele>
        <time>2018-07-23T10:10:46.990Z</time>
      </trkpt>
      <trkpt lat="42.591567" lon="-5.564112">
        <ele>827</ele>
        <time>2018-07-23T10:10:50.020Z</time>
      </trkpt>
      <trkpt lat="42.591636" lon="-5.564242">
        <ele>828</ele>
        <time>2018-07-23T10:11:01.990Z</time>
      </trkpt>
      <trkpt lat="42.591688" lon="-5.56436">
        <ele>827</ele>
        <time>2018-07-23T10:11:04.990Z</time>
      </trkpt>
      <trkpt lat="42.591686" lon="-5.564518">
        <ele>827</ele>
        <time>2018-07-23T10:11:08.000Z</time>
      </trkpt>
      <trkpt lat="42.591643" lon="-5.564702">
        <ele>827</ele>
        <time>2018-07-23T10:11:10.000Z</time>
      </trkpt>
      <trkpt lat="42.591661" lon="-5.564844">
        <ele>827</ele>
        <time>2018-07-23T10:11:13.000Z</time>
      </trkpt>
      <trkpt lat="42.591728" lon="-5.564982">
        <ele>827</ele>
        <time>2018-07-23T10:11:15.000Z</time>
      </trkpt>
      <trkpt lat="42.591802" lon="-5.565144">
        <ele>827.32</ele>
        <time>2018-07-23T10:11:17.990Z</time>
      </trkpt>
      <trkpt lat="42.591868" lon="-5.565232">
        <ele>828</ele>
        <time>2018-07-23T10:11:19.990Z</time>
      </trkpt>
      <trkpt lat="42.59193" lon="-5.565346">
        <ele>828</ele>
        <time>2018-07-23T10:11:22.000Z</time>
      </trkpt>
      <trkpt lat="42.591988" lon="-5.565478">
        <ele>828</ele>
        <time>2018-07-23T10:11:24.000Z</time>
      </trkpt>
      <trkpt lat="42.592028" lon="-5.565605">
        <ele>828</ele>
        <time>2018-07-23T10:11:26.020Z</time>
      </trkpt>
      <trkpt lat="42.592077" lon="-5.56571">
        <ele>828</ele>
        <time>2018-07-23T10:11:27.990Z</time>
      </trkpt>
      <trkpt lat="42.592117" lon="-5.565866">
        <ele>828.32</ele>
        <time>2018-07-23T10:11:30.990Z</time>
      </trkpt>
      <trkpt lat="42.592169" lon="-5.566">
        <ele>829</ele>
        <time>2018-07-23T10:11:34.000Z</time>
      </trkpt>
      <trkpt lat="42.592248" lon="-5.566074">
        <ele>829</ele>
        <time>2018-07-23T10:11:36.960Z</time>
      </trkpt>
      <trkpt lat="42.592357" lon="-5.566101">
        <ele>829</ele>
        <time>2018-07-23T10:11:41.990Z</time>
      </trkpt>
      <trkpt lat="42.592427" lon="-5.56618">
        <ele>829</ele>
        <time>2018-07-23T10:11:45.990Z</time>
      </trkpt>
      <trkpt lat="42.592481" lon="-5.566309">
        <ele>829</ele>
        <time>2018-07-23T10:11:51.990Z</time>
      </trkpt>
      <trkpt lat="42.592537" lon="-5.566408">
        <ele>829</ele>
        <time>2018-07-23T10:11:54.990Z</time>
      </trkpt>
      <trkpt lat="42.592615" lon="-5.566502">
        <ele>829</ele>
        <time>2018-07-23T10:11:57.990Z</time>
      </trkpt>
      <trkpt lat="42.592698" lon="-5.566624">
        <ele>829</ele>
        <time>2018-07-23T10:12:01.000Z</time>
      </trkpt>
      <trkpt lat="42.592753" lon="-5.566768">
        <ele>829</ele>
        <time>2018-07-23T10:12:04.970Z</time>
      </trkpt>
      <trkpt lat="42.592833" lon="-5.566864">
        <ele>829</ele>
        <time>2018-07-23T10:12:10.000Z</time>
      </trkpt>
      <trkpt lat="42.592915" lon="-5.566914">
        <ele>829</ele>
        <time>2018-07-23T10:12:13.000Z</time>
      </trkpt>
      <trkpt lat="42.59296" lon="-5.567023">
        <ele>829</ele>
        <time>2018-07-23T10:12:15.960Z</time>
      </trkpt>
      <trkpt lat="42.593009" lon="-5.56713">
        <ele>829</ele>
        <time>2018-07-23T10:12:18.990Z</time>
      </trkpt>
      <trkpt lat="42.593111" lon="-5.567213">
        <ele>829</ele>
        <time>2018-07-23T10:12:23.000Z</time>
      </trkpt>
      <trkpt lat="42.593195" lon="-5.567324">
        <ele>829</ele>
        <time>2018-07-23T10:12:26.000Z</time>
      </trkpt>
      <trkpt lat="42.593258" lon="-5.56745">
        <ele>829</ele>
        <time>2018-07-23T10:12:30.000Z</time>
      </trkpt>
      <trkpt lat="42.593336" lon="-5.567535">
        <ele>829</ele>
        <time>2018-07-23T10:12:33.000Z</time>
      </trkpt>
      <trkpt lat="42.59342" lon="-5.567609">
        <ele>829</ele>
        <time>2018-07-23T10:12:36.000Z</time>
      </trkpt>
      <trkpt lat="42.593496" lon="-5.567703">
        <ele>829</ele>
        <time>2018-07-23T10:12:43.100Z</time>
      </trkpt>
      <trkpt lat="42.593603" lon="-5.567777">
        <ele>829</ele>
        <time>2018-07-23T10:12:47.000Z</time>
      </trkpt>
      <trkpt lat="42.593675" lon="-5.567887">
        <ele>829</ele>
        <time>2018-07-23T10:12:49.960Z</time>
      </trkpt>
      <trkpt lat="42.593758" lon="-5.568004">
        <ele>830</ele>
        <time>2018-07-23T10:12:54.000Z</time>
      </trkpt>
      <trkpt lat="42.593831" lon="-5.568087">
        <ele>830</ele>
        <time>2018-07-23T10:12:58.990Z</time>
      </trkpt>
      <trkpt lat="42.593923" lon="-5.568147">
        <ele>830</ele>
        <time>2018-07-23T10:13:03.000Z</time>
      </trkpt>
      <trkpt lat="42.594" lon="-5.568252">
        <ele>830.249997575758</ele>
        <time>2018-07-23T10:13:06.000Z</time>
      </trkpt>
      <trkpt lat="42.594071" lon="-5.568354">
        <ele>831</ele>
        <time>2018-07-23T10:13:12.000Z</time>
      </trkpt>
      <trkpt lat="42.59415" lon="-5.568463">
        <ele>832</ele>
        <time>2018-07-23T10:13:18.000Z</time>
      </trkpt>
      <trkpt lat="42.594234" lon="-5.56851">
        <ele>832</ele>
        <time>2018-07-23T10:13:21.000Z</time>
      </trkpt>
      <trkpt lat="42.594328" lon="-5.568567">
        <ele>832</ele>
        <time>2018-07-23T10:13:24.000Z</time>
      </trkpt>
      <trkpt lat="42.594407" lon="-5.568627">
        <ele>832</ele>
        <time>2018-07-23T10:13:27.000Z</time>
      </trkpt>
      <trkpt lat="42.59448" lon="-5.568702">
        <ele>832</ele>
        <time>2018-07-23T10:13:30.000Z</time>
      </trkpt>
      <trkpt lat="42.59455" lon="-5.568803">
        <ele>832</ele>
        <time>2018-07-23T10:13:33.000Z</time>
      </trkpt>
      <trkpt lat="42.594608" lon="-5.5689">
        <ele>832.3299968</ele>
        <time>2018-07-23T10:13:36.000Z</time>
      </trkpt>
      <trkpt lat="42.594678" lon="-5.569002">
        <ele>833</ele>
        <time>2018-07-23T10:14:06.990Z</time>
      </trkpt>
      <trkpt lat="42.594777" lon="-5.569097">
        <ele>833</ele>
        <time>2018-07-23T10:14:11.000Z</time>
      </trkpt>
      <trkpt lat="42.594863" lon="-5.569141">
        <ele>834</ele>
        <time>2018-07-23T10:14:14.000Z</time>
      </trkpt>
      <trkpt lat="42.594961" lon="-5.569165">
        <ele>834</ele>
        <time>2018-07-23T10:14:18.000Z</time>
      </trkpt>
      <trkpt lat="42.595045" lon="-5.569251">
        <ele>834</ele>
        <time>2018-07-23T10:14:21.000Z</time>
      </trkpt>
      <trkpt lat="42.595116" lon="-5.569352">
        <ele>834</ele>
        <time>2018-07-23T10:14:24.000Z</time>
      </trkpt>
      <trkpt lat="42.595199" lon="-5.569469">
        <ele>834</ele>
        <time>2018-07-23T10:14:27.000Z</time>
      </trkpt>
      <trkpt lat="42.595273" lon="-5.569569">
        <ele>835</ele>
        <time>2018-07-23T10:14:30.000Z</time>
      </trkpt>
      <trkpt lat="42.595374" lon="-5.569646">
        <ele>835</ele>
        <time>2018-07-23T10:14:33.990Z</time>
      </trkpt>
      <trkpt lat="42.595467" lon="-5.569662">
        <ele>836</ele>
        <time>2018-07-23T10:14:37.000Z</time>
      </trkpt>
      <trkpt lat="42.595564" lon="-5.569701">
        <ele>836</ele>
        <time>2018-07-23T10:14:41.000Z</time>
      </trkpt>
      <trkpt lat="42.595649" lon="-5.569752">
        <ele>836</ele>
        <time>2018-07-23T10:14:44.000Z</time>
      </trkpt>
      <trkpt lat="42.595764" lon="-5.569766">
        <ele>836</ele>
        <time>2018-07-23T10:14:48.000Z</time>
      </trkpt>
      <trkpt lat="42.595897" lon="-5.56977">
        <ele>836</ele>
        <time>2018-07-23T10:14:52.000Z</time>
      </trkpt>
      <trkpt lat="42.596014" lon="-5.569799">
        <ele>836</ele>
        <time>2018-07-23T10:14:58.000Z</time>
      </trkpt>
      <trkpt lat="42.596108" lon="-5.569785">
        <ele>836</ele>
        <time>2018-07-23T10:15:02.000Z</time>
      </trkpt>
      <trkpt lat="42.5962" lon="-5.569807">
        <ele>836</ele>
        <time>2018-07-23T10:15:04.960Z</time>
      </trkpt>
      <trkpt lat="42.596284" lon="-5.569883">
        <ele>837</ele>
        <time>2018-07-23T10:15:09.990Z</time>
      </trkpt>
      <trkpt lat="42.596382" lon="-5.569919">
        <ele>837</ele>
        <time>2018-07-23T10:15:13.990Z</time>
      </trkpt>
      <trkpt lat="42.59647" lon="-5.569974">
        <ele>837</ele>
        <time>2018-07-23T10:15:18.000Z</time>
      </trkpt>
      <trkpt lat="42.596574" lon="-5.569989">
        <ele>837</ele>
        <time>2018-07-23T10:15:21.990Z</time>
      </trkpt>
      <trkpt lat="42.596701" lon="-5.569975">
        <ele>837</ele>
        <time>2018-07-23T10:15:28.000Z</time>
      </trkpt>
      <trkpt lat="42.596793" lon="-5.569972">
        <ele>837</ele>
        <time>2018-07-23T10:15:31.000Z</time>
      </trkpt>
      <trkpt lat="42.59689" lon="-5.570025">
        <ele>838</ele>
        <time>2018-07-23T10:15:35.000Z</time>
      </trkpt>
      <trkpt lat="42.597021" lon="-5.570114">
        <ele>838</ele>
        <time>2018-07-23T10:15:40.000Z</time>
      </trkpt>
      <trkpt lat="42.597121" lon="-5.570156">
        <ele>838</ele>
        <time>2018-07-23T10:15:43.000Z</time>
      </trkpt>
      <trkpt lat="42.597248" lon="-5.570165">
        <ele>838</ele>
        <time>2018-07-23T10:15:47.000Z</time>
      </trkpt>
      <trkpt lat="42.59736" lon="-5.570135">
        <ele>838</ele>
        <time>2018-07-23T10:15:51.000Z</time>
      </trkpt>
      <trkpt lat="42.597462" lon="-5.570156">
        <ele>838</ele>
        <time>2018-07-23T10:15:57.000Z</time>
      </trkpt>
      <trkpt lat="42.597581" lon="-5.570184">
        <ele>838</ele>
        <time>2018-07-23T10:16:01.000Z</time>
      </trkpt>
      <trkpt lat="42.597697" lon="-5.570214">
        <ele>839</ele>
        <time>2018-07-23T10:16:06.000Z</time>
      </trkpt>
      <trkpt lat="42.597796" lon="-5.570216">
        <ele>839</ele>
        <time>2018-07-23T10:16:09.000Z</time>
      </trkpt>
      <trkpt lat="42.597899" lon="-5.570287">
        <ele>839</ele>
        <time>2018-07-23T10:16:13.000Z</time>
      </trkpt>
      <trkpt lat="42.598007" lon="-5.570325">
        <ele>838</ele>
        <time>2018-07-23T10:16:16.000Z</time>
      </trkpt>
      <trkpt lat="42.598099" lon="-5.570328">
        <ele>839</ele>
        <time>2018-07-23T10:16:24.990Z</time>
      </trkpt>
      <trkpt lat="42.598135" lon="-5.570205">
        <ele>839</ele>
        <time>2018-07-23T10:16:32.020Z</time>
      </trkpt>
      <trkpt lat="42.598176" lon="-5.570068">
        <ele>839</ele>
        <time>2018-07-23T10:16:36.980Z</time>
      </trkpt>
      <trkpt lat="42.598224" lon="-5.569912">
        <ele>839</ele>
        <time>2018-07-23T10:16:41.000Z</time>
      </trkpt>
      <trkpt lat="42.598248" lon="-5.569789">
        <ele>840</ele>
        <time>2018-07-23T10:16:44.000Z</time>
      </trkpt>
      <trkpt lat="42.598263" lon="-5.569667">
        <ele>840</ele>
        <time>2018-07-23T10:16:48.000Z</time>
      </trkpt>
      <trkpt lat="42.598323" lon="-5.569548">
        <ele>840</ele>
        <time>2018-07-23T10:16:55.000Z</time>
      </trkpt>
      <trkpt lat="42.598385" lon="-5.569436">
        <ele>841</ele>
        <time>2018-07-23T10:16:59.000Z</time>
      </trkpt>
      <trkpt lat="42.598374" lon="-5.569291">
        <ele>841</ele>
        <time>2018-07-23T10:17:07.000Z</time>
      </trkpt>
      <trkpt lat="42.598407" lon="-5.569154">
        <ele>842</ele>
        <time>2018-07-23T10:17:11.990Z</time>
      </trkpt>
      <trkpt lat="42.598418" lon="-5.569015">
        <ele>842</ele>
        <time>2018-07-23T10:17:16.000Z</time>
      </trkpt>
      <trkpt lat="42.598431" lon="-5.568889">
        <ele>842</ele>
        <time>2018-07-23T10:17:19.000Z</time>
      </trkpt>
      <trkpt lat="42.598468" lon="-5.568744">
        <ele>843</ele>
        <time>2018-07-23T10:17:21.990Z</time>
      </trkpt>
      <trkpt lat="42.598503" lon="-5.56862">
        <ele>843</ele>
        <time>2018-07-23T10:17:24.990Z</time>
      </trkpt>
      <trkpt lat="42.598549" lon="-5.568481">
        <ele>843</ele>
        <time>2018-07-23T10:17:29.000Z</time>
      </trkpt>
      <trkpt lat="42.598568" lon="-5.568346">
        <ele>843</ele>
        <time>2018-07-23T10:17:32.000Z</time>
      </trkpt>
      <trkpt lat="42.598597" lon="-5.56817">
        <ele>843</ele>
        <time>2018-07-23T10:17:36.000Z</time>
      </trkpt>
      <trkpt lat="42.598638" lon="-5.568021">
        <ele>843</ele>
        <time>2018-07-23T10:17:39.000Z</time>
      </trkpt>
      <trkpt lat="42.598681" lon="-5.567845">
        <ele>844</ele>
        <time>2018-07-23T10:17:41.990Z</time>
      </trkpt>
      <trkpt lat="42.598689" lon="-5.567699">
        <ele>844</ele>
        <time>2018-07-23T10:17:44.970Z</time>
      </trkpt>
      <trkpt lat="42.598718" lon="-5.56756">
        <ele>844</ele>
        <time>2018-07-23T10:17:48.020Z</time>
      </trkpt>
      <trkpt lat="42.598815" lon="-5.567442">
        <ele>845</ele>
        <time>2018-07-23T10:17:52.000Z</time>
      </trkpt>
      <trkpt lat="42.598922" lon="-5.567413">
        <ele>845</ele>
        <time>2018-07-23T10:17:55.000Z</time>
      </trkpt>
      <trkpt lat="42.599028" lon="-5.567412">
        <ele>844.32</ele>
        <time>2018-07-23T10:17:58.990Z</time>
      </trkpt>
      <trkpt lat="42.599154" lon="-5.567399">
        <ele>845</ele>
        <time>2018-07-23T10:18:03.000Z</time>
      </trkpt>
      <trkpt lat="42.599247" lon="-5.567403">
        <ele>845</ele>
        <time>2018-07-23T10:18:09.990Z</time>
      </trkpt>
      <trkpt lat="42.599296" lon="-5.567287">
        <ele>845</ele>
        <time>2018-07-23T10:18:14.990Z</time>
      </trkpt>
      <trkpt lat="42.59925" lon="-5.567182">
        <ele>845</ele>
        <time>2018-07-23T10:18:37.990Z</time>
      </trkpt>
      <trkpt lat="42.599353" lon="-5.567183">
        <ele>845</ele>
        <time>2018-07-23T10:19:12.000Z</time>
      </trkpt>
      <trkpt lat="42.599248" lon="-5.567173">
        <ele>845</ele>
        <time>2018-07-23T10:19:24.990Z</time>
      </trkpt>
      <trkpt lat="42.59924" lon="-5.5673">
        <ele>845</ele>
        <time>2018-07-23T10:19:43.990Z</time>
      </trkpt>
      <trkpt lat="42.599301" lon="-5.567408">
        <ele>846</ele>
        <time>2018-07-23T10:21:33.990Z</time>
      </trkpt>
      <trkpt lat="42.599294" lon="-5.567532">
        <ele>846</ele>
        <time>2018-07-23T10:21:38.000Z</time>
      </trkpt>
      <trkpt lat="42.599273" lon="-5.567669">
        <ele>846</ele>
        <time>2018-07-23T10:21:45.000Z</time>
      </trkpt>
      <trkpt lat="42.599265" lon="-5.567796">
        <ele>845</ele>
        <time>2018-07-23T10:21:50.000Z</time>
      </trkpt>
      <trkpt lat="42.599234" lon="-5.567926">
        <ele>845</ele>
        <time>2018-07-23T10:21:53.000Z</time>
      </trkpt>
      <trkpt lat="42.599249" lon="-5.568098">
        <ele>845</ele>
        <time>2018-07-23T10:21:56.000Z</time>
      </trkpt>
      <trkpt lat="42.599286" lon="-5.568247">
        <ele>845</ele>
        <time>2018-07-23T10:21:59.000Z</time>
      </trkpt>
      <trkpt lat="42.599269" lon="-5.568375">
        <ele>845</ele>
        <time>2018-07-23T10:22:02.000Z</time>
      </trkpt>
      <trkpt lat="42.599235" lon="-5.568489">
        <ele>845</ele>
        <time>2018-07-23T10:22:06.000Z</time>
      </trkpt>
      <trkpt lat="42.59921" lon="-5.568609">
        <ele>845</ele>
        <time>2018-07-23T10:22:09.000Z</time>
      </trkpt>
      <trkpt lat="42.599181" lon="-5.568789">
        <ele>845</ele>
        <time>2018-07-23T10:22:13.000Z</time>
      </trkpt>
      <trkpt lat="42.599153" lon="-5.568905">
        <ele>844</ele>
        <time>2018-07-23T10:22:16.000Z</time>
      </trkpt>
      <trkpt lat="42.599159" lon="-5.569046">
        <ele>844</ele>
        <time>2018-07-23T10:22:20.000Z</time>
      </trkpt>
      <trkpt lat="42.599153" lon="-5.569178">
        <ele>844</ele>
        <time>2018-07-23T10:22:28.000Z</time>
      </trkpt>
      <trkpt lat="42.599122" lon="-5.569306">
        <ele>844</ele>
        <time>2018-07-23T10:22:32.000Z</time>
      </trkpt>
      <trkpt lat="42.59912" lon="-5.569473">
        <ele>844</ele>
        <time>2018-07-23T10:22:36.000Z</time>
      </trkpt>
      <trkpt lat="42.599137" lon="-5.569647">
        <ele>844</ele>
        <time>2018-07-23T10:22:39.000Z</time>
      </trkpt>
      <trkpt lat="42.599134" lon="-5.569842">
        <ele>844</ele>
        <time>2018-07-23T10:22:41.000Z</time>
      </trkpt>
      <trkpt lat="42.599151" lon="-5.569978">
        <ele>844</ele>
        <time>2018-07-23T10:22:44.000Z</time>
      </trkpt>
      <trkpt lat="42.59922" lon="-5.570061">
        <ele>844</ele>
        <time>2018-07-23T10:22:46.990Z</time>
      </trkpt>
      <trkpt lat="42.599303" lon="-5.570147">
        <ele>844</ele>
        <time>2018-07-23T10:22:50.990Z</time>
      </trkpt>
      <trkpt lat="42.599378" lon="-5.570222">
        <ele>844</ele>
        <time>2018-07-23T10:22:53.960Z</time>
      </trkpt>
      <trkpt lat="42.599473" lon="-5.570287">
        <ele>844</ele>
        <time>2018-07-23T10:22:58.990Z</time>
      </trkpt>
      <trkpt lat="42.599554" lon="-5.570354">
        <ele>844</ele>
        <time>2018-07-23T10:23:03.000Z</time>
      </trkpt>
      <trkpt lat="42.599651" lon="-5.570434">
        <ele>844</ele>
        <time>2018-07-23T10:23:06.000Z</time>
      </trkpt>
      <trkpt lat="42.599753" lon="-5.570456">
        <ele>844</ele>
        <time>2018-07-23T10:23:08.990Z</time>
      </trkpt>
      <trkpt lat="42.599873" lon="-5.570474">
        <ele>844</ele>
        <time>2018-07-23T10:23:13.000Z</time>
      </trkpt>
      <trkpt lat="42.59996" lon="-5.570506">
        <ele>844</ele>
        <time>2018-07-23T10:23:16.000Z</time>
      </trkpt>
      <trkpt lat="42.60005" lon="-5.570576">
        <ele>844</ele>
        <time>2018-07-23T10:23:19.000Z</time>
      </trkpt>
      <trkpt lat="42.60015" lon="-5.570652">
        <ele>844</ele>
        <time>2018-07-23T10:23:21.990Z</time>
      </trkpt>
      <trkpt lat="42.60024" lon="-5.570697">
        <ele>844</ele>
        <time>2018-07-23T10:23:24.960Z</time>
      </trkpt>
      <trkpt lat="42.60034" lon="-5.570727">
        <ele>845</ele>
        <time>2018-07-23T10:23:29.990Z</time>
      </trkpt>
      <trkpt lat="42.600438" lon="-5.570698">
        <ele>846</ele>
        <time>2018-07-23T10:23:34.990Z</time>
      </trkpt>
      <trkpt lat="42.600502" lon="-5.57061">
        <ele>845</ele>
        <time>2018-07-23T10:23:37.990Z</time>
      </trkpt>
      <trkpt lat="42.600595" lon="-5.570514">
        <ele>845</ele>
        <time>2018-07-23T10:23:41.990Z</time>
      </trkpt>
      <trkpt lat="42.600688" lon="-5.570489">
        <ele>845</ele>
        <time>2018-07-23T10:23:47.000Z</time>
      </trkpt>
      <trkpt lat="42.600798" lon="-5.570552">
        <ele>845</ele>
        <time>2018-07-23T10:23:51.000Z</time>
      </trkpt>
      <trkpt lat="42.600881" lon="-5.570633">
        <ele>846</ele>
        <time>2018-07-23T10:23:55.990Z</time>
      </trkpt>
      <trkpt lat="42.600968" lon="-5.570751">
        <ele>847</ele>
        <time>2018-07-23T10:24:00.000Z</time>
      </trkpt>
      <trkpt lat="42.601069" lon="-5.570796">
        <ele>847</ele>
        <time>2018-07-23T10:24:03.000Z</time>
      </trkpt>
      <trkpt lat="42.601179" lon="-5.570784">
        <ele>846.746155057994</ele>
        <time>2018-07-23T10:24:06.000Z</time>
      </trkpt>
      <trkpt lat="42.60127" lon="-5.5709">
        <ele>846</ele>
        <time>2018-07-23T10:24:09.000Z</time>
      </trkpt>
      <trkpt lat="42.601422" lon="-5.570938">
        <ele>846</ele>
        <time>2018-07-23T10:24:12.000Z</time>
      </trkpt>
      <trkpt lat="42.601566" lon="-5.570919">
        <ele>846</ele>
        <time>2018-07-23T10:24:13.990Z</time>
      </trkpt>
      <trkpt lat="42.601656" lon="-5.57092">
        <ele>846</ele>
        <time>2018-07-23T10:24:18.000Z</time>
      </trkpt>
      <trkpt lat="42.601696" lon="-5.57103">
        <ele>847</ele>
        <time>2018-07-23T10:24:21.990Z</time>
      </trkpt>
      <trkpt lat="42.601719" lon="-5.57115">
        <ele>847</ele>
        <time>2018-07-23T10:24:25.990Z</time>
      </trkpt>
      <trkpt lat="42.601743" lon="-5.57129">
        <ele>846</ele>
        <time>2018-07-23T10:24:29.990Z</time>
      </trkpt>
      <trkpt lat="42.601746" lon="-5.571423">
        <ele>845.746155057994</ele>
        <time>2018-07-23T10:24:33.000Z</time>
      </trkpt>
      <trkpt lat="42.601753" lon="-5.571605">
        <ele>845</ele>
        <time>2018-07-23T10:24:36.000Z</time>
      </trkpt>
      <trkpt lat="42.601745" lon="-5.571758">
        <ele>844.6700032</ele>
        <time>2018-07-23T10:24:38.000Z</time>
      </trkpt>
      <trkpt lat="42.601738" lon="-5.571892">
        <ele>844</ele>
        <time>2018-07-23T10:24:40.000Z</time>
      </trkpt>
      <trkpt lat="42.601751" lon="-5.572027">
        <ele>844</ele>
        <time>2018-07-23T10:24:42.990Z</time>
      </trkpt>
      <trkpt lat="42.601825" lon="-5.572149">
        <ele>844</ele>
        <time>2018-07-23T10:24:50.000Z</time>
      </trkpt>
      <trkpt lat="42.601859" lon="-5.572265">
        <ele>844</ele>
        <time>2018-07-23T10:24:52.000Z</time>
      </trkpt>
      <trkpt lat="42.601855" lon="-5.57246">
        <ele>844</ele>
        <time>2018-07-23T10:24:56.000Z</time>
      </trkpt>
      <trkpt lat="42.601859" lon="-5.572603">
        <ele>844</ele>
        <time>2018-07-23T10:24:58.000Z</time>
      </trkpt>
      <trkpt lat="42.601858" lon="-5.572777">
        <ele>844</ele>
        <time>2018-07-23T10:25:01.000Z</time>
      </trkpt>
      <trkpt lat="42.601875" lon="-5.572905">
        <ele>844</ele>
        <time>2018-07-23T10:25:05.020Z</time>
      </trkpt>
      <trkpt lat="42.601886" lon="-5.57305">
        <ele>844</ele>
        <time>2018-07-23T10:25:09.000Z</time>
      </trkpt>
      <trkpt lat="42.601914" lon="-5.573169">
        <ele>844</ele>
        <time>2018-07-23T10:25:13.000Z</time>
      </trkpt>
      <trkpt lat="42.601955" lon="-5.573285">
        <ele>844</ele>
        <time>2018-07-23T10:25:17.000Z</time>
      </trkpt>
      <trkpt lat="42.601953" lon="-5.573433">
        <ele>844</ele>
        <time>2018-07-23T10:25:22.000Z</time>
      </trkpt>
      <trkpt lat="42.601958" lon="-5.573571">
        <ele>843.6700032</ele>
        <time>2018-07-23T10:25:25.000Z</time>
      </trkpt>
      <trkpt lat="42.601972" lon="-5.573695">
        <ele>843</ele>
        <time>2018-07-23T10:25:28.000Z</time>
      </trkpt>
      <trkpt lat="42.601991" lon="-5.573818">
        <ele>843</ele>
        <time>2018-07-23T10:25:32.000Z</time>
      </trkpt>
      <trkpt lat="42.601987" lon="-5.573962">
        <ele>842</ele>
        <time>2018-07-23T10:25:36.000Z</time>
      </trkpt>
      <trkpt lat="42.602" lon="-5.574095">
        <ele>842</ele>
        <time>2018-07-23T10:25:43.000Z</time>
      </trkpt>
      <trkpt lat="42.602043" lon="-5.574215">
        <ele>842</ele>
        <time>2018-07-23T10:25:46.000Z</time>
      </trkpt>
      <trkpt lat="42.602112" lon="-5.5743">
        <ele>842</ele>
        <time>2018-07-23T10:25:49.000Z</time>
      </trkpt>
      <trkpt lat="42.602105" lon="-5.574433">
        <ele>842</ele>
        <time>2018-07-23T10:25:51.000Z</time>
      </trkpt>
      <trkpt lat="42.602081" lon="-5.574599">
        <ele>842</ele>
        <time>2018-07-23T10:25:53.000Z</time>
      </trkpt>
      <trkpt lat="42.602023" lon="-5.574743">
        <ele>841.323528304491</ele>
        <time>2018-07-23T10:25:55.000Z</time>
      </trkpt>
      <trkpt lat="42.601977" lon="-5.574892">
        <ele>842</ele>
        <time>2018-07-23T10:25:56.990Z</time>
      </trkpt>
      <trkpt lat="42.601946" lon="-5.575014">
        <ele>842</ele>
        <time>2018-07-23T10:25:58.990Z</time>
      </trkpt>
      <trkpt lat="42.601935" lon="-5.575197">
        <ele>842</ele>
        <time>2018-07-23T10:26:03.000Z</time>
      </trkpt>
      <trkpt lat="42.601921" lon="-5.575332">
        <ele>842</ele>
        <time>2018-07-23T10:26:05.000Z</time>
      </trkpt>
      <trkpt lat="42.601896" lon="-5.575489">
        <ele>842</ele>
        <time>2018-07-23T10:26:09.990Z</time>
      </trkpt>
      <trkpt lat="42.601906" lon="-5.575631">
        <ele>842</ele>
        <time>2018-07-23T10:26:16.000Z</time>
      </trkpt>
      <trkpt lat="42.601908" lon="-5.575767">
        <ele>842</ele>
        <time>2018-07-23T10:26:20.000Z</time>
      </trkpt>
      <trkpt lat="42.601908" lon="-5.575905">
        <ele>842</ele>
        <time>2018-07-23T10:26:23.000Z</time>
      </trkpt>
      <trkpt lat="42.601848" lon="-5.576034">
        <ele>841</ele>
        <time>2018-07-23T10:26:31.000Z</time>
      </trkpt>
      <trkpt lat="42.601904" lon="-5.576142">
        <ele>841</ele>
        <time>2018-07-23T10:26:33.990Z</time>
      </trkpt>
      <trkpt lat="42.601977" lon="-5.576261">
        <ele>841</ele>
        <time>2018-07-23T10:26:38.000Z</time>
      </trkpt>
      <trkpt lat="42.60199" lon="-5.576384">
        <ele>841</ele>
        <time>2018-07-23T10:26:40.000Z</time>
      </trkpt>
      <trkpt lat="42.601971" lon="-5.576532">
        <ele>841</ele>
        <time>2018-07-23T10:26:44.000Z</time>
      </trkpt>
      <trkpt lat="42.601918" lon="-5.576779">
        <ele>841</ele>
        <time>2018-07-23T10:26:51.000Z</time>
      </trkpt>
      <trkpt lat="42.601935" lon="-5.576921">
        <ele>841</ele>
        <time>2018-07-23T10:26:54.000Z</time>
      </trkpt>
      <trkpt lat="42.601981" lon="-5.577037">
        <ele>842</ele>
        <time>2018-07-23T10:27:00.000Z</time>
      </trkpt>
      <trkpt lat="42.602014" lon="-5.577192">
        <ele>841</ele>
        <time>2018-07-23T10:27:05.000Z</time>
      </trkpt>
      <trkpt lat="42.601994" lon="-5.577339">
        <ele>841</ele>
        <time>2018-07-23T10:27:07.000Z</time>
      </trkpt>
      <trkpt lat="42.601967" lon="-5.577493">
        <ele>841</ele>
        <time>2018-07-23T10:27:09.000Z</time>
      </trkpt>
      <trkpt lat="42.601936" lon="-5.577656">
        <ele>841</ele>
        <time>2018-07-23T10:27:12.000Z</time>
      </trkpt>
      <trkpt lat="42.601811" lon="-5.577753">
        <ele>841</ele>
        <time>2018-07-23T10:27:14.000Z</time>
      </trkpt>
      <trkpt lat="42.601728" lon="-5.577825">
        <ele>841</ele>
        <time>2018-07-23T10:27:18.000Z</time>
      </trkpt>
      <trkpt lat="42.601719" lon="-5.577976">
        <ele>841</ele>
        <time>2018-07-23T10:27:22.990Z</time>
      </trkpt>
      <trkpt lat="42.601721" lon="-5.578114">
        <ele>841</ele>
        <time>2018-07-23T10:27:26.000Z</time>
      </trkpt>
      <trkpt lat="42.601802" lon="-5.578279">
        <ele>842</ele>
        <time>2018-07-23T10:27:31.000Z</time>
      </trkpt>
      <trkpt lat="42.601854" lon="-5.578432">
        <ele>841</ele>
        <time>2018-07-23T10:27:33.000Z</time>
      </trkpt>
      <trkpt lat="42.601865" lon="-5.578556">
        <ele>841</ele>
        <time>2018-07-23T10:27:35.000Z</time>
      </trkpt>
      <trkpt lat="42.601896" lon="-5.578731">
        <ele>840.6700032</ele>
        <time>2018-07-23T10:27:39.000Z</time>
      </trkpt>
      <trkpt lat="42.601889" lon="-5.578924">
        <ele>840</ele>
        <time>2018-07-23T10:27:41.000Z</time>
      </trkpt>
      <trkpt lat="42.601898" lon="-5.579091">
        <ele>840</ele>
        <time>2018-07-23T10:27:44.000Z</time>
      </trkpt>
      <trkpt lat="42.601899" lon="-5.579248">
        <ele>841</ele>
        <time>2018-07-23T10:27:48.000Z</time>
      </trkpt>
      <trkpt lat="42.601854" lon="-5.579391">
        <ele>841</ele>
        <time>2018-07-23T10:27:50.990Z</time>
      </trkpt>
      <trkpt lat="42.601792" lon="-5.579492">
        <ele>841</ele>
        <time>2018-07-23T10:28:27.000Z</time>
      </trkpt>
      <trkpt lat="42.601878" lon="-5.579584">
        <ele>841</ele>
        <time>2018-07-23T10:28:32.990Z</time>
      </trkpt>
      <trkpt lat="42.601902" lon="-5.579727">
        <ele>841</ele>
        <time>2018-07-23T10:28:36.000Z</time>
      </trkpt>
      <trkpt lat="42.60187" lon="-5.579852">
        <ele>841</ele>
        <time>2018-07-23T10:28:39.000Z</time>
      </trkpt>
      <trkpt lat="42.601899" lon="-5.580021">
        <ele>841</ele>
        <time>2018-07-23T10:28:46.000Z</time>
      </trkpt>
      <trkpt lat="42.601864" lon="-5.58017">
        <ele>841</ele>
        <time>2018-07-23T10:28:48.000Z</time>
      </trkpt>
      <trkpt lat="42.601866" lon="-5.580313">
        <ele>840</ele>
        <time>2018-07-23T10:28:51.990Z</time>
      </trkpt>
      <trkpt lat="42.601804" lon="-5.580441">
        <ele>841</ele>
        <time>2018-07-23T10:28:56.990Z</time>
      </trkpt>
      <trkpt lat="42.601757" lon="-5.580559">
        <ele>841</ele>
        <time>2018-07-23T10:29:00.000Z</time>
      </trkpt>
      <trkpt lat="42.60172" lon="-5.580707">
        <ele>840</ele>
        <time>2018-07-23T10:29:03.000Z</time>
      </trkpt>
      <trkpt lat="42.601702" lon="-5.580839">
        <ele>840</ele>
        <time>2018-07-23T10:29:06.000Z</time>
      </trkpt>
      <trkpt lat="42.601664" lon="-5.58099">
        <ele>840</ele>
        <time>2018-07-23T10:29:09.990Z</time>
      </trkpt>
      <trkpt lat="42.601632" lon="-5.581135">
        <ele>841</ele>
        <time>2018-07-23T10:29:13.990Z</time>
      </trkpt>
      <trkpt lat="42.601607" lon="-5.581254">
        <ele>841</ele>
        <time>2018-07-23T10:29:16.990Z</time>
      </trkpt>
      <trkpt lat="42.601572" lon="-5.581387">
        <ele>841</ele>
        <time>2018-07-23T10:29:21.000Z</time>
      </trkpt>
      <trkpt lat="42.601576" lon="-5.581521">
        <ele>840</ele>
        <time>2018-07-23T10:29:24.990Z</time>
      </trkpt>
      <trkpt lat="42.601578" lon="-5.581645">
        <ele>840</ele>
        <time>2018-07-23T10:29:29.990Z</time>
      </trkpt>
      <trkpt lat="42.60155" lon="-5.581793">
        <ele>840</ele>
        <time>2018-07-23T10:29:36.990Z</time>
      </trkpt>
      <trkpt lat="42.601518" lon="-5.581914">
        <ele>840</ele>
        <time>2018-07-23T10:29:39.990Z</time>
      </trkpt>
      <trkpt lat="42.601487" lon="-5.582038">
        <ele>840</ele>
        <time>2018-07-23T10:29:42.990Z</time>
      </trkpt>
      <trkpt lat="42.601469" lon="-5.582172">
        <ele>840</ele>
        <time>2018-07-23T10:29:46.990Z</time>
      </trkpt>
      <trkpt lat="42.601455" lon="-5.582325">
        <ele>840</ele>
        <time>2018-07-23T10:29:52.000Z</time>
      </trkpt>
      <trkpt lat="42.601427" lon="-5.582449">
        <ele>840</ele>
        <time>2018-07-23T10:29:54.000Z</time>
      </trkpt>
      <trkpt lat="42.601431" lon="-5.582582">
        <ele>840</ele>
        <time>2018-07-23T10:29:56.130Z</time>
      </trkpt>
      <trkpt lat="42.601413" lon="-5.582709">
        <ele>840</ele>
        <time>2018-07-23T10:29:59.000Z</time>
      </trkpt>
      <trkpt lat="42.601348" lon="-5.582807">
        <ele>840</ele>
        <time>2018-07-23T10:30:01.980Z</time>
      </trkpt>
      <trkpt lat="42.601306" lon="-5.58292">
        <ele>840</ele>
        <time>2018-07-23T10:30:04.990Z</time>
      </trkpt>
      <trkpt lat="42.601272" lon="-5.583048">
        <ele>840</ele>
        <time>2018-07-23T10:30:07.990Z</time>
      </trkpt>
      <trkpt lat="42.601232" lon="-5.583187">
        <ele>840</ele>
        <time>2018-07-23T10:30:11.000Z</time>
      </trkpt>
      <trkpt lat="42.601182" lon="-5.583331">
        <ele>840</ele>
        <time>2018-07-23T10:30:14.990Z</time>
      </trkpt>
      <trkpt lat="42.601136" lon="-5.583447">
        <ele>840</ele>
        <time>2018-07-23T10:30:17.990Z</time>
      </trkpt>
      <trkpt lat="42.60109" lon="-5.583578">
        <ele>840</ele>
        <time>2018-07-23T10:30:20.970Z</time>
      </trkpt>
      <trkpt lat="42.601034" lon="-5.583705">
        <ele>840</ele>
        <time>2018-07-23T10:30:23.990Z</time>
      </trkpt>
      <trkpt lat="42.600978" lon="-5.583818">
        <ele>839</ele>
        <time>2018-07-23T10:30:26.990Z</time>
      </trkpt>
      <trkpt lat="42.600945" lon="-5.583957">
        <ele>839</ele>
        <time>2018-07-23T10:30:29.990Z</time>
      </trkpt>
      <trkpt lat="42.600894" lon="-5.584082">
        <ele>839</ele>
        <time>2018-07-23T10:30:32.990Z</time>
      </trkpt>
      <trkpt lat="42.600832" lon="-5.584205">
        <ele>838</ele>
        <time>2018-07-23T10:30:36.000Z</time>
      </trkpt>
      <trkpt lat="42.60078" lon="-5.584344">
        <ele>838</ele>
        <time>2018-07-23T10:30:38.990Z</time>
      </trkpt>
      <trkpt lat="42.60074" lon="-5.584491">
        <ele>838</ele>
        <time>2018-07-23T10:30:41.990Z</time>
      </trkpt>
      <trkpt lat="42.600686" lon="-5.584621">
        <ele>838</ele>
        <time>2018-07-23T10:30:44.990Z</time>
      </trkpt>
      <trkpt lat="42.600636" lon="-5.584758">
        <ele>838</ele>
        <time>2018-07-23T10:30:48.070Z</time>
      </trkpt>
      <trkpt lat="42.60057" lon="-5.584894">
        <ele>838</ele>
        <time>2018-07-23T10:30:50.000Z</time>
      </trkpt>
      <trkpt lat="42.600536" lon="-5.58516">
        <ele>838</ele>
        <time>2018-07-23T10:30:55.000Z</time>
      </trkpt>
      <trkpt lat="42.600497" lon="-5.585316">
        <ele>837</ele>
        <time>2018-07-23T10:30:58.000Z</time>
      </trkpt>
      <trkpt lat="42.600386" lon="-5.585438">
        <ele>837</ele>
        <time>2018-07-23T10:31:00.020Z</time>
      </trkpt>
      <trkpt lat="42.600319" lon="-5.58556">
        <ele>837</ele>
        <time>2018-07-23T10:31:02.990Z</time>
      </trkpt>
      <trkpt lat="42.600369" lon="-5.585679">
        <ele>838</ele>
        <time>2018-07-23T10:31:09.000Z</time>
      </trkpt>
      <trkpt lat="42.600381" lon="-5.586005">
        <ele>837</ele>
        <time>2018-07-23T10:31:14.000Z</time>
      </trkpt>
      <trkpt lat="42.600406" lon="-5.586174">
        <ele>837</ele>
        <time>2018-07-23T10:31:16.000Z</time>
      </trkpt>
      <trkpt lat="42.600394" lon="-5.586308">
        <ele>837</ele>
        <time>2018-07-23T10:31:18.990Z</time>
      </trkpt>
      <trkpt lat="42.600286" lon="-5.586298">
        <ele>837</ele>
        <time>2018-07-23T10:32:13.000Z</time>
      </trkpt>
      <trkpt lat="42.600185" lon="-5.586229">
        <ele>837</ele>
        <time>2018-07-23T10:32:20.990Z</time>
      </trkpt>
      <trkpt lat="42.600102" lon="-5.586302">
        <ele>838</ele>
        <time>2018-07-23T10:32:25.990Z</time>
      </trkpt>
      <trkpt lat="42.600028" lon="-5.586424">
        <ele>838</ele>
        <time>2018-07-23T10:32:29.990Z</time>
      </trkpt>
      <trkpt lat="42.599942" lon="-5.586516">
        <ele>838</ele>
        <time>2018-07-23T10:32:33.990Z</time>
      </trkpt>
      <trkpt lat="42.599886" lon="-5.586653">
        <ele>837</ele>
        <time>2018-07-23T10:32:38.000Z</time>
      </trkpt>
      <trkpt lat="42.599825" lon="-5.586783">
        <ele>837</ele>
        <time>2018-07-23T10:32:41.960Z</time>
      </trkpt>
      <trkpt lat="42.599776" lon="-5.58693">
        <ele>837</ele>
        <time>2018-07-23T10:32:44.990Z</time>
      </trkpt>
      <trkpt lat="42.599725" lon="-5.587044">
        <ele>837</ele>
        <time>2018-07-23T10:32:48.000Z</time>
      </trkpt>
      <trkpt lat="42.599702" lon="-5.587168">
        <ele>836.746155057994</ele>
        <time>2018-07-23T10:32:51.000Z</time>
      </trkpt>
      <trkpt lat="42.599663" lon="-5.587294">
        <ele>836</ele>
        <time>2018-07-23T10:32:54.000Z</time>
      </trkpt>
      <trkpt lat="42.59958" lon="-5.587464">
        <ele>836</ele>
        <time>2018-07-23T10:32:56.990Z</time>
      </trkpt>
      <trkpt lat="42.599516" lon="-5.587615">
        <ele>836</ele>
        <time>2018-07-23T10:32:59.000Z</time>
      </trkpt>
      <trkpt lat="42.599463" lon="-5.587728">
        <ele>835.676471695509</ele>
        <time>2018-07-23T10:33:01.000Z</time>
      </trkpt>
      <trkpt lat="42.599405" lon="-5.587882">
        <ele>836</ele>
        <time>2018-07-23T10:33:03.000Z</time>
      </trkpt>
      <trkpt lat="42.599347" lon="-5.588006">
        <ele>836</ele>
        <time>2018-07-23T10:33:05.000Z</time>
      </trkpt>
      <trkpt lat="42.599319" lon="-5.588131">
        <ele>836</ele>
        <time>2018-07-23T10:33:07.000Z</time>
      </trkpt>
      <trkpt lat="42.599275" lon="-5.588247">
        <ele>836</ele>
        <time>2018-07-23T10:33:09.990Z</time>
      </trkpt>
      <trkpt lat="42.599227" lon="-5.588392">
        <ele>835.23845532778</ele>
        <time>2018-07-23T10:33:12.980Z</time>
      </trkpt>
      <trkpt lat="42.599194" lon="-5.588546">
        <ele>836</ele>
        <time>2018-07-23T10:33:15.990Z</time>
      </trkpt>
      <trkpt lat="42.599153" lon="-5.588671">
        <ele>836</ele>
        <time>2018-07-23T10:33:17.990Z</time>
      </trkpt>
      <trkpt lat="42.599111" lon="-5.588803">
        <ele>836</ele>
        <time>2018-07-23T10:33:20.990Z</time>
      </trkpt>
      <trkpt lat="42.599084" lon="-5.588926">
        <ele>836</ele>
        <time>2018-07-23T10:33:23.990Z</time>
      </trkpt>
      <trkpt lat="42.599038" lon="-5.589071">
        <ele>836</ele>
        <time>2018-07-23T10:33:27.000Z</time>
      </trkpt>
      <trkpt lat="42.598997" lon="-5.589224">
        <ele>836</ele>
        <time>2018-07-23T10:33:29.990Z</time>
      </trkpt>
      <trkpt lat="42.598939" lon="-5.589387">
        <ele>835</ele>
        <time>2018-07-23T10:33:32.990Z</time>
      </trkpt>
      <trkpt lat="42.598891" lon="-5.589506">
        <ele>835</ele>
        <time>2018-07-23T10:33:34.990Z</time>
      </trkpt>
      <trkpt lat="42.598843" lon="-5.589632">
        <ele>835</ele>
        <time>2018-07-23T10:33:37.000Z</time>
      </trkpt>
      <trkpt lat="42.598806" lon="-5.58976">
        <ele>835</ele>
        <time>2018-07-23T10:33:38.990Z</time>
      </trkpt>
      <trkpt lat="42.598782" lon="-5.589882">
        <ele>835</ele>
        <time>2018-07-23T10:33:40.990Z</time>
      </trkpt>
      <trkpt lat="42.598762" lon="-5.59002">
        <ele>835</ele>
        <time>2018-07-23T10:33:42.990Z</time>
      </trkpt>
      <trkpt lat="42.598747" lon="-5.590141">
        <ele>835.32</ele>
        <time>2018-07-23T10:33:44.990Z</time>
      </trkpt>
      <trkpt lat="42.598743" lon="-5.590268">
        <ele>836</ele>
        <time>2018-07-23T10:33:47.000Z</time>
      </trkpt>
      <trkpt lat="42.598734" lon="-5.590399">
        <ele>836</ele>
        <time>2018-07-23T10:33:48.990Z</time>
      </trkpt>
      <trkpt lat="42.598717" lon="-5.590533">
        <ele>835</ele>
        <time>2018-07-23T10:33:50.990Z</time>
      </trkpt>
      <trkpt lat="42.598697" lon="-5.590655">
        <ele>835</ele>
        <time>2018-07-23T10:33:52.990Z</time>
      </trkpt>
      <trkpt lat="42.598665" lon="-5.590796">
        <ele>835</ele>
        <time>2018-07-23T10:33:55.000Z</time>
      </trkpt>
      <trkpt lat="42.598695" lon="-5.590986">
        <ele>835</ele>
        <time>2018-07-23T10:33:58.000Z</time>
      </trkpt>
      <trkpt lat="42.59867" lon="-5.59117">
        <ele>835</ele>
        <time>2018-07-23T10:34:00.990Z</time>
      </trkpt>
      <trkpt lat="42.598643" lon="-5.591288">
        <ele>835</ele>
        <time>2018-07-23T10:34:02.990Z</time>
      </trkpt>
      <trkpt lat="42.598613" lon="-5.591463">
        <ele>835</ele>
        <time>2018-07-23T10:34:05.990Z</time>
      </trkpt>
      <trkpt lat="42.598652" lon="-5.591648">
        <ele>835</ele>
        <time>2018-07-23T10:34:09.000Z</time>
      </trkpt>
      <trkpt lat="42.598674" lon="-5.5918">
        <ele>835</ele>
        <time>2018-07-23T10:34:11.000Z</time>
      </trkpt>
      <trkpt lat="42.598662" lon="-5.591956">
        <ele>835</ele>
        <time>2018-07-23T10:34:13.000Z</time>
      </trkpt>
      <trkpt lat="42.598624" lon="-5.59213">
        <ele>835</ele>
        <time>2018-07-23T10:34:14.990Z</time>
      </trkpt>
      <trkpt lat="42.5986" lon="-5.592248">
        <ele>835</ele>
        <time>2018-07-23T10:34:16.950Z</time>
      </trkpt>
      <trkpt lat="42.598585" lon="-5.592456">
        <ele>835</ele>
        <time>2018-07-23T10:34:20.000Z</time>
      </trkpt>
      <trkpt lat="42.598552" lon="-5.592604">
        <ele>836</ele>
        <time>2018-07-23T10:34:23.000Z</time>
      </trkpt>
      <trkpt lat="42.598587" lon="-5.592724">
        <ele>836</ele>
        <time>2018-07-23T10:34:25.990Z</time>
      </trkpt>
      <trkpt lat="42.598642" lon="-5.592848">
        <ele>835</ele>
        <time>2018-07-23T10:34:29.000Z</time>
      </trkpt>
      <trkpt lat="42.59859" lon="-5.592952">
        <ele>835</ele>
        <time>2018-07-23T10:34:31.000Z</time>
      </trkpt>
      <trkpt lat="42.59856" lon="-5.593116">
        <ele>835</ele>
        <time>2018-07-23T10:34:34.000Z</time>
      </trkpt>
      <trkpt lat="42.598562" lon="-5.593285">
        <ele>835</ele>
        <time>2018-07-23T10:34:36.990Z</time>
      </trkpt>
      <trkpt lat="42.598541" lon="-5.593438">
        <ele>835</ele>
        <time>2018-07-23T10:34:38.990Z</time>
      </trkpt>
      <trkpt lat="42.59852" lon="-5.593588">
        <ele>835</ele>
        <time>2018-07-23T10:34:40.990Z</time>
      </trkpt>
      <trkpt lat="42.598482" lon="-5.593746">
        <ele>835</ele>
        <time>2018-07-23T10:34:43.020Z</time>
      </trkpt>
      <trkpt lat="42.59846" lon="-5.593878">
        <ele>835</ele>
        <time>2018-07-23T10:34:45.000Z</time>
      </trkpt>
      <trkpt lat="42.598447" lon="-5.593998">
        <ele>836</ele>
        <time>2018-07-23T10:34:47.990Z</time>
      </trkpt>
      <trkpt lat="42.598444" lon="-5.594146">
        <ele>836</ele>
        <time>2018-07-23T10:34:50.990Z</time>
      </trkpt>
      <trkpt lat="42.59847" lon="-5.594272">
        <ele>836</ele>
        <time>2018-07-23T10:34:54.000Z</time>
      </trkpt>
      <trkpt lat="42.598554" lon="-5.594396">
        <ele>835</ele>
        <time>2018-07-23T10:34:57.000Z</time>
      </trkpt>
      <trkpt lat="42.59855" lon="-5.594562">
        <ele>836</ele>
        <time>2018-07-23T10:35:00.000Z</time>
      </trkpt>
      <trkpt lat="42.598589" lon="-5.594762">
        <ele>836</ele>
        <time>2018-07-23T10:35:04.100Z</time>
      </trkpt>
      <trkpt lat="42.598563" lon="-5.594952">
        <ele>836</ele>
        <time>2018-07-23T10:35:06.000Z</time>
      </trkpt>
      <trkpt lat="42.598553" lon="-5.595109">
        <ele>836</ele>
        <time>2018-07-23T10:35:08.000Z</time>
      </trkpt>
      <trkpt lat="42.598536" lon="-5.59527">
        <ele>836</ele>
        <time>2018-07-23T10:35:09.990Z</time>
      </trkpt>
      <trkpt lat="42.598507" lon="-5.59542">
        <ele>836</ele>
        <time>2018-07-23T10:35:11.990Z</time>
      </trkpt>
      <trkpt lat="42.598474" lon="-5.595581">
        <ele>836</ele>
        <time>2018-07-23T10:35:13.960Z</time>
      </trkpt>
      <trkpt lat="42.598474" lon="-5.595718">
        <ele>836</ele>
        <time>2018-07-23T10:35:16.020Z</time>
      </trkpt>
      <trkpt lat="42.598465" lon="-5.595849">
        <ele>836</ele>
        <time>2018-07-23T10:35:18.000Z</time>
      </trkpt>
      <trkpt lat="42.59848" lon="-5.596011">
        <ele>836</ele>
        <time>2018-07-23T10:35:20.000Z</time>
      </trkpt>
      <trkpt lat="42.598496" lon="-5.596174">
        <ele>836</ele>
        <time>2018-07-23T10:35:22.990Z</time>
      </trkpt>
      <trkpt lat="42.598466" lon="-5.596296">
        <ele>837</ele>
        <time>2018-07-23T10:35:25.020Z</time>
      </trkpt>
      <trkpt lat="42.598448" lon="-5.596435">
        <ele>836</ele>
        <time>2018-07-23T10:35:26.990Z</time>
      </trkpt>
      <trkpt lat="42.598422" lon="-5.596635">
        <ele>836</ele>
        <time>2018-07-23T10:35:30.100Z</time>
      </trkpt>
      <trkpt lat="42.598371" lon="-5.596738">
        <ele>836</ele>
        <time>2018-07-23T10:35:32.000Z</time>
      </trkpt>
      <trkpt lat="42.59835" lon="-5.597012">
        <ele>836</ele>
        <time>2018-07-23T10:35:36.000Z</time>
      </trkpt>
      <trkpt lat="42.598349" lon="-5.597144">
        <ele>836</ele>
        <time>2018-07-23T10:35:38.000Z</time>
      </trkpt>
      <trkpt lat="42.598385" lon="-5.597403">
        <ele>836</ele>
        <time>2018-07-23T10:35:42.000Z</time>
      </trkpt>
      <trkpt lat="42.598375" lon="-5.597548">
        <ele>836</ele>
        <time>2018-07-23T10:35:44.000Z</time>
      </trkpt>
      <trkpt lat="42.598369" lon="-5.597683">
        <ele>836</ele>
        <time>2018-07-23T10:35:46.000Z</time>
      </trkpt>
      <trkpt lat="42.598365" lon="-5.597846">
        <ele>836</ele>
        <time>2018-07-23T10:35:48.990Z</time>
      </trkpt>
      <trkpt lat="42.598401" lon="-5.597971">
        <ele>837</ele>
        <time>2018-07-23T10:35:51.960Z</time>
      </trkpt>
      <trkpt lat="42.598377" lon="-5.598118">
        <ele>837</ele>
        <time>2018-07-23T10:35:54.990Z</time>
      </trkpt>
      <trkpt lat="42.598402" lon="-5.598272">
        <ele>837</ele>
        <time>2018-07-23T10:35:57.990Z</time>
      </trkpt>
      <trkpt lat="42.598474" lon="-5.598422">
        <ele>836.6700032</ele>
        <time>2018-07-23T10:36:01.000Z</time>
      </trkpt>
      <trkpt lat="42.598552" lon="-5.598561">
        <ele>837</ele>
        <time>2018-07-23T10:36:03.990Z</time>
      </trkpt>
      <trkpt lat="42.598538" lon="-5.598697">
        <ele>837</ele>
        <time>2018-07-23T10:36:06.990Z</time>
      </trkpt>
      <trkpt lat="42.598418" lon="-5.598703">
        <ele>837</ele>
        <time>2018-07-23T10:36:10.020Z</time>
      </trkpt>
      <trkpt lat="42.598316" lon="-5.598719">
        <ele>837.32</ele>
        <time>2018-07-23T10:36:12.990Z</time>
      </trkpt>
      <trkpt lat="42.598294" lon="-5.598864">
        <ele>838</ele>
        <time>2018-07-23T10:36:18.990Z</time>
      </trkpt>
      <trkpt lat="42.598277" lon="-5.599016">
        <ele>840</ele>
        <time>2018-07-23T10:36:22.990Z</time>
      </trkpt>
      <trkpt lat="42.598232" lon="-5.599125">
        <ele>840</ele>
        <time>2018-07-23T10:36:26.000Z</time>
      </trkpt>
      <trkpt lat="42.598198" lon="-5.599251">
        <ele>842</ele>
        <time>2018-07-23T10:36:29.960Z</time>
      </trkpt>
      <trkpt lat="42.59818" lon="-5.599378">
        <ele>843</ele>
        <time>2018-07-23T10:36:33.990Z</time>
      </trkpt>
      <trkpt lat="42.598184" lon="-5.599528">
        <ele>843</ele>
        <time>2018-07-23T10:36:38.990Z</time>
      </trkpt>
      <trkpt lat="42.598164" lon="-5.599663">
        <ele>845</ele>
        <time>2018-07-23T10:36:43.990Z</time>
      </trkpt>
      <trkpt lat="42.598146" lon="-5.599803">
        <ele>844</ele>
        <time>2018-07-23T10:36:48.960Z</time>
      </trkpt>
      <trkpt lat="42.598108" lon="-5.599955">
        <ele>844</ele>
        <time>2018-07-23T10:36:52.990Z</time>
      </trkpt>
      <trkpt lat="42.598082" lon="-5.600128">
        <ele>844</ele>
        <time>2018-07-23T10:36:56.000Z</time>
      </trkpt>
      <trkpt lat="42.598064" lon="-5.600276">
        <ele>843</ele>
        <time>2018-07-23T10:36:57.990Z</time>
      </trkpt>
      <trkpt lat="42.598044" lon="-5.600457">
        <ele>841.753844942006</ele>
        <time>2018-07-23T10:36:59.990Z</time>
      </trkpt>
      <trkpt lat="42.598016" lon="-5.600662">
        <ele>838.68</ele>
        <time>2018-07-23T10:37:01.990Z</time>
      </trkpt>
      <trkpt lat="42.597976" lon="-5.600881">
        <ele>836.68</ele>
        <time>2018-07-23T10:37:03.990Z</time>
      </trkpt>
      <trkpt lat="42.597934" lon="-5.601065">
        <ele>836.042861322411</ele>
        <time>2018-07-23T10:37:06.000Z</time>
      </trkpt>
      <trkpt lat="42.597857" lon="-5.601184">
        <ele>837</ele>
        <time>2018-07-23T10:37:07.960Z</time>
      </trkpt>
      <trkpt lat="42.597809" lon="-5.601293">
        <ele>837</ele>
        <time>2018-07-23T10:37:09.990Z</time>
      </trkpt>
      <trkpt lat="42.597774" lon="-5.60147">
        <ele>837</ele>
        <time>2018-07-23T10:37:12.990Z</time>
      </trkpt>
      <trkpt lat="42.597772" lon="-5.601598">
        <ele>837.326730540136</ele>
        <time>2018-07-23T10:37:15.000Z</time>
      </trkpt>
      <trkpt lat="42.597765" lon="-5.601747">
        <ele>838</ele>
        <time>2018-07-23T10:37:17.000Z</time>
      </trkpt>
      <trkpt lat="42.597718" lon="-5.601907">
        <ele>838</ele>
        <time>2018-07-23T10:37:19.990Z</time>
      </trkpt>
      <trkpt lat="42.597677" lon="-5.602041">
        <ele>838</ele>
        <time>2018-07-23T10:37:22.990Z</time>
      </trkpt>
      <trkpt lat="42.597638" lon="-5.602187">
        <ele>839</ele>
        <time>2018-07-23T10:37:26.020Z</time>
      </trkpt>
      <trkpt lat="42.597588" lon="-5.60232">
        <ele>839</ele>
        <time>2018-07-23T10:37:28.990Z</time>
      </trkpt>
      <trkpt lat="42.597554" lon="-5.602469">
        <ele>839</ele>
        <time>2018-07-23T10:37:32.000Z</time>
      </trkpt>
      <trkpt lat="42.59753" lon="-5.602614">
        <ele>839</ele>
        <time>2018-07-23T10:37:34.990Z</time>
      </trkpt>
      <trkpt lat="42.597478" lon="-5.602722">
        <ele>839</ele>
        <time>2018-07-23T10:37:37.990Z</time>
      </trkpt>
      <trkpt lat="42.597437" lon="-5.602846">
        <ele>839</ele>
        <time>2018-07-23T10:37:42.100Z</time>
      </trkpt>
      <trkpt lat="42.597413" lon="-5.60307">
        <ele>840</ele>
        <time>2018-07-23T10:37:50.000Z</time>
      </trkpt>
      <trkpt lat="42.597416" lon="-5.60326">
        <ele>839</ele>
        <time>2018-07-23T10:37:53.000Z</time>
      </trkpt>
      <trkpt lat="42.597385" lon="-5.603404">
        <ele>839</ele>
        <time>2018-07-23T10:37:59.000Z</time>
      </trkpt>
      <trkpt lat="42.597352" lon="-5.603541">
        <ele>840</ele>
        <time>2018-07-23T10:38:04.020Z</time>
      </trkpt>
      <trkpt lat="42.597332" lon="-5.603671">
        <ele>840</ele>
        <time>2018-07-23T10:38:10.000Z</time>
      </trkpt>
      <trkpt lat="42.597292" lon="-5.603827">
        <ele>840</ele>
        <time>2018-07-23T10:38:12.000Z</time>
      </trkpt>
      <trkpt lat="42.5972" lon="-5.603936">
        <ele>840</ele>
        <time>2018-07-23T10:38:15.000Z</time>
      </trkpt>
      <trkpt lat="42.597169" lon="-5.604054">
        <ele>840</ele>
        <time>2018-07-23T10:38:18.000Z</time>
      </trkpt>
      <trkpt lat="42.597116" lon="-5.604163">
        <ele>841</ele>
        <time>2018-07-23T10:38:22.000Z</time>
      </trkpt>
      <trkpt lat="42.597082" lon="-5.604288">
        <ele>842</ele>
        <time>2018-07-23T10:38:33.000Z</time>
      </trkpt>
      <trkpt lat="42.597002" lon="-5.60441">
        <ele>841</ele>
        <time>2018-07-23T10:38:36.000Z</time>
      </trkpt>
      <trkpt lat="42.596958" lon="-5.604549">
        <ele>841</ele>
        <time>2018-07-23T10:38:38.990Z</time>
      </trkpt>
      <trkpt lat="42.596895" lon="-5.604662">
        <ele>841.36</ele>
        <time>2018-07-23T10:38:42.030Z</time>
      </trkpt>
      <trkpt lat="42.596834" lon="-5.604802">
        <ele>842</ele>
        <time>2018-07-23T10:38:44.990Z</time>
      </trkpt>
      <trkpt lat="42.596775" lon="-5.604906">
        <ele>842</ele>
        <time>2018-07-23T10:38:47.990Z</time>
      </trkpt>
      <trkpt lat="42.596731" lon="-5.605031">
        <ele>842</ele>
        <time>2018-07-23T10:38:50.990Z</time>
      </trkpt>
      <trkpt lat="42.596681" lon="-5.605155">
        <ele>843</ele>
        <time>2018-07-23T10:38:53.990Z</time>
      </trkpt>
      <trkpt lat="42.596632" lon="-5.605283">
        <ele>843</ele>
        <time>2018-07-23T10:38:57.000Z</time>
      </trkpt>
      <trkpt lat="42.596581" lon="-5.605395">
        <ele>843</ele>
        <time>2018-07-23T10:38:59.990Z</time>
      </trkpt>
      <trkpt lat="42.596517" lon="-5.60551">
        <ele>843.3299968</ele>
        <time>2018-07-23T10:39:03.000Z</time>
      </trkpt>
      <trkpt lat="42.596514" lon="-5.605667">
        <ele>844</ele>
        <time>2018-07-23T10:39:06.000Z</time>
      </trkpt>
      <trkpt lat="42.596489" lon="-5.605854">
        <ele>846</ele>
        <time>2018-07-23T10:39:10.100Z</time>
      </trkpt>
      <trkpt lat="42.596469" lon="-5.606">
        <ele>846</ele>
        <time>2018-07-23T10:39:12.000Z</time>
      </trkpt>
      <trkpt lat="42.596446" lon="-5.606145">
        <ele>846</ele>
        <time>2018-07-23T10:39:14.990Z</time>
      </trkpt>
      <trkpt lat="42.596419" lon="-5.60629">
        <ele>846</ele>
        <time>2018-07-23T10:39:16.990Z</time>
      </trkpt>
      <trkpt lat="42.596398" lon="-5.606431">
        <ele>847</ele>
        <time>2018-07-23T10:39:20.000Z</time>
      </trkpt>
      <trkpt lat="42.596415" lon="-5.606588">
        <ele>847</ele>
        <time>2018-07-23T10:39:23.000Z</time>
      </trkpt>
      <trkpt lat="42.596391" lon="-5.606737">
        <ele>847</ele>
        <time>2018-07-23T10:39:26.000Z</time>
      </trkpt>
      <trkpt lat="42.596399" lon="-5.606905">
        <ele>847</ele>
        <time>2018-07-23T10:39:29.990Z</time>
      </trkpt>
      <trkpt lat="42.596392" lon="-5.607144">
        <ele>847</ele>
        <time>2018-07-23T10:39:34.000Z</time>
      </trkpt>
      <trkpt lat="42.596402" lon="-5.607269">
        <ele>847</ele>
        <time>2018-07-23T10:39:36.000Z</time>
      </trkpt>
      <trkpt lat="42.596393" lon="-5.607391">
        <ele>847</ele>
        <time>2018-07-23T10:39:38.000Z</time>
      </trkpt>
      <trkpt lat="42.596352" lon="-5.607545">
        <ele>847</ele>
        <time>2018-07-23T10:39:40.960Z</time>
      </trkpt>
      <trkpt lat="42.596321" lon="-5.607684">
        <ele>847</ele>
        <time>2018-07-23T10:39:43.990Z</time>
      </trkpt>
      <trkpt lat="42.596299" lon="-5.607815">
        <ele>847</ele>
        <time>2018-07-23T10:39:46.990Z</time>
      </trkpt>
      <trkpt lat="42.596274" lon="-5.607972">
        <ele>847</ele>
        <time>2018-07-23T10:39:50.990Z</time>
      </trkpt>
      <trkpt lat="42.596262" lon="-5.608106">
        <ele>848</ele>
        <time>2018-07-23T10:39:53.990Z</time>
      </trkpt>
      <trkpt lat="42.596238" lon="-5.608229">
        <ele>848</ele>
        <time>2018-07-23T10:39:55.990Z</time>
      </trkpt>
      <trkpt lat="42.596214" lon="-5.608373">
        <ele>848</ele>
        <time>2018-07-23T10:39:58.020Z</time>
      </trkpt>
      <trkpt lat="42.596189" lon="-5.608493">
        <ele>847</ele>
        <time>2018-07-23T10:40:00.000Z</time>
      </trkpt>
      <trkpt lat="42.596161" lon="-5.608667">
        <ele>847</ele>
        <time>2018-07-23T10:40:02.990Z</time>
      </trkpt>
      <trkpt lat="42.59615" lon="-5.608825">
        <ele>847</ele>
        <time>2018-07-23T10:40:05.990Z</time>
      </trkpt>
      <trkpt lat="42.596145" lon="-5.608967">
        <ele>848</ele>
        <time>2018-07-23T10:40:08.990Z</time>
      </trkpt>
      <trkpt lat="42.596109" lon="-5.609111">
        <ele>848.32</ele>
        <time>2018-07-23T10:40:10.990Z</time>
      </trkpt>
      <trkpt lat="42.596087" lon="-5.609238">
        <ele>849</ele>
        <time>2018-07-23T10:40:12.990Z</time>
      </trkpt>
      <trkpt lat="42.596056" lon="-5.609381">
        <ele>849</ele>
        <time>2018-07-23T10:40:15.990Z</time>
      </trkpt>
      <trkpt lat="42.596044" lon="-5.609504">
        <ele>849</ele>
        <time>2018-07-23T10:40:18.960Z</time>
      </trkpt>
      <trkpt lat="42.59603" lon="-5.609658">
        <ele>849.68</ele>
        <time>2018-07-23T10:40:22.990Z</time>
      </trkpt>
      <trkpt lat="42.596016" lon="-5.609818">
        <ele>849</ele>
        <time>2018-07-23T10:40:25.990Z</time>
      </trkpt>
      <trkpt lat="42.595997" lon="-5.61">
        <ele>850</ele>
        <time>2018-07-23T10:40:29.000Z</time>
      </trkpt>
      <trkpt lat="42.595999" lon="-5.610158">
        <ele>850</ele>
        <time>2018-07-23T10:40:31.000Z</time>
      </trkpt>
      <trkpt lat="42.595947" lon="-5.610341">
        <ele>851</ele>
        <time>2018-07-23T10:40:33.000Z</time>
      </trkpt>
      <trkpt lat="42.595913" lon="-5.610466">
        <ele>851</ele>
        <time>2018-07-23T10:40:34.990Z</time>
      </trkpt>
      <trkpt lat="42.595931" lon="-5.610614">
        <ele>851</ele>
        <time>2018-07-23T10:40:39.990Z</time>
      </trkpt>
      <trkpt lat="42.595965" lon="-5.610756">
        <ele>851</ele>
        <time>2018-07-23T10:40:43.990Z</time>
      </trkpt>
      <trkpt lat="42.595974" lon="-5.610918">
        <ele>851</ele>
        <time>2018-07-23T10:40:48.000Z</time>
      </trkpt>
      <trkpt lat="42.595961" lon="-5.611058">
        <ele>851</ele>
        <time>2018-07-23T10:40:50.990Z</time>
      </trkpt>
      <trkpt lat="42.595928" lon="-5.61123">
        <ele>851</ele>
        <time>2018-07-23T10:40:55.000Z</time>
      </trkpt>
      <trkpt lat="42.59587" lon="-5.611352">
        <ele>851.248118491714</ele>
        <time>2018-07-23T10:40:58.000Z</time>
      </trkpt>
      <trkpt lat="42.595863" lon="-5.611504">
        <ele>852.3299968</ele>
        <time>2018-07-23T10:41:02.000Z</time>
      </trkpt>
      <trkpt lat="42.595778" lon="-5.611605">
        <ele>853</ele>
        <time>2018-07-23T10:41:04.990Z</time>
      </trkpt>
      <trkpt lat="42.595709" lon="-5.611744">
        <ele>854</ele>
        <time>2018-07-23T10:41:08.990Z</time>
      </trkpt>
      <trkpt lat="42.595642" lon="-5.611881">
        <ele>855</ele>
        <time>2018-07-23T10:41:11.990Z</time>
      </trkpt>
      <trkpt lat="42.59557" lon="-5.611966">
        <ele>855.313727458682</ele>
        <time>2018-07-23T10:41:15.990Z</time>
      </trkpt>
      <trkpt lat="42.595492" lon="-5.612057">
        <ele>856</ele>
        <time>2018-07-23T10:41:19.000Z</time>
      </trkpt>
      <trkpt lat="42.595389" lon="-5.612065">
        <ele>856</ele>
        <time>2018-07-23T10:41:20.990Z</time>
      </trkpt>
      <trkpt lat="42.59527" lon="-5.612095">
        <ele>857</ele>
        <time>2018-07-23T10:41:23.990Z</time>
      </trkpt>
      <trkpt lat="42.595161" lon="-5.612131">
        <ele>857.246155057994</ele>
        <time>2018-07-23T10:41:26.990Z</time>
      </trkpt>
      <trkpt lat="42.595033" lon="-5.612136">
        <ele>858</ele>
        <time>2018-07-23T10:41:30.000Z</time>
      </trkpt>
      <trkpt lat="42.594906" lon="-5.612153">
        <ele>859</ele>
        <time>2018-07-23T10:41:33.020Z</time>
      </trkpt>
      <trkpt lat="42.594784" lon="-5.612149">
        <ele>860</ele>
        <time>2018-07-23T10:41:35.990Z</time>
      </trkpt>
      <trkpt lat="42.594659" lon="-5.612132">
        <ele>860</ele>
        <time>2018-07-23T10:41:38.990Z</time>
      </trkpt>
      <trkpt lat="42.594526" lon="-5.612107">
        <ele>860.32</ele>
        <time>2018-07-23T10:41:41.990Z</time>
      </trkpt>
      <trkpt lat="42.594395" lon="-5.612092">
        <ele>862</ele>
        <time>2018-07-23T10:41:45.000Z</time>
      </trkpt>
      <trkpt lat="42.594304" lon="-5.612196">
        <ele>862</ele>
        <time>2018-07-23T10:41:47.990Z</time>
      </trkpt>
      <trkpt lat="42.594314" lon="-5.612339">
        <ele>863</ele>
        <time>2018-07-23T10:41:50.990Z</time>
      </trkpt>
      <trkpt lat="42.594322" lon="-5.612483">
        <ele>864</ele>
        <time>2018-07-23T10:41:53.960Z</time>
      </trkpt>
      <trkpt lat="42.594344" lon="-5.612627">
        <ele>864.32</ele>
        <time>2018-07-23T10:41:56.990Z</time>
      </trkpt>
      <trkpt lat="42.594372" lon="-5.612774">
        <ele>865.3299968</ele>
        <time>2018-07-23T10:42:00.000Z</time>
      </trkpt>
      <trkpt lat="42.594375" lon="-5.612914">
        <ele>867</ele>
        <time>2018-07-23T10:42:02.990Z</time>
      </trkpt>
      <trkpt lat="42.594386" lon="-5.61304">
        <ele>868</ele>
        <time>2018-07-23T10:42:05.990Z</time>
      </trkpt>
      <trkpt lat="42.594415" lon="-5.613188">
        <ele>870</ele>
        <time>2018-07-23T10:42:10.000Z</time>
      </trkpt>
      <trkpt lat="42.594399" lon="-5.613321">
        <ele>871.32</ele>
        <time>2018-07-23T10:42:13.990Z</time>
      </trkpt>
      <trkpt lat="42.594385" lon="-5.613447">
        <ele>874</ele>
        <time>2018-07-23T10:42:21.990Z</time>
      </trkpt>
      <trkpt lat="42.594328" lon="-5.613559">
        <ele>874</ele>
        <time>2018-07-23T10:42:28.990Z</time>
      </trkpt>
      <trkpt lat="42.594271" lon="-5.613678">
        <ele>875</ele>
        <time>2018-07-23T10:42:35.990Z</time>
      </trkpt>
      <trkpt lat="42.59421" lon="-5.613781">
        <ele>876</ele>
        <time>2018-07-23T10:42:42.990Z</time>
      </trkpt>
      <trkpt lat="42.594156" lon="-5.613881">
        <ele>877</ele>
        <time>2018-07-23T10:42:49.020Z</time>
      </trkpt>
      <trkpt lat="42.594104" lon="-5.613996">
        <ele>877</ele>
        <time>2018-07-23T10:42:55.000Z</time>
      </trkpt>
      <trkpt lat="42.594029" lon="-5.614112">
        <ele>877</ele>
        <time>2018-07-23T10:42:59.000Z</time>
      </trkpt>
      <trkpt lat="42.594" lon="-5.61423">
        <ele>877</ele>
        <time>2018-07-23T10:43:02.990Z</time>
      </trkpt>
      <trkpt lat="42.59394" lon="-5.61438">
        <ele>877</ele>
        <time>2018-07-23T10:43:06.990Z</time>
      </trkpt>
      <trkpt lat="42.593864" lon="-5.61447">
        <ele>877.6700032</ele>
        <time>2018-07-23T10:43:10.000Z</time>
      </trkpt>
      <trkpt lat="42.593797" lon="-5.614566">
        <ele>877</ele>
        <time>2018-07-23T10:43:13.000Z</time>
      </trkpt>
      <trkpt lat="42.593752" lon="-5.61468">
        <ele>878</ele>
        <time>2018-07-23T10:43:16.990Z</time>
      </trkpt>
      <trkpt lat="42.593702" lon="-5.614799">
        <ele>877</ele>
        <time>2018-07-23T10:43:19.990Z</time>
      </trkpt>
      <trkpt lat="42.593639" lon="-5.61494">
        <ele>877</ele>
        <time>2018-07-23T10:43:23.990Z</time>
      </trkpt>
      <trkpt lat="42.593577" lon="-5.615061">
        <ele>877.3299968</ele>
        <time>2018-07-23T10:43:27.000Z</time>
      </trkpt>
      <trkpt lat="42.593514" lon="-5.615178">
        <ele>878</ele>
        <time>2018-07-23T10:43:30.000Z</time>
      </trkpt>
      <trkpt lat="42.593473" lon="-5.615288">
        <ele>878</ele>
        <time>2018-07-23T10:43:33.990Z</time>
      </trkpt>
      <trkpt lat="42.593383" lon="-5.615472">
        <ele>878</ele>
        <time>2018-07-23T10:43:38.000Z</time>
      </trkpt>
      <trkpt lat="42.593306" lon="-5.615607">
        <ele>878</ele>
        <time>2018-07-23T10:43:41.000Z</time>
      </trkpt>
      <trkpt lat="42.593244" lon="-5.615743">
        <ele>878</ele>
        <time>2018-07-23T10:43:44.990Z</time>
      </trkpt>
      <trkpt lat="42.593199" lon="-5.615893">
        <ele>878</ele>
        <time>2018-07-23T10:43:47.990Z</time>
      </trkpt>
      <trkpt lat="42.593152" lon="-5.616025">
        <ele>878</ele>
        <time>2018-07-23T10:43:50.990Z</time>
      </trkpt>
      <trkpt lat="42.593173" lon="-5.616182">
        <ele>878</ele>
        <time>2018-07-23T10:43:54.000Z</time>
      </trkpt>
      <trkpt lat="42.593086" lon="-5.616219">
        <ele>878</ele>
        <time>2018-07-23T10:43:56.000Z</time>
      </trkpt>
      <trkpt lat="42.593011" lon="-5.616288">
        <ele>878</ele>
        <time>2018-07-23T10:44:49.990Z</time>
      </trkpt>
      <trkpt lat="42.592935" lon="-5.616386">
        <ele>878</ele>
        <time>2018-07-23T10:44:59.000Z</time>
      </trkpt>
      <trkpt lat="42.592894" lon="-5.616532">
        <ele>878</ele>
        <time>2018-07-23T10:45:03.990Z</time>
      </trkpt>
      <trkpt lat="42.592845" lon="-5.616649">
        <ele>878</ele>
        <time>2018-07-23T10:45:07.990Z</time>
      </trkpt>
      <trkpt lat="42.592791" lon="-5.616794">
        <ele>877</ele>
        <time>2018-07-23T10:45:12.000Z</time>
      </trkpt>
      <trkpt lat="42.592742" lon="-5.616944">
        <ele>877</ele>
        <time>2018-07-23T10:45:16.000Z</time>
      </trkpt>
      <trkpt lat="42.592686" lon="-5.617064">
        <ele>877</ele>
        <time>2018-07-23T10:45:19.000Z</time>
      </trkpt>
      <trkpt lat="42.592645" lon="-5.61718">
        <ele>877</ele>
        <time>2018-07-23T10:45:22.000Z</time>
      </trkpt>
      <trkpt lat="42.592587" lon="-5.617348">
        <ele>877</ele>
        <time>2018-07-23T10:45:26.000Z</time>
      </trkpt>
      <trkpt lat="42.592521" lon="-5.617462">
        <ele>877</ele>
        <time>2018-07-23T10:45:30.000Z</time>
      </trkpt>
      <trkpt lat="42.592486" lon="-5.617616">
        <ele>877</ele>
        <time>2018-07-23T10:45:32.990Z</time>
      </trkpt>
      <trkpt lat="42.592424" lon="-5.617741">
        <ele>877</ele>
        <time>2018-07-23T10:45:35.990Z</time>
      </trkpt>
      <trkpt lat="42.592366" lon="-5.61788">
        <ele>877</ele>
        <time>2018-07-23T10:45:38.990Z</time>
      </trkpt>
      <trkpt lat="42.592308" lon="-5.617979">
        <ele>877</ele>
        <time>2018-07-23T10:45:41.990Z</time>
      </trkpt>
      <trkpt lat="42.592253" lon="-5.618103">
        <ele>877</ele>
        <time>2018-07-23T10:45:45.000Z</time>
      </trkpt>
      <trkpt lat="42.592197" lon="-5.618249">
        <ele>877</ele>
        <time>2018-07-23T10:45:47.990Z</time>
      </trkpt>
      <trkpt lat="42.592125" lon="-5.618397">
        <ele>877</ele>
        <time>2018-07-23T10:45:50.990Z</time>
      </trkpt>
      <trkpt lat="42.592067" lon="-5.618546">
        <ele>878</ele>
        <time>2018-07-23T10:45:53.990Z</time>
      </trkpt>
      <trkpt lat="42.59201" lon="-5.618693">
        <ele>878</ele>
        <time>2018-07-23T10:45:56.990Z</time>
      </trkpt>
      <trkpt lat="42.591943" lon="-5.61884">
        <ele>878</ele>
        <time>2018-07-23T10:45:59.970Z</time>
      </trkpt>
      <trkpt lat="42.591892" lon="-5.619004">
        <ele>878</ele>
        <time>2018-07-23T10:46:02.990Z</time>
      </trkpt>
      <trkpt lat="42.591852" lon="-5.619126">
        <ele>878</ele>
        <time>2018-07-23T10:46:05.000Z</time>
      </trkpt>
      <trkpt lat="42.591794" lon="-5.619293">
        <ele>878</ele>
        <time>2018-07-23T10:46:08.000Z</time>
      </trkpt>
      <trkpt lat="42.591737" lon="-5.619428">
        <ele>878.3299968</ele>
        <time>2018-07-23T10:46:11.000Z</time>
      </trkpt>
      <trkpt lat="42.59168" lon="-5.619597">
        <ele>879</ele>
        <time>2018-07-23T10:46:13.990Z</time>
      </trkpt>
      <trkpt lat="42.591622" lon="-5.619742">
        <ele>879</ele>
        <time>2018-07-23T10:46:17.000Z</time>
      </trkpt>
      <trkpt lat="42.591568" lon="-5.619851">
        <ele>879</ele>
        <time>2018-07-23T10:46:19.000Z</time>
      </trkpt>
      <trkpt lat="42.591508" lon="-5.620002">
        <ele>878.757575757576</ele>
        <time>2018-07-23T10:46:21.990Z</time>
      </trkpt>
      <trkpt lat="42.591443" lon="-5.620132">
        <ele>878</ele>
        <time>2018-07-23T10:46:25.000Z</time>
      </trkpt>
      <trkpt lat="42.591392" lon="-5.62024">
        <ele>878</ele>
        <time>2018-07-23T10:46:26.990Z</time>
      </trkpt>
      <trkpt lat="42.59132" lon="-5.620368">
        <ele>879</ele>
        <time>2018-07-23T10:46:30.000Z</time>
      </trkpt>
      <trkpt lat="42.591272" lon="-5.620508">
        <ele>879</ele>
        <time>2018-07-23T10:46:33.000Z</time>
      </trkpt>
      <trkpt lat="42.591196" lon="-5.62063">
        <ele>879</ele>
        <time>2018-07-23T10:46:36.000Z</time>
      </trkpt>
      <trkpt lat="42.591108" lon="-5.620741">
        <ele>879.3299968</ele>
        <time>2018-07-23T10:46:39.000Z</time>
      </trkpt>
      <trkpt lat="42.591048" lon="-5.620881">
        <ele>880</ele>
        <time>2018-07-23T10:46:41.990Z</time>
      </trkpt>
      <trkpt lat="42.590998" lon="-5.62099">
        <ele>880</ele>
        <time>2018-07-23T10:46:44.990Z</time>
      </trkpt>
      <trkpt lat="42.590944" lon="-5.621118">
        <ele>880</ele>
        <time>2018-07-23T10:46:48.000Z</time>
      </trkpt>
      <trkpt lat="42.59089" lon="-5.621256">
        <ele>880</ele>
        <time>2018-07-23T10:46:51.000Z</time>
      </trkpt>
      <trkpt lat="42.590814" lon="-5.621382">
        <ele>880</ele>
        <time>2018-07-23T10:46:53.990Z</time>
      </trkpt>
      <trkpt lat="42.590764" lon="-5.621556">
        <ele>880</ele>
        <time>2018-07-23T10:46:56.960Z</time>
      </trkpt>
      <trkpt lat="42.59074" lon="-5.621681">
        <ele>880</ele>
        <time>2018-07-23T10:46:59.000Z</time>
      </trkpt>
      <trkpt lat="42.590695" lon="-5.621802">
        <ele>880</ele>
        <time>2018-07-23T10:47:01.000Z</time>
      </trkpt>
      <trkpt lat="42.590629" lon="-5.621966">
        <ele>880</ele>
        <time>2018-07-23T10:47:03.990Z</time>
      </trkpt>
      <trkpt lat="42.590573" lon="-5.622128">
        <ele>881</ele>
        <time>2018-07-23T10:47:07.100Z</time>
      </trkpt>
      <trkpt lat="42.590493" lon="-5.622246">
        <ele>881</ele>
        <time>2018-07-23T10:47:10.000Z</time>
      </trkpt>
      <trkpt lat="42.590428" lon="-5.622368">
        <ele>882</ele>
        <time>2018-07-23T10:47:12.960Z</time>
      </trkpt>
      <trkpt lat="42.590373" lon="-5.622504">
        <ele>882</ele>
        <time>2018-07-23T10:47:15.960Z</time>
      </trkpt>
      <trkpt lat="42.590304" lon="-5.622647">
        <ele>882</ele>
        <time>2018-07-23T10:47:18.990Z</time>
      </trkpt>
      <trkpt lat="42.590238" lon="-5.622788">
        <ele>882</ele>
        <time>2018-07-23T10:47:22.000Z</time>
      </trkpt>
      <trkpt lat="42.590191" lon="-5.622898">
        <ele>882</ele>
        <time>2018-07-23T10:47:23.990Z</time>
      </trkpt>
      <trkpt lat="42.590119" lon="-5.623054">
        <ele>881.6700032</ele>
        <time>2018-07-23T10:47:27.000Z</time>
      </trkpt>
      <trkpt lat="42.590037" lon="-5.623209">
        <ele>881.3299968</ele>
        <time>2018-07-23T10:47:30.000Z</time>
      </trkpt>
      <trkpt lat="42.589978" lon="-5.623316">
        <ele>882</ele>
        <time>2018-07-23T10:47:32.000Z</time>
      </trkpt>
      <trkpt lat="42.589905" lon="-5.623406">
        <ele>882</ele>
        <time>2018-07-23T10:47:34.030Z</time>
      </trkpt>
      <trkpt lat="42.589853" lon="-5.623534">
        <ele>882</ele>
        <time>2018-07-23T10:47:37.000Z</time>
      </trkpt>
      <trkpt lat="42.589787" lon="-5.623644">
        <ele>882</ele>
        <time>2018-07-23T10:47:39.000Z</time>
      </trkpt>
      <trkpt lat="42.589725" lon="-5.623753">
        <ele>882</ele>
        <time>2018-07-23T10:47:41.000Z</time>
      </trkpt>
      <trkpt lat="42.589687" lon="-5.623877">
        <ele>882</ele>
        <time>2018-07-23T10:47:43.100Z</time>
      </trkpt>
      <trkpt lat="42.589661" lon="-5.624001">
        <ele>882</ele>
        <time>2018-07-23T10:47:45.000Z</time>
      </trkpt>
      <trkpt lat="42.589596" lon="-5.624126">
        <ele>882</ele>
        <time>2018-07-23T10:47:47.000Z</time>
      </trkpt>
      <trkpt lat="42.58953" lon="-5.624276">
        <ele>882</ele>
        <time>2018-07-23T10:47:50.000Z</time>
      </trkpt>
      <trkpt lat="42.58948" lon="-5.62439">
        <ele>882.042861322411</ele>
        <time>2018-07-23T10:47:52.000Z</time>
      </trkpt>
      <trkpt lat="42.589422" lon="-5.624512">
        <ele>883</ele>
        <time>2018-07-23T10:47:53.960Z</time>
      </trkpt>
      <trkpt lat="42.589348" lon="-5.624658">
        <ele>884</ele>
        <time>2018-07-23T10:47:57.000Z</time>
      </trkpt>
      <trkpt lat="42.589304" lon="-5.62477">
        <ele>884</ele>
        <time>2018-07-23T10:47:59.000Z</time>
      </trkpt>
      <trkpt lat="42.589225" lon="-5.624907">
        <ele>884</ele>
        <time>2018-07-23T10:48:02.000Z</time>
      </trkpt>
      <trkpt lat="42.589165" lon="-5.625046">
        <ele>884</ele>
        <time>2018-07-23T10:48:04.990Z</time>
      </trkpt>
      <trkpt lat="42.589085" lon="-5.625174">
        <ele>884</ele>
        <time>2018-07-23T10:48:08.000Z</time>
      </trkpt>
      <trkpt lat="42.589013" lon="-5.625307">
        <ele>884</ele>
        <time>2018-07-23T10:48:10.990Z</time>
      </trkpt>
      <trkpt lat="42.588946" lon="-5.625456">
        <ele>885</ele>
        <time>2018-07-23T10:48:13.990Z</time>
      </trkpt>
      <trkpt lat="42.588879" lon="-5.62561">
        <ele>885</ele>
        <time>2018-07-23T10:48:16.990Z</time>
      </trkpt>
      <trkpt lat="42.588841" lon="-5.625722">
        <ele>886</ele>
        <time>2018-07-23T10:48:18.990Z</time>
      </trkpt>
      <trkpt lat="42.588766" lon="-5.625865">
        <ele>886</ele>
        <time>2018-07-23T10:48:21.990Z</time>
      </trkpt>
      <trkpt lat="42.588724" lon="-5.625976">
        <ele>886</ele>
        <time>2018-07-23T10:48:23.990Z</time>
      </trkpt>
      <trkpt lat="42.588667" lon="-5.626116">
        <ele>886</ele>
        <time>2018-07-23T10:48:27.000Z</time>
      </trkpt>
      <trkpt lat="42.588588" lon="-5.626253">
        <ele>887</ele>
        <time>2018-07-23T10:48:29.990Z</time>
      </trkpt>
      <trkpt lat="42.588521" lon="-5.626357">
        <ele>887</ele>
        <time>2018-07-23T10:48:32.960Z</time>
      </trkpt>
      <trkpt lat="42.588431" lon="-5.626442">
        <ele>887</ele>
        <time>2018-07-23T10:48:35.990Z</time>
      </trkpt>
      <trkpt lat="42.588343" lon="-5.626516">
        <ele>887</ele>
        <time>2018-07-23T10:48:39.000Z</time>
      </trkpt>
      <trkpt lat="42.588239" lon="-5.626567">
        <ele>888.248118491714</ele>
        <time>2018-07-23T10:48:42.000Z</time>
      </trkpt>
      <trkpt lat="42.588139" lon="-5.626596">
        <ele>890</ele>
        <time>2018-07-23T10:48:45.000Z</time>
      </trkpt>
      <trkpt lat="42.588038" lon="-5.626629">
        <ele>891</ele>
        <time>2018-07-23T10:48:48.000Z</time>
      </trkpt>
      <trkpt lat="42.587941" lon="-5.626664">
        <ele>892</ele>
        <time>2018-07-23T10:48:51.000Z</time>
      </trkpt>
      <trkpt lat="42.587846" lon="-5.626704">
        <ele>892</ele>
        <time>2018-07-23T10:48:54.000Z</time>
      </trkpt>
      <trkpt lat="42.587771" lon="-5.626778">
        <ele>893.246155057994</ele>
        <time>2018-07-23T10:48:56.990Z</time>
      </trkpt>
      <trkpt lat="42.587692" lon="-5.626868">
        <ele>894</ele>
        <time>2018-07-23T10:48:59.990Z</time>
      </trkpt>
      <trkpt lat="42.587611" lon="-5.626964">
        <ele>894</ele>
        <time>2018-07-23T10:49:02.990Z</time>
      </trkpt>
      <trkpt lat="42.587534" lon="-5.627065">
        <ele>894</ele>
        <time>2018-07-23T10:49:06.000Z</time>
      </trkpt>
      <trkpt lat="42.58745" lon="-5.627155">
        <ele>894</ele>
        <time>2018-07-23T10:49:09.020Z</time>
      </trkpt>
      <trkpt lat="42.587378" lon="-5.627262">
        <ele>894</ele>
        <time>2018-07-23T10:49:11.990Z</time>
      </trkpt>
      <trkpt lat="42.587305" lon="-5.627368">
        <ele>894</ele>
        <time>2018-07-23T10:49:14.990Z</time>
      </trkpt>
      <trkpt lat="42.587228" lon="-5.627481">
        <ele>895</ele>
        <time>2018-07-23T10:49:17.990Z</time>
      </trkpt>
      <trkpt lat="42.587155" lon="-5.627598">
        <ele>895</ele>
        <time>2018-07-23T10:49:21.000Z</time>
      </trkpt>
      <trkpt lat="42.587086" lon="-5.627718">
        <ele>895</ele>
        <time>2018-07-23T10:49:23.990Z</time>
      </trkpt>
      <trkpt lat="42.587009" lon="-5.62783">
        <ele>896</ele>
        <time>2018-07-23T10:49:26.990Z</time>
      </trkpt>
      <trkpt lat="42.586927" lon="-5.627946">
        <ele>896</ele>
        <time>2018-07-23T10:49:29.960Z</time>
      </trkpt>
      <trkpt lat="42.586837" lon="-5.628057">
        <ele>896</ele>
        <time>2018-07-23T10:49:32.990Z</time>
      </trkpt>
      <trkpt lat="42.586759" lon="-5.628191">
        <ele>896</ele>
        <time>2018-07-23T10:49:36.000Z</time>
      </trkpt>
      <trkpt lat="42.586698" lon="-5.628326">
        <ele>896</ele>
        <time>2018-07-23T10:49:38.990Z</time>
      </trkpt>
      <trkpt lat="42.586631" lon="-5.628459">
        <ele>896.32</ele>
        <time>2018-07-23T10:49:41.990Z</time>
      </trkpt>
      <trkpt lat="42.586573" lon="-5.628615">
        <ele>897</ele>
        <time>2018-07-23T10:49:44.990Z</time>
      </trkpt>
      <trkpt lat="42.586518" lon="-5.628749">
        <ele>897</ele>
        <time>2018-07-23T10:49:47.960Z</time>
      </trkpt>
      <trkpt lat="42.586452" lon="-5.628852">
        <ele>897</ele>
        <time>2018-07-23T10:49:51.000Z</time>
      </trkpt>
      <trkpt lat="42.586361" lon="-5.628898">
        <ele>898</ele>
        <time>2018-07-23T10:49:53.990Z</time>
      </trkpt>
      <trkpt lat="42.586259" lon="-5.628888">
        <ele>899</ele>
        <time>2018-07-23T10:49:56.990Z</time>
      </trkpt>
      <trkpt lat="42.58616" lon="-5.628917">
        <ele>899</ele>
        <time>2018-07-23T10:49:59.990Z</time>
      </trkpt>
      <trkpt lat="42.586093" lon="-5.629033">
        <ele>899</ele>
        <time>2018-07-23T10:50:02.990Z</time>
      </trkpt>
      <trkpt lat="42.586038" lon="-5.62917">
        <ele>900</ele>
        <time>2018-07-23T10:50:06.030Z</time>
      </trkpt>
      <trkpt lat="42.585987" lon="-5.629302">
        <ele>900</ele>
        <time>2018-07-23T10:50:09.990Z</time>
      </trkpt>
      <trkpt lat="42.585949" lon="-5.629448">
        <ele>902</ele>
        <time>2018-07-23T10:50:13.990Z</time>
      </trkpt>
      <trkpt lat="42.585901" lon="-5.629565">
        <ele>902</ele>
        <time>2018-07-23T10:50:17.000Z</time>
      </trkpt>
      <trkpt lat="42.58585" lon="-5.629688">
        <ele>903</ele>
        <time>2018-07-23T10:50:20.990Z</time>
      </trkpt>
      <trkpt lat="42.585802" lon="-5.629821">
        <ele>903</ele>
        <time>2018-07-23T10:50:23.990Z</time>
      </trkpt>
      <trkpt lat="42.585741" lon="-5.629929">
        <ele>903</ele>
        <time>2018-07-23T10:50:26.960Z</time>
      </trkpt>
      <trkpt lat="42.585688" lon="-5.630062">
        <ele>903</ele>
        <time>2018-07-23T10:50:30.000Z</time>
      </trkpt>
      <trkpt lat="42.585635" lon="-5.630196">
        <ele>904</ele>
        <time>2018-07-23T10:50:33.000Z</time>
      </trkpt>
      <trkpt lat="42.585598" lon="-5.630355">
        <ele>904</ele>
        <time>2018-07-23T10:50:35.990Z</time>
      </trkpt>
      <trkpt lat="42.58556" lon="-5.630492">
        <ele>904</ele>
        <time>2018-07-23T10:50:39.000Z</time>
      </trkpt>
      <trkpt lat="42.58551" lon="-5.630596">
        <ele>905</ele>
        <time>2018-07-23T10:50:42.000Z</time>
      </trkpt>
      <trkpt lat="42.585467" lon="-5.630703">
        <ele>905</ele>
        <time>2018-07-23T10:50:44.960Z</time>
      </trkpt>
      <trkpt lat="42.585424" lon="-5.630832">
        <ele>905</ele>
        <time>2018-07-23T10:50:48.000Z</time>
      </trkpt>
      <trkpt lat="42.585387" lon="-5.630977">
        <ele>905</ele>
        <time>2018-07-23T10:50:50.990Z</time>
      </trkpt>
      <trkpt lat="42.585342" lon="-5.631106">
        <ele>904</ele>
        <time>2018-07-23T10:50:53.990Z</time>
      </trkpt>
      <trkpt lat="42.585293" lon="-5.631227">
        <ele>904</ele>
        <time>2018-07-23T10:50:56.990Z</time>
      </trkpt>
      <trkpt lat="42.585254" lon="-5.631348">
        <ele>904</ele>
        <time>2018-07-23T10:50:59.990Z</time>
      </trkpt>
      <trkpt lat="42.585203" lon="-5.631457">
        <ele>904</ele>
        <time>2018-07-23T10:51:03.030Z</time>
      </trkpt>
      <trkpt lat="42.585159" lon="-5.631588">
        <ele>904</ele>
        <time>2018-07-23T10:51:06.990Z</time>
      </trkpt>
      <trkpt lat="42.585106" lon="-5.631692">
        <ele>904</ele>
        <time>2018-07-23T10:51:11.990Z</time>
      </trkpt>
      <trkpt lat="42.58505" lon="-5.631804">
        <ele>905</ele>
        <time>2018-07-23T10:51:15.990Z</time>
      </trkpt>
      <trkpt lat="42.584963" lon="-5.631867">
        <ele>905</ele>
        <time>2018-07-23T10:51:19.990Z</time>
      </trkpt>
      <trkpt lat="42.584907" lon="-5.631992">
        <ele>905</ele>
        <time>2018-07-23T10:51:22.970Z</time>
      </trkpt>
      <trkpt lat="42.584857" lon="-5.632137">
        <ele>904</ele>
        <time>2018-07-23T10:51:26.000Z</time>
      </trkpt>
      <trkpt lat="42.584799" lon="-5.632263">
        <ele>904</ele>
        <time>2018-07-23T10:51:29.990Z</time>
      </trkpt>
      <trkpt lat="42.584748" lon="-5.632384">
        <ele>905</ele>
        <time>2018-07-23T10:51:33.000Z</time>
      </trkpt>
      <trkpt lat="42.584696" lon="-5.632499">
        <ele>905</ele>
        <time>2018-07-23T10:51:35.990Z</time>
      </trkpt>
      <trkpt lat="42.584644" lon="-5.63263">
        <ele>905</ele>
        <time>2018-07-23T10:51:38.990Z</time>
      </trkpt>
      <trkpt lat="42.584598" lon="-5.632751">
        <ele>904.7100032</ele>
        <time>2018-07-23T10:51:41.960Z</time>
      </trkpt>
      <trkpt lat="42.584552" lon="-5.632877">
        <ele>905</ele>
        <time>2018-07-23T10:51:44.990Z</time>
      </trkpt>
      <trkpt lat="42.584511" lon="-5.632996">
        <ele>905</ele>
        <time>2018-07-23T10:51:48.000Z</time>
      </trkpt>
      <trkpt lat="42.584464" lon="-5.633124">
        <ele>905</ele>
        <time>2018-07-23T10:51:50.990Z</time>
      </trkpt>
      <trkpt lat="42.584419" lon="-5.633236">
        <ele>906</ele>
        <time>2018-07-23T10:51:53.990Z</time>
      </trkpt>
      <trkpt lat="42.584372" lon="-5.633369">
        <ele>906</ele>
        <time>2018-07-23T10:51:58.000Z</time>
      </trkpt>
      <trkpt lat="42.584314" lon="-5.633494">
        <ele>906</ele>
        <time>2018-07-23T10:52:01.990Z</time>
      </trkpt>
      <trkpt lat="42.584266" lon="-5.633614">
        <ele>906.32</ele>
        <time>2018-07-23T10:52:04.990Z</time>
      </trkpt>
      <trkpt lat="42.584221" lon="-5.633739">
        <ele>907</ele>
        <time>2018-07-23T10:52:08.000Z</time>
      </trkpt>
      <trkpt lat="42.584166" lon="-5.633874">
        <ele>907</ele>
        <time>2018-07-23T10:52:10.990Z</time>
      </trkpt>
      <trkpt lat="42.584122" lon="-5.634003">
        <ele>907</ele>
        <time>2018-07-23T10:52:13.990Z</time>
      </trkpt>
      <trkpt lat="42.584073" lon="-5.634145">
        <ele>907</ele>
        <time>2018-07-23T10:52:16.990Z</time>
      </trkpt>
      <trkpt lat="42.584018" lon="-5.634283">
        <ele>907.2899968</ele>
        <time>2018-07-23T10:52:19.960Z</time>
      </trkpt>
      <trkpt lat="42.583989" lon="-5.634442">
        <ele>908</ele>
        <time>2018-07-23T10:52:23.100Z</time>
      </trkpt>
      <trkpt lat="42.583951" lon="-5.634565">
        <ele>908.3299968</ele>
        <time>2018-07-23T10:52:26.000Z</time>
      </trkpt>
      <trkpt lat="42.583902" lon="-5.634678">
        <ele>909</ele>
        <time>2018-07-23T10:52:29.000Z</time>
      </trkpt>
      <trkpt lat="42.583855" lon="-5.634784">
        <ele>909</ele>
        <time>2018-07-23T10:52:31.990Z</time>
      </trkpt>
      <trkpt lat="42.583779" lon="-5.634906">
        <ele>911</ele>
        <time>2018-07-23T10:52:36.990Z</time>
      </trkpt>
      <trkpt lat="42.583732" lon="-5.635037">
        <ele>911</ele>
        <time>2018-07-23T10:52:41.000Z</time>
      </trkpt>
      <trkpt lat="42.58371" lon="-5.635161">
        <ele>911</ele>
        <time>2018-07-23T10:52:43.970Z</time>
      </trkpt>
      <trkpt lat="42.583686" lon="-5.635312">
        <ele>911.32</ele>
        <time>2018-07-23T10:52:47.990Z</time>
      </trkpt>
      <trkpt lat="42.583623" lon="-5.635406">
        <ele>912</ele>
        <time>2018-07-23T10:52:51.000Z</time>
      </trkpt>
      <trkpt lat="42.583584" lon="-5.635519">
        <ele>913</ele>
        <time>2018-07-23T10:52:53.990Z</time>
      </trkpt>
      <trkpt lat="42.583554" lon="-5.635644">
        <ele>913</ele>
        <time>2018-07-23T10:52:57.000Z</time>
      </trkpt>
      <trkpt lat="42.583492" lon="-5.635744">
        <ele>913.3299968</ele>
        <time>2018-07-23T10:53:01.000Z</time>
      </trkpt>
      <trkpt lat="42.583453" lon="-5.635895">
        <ele>914</ele>
        <time>2018-07-23T10:53:04.990Z</time>
      </trkpt>
      <trkpt lat="42.583379" lon="-5.636002">
        <ele>914</ele>
        <time>2018-07-23T10:53:08.990Z</time>
      </trkpt>
      <trkpt lat="42.58332" lon="-5.63613">
        <ele>915</ele>
        <time>2018-07-23T10:53:12.990Z</time>
      </trkpt>
      <trkpt lat="42.583265" lon="-5.63623">
        <ele>916</ele>
        <time>2018-07-23T10:53:16.020Z</time>
      </trkpt>
      <trkpt lat="42.583216" lon="-5.636344">
        <ele>916</ele>
        <time>2018-07-23T10:53:18.990Z</time>
      </trkpt>
      <trkpt lat="42.583154" lon="-5.636465">
        <ele>916</ele>
        <time>2018-07-23T10:53:22.000Z</time>
      </trkpt>
      <trkpt lat="42.583095" lon="-5.636582">
        <ele>916</ele>
        <time>2018-07-23T10:53:25.100Z</time>
      </trkpt>
      <trkpt lat="42.582988" lon="-5.636649">
        <ele>916</ele>
        <time>2018-07-23T10:53:28.000Z</time>
      </trkpt>
      <trkpt lat="42.582913" lon="-5.636734">
        <ele>916</ele>
        <time>2018-07-23T10:53:30.990Z</time>
      </trkpt>
      <trkpt lat="42.582838" lon="-5.636814">
        <ele>917</ele>
        <time>2018-07-23T10:53:34.000Z</time>
      </trkpt>
      <trkpt lat="42.582782" lon="-5.636946">
        <ele>917</ele>
        <time>2018-07-23T10:53:36.990Z</time>
      </trkpt>
      <trkpt lat="42.582725" lon="-5.637096">
        <ele>917</ele>
        <time>2018-07-23T10:53:39.990Z</time>
      </trkpt>
      <trkpt lat="42.582662" lon="-5.637254">
        <ele>917</ele>
        <time>2018-07-23T10:53:43.000Z</time>
      </trkpt>
      <trkpt lat="42.582625" lon="-5.637373">
        <ele>917</ele>
        <time>2018-07-23T10:53:45.000Z</time>
      </trkpt>
      <trkpt lat="42.582525" lon="-5.637459">
        <ele>917</ele>
        <time>2018-07-23T10:53:47.990Z</time>
      </trkpt>
      <trkpt lat="42.582452" lon="-5.637587">
        <ele>917</ele>
        <time>2018-07-23T10:53:51.000Z</time>
      </trkpt>
      <trkpt lat="42.582374" lon="-5.637705">
        <ele>916.6500096</ele>
        <time>2018-07-23T10:53:54.020Z</time>
      </trkpt>
      <trkpt lat="42.582304" lon="-5.637799">
        <ele>916</ele>
        <time>2018-07-23T10:53:56.990Z</time>
      </trkpt>
      <trkpt lat="42.582235" lon="-5.6379">
        <ele>916</ele>
        <time>2018-07-23T10:53:59.990Z</time>
      </trkpt>
      <trkpt lat="42.582169" lon="-5.637998">
        <ele>916</ele>
        <time>2018-07-23T10:54:03.990Z</time>
      </trkpt>
      <trkpt lat="42.582079" lon="-5.63809">
        <ele>916</ele>
        <time>2018-07-23T10:54:07.990Z</time>
      </trkpt>
      <trkpt lat="42.582011" lon="-5.638208">
        <ele>916</ele>
        <time>2018-07-23T10:54:11.000Z</time>
      </trkpt>
      <trkpt lat="42.581933" lon="-5.638312">
        <ele>916</ele>
        <time>2018-07-23T10:54:13.960Z</time>
      </trkpt>
      <trkpt lat="42.581859" lon="-5.638421">
        <ele>916</ele>
        <time>2018-07-23T10:54:16.990Z</time>
      </trkpt>
      <trkpt lat="42.581787" lon="-5.638533">
        <ele>916</ele>
        <time>2018-07-23T10:54:19.990Z</time>
      </trkpt>
      <trkpt lat="42.581699" lon="-5.638659">
        <ele>916</ele>
        <time>2018-07-23T10:54:22.990Z</time>
      </trkpt>
      <trkpt lat="42.581584" lon="-5.638778">
        <ele>916</ele>
        <time>2018-07-23T10:54:27.000Z</time>
      </trkpt>
      <trkpt lat="42.581499" lon="-5.638846">
        <ele>916</ele>
        <time>2018-07-23T10:54:29.000Z</time>
      </trkpt>
      <trkpt lat="42.581438" lon="-5.638936">
        <ele>916</ele>
        <time>2018-07-23T10:54:31.000Z</time>
      </trkpt>
      <trkpt lat="42.581376" lon="-5.639084">
        <ele>916.3299968</ele>
        <time>2018-07-23T10:54:34.000Z</time>
      </trkpt>
      <trkpt lat="42.581311" lon="-5.639218">
        <ele>917</ele>
        <time>2018-07-23T10:54:37.000Z</time>
      </trkpt>
      <trkpt lat="42.581273" lon="-5.639357">
        <ele>917</ele>
        <time>2018-07-23T10:54:40.990Z</time>
      </trkpt>
      <trkpt lat="42.581193" lon="-5.639475">
        <ele>917</ele>
        <time>2018-07-23T10:54:45.000Z</time>
      </trkpt>
      <trkpt lat="42.581104" lon="-5.639616">
        <ele>916</ele>
        <time>2018-07-23T10:54:47.990Z</time>
      </trkpt>
      <trkpt lat="42.581067" lon="-5.639802">
        <ele>916</ele>
        <time>2018-07-23T10:54:51.020Z</time>
      </trkpt>
      <trkpt lat="42.580985" lon="-5.639936">
        <ele>916</ele>
        <time>2018-07-23T10:54:53.990Z</time>
      </trkpt>
      <trkpt lat="42.580885" lon="-5.640031">
        <ele>916</ele>
        <time>2018-07-23T10:54:57.000Z</time>
      </trkpt>
      <trkpt lat="42.580819" lon="-5.640127">
        <ele>916</ele>
        <time>2018-07-23T10:54:58.990Z</time>
      </trkpt>
      <trkpt lat="42.580751" lon="-5.64022">
        <ele>916</ele>
        <time>2018-07-23T10:55:00.990Z</time>
      </trkpt>
      <trkpt lat="42.580698" lon="-5.640327">
        <ele>916</ele>
        <time>2018-07-23T10:55:02.990Z</time>
      </trkpt>
      <trkpt lat="42.580618" lon="-5.64046">
        <ele>916</ele>
        <time>2018-07-23T10:55:05.990Z</time>
      </trkpt>
      <trkpt lat="42.580549" lon="-5.640555">
        <ele>916</ele>
        <time>2018-07-23T10:55:07.990Z</time>
      </trkpt>
      <trkpt lat="42.580488" lon="-5.640667">
        <ele>916</ele>
        <time>2018-07-23T10:55:10.020Z</time>
      </trkpt>
      <trkpt lat="42.580428" lon="-5.640778">
        <ele>916</ele>
        <time>2018-07-23T10:55:12.000Z</time>
      </trkpt>
      <trkpt lat="42.580337" lon="-5.640915">
        <ele>916</ele>
        <time>2018-07-23T10:55:14.990Z</time>
      </trkpt>
      <trkpt lat="42.580267" lon="-5.640999">
        <ele>916</ele>
        <time>2018-07-23T10:55:17.000Z</time>
      </trkpt>
      <trkpt lat="42.580191" lon="-5.641079">
        <ele>916</ele>
        <time>2018-07-23T10:55:18.990Z</time>
      </trkpt>
      <trkpt lat="42.580126" lon="-5.641181">
        <ele>916</ele>
        <time>2018-07-23T10:55:20.990Z</time>
      </trkpt>
      <trkpt lat="42.580068" lon="-5.64129">
        <ele>916</ele>
        <time>2018-07-23T10:55:22.990Z</time>
      </trkpt>
      <trkpt lat="42.580017" lon="-5.641408">
        <ele>916</ele>
        <time>2018-07-23T10:55:24.990Z</time>
      </trkpt>
      <trkpt lat="42.579959" lon="-5.641513">
        <ele>916</ele>
        <time>2018-07-23T10:55:27.000Z</time>
      </trkpt>
      <trkpt lat="42.579891" lon="-5.641599">
        <ele>915.6499968</ele>
        <time>2018-07-23T10:55:29.020Z</time>
      </trkpt>
      <trkpt lat="42.579822" lon="-5.641687">
        <ele>915</ele>
        <time>2018-07-23T10:55:30.990Z</time>
      </trkpt>
      <trkpt lat="42.579756" lon="-5.641776">
        <ele>915</ele>
        <time>2018-07-23T10:55:32.990Z</time>
      </trkpt>
      <trkpt lat="42.579683" lon="-5.641871">
        <ele>915</ele>
        <time>2018-07-23T10:55:34.990Z</time>
      </trkpt>
      <trkpt lat="42.5796" lon="-5.641969">
        <ele>914.6700032</ele>
        <time>2018-07-23T10:55:37.000Z</time>
      </trkpt>
      <trkpt lat="42.579516" lon="-5.642077">
        <ele>914</ele>
        <time>2018-07-23T10:55:38.990Z</time>
      </trkpt>
      <trkpt lat="42.579431" lon="-5.642204">
        <ele>913.68</ele>
        <time>2018-07-23T10:55:40.990Z</time>
      </trkpt>
      <trkpt lat="42.579347" lon="-5.64234">
        <ele>912</ele>
        <time>2018-07-23T10:55:42.990Z</time>
      </trkpt>
      <trkpt lat="42.579263" lon="-5.642458">
        <ele>911</ele>
        <time>2018-07-23T10:55:44.990Z</time>
      </trkpt>
      <trkpt lat="42.579179" lon="-5.642588">
        <ele>910</ele>
        <time>2018-07-23T10:55:47.000Z</time>
      </trkpt>
      <trkpt lat="42.579093" lon="-5.642716">
        <ele>910</ele>
        <time>2018-07-23T10:55:48.960Z</time>
      </trkpt>
      <trkpt lat="42.579002" lon="-5.642859">
        <ele>910</ele>
        <time>2018-07-23T10:55:50.990Z</time>
      </trkpt>
      <trkpt lat="42.578915" lon="-5.643015">
        <ele>909.68</ele>
        <time>2018-07-23T10:55:52.990Z</time>
      </trkpt>
      <trkpt lat="42.578835" lon="-5.64318">
        <ele>909</ele>
        <time>2018-07-23T10:55:54.990Z</time>
      </trkpt>
      <trkpt lat="42.578764" lon="-5.643359">
        <ele>908</ele>
        <time>2018-07-23T10:55:57.000Z</time>
      </trkpt>
      <trkpt lat="42.578689" lon="-5.643523">
        <ele>907</ele>
        <time>2018-07-23T10:55:58.990Z</time>
      </trkpt>
      <trkpt lat="42.578616" lon="-5.643687">
        <ele>907</ele>
        <time>2018-07-23T10:56:00.990Z</time>
      </trkpt>
      <trkpt lat="42.578556" lon="-5.643873">
        <ele>907</ele>
        <time>2018-07-23T10:56:02.990Z</time>
      </trkpt>
      <trkpt lat="42.578488" lon="-5.644045">
        <ele>906.803681367006</ele>
        <time>2018-07-23T10:56:04.990Z</time>
      </trkpt>
      <trkpt lat="42.57843" lon="-5.644242">
        <ele>906</ele>
        <time>2018-07-23T10:56:07.030Z</time>
      </trkpt>
      <trkpt lat="42.578373" lon="-5.644442">
        <ele>905</ele>
        <time>2018-07-23T10:56:08.990Z</time>
      </trkpt>
      <trkpt lat="42.578315" lon="-5.644642">
        <ele>905</ele>
        <time>2018-07-23T10:56:10.990Z</time>
      </trkpt>
      <trkpt lat="42.578276" lon="-5.644844">
        <ele>904</ele>
        <time>2018-07-23T10:56:12.990Z</time>
      </trkpt>
      <trkpt lat="42.578238" lon="-5.645029">
        <ele>904</ele>
        <time>2018-07-23T10:56:14.990Z</time>
      </trkpt>
      <trkpt lat="42.578204" lon="-5.645203">
        <ele>904</ele>
        <time>2018-07-23T10:56:17.000Z</time>
      </trkpt>
      <trkpt lat="42.578173" lon="-5.645363">
        <ele>905</ele>
        <time>2018-07-23T10:56:18.990Z</time>
      </trkpt>
      <trkpt lat="42.578151" lon="-5.64553">
        <ele>905</ele>
        <time>2018-07-23T10:56:20.990Z</time>
      </trkpt>
      <trkpt lat="42.578124" lon="-5.645685">
        <ele>905</ele>
        <time>2018-07-23T10:56:22.990Z</time>
      </trkpt>
      <trkpt lat="42.578105" lon="-5.645835">
        <ele>906</ele>
        <time>2018-07-23T10:56:24.990Z</time>
      </trkpt>
      <trkpt lat="42.578089" lon="-5.64596">
        <ele>907</ele>
        <time>2018-07-23T10:56:27.000Z</time>
      </trkpt>
      <trkpt lat="42.57807" lon="-5.646099">
        <ele>907</ele>
        <time>2018-07-23T10:56:28.990Z</time>
      </trkpt>
      <trkpt lat="42.578062" lon="-5.646236">
        <ele>907</ele>
        <time>2018-07-23T10:56:30.990Z</time>
      </trkpt>
      <trkpt lat="42.578049" lon="-5.646367">
        <ele>908</ele>
        <time>2018-07-23T10:56:32.990Z</time>
      </trkpt>
      <trkpt lat="42.578027" lon="-5.646488">
        <ele>908</ele>
        <time>2018-07-23T10:56:34.990Z</time>
      </trkpt>
      <trkpt lat="42.577993" lon="-5.646632">
        <ele>908</ele>
        <time>2018-07-23T10:56:37.990Z</time>
      </trkpt>
      <trkpt lat="42.577965" lon="-5.646789">
        <ele>909.326730540136</ele>
        <time>2018-07-23T10:56:42.000Z</time>
      </trkpt>
      <trkpt lat="42.577949" lon="-5.646922">
        <ele>910</ele>
        <time>2018-07-23T10:56:45.000Z</time>
      </trkpt>
      <trkpt lat="42.577903" lon="-5.647039">
        <ele>910</ele>
        <time>2018-07-23T10:56:48.000Z</time>
      </trkpt>
      <trkpt lat="42.577882" lon="-5.647163">
        <ele>910.240602082652</ele>
        <time>2018-07-23T10:56:50.990Z</time>
      </trkpt>
      <trkpt lat="42.577856" lon="-5.647308">
        <ele>911</ele>
        <time>2018-07-23T10:56:56.000Z</time>
      </trkpt>
      <trkpt lat="42.577816" lon="-5.647436">
        <ele>911</ele>
        <time>2018-07-23T10:56:59.990Z</time>
      </trkpt>
      <trkpt lat="42.577798" lon="-5.64759">
        <ele>912</ele>
        <time>2018-07-23T10:57:04.030Z</time>
      </trkpt>
      <trkpt lat="42.577786" lon="-5.647714">
        <ele>913</ele>
        <time>2018-07-23T10:57:06.990Z</time>
      </trkpt>
      <trkpt lat="42.577766" lon="-5.647872">
        <ele>913</ele>
        <time>2018-07-23T10:57:10.000Z</time>
      </trkpt>
      <trkpt lat="42.577727" lon="-5.648015">
        <ele>913</ele>
        <time>2018-07-23T10:57:13.000Z</time>
      </trkpt>
      <trkpt lat="42.577722" lon="-5.648157">
        <ele>914</ele>
        <time>2018-07-23T10:57:15.990Z</time>
      </trkpt>
      <trkpt lat="42.57771" lon="-5.648306">
        <ele>914</ele>
        <time>2018-07-23T10:57:19.000Z</time>
      </trkpt>
      <trkpt lat="42.577686" lon="-5.648447">
        <ele>914</ele>
        <time>2018-07-23T10:57:21.990Z</time>
      </trkpt>
      <trkpt lat="42.577666" lon="-5.648598">
        <ele>915</ele>
        <time>2018-07-23T10:57:24.990Z</time>
      </trkpt>
      <trkpt lat="42.577634" lon="-5.648735">
        <ele>916</ele>
        <time>2018-07-23T10:57:27.990Z</time>
      </trkpt>
      <trkpt lat="42.577616" lon="-5.648878">
        <ele>916</ele>
        <time>2018-07-23T10:57:30.990Z</time>
      </trkpt>
      <trkpt lat="42.577596" lon="-5.649027">
        <ele>916</ele>
        <time>2018-07-23T10:57:34.000Z</time>
      </trkpt>
      <trkpt lat="42.577562" lon="-5.649158">
        <ele>916</ele>
        <time>2018-07-23T10:57:36.990Z</time>
      </trkpt>
      <trkpt lat="42.577518" lon="-5.649284">
        <ele>916</ele>
        <time>2018-07-23T10:57:39.990Z</time>
      </trkpt>
      <trkpt lat="42.577462" lon="-5.649397">
        <ele>916</ele>
        <time>2018-07-23T10:57:42.960Z</time>
      </trkpt>
      <trkpt lat="42.577408" lon="-5.649517">
        <ele>916</ele>
        <time>2018-07-23T10:57:45.990Z</time>
      </trkpt>
      <trkpt lat="42.577352" lon="-5.649657">
        <ele>916</ele>
        <time>2018-07-23T10:57:49.000Z</time>
      </trkpt>
      <trkpt lat="42.577298" lon="-5.649775">
        <ele>916</ele>
        <time>2018-07-23T10:57:51.990Z</time>
      </trkpt>
      <trkpt lat="42.577255" lon="-5.649887">
        <ele>916</ele>
        <time>2018-07-23T10:57:54.990Z</time>
      </trkpt>
      <trkpt lat="42.577198" lon="-5.650014">
        <ele>917</ele>
        <time>2018-07-23T10:57:59.000Z</time>
      </trkpt>
      <trkpt lat="42.577131" lon="-5.650146">
        <ele>917</ele>
        <time>2018-07-23T10:58:02.990Z</time>
      </trkpt>
      <trkpt lat="42.577068" lon="-5.650271">
        <ele>917</ele>
        <time>2018-07-23T10:58:06.990Z</time>
      </trkpt>
      <trkpt lat="42.577006" lon="-5.650412">
        <ele>917</ele>
        <time>2018-07-23T10:58:10.990Z</time>
      </trkpt>
      <trkpt lat="42.576952" lon="-5.650513">
        <ele>917</ele>
        <time>2018-07-23T10:58:14.000Z</time>
      </trkpt>
      <trkpt lat="42.576877" lon="-5.650639">
        <ele>917</ele>
        <time>2018-07-23T10:58:17.990Z</time>
      </trkpt>
      <trkpt lat="42.576828" lon="-5.650757">
        <ele>917</ele>
        <time>2018-07-23T10:58:21.990Z</time>
      </trkpt>
      <trkpt lat="42.576919" lon="-5.650699">
        <ele>915</ele>
        <time>2018-07-23T10:58:42.990Z</time>
      </trkpt>
      <trkpt lat="42.576973" lon="-5.650561">
        <ele>915</ele>
        <time>2018-07-23T10:58:46.990Z</time>
      </trkpt>
      <trkpt lat="42.577032" lon="-5.650451">
        <ele>915</ele>
        <time>2018-07-23T10:58:49.990Z</time>
      </trkpt>
      <trkpt lat="42.577083" lon="-5.650334">
        <ele>916</ele>
        <time>2018-07-23T10:58:52.990Z</time>
      </trkpt>
      <trkpt lat="42.577128" lon="-5.650217">
        <ele>916</ele>
        <time>2018-07-23T10:58:55.990Z</time>
      </trkpt>
      <trkpt lat="42.577176" lon="-5.650089">
        <ele>916</ele>
        <time>2018-07-23T10:58:58.970Z</time>
      </trkpt>
      <trkpt lat="42.577229" lon="-5.649975">
        <ele>916</ele>
        <time>2018-07-23T10:59:01.960Z</time>
      </trkpt>
      <trkpt lat="42.577286" lon="-5.649832">
        <ele>916</ele>
        <time>2018-07-23T10:59:04.990Z</time>
      </trkpt>
      <trkpt lat="42.577334" lon="-5.649707">
        <ele>916</ele>
        <time>2018-07-23T10:59:08.100Z</time>
      </trkpt>
      <trkpt lat="42.577388" lon="-5.649567">
        <ele>915.6700032</ele>
        <time>2018-07-23T10:59:11.000Z</time>
      </trkpt>
      <trkpt lat="42.577441" lon="-5.649426">
        <ele>915</ele>
        <time>2018-07-23T10:59:14.000Z</time>
      </trkpt>
      <trkpt lat="42.577494" lon="-5.649318">
        <ele>915</ele>
        <time>2018-07-23T10:59:16.000Z</time>
      </trkpt>
      <trkpt lat="42.577553" lon="-5.649176">
        <ele>915</ele>
        <time>2018-07-23T10:59:19.000Z</time>
      </trkpt>
      <trkpt lat="42.577604" lon="-5.649061">
        <ele>915</ele>
        <time>2018-07-23T10:59:21.000Z</time>
      </trkpt>
      <trkpt lat="42.577634" lon="-5.648943">
        <ele>915</ele>
        <time>2018-07-23T10:59:23.000Z</time>
      </trkpt>
      <trkpt lat="42.577661" lon="-5.648775">
        <ele>914.6700032</ele>
        <time>2018-07-23T10:59:26.000Z</time>
      </trkpt>
      <trkpt lat="42.57769" lon="-5.648647">
        <ele>914</ele>
        <time>2018-07-23T10:59:28.000Z</time>
      </trkpt>
      <trkpt lat="42.577738" lon="-5.648496">
        <ele>914</ele>
        <time>2018-07-23T10:59:30.000Z</time>
      </trkpt>
      <trkpt lat="42.577789" lon="-5.648338">
        <ele>913</ele>
        <time>2018-07-23T10:59:32.000Z</time>
      </trkpt>
      <trkpt lat="42.577849" lon="-5.648179">
        <ele>913</ele>
        <time>2018-07-23T10:59:34.000Z</time>
      </trkpt>
      <trkpt lat="42.577918" lon="-5.648011">
        <ele>912</ele>
        <time>2018-07-23T10:59:36.000Z</time>
      </trkpt>
      <trkpt lat="42.577994" lon="-5.647834">
        <ele>911</ele>
        <time>2018-07-23T10:59:38.000Z</time>
      </trkpt>
      <trkpt lat="42.57807" lon="-5.647643">
        <ele>909.750002424242</ele>
        <time>2018-07-23T10:59:40.000Z</time>
      </trkpt>
      <trkpt lat="42.578154" lon="-5.647445">
        <ele>908</ele>
        <time>2018-07-23T10:59:42.000Z</time>
      </trkpt>
      <trkpt lat="42.578237" lon="-5.647254">
        <ele>907</ele>
        <time>2018-07-23T10:59:44.000Z</time>
      </trkpt>
      <trkpt lat="42.578283" lon="-5.647063">
        <ele>906</ele>
        <time>2018-07-23T10:59:46.000Z</time>
      </trkpt>
      <trkpt lat="42.578286" lon="-5.646877">
        <ele>906</ele>
        <time>2018-07-23T10:59:48.000Z</time>
      </trkpt>
      <trkpt lat="42.578334" lon="-5.64673">
        <ele>906</ele>
        <time>2018-07-23T10:59:50.000Z</time>
      </trkpt>
      <trkpt lat="42.578385" lon="-5.646612">
        <ele>906</ele>
        <time>2018-07-23T10:59:52.000Z</time>
      </trkpt>
      <trkpt lat="42.578407" lon="-5.646467">
        <ele>906</ele>
        <time>2018-07-23T10:59:54.000Z</time>
      </trkpt>
      <trkpt lat="42.578388" lon="-5.646291">
        <ele>905</ele>
        <time>2018-07-23T10:59:56.000Z</time>
      </trkpt>
      <trkpt lat="42.578325" lon="-5.646115">
        <ele>904</ele>
        <time>2018-07-23T10:59:58.000Z</time>
      </trkpt>
      <trkpt lat="42.57822" lon="-5.645985">
        <ele>902.6700032</ele>
        <time>2018-07-23T11:00:00.000Z</time>
      </trkpt>
      <trkpt lat="42.578095" lon="-5.645904">
        <ele>902</ele>
        <time>2018-07-23T11:00:02.000Z</time>
      </trkpt>
      <trkpt lat="42.57797" lon="-5.645859">
        <ele>902</ele>
        <time>2018-07-23T11:00:04.000Z</time>
      </trkpt>
      <trkpt lat="42.577855" lon="-5.645808">
        <ele>902</ele>
        <time>2018-07-23T11:00:06.000Z</time>
      </trkpt>
      <trkpt lat="42.577706" lon="-5.645793">
        <ele>902</ele>
        <time>2018-07-23T11:00:08.000Z</time>
      </trkpt>
      <trkpt lat="42.577593" lon="-5.645812">
        <ele>902</ele>
        <time>2018-07-23T11:00:10.000Z</time>
      </trkpt>
      <trkpt lat="42.577502" lon="-5.645884">
        <ele>902.253844942006</ele>
        <time>2018-07-23T11:00:12.000Z</time>
      </trkpt>
      <trkpt lat="42.577468" lon="-5.646002">
        <ele>903.36</ele>
        <time>2018-07-23T11:00:14.030Z</time>
      </trkpt>
      <trkpt lat="42.577501" lon="-5.646164">
        <ele>904.32</ele>
        <time>2018-07-23T11:00:16.990Z</time>
      </trkpt>
      <trkpt lat="42.577559" lon="-5.646308">
        <ele>905.242424242424</ele>
        <time>2018-07-23T11:00:19.990Z</time>
      </trkpt>
      <trkpt lat="42.577605" lon="-5.646436">
        <ele>906</ele>
        <time>2018-07-23T11:00:22.990Z</time>
      </trkpt>
      <trkpt lat="42.577603" lon="-5.646596">
        <ele>906</ele>
        <time>2018-07-23T11:00:25.990Z</time>
      </trkpt>
      <trkpt lat="42.57759" lon="-5.64676">
        <ele>907</ele>
        <time>2018-07-23T11:00:29.000Z</time>
      </trkpt>
      <trkpt lat="42.577579" lon="-5.646921">
        <ele>907</ele>
        <time>2018-07-23T11:00:31.990Z</time>
      </trkpt>
      <trkpt lat="42.577555" lon="-5.64707">
        <ele>907</ele>
        <time>2018-07-23T11:00:34.990Z</time>
      </trkpt>
      <trkpt lat="42.577535" lon="-5.647228">
        <ele>908</ele>
        <time>2018-07-23T11:00:37.990Z</time>
      </trkpt>
      <trkpt lat="42.5775" lon="-5.647394">
        <ele>909</ele>
        <time>2018-07-23T11:00:40.990Z</time>
      </trkpt>
      <trkpt lat="42.577464" lon="-5.647558">
        <ele>910.3299968</ele>
        <time>2018-07-23T11:00:44.000Z</time>
      </trkpt>
      <trkpt lat="42.57744" lon="-5.64772">
        <ele>911</ele>
        <time>2018-07-23T11:00:46.990Z</time>
      </trkpt>
      <trkpt lat="42.577398" lon="-5.647861">
        <ele>911.246155057994</ele>
        <time>2018-07-23T11:00:49.990Z</time>
      </trkpt>
      <trkpt lat="42.577348" lon="-5.64799">
        <ele>912</ele>
        <time>2018-07-23T11:00:52.960Z</time>
      </trkpt>
      <trkpt lat="42.577294" lon="-5.648112">
        <ele>912</ele>
        <time>2018-07-23T11:00:55.990Z</time>
      </trkpt>
      <trkpt lat="42.57723" lon="-5.648214">
        <ele>913</ele>
        <time>2018-07-23T11:00:59.000Z</time>
      </trkpt>
      <trkpt lat="42.57716" lon="-5.648304">
        <ele>913</ele>
        <time>2018-07-23T11:01:01.990Z</time>
      </trkpt>
      <trkpt lat="42.577092" lon="-5.648387">
        <ele>914</ele>
        <time>2018-07-23T11:01:04.990Z</time>
      </trkpt>
      <trkpt lat="42.577024" lon="-5.648517">
        <ele>914</ele>
        <time>2018-07-23T11:01:09.000Z</time>
      </trkpt>
      <trkpt lat="42.576977" lon="-5.648628">
        <ele>915</ele>
        <time>2018-07-23T11:01:11.960Z</time>
      </trkpt>
      <trkpt lat="42.576949" lon="-5.64875">
        <ele>915</ele>
        <time>2018-07-23T11:01:14.990Z</time>
      </trkpt>
      <trkpt lat="42.576941" lon="-5.648888">
        <ele>915</ele>
        <time>2018-07-23T11:01:17.990Z</time>
      </trkpt>
      <trkpt lat="42.57695" lon="-5.649031">
        <ele>915</ele>
        <time>2018-07-23T11:01:20.990Z</time>
      </trkpt>
      <trkpt lat="42.576952" lon="-5.649176">
        <ele>915</ele>
        <time>2018-07-23T11:01:24.000Z</time>
      </trkpt>
      <trkpt lat="42.576937" lon="-5.649323">
        <ele>914</ele>
        <time>2018-07-23T11:01:26.990Z</time>
      </trkpt>
      <trkpt lat="42.576917" lon="-5.649478">
        <ele>914</ele>
        <time>2018-07-23T11:01:30.020Z</time>
      </trkpt>
      <trkpt lat="42.576891" lon="-5.64965">
        <ele>914</ele>
        <time>2018-07-23T11:01:32.990Z</time>
      </trkpt>
      <trkpt lat="42.576854" lon="-5.649819">
        <ele>914</ele>
        <time>2018-07-23T11:01:35.990Z</time>
      </trkpt>
      <trkpt lat="42.576812" lon="-5.649973">
        <ele>914</ele>
        <time>2018-07-23T11:01:39.000Z</time>
      </trkpt>
      <trkpt lat="42.576764" lon="-5.650125">
        <ele>914</ele>
        <time>2018-07-23T11:01:41.990Z</time>
      </trkpt>
      <trkpt lat="42.576712" lon="-5.650242">
        <ele>914.32</ele>
        <time>2018-07-23T11:01:44.990Z</time>
      </trkpt>
      <trkpt lat="42.57666" lon="-5.650351">
        <ele>915</ele>
        <time>2018-07-23T11:01:47.990Z</time>
      </trkpt>
      <trkpt lat="42.576602" lon="-5.650465">
        <ele>915</ele>
        <time>2018-07-23T11:01:50.990Z</time>
      </trkpt>
      <trkpt lat="42.576536" lon="-5.650587">
        <ele>915.3299968</ele>
        <time>2018-07-23T11:01:54.000Z</time>
      </trkpt>
      <trkpt lat="42.576474" lon="-5.650713">
        <ele>916</ele>
        <time>2018-07-23T11:01:56.990Z</time>
      </trkpt>
      <trkpt lat="42.576408" lon="-5.650834">
        <ele>916</ele>
        <time>2018-07-23T11:01:59.990Z</time>
      </trkpt>
      <trkpt lat="42.576332" lon="-5.650953">
        <ele>915</ele>
        <time>2018-07-23T11:02:02.990Z</time>
      </trkpt>
      <trkpt lat="42.576262" lon="-5.651076">
        <ele>916</ele>
        <time>2018-07-23T11:02:05.990Z</time>
      </trkpt>
      <trkpt lat="42.576196" lon="-5.651194">
        <ele>916</ele>
        <time>2018-07-23T11:02:08.970Z</time>
      </trkpt>
      <trkpt lat="42.576134" lon="-5.651329">
        <ele>916</ele>
        <time>2018-07-23T11:02:12.990Z</time>
      </trkpt>
      <trkpt lat="42.576081" lon="-5.651466">
        <ele>917</ele>
        <time>2018-07-23T11:02:16.990Z</time>
      </trkpt>
      <trkpt lat="42.576037" lon="-5.651579">
        <ele>917</ele>
        <time>2018-07-23T11:02:19.990Z</time>
      </trkpt>
      <trkpt lat="42.575979" lon="-5.651707">
        <ele>917</ele>
        <time>2018-07-23T11:02:22.990Z</time>
      </trkpt>
      <trkpt lat="42.575923" lon="-5.651843">
        <ele>917</ele>
        <time>2018-07-23T11:02:25.990Z</time>
      </trkpt>
      <trkpt lat="42.575861" lon="-5.651992">
        <ele>917</ele>
        <time>2018-07-23T11:02:28.970Z</time>
      </trkpt>
      <trkpt lat="42.575788" lon="-5.652127">
        <ele>917</ele>
        <time>2018-07-23T11:02:31.990Z</time>
      </trkpt>
      <trkpt lat="42.575708" lon="-5.652267">
        <ele>917</ele>
        <time>2018-07-23T11:02:34.990Z</time>
      </trkpt>
      <trkpt lat="42.575634" lon="-5.652409">
        <ele>917</ele>
        <time>2018-07-23T11:02:37.990Z</time>
      </trkpt>
      <trkpt lat="42.575581" lon="-5.65251">
        <ele>917</ele>
        <time>2018-07-23T11:02:39.990Z</time>
      </trkpt>
      <trkpt lat="42.575504" lon="-5.652652">
        <ele>917</ele>
        <time>2018-07-23T11:02:42.990Z</time>
      </trkpt>
      <trkpt lat="42.57543" lon="-5.652768">
        <ele>917</ele>
        <time>2018-07-23T11:02:46.020Z</time>
      </trkpt>
      <trkpt lat="42.57537" lon="-5.652873">
        <ele>917.251905338857</ele>
        <time>2018-07-23T11:02:49.000Z</time>
      </trkpt>
      <trkpt lat="42.575323" lon="-5.652985">
        <ele>918</ele>
        <time>2018-07-23T11:02:51.990Z</time>
      </trkpt>
      <trkpt lat="42.575245" lon="-5.653099">
        <ele>918</ele>
        <time>2018-07-23T11:02:56.990Z</time>
      </trkpt>
      <trkpt lat="42.575194" lon="-5.653213">
        <ele>918</ele>
        <time>2018-07-23T11:02:59.990Z</time>
      </trkpt>
      <trkpt lat="42.575129" lon="-5.653332">
        <ele>918</ele>
        <time>2018-07-23T11:03:02.990Z</time>
      </trkpt>
      <trkpt lat="42.575058" lon="-5.653456">
        <ele>918</ele>
        <time>2018-07-23T11:03:05.960Z</time>
      </trkpt>
      <trkpt lat="42.574982" lon="-5.653598">
        <ele>918</ele>
        <time>2018-07-23T11:03:09.000Z</time>
      </trkpt>
      <trkpt lat="42.5749" lon="-5.65373">
        <ele>918</ele>
        <time>2018-07-23T11:03:11.990Z</time>
      </trkpt>
      <trkpt lat="42.574824" lon="-5.653866">
        <ele>918</ele>
        <time>2018-07-23T11:03:14.990Z</time>
      </trkpt>
      <trkpt lat="42.574745" lon="-5.653988">
        <ele>918</ele>
        <time>2018-07-23T11:03:17.990Z</time>
      </trkpt>
      <trkpt lat="42.574659" lon="-5.65412">
        <ele>918</ele>
        <time>2018-07-23T11:03:20.990Z</time>
      </trkpt>
      <trkpt lat="42.5746" lon="-5.654216">
        <ele>917</ele>
        <time>2018-07-23T11:03:22.990Z</time>
      </trkpt>
      <trkpt lat="42.574547" lon="-5.654314">
        <ele>917</ele>
        <time>2018-07-23T11:03:24.960Z</time>
      </trkpt>
      <trkpt lat="42.574498" lon="-5.654429">
        <ele>916.68</ele>
        <time>2018-07-23T11:03:26.990Z</time>
      </trkpt>
      <trkpt lat="42.574443" lon="-5.654562">
        <ele>916</ele>
        <time>2018-07-23T11:03:29.000Z</time>
      </trkpt>
      <trkpt lat="42.57438" lon="-5.654719">
        <ele>914.68</ele>
        <time>2018-07-23T11:03:30.990Z</time>
      </trkpt>
      <trkpt lat="42.574312" lon="-5.654892">
        <ele>912.68</ele>
        <time>2018-07-23T11:03:32.990Z</time>
      </trkpt>
      <trkpt lat="42.574237" lon="-5.655068">
        <ele>911</ele>
        <time>2018-07-23T11:03:34.990Z</time>
      </trkpt>
      <trkpt lat="42.574178" lon="-5.655249">
        <ele>911</ele>
        <time>2018-07-23T11:03:36.990Z</time>
      </trkpt>
      <trkpt lat="42.574113" lon="-5.655419">
        <ele>911</ele>
        <time>2018-07-23T11:03:39.000Z</time>
      </trkpt>
      <trkpt lat="42.57406" lon="-5.655584">
        <ele>911</ele>
        <time>2018-07-23T11:03:40.990Z</time>
      </trkpt>
      <trkpt lat="42.574024" lon="-5.655748">
        <ele>909.736839066079</ele>
        <time>2018-07-23T11:03:43.020Z</time>
      </trkpt>
      <trkpt lat="42.573983" lon="-5.655905">
        <ele>908</ele>
        <time>2018-07-23T11:03:44.990Z</time>
      </trkpt>
      <trkpt lat="42.573938" lon="-5.656055">
        <ele>908</ele>
        <time>2018-07-23T11:03:46.990Z</time>
      </trkpt>
      <trkpt lat="42.573897" lon="-5.656205">
        <ele>907</ele>
        <time>2018-07-23T11:03:49.000Z</time>
      </trkpt>
      <trkpt lat="42.57386" lon="-5.656339">
        <ele>907</ele>
        <time>2018-07-23T11:03:50.990Z</time>
      </trkpt>
      <trkpt lat="42.573824" lon="-5.656472">
        <ele>906.68</ele>
        <time>2018-07-23T11:03:52.990Z</time>
      </trkpt>
      <trkpt lat="42.573785" lon="-5.656591">
        <ele>905</ele>
        <time>2018-07-23T11:03:54.990Z</time>
      </trkpt>
      <trkpt lat="42.573725" lon="-5.656711">
        <ele>903.68</ele>
        <time>2018-07-23T11:03:56.990Z</time>
      </trkpt>
      <trkpt lat="42.573636" lon="-5.656832">
        <ele>903</ele>
        <time>2018-07-23T11:03:59.000Z</time>
      </trkpt>
      <trkpt lat="42.573536" lon="-5.656964">
        <ele>900.96115274205</ele>
        <time>2018-07-23T11:04:00.990Z</time>
      </trkpt>
      <trkpt lat="42.573456" lon="-5.657118">
        <ele>897.68</ele>
        <time>2018-07-23T11:04:02.990Z</time>
      </trkpt>
      <trkpt lat="42.573396" lon="-5.657292">
        <ele>897</ele>
        <time>2018-07-23T11:04:04.990Z</time>
      </trkpt>
      <trkpt lat="42.573335" lon="-5.65749">
        <ele>895.769226982267</ele>
        <time>2018-07-23T11:04:06.990Z</time>
      </trkpt>
      <trkpt lat="42.573264" lon="-5.657681">
        <ele>895</ele>
        <time>2018-07-23T11:04:09.000Z</time>
      </trkpt>
      <trkpt lat="42.573191" lon="-5.657851">
        <ele>895</ele>
        <time>2018-07-23T11:04:10.990Z</time>
      </trkpt>
      <trkpt lat="42.573111" lon="-5.657983">
        <ele>894.68</ele>
        <time>2018-07-23T11:04:12.990Z</time>
      </trkpt>
      <trkpt lat="42.573041" lon="-5.6581">
        <ele>894</ele>
        <time>2018-07-23T11:04:14.990Z</time>
      </trkpt>
      <trkpt lat="42.572975" lon="-5.658192">
        <ele>894.32</ele>
        <time>2018-07-23T11:04:16.990Z</time>
      </trkpt>
      <trkpt lat="42.572881" lon="-5.658309">
        <ele>895.028580310123</ele>
        <time>2018-07-23T11:04:19.990Z</time>
      </trkpt>
      <trkpt lat="42.572778" lon="-5.658359">
        <ele>896</ele>
        <time>2018-07-23T11:04:22.990Z</time>
      </trkpt>
      <trkpt lat="42.572669" lon="-5.658381">
        <ele>896</ele>
        <time>2018-07-23T11:04:25.990Z</time>
      </trkpt>
      <trkpt lat="42.572567" lon="-5.658385">
        <ele>896</ele>
        <time>2018-07-23T11:04:29.000Z</time>
      </trkpt>
      <trkpt lat="42.572474" lon="-5.65839">
        <ele>897</ele>
        <time>2018-07-23T11:04:31.990Z</time>
      </trkpt>
      <trkpt lat="42.572381" lon="-5.6584">
        <ele>897</ele>
        <time>2018-07-23T11:04:34.990Z</time>
      </trkpt>
      <trkpt lat="42.572263" lon="-5.658421">
        <ele>898</ele>
        <time>2018-07-23T11:04:39.000Z</time>
      </trkpt>
      <trkpt lat="42.572147" lon="-5.65844">
        <ele>898</ele>
        <time>2018-07-23T11:04:42.990Z</time>
      </trkpt>
      <trkpt lat="42.572025" lon="-5.658466">
        <ele>898</ele>
        <time>2018-07-23T11:04:46.990Z</time>
      </trkpt>
      <trkpt lat="42.571923" lon="-5.65848">
        <ele>898.32</ele>
        <time>2018-07-23T11:04:49.990Z</time>
      </trkpt>
      <trkpt lat="42.571819" lon="-5.658484">
        <ele>899</ele>
        <time>2018-07-23T11:04:52.990Z</time>
      </trkpt>
      <trkpt lat="42.571717" lon="-5.65849">
        <ele>899</ele>
        <time>2018-07-23T11:04:55.990Z</time>
      </trkpt>
      <trkpt lat="42.571603" lon="-5.658506">
        <ele>899</ele>
        <time>2018-07-23T11:04:59.030Z</time>
      </trkpt>
      <trkpt lat="42.571484" lon="-5.658516">
        <ele>899</ele>
        <time>2018-07-23T11:05:01.990Z</time>
      </trkpt>
      <trkpt lat="42.571356" lon="-5.658504">
        <ele>899</ele>
        <time>2018-07-23T11:05:04.990Z</time>
      </trkpt>
      <trkpt lat="42.571245" lon="-5.65846">
        <ele>899</ele>
        <time>2018-07-23T11:05:07.990Z</time>
      </trkpt>
      <trkpt lat="42.57114" lon="-5.658386">
        <ele>899</ele>
        <time>2018-07-23T11:05:10.990Z</time>
      </trkpt>
      <trkpt lat="42.571062" lon="-5.658267">
        <ele>899</ele>
        <time>2018-07-23T11:05:14.000Z</time>
      </trkpt>
      <trkpt lat="42.571028" lon="-5.658129">
        <ele>898.753844942006</ele>
        <time>2018-07-23T11:05:15.990Z</time>
      </trkpt>
      <trkpt lat="42.570996" lon="-5.657965">
        <ele>897.6500096</ele>
        <time>2018-07-23T11:05:18.020Z</time>
      </trkpt>
      <trkpt lat="42.570947" lon="-5.657842">
        <ele>896</ele>
        <time>2018-07-23T11:05:19.990Z</time>
      </trkpt>
      <trkpt lat="42.570901" lon="-5.657737">
        <ele>896</ele>
        <time>2018-07-23T11:05:27.990Z</time>
      </trkpt>
      <trkpt lat="42.570817" lon="-5.657677">
        <ele>897</ele>
        <time>2018-07-23T11:05:47.990Z</time>
      </trkpt>
      <trkpt lat="42.57075" lon="-5.657766">
        <ele>896</ele>
        <time>2018-07-23T11:05:59.000Z</time>
      </trkpt>
      <trkpt lat="42.570679" lon="-5.657842">
        <ele>896</ele>
        <time>2018-07-23T11:06:42.990Z</time>
      </trkpt>
      <trkpt lat="42.57023" lon="-5.658361">
        <ele>897</ele>
        <time>2018-07-23T11:07:05.500Z</time>
      </trkpt>
      <trkpt lat="42.570187" lon="-5.658471">
        <ele>897</ele>
        <time>2018-07-23T11:07:08.000Z</time>
      </trkpt>
      <trkpt lat="42.570243" lon="-5.658587">
        <ele>898</ele>
        <time>2018-07-23T11:07:12.960Z</time>
      </trkpt>
      <trkpt lat="42.570327" lon="-5.658665">
        <ele>898</ele>
        <time>2018-07-23T11:07:16.990Z</time>
      </trkpt>
      <trkpt lat="42.570374" lon="-5.658778">
        <ele>898.32</ele>
        <time>2018-07-23T11:07:20.990Z</time>
      </trkpt>
      <trkpt lat="42.570438" lon="-5.658891">
        <ele>900</ele>
        <time>2018-07-23T11:07:24.000Z</time>
      </trkpt>
      <trkpt lat="42.570501" lon="-5.658982">
        <ele>900</ele>
        <time>2018-07-23T11:07:26.960Z</time>
      </trkpt>
      <trkpt lat="42.570577" lon="-5.659058">
        <ele>901.042861322411</ele>
        <time>2018-07-23T11:07:30.000Z</time>
      </trkpt>
      <trkpt lat="42.570662" lon="-5.659165">
        <ele>903</ele>
        <time>2018-07-23T11:07:35.000Z</time>
      </trkpt>
      <trkpt lat="42.570745" lon="-5.659242">
        <ele>903</ele>
        <time>2018-07-23T11:07:38.990Z</time>
      </trkpt>
      <trkpt lat="42.570817" lon="-5.659346">
        <ele>904</ele>
        <time>2018-07-23T11:07:42.990Z</time>
      </trkpt>
      <trkpt lat="42.570891" lon="-5.659446">
        <ele>904</ele>
        <time>2018-07-23T11:07:46.990Z</time>
      </trkpt>
      <trkpt lat="42.57096" lon="-5.659567">
        <ele>904</ele>
        <time>2018-07-23T11:07:50.960Z</time>
      </trkpt>
      <trkpt lat="42.571033" lon="-5.659687">
        <ele>905</ele>
        <time>2018-07-23T11:07:55.000Z</time>
      </trkpt>
      <trkpt lat="42.571092" lon="-5.659788">
        <ele>905</ele>
        <time>2018-07-23T11:07:57.990Z</time>
      </trkpt>
      <trkpt lat="42.571157" lon="-5.659887">
        <ele>905</ele>
        <time>2018-07-23T11:08:00.990Z</time>
      </trkpt>
      <trkpt lat="42.571218" lon="-5.659981">
        <ele>905.298976010134</ele>
        <time>2018-07-23T11:08:03.990Z</time>
      </trkpt>
      <trkpt lat="42.571287" lon="-5.660097">
        <ele>905.971419689877</ele>
        <time>2018-07-23T11:08:07.990Z</time>
      </trkpt>
      <trkpt lat="42.571356" lon="-5.660216">
        <ele>905</ele>
        <time>2018-07-23T11:08:11.990Z</time>
      </trkpt>
      <trkpt lat="42.571427" lon="-5.660328">
        <ele>905.32</ele>
        <time>2018-07-23T11:08:15.990Z</time>
      </trkpt>
      <trkpt lat="42.571497" lon="-5.660423">
        <ele>906</ele>
        <time>2018-07-23T11:08:18.990Z</time>
      </trkpt>
      <trkpt lat="42.571568" lon="-5.660503">
        <ele>906</ele>
        <time>2018-07-23T11:08:21.990Z</time>
      </trkpt>
      <trkpt lat="42.571645" lon="-5.660586">
        <ele>906.3299968</ele>
        <time>2018-07-23T11:08:25.000Z</time>
      </trkpt>
      <trkpt lat="42.571731" lon="-5.660659">
        <ele>907</ele>
        <time>2018-07-23T11:08:28.020Z</time>
      </trkpt>
      <trkpt lat="42.571804" lon="-5.66074">
        <ele>907</ele>
        <time>2018-07-23T11:08:30.990Z</time>
      </trkpt>
      <trkpt lat="42.57188" lon="-5.660815">
        <ele>907</ele>
        <time>2018-07-23T11:08:33.990Z</time>
      </trkpt>
      <trkpt lat="42.571937" lon="-5.660915">
        <ele>907.32</ele>
        <time>2018-07-23T11:08:36.990Z</time>
      </trkpt>
      <trkpt lat="42.571996" lon="-5.661046">
        <ele>908.316832686995</ele>
        <time>2018-07-23T11:08:40.990Z</time>
      </trkpt>
      <trkpt lat="42.57206" lon="-5.661169">
        <ele>910</ele>
        <time>2018-07-23T11:08:45.000Z</time>
      </trkpt>
      <trkpt lat="42.572125" lon="-5.661285">
        <ele>912</ele>
        <time>2018-07-23T11:08:50.000Z</time>
      </trkpt>
      <trkpt lat="42.572191" lon="-5.661385">
        <ele>912</ele>
        <time>2018-07-23T11:08:55.990Z</time>
      </trkpt>
      <trkpt lat="42.572243" lon="-5.661513">
        <ele>913</ele>
        <time>2018-07-23T11:09:00.990Z</time>
      </trkpt>
      <trkpt lat="42.57223" lon="-5.661639">
        <ele>914.3499904</ele>
        <time>2018-07-23T11:09:06.020Z</time>
      </trkpt>
      <trkpt lat="42.572194" lon="-5.661752">
        <ele>915</ele>
        <time>2018-07-23T11:09:10.990Z</time>
      </trkpt>
      <trkpt lat="42.572132" lon="-5.661865">
        <ele>915</ele>
        <time>2018-07-23T11:09:15.990Z</time>
      </trkpt>
      <trkpt lat="42.572081" lon="-5.661987">
        <ele>916.246155057994</ele>
        <time>2018-07-23T11:09:20.990Z</time>
      </trkpt>
      <trkpt lat="42.572032" lon="-5.662113">
        <ele>917</ele>
        <time>2018-07-23T11:09:25.960Z</time>
      </trkpt>
      <trkpt lat="42.571998" lon="-5.662227">
        <ele>917</ele>
        <time>2018-07-23T11:09:30.000Z</time>
      </trkpt>
      <trkpt lat="42.571972" lon="-5.662371">
        <ele>918</ele>
        <time>2018-07-23T11:09:35.000Z</time>
      </trkpt>
      <trkpt lat="42.571953" lon="-5.662507">
        <ele>918</ele>
        <time>2018-07-23T11:09:39.000Z</time>
      </trkpt>
      <trkpt lat="42.571912" lon="-5.662649">
        <ele>918</ele>
        <time>2018-07-23T11:09:43.000Z</time>
      </trkpt>
      <trkpt lat="42.571878" lon="-5.662775">
        <ele>919</ele>
        <time>2018-07-23T11:09:47.000Z</time>
      </trkpt>
      <trkpt lat="42.571854" lon="-5.662896">
        <ele>919</ele>
        <time>2018-07-23T11:09:51.000Z</time>
      </trkpt>
      <trkpt lat="42.571831" lon="-5.663024">
        <ele>920</ele>
        <time>2018-07-23T11:09:55.000Z</time>
      </trkpt>
      <trkpt lat="42.571811" lon="-5.663154">
        <ele>920</ele>
        <time>2018-07-23T11:09:59.000Z</time>
      </trkpt>
      <trkpt lat="42.571795" lon="-5.66329">
        <ele>920</ele>
        <time>2018-07-23T11:10:03.000Z</time>
      </trkpt>
      <trkpt lat="42.571785" lon="-5.663432">
        <ele>921</ele>
        <time>2018-07-23T11:10:07.000Z</time>
      </trkpt>
      <trkpt lat="42.571778" lon="-5.663586">
        <ele>922</ele>
        <time>2018-07-23T11:10:11.000Z</time>
      </trkpt>
      <trkpt lat="42.571772" lon="-5.663711">
        <ele>922</ele>
        <time>2018-07-23T11:10:14.000Z</time>
      </trkpt>
      <trkpt lat="42.571764" lon="-5.663842">
        <ele>922</ele>
        <time>2018-07-23T11:10:17.000Z</time>
      </trkpt>
      <trkpt lat="42.57175" lon="-5.663981">
        <ele>922.203702533146</ele>
        <time>2018-07-23T11:10:20.000Z</time>
      </trkpt>
      <trkpt lat="42.571732" lon="-5.664107">
        <ele>923</ele>
        <time>2018-07-23T11:10:23.000Z</time>
      </trkpt>
      <trkpt lat="42.571701" lon="-5.664265">
        <ele>923</ele>
        <time>2018-07-23T11:10:27.000Z</time>
      </trkpt>
      <trkpt lat="42.571681" lon="-5.664405">
        <ele>923</ele>
        <time>2018-07-23T11:10:30.000Z</time>
      </trkpt>
      <trkpt lat="42.571663" lon="-5.66454">
        <ele>923</ele>
        <time>2018-07-23T11:10:33.000Z</time>
      </trkpt>
      <trkpt lat="42.571651" lon="-5.664669">
        <ele>923</ele>
        <time>2018-07-23T11:10:35.990Z</time>
      </trkpt>
      <trkpt lat="42.571641" lon="-5.66482">
        <ele>923</ele>
        <time>2018-07-23T11:10:39.990Z</time>
      </trkpt>
      <trkpt lat="42.571622" lon="-5.664985">
        <ele>923</ele>
        <time>2018-07-23T11:10:44.000Z</time>
      </trkpt>
      <trkpt lat="42.571614" lon="-5.665142">
        <ele>923</ele>
        <time>2018-07-23T11:10:47.990Z</time>
      </trkpt>
      <trkpt lat="42.5716" lon="-5.6653">
        <ele>922</ele>
        <time>2018-07-23T11:10:51.990Z</time>
      </trkpt>
      <trkpt lat="42.571561" lon="-5.665441">
        <ele>922</ele>
        <time>2018-07-23T11:10:54.990Z</time>
      </trkpt>
      <trkpt lat="42.571562" lon="-5.665589">
        <ele>922</ele>
        <time>2018-07-23T11:10:59.000Z</time>
      </trkpt>
      <trkpt lat="42.571543" lon="-5.665742">
        <ele>921</ele>
        <time>2018-07-23T11:11:02.990Z</time>
      </trkpt>
      <trkpt lat="42.571536" lon="-5.665901">
        <ele>921</ele>
        <time>2018-07-23T11:11:06.990Z</time>
      </trkpt>
      <trkpt lat="42.571542" lon="-5.666033">
        <ele>921</ele>
        <time>2018-07-23T11:11:09.990Z</time>
      </trkpt>
      <trkpt lat="42.57153" lon="-5.666193">
        <ele>920</ele>
        <time>2018-07-23T11:11:12.990Z</time>
      </trkpt>
      <trkpt lat="42.571532" lon="-5.66636">
        <ele>920</ele>
        <time>2018-07-23T11:11:15.990Z</time>
      </trkpt>
      <trkpt lat="42.571528" lon="-5.666487">
        <ele>920</ele>
        <time>2018-07-23T11:11:17.990Z</time>
      </trkpt>
      <trkpt lat="42.57154" lon="-5.66666">
        <ele>920</ele>
        <time>2018-07-23T11:11:20.990Z</time>
      </trkpt>
      <trkpt lat="42.571537" lon="-5.666786">
        <ele>920</ele>
        <time>2018-07-23T11:11:22.990Z</time>
      </trkpt>
      <trkpt lat="42.571538" lon="-5.666913">
        <ele>920</ele>
        <time>2018-07-23T11:11:24.990Z</time>
      </trkpt>
      <trkpt lat="42.571537" lon="-5.667042">
        <ele>920</ele>
        <time>2018-07-23T11:11:26.990Z</time>
      </trkpt>
      <trkpt lat="42.571526" lon="-5.667187">
        <ele>920</ele>
        <time>2018-07-23T11:11:29.000Z</time>
      </trkpt>
      <trkpt lat="42.571524" lon="-5.667327">
        <ele>920</ele>
        <time>2018-07-23T11:11:30.990Z</time>
      </trkpt>
      <trkpt lat="42.571519" lon="-5.667468">
        <ele>920</ele>
        <time>2018-07-23T11:11:32.990Z</time>
      </trkpt>
      <trkpt lat="42.571508" lon="-5.667625">
        <ele>919</ele>
        <time>2018-07-23T11:11:34.990Z</time>
      </trkpt>
      <trkpt lat="42.571499" lon="-5.667784">
        <ele>918.971419689877</ele>
        <time>2018-07-23T11:11:36.990Z</time>
      </trkpt>
      <trkpt lat="42.571493" lon="-5.667938">
        <ele>917.772732121212</ele>
        <time>2018-07-23T11:11:38.970Z</time>
      </trkpt>
      <trkpt lat="42.571474" lon="-5.668086">
        <ele>916.68</ele>
        <time>2018-07-23T11:11:40.990Z</time>
      </trkpt>
      <trkpt lat="42.571464" lon="-5.668244">
        <ele>916</ele>
        <time>2018-07-23T11:11:42.990Z</time>
      </trkpt>
      <trkpt lat="42.571495" lon="-5.668381">
        <ele>915.68</ele>
        <time>2018-07-23T11:11:44.990Z</time>
      </trkpt>
      <trkpt lat="42.571512" lon="-5.668511">
        <ele>915</ele>
        <time>2018-07-23T11:11:46.990Z</time>
      </trkpt>
      <trkpt lat="42.571496" lon="-5.668651">
        <ele>914</ele>
        <time>2018-07-23T11:11:49.000Z</time>
      </trkpt>
      <trkpt lat="42.571467" lon="-5.668806">
        <ele>913.68</ele>
        <time>2018-07-23T11:11:50.990Z</time>
      </trkpt>
      <trkpt lat="42.571476" lon="-5.66898">
        <ele>912</ele>
        <time>2018-07-23T11:11:52.990Z</time>
      </trkpt>
      <trkpt lat="42.571474" lon="-5.669153">
        <ele>912</ele>
        <time>2018-07-23T11:11:54.990Z</time>
      </trkpt>
      <trkpt lat="42.571473" lon="-5.669339">
        <ele>911.734846060606</ele>
        <time>2018-07-23T11:11:57.020Z</time>
      </trkpt>
      <trkpt lat="42.571473" lon="-5.66953">
        <ele>911</ele>
        <time>2018-07-23T11:11:59.000Z</time>
      </trkpt>
      <trkpt lat="42.571477" lon="-5.669709">
        <ele>911</ele>
        <time>2018-07-23T11:12:00.990Z</time>
      </trkpt>
      <trkpt lat="42.571479" lon="-5.669884">
        <ele>911</ele>
        <time>2018-07-23T11:12:02.990Z</time>
      </trkpt>
      <trkpt lat="42.571486" lon="-5.670045">
        <ele>911</ele>
        <time>2018-07-23T11:12:04.990Z</time>
      </trkpt>
      <trkpt lat="42.571484" lon="-5.670205">
        <ele>911</ele>
        <time>2018-07-23T11:12:06.990Z</time>
      </trkpt>
      <trkpt lat="42.571485" lon="-5.670371">
        <ele>911</ele>
        <time>2018-07-23T11:12:09.000Z</time>
      </trkpt>
      <trkpt lat="42.57148" lon="-5.670543">
        <ele>911</ele>
        <time>2018-07-23T11:12:10.990Z</time>
      </trkpt>
      <trkpt lat="42.571485" lon="-5.670707">
        <ele>911</ele>
        <time>2018-07-23T11:12:12.990Z</time>
      </trkpt>
      <trkpt lat="42.571492" lon="-5.670883">
        <ele>911</ele>
        <time>2018-07-23T11:12:14.990Z</time>
      </trkpt>
      <trkpt lat="42.571492" lon="-5.671059">
        <ele>911</ele>
        <time>2018-07-23T11:12:16.960Z</time>
      </trkpt>
      <trkpt lat="42.571494" lon="-5.67123">
        <ele>911</ele>
        <time>2018-07-23T11:12:19.000Z</time>
      </trkpt>
      <trkpt lat="42.571494" lon="-5.671396">
        <ele>911</ele>
        <time>2018-07-23T11:12:20.990Z</time>
      </trkpt>
      <trkpt lat="42.571486" lon="-5.671569">
        <ele>911</ele>
        <time>2018-07-23T11:12:22.990Z</time>
      </trkpt>
      <trkpt lat="42.571478" lon="-5.67173">
        <ele>911</ele>
        <time>2018-07-23T11:12:24.990Z</time>
      </trkpt>
      <trkpt lat="42.571481" lon="-5.671863">
        <ele>911</ele>
        <time>2018-07-23T11:12:26.990Z</time>
      </trkpt>
      <trkpt lat="42.571478" lon="-5.671999">
        <ele>911</ele>
        <time>2018-07-23T11:12:29.000Z</time>
      </trkpt>
      <trkpt lat="42.571482" lon="-5.672129">
        <ele>911</ele>
        <time>2018-07-23T11:12:30.990Z</time>
      </trkpt>
      <trkpt lat="42.571484" lon="-5.672272">
        <ele>911</ele>
        <time>2018-07-23T11:12:32.990Z</time>
      </trkpt>
      <trkpt lat="42.571487" lon="-5.672412">
        <ele>911</ele>
        <time>2018-07-23T11:12:35.020Z</time>
      </trkpt>
      <trkpt lat="42.571484" lon="-5.672541">
        <ele>911</ele>
        <time>2018-07-23T11:12:36.990Z</time>
      </trkpt>
      <trkpt lat="42.571483" lon="-5.672672">
        <ele>911</ele>
        <time>2018-07-23T11:12:38.990Z</time>
      </trkpt>
      <trkpt lat="42.571482" lon="-5.672795">
        <ele>911</ele>
        <time>2018-07-23T11:12:40.990Z</time>
      </trkpt>
      <trkpt lat="42.571481" lon="-5.672966">
        <ele>911</ele>
        <time>2018-07-23T11:12:44.000Z</time>
      </trkpt>
      <trkpt lat="42.571483" lon="-5.673121">
        <ele>911</ele>
        <time>2018-07-23T11:12:46.990Z</time>
      </trkpt>
      <trkpt lat="42.571493" lon="-5.673298">
        <ele>911</ele>
        <time>2018-07-23T11:12:49.990Z</time>
      </trkpt>
      <trkpt lat="42.571494" lon="-5.673431">
        <ele>911</ele>
        <time>2018-07-23T11:12:51.990Z</time>
      </trkpt>
      <trkpt lat="42.571498" lon="-5.673568">
        <ele>911</ele>
        <time>2018-07-23T11:12:54.030Z</time>
      </trkpt>
      <trkpt lat="42.571497" lon="-5.673695">
        <ele>911</ele>
        <time>2018-07-23T11:12:55.990Z</time>
      </trkpt>
      <trkpt lat="42.571502" lon="-5.673819">
        <ele>911</ele>
        <time>2018-07-23T11:12:57.990Z</time>
      </trkpt>
      <trkpt lat="42.571511" lon="-5.67399">
        <ele>911</ele>
        <time>2018-07-23T11:13:00.990Z</time>
      </trkpt>
      <trkpt lat="42.571501" lon="-5.674142">
        <ele>911</ele>
        <time>2018-07-23T11:13:04.000Z</time>
      </trkpt>
      <trkpt lat="42.571495" lon="-5.674269">
        <ele>911.32</ele>
        <time>2018-07-23T11:13:06.990Z</time>
      </trkpt>
      <trkpt lat="42.571474" lon="-5.67439">
        <ele>912</ele>
        <time>2018-07-23T11:13:09.990Z</time>
      </trkpt>
      <trkpt lat="42.571433" lon="-5.674537">
        <ele>912</ele>
        <time>2018-07-23T11:13:13.020Z</time>
      </trkpt>
      <trkpt lat="42.571392" lon="-5.674654">
        <ele>912</ele>
        <time>2018-07-23T11:13:14.990Z</time>
      </trkpt>
      <trkpt lat="42.571356" lon="-5.67477">
        <ele>912</ele>
        <time>2018-07-23T11:13:16.990Z</time>
      </trkpt>
      <trkpt lat="42.57132" lon="-5.674888">
        <ele>912</ele>
        <time>2018-07-23T11:13:19.000Z</time>
      </trkpt>
      <trkpt lat="42.571293" lon="-5.675006">
        <ele>912</ele>
        <time>2018-07-23T11:13:20.990Z</time>
      </trkpt>
      <trkpt lat="42.571263" lon="-5.675134">
        <ele>912</ele>
        <time>2018-07-23T11:13:22.990Z</time>
      </trkpt>
      <trkpt lat="42.571234" lon="-5.675261">
        <ele>912</ele>
        <time>2018-07-23T11:13:24.990Z</time>
      </trkpt>
      <trkpt lat="42.571207" lon="-5.675397">
        <ele>912</ele>
        <time>2018-07-23T11:13:26.990Z</time>
      </trkpt>
      <trkpt lat="42.571169" lon="-5.67554">
        <ele>912</ele>
        <time>2018-07-23T11:13:28.990Z</time>
      </trkpt>
      <trkpt lat="42.571131" lon="-5.67569">
        <ele>911</ele>
        <time>2018-07-23T11:13:30.990Z</time>
      </trkpt>
      <trkpt lat="42.571094" lon="-5.675841">
        <ele>911</ele>
        <time>2018-07-23T11:13:32.960Z</time>
      </trkpt>
      <trkpt lat="42.571055" lon="-5.675998">
        <ele>911</ele>
        <time>2018-07-23T11:13:34.990Z</time>
      </trkpt>
      <trkpt lat="42.571014" lon="-5.676148">
        <ele>911</ele>
        <time>2018-07-23T11:13:36.990Z</time>
      </trkpt>
      <trkpt lat="42.570979" lon="-5.676306">
        <ele>911</ele>
        <time>2018-07-23T11:13:39.000Z</time>
      </trkpt>
      <trkpt lat="42.570946" lon="-5.676451">
        <ele>911</ele>
        <time>2018-07-23T11:13:40.990Z</time>
      </trkpt>
      <trkpt lat="42.570911" lon="-5.676578">
        <ele>911</ele>
        <time>2018-07-23T11:13:42.990Z</time>
      </trkpt>
      <trkpt lat="42.570875" lon="-5.67671">
        <ele>911</ele>
        <time>2018-07-23T11:13:44.990Z</time>
      </trkpt>
      <trkpt lat="42.57084" lon="-5.676839">
        <ele>911</ele>
        <time>2018-07-23T11:13:46.990Z</time>
      </trkpt>
      <trkpt lat="42.570794" lon="-5.676973">
        <ele>911</ele>
        <time>2018-07-23T11:13:49.000Z</time>
      </trkpt>
      <trkpt lat="42.570749" lon="-5.677098">
        <ele>911</ele>
        <time>2018-07-23T11:13:51.020Z</time>
      </trkpt>
      <trkpt lat="42.570716" lon="-5.67722">
        <ele>911</ele>
        <time>2018-07-23T11:13:52.990Z</time>
      </trkpt>
      <trkpt lat="42.570688" lon="-5.677338">
        <ele>912</ele>
        <time>2018-07-23T11:13:54.990Z</time>
      </trkpt>
      <trkpt lat="42.570658" lon="-5.677456">
        <ele>912</ele>
        <time>2018-07-23T11:13:56.990Z</time>
      </trkpt>
      <trkpt lat="42.570625" lon="-5.677577">
        <ele>912</ele>
        <time>2018-07-23T11:13:59.000Z</time>
      </trkpt>
      <trkpt lat="42.570598" lon="-5.677701">
        <ele>911</ele>
        <time>2018-07-23T11:14:00.990Z</time>
      </trkpt>
      <trkpt lat="42.570553" lon="-5.677843">
        <ele>911</ele>
        <time>2018-07-23T11:14:04.000Z</time>
      </trkpt>
      <trkpt lat="42.570501" lon="-5.678013">
        <ele>911</ele>
        <time>2018-07-23T11:14:07.000Z</time>
      </trkpt>
      <trkpt lat="42.57046" lon="-5.678137">
        <ele>911</ele>
        <time>2018-07-23T11:14:08.990Z</time>
      </trkpt>
      <trkpt lat="42.570424" lon="-5.678253">
        <ele>911</ele>
        <time>2018-07-23T11:14:10.960Z</time>
      </trkpt>
      <trkpt lat="42.57039" lon="-5.678395">
        <ele>911</ele>
        <time>2018-07-23T11:14:13.000Z</time>
      </trkpt>
      <trkpt lat="42.570344" lon="-5.678527">
        <ele>911</ele>
        <time>2018-07-23T11:14:14.990Z</time>
      </trkpt>
      <trkpt lat="42.570316" lon="-5.678653">
        <ele>910.68</ele>
        <time>2018-07-23T11:14:16.990Z</time>
      </trkpt>
      <trkpt lat="42.570286" lon="-5.6788">
        <ele>909.68</ele>
        <time>2018-07-23T11:14:18.990Z</time>
      </trkpt>
      <trkpt lat="42.570241" lon="-5.679052">
        <ele>908</ele>
        <time>2018-07-23T11:14:22.000Z</time>
      </trkpt>
      <trkpt lat="42.570232" lon="-5.679239">
        <ele>907.751881508286</ele>
        <time>2018-07-23T11:14:24.000Z</time>
      </trkpt>
      <trkpt lat="42.570175" lon="-5.679431">
        <ele>907</ele>
        <time>2018-07-23T11:14:26.000Z</time>
      </trkpt>
      <trkpt lat="42.570134" lon="-5.679615">
        <ele>905.971419689877</ele>
        <time>2018-07-23T11:14:27.990Z</time>
      </trkpt>
      <trkpt lat="42.570092" lon="-5.679802">
        <ele>904.780305454545</ele>
        <time>2018-07-23T11:14:29.960Z</time>
      </trkpt>
      <trkpt lat="42.570036" lon="-5.680003">
        <ele>904</ele>
        <time>2018-07-23T11:14:31.990Z</time>
      </trkpt>
      <trkpt lat="42.569982" lon="-5.6802">
        <ele>903.68</ele>
        <time>2018-07-23T11:14:33.990Z</time>
      </trkpt>
      <trkpt lat="42.569916" lon="-5.680408">
        <ele>902.750002424242</ele>
        <time>2018-07-23T11:14:36.000Z</time>
      </trkpt>
      <trkpt lat="42.569865" lon="-5.680608">
        <ele>902</ele>
        <time>2018-07-23T11:14:37.990Z</time>
      </trkpt>
      <trkpt lat="42.569817" lon="-5.680807">
        <ele>902</ele>
        <time>2018-07-23T11:14:39.990Z</time>
      </trkpt>
      <trkpt lat="42.56976" lon="-5.681017">
        <ele>900.68</ele>
        <time>2018-07-23T11:14:41.990Z</time>
      </trkpt>
      <trkpt lat="42.569693" lon="-5.681225">
        <ele>899.763356913937</ele>
        <time>2018-07-23T11:14:43.990Z</time>
      </trkpt>
      <trkpt lat="42.569623" lon="-5.681442">
        <ele>898</ele>
        <time>2018-07-23T11:14:46.000Z</time>
      </trkpt>
      <trkpt lat="42.569538" lon="-5.681659">
        <ele>898</ele>
        <time>2018-07-23T11:14:48.020Z</time>
      </trkpt>
      <trkpt lat="42.569459" lon="-5.68186">
        <ele>897</ele>
        <time>2018-07-23T11:14:49.990Z</time>
      </trkpt>
      <trkpt lat="42.569378" lon="-5.682044">
        <ele>897</ele>
        <time>2018-07-23T11:14:51.990Z</time>
      </trkpt>
      <trkpt lat="42.569295" lon="-5.682223">
        <ele>897</ele>
        <time>2018-07-23T11:14:53.990Z</time>
      </trkpt>
      <trkpt lat="42.569223" lon="-5.682391">
        <ele>897</ele>
        <time>2018-07-23T11:14:56.030Z</time>
      </trkpt>
      <trkpt lat="42.569167" lon="-5.682538">
        <ele>897</ele>
        <time>2018-07-23T11:14:57.990Z</time>
      </trkpt>
      <trkpt lat="42.569125" lon="-5.68265">
        <ele>897</ele>
        <time>2018-07-23T11:14:59.990Z</time>
      </trkpt>
      <trkpt lat="42.569081" lon="-5.682757">
        <ele>898</ele>
        <time>2018-07-23T11:15:03.990Z</time>
      </trkpt>
      <trkpt lat="42.569072" lon="-5.682882">
        <ele>899</ele>
        <time>2018-07-23T11:15:13.990Z</time>
      </trkpt>
      <trkpt lat="42.569039" lon="-5.682999">
        <ele>899</ele>
        <time>2018-07-23T11:15:22.990Z</time>
      </trkpt>
      <trkpt lat="42.568944" lon="-5.683077">
        <ele>899</ele>
        <time>2018-07-23T11:15:33.000Z</time>
      </trkpt>
      <trkpt lat="42.568862" lon="-5.683167">
        <ele>899</ele>
        <time>2018-07-23T11:15:36.990Z</time>
      </trkpt>
      <trkpt lat="42.568836" lon="-5.683294">
        <ele>899</ele>
        <time>2018-07-23T11:15:41.000Z</time>
      </trkpt>
      <trkpt lat="42.568766" lon="-5.683402">
        <ele>900</ele>
        <time>2018-07-23T11:15:57.990Z</time>
      </trkpt>
      <trkpt lat="42.568725" lon="-5.683516">
        <ele>900</ele>
        <time>2018-07-23T11:16:03.000Z</time>
      </trkpt>
      <trkpt lat="42.568716" lon="-5.683656">
        <ele>900</ele>
        <time>2018-07-23T11:16:12.990Z</time>
      </trkpt>
      <trkpt lat="42.568665" lon="-5.683783">
        <ele>900</ele>
        <time>2018-07-23T11:16:16.990Z</time>
      </trkpt>
      <trkpt lat="42.568628" lon="-5.6839">
        <ele>900</ele>
        <time>2018-07-23T11:16:20.000Z</time>
      </trkpt>
      <trkpt lat="42.568584" lon="-5.684032">
        <ele>901</ele>
        <time>2018-07-23T11:16:23.960Z</time>
      </trkpt>
      <trkpt lat="42.56851" lon="-5.68414">
        <ele>901</ele>
        <time>2018-07-23T11:16:29.000Z</time>
      </trkpt>
      <trkpt lat="42.568473" lon="-5.684274">
        <ele>902</ele>
        <time>2018-07-23T11:16:32.990Z</time>
      </trkpt>
      <trkpt lat="42.568435" lon="-5.684408">
        <ele>903</ele>
        <time>2018-07-23T11:16:36.990Z</time>
      </trkpt>
      <trkpt lat="42.568388" lon="-5.684521">
        <ele>903</ele>
        <time>2018-07-23T11:16:39.990Z</time>
      </trkpt>
      <trkpt lat="42.568342" lon="-5.684672">
        <ele>903</ele>
        <time>2018-07-23T11:16:43.990Z</time>
      </trkpt>
      <trkpt lat="42.568304" lon="-5.684796">
        <ele>904</ele>
        <time>2018-07-23T11:16:46.990Z</time>
      </trkpt>
      <trkpt lat="42.568259" lon="-5.684926">
        <ele>904.32</ele>
        <time>2018-07-23T11:16:49.990Z</time>
      </trkpt>
      <trkpt lat="42.568205" lon="-5.685048">
        <ele>905</ele>
        <time>2018-07-23T11:16:52.990Z</time>
      </trkpt>
      <trkpt lat="42.568155" lon="-5.685178">
        <ele>905</ele>
        <time>2018-07-23T11:16:56.000Z</time>
      </trkpt>
      <trkpt lat="42.568105" lon="-5.685296">
        <ele>905.186338267797</ele>
        <time>2018-07-23T11:16:58.990Z</time>
      </trkpt>
      <trkpt lat="42.568057" lon="-5.68542">
        <ele>906</ele>
        <time>2018-07-23T11:17:01.960Z</time>
      </trkpt>
      <trkpt lat="42.568006" lon="-5.685551">
        <ele>906.32</ele>
        <time>2018-07-23T11:17:04.990Z</time>
      </trkpt>
      <trkpt lat="42.567949" lon="-5.68567">
        <ele>907</ele>
        <time>2018-07-23T11:17:07.990Z</time>
      </trkpt>
      <trkpt lat="42.567888" lon="-5.685796">
        <ele>908</ele>
        <time>2018-07-23T11:17:11.000Z</time>
      </trkpt>
      <trkpt lat="42.567838" lon="-5.685923">
        <ele>908</ele>
        <time>2018-07-23T11:17:13.990Z</time>
      </trkpt>
      <trkpt lat="42.567787" lon="-5.686036">
        <ele>908</ele>
        <time>2018-07-23T11:17:16.990Z</time>
      </trkpt>
      <trkpt lat="42.567741" lon="-5.686159">
        <ele>908</ele>
        <time>2018-07-23T11:17:20.020Z</time>
      </trkpt>
      <trkpt lat="42.567702" lon="-5.686288">
        <ele>908</ele>
        <time>2018-07-23T11:17:22.990Z</time>
      </trkpt>
      <trkpt lat="42.567652" lon="-5.686404">
        <ele>909</ele>
        <time>2018-07-23T11:17:26.000Z</time>
      </trkpt>
      <trkpt lat="42.567608" lon="-5.686521">
        <ele>909</ele>
        <time>2018-07-23T11:17:28.990Z</time>
      </trkpt>
      <trkpt lat="42.567564" lon="-5.686635">
        <ele>909.32</ele>
        <time>2018-07-23T11:17:31.990Z</time>
      </trkpt>
      <trkpt lat="42.567514" lon="-5.686753">
        <ele>910</ele>
        <time>2018-07-23T11:17:34.990Z</time>
      </trkpt>
      <trkpt lat="42.567448" lon="-5.686883">
        <ele>911</ele>
        <time>2018-07-23T11:17:37.990Z</time>
      </trkpt>
      <trkpt lat="42.567387" lon="-5.686996">
        <ele>911</ele>
        <time>2018-07-23T11:17:41.000Z</time>
      </trkpt>
      <trkpt lat="42.567338" lon="-5.687099">
        <ele>911.32</ele>
        <time>2018-07-23T11:17:43.990Z</time>
      </trkpt>
      <trkpt lat="42.567278" lon="-5.687235">
        <ele>912</ele>
        <time>2018-07-23T11:17:47.990Z</time>
      </trkpt>
      <trkpt lat="42.567225" lon="-5.687359">
        <ele>913</ele>
        <time>2018-07-23T11:17:51.990Z</time>
      </trkpt>
      <trkpt lat="42.567149" lon="-5.687465">
        <ele>913</ele>
        <time>2018-07-23T11:17:58.020Z</time>
      </trkpt>
      <trkpt lat="42.567069" lon="-5.68753">
        <ele>913</ele>
        <time>2018-07-23T11:18:01.990Z</time>
      </trkpt>
      <trkpt lat="42.566964" lon="-5.687564">
        <ele>913</ele>
        <time>2018-07-23T11:18:04.990Z</time>
      </trkpt>
      <trkpt lat="42.566858" lon="-5.68762">
        <ele>913</ele>
        <time>2018-07-23T11:18:07.990Z</time>
      </trkpt>
      <trkpt lat="42.566805" lon="-5.687726">
        <ele>913.3299968</ele>
        <time>2018-07-23T11:18:11.000Z</time>
      </trkpt>
      <trkpt lat="42.566754" lon="-5.687827">
        <ele>914</ele>
        <time>2018-07-23T11:18:13.990Z</time>
      </trkpt>
      <trkpt lat="42.566698" lon="-5.687939">
        <ele>914.263160933921</ele>
        <time>2018-07-23T11:18:17.020Z</time>
      </trkpt>
      <trkpt lat="42.566647" lon="-5.688051">
        <ele>914</ele>
        <time>2018-07-23T11:18:19.990Z</time>
      </trkpt>
      <trkpt lat="42.566591" lon="-5.68817">
        <ele>914</ele>
        <time>2018-07-23T11:18:22.990Z</time>
      </trkpt>
      <trkpt lat="42.566531" lon="-5.688288">
        <ele>914.3299968</ele>
        <time>2018-07-23T11:18:26.000Z</time>
      </trkpt>
      <trkpt lat="42.566474" lon="-5.688417">
        <ele>915</ele>
        <time>2018-07-23T11:18:28.990Z</time>
      </trkpt>
      <trkpt lat="42.566406" lon="-5.688554">
        <ele>915</ele>
        <time>2018-07-23T11:18:31.990Z</time>
      </trkpt>
      <trkpt lat="42.566338" lon="-5.688687">
        <ele>915</ele>
        <time>2018-07-23T11:18:34.990Z</time>
      </trkpt>
      <trkpt lat="42.566269" lon="-5.688821">
        <ele>915</ele>
        <time>2018-07-23T11:18:37.990Z</time>
      </trkpt>
      <trkpt lat="42.566194" lon="-5.688953">
        <ele>916</ele>
        <time>2018-07-23T11:18:41.000Z</time>
      </trkpt>
      <trkpt lat="42.566112" lon="-5.68909">
        <ele>916</ele>
        <time>2018-07-23T11:18:43.990Z</time>
      </trkpt>
      <trkpt lat="42.566056" lon="-5.689192">
        <ele>916</ele>
        <time>2018-07-23T11:18:46.000Z</time>
      </trkpt>
      <trkpt lat="42.566003" lon="-5.689292">
        <ele>916</ele>
        <time>2018-07-23T11:18:47.990Z</time>
      </trkpt>
      <trkpt lat="42.565949" lon="-5.689392">
        <ele>916</ele>
        <time>2018-07-23T11:18:49.990Z</time>
      </trkpt>
      <trkpt lat="42.565864" lon="-5.689529">
        <ele>916.803681367006</ele>
        <time>2018-07-23T11:18:52.990Z</time>
      </trkpt>
      <trkpt lat="42.565785" lon="-5.689659">
        <ele>916</ele>
        <time>2018-07-23T11:18:55.970Z</time>
      </trkpt>
      <trkpt lat="42.565722" lon="-5.68976">
        <ele>916</ele>
        <time>2018-07-23T11:18:57.990Z</time>
      </trkpt>
      <trkpt lat="42.56566" lon="-5.689868">
        <ele>915.32</ele>
        <time>2018-07-23T11:18:59.990Z</time>
      </trkpt>
      <trkpt lat="42.565602" lon="-5.689971">
        <ele>916</ele>
        <time>2018-07-23T11:19:01.990Z</time>
      </trkpt>
      <trkpt lat="42.56555" lon="-5.690072">
        <ele>916</ele>
        <time>2018-07-23T11:19:03.990Z</time>
      </trkpt>
      <trkpt lat="42.565476" lon="-5.690217">
        <ele>916</ele>
        <time>2018-07-23T11:19:06.990Z</time>
      </trkpt>
      <trkpt lat="42.565406" lon="-5.690355">
        <ele>917</ele>
        <time>2018-07-23T11:19:09.990Z</time>
      </trkpt>
      <trkpt lat="42.565346" lon="-5.690457">
        <ele>916</ele>
        <time>2018-07-23T11:19:11.990Z</time>
      </trkpt>
      <trkpt lat="42.565282" lon="-5.690585">
        <ele>916</ele>
        <time>2018-07-23T11:19:14.960Z</time>
      </trkpt>
      <trkpt lat="42.565224" lon="-5.690688">
        <ele>917</ele>
        <time>2018-07-23T11:19:17.990Z</time>
      </trkpt>
      <trkpt lat="42.565158" lon="-5.690808">
        <ele>917</ele>
        <time>2018-07-23T11:19:21.000Z</time>
      </trkpt>
      <trkpt lat="42.565082" lon="-5.690944">
        <ele>916.68</ele>
        <time>2018-07-23T11:19:23.990Z</time>
      </trkpt>
      <trkpt lat="42.565002" lon="-5.691083">
        <ele>916</ele>
        <time>2018-07-23T11:19:26.990Z</time>
      </trkpt>
      <trkpt lat="42.564944" lon="-5.691191">
        <ele>915.759397917348</ele>
        <time>2018-07-23T11:19:28.990Z</time>
      </trkpt>
      <trkpt lat="42.564884" lon="-5.69131">
        <ele>915</ele>
        <time>2018-07-23T11:19:31.000Z</time>
      </trkpt>
      <trkpt lat="42.564818" lon="-5.691447">
        <ele>914.6499968</ele>
        <time>2018-07-23T11:19:33.020Z</time>
      </trkpt>
      <trkpt lat="42.564752" lon="-5.691585">
        <ele>913</ele>
        <time>2018-07-23T11:19:34.990Z</time>
      </trkpt>
      <trkpt lat="42.56468" lon="-5.69173">
        <ele>913</ele>
        <time>2018-07-23T11:19:36.990Z</time>
      </trkpt>
      <trkpt lat="42.564612" lon="-5.691849">
        <ele>913</ele>
        <time>2018-07-23T11:19:38.990Z</time>
      </trkpt>
      <trkpt lat="42.564558" lon="-5.691962">
        <ele>913</ele>
        <time>2018-07-23T11:19:41.000Z</time>
      </trkpt>
      <trkpt lat="42.564522" lon="-5.692114">
        <ele>913</ele>
        <time>2018-07-23T11:19:43.990Z</time>
      </trkpt>
      <trkpt lat="42.56447" lon="-5.692223">
        <ele>913</ele>
        <time>2018-07-23T11:19:46.000Z</time>
      </trkpt>
      <trkpt lat="42.564406" lon="-5.692328">
        <ele>913</ele>
        <time>2018-07-23T11:19:47.990Z</time>
      </trkpt>
      <trkpt lat="42.564338" lon="-5.692454">
        <ele>912.755723400721</ele>
        <time>2018-07-23T11:19:49.990Z</time>
      </trkpt>
      <trkpt lat="42.564274" lon="-5.692582">
        <ele>912</ele>
        <time>2018-07-23T11:19:52.020Z</time>
      </trkpt>
      <trkpt lat="42.564214" lon="-5.692706">
        <ele>912</ele>
        <time>2018-07-23T11:19:53.990Z</time>
      </trkpt>
      <trkpt lat="42.564142" lon="-5.692827">
        <ele>911.6700032</ele>
        <time>2018-07-23T11:19:56.000Z</time>
      </trkpt>
      <trkpt lat="42.564082" lon="-5.692949">
        <ele>911</ele>
        <time>2018-07-23T11:19:57.990Z</time>
      </trkpt>
      <trkpt lat="42.56402" lon="-5.693069">
        <ele>911</ele>
        <time>2018-07-23T11:19:59.990Z</time>
      </trkpt>
      <trkpt lat="42.563957" lon="-5.69318">
        <ele>911</ele>
        <time>2018-07-23T11:20:01.990Z</time>
      </trkpt>
      <trkpt lat="42.56388" lon="-5.693284">
        <ele>911</ele>
        <time>2018-07-23T11:20:03.990Z</time>
      </trkpt>
      <trkpt lat="42.563795" lon="-5.693378">
        <ele>911</ele>
        <time>2018-07-23T11:20:06.000Z</time>
      </trkpt>
      <trkpt lat="42.563723" lon="-5.693469">
        <ele>911</ele>
        <time>2018-07-23T11:20:08.000Z</time>
      </trkpt>
      <trkpt lat="42.563648" lon="-5.693599">
        <ele>911</ele>
        <time>2018-07-23T11:20:11.000Z</time>
      </trkpt>
      <trkpt lat="42.563584" lon="-5.693731">
        <ele>911</ele>
        <time>2018-07-23T11:20:14.000Z</time>
      </trkpt>
      <trkpt lat="42.563518" lon="-5.693865">
        <ele>911</ele>
        <time>2018-07-23T11:20:17.000Z</time>
      </trkpt>
      <trkpt lat="42.563459" lon="-5.693999">
        <ele>911</ele>
        <time>2018-07-23T11:20:20.000Z</time>
      </trkpt>
      <trkpt lat="42.563389" lon="-5.694143">
        <ele>910.676768721556</ele>
        <time>2018-07-23T11:20:23.000Z</time>
      </trkpt>
      <trkpt lat="42.563307" lon="-5.694286">
        <ele>910</ele>
        <time>2018-07-23T11:20:26.000Z</time>
      </trkpt>
      <trkpt lat="42.563261" lon="-5.694393">
        <ele>910</ele>
        <time>2018-07-23T11:20:28.000Z</time>
      </trkpt>
      <trkpt lat="42.563215" lon="-5.694505">
        <ele>909.74809219976</ele>
        <time>2018-07-23T11:20:30.000Z</time>
      </trkpt>
      <trkpt lat="42.563159" lon="-5.694612">
        <ele>909</ele>
        <time>2018-07-23T11:20:32.000Z</time>
      </trkpt>
      <trkpt lat="42.563104" lon="-5.694722">
        <ele>909</ele>
        <time>2018-07-23T11:20:34.000Z</time>
      </trkpt>
      <trkpt lat="42.56305" lon="-5.69483">
        <ele>909</ele>
        <time>2018-07-23T11:20:36.000Z</time>
      </trkpt>
      <trkpt lat="42.562994" lon="-5.694936">
        <ele>908</ele>
        <time>2018-07-23T11:20:38.000Z</time>
      </trkpt>
      <trkpt lat="42.56294" lon="-5.695046">
        <ele>908</ele>
        <time>2018-07-23T11:20:40.000Z</time>
      </trkpt>
      <trkpt lat="42.562881" lon="-5.695161">
        <ele>908</ele>
        <time>2018-07-23T11:20:42.000Z</time>
      </trkpt>
      <trkpt lat="42.562816" lon="-5.695275">
        <ele>908</ele>
        <time>2018-07-23T11:20:44.000Z</time>
      </trkpt>
      <trkpt lat="42.562752" lon="-5.695392">
        <ele>907.6700032</ele>
        <time>2018-07-23T11:20:46.000Z</time>
      </trkpt>
      <trkpt lat="42.562688" lon="-5.695509">
        <ele>907</ele>
        <time>2018-07-23T11:20:48.000Z</time>
      </trkpt>
      <trkpt lat="42.562624" lon="-5.695628">
        <ele>907</ele>
        <time>2018-07-23T11:20:50.000Z</time>
      </trkpt>
      <trkpt lat="42.562564" lon="-5.695751">
        <ele>907</ele>
        <time>2018-07-23T11:20:52.000Z</time>
      </trkpt>
      <trkpt lat="42.562504" lon="-5.695873">
        <ele>906</ele>
        <time>2018-07-23T11:20:54.000Z</time>
      </trkpt>
      <trkpt lat="42.562445" lon="-5.695994">
        <ele>906</ele>
        <time>2018-07-23T11:20:56.000Z</time>
      </trkpt>
      <trkpt lat="42.562384" lon="-5.696114">
        <ele>906</ele>
        <time>2018-07-23T11:20:58.000Z</time>
      </trkpt>
      <trkpt lat="42.562315" lon="-5.696242">
        <ele>905</ele>
        <time>2018-07-23T11:21:00.000Z</time>
      </trkpt>
      <trkpt lat="42.562246" lon="-5.696365">
        <ele>905</ele>
        <time>2018-07-23T11:21:02.000Z</time>
      </trkpt>
      <trkpt lat="42.562199" lon="-5.696478">
        <ele>905</ele>
        <time>2018-07-23T11:21:04.000Z</time>
      </trkpt>
      <trkpt lat="42.562159" lon="-5.696598">
        <ele>905</ele>
        <time>2018-07-23T11:21:07.000Z</time>
      </trkpt>
      <trkpt lat="42.562086" lon="-5.69671">
        <ele>905</ele>
        <time>2018-07-23T11:21:10.990Z</time>
      </trkpt>
      <trkpt lat="42.56201" lon="-5.696832">
        <ele>905</ele>
        <time>2018-07-23T11:21:13.990Z</time>
      </trkpt>
      <trkpt lat="42.561969" lon="-5.69694">
        <ele>905</ele>
        <time>2018-07-23T11:21:16.990Z</time>
      </trkpt>
      <trkpt lat="42.561921" lon="-5.697053">
        <ele>905</ele>
        <time>2018-07-23T11:21:20.000Z</time>
      </trkpt>
      <trkpt lat="42.561868" lon="-5.697185">
        <ele>905</ele>
        <time>2018-07-23T11:21:23.000Z</time>
      </trkpt>
      <trkpt lat="42.561802" lon="-5.697336">
        <ele>905</ele>
        <time>2018-07-23T11:21:27.020Z</time>
      </trkpt>
      <trkpt lat="42.561729" lon="-5.697471">
        <ele>905</ele>
        <time>2018-07-23T11:21:31.000Z</time>
      </trkpt>
      <trkpt lat="42.561641" lon="-5.697566">
        <ele>905</ele>
        <time>2018-07-23T11:21:33.990Z</time>
      </trkpt>
      <trkpt lat="42.561561" lon="-5.69767">
        <ele>905</ele>
        <time>2018-07-23T11:21:36.990Z</time>
      </trkpt>
      <trkpt lat="42.561493" lon="-5.697764">
        <ele>905</ele>
        <time>2018-07-23T11:21:38.990Z</time>
      </trkpt>
      <trkpt lat="42.561447" lon="-5.697896">
        <ele>905</ele>
        <time>2018-07-23T11:21:42.990Z</time>
      </trkpt>
      <trkpt lat="42.561393" lon="-5.698006">
        <ele>905</ele>
        <time>2018-07-23T11:21:46.030Z</time>
      </trkpt>
      <trkpt lat="42.561315" lon="-5.698147">
        <ele>906</ele>
        <time>2018-07-23T11:21:48.990Z</time>
      </trkpt>
      <trkpt lat="42.561263" lon="-5.69825">
        <ele>905</ele>
        <time>2018-07-23T11:21:51.000Z</time>
      </trkpt>
      <trkpt lat="42.561211" lon="-5.698351">
        <ele>905.24427421246</ele>
        <time>2018-07-23T11:21:52.990Z</time>
      </trkpt>
      <trkpt lat="42.561153" lon="-5.698471">
        <ele>906</ele>
        <time>2018-07-23T11:21:56.000Z</time>
      </trkpt>
      <trkpt lat="42.561065" lon="-5.698595">
        <ele>906</ele>
        <time>2018-07-23T11:21:59.000Z</time>
      </trkpt>
      <trkpt lat="42.560981" lon="-5.698728">
        <ele>906</ele>
        <time>2018-07-23T11:22:02.000Z</time>
      </trkpt>
      <trkpt lat="42.560913" lon="-5.69881">
        <ele>906</ele>
        <time>2018-07-23T11:22:03.990Z</time>
      </trkpt>
      <trkpt lat="42.560828" lon="-5.698931">
        <ele>906</ele>
        <time>2018-07-23T11:22:06.990Z</time>
      </trkpt>
      <trkpt lat="42.560776" lon="-5.699045">
        <ele>906</ele>
        <time>2018-07-23T11:22:09.990Z</time>
      </trkpt>
      <trkpt lat="42.560716" lon="-5.699174">
        <ele>906</ele>
        <time>2018-07-23T11:22:13.000Z</time>
      </trkpt>
      <trkpt lat="42.560639" lon="-5.699314">
        <ele>906</ele>
        <time>2018-07-23T11:22:15.990Z</time>
      </trkpt>
      <trkpt lat="42.56057" lon="-5.699449">
        <ele>907</ele>
        <time>2018-07-23T11:22:18.990Z</time>
      </trkpt>
      <trkpt lat="42.560504" lon="-5.69959">
        <ele>907</ele>
        <time>2018-07-23T11:22:21.990Z</time>
      </trkpt>
      <trkpt lat="42.56045" lon="-5.699699">
        <ele>907</ele>
        <time>2018-07-23T11:22:24.960Z</time>
      </trkpt>
      <trkpt lat="42.560394" lon="-5.699817">
        <ele>907</ele>
        <time>2018-07-23T11:22:28.000Z</time>
      </trkpt>
      <trkpt lat="42.560324" lon="-5.699939">
        <ele>907</ele>
        <time>2018-07-23T11:22:30.990Z</time>
      </trkpt>
      <trkpt lat="42.560257" lon="-5.70006">
        <ele>907</ele>
        <time>2018-07-23T11:22:33.990Z</time>
      </trkpt>
      <trkpt lat="42.560198" lon="-5.70017">
        <ele>907</ele>
        <time>2018-07-23T11:22:36.990Z</time>
      </trkpt>
      <trkpt lat="42.560144" lon="-5.700307">
        <ele>908</ele>
        <time>2018-07-23T11:22:40.990Z</time>
      </trkpt>
      <trkpt lat="42.560111" lon="-5.70043">
        <ele>908</ele>
        <time>2018-07-23T11:22:43.960Z</time>
      </trkpt>
      <trkpt lat="42.560068" lon="-5.70054">
        <ele>908</ele>
        <time>2018-07-23T11:22:46.990Z</time>
      </trkpt>
      <trkpt lat="42.560003" lon="-5.700675">
        <ele>908.32</ele>
        <time>2018-07-23T11:22:49.990Z</time>
      </trkpt>
      <trkpt lat="42.559921" lon="-5.700788">
        <ele>909</ele>
        <time>2018-07-23T11:22:53.000Z</time>
      </trkpt>
      <trkpt lat="42.559827" lon="-5.70086">
        <ele>909</ele>
        <time>2018-07-23T11:22:55.990Z</time>
      </trkpt>
      <trkpt lat="42.559738" lon="-5.700953">
        <ele>909</ele>
        <time>2018-07-23T11:22:58.990Z</time>
      </trkpt>
      <trkpt lat="42.559663" lon="-5.701052">
        <ele>910</ele>
        <time>2018-07-23T11:23:02.020Z</time>
      </trkpt>
      <trkpt lat="42.559647" lon="-5.701185">
        <ele>909</ele>
        <time>2018-07-23T11:23:04.990Z</time>
      </trkpt>
      <trkpt lat="42.559629" lon="-5.701314">
        <ele>910</ele>
        <time>2018-07-23T11:23:08.990Z</time>
      </trkpt>
      <trkpt lat="42.559574" lon="-5.701428">
        <ele>910</ele>
        <time>2018-07-23T11:23:11.990Z</time>
      </trkpt>
      <trkpt lat="42.559525" lon="-5.701542">
        <ele>910</ele>
        <time>2018-07-23T11:23:14.990Z</time>
      </trkpt>
      <trkpt lat="42.559454" lon="-5.701682">
        <ele>911</ele>
        <time>2018-07-23T11:23:18.000Z</time>
      </trkpt>
      <trkpt lat="42.559376" lon="-5.701812">
        <ele>911</ele>
        <time>2018-07-23T11:23:21.020Z</time>
      </trkpt>
      <trkpt lat="42.559298" lon="-5.701943">
        <ele>911</ele>
        <time>2018-07-23T11:23:23.990Z</time>
      </trkpt>
      <trkpt lat="42.559209" lon="-5.702073">
        <ele>911</ele>
        <time>2018-07-23T11:23:26.990Z</time>
      </trkpt>
      <trkpt lat="42.55913" lon="-5.702203">
        <ele>911</ele>
        <time>2018-07-23T11:23:29.990Z</time>
      </trkpt>
      <trkpt lat="42.559058" lon="-5.702307">
        <ele>911</ele>
        <time>2018-07-23T11:23:33.000Z</time>
      </trkpt>
      <trkpt lat="42.558998" lon="-5.702417">
        <ele>911</ele>
        <time>2018-07-23T11:23:35.990Z</time>
      </trkpt>
      <trkpt lat="42.558932" lon="-5.70253">
        <ele>911</ele>
        <time>2018-07-23T11:23:38.990Z</time>
      </trkpt>
      <trkpt lat="42.558877" lon="-5.702643">
        <ele>912</ele>
        <time>2018-07-23T11:23:43.990Z</time>
      </trkpt>
      <trkpt lat="42.558808" lon="-5.702736">
        <ele>912</ele>
        <time>2018-07-23T11:23:53.000Z</time>
      </trkpt>
      <trkpt lat="42.55874" lon="-5.702836">
        <ele>912</ele>
        <time>2018-07-23T11:23:56.990Z</time>
      </trkpt>
      <trkpt lat="42.558666" lon="-5.702924">
        <ele>912</ele>
        <time>2018-07-23T11:24:01.990Z</time>
      </trkpt>
      <trkpt lat="42.558577" lon="-5.703015">
        <ele>912</ele>
        <time>2018-07-23T11:24:06.990Z</time>
      </trkpt>
      <trkpt lat="42.558492" lon="-5.703126">
        <ele>912</ele>
        <time>2018-07-23T11:24:11.990Z</time>
      </trkpt>
      <trkpt lat="42.558416" lon="-5.703245">
        <ele>912</ele>
        <time>2018-07-23T11:24:15.990Z</time>
      </trkpt>
      <trkpt lat="42.558344" lon="-5.703363">
        <ele>912</ele>
        <time>2018-07-23T11:24:19.990Z</time>
      </trkpt>
      <trkpt lat="42.558279" lon="-5.703462">
        <ele>913</ele>
        <time>2018-07-23T11:24:23.000Z</time>
      </trkpt>
      <trkpt lat="42.558212" lon="-5.703564">
        <ele>913</ele>
        <time>2018-07-23T11:24:25.990Z</time>
      </trkpt>
      <trkpt lat="42.558146" lon="-5.703664">
        <ele>914</ele>
        <time>2018-07-23T11:24:28.990Z</time>
      </trkpt>
      <trkpt lat="42.558083" lon="-5.703763">
        <ele>914</ele>
        <time>2018-07-23T11:24:31.990Z</time>
      </trkpt>
      <trkpt lat="42.558026" lon="-5.703857">
        <ele>914</ele>
        <time>2018-07-23T11:24:34.990Z</time>
      </trkpt>
      <trkpt lat="42.557968" lon="-5.703955">
        <ele>914.2999936</ele>
        <time>2018-07-23T11:24:37.970Z</time>
      </trkpt>
      <trkpt lat="42.55791" lon="-5.704088">
        <ele>915</ele>
        <time>2018-07-23T11:24:41.990Z</time>
      </trkpt>
      <trkpt lat="42.557838" lon="-5.704201">
        <ele>915.242424242424</ele>
        <time>2018-07-23T11:24:45.990Z</time>
      </trkpt>
      <trkpt lat="42.557759" lon="-5.704331">
        <ele>916</ele>
        <time>2018-07-23T11:24:49.990Z</time>
      </trkpt>
      <trkpt lat="42.557696" lon="-5.704437">
        <ele>916</ele>
        <time>2018-07-23T11:24:53.000Z</time>
      </trkpt>
      <trkpt lat="42.557638" lon="-5.704549">
        <ele>916</ele>
        <time>2018-07-23T11:24:55.990Z</time>
      </trkpt>
      <trkpt lat="42.557582" lon="-5.704658">
        <ele>916</ele>
        <time>2018-07-23T11:24:58.990Z</time>
      </trkpt>
      <trkpt lat="42.557519" lon="-5.704777">
        <ele>916</ele>
        <time>2018-07-23T11:25:01.990Z</time>
      </trkpt>
      <trkpt lat="42.557461" lon="-5.704907">
        <ele>916</ele>
        <time>2018-07-23T11:25:04.990Z</time>
      </trkpt>
      <trkpt lat="42.55739" lon="-5.70503">
        <ele>917</ele>
        <time>2018-07-23T11:25:08.000Z</time>
      </trkpt>
      <trkpt lat="42.557332" lon="-5.705153">
        <ele>918</ele>
        <time>2018-07-23T11:25:10.990Z</time>
      </trkpt>
      <trkpt lat="42.557275" lon="-5.705258">
        <ele>918</ele>
        <time>2018-07-23T11:25:13.990Z</time>
      </trkpt>
      <trkpt lat="42.55722" lon="-5.705369">
        <ele>918</ele>
        <time>2018-07-23T11:25:16.960Z</time>
      </trkpt>
      <trkpt lat="42.557147" lon="-5.705479">
        <ele>919</ele>
        <time>2018-07-23T11:25:19.990Z</time>
      </trkpt>
      <trkpt lat="42.557072" lon="-5.70559">
        <ele>920</ele>
        <time>2018-07-23T11:25:23.000Z</time>
      </trkpt>
      <trkpt lat="42.556995" lon="-5.705703">
        <ele>920</ele>
        <time>2018-07-23T11:25:25.990Z</time>
      </trkpt>
      <trkpt lat="42.556927" lon="-5.705807">
        <ele>921</ele>
        <time>2018-07-23T11:25:28.990Z</time>
      </trkpt>
      <trkpt lat="42.556857" lon="-5.705918">
        <ele>920</ele>
        <time>2018-07-23T11:25:34.020Z</time>
      </trkpt>
      <trkpt lat="42.556774" lon="-5.70603">
        <ele>921</ele>
        <time>2018-07-23T11:25:38.000Z</time>
      </trkpt>
      <trkpt lat="42.556707" lon="-5.706133">
        <ele>921</ele>
        <time>2018-07-23T11:25:40.990Z</time>
      </trkpt>
      <trkpt lat="42.55664" lon="-5.706219">
        <ele>922</ele>
        <time>2018-07-23T11:25:43.990Z</time>
      </trkpt>
      <trkpt lat="42.556581" lon="-5.706315">
        <ele>922</ele>
        <time>2018-07-23T11:25:46.990Z</time>
      </trkpt>
      <trkpt lat="42.556505" lon="-5.70643">
        <ele>924</ele>
        <time>2018-07-23T11:25:50.990Z</time>
      </trkpt>
      <trkpt lat="42.556447" lon="-5.706541">
        <ele>924</ele>
        <time>2018-07-23T11:25:54.990Z</time>
      </trkpt>
      <trkpt lat="42.556394" lon="-5.706648">
        <ele>925</ele>
        <time>2018-07-23T11:26:01.990Z</time>
      </trkpt>
      <trkpt lat="42.55631" lon="-5.706736">
        <ele>925</ele>
        <time>2018-07-23T11:26:26.990Z</time>
      </trkpt>
      <trkpt lat="42.556235" lon="-5.70681">
        <ele>925</ele>
        <time>2018-07-23T11:26:31.020Z</time>
      </trkpt>
      <trkpt lat="42.556153" lon="-5.70691">
        <ele>925</ele>
        <time>2018-07-23T11:26:34.990Z</time>
      </trkpt>
      <trkpt lat="42.556067" lon="-5.707005">
        <ele>925</ele>
        <time>2018-07-23T11:26:38.990Z</time>
      </trkpt>
      <trkpt lat="42.555976" lon="-5.707101">
        <ele>925</ele>
        <time>2018-07-23T11:26:43.000Z</time>
      </trkpt>
      <trkpt lat="42.555896" lon="-5.707183">
        <ele>925.242424242424</ele>
        <time>2018-07-23T11:26:45.990Z</time>
      </trkpt>
      <trkpt lat="42.55582" lon="-5.707271">
        <ele>926</ele>
        <time>2018-07-23T11:26:48.990Z</time>
      </trkpt>
      <trkpt lat="42.555734" lon="-5.707371">
        <ele>926</ele>
        <time>2018-07-23T11:26:53.000Z</time>
      </trkpt>
      <trkpt lat="42.555643" lon="-5.707473">
        <ele>926</ele>
        <time>2018-07-23T11:26:56.990Z</time>
      </trkpt>
      <trkpt lat="42.555548" lon="-5.707564">
        <ele>926</ele>
        <time>2018-07-23T11:27:00.990Z</time>
      </trkpt>
      <trkpt lat="42.555449" lon="-5.707656">
        <ele>926</ele>
        <time>2018-07-23T11:27:04.990Z</time>
      </trkpt>
      <trkpt lat="42.555374" lon="-5.707728">
        <ele>926</ele>
        <time>2018-07-23T11:27:08.000Z</time>
      </trkpt>
      <trkpt lat="42.55527" lon="-5.707807">
        <ele>926</ele>
        <time>2018-07-23T11:27:11.990Z</time>
      </trkpt>
      <trkpt lat="42.555186" lon="-5.707874">
        <ele>926</ele>
        <time>2018-07-23T11:27:14.990Z</time>
      </trkpt>
      <trkpt lat="42.555097" lon="-5.707943">
        <ele>925</ele>
        <time>2018-07-23T11:27:18.000Z</time>
      </trkpt>
      <trkpt lat="42.555006" lon="-5.708029">
        <ele>925</ele>
        <time>2018-07-23T11:27:20.990Z</time>
      </trkpt>
      <trkpt lat="42.554915" lon="-5.708129">
        <ele>924</ele>
        <time>2018-07-23T11:27:23.990Z</time>
      </trkpt>
      <trkpt lat="42.554855" lon="-5.708269">
        <ele>923</ele>
        <time>2018-07-23T11:27:26.990Z</time>
      </trkpt>
      <trkpt lat="42.554808" lon="-5.708409">
        <ele>923</ele>
        <time>2018-07-23T11:27:29.990Z</time>
      </trkpt>
      <trkpt lat="42.554767" lon="-5.708539">
        <ele>923</ele>
        <time>2018-07-23T11:27:33.000Z</time>
      </trkpt>
      <trkpt lat="42.554728" lon="-5.70866">
        <ele>923</ele>
        <time>2018-07-23T11:27:35.990Z</time>
      </trkpt>
      <trkpt lat="42.554682" lon="-5.708772">
        <ele>923</ele>
        <time>2018-07-23T11:27:38.990Z</time>
      </trkpt>
      <trkpt lat="42.554617" lon="-5.708886">
        <ele>923</ele>
        <time>2018-07-23T11:27:41.990Z</time>
      </trkpt>
      <trkpt lat="42.55455" lon="-5.709016">
        <ele>923</ele>
        <time>2018-07-23T11:27:44.990Z</time>
      </trkpt>
      <trkpt lat="42.55449" lon="-5.709153">
        <ele>923</ele>
        <time>2018-07-23T11:27:47.970Z</time>
      </trkpt>
      <trkpt lat="42.554426" lon="-5.709309">
        <ele>922.68</ele>
        <time>2018-07-23T11:27:50.990Z</time>
      </trkpt>
      <trkpt lat="42.554415" lon="-5.70944">
        <ele>921.6700032</ele>
        <time>2018-07-23T11:27:53.000Z</time>
      </trkpt>
      <trkpt lat="42.554467" lon="-5.709601">
        <ele>920</ele>
        <time>2018-07-23T11:27:55.990Z</time>
      </trkpt>
      <trkpt lat="42.554571" lon="-5.70971">
        <ele>919</ele>
        <time>2018-07-23T11:27:58.990Z</time>
      </trkpt>
      <trkpt lat="42.554677" lon="-5.709807">
        <ele>919.32</ele>
        <time>2018-07-23T11:28:01.990Z</time>
      </trkpt>
      <trkpt lat="42.554776" lon="-5.709886">
        <ele>920</ele>
        <time>2018-07-23T11:28:04.990Z</time>
      </trkpt>
      <trkpt lat="42.55488" lon="-5.709952">
        <ele>920</ele>
        <time>2018-07-23T11:28:08.000Z</time>
      </trkpt>
      <trkpt lat="42.554967" lon="-5.710012">
        <ele>920</ele>
        <time>2018-07-23T11:28:10.990Z</time>
      </trkpt>
      <trkpt lat="42.555064" lon="-5.710072">
        <ele>920</ele>
        <time>2018-07-23T11:28:14.990Z</time>
      </trkpt>
      <trkpt lat="42.55508" lon="-5.710206">
        <ele>921</ele>
        <time>2018-07-23T11:28:21.990Z</time>
      </trkpt>
      <trkpt lat="42.555035" lon="-5.710342">
        <ele>921</ele>
        <time>2018-07-23T11:28:25.960Z</time>
      </trkpt>
      <trkpt lat="42.554987" lon="-5.710468">
        <ele>920.68</ele>
        <time>2018-07-23T11:28:28.990Z</time>
      </trkpt>
      <trkpt lat="42.554937" lon="-5.710588">
        <ele>920</ele>
        <time>2018-07-23T11:28:31.990Z</time>
      </trkpt>
      <trkpt lat="42.554882" lon="-5.710714">
        <ele>920</ele>
        <time>2018-07-23T11:28:34.990Z</time>
      </trkpt>
      <trkpt lat="42.55482" lon="-5.71084">
        <ele>920</ele>
        <time>2018-07-23T11:28:38.000Z</time>
      </trkpt>
      <trkpt lat="42.55477" lon="-5.710954">
        <ele>920</ele>
        <time>2018-07-23T11:28:40.990Z</time>
      </trkpt>
      <trkpt lat="42.554722" lon="-5.711071">
        <ele>919</ele>
        <time>2018-07-23T11:28:44.020Z</time>
      </trkpt>
      <trkpt lat="42.554683" lon="-5.711193">
        <ele>919</ele>
        <time>2018-07-23T11:28:46.990Z</time>
      </trkpt>
      <trkpt lat="42.554641" lon="-5.711308">
        <ele>919</ele>
        <time>2018-07-23T11:28:49.990Z</time>
      </trkpt>
      <trkpt lat="42.554594" lon="-5.711422">
        <ele>919</ele>
        <time>2018-07-23T11:28:53.000Z</time>
      </trkpt>
      <trkpt lat="42.554541" lon="-5.711534">
        <ele>919</ele>
        <time>2018-07-23T11:28:55.990Z</time>
      </trkpt>
      <trkpt lat="42.554482" lon="-5.71167">
        <ele>919</ele>
        <time>2018-07-23T11:28:59.990Z</time>
      </trkpt>
      <trkpt lat="42.554426" lon="-5.711789">
        <ele>919</ele>
        <time>2018-07-23T11:29:03.030Z</time>
      </trkpt>
      <trkpt lat="42.554356" lon="-5.711942">
        <ele>920</ele>
        <time>2018-07-23T11:29:05.990Z</time>
      </trkpt>
      <trkpt lat="42.554308" lon="-5.712051">
        <ele>919</ele>
        <time>2018-07-23T11:29:08.000Z</time>
      </trkpt>
      <trkpt lat="42.554259" lon="-5.71216">
        <ele>919</ele>
        <time>2018-07-23T11:29:09.990Z</time>
      </trkpt>
      <trkpt lat="42.554198" lon="-5.712316">
        <ele>919</ele>
        <time>2018-07-23T11:29:13.000Z</time>
      </trkpt>
      <trkpt lat="42.55413" lon="-5.712458">
        <ele>919</ele>
        <time>2018-07-23T11:29:15.990Z</time>
      </trkpt>
      <trkpt lat="42.554066" lon="-5.712594">
        <ele>919</ele>
        <time>2018-07-23T11:29:18.990Z</time>
      </trkpt>
      <trkpt lat="42.554007" lon="-5.712719">
        <ele>919</ele>
        <time>2018-07-23T11:29:22.020Z</time>
      </trkpt>
      <trkpt lat="42.553948" lon="-5.712855">
        <ele>919</ele>
        <time>2018-07-23T11:29:24.990Z</time>
      </trkpt>
      <trkpt lat="42.55389" lon="-5.712987">
        <ele>919</ele>
        <time>2018-07-23T11:29:28.000Z</time>
      </trkpt>
      <trkpt lat="42.553835" lon="-5.713106">
        <ele>919</ele>
        <time>2018-07-23T11:29:30.990Z</time>
      </trkpt>
      <trkpt lat="42.553785" lon="-5.713229">
        <ele>919</ele>
        <time>2018-07-23T11:29:33.990Z</time>
      </trkpt>
      <trkpt lat="42.553719" lon="-5.713359">
        <ele>919</ele>
        <time>2018-07-23T11:29:36.990Z</time>
      </trkpt>
      <trkpt lat="42.553665" lon="-5.713504">
        <ele>919</ele>
        <time>2018-07-23T11:29:39.990Z</time>
      </trkpt>
      <trkpt lat="42.553603" lon="-5.713652">
        <ele>919.2999936</ele>
        <time>2018-07-23T11:29:42.970Z</time>
      </trkpt>
      <trkpt lat="42.553536" lon="-5.713801">
        <ele>920</ele>
        <time>2018-07-23T11:29:45.990Z</time>
      </trkpt>
      <trkpt lat="42.55347" lon="-5.713956">
        <ele>920</ele>
        <time>2018-07-23T11:29:48.990Z</time>
      </trkpt>
      <trkpt lat="42.553424" lon="-5.714061">
        <ele>920</ele>
        <time>2018-07-23T11:29:50.990Z</time>
      </trkpt>
      <trkpt lat="42.553376" lon="-5.714172">
        <ele>920</ele>
        <time>2018-07-23T11:29:53.000Z</time>
      </trkpt>
      <trkpt lat="42.553307" lon="-5.714324">
        <ele>920</ele>
        <time>2018-07-23T11:29:56.020Z</time>
      </trkpt>
      <trkpt lat="42.553236" lon="-5.71444">
        <ele>920</ele>
        <time>2018-07-23T11:29:58.990Z</time>
      </trkpt>
      <trkpt lat="42.553152" lon="-5.714545">
        <ele>920</ele>
        <time>2018-07-23T11:30:01.990Z</time>
      </trkpt>
      <trkpt lat="42.553083" lon="-5.714674">
        <ele>920</ele>
        <time>2018-07-23T11:30:04.990Z</time>
      </trkpt>
      <trkpt lat="42.553022" lon="-5.714825">
        <ele>920</ele>
        <time>2018-07-23T11:30:08.000Z</time>
      </trkpt>
      <trkpt lat="42.552966" lon="-5.714968">
        <ele>920</ele>
        <time>2018-07-23T11:30:10.990Z</time>
      </trkpt>
      <trkpt lat="42.552907" lon="-5.715102">
        <ele>920</ele>
        <time>2018-07-23T11:30:13.990Z</time>
      </trkpt>
      <trkpt lat="42.552845" lon="-5.71525">
        <ele>920.2</ele>
        <time>2018-07-23T11:30:16.990Z</time>
      </trkpt>
      <trkpt lat="42.552797" lon="-5.715377">
        <ele>921</ele>
        <time>2018-07-23T11:30:19.960Z</time>
      </trkpt>
      <trkpt lat="42.552742" lon="-5.715522">
        <ele>921</ele>
        <time>2018-07-23T11:30:23.000Z</time>
      </trkpt>
      <trkpt lat="42.552689" lon="-5.71567">
        <ele>921</ele>
        <time>2018-07-23T11:30:25.990Z</time>
      </trkpt>
      <trkpt lat="42.552632" lon="-5.715814">
        <ele>921</ele>
        <time>2018-07-23T11:30:28.990Z</time>
      </trkpt>
      <trkpt lat="42.552587" lon="-5.715943">
        <ele>922</ele>
        <time>2018-07-23T11:30:31.990Z</time>
      </trkpt>
      <trkpt lat="42.552537" lon="-5.716077">
        <ele>922</ele>
        <time>2018-07-23T11:30:34.990Z</time>
      </trkpt>
      <trkpt lat="42.552476" lon="-5.716204">
        <ele>922</ele>
        <time>2018-07-23T11:30:38.030Z</time>
      </trkpt>
      <trkpt lat="42.552387" lon="-5.716345">
        <ele>923</ele>
        <time>2018-07-23T11:30:41.000Z</time>
      </trkpt>
      <trkpt lat="42.552315" lon="-5.716491">
        <ele>923</ele>
        <time>2018-07-23T11:30:44.000Z</time>
      </trkpt>
      <trkpt lat="42.552247" lon="-5.716626">
        <ele>923</ele>
        <time>2018-07-23T11:30:47.000Z</time>
      </trkpt>
      <trkpt lat="42.552178" lon="-5.716771">
        <ele>923.3299968</ele>
        <time>2018-07-23T11:30:50.000Z</time>
      </trkpt>
      <trkpt lat="42.55211" lon="-5.716916">
        <ele>924</ele>
        <time>2018-07-23T11:30:53.000Z</time>
      </trkpt>
      <trkpt lat="42.55204" lon="-5.717063">
        <ele>924</ele>
        <time>2018-07-23T11:30:56.000Z</time>
      </trkpt>
      <trkpt lat="42.55197" lon="-5.717211">
        <ele>924</ele>
        <time>2018-07-23T11:30:59.000Z</time>
      </trkpt>
      <trkpt lat="42.551921" lon="-5.717313">
        <ele>924</ele>
        <time>2018-07-23T11:31:01.000Z</time>
      </trkpt>
      <trkpt lat="42.551871" lon="-5.717415">
        <ele>924</ele>
        <time>2018-07-23T11:31:03.000Z</time>
      </trkpt>
      <trkpt lat="42.551801" lon="-5.717571">
        <ele>923.751881508286</ele>
        <time>2018-07-23T11:31:06.000Z</time>
      </trkpt>
      <trkpt lat="42.551733" lon="-5.717727">
        <ele>924</ele>
        <time>2018-07-23T11:31:09.000Z</time>
      </trkpt>
      <trkpt lat="42.55166" lon="-5.71788">
        <ele>925</ele>
        <time>2018-07-23T11:31:12.000Z</time>
      </trkpt>
      <trkpt lat="42.551612" lon="-5.717985">
        <ele>925</ele>
        <time>2018-07-23T11:31:14.000Z</time>
      </trkpt>
      <trkpt lat="42.551561" lon="-5.718089">
        <ele>925</ele>
        <time>2018-07-23T11:31:16.000Z</time>
      </trkpt>
      <trkpt lat="42.551509" lon="-5.718194">
        <ele>925</ele>
        <time>2018-07-23T11:31:18.000Z</time>
      </trkpt>
      <trkpt lat="42.551459" lon="-5.718302">
        <ele>925</ele>
        <time>2018-07-23T11:31:20.000Z</time>
      </trkpt>
      <trkpt lat="42.551411" lon="-5.718414">
        <ele>925</ele>
        <time>2018-07-23T11:31:22.000Z</time>
      </trkpt>
      <trkpt lat="42.551359" lon="-5.718525">
        <ele>925</ele>
        <time>2018-07-23T11:31:24.000Z</time>
      </trkpt>
      <trkpt lat="42.551308" lon="-5.718634">
        <ele>925</ele>
        <time>2018-07-23T11:31:26.000Z</time>
      </trkpt>
      <trkpt lat="42.551254" lon="-5.718743">
        <ele>926</ele>
        <time>2018-07-23T11:31:28.000Z</time>
      </trkpt>
      <trkpt lat="42.551198" lon="-5.718853">
        <ele>926</ele>
        <time>2018-07-23T11:31:30.000Z</time>
      </trkpt>
      <trkpt lat="42.551142" lon="-5.718963">
        <ele>926</ele>
        <time>2018-07-23T11:31:31.990Z</time>
      </trkpt>
      <trkpt lat="42.551085" lon="-5.719081">
        <ele>926</ele>
        <time>2018-07-23T11:31:33.990Z</time>
      </trkpt>
      <trkpt lat="42.551028" lon="-5.71919">
        <ele>926</ele>
        <time>2018-07-23T11:31:35.960Z</time>
      </trkpt>
      <trkpt lat="42.550966" lon="-5.719296">
        <ele>926</ele>
        <time>2018-07-23T11:31:37.990Z</time>
      </trkpt>
      <trkpt lat="42.5509" lon="-5.719402">
        <ele>926</ele>
        <time>2018-07-23T11:31:40.000Z</time>
      </trkpt>
      <trkpt lat="42.550841" lon="-5.719506">
        <ele>926</ele>
        <time>2018-07-23T11:31:41.990Z</time>
      </trkpt>
      <trkpt lat="42.550785" lon="-5.719618">
        <ele>926</ele>
        <time>2018-07-23T11:31:43.990Z</time>
      </trkpt>
      <trkpt lat="42.550725" lon="-5.71973">
        <ele>925.757575757576</ele>
        <time>2018-07-23T11:31:45.990Z</time>
      </trkpt>
      <trkpt lat="42.550669" lon="-5.719844">
        <ele>924</ele>
        <time>2018-07-23T11:31:47.990Z</time>
      </trkpt>
      <trkpt lat="42.550615" lon="-5.719959">
        <ele>924</ele>
        <time>2018-07-23T11:31:50.000Z</time>
      </trkpt>
      <trkpt lat="42.550558" lon="-5.720077">
        <ele>924</ele>
        <time>2018-07-23T11:31:51.990Z</time>
      </trkpt>
      <trkpt lat="42.550496" lon="-5.720202">
        <ele>924</ele>
        <time>2018-07-23T11:31:54.020Z</time>
      </trkpt>
      <trkpt lat="42.550435" lon="-5.72033">
        <ele>924</ele>
        <time>2018-07-23T11:31:55.990Z</time>
      </trkpt>
      <trkpt lat="42.550362" lon="-5.720452">
        <ele>923</ele>
        <time>2018-07-23T11:31:57.990Z</time>
      </trkpt>
      <trkpt lat="42.550276" lon="-5.720561">
        <ele>922</ele>
        <time>2018-07-23T11:32:00.000Z</time>
      </trkpt>
      <trkpt lat="42.550188" lon="-5.720671">
        <ele>922</ele>
        <time>2018-07-23T11:32:01.990Z</time>
      </trkpt>
      <trkpt lat="42.550094" lon="-5.720812">
        <ele>921</ele>
        <time>2018-07-23T11:32:03.990Z</time>
      </trkpt>
      <trkpt lat="42.549983" lon="-5.720968">
        <ele>920</ele>
        <time>2018-07-23T11:32:05.990Z</time>
      </trkpt>
      <trkpt lat="42.549868" lon="-5.721133">
        <ele>919</ele>
        <time>2018-07-23T11:32:07.990Z</time>
      </trkpt>
      <trkpt lat="42.549747" lon="-5.721291">
        <ele>918</ele>
        <time>2018-07-23T11:32:10.000Z</time>
      </trkpt>
      <trkpt lat="42.549647" lon="-5.721446">
        <ele>917</ele>
        <time>2018-07-23T11:32:11.990Z</time>
      </trkpt>
      <trkpt lat="42.549548" lon="-5.721584">
        <ele>916</ele>
        <time>2018-07-23T11:32:13.960Z</time>
      </trkpt>
      <trkpt lat="42.549455" lon="-5.721709">
        <ele>916</ele>
        <time>2018-07-23T11:32:15.990Z</time>
      </trkpt>
      <trkpt lat="42.549368" lon="-5.721841">
        <ele>917</ele>
        <time>2018-07-23T11:32:17.990Z</time>
      </trkpt>
      <trkpt lat="42.549283" lon="-5.721964">
        <ele>917</ele>
        <time>2018-07-23T11:32:20.000Z</time>
      </trkpt>
      <trkpt lat="42.549193" lon="-5.722061">
        <ele>916.68</ele>
        <time>2018-07-23T11:32:21.990Z</time>
      </trkpt>
      <trkpt lat="42.549085" lon="-5.722144">
        <ele>916</ele>
        <time>2018-07-23T11:32:23.990Z</time>
      </trkpt>
      <trkpt lat="42.548972" lon="-5.722227">
        <ele>916</ele>
        <time>2018-07-23T11:32:25.990Z</time>
      </trkpt>
      <trkpt lat="42.548861" lon="-5.722325">
        <ele>915</ele>
        <time>2018-07-23T11:32:27.990Z</time>
      </trkpt>
      <trkpt lat="42.548756" lon="-5.722448">
        <ele>915</ele>
        <time>2018-07-23T11:32:30.000Z</time>
      </trkpt>
      <trkpt lat="42.548645" lon="-5.72259">
        <ele>915</ele>
        <time>2018-07-23T11:32:32.020Z</time>
      </trkpt>
      <trkpt lat="42.548544" lon="-5.722727">
        <ele>915</ele>
        <time>2018-07-23T11:32:33.990Z</time>
      </trkpt>
      <trkpt lat="42.548445" lon="-5.722866">
        <ele>916</ele>
        <time>2018-07-23T11:32:35.990Z</time>
      </trkpt>
      <trkpt lat="42.548356" lon="-5.723004">
        <ele>916.32</ele>
        <time>2018-07-23T11:32:37.990Z</time>
      </trkpt>
      <trkpt lat="42.548279" lon="-5.72314">
        <ele>917.242424242424</ele>
        <time>2018-07-23T11:32:40.000Z</time>
      </trkpt>
      <trkpt lat="42.548199" lon="-5.723283">
        <ele>918</ele>
        <time>2018-07-23T11:32:41.990Z</time>
      </trkpt>
      <trkpt lat="42.548121" lon="-5.72342">
        <ele>918</ele>
        <time>2018-07-23T11:32:43.990Z</time>
      </trkpt>
      <trkpt lat="42.548042" lon="-5.723554">
        <ele>919</ele>
        <time>2018-07-23T11:32:45.990Z</time>
      </trkpt>
      <trkpt lat="42.547965" lon="-5.723687">
        <ele>919</ele>
        <time>2018-07-23T11:32:47.990Z</time>
      </trkpt>
      <trkpt lat="42.547877" lon="-5.723816">
        <ele>919</ele>
        <time>2018-07-23T11:32:50.000Z</time>
      </trkpt>
      <trkpt lat="42.547793" lon="-5.723939">
        <ele>919</ele>
        <time>2018-07-23T11:32:51.960Z</time>
      </trkpt>
      <trkpt lat="42.547707" lon="-5.724057">
        <ele>919</ele>
        <time>2018-07-23T11:32:53.990Z</time>
      </trkpt>
      <trkpt lat="42.547628" lon="-5.72417">
        <ele>919</ele>
        <time>2018-07-23T11:32:55.990Z</time>
      </trkpt>
      <trkpt lat="42.547541" lon="-5.724285">
        <ele>919</ele>
        <time>2018-07-23T11:32:57.990Z</time>
      </trkpt>
      <trkpt lat="42.547454" lon="-5.724397">
        <ele>919</ele>
        <time>2018-07-23T11:33:00.000Z</time>
      </trkpt>
      <trkpt lat="42.54737" lon="-5.724508">
        <ele>919</ele>
        <time>2018-07-23T11:33:01.990Z</time>
      </trkpt>
      <trkpt lat="42.547286" lon="-5.724624">
        <ele>919</ele>
        <time>2018-07-23T11:33:03.990Z</time>
      </trkpt>
      <trkpt lat="42.547201" lon="-5.72474">
        <ele>919</ele>
        <time>2018-07-23T11:33:05.990Z</time>
      </trkpt>
      <trkpt lat="42.547121" lon="-5.724857">
        <ele>918</ele>
        <time>2018-07-23T11:33:07.990Z</time>
      </trkpt>
      <trkpt lat="42.54704" lon="-5.724973">
        <ele>918</ele>
        <time>2018-07-23T11:33:10.030Z</time>
      </trkpt>
      <trkpt lat="42.546958" lon="-5.725084">
        <ele>918</ele>
        <time>2018-07-23T11:33:11.990Z</time>
      </trkpt>
      <trkpt lat="42.546874" lon="-5.725202">
        <ele>918</ele>
        <time>2018-07-23T11:33:13.990Z</time>
      </trkpt>
      <trkpt lat="42.546794" lon="-5.72531">
        <ele>918</ele>
        <time>2018-07-23T11:33:15.990Z</time>
      </trkpt>
      <trkpt lat="42.546713" lon="-5.725428">
        <ele>918</ele>
        <time>2018-07-23T11:33:17.990Z</time>
      </trkpt>
      <trkpt lat="42.546631" lon="-5.725546">
        <ele>918</ele>
        <time>2018-07-23T11:33:20.000Z</time>
      </trkpt>
      <trkpt lat="42.54654" lon="-5.725664">
        <ele>918</ele>
        <time>2018-07-23T11:33:21.990Z</time>
      </trkpt>
      <trkpt lat="42.546453" lon="-5.725782">
        <ele>918</ele>
        <time>2018-07-23T11:33:23.990Z</time>
      </trkpt>
      <trkpt lat="42.546367" lon="-5.725898">
        <ele>918</ele>
        <time>2018-07-23T11:33:25.990Z</time>
      </trkpt>
      <trkpt lat="42.546282" lon="-5.726026">
        <ele>918</ele>
        <time>2018-07-23T11:33:27.990Z</time>
      </trkpt>
      <trkpt lat="42.546189" lon="-5.72615">
        <ele>918</ele>
        <time>2018-07-23T11:33:30.000Z</time>
      </trkpt>
      <trkpt lat="42.546109" lon="-5.726268">
        <ele>918</ele>
        <time>2018-07-23T11:33:31.990Z</time>
      </trkpt>
      <trkpt lat="42.546031" lon="-5.72638">
        <ele>918</ele>
        <time>2018-07-23T11:33:33.990Z</time>
      </trkpt>
      <trkpt lat="42.545951" lon="-5.726487">
        <ele>918</ele>
        <time>2018-07-23T11:33:35.990Z</time>
      </trkpt>
      <trkpt lat="42.545871" lon="-5.726594">
        <ele>918</ele>
        <time>2018-07-23T11:33:37.990Z</time>
      </trkpt>
      <trkpt lat="42.54579" lon="-5.726709">
        <ele>917</ele>
        <time>2018-07-23T11:33:40.000Z</time>
      </trkpt>
      <trkpt lat="42.545705" lon="-5.726817">
        <ele>917</ele>
        <time>2018-07-23T11:33:41.990Z</time>
      </trkpt>
      <trkpt lat="42.545624" lon="-5.726925">
        <ele>917</ele>
        <time>2018-07-23T11:33:43.990Z</time>
      </trkpt>
      <trkpt lat="42.545548" lon="-5.727022">
        <ele>917</ele>
        <time>2018-07-23T11:33:45.990Z</time>
      </trkpt>
      <trkpt lat="42.54548" lon="-5.727123">
        <ele>917</ele>
        <time>2018-07-23T11:33:47.990Z</time>
      </trkpt>
      <trkpt lat="42.545408" lon="-5.727215">
        <ele>917</ele>
        <time>2018-07-23T11:33:50.000Z</time>
      </trkpt>
      <trkpt lat="42.545329" lon="-5.727316">
        <ele>917</ele>
        <time>2018-07-23T11:33:51.990Z</time>
      </trkpt>
      <trkpt lat="42.545254" lon="-5.727419">
        <ele>916.68</ele>
        <time>2018-07-23T11:33:53.990Z</time>
      </trkpt>
      <trkpt lat="42.545171" lon="-5.72753">
        <ele>916</ele>
        <time>2018-07-23T11:33:55.990Z</time>
      </trkpt>
      <trkpt lat="42.545089" lon="-5.727643">
        <ele>916</ele>
        <time>2018-07-23T11:33:57.990Z</time>
      </trkpt>
      <trkpt lat="42.545009" lon="-5.727761">
        <ele>916</ele>
        <time>2018-07-23T11:34:00.000Z</time>
      </trkpt>
      <trkpt lat="42.54493" lon="-5.727877">
        <ele>916</ele>
        <time>2018-07-23T11:34:01.990Z</time>
      </trkpt>
      <trkpt lat="42.544848" lon="-5.727986">
        <ele>916</ele>
        <time>2018-07-23T11:34:03.990Z</time>
      </trkpt>
      <trkpt lat="42.544771" lon="-5.728095">
        <ele>916</ele>
        <time>2018-07-23T11:34:05.990Z</time>
      </trkpt>
      <trkpt lat="42.544695" lon="-5.728214">
        <ele>916</ele>
        <time>2018-07-23T11:34:07.960Z</time>
      </trkpt>
      <trkpt lat="42.544618" lon="-5.728337">
        <ele>916</ele>
        <time>2018-07-23T11:34:10.000Z</time>
      </trkpt>
      <trkpt lat="42.544544" lon="-5.728445">
        <ele>915.759397917348</ele>
        <time>2018-07-23T11:34:11.990Z</time>
      </trkpt>
      <trkpt lat="42.54446" lon="-5.728563">
        <ele>915</ele>
        <time>2018-07-23T11:34:13.990Z</time>
      </trkpt>
      <trkpt lat="42.544378" lon="-5.728676">
        <ele>916</ele>
        <time>2018-07-23T11:34:15.990Z</time>
      </trkpt>
      <trkpt lat="42.544286" lon="-5.728787">
        <ele>916</ele>
        <time>2018-07-23T11:34:17.990Z</time>
      </trkpt>
      <trkpt lat="42.544197" lon="-5.7289">
        <ele>915</ele>
        <time>2018-07-23T11:34:20.000Z</time>
      </trkpt>
      <trkpt lat="42.544109" lon="-5.729019">
        <ele>915</ele>
        <time>2018-07-23T11:34:21.990Z</time>
      </trkpt>
      <trkpt lat="42.544018" lon="-5.729144">
        <ele>915</ele>
        <time>2018-07-23T11:34:23.990Z</time>
      </trkpt>
      <trkpt lat="42.543928" lon="-5.729273">
        <ele>915</ele>
        <time>2018-07-23T11:34:26.020Z</time>
      </trkpt>
      <trkpt lat="42.543846" lon="-5.729409">
        <ele>914</ele>
        <time>2018-07-23T11:34:27.990Z</time>
      </trkpt>
      <trkpt lat="42.543749" lon="-5.72953">
        <ele>915</ele>
        <time>2018-07-23T11:34:30.000Z</time>
      </trkpt>
      <trkpt lat="42.543654" lon="-5.72966">
        <ele>915</ele>
        <time>2018-07-23T11:34:31.990Z</time>
      </trkpt>
      <trkpt lat="42.543554" lon="-5.72979">
        <ele>915</ele>
        <time>2018-07-23T11:34:33.990Z</time>
      </trkpt>
      <trkpt lat="42.543453" lon="-5.729925">
        <ele>914.769226982267</ele>
        <time>2018-07-23T11:34:35.990Z</time>
      </trkpt>
      <trkpt lat="42.543363" lon="-5.730066">
        <ele>914</ele>
        <time>2018-07-23T11:34:37.990Z</time>
      </trkpt>
      <trkpt lat="42.54326" lon="-5.73021">
        <ele>914</ele>
        <time>2018-07-23T11:34:40.000Z</time>
      </trkpt>
      <trkpt lat="42.543155" lon="-5.730358">
        <ele>914</ele>
        <time>2018-07-23T11:34:41.990Z</time>
      </trkpt>
      <trkpt lat="42.543049" lon="-5.730492">
        <ele>914</ele>
        <time>2018-07-23T11:34:43.990Z</time>
      </trkpt>
      <trkpt lat="42.542962" lon="-5.730628">
        <ele>914</ele>
        <time>2018-07-23T11:34:45.990Z</time>
      </trkpt>
      <trkpt lat="42.542866" lon="-5.730748">
        <ele>914</ele>
        <time>2018-07-23T11:34:47.990Z</time>
      </trkpt>
      <trkpt lat="42.542771" lon="-5.730861">
        <ele>913</ele>
        <time>2018-07-23T11:34:50.000Z</time>
      </trkpt>
      <trkpt lat="42.542687" lon="-5.730974">
        <ele>913</ele>
        <time>2018-07-23T11:34:51.990Z</time>
      </trkpt>
      <trkpt lat="42.542608" lon="-5.731087">
        <ele>913</ele>
        <time>2018-07-23T11:34:53.990Z</time>
      </trkpt>
      <trkpt lat="42.542539" lon="-5.73119">
        <ele>914</ele>
        <time>2018-07-23T11:34:55.990Z</time>
      </trkpt>
      <trkpt lat="42.542472" lon="-5.731301">
        <ele>914</ele>
        <time>2018-07-23T11:34:57.990Z</time>
      </trkpt>
      <trkpt lat="42.542401" lon="-5.731395">
        <ele>914</ele>
        <time>2018-07-23T11:35:00.000Z</time>
      </trkpt>
      <trkpt lat="42.542329" lon="-5.731493">
        <ele>914</ele>
        <time>2018-07-23T11:35:01.990Z</time>
      </trkpt>
      <trkpt lat="42.542258" lon="-5.731586">
        <ele>914</ele>
        <time>2018-07-23T11:35:04.020Z</time>
      </trkpt>
      <trkpt lat="42.542167" lon="-5.731726">
        <ele>914</ele>
        <time>2018-07-23T11:35:06.990Z</time>
      </trkpt>
      <trkpt lat="42.542105" lon="-5.731818">
        <ele>914</ele>
        <time>2018-07-23T11:35:08.990Z</time>
      </trkpt>
      <trkpt lat="42.542044" lon="-5.731909">
        <ele>914</ele>
        <time>2018-07-23T11:35:10.990Z</time>
      </trkpt>
      <trkpt lat="42.541986" lon="-5.732006">
        <ele>914</ele>
        <time>2018-07-23T11:35:12.990Z</time>
      </trkpt>
      <trkpt lat="42.541899" lon="-5.732138">
        <ele>914</ele>
        <time>2018-07-23T11:35:15.990Z</time>
      </trkpt>
      <trkpt lat="42.541814" lon="-5.732265">
        <ele>913.68</ele>
        <time>2018-07-23T11:35:18.990Z</time>
      </trkpt>
      <trkpt lat="42.541739" lon="-5.732386">
        <ele>913</ele>
        <time>2018-07-23T11:35:21.990Z</time>
      </trkpt>
      <trkpt lat="42.541673" lon="-5.732496">
        <ele>913.285712419837</ele>
        <time>2018-07-23T11:35:24.970Z</time>
      </trkpt>
      <trkpt lat="42.541597" lon="-5.732607">
        <ele>914</ele>
        <time>2018-07-23T11:35:27.990Z</time>
      </trkpt>
      <trkpt lat="42.541515" lon="-5.73272">
        <ele>914</ele>
        <time>2018-07-23T11:35:30.990Z</time>
      </trkpt>
      <trkpt lat="42.541423" lon="-5.73285">
        <ele>913</ele>
        <time>2018-07-23T11:35:33.990Z</time>
      </trkpt>
      <trkpt lat="42.541349" lon="-5.732944">
        <ele>913</ele>
        <time>2018-07-23T11:35:35.990Z</time>
      </trkpt>
      <trkpt lat="42.541261" lon="-5.733044">
        <ele>912.68</ele>
        <time>2018-07-23T11:35:37.990Z</time>
      </trkpt>
      <trkpt lat="42.541166" lon="-5.733142">
        <ele>911</ele>
        <time>2018-07-23T11:35:39.990Z</time>
      </trkpt>
      <trkpt lat="42.541068" lon="-5.733253">
        <ele>910</ele>
        <time>2018-07-23T11:35:42.020Z</time>
      </trkpt>
      <trkpt lat="42.540971" lon="-5.733364">
        <ele>908.753844942006</ele>
        <time>2018-07-23T11:35:43.990Z</time>
      </trkpt>
      <trkpt lat="42.540868" lon="-5.733476">
        <ele>908</ele>
        <time>2018-07-23T11:35:45.990Z</time>
      </trkpt>
      <trkpt lat="42.540774" lon="-5.733605">
        <ele>907.68</ele>
        <time>2018-07-23T11:35:47.990Z</time>
      </trkpt>
      <trkpt lat="42.540685" lon="-5.73371">
        <ele>907</ele>
        <time>2018-07-23T11:35:50.000Z</time>
      </trkpt>
      <trkpt lat="42.540586" lon="-5.733808">
        <ele>907</ele>
        <time>2018-07-23T11:35:51.990Z</time>
      </trkpt>
      <trkpt lat="42.540493" lon="-5.733905">
        <ele>907</ele>
        <time>2018-07-23T11:35:53.990Z</time>
      </trkpt>
      <trkpt lat="42.540397" lon="-5.733991">
        <ele>907</ele>
        <time>2018-07-23T11:35:55.990Z</time>
      </trkpt>
      <trkpt lat="42.540285" lon="-5.73408">
        <ele>907</ele>
        <time>2018-07-23T11:35:57.990Z</time>
      </trkpt>
      <trkpt lat="42.540199" lon="-5.734187">
        <ele>906.029414717398</ele>
        <time>2018-07-23T11:36:00.000Z</time>
      </trkpt>
      <trkpt lat="42.540108" lon="-5.734324">
        <ele>907</ele>
        <time>2018-07-23T11:36:02.990Z</time>
      </trkpt>
      <trkpt lat="42.540038" lon="-5.73442">
        <ele>907</ele>
        <time>2018-07-23T11:36:05.000Z</time>
      </trkpt>
      <trkpt lat="42.53996" lon="-5.734531">
        <ele>908</ele>
        <time>2018-07-23T11:36:06.990Z</time>
      </trkpt>
      <trkpt lat="42.539894" lon="-5.734641">
        <ele>908</ele>
        <time>2018-07-23T11:36:08.990Z</time>
      </trkpt>
      <trkpt lat="42.539836" lon="-5.734738">
        <ele>908</ele>
        <time>2018-07-23T11:36:10.990Z</time>
      </trkpt>
      <trkpt lat="42.539752" lon="-5.734869">
        <ele>908</ele>
        <time>2018-07-23T11:36:13.990Z</time>
      </trkpt>
      <trkpt lat="42.539677" lon="-5.734977">
        <ele>908</ele>
        <time>2018-07-23T11:36:16.990Z</time>
      </trkpt>
      <trkpt lat="42.539612" lon="-5.735067">
        <ele>909</ele>
        <time>2018-07-23T11:36:30.000Z</time>
      </trkpt>
      <trkpt lat="42.53956" lon="-5.735166">
        <ele>908</ele>
        <time>2018-07-23T11:36:41.990Z</time>
      </trkpt>
      <trkpt lat="42.539509" lon="-5.735305">
        <ele>909</ele>
        <time>2018-07-23T11:36:45.000Z</time>
      </trkpt>
      <trkpt lat="42.539458" lon="-5.735449">
        <ele>909</ele>
        <time>2018-07-23T11:36:47.990Z</time>
      </trkpt>
      <trkpt lat="42.539395" lon="-5.735608">
        <ele>909</ele>
        <time>2018-07-23T11:36:50.990Z</time>
      </trkpt>
      <trkpt lat="42.539347" lon="-5.735726">
        <ele>908.757575757576</ele>
        <time>2018-07-23T11:36:52.990Z</time>
      </trkpt>
      <trkpt lat="42.539291" lon="-5.735835">
        <ele>908</ele>
        <time>2018-07-23T11:36:55.000Z</time>
      </trkpt>
      <trkpt lat="42.539229" lon="-5.735942">
        <ele>908</ele>
        <time>2018-07-23T11:36:56.990Z</time>
      </trkpt>
      <trkpt lat="42.539151" lon="-5.736078">
        <ele>908</ele>
        <time>2018-07-23T11:37:00.000Z</time>
      </trkpt>
      <trkpt lat="42.539094" lon="-5.736183">
        <ele>908</ele>
        <time>2018-07-23T11:37:01.990Z</time>
      </trkpt>
      <trkpt lat="42.539037" lon="-5.736286">
        <ele>908</ele>
        <time>2018-07-23T11:37:03.990Z</time>
      </trkpt>
      <trkpt lat="42.538986" lon="-5.736388">
        <ele>908</ele>
        <time>2018-07-23T11:37:05.990Z</time>
      </trkpt>
      <trkpt lat="42.538934" lon="-5.736488">
        <ele>908</ele>
        <time>2018-07-23T11:37:07.990Z</time>
      </trkpt>
      <trkpt lat="42.538855" lon="-5.736628">
        <ele>908.32</ele>
        <time>2018-07-23T11:37:10.990Z</time>
      </trkpt>
      <trkpt lat="42.538763" lon="-5.736764">
        <ele>909</ele>
        <time>2018-07-23T11:37:13.990Z</time>
      </trkpt>
      <trkpt lat="42.538676" lon="-5.736888">
        <ele>909</ele>
        <time>2018-07-23T11:37:17.020Z</time>
      </trkpt>
      <trkpt lat="42.538586" lon="-5.736994">
        <ele>909</ele>
        <time>2018-07-23T11:37:20.000Z</time>
      </trkpt>
      <trkpt lat="42.538492" lon="-5.737097">
        <ele>909</ele>
        <time>2018-07-23T11:37:22.990Z</time>
      </trkpt>
      <trkpt lat="42.538378" lon="-5.737195">
        <ele>909</ele>
        <time>2018-07-23T11:37:26.020Z</time>
      </trkpt>
      <trkpt lat="42.538277" lon="-5.73731">
        <ele>907.68</ele>
        <time>2018-07-23T11:37:28.990Z</time>
      </trkpt>
      <trkpt lat="42.538182" lon="-5.737434">
        <ele>907</ele>
        <time>2018-07-23T11:37:31.990Z</time>
      </trkpt>
      <trkpt lat="42.538115" lon="-5.737524">
        <ele>907</ele>
        <time>2018-07-23T11:37:33.990Z</time>
      </trkpt>
      <trkpt lat="42.538053" lon="-5.737615">
        <ele>907</ele>
        <time>2018-07-23T11:37:36.020Z</time>
      </trkpt>
      <trkpt lat="42.537965" lon="-5.737745">
        <ele>907</ele>
        <time>2018-07-23T11:37:38.990Z</time>
      </trkpt>
      <trkpt lat="42.537877" lon="-5.737878">
        <ele>907</ele>
        <time>2018-07-23T11:37:41.990Z</time>
      </trkpt>
      <trkpt lat="42.537811" lon="-5.737972">
        <ele>907</ele>
        <time>2018-07-23T11:37:43.990Z</time>
      </trkpt>
      <trkpt lat="42.537752" lon="-5.738067">
        <ele>907</ele>
        <time>2018-07-23T11:37:45.990Z</time>
      </trkpt>
      <trkpt lat="42.537666" lon="-5.738197">
        <ele>907</ele>
        <time>2018-07-23T11:37:48.990Z</time>
      </trkpt>
      <trkpt lat="42.537579" lon="-5.738326">
        <ele>907</ele>
        <time>2018-07-23T11:37:51.990Z</time>
      </trkpt>
      <trkpt lat="42.537515" lon="-5.738415">
        <ele>907</ele>
        <time>2018-07-23T11:37:53.990Z</time>
      </trkpt>
      <trkpt lat="42.537424" lon="-5.738543">
        <ele>907</ele>
        <time>2018-07-23T11:37:56.990Z</time>
      </trkpt>
      <trkpt lat="42.53734" lon="-5.73866">
        <ele>907</ele>
        <time>2018-07-23T11:38:00.000Z</time>
      </trkpt>
      <trkpt lat="42.537258" lon="-5.738782">
        <ele>907</ele>
        <time>2018-07-23T11:38:02.990Z</time>
      </trkpt>
      <trkpt lat="42.537165" lon="-5.738908">
        <ele>907</ele>
        <time>2018-07-23T11:38:05.990Z</time>
      </trkpt>
      <trkpt lat="42.537107" lon="-5.739001">
        <ele>907</ele>
        <time>2018-07-23T11:38:07.990Z</time>
      </trkpt>
      <trkpt lat="42.537044" lon="-5.73909">
        <ele>906</ele>
        <time>2018-07-23T11:38:10.000Z</time>
      </trkpt>
      <trkpt lat="42.536981" lon="-5.739181">
        <ele>906</ele>
        <time>2018-07-23T11:38:11.990Z</time>
      </trkpt>
      <trkpt lat="42.536899" lon="-5.739314">
        <ele>906</ele>
        <time>2018-07-23T11:38:14.970Z</time>
      </trkpt>
      <trkpt lat="42.536814" lon="-5.73944">
        <ele>906</ele>
        <time>2018-07-23T11:38:17.990Z</time>
      </trkpt>
      <trkpt lat="42.536736" lon="-5.739557">
        <ele>906.32</ele>
        <time>2018-07-23T11:38:20.990Z</time>
      </trkpt>
      <trkpt lat="42.536641" lon="-5.739682">
        <ele>907</ele>
        <time>2018-07-23T11:38:23.990Z</time>
      </trkpt>
      <trkpt lat="42.536576" lon="-5.739768">
        <ele>907</ele>
        <time>2018-07-23T11:38:25.990Z</time>
      </trkpt>
      <trkpt lat="42.536506" lon="-5.739854">
        <ele>906.68</ele>
        <time>2018-07-23T11:38:27.990Z</time>
      </trkpt>
      <trkpt lat="42.536425" lon="-5.739978">
        <ele>906</ele>
        <time>2018-07-23T11:38:30.990Z</time>
      </trkpt>
      <trkpt lat="42.536349" lon="-5.740084">
        <ele>906</ele>
        <time>2018-07-23T11:38:33.960Z</time>
      </trkpt>
      <trkpt lat="42.536269" lon="-5.740202">
        <ele>906</ele>
        <time>2018-07-23T11:38:36.990Z</time>
      </trkpt>
      <trkpt lat="42.536193" lon="-5.740306">
        <ele>906</ele>
        <time>2018-07-23T11:38:40.000Z</time>
      </trkpt>
      <trkpt lat="42.536113" lon="-5.740397">
        <ele>906</ele>
        <time>2018-07-23T11:38:42.990Z</time>
      </trkpt>
      <trkpt lat="42.536032" lon="-5.740505">
        <ele>906</ele>
        <time>2018-07-23T11:38:45.990Z</time>
      </trkpt>
      <trkpt lat="42.535967" lon="-5.740588">
        <ele>906</ele>
        <time>2018-07-23T11:38:47.990Z</time>
      </trkpt>
      <trkpt lat="42.535886" lon="-5.740708">
        <ele>906</ele>
        <time>2018-07-23T11:38:50.990Z</time>
      </trkpt>
      <trkpt lat="42.53581" lon="-5.740821">
        <ele>906</ele>
        <time>2018-07-23T11:38:53.990Z</time>
      </trkpt>
      <trkpt lat="42.535736" lon="-5.740936">
        <ele>906</ele>
        <time>2018-07-23T11:38:56.990Z</time>
      </trkpt>
      <trkpt lat="42.535671" lon="-5.741052">
        <ele>906</ele>
        <time>2018-07-23T11:39:00.000Z</time>
      </trkpt>
      <trkpt lat="42.535602" lon="-5.741168">
        <ele>906</ele>
        <time>2018-07-23T11:39:02.990Z</time>
      </trkpt>
      <trkpt lat="42.535533" lon="-5.741276">
        <ele>906</ele>
        <time>2018-07-23T11:39:05.990Z</time>
      </trkpt>
      <trkpt lat="42.535455" lon="-5.741407">
        <ele>906</ele>
        <time>2018-07-23T11:39:08.990Z</time>
      </trkpt>
      <trkpt lat="42.535389" lon="-5.741512">
        <ele>906</ele>
        <time>2018-07-23T11:39:11.960Z</time>
      </trkpt>
      <trkpt lat="42.535331" lon="-5.741623">
        <ele>907</ele>
        <time>2018-07-23T11:39:15.000Z</time>
      </trkpt>
      <trkpt lat="42.535263" lon="-5.741732">
        <ele>907</ele>
        <time>2018-07-23T11:39:17.990Z</time>
      </trkpt>
      <trkpt lat="42.535192" lon="-5.741844">
        <ele>906</ele>
        <time>2018-07-23T11:39:20.990Z</time>
      </trkpt>
      <trkpt lat="42.535106" lon="-5.741969">
        <ele>906</ele>
        <time>2018-07-23T11:39:23.990Z</time>
      </trkpt>
      <trkpt lat="42.535035" lon="-5.742071">
        <ele>906</ele>
        <time>2018-07-23T11:39:26.990Z</time>
      </trkpt>
      <trkpt lat="42.53495" lon="-5.742193">
        <ele>906</ele>
        <time>2018-07-23T11:39:30.030Z</time>
      </trkpt>
      <trkpt lat="42.534878" lon="-5.742305">
        <ele>906</ele>
        <time>2018-07-23T11:39:32.990Z</time>
      </trkpt>
      <trkpt lat="42.534797" lon="-5.742411">
        <ele>906</ele>
        <time>2018-07-23T11:39:35.990Z</time>
      </trkpt>
      <trkpt lat="42.534719" lon="-5.742515">
        <ele>906</ele>
        <time>2018-07-23T11:39:38.990Z</time>
      </trkpt>
      <trkpt lat="42.534652" lon="-5.742602">
        <ele>906</ele>
        <time>2018-07-23T11:39:41.990Z</time>
      </trkpt>
      <trkpt lat="42.534574" lon="-5.742727">
        <ele>906</ele>
        <time>2018-07-23T11:39:45.000Z</time>
      </trkpt>
      <trkpt lat="42.534493" lon="-5.74285">
        <ele>906</ele>
        <time>2018-07-23T11:39:47.990Z</time>
      </trkpt>
      <trkpt lat="42.534404" lon="-5.74295">
        <ele>906</ele>
        <time>2018-07-23T11:39:50.990Z</time>
      </trkpt>
      <trkpt lat="42.534322" lon="-5.743061">
        <ele>906</ele>
        <time>2018-07-23T11:39:53.990Z</time>
      </trkpt>
      <trkpt lat="42.534239" lon="-5.743164">
        <ele>906</ele>
        <time>2018-07-23T11:39:56.990Z</time>
      </trkpt>
      <trkpt lat="42.534162" lon="-5.743274">
        <ele>906</ele>
        <time>2018-07-23T11:40:00.000Z</time>
      </trkpt>
      <trkpt lat="42.534068" lon="-5.743381">
        <ele>906</ele>
        <time>2018-07-23T11:40:02.990Z</time>
      </trkpt>
      <trkpt lat="42.533985" lon="-5.743503">
        <ele>906</ele>
        <time>2018-07-23T11:40:05.990Z</time>
      </trkpt>
      <trkpt lat="42.533908" lon="-5.74361">
        <ele>906</ele>
        <time>2018-07-23T11:40:08.960Z</time>
      </trkpt>
      <trkpt lat="42.533827" lon="-5.743713">
        <ele>906</ele>
        <time>2018-07-23T11:40:11.990Z</time>
      </trkpt>
      <trkpt lat="42.53374" lon="-5.743827">
        <ele>906</ele>
        <time>2018-07-23T11:40:15.000Z</time>
      </trkpt>
      <trkpt lat="42.533656" lon="-5.743952">
        <ele>906</ele>
        <time>2018-07-23T11:40:18.000Z</time>
      </trkpt>
      <trkpt lat="42.533561" lon="-5.744021">
        <ele>906</ele>
        <time>2018-07-23T11:40:21.000Z</time>
      </trkpt>
      <trkpt lat="42.53347" lon="-5.744135">
        <ele>905.753844942006</ele>
        <time>2018-07-23T11:40:23.990Z</time>
      </trkpt>
      <trkpt lat="42.533374" lon="-5.744253">
        <ele>905</ele>
        <time>2018-07-23T11:40:27.030Z</time>
      </trkpt>
      <trkpt lat="42.533298" lon="-5.744381">
        <ele>905</ele>
        <time>2018-07-23T11:40:29.990Z</time>
      </trkpt>
      <trkpt lat="42.533204" lon="-5.744484">
        <ele>905</ele>
        <time>2018-07-23T11:40:32.990Z</time>
      </trkpt>
      <trkpt lat="42.533125" lon="-5.744599">
        <ele>905</ele>
        <time>2018-07-23T11:40:35.990Z</time>
      </trkpt>
      <trkpt lat="42.533038" lon="-5.744714">
        <ele>905</ele>
        <time>2018-07-23T11:40:38.990Z</time>
      </trkpt>
      <trkpt lat="42.532977" lon="-5.744812">
        <ele>905</ele>
        <time>2018-07-23T11:40:42.000Z</time>
      </trkpt>
      <trkpt lat="42.532896" lon="-5.744924">
        <ele>905</ele>
        <time>2018-07-23T11:40:44.990Z</time>
      </trkpt>
      <trkpt lat="42.532804" lon="-5.745046">
        <ele>905</ele>
        <time>2018-07-23T11:40:47.990Z</time>
      </trkpt>
      <trkpt lat="42.532708" lon="-5.745167">
        <ele>904</ele>
        <time>2018-07-23T11:40:50.990Z</time>
      </trkpt>
      <trkpt lat="42.532625" lon="-5.745258">
        <ele>905</ele>
        <time>2018-07-23T11:40:53.990Z</time>
      </trkpt>
      <trkpt lat="42.532527" lon="-5.745359">
        <ele>905</ele>
        <time>2018-07-23T11:40:57.000Z</time>
      </trkpt>
      <trkpt lat="42.532444" lon="-5.745475">
        <ele>905</ele>
        <time>2018-07-23T11:40:59.990Z</time>
      </trkpt>
      <trkpt lat="42.532357" lon="-5.745578">
        <ele>905</ele>
        <time>2018-07-23T11:41:02.990Z</time>
      </trkpt>
      <trkpt lat="42.532297" lon="-5.745669">
        <ele>905</ele>
        <time>2018-07-23T11:41:05.010Z</time>
      </trkpt>
      <trkpt lat="42.532213" lon="-5.74579">
        <ele>905</ele>
        <time>2018-07-23T11:41:07.990Z</time>
      </trkpt>
      <trkpt lat="42.532114" lon="-5.745907">
        <ele>904</ele>
        <time>2018-07-23T11:41:10.990Z</time>
      </trkpt>
      <trkpt lat="42.532007" lon="-5.746027">
        <ele>904</ele>
        <time>2018-07-23T11:41:13.990Z</time>
      </trkpt>
      <trkpt lat="42.531917" lon="-5.746138">
        <ele>904.3299968</ele>
        <time>2018-07-23T11:41:17.000Z</time>
      </trkpt>
      <trkpt lat="42.531822" lon="-5.746254">
        <ele>905</ele>
        <time>2018-07-23T11:41:19.990Z</time>
      </trkpt>
      <trkpt lat="42.531728" lon="-5.74637">
        <ele>905</ele>
        <time>2018-07-23T11:41:22.990Z</time>
      </trkpt>
      <trkpt lat="42.531644" lon="-5.746485">
        <ele>904</ele>
        <time>2018-07-23T11:41:25.960Z</time>
      </trkpt>
      <trkpt lat="42.531547" lon="-5.746607">
        <ele>904</ele>
        <time>2018-07-23T11:41:28.990Z</time>
      </trkpt>
      <trkpt lat="42.531457" lon="-5.746727">
        <ele>903.6700032</ele>
        <time>2018-07-23T11:41:32.000Z</time>
      </trkpt>
      <trkpt lat="42.531359" lon="-5.746846">
        <ele>904</ele>
        <time>2018-07-23T11:41:34.990Z</time>
      </trkpt>
      <trkpt lat="42.531294" lon="-5.746934">
        <ele>904</ele>
        <time>2018-07-23T11:41:37.000Z</time>
      </trkpt>
      <trkpt lat="42.531226" lon="-5.747023">
        <ele>904</ele>
        <time>2018-07-23T11:41:38.990Z</time>
      </trkpt>
      <trkpt lat="42.531156" lon="-5.747115">
        <ele>904</ele>
        <time>2018-07-23T11:41:40.990Z</time>
      </trkpt>
      <trkpt lat="42.531096" lon="-5.747211">
        <ele>904</ele>
        <time>2018-07-23T11:41:43.020Z</time>
      </trkpt>
      <trkpt lat="42.531012" lon="-5.747348">
        <ele>904</ele>
        <time>2018-07-23T11:41:45.990Z</time>
      </trkpt>
      <trkpt lat="42.530928" lon="-5.747468">
        <ele>903</ele>
        <time>2018-07-23T11:41:48.990Z</time>
      </trkpt>
      <trkpt lat="42.53084" lon="-5.747603">
        <ele>903</ele>
        <time>2018-07-23T11:41:52.000Z</time>
      </trkpt>
      <trkpt lat="42.53078" lon="-5.747722">
        <ele>903</ele>
        <time>2018-07-23T11:41:54.990Z</time>
      </trkpt>
      <trkpt lat="42.530704" lon="-5.74782">
        <ele>903</ele>
        <time>2018-07-23T11:41:57.990Z</time>
      </trkpt>
      <trkpt lat="42.530615" lon="-5.747943">
        <ele>902.985493535162</ele>
        <time>2018-07-23T11:42:00.990Z</time>
      </trkpt>
      <trkpt lat="42.530535" lon="-5.748075">
        <ele>902</ele>
        <time>2018-07-23T11:42:03.990Z</time>
      </trkpt>
      <trkpt lat="42.530453" lon="-5.748208">
        <ele>902</ele>
        <time>2018-07-23T11:42:07.000Z</time>
      </trkpt>
      <trkpt lat="42.530393" lon="-5.7483">
        <ele>902</ele>
        <time>2018-07-23T11:42:09.000Z</time>
      </trkpt>
      <trkpt lat="42.530309" lon="-5.748405">
        <ele>902</ele>
        <time>2018-07-23T11:42:12.000Z</time>
      </trkpt>
      <trkpt lat="42.530235" lon="-5.748512">
        <ele>902.3299968</ele>
        <time>2018-07-23T11:42:15.000Z</time>
      </trkpt>
      <trkpt lat="42.530149" lon="-5.74863">
        <ele>903</ele>
        <time>2018-07-23T11:42:18.000Z</time>
      </trkpt>
      <trkpt lat="42.530071" lon="-5.748755">
        <ele>903</ele>
        <time>2018-07-23T11:42:21.000Z</time>
      </trkpt>
      <trkpt lat="42.529981" lon="-5.748884">
        <ele>903</ele>
        <time>2018-07-23T11:42:24.000Z</time>
      </trkpt>
      <trkpt lat="42.529895" lon="-5.749013">
        <ele>903</ele>
        <time>2018-07-23T11:42:27.000Z</time>
      </trkpt>
      <trkpt lat="42.52983" lon="-5.749108">
        <ele>903</ele>
        <time>2018-07-23T11:42:28.990Z</time>
      </trkpt>
      <trkpt lat="42.529774" lon="-5.749204">
        <ele>903</ele>
        <time>2018-07-23T11:42:30.990Z</time>
      </trkpt>
      <trkpt lat="42.529692" lon="-5.749338">
        <ele>904</ele>
        <time>2018-07-23T11:42:33.990Z</time>
      </trkpt>
      <trkpt lat="42.529625" lon="-5.749427">
        <ele>904</ele>
        <time>2018-07-23T11:42:35.990Z</time>
      </trkpt>
      <trkpt lat="42.529563" lon="-5.749523">
        <ele>904</ele>
        <time>2018-07-23T11:42:37.990Z</time>
      </trkpt>
      <trkpt lat="42.529476" lon="-5.749652">
        <ele>903.7100032</ele>
        <time>2018-07-23T11:42:40.960Z</time>
      </trkpt>
      <trkpt lat="42.529398" lon="-5.749784">
        <ele>903</ele>
        <time>2018-07-23T11:42:43.990Z</time>
      </trkpt>
      <trkpt lat="42.529313" lon="-5.749904">
        <ele>904</ele>
        <time>2018-07-23T11:42:47.000Z</time>
      </trkpt>
      <trkpt lat="42.529231" lon="-5.750018">
        <ele>904</ele>
        <time>2018-07-23T11:42:49.960Z</time>
      </trkpt>
      <trkpt lat="42.529148" lon="-5.750153">
        <ele>903</ele>
        <time>2018-07-23T11:42:52.990Z</time>
      </trkpt>
      <trkpt lat="42.529051" lon="-5.750272">
        <ele>903</ele>
        <time>2018-07-23T11:42:55.990Z</time>
      </trkpt>
      <trkpt lat="42.52896" lon="-5.750368">
        <ele>904</ele>
        <time>2018-07-23T11:42:59.020Z</time>
      </trkpt>
      <trkpt lat="42.528887" lon="-5.750485">
        <ele>904</ele>
        <time>2018-07-23T11:43:02.000Z</time>
      </trkpt>
      <trkpt lat="42.528808" lon="-5.750561">
        <ele>904</ele>
        <time>2018-07-23T11:43:03.990Z</time>
      </trkpt>
      <trkpt lat="42.528738" lon="-5.750648">
        <ele>904</ele>
        <time>2018-07-23T11:43:05.990Z</time>
      </trkpt>
      <trkpt lat="42.528668" lon="-5.750738">
        <ele>904</ele>
        <time>2018-07-23T11:43:07.990Z</time>
      </trkpt>
      <trkpt lat="42.528567" lon="-5.750851">
        <ele>904</ele>
        <time>2018-07-23T11:43:10.990Z</time>
      </trkpt>
      <trkpt lat="42.528475" lon="-5.750942">
        <ele>904</ele>
        <time>2018-07-23T11:43:13.990Z</time>
      </trkpt>
      <trkpt lat="42.528414" lon="-5.751047">
        <ele>904</ele>
        <time>2018-07-23T11:43:17.000Z</time>
      </trkpt>
      <trkpt lat="42.528338" lon="-5.751136">
        <ele>904</ele>
        <time>2018-07-23T11:43:19.990Z</time>
      </trkpt>
      <trkpt lat="42.528241" lon="-5.751244">
        <ele>904</ele>
        <time>2018-07-23T11:43:23.990Z</time>
      </trkpt>
      <trkpt lat="42.528178" lon="-5.75136">
        <ele>904</ele>
        <time>2018-07-23T11:43:27.000Z</time>
      </trkpt>
      <trkpt lat="42.528115" lon="-5.7515">
        <ele>904</ele>
        <time>2018-07-23T11:43:30.990Z</time>
      </trkpt>
      <trkpt lat="42.528051" lon="-5.751628">
        <ele>904</ele>
        <time>2018-07-23T11:43:33.990Z</time>
      </trkpt>
      <trkpt lat="42.527968" lon="-5.751761">
        <ele>904</ele>
        <time>2018-07-23T11:43:37.030Z</time>
      </trkpt>
      <trkpt lat="42.527895" lon="-5.751861">
        <ele>903</ele>
        <time>2018-07-23T11:43:38.990Z</time>
      </trkpt>
      <trkpt lat="42.527821" lon="-5.751963">
        <ele>903</ele>
        <time>2018-07-23T11:43:40.990Z</time>
      </trkpt>
      <trkpt lat="42.527757" lon="-5.752065">
        <ele>903</ele>
        <time>2018-07-23T11:43:42.990Z</time>
      </trkpt>
      <trkpt lat="42.527693" lon="-5.75218">
        <ele>903</ele>
        <time>2018-07-23T11:43:44.990Z</time>
      </trkpt>
      <trkpt lat="42.527621" lon="-5.752282">
        <ele>903</ele>
        <time>2018-07-23T11:43:47.000Z</time>
      </trkpt>
      <trkpt lat="42.527537" lon="-5.752383">
        <ele>903</ele>
        <time>2018-07-23T11:43:48.990Z</time>
      </trkpt>
      <trkpt lat="42.527461" lon="-5.752484">
        <ele>903</ele>
        <time>2018-07-23T11:43:50.990Z</time>
      </trkpt>
      <trkpt lat="42.527401" lon="-5.752581">
        <ele>903</ele>
        <time>2018-07-23T11:43:52.990Z</time>
      </trkpt>
      <trkpt lat="42.527333" lon="-5.752684">
        <ele>903</ele>
        <time>2018-07-23T11:43:54.990Z</time>
      </trkpt>
      <trkpt lat="42.527239" lon="-5.752823">
        <ele>903</ele>
        <time>2018-07-23T11:43:57.990Z</time>
      </trkpt>
      <trkpt lat="42.527165" lon="-5.752918">
        <ele>903</ele>
        <time>2018-07-23T11:43:59.990Z</time>
      </trkpt>
      <trkpt lat="42.527097" lon="-5.753014">
        <ele>903</ele>
        <time>2018-07-23T11:44:02.000Z</time>
      </trkpt>
      <trkpt lat="42.527026" lon="-5.753102">
        <ele>903</ele>
        <time>2018-07-23T11:44:03.990Z</time>
      </trkpt>
      <trkpt lat="42.526952" lon="-5.753182">
        <ele>902</ele>
        <time>2018-07-23T11:44:05.990Z</time>
      </trkpt>
      <trkpt lat="42.526884" lon="-5.753273">
        <ele>902</ele>
        <time>2018-07-23T11:44:07.990Z</time>
      </trkpt>
      <trkpt lat="42.52681" lon="-5.753358">
        <ele>902</ele>
        <time>2018-07-23T11:44:09.990Z</time>
      </trkpt>
      <trkpt lat="42.5267" lon="-5.753463">
        <ele>902</ele>
        <time>2018-07-23T11:44:12.990Z</time>
      </trkpt>
      <trkpt lat="42.526612" lon="-5.753564">
        <ele>902</ele>
        <time>2018-07-23T11:44:15.960Z</time>
      </trkpt>
      <trkpt lat="42.526542" lon="-5.753684">
        <ele>902</ele>
        <time>2018-07-23T11:44:18.990Z</time>
      </trkpt>
      <trkpt lat="42.526471" lon="-5.753817">
        <ele>902</ele>
        <time>2018-07-23T11:44:22.000Z</time>
      </trkpt>
      <trkpt lat="42.526398" lon="-5.753927">
        <ele>902</ele>
        <time>2018-07-23T11:44:24.990Z</time>
      </trkpt>
      <trkpt lat="42.526335" lon="-5.754052">
        <ele>902</ele>
        <time>2018-07-23T11:44:27.990Z</time>
      </trkpt>
      <trkpt lat="42.526251" lon="-5.754173">
        <ele>902</ele>
        <time>2018-07-23T11:44:30.990Z</time>
      </trkpt>
      <trkpt lat="42.526169" lon="-5.754295">
        <ele>902</ele>
        <time>2018-07-23T11:44:34.020Z</time>
      </trkpt>
      <trkpt lat="42.526096" lon="-5.75441">
        <ele>902</ele>
        <time>2018-07-23T11:44:37.000Z</time>
      </trkpt>
      <trkpt lat="42.526004" lon="-5.754529">
        <ele>901</ele>
        <time>2018-07-23T11:44:39.990Z</time>
      </trkpt>
      <trkpt lat="42.525926" lon="-5.754649">
        <ele>901.32</ele>
        <time>2018-07-23T11:44:42.990Z</time>
      </trkpt>
      <trkpt lat="42.525836" lon="-5.754767">
        <ele>902</ele>
        <time>2018-07-23T11:44:45.990Z</time>
      </trkpt>
      <trkpt lat="42.525749" lon="-5.754894">
        <ele>902</ele>
        <time>2018-07-23T11:44:48.990Z</time>
      </trkpt>
      <trkpt lat="42.525668" lon="-5.755007">
        <ele>902</ele>
        <time>2018-07-23T11:44:52.000Z</time>
      </trkpt>
      <trkpt lat="42.525576" lon="-5.755127">
        <ele>902</ele>
        <time>2018-07-23T11:44:54.990Z</time>
      </trkpt>
      <trkpt lat="42.525486" lon="-5.755257">
        <ele>902</ele>
        <time>2018-07-23T11:44:57.990Z</time>
      </trkpt>
      <trkpt lat="42.525424" lon="-5.755349">
        <ele>902</ele>
        <time>2018-07-23T11:44:59.990Z</time>
      </trkpt>
      <trkpt lat="42.52533" lon="-5.755484">
        <ele>902</ele>
        <time>2018-07-23T11:45:02.990Z</time>
      </trkpt>
      <trkpt lat="42.525263" lon="-5.755584">
        <ele>902</ele>
        <time>2018-07-23T11:45:04.990Z</time>
      </trkpt>
      <trkpt lat="42.525172" lon="-5.75572">
        <ele>902</ele>
        <time>2018-07-23T11:45:07.990Z</time>
      </trkpt>
      <trkpt lat="42.525106" lon="-5.755809">
        <ele>902</ele>
        <time>2018-07-23T11:45:09.990Z</time>
      </trkpt>
      <trkpt lat="42.525036" lon="-5.755898">
        <ele>902</ele>
        <time>2018-07-23T11:45:12.000Z</time>
      </trkpt>
      <trkpt lat="42.52496" lon="-5.755992">
        <ele>902</ele>
        <time>2018-07-23T11:45:13.990Z</time>
      </trkpt>
      <trkpt lat="42.524882" lon="-5.756079">
        <ele>902</ele>
        <time>2018-07-23T11:45:15.990Z</time>
      </trkpt>
      <trkpt lat="42.524812" lon="-5.756162">
        <ele>902</ele>
        <time>2018-07-23T11:45:17.990Z</time>
      </trkpt>
      <trkpt lat="42.52474" lon="-5.756244">
        <ele>902</ele>
        <time>2018-07-23T11:45:19.990Z</time>
      </trkpt>
      <trkpt lat="42.524675" lon="-5.756333">
        <ele>902</ele>
        <time>2018-07-23T11:45:22.000Z</time>
      </trkpt>
      <trkpt lat="42.524608" lon="-5.756434">
        <ele>902</ele>
        <time>2018-07-23T11:45:23.990Z</time>
      </trkpt>
      <trkpt lat="42.524534" lon="-5.756537">
        <ele>902</ele>
        <time>2018-07-23T11:45:25.990Z</time>
      </trkpt>
      <trkpt lat="42.524473" lon="-5.756639">
        <ele>902.240602082652</ele>
        <time>2018-07-23T11:45:27.990Z</time>
      </trkpt>
      <trkpt lat="42.524411" lon="-5.756746">
        <ele>903</ele>
        <time>2018-07-23T11:45:29.990Z</time>
      </trkpt>
      <trkpt lat="42.524356" lon="-5.756856">
        <ele>903</ele>
        <time>2018-07-23T11:45:31.970Z</time>
      </trkpt>
      <trkpt lat="42.52429" lon="-5.756971">
        <ele>903</ele>
        <time>2018-07-23T11:45:33.990Z</time>
      </trkpt>
      <trkpt lat="42.524227" lon="-5.757076">
        <ele>903</ele>
        <time>2018-07-23T11:45:35.990Z</time>
      </trkpt>
      <trkpt lat="42.524155" lon="-5.75717">
        <ele>903</ele>
        <time>2018-07-23T11:45:37.990Z</time>
      </trkpt>
      <trkpt lat="42.524082" lon="-5.757273">
        <ele>902</ele>
        <time>2018-07-23T11:45:39.990Z</time>
      </trkpt>
      <trkpt lat="42.524017" lon="-5.757375">
        <ele>902</ele>
        <time>2018-07-23T11:45:42.000Z</time>
      </trkpt>
      <trkpt lat="42.523953" lon="-5.757473">
        <ele>902</ele>
        <time>2018-07-23T11:45:43.990Z</time>
      </trkpt>
      <trkpt lat="42.523885" lon="-5.757576">
        <ele>902</ele>
        <time>2018-07-23T11:45:45.990Z</time>
      </trkpt>
      <trkpt lat="42.523822" lon="-5.757687">
        <ele>902</ele>
        <time>2018-07-23T11:45:47.990Z</time>
      </trkpt>
      <trkpt lat="42.523754" lon="-5.757797">
        <ele>902</ele>
        <time>2018-07-23T11:45:50.020Z</time>
      </trkpt>
      <trkpt lat="42.523673" lon="-5.757931">
        <ele>902</ele>
        <time>2018-07-23T11:45:52.990Z</time>
      </trkpt>
      <trkpt lat="42.523601" lon="-5.758048">
        <ele>902.32</ele>
        <time>2018-07-23T11:45:55.990Z</time>
      </trkpt>
      <trkpt lat="42.523517" lon="-5.758145">
        <ele>903</ele>
        <time>2018-07-23T11:45:59.990Z</time>
      </trkpt>
      <trkpt lat="42.523448" lon="-5.758244">
        <ele>903</ele>
        <time>2018-07-23T11:46:02.990Z</time>
      </trkpt>
      <trkpt lat="42.523359" lon="-5.758362">
        <ele>902</ele>
        <time>2018-07-23T11:46:05.990Z</time>
      </trkpt>
      <trkpt lat="42.523287" lon="-5.758446">
        <ele>902</ele>
        <time>2018-07-23T11:46:07.990Z</time>
      </trkpt>
      <trkpt lat="42.523205" lon="-5.758575">
        <ele>902</ele>
        <time>2018-07-23T11:46:10.990Z</time>
      </trkpt>
      <trkpt lat="42.523122" lon="-5.758683">
        <ele>902</ele>
        <time>2018-07-23T11:46:13.990Z</time>
      </trkpt>
      <trkpt lat="42.523047" lon="-5.758789">
        <ele>902</ele>
        <time>2018-07-23T11:46:16.990Z</time>
      </trkpt>
      <trkpt lat="42.522973" lon="-5.758879">
        <ele>902</ele>
        <time>2018-07-23T11:46:19.990Z</time>
      </trkpt>
      <trkpt lat="42.522908" lon="-5.758966">
        <ele>902.32</ele>
        <time>2018-07-23T11:46:22.990Z</time>
      </trkpt>
      <trkpt lat="42.522836" lon="-5.759073">
        <ele>903</ele>
        <time>2018-07-23T11:46:25.990Z</time>
      </trkpt>
      <trkpt lat="42.522754" lon="-5.759182">
        <ele>902</ele>
        <time>2018-07-23T11:46:28.960Z</time>
      </trkpt>
      <trkpt lat="42.522689" lon="-5.759267">
        <ele>902</ele>
        <time>2018-07-23T11:46:30.990Z</time>
      </trkpt>
      <trkpt lat="42.522603" lon="-5.759403">
        <ele>902</ele>
        <time>2018-07-23T11:46:33.990Z</time>
      </trkpt>
      <trkpt lat="42.522518" lon="-5.759541">
        <ele>902</ele>
        <time>2018-07-23T11:46:37.000Z</time>
      </trkpt>
      <trkpt lat="42.522452" lon="-5.759639">
        <ele>902</ele>
        <time>2018-07-23T11:46:38.990Z</time>
      </trkpt>
      <trkpt lat="42.522387" lon="-5.759732">
        <ele>902</ele>
        <time>2018-07-23T11:46:40.990Z</time>
      </trkpt>
      <trkpt lat="42.522306" lon="-5.759855">
        <ele>901.32</ele>
        <time>2018-07-23T11:46:43.990Z</time>
      </trkpt>
      <trkpt lat="42.522212" lon="-5.759984">
        <ele>902</ele>
        <time>2018-07-23T11:46:47.030Z</time>
      </trkpt>
      <trkpt lat="42.522132" lon="-5.7601">
        <ele>902</ele>
        <time>2018-07-23T11:46:49.990Z</time>
      </trkpt>
      <trkpt lat="42.522049" lon="-5.760204">
        <ele>902</ele>
        <time>2018-07-23T11:46:52.990Z</time>
      </trkpt>
      <trkpt lat="42.521982" lon="-5.760304">
        <ele>902</ele>
        <time>2018-07-23T11:46:54.990Z</time>
      </trkpt>
      <trkpt lat="42.521894" lon="-5.760432">
        <ele>902</ele>
        <time>2018-07-23T11:46:57.990Z</time>
      </trkpt>
      <trkpt lat="42.521828" lon="-5.760531">
        <ele>902</ele>
        <time>2018-07-23T11:46:59.990Z</time>
      </trkpt>
      <trkpt lat="42.521765" lon="-5.760623">
        <ele>902</ele>
        <time>2018-07-23T11:47:02.000Z</time>
      </trkpt>
      <trkpt lat="42.521699" lon="-5.760718">
        <ele>902</ele>
        <time>2018-07-23T11:47:03.990Z</time>
      </trkpt>
      <trkpt lat="42.521607" lon="-5.760839">
        <ele>902</ele>
        <time>2018-07-23T11:47:06.970Z</time>
      </trkpt>
      <trkpt lat="42.521547" lon="-5.760936">
        <ele>902</ele>
        <time>2018-07-23T11:47:08.990Z</time>
      </trkpt>
      <trkpt lat="42.521477" lon="-5.761029">
        <ele>902</ele>
        <time>2018-07-23T11:47:10.990Z</time>
      </trkpt>
      <trkpt lat="42.521411" lon="-5.761116">
        <ele>902</ele>
        <time>2018-07-23T11:47:12.990Z</time>
      </trkpt>
      <trkpt lat="42.521347" lon="-5.76121">
        <ele>902</ele>
        <time>2018-07-23T11:47:14.990Z</time>
      </trkpt>
      <trkpt lat="42.521262" lon="-5.76134">
        <ele>901</ele>
        <time>2018-07-23T11:47:17.990Z</time>
      </trkpt>
      <trkpt lat="42.521174" lon="-5.761471">
        <ele>901</ele>
        <time>2018-07-23T11:47:20.990Z</time>
      </trkpt>
      <trkpt lat="42.521084" lon="-5.7616">
        <ele>901</ele>
        <time>2018-07-23T11:47:23.990Z</time>
      </trkpt>
      <trkpt lat="42.521002" lon="-5.761762">
        <ele>901</ele>
        <time>2018-07-23T11:47:27.000Z</time>
      </trkpt>
      <trkpt lat="42.520935" lon="-5.761896">
        <ele>901</ele>
        <time>2018-07-23T11:47:28.990Z</time>
      </trkpt>
      <trkpt lat="42.520868" lon="-5.762049">
        <ele>900</ele>
        <time>2018-07-23T11:47:30.990Z</time>
      </trkpt>
      <trkpt lat="42.520807" lon="-5.762204">
        <ele>898.759397917348</ele>
        <time>2018-07-23T11:47:32.990Z</time>
      </trkpt>
      <trkpt lat="42.520737" lon="-5.762372">
        <ele>898</ele>
        <time>2018-07-23T11:47:34.990Z</time>
      </trkpt>
      <trkpt lat="42.520677" lon="-5.762535">
        <ele>898</ele>
        <time>2018-07-23T11:47:37.000Z</time>
      </trkpt>
      <trkpt lat="42.52062" lon="-5.762684">
        <ele>897</ele>
        <time>2018-07-23T11:47:38.990Z</time>
      </trkpt>
      <trkpt lat="42.520556" lon="-5.762839">
        <ele>896.770988040335</ele>
        <time>2018-07-23T11:47:40.990Z</time>
      </trkpt>
      <trkpt lat="42.520504" lon="-5.762999">
        <ele>896</ele>
        <time>2018-07-23T11:47:42.990Z</time>
      </trkpt>
      <trkpt lat="42.520452" lon="-5.763158">
        <ele>895.68</ele>
        <time>2018-07-23T11:47:44.990Z</time>
      </trkpt>
      <trkpt lat="42.520402" lon="-5.763328">
        <ele>895</ele>
        <time>2018-07-23T11:47:47.000Z</time>
      </trkpt>
      <trkpt lat="42.520349" lon="-5.763495">
        <ele>894</ele>
        <time>2018-07-23T11:47:48.990Z</time>
      </trkpt>
      <trkpt lat="42.520282" lon="-5.763647">
        <ele>894</ele>
        <time>2018-07-23T11:47:50.990Z</time>
      </trkpt>
      <trkpt lat="42.520211" lon="-5.763791">
        <ele>894</ele>
        <time>2018-07-23T11:47:52.990Z</time>
      </trkpt>
      <trkpt lat="42.520144" lon="-5.763926">
        <ele>894</ele>
        <time>2018-07-23T11:47:54.990Z</time>
      </trkpt>
      <trkpt lat="42.520076" lon="-5.764055">
        <ele>894</ele>
        <time>2018-07-23T11:47:57.000Z</time>
      </trkpt>
      <trkpt lat="42.520004" lon="-5.764177">
        <ele>894</ele>
        <time>2018-07-23T11:47:58.990Z</time>
      </trkpt>
      <trkpt lat="42.519914" lon="-5.7643">
        <ele>894</ele>
        <time>2018-07-23T11:48:02.000Z</time>
      </trkpt>
      <trkpt lat="42.519832" lon="-5.764385">
        <ele>894</ele>
        <time>2018-07-23T11:48:03.960Z</time>
      </trkpt>
      <trkpt lat="42.51974" lon="-5.764471">
        <ele>894</ele>
        <time>2018-07-23T11:48:05.990Z</time>
      </trkpt>
      <trkpt lat="42.519662" lon="-5.764539">
        <ele>895</ele>
        <time>2018-07-23T11:48:07.990Z</time>
      </trkpt>
      <trkpt lat="42.519586" lon="-5.764609">
        <ele>895</ele>
        <time>2018-07-23T11:48:09.990Z</time>
      </trkpt>
      <trkpt lat="42.519496" lon="-5.764657">
        <ele>896</ele>
        <time>2018-07-23T11:48:12.990Z</time>
      </trkpt>
      <trkpt lat="42.519392" lon="-5.76469">
        <ele>897</ele>
        <time>2018-07-23T11:51:03.990Z</time>
      </trkpt>
      <trkpt lat="42.519298" lon="-5.764687">
        <ele>897</ele>
        <time>2018-07-23T11:51:07.990Z</time>
      </trkpt>
      <trkpt lat="42.519193" lon="-5.764703">
        <ele>896</ele>
        <time>2018-07-23T11:51:12.000Z</time>
      </trkpt>
      <trkpt lat="42.519102" lon="-5.764733">
        <ele>896</ele>
        <time>2018-07-23T11:51:23.990Z</time>
      </trkpt>
      <trkpt lat="42.519015" lon="-5.764768">
        <ele>897</ele>
        <time>2018-07-23T11:52:34.990Z</time>
      </trkpt>
      <trkpt lat="42.519094" lon="-5.7647">
        <ele>897</ele>
        <time>2018-07-23T11:54:10.990Z</time>
      </trkpt>
      <trkpt lat="42.519031" lon="-5.764788">
        <ele>896</ele>
        <time>2018-07-23T11:57:31.990Z</time>
      </trkpt>
      <trkpt lat="42.51896" lon="-5.764864">
        <ele>896</ele>
        <time>2018-07-23T11:57:36.990Z</time>
      </trkpt>
      <trkpt lat="42.518877" lon="-5.764931">
        <ele>897</ele>
        <time>2018-07-23T11:57:43.990Z</time>
      </trkpt>
      <trkpt lat="42.518796" lon="-5.764995">
        <ele>897</ele>
        <time>2018-07-23T11:57:47.990Z</time>
      </trkpt>
      <trkpt lat="42.518712" lon="-5.765055">
        <ele>897</ele>
        <time>2018-07-23T11:57:53.000Z</time>
      </trkpt>
      <trkpt lat="42.518614" lon="-5.76514">
        <ele>897.246155057994</ele>
        <time>2018-07-23T11:57:56.990Z</time>
      </trkpt>
      <trkpt lat="42.518525" lon="-5.765215">
        <ele>898</ele>
        <time>2018-07-23T11:58:01.990Z</time>
      </trkpt>
      <trkpt lat="42.518444" lon="-5.765277">
        <ele>898</ele>
        <time>2018-07-23T11:58:06.000Z</time>
      </trkpt>
      <trkpt lat="42.518354" lon="-5.765358">
        <ele>899</ele>
        <time>2018-07-23T11:58:11.030Z</time>
      </trkpt>
      <trkpt lat="42.518273" lon="-5.765417">
        <ele>899</ele>
        <time>2018-07-23T11:58:14.990Z</time>
      </trkpt>
      <trkpt lat="42.518183" lon="-5.765479">
        <ele>900</ele>
        <time>2018-07-23T11:58:21.000Z</time>
      </trkpt>
      <trkpt lat="42.518098" lon="-5.765556">
        <ele>902</ele>
        <time>2018-07-23T11:58:28.000Z</time>
      </trkpt>
      <trkpt lat="42.518007" lon="-5.765599">
        <ele>902</ele>
        <time>2018-07-23T11:58:34.000Z</time>
      </trkpt>
      <trkpt lat="42.517904" lon="-5.765651">
        <ele>902</ele>
        <time>2018-07-23T11:58:38.000Z</time>
      </trkpt>
      <trkpt lat="42.517799" lon="-5.765694">
        <ele>902</ele>
        <time>2018-07-23T11:58:41.990Z</time>
      </trkpt>
      <trkpt lat="42.517693" lon="-5.765774">
        <ele>902</ele>
        <time>2018-07-23T11:58:45.990Z</time>
      </trkpt>
      <trkpt lat="42.517618" lon="-5.765855">
        <ele>902</ele>
        <time>2018-07-23T11:58:50.000Z</time>
      </trkpt>
      <trkpt lat="42.517519" lon="-5.765965">
        <ele>903</ele>
        <time>2018-07-23T11:58:56.000Z</time>
      </trkpt>
      <trkpt lat="42.517423" lon="-5.76608">
        <ele>903</ele>
        <time>2018-07-23T11:59:00.000Z</time>
      </trkpt>
      <trkpt lat="42.517376" lon="-5.766206">
        <ele>903</ele>
        <time>2018-07-23T11:59:04.000Z</time>
      </trkpt>
      <trkpt lat="42.51728" lon="-5.766286">
        <ele>903</ele>
        <time>2018-07-23T11:59:08.960Z</time>
      </trkpt>
      <trkpt lat="42.517183" lon="-5.766304">
        <ele>903</ele>
        <time>2018-07-23T11:59:12.000Z</time>
      </trkpt>
      <trkpt lat="42.517105" lon="-5.766378">
        <ele>903</ele>
        <time>2018-07-23T11:59:17.990Z</time>
      </trkpt>
      <trkpt lat="42.517077" lon="-5.766504">
        <ele>903</ele>
        <time>2018-07-23T11:59:23.000Z</time>
      </trkpt>
      <trkpt lat="42.517012" lon="-5.766598">
        <ele>903</ele>
        <time>2018-07-23T11:59:25.990Z</time>
      </trkpt>
      <trkpt lat="42.516939" lon="-5.766703">
        <ele>903</ele>
        <time>2018-07-23T11:59:28.970Z</time>
      </trkpt>
      <trkpt lat="42.516877" lon="-5.766807">
        <ele>902</ele>
        <time>2018-07-23T11:59:31.990Z</time>
      </trkpt>
      <trkpt lat="42.516894" lon="-5.766956">
        <ele>902</ele>
        <time>2018-07-23T11:59:35.990Z</time>
      </trkpt>
      <trkpt lat="42.516958" lon="-5.767048">
        <ele>902</ele>
        <time>2018-07-23T11:59:40.990Z</time>
      </trkpt>
      <trkpt lat="42.516958" lon="-5.766926">
        <ele>902</ele>
        <time>2018-07-23T12:01:07.990Z</time>
      </trkpt>
      <trkpt lat="42.516877" lon="-5.767002">
        <ele>902</ele>
        <time>2018-07-23T12:01:23.000Z</time>
      </trkpt>
      <trkpt lat="42.516787" lon="-5.767089">
        <ele>902.6700032</ele>
        <time>2018-07-23T12:01:28.000Z</time>
      </trkpt>
      <trkpt lat="42.516693" lon="-5.767138">
        <ele>902</ele>
        <time>2018-07-23T12:01:30.990Z</time>
      </trkpt>
      <trkpt lat="42.516626" lon="-5.767222">
        <ele>902</ele>
        <time>2018-07-23T12:01:33.000Z</time>
      </trkpt>
      <trkpt lat="42.516523" lon="-5.767332">
        <ele>902</ele>
        <time>2018-07-23T12:01:35.990Z</time>
      </trkpt>
      <trkpt lat="42.516451" lon="-5.767433">
        <ele>901</ele>
        <time>2018-07-23T12:01:38.000Z</time>
      </trkpt>
      <trkpt lat="42.516376" lon="-5.767542">
        <ele>900</ele>
        <time>2018-07-23T12:01:40.020Z</time>
      </trkpt>
      <trkpt lat="42.516284" lon="-5.76766">
        <ele>899.68</ele>
        <time>2018-07-23T12:01:41.990Z</time>
      </trkpt>
      <trkpt lat="42.516184" lon="-5.767786">
        <ele>898</ele>
        <time>2018-07-23T12:01:43.990Z</time>
      </trkpt>
      <trkpt lat="42.516087" lon="-5.767928">
        <ele>897.68</ele>
        <time>2018-07-23T12:01:45.990Z</time>
      </trkpt>
      <trkpt lat="42.515982" lon="-5.768067">
        <ele>897</ele>
        <time>2018-07-23T12:01:48.000Z</time>
      </trkpt>
      <trkpt lat="42.515883" lon="-5.76821">
        <ele>895.68</ele>
        <time>2018-07-23T12:01:49.990Z</time>
      </trkpt>
      <trkpt lat="42.515785" lon="-5.768338">
        <ele>895</ele>
        <time>2018-07-23T12:01:51.990Z</time>
      </trkpt>
      <trkpt lat="42.515698" lon="-5.768455">
        <ele>893.68</ele>
        <time>2018-07-23T12:01:53.990Z</time>
      </trkpt>
      <trkpt lat="42.515584" lon="-5.768587">
        <ele>893</ele>
        <time>2018-07-23T12:01:55.990Z</time>
      </trkpt>
      <trkpt lat="42.51546" lon="-5.768725">
        <ele>893</ele>
        <time>2018-07-23T12:01:58.000Z</time>
      </trkpt>
      <trkpt lat="42.515336" lon="-5.768883">
        <ele>891.68</ele>
        <time>2018-07-23T12:01:59.990Z</time>
      </trkpt>
      <trkpt lat="42.515222" lon="-5.769069">
        <ele>889</ele>
        <time>2018-07-23T12:02:01.990Z</time>
      </trkpt>
      <trkpt lat="42.515164" lon="-5.769174">
        <ele>889</ele>
        <time>2018-07-23T12:02:03.000Z</time>
      </trkpt>
      <trkpt lat="42.515084" lon="-5.769385">
        <ele>887.68</ele>
        <time>2018-07-23T12:02:04.990Z</time>
      </trkpt>
      <trkpt lat="42.515042" lon="-5.769494">
        <ele>887</ele>
        <time>2018-07-23T12:02:05.990Z</time>
      </trkpt>
      <trkpt lat="42.514966" lon="-5.769717">
        <ele>887</ele>
        <time>2018-07-23T12:02:08.000Z</time>
      </trkpt>
      <trkpt lat="42.514899" lon="-5.769942">
        <ele>887</ele>
        <time>2018-07-23T12:02:09.990Z</time>
      </trkpt>
      <trkpt lat="42.514829" lon="-5.770153">
        <ele>886</ele>
        <time>2018-07-23T12:02:11.990Z</time>
      </trkpt>
      <trkpt lat="42.514759" lon="-5.77036">
        <ele>886</ele>
        <time>2018-07-23T12:02:13.990Z</time>
      </trkpt>
      <trkpt lat="42.514694" lon="-5.770561">
        <ele>886</ele>
        <time>2018-07-23T12:02:15.990Z</time>
      </trkpt>
      <trkpt lat="42.514631" lon="-5.770748">
        <ele>886</ele>
        <time>2018-07-23T12:02:18.030Z</time>
      </trkpt>
      <trkpt lat="42.514563" lon="-5.770928">
        <ele>885</ele>
        <time>2018-07-23T12:02:19.990Z</time>
      </trkpt>
      <trkpt lat="42.514507" lon="-5.771101">
        <ele>885</ele>
        <time>2018-07-23T12:02:21.990Z</time>
      </trkpt>
      <trkpt lat="42.514448" lon="-5.771264">
        <ele>885</ele>
        <time>2018-07-23T12:02:23.990Z</time>
      </trkpt>
      <trkpt lat="42.5144" lon="-5.771424">
        <ele>885</ele>
        <time>2018-07-23T12:02:25.990Z</time>
      </trkpt>
      <trkpt lat="42.514335" lon="-5.771581">
        <ele>885</ele>
        <time>2018-07-23T12:02:28.000Z</time>
      </trkpt>
      <trkpt lat="42.514294" lon="-5.771721">
        <ele>885</ele>
        <time>2018-07-23T12:02:29.990Z</time>
      </trkpt>
      <trkpt lat="42.514254" lon="-5.771858">
        <ele>886</ele>
        <time>2018-07-23T12:02:31.990Z</time>
      </trkpt>
      <trkpt lat="42.514197" lon="-5.772006">
        <ele>886</ele>
        <time>2018-07-23T12:02:33.990Z</time>
      </trkpt>
      <trkpt lat="42.514146" lon="-5.77215">
        <ele>886</ele>
        <time>2018-07-23T12:02:35.990Z</time>
      </trkpt>
      <trkpt lat="42.514098" lon="-5.772279">
        <ele>886</ele>
        <time>2018-07-23T12:02:37.970Z</time>
      </trkpt>
      <trkpt lat="42.514057" lon="-5.772423">
        <ele>886</ele>
        <time>2018-07-23T12:02:39.990Z</time>
      </trkpt>
      <trkpt lat="42.514026" lon="-5.77254">
        <ele>886</ele>
        <time>2018-07-23T12:02:41.990Z</time>
      </trkpt>
      <trkpt lat="42.513981" lon="-5.772671">
        <ele>886</ele>
        <time>2018-07-23T12:02:43.990Z</time>
      </trkpt>
      <trkpt lat="42.513928" lon="-5.772803">
        <ele>886</ele>
        <time>2018-07-23T12:02:45.990Z</time>
      </trkpt>
      <trkpt lat="42.513881" lon="-5.772933">
        <ele>886</ele>
        <time>2018-07-23T12:02:48.000Z</time>
      </trkpt>
      <trkpt lat="42.513838" lon="-5.773058">
        <ele>886</ele>
        <time>2018-07-23T12:02:49.990Z</time>
      </trkpt>
      <trkpt lat="42.513802" lon="-5.773175">
        <ele>886</ele>
        <time>2018-07-23T12:02:51.990Z</time>
      </trkpt>
      <trkpt lat="42.513753" lon="-5.773335">
        <ele>886</ele>
        <time>2018-07-23T12:02:54.990Z</time>
      </trkpt>
      <trkpt lat="42.513686" lon="-5.773429">
        <ele>886</ele>
        <time>2018-07-23T12:02:56.960Z</time>
      </trkpt>
      <trkpt lat="42.513599" lon="-5.773519">
        <ele>886</ele>
        <time>2018-07-23T12:02:59.990Z</time>
      </trkpt>
      <trkpt lat="42.513499" lon="-5.773648">
        <ele>885</ele>
        <time>2018-07-23T12:03:03.000Z</time>
      </trkpt>
      <trkpt lat="42.513444" lon="-5.773774">
        <ele>885</ele>
        <time>2018-07-23T12:03:04.990Z</time>
      </trkpt>
      <trkpt lat="42.513413" lon="-5.773891">
        <ele>885</ele>
        <time>2018-07-23T12:03:06.990Z</time>
      </trkpt>
      <trkpt lat="42.513353" lon="-5.774054">
        <ele>885</ele>
        <time>2018-07-23T12:03:09.990Z</time>
      </trkpt>
      <trkpt lat="42.51331" lon="-5.774175">
        <ele>885</ele>
        <time>2018-07-23T12:03:11.990Z</time>
      </trkpt>
      <trkpt lat="42.513265" lon="-5.774333">
        <ele>885</ele>
        <time>2018-07-23T12:03:15.020Z</time>
      </trkpt>
      <trkpt lat="42.513219" lon="-5.774473">
        <ele>885</ele>
        <time>2018-07-23T12:03:18.000Z</time>
      </trkpt>
      <trkpt lat="42.513174" lon="-5.774584">
        <ele>885</ele>
        <time>2018-07-23T12:03:19.990Z</time>
      </trkpt>
      <trkpt lat="42.513137" lon="-5.774696">
        <ele>885</ele>
        <time>2018-07-23T12:03:21.990Z</time>
      </trkpt>
      <trkpt lat="42.513092" lon="-5.774839">
        <ele>886</ele>
        <time>2018-07-23T12:03:24.990Z</time>
      </trkpt>
      <trkpt lat="42.513055" lon="-5.774963">
        <ele>886</ele>
        <time>2018-07-23T12:03:28.000Z</time>
      </trkpt>
      <trkpt lat="42.513002" lon="-5.775109">
        <ele>886</ele>
        <time>2018-07-23T12:03:30.990Z</time>
      </trkpt>
      <trkpt lat="42.512955" lon="-5.775253">
        <ele>885.269224710029</ele>
        <time>2018-07-23T12:03:34.020Z</time>
      </trkpt>
      <trkpt lat="42.512914" lon="-5.775383">
        <ele>887</ele>
        <time>2018-07-23T12:03:36.990Z</time>
      </trkpt>
      <trkpt lat="42.512869" lon="-5.775525">
        <ele>887</ele>
        <time>2018-07-23T12:03:39.990Z</time>
      </trkpt>
      <trkpt lat="42.512828" lon="-5.775663">
        <ele>887</ele>
        <time>2018-07-23T12:03:43.000Z</time>
      </trkpt>
      <trkpt lat="42.512787" lon="-5.775811">
        <ele>886</ele>
        <time>2018-07-23T12:03:45.990Z</time>
      </trkpt>
      <trkpt lat="42.512748" lon="-5.775927">
        <ele>886</ele>
        <time>2018-07-23T12:03:48.000Z</time>
      </trkpt>
      <trkpt lat="42.512708" lon="-5.776036">
        <ele>886</ele>
        <time>2018-07-23T12:03:49.990Z</time>
      </trkpt>
      <trkpt lat="42.512669" lon="-5.776148">
        <ele>885.971419689877</ele>
        <time>2018-07-23T12:03:51.990Z</time>
      </trkpt>
      <trkpt lat="42.512609" lon="-5.776313">
        <ele>885</ele>
        <time>2018-07-23T12:03:54.990Z</time>
      </trkpt>
      <trkpt lat="42.512562" lon="-5.776462">
        <ele>885</ele>
        <time>2018-07-23T12:03:58.000Z</time>
      </trkpt>
      <trkpt lat="42.512524" lon="-5.776578">
        <ele>885</ele>
        <time>2018-07-23T12:03:59.990Z</time>
      </trkpt>
      <trkpt lat="42.512471" lon="-5.776733">
        <ele>885</ele>
        <time>2018-07-23T12:04:03.000Z</time>
      </trkpt>
      <trkpt lat="42.512415" lon="-5.776883">
        <ele>885</ele>
        <time>2018-07-23T12:04:05.990Z</time>
      </trkpt>
      <trkpt lat="42.512358" lon="-5.777034">
        <ele>885</ele>
        <time>2018-07-23T12:04:08.990Z</time>
      </trkpt>
      <trkpt lat="42.512296" lon="-5.777177">
        <ele>885</ele>
        <time>2018-07-23T12:04:12.020Z</time>
      </trkpt>
      <trkpt lat="42.512231" lon="-5.777314">
        <ele>885</ele>
        <time>2018-07-23T12:04:14.990Z</time>
      </trkpt>
      <trkpt lat="42.512178" lon="-5.777415">
        <ele>885</ele>
        <time>2018-07-23T12:04:16.990Z</time>
      </trkpt>
      <trkpt lat="42.512106" lon="-5.777557">
        <ele>885</ele>
        <time>2018-07-23T12:04:19.990Z</time>
      </trkpt>
      <trkpt lat="42.512034" lon="-5.777702">
        <ele>884</ele>
        <time>2018-07-23T12:04:23.000Z</time>
      </trkpt>
      <trkpt lat="42.511969" lon="-5.777831">
        <ele>884</ele>
        <time>2018-07-23T12:04:25.990Z</time>
      </trkpt>
      <trkpt lat="42.511901" lon="-5.777958">
        <ele>884</ele>
        <time>2018-07-23T12:04:28.990Z</time>
      </trkpt>
      <trkpt lat="42.511834" lon="-5.77806">
        <ele>884</ele>
        <time>2018-07-23T12:04:31.020Z</time>
      </trkpt>
      <trkpt lat="42.51177" lon="-5.77816">
        <ele>884</ele>
        <time>2018-07-23T12:04:33.000Z</time>
      </trkpt>
      <trkpt lat="42.511716" lon="-5.77826">
        <ele>884</ele>
        <time>2018-07-23T12:04:34.990Z</time>
      </trkpt>
      <trkpt lat="42.511633" lon="-5.778403">
        <ele>884</ele>
        <time>2018-07-23T12:04:38.000Z</time>
      </trkpt>
      <trkpt lat="42.511562" lon="-5.778546">
        <ele>884</ele>
        <time>2018-07-23T12:04:40.990Z</time>
      </trkpt>
      <trkpt lat="42.51149" lon="-5.778689">
        <ele>884</ele>
        <time>2018-07-23T12:04:43.990Z</time>
      </trkpt>
      <trkpt lat="42.511434" lon="-5.778789">
        <ele>884</ele>
        <time>2018-07-23T12:04:45.990Z</time>
      </trkpt>
      <trkpt lat="42.511373" lon="-5.778892">
        <ele>884</ele>
        <time>2018-07-23T12:04:48.000Z</time>
      </trkpt>
      <trkpt lat="42.511296" lon="-5.779035">
        <ele>884</ele>
        <time>2018-07-23T12:04:50.960Z</time>
      </trkpt>
      <trkpt lat="42.511221" lon="-5.77918">
        <ele>884</ele>
        <time>2018-07-23T12:04:53.990Z</time>
      </trkpt>
      <trkpt lat="42.511166" lon="-5.779279">
        <ele>884</ele>
        <time>2018-07-23T12:04:55.990Z</time>
      </trkpt>
      <trkpt lat="42.511088" lon="-5.779421">
        <ele>884</ele>
        <time>2018-07-23T12:04:58.990Z</time>
      </trkpt>
      <trkpt lat="42.511017" lon="-5.779566">
        <ele>884</ele>
        <time>2018-07-23T12:05:01.990Z</time>
      </trkpt>
      <trkpt lat="42.510966" lon="-5.779668">
        <ele>884</ele>
        <time>2018-07-23T12:05:03.990Z</time>
      </trkpt>
      <trkpt lat="42.510901" lon="-5.779803">
        <ele>884</ele>
        <time>2018-07-23T12:05:06.990Z</time>
      </trkpt>
      <trkpt lat="42.51082" lon="-5.779936">
        <ele>884</ele>
        <time>2018-07-23T12:05:09.960Z</time>
      </trkpt>
      <trkpt lat="42.510739" lon="-5.780081">
        <ele>884</ele>
        <time>2018-07-23T12:05:13.000Z</time>
      </trkpt>
      <trkpt lat="42.510666" lon="-5.780227">
        <ele>884</ele>
        <time>2018-07-23T12:05:15.990Z</time>
      </trkpt>
      <trkpt lat="42.510587" lon="-5.780361">
        <ele>884</ele>
        <time>2018-07-23T12:05:18.990Z</time>
      </trkpt>
      <trkpt lat="42.510534" lon="-5.78046">
        <ele>884</ele>
        <time>2018-07-23T12:05:20.990Z</time>
      </trkpt>
      <trkpt lat="42.510461" lon="-5.780599">
        <ele>884</ele>
        <time>2018-07-23T12:05:23.990Z</time>
      </trkpt>
      <trkpt lat="42.51039" lon="-5.780732">
        <ele>884</ele>
        <time>2018-07-23T12:05:26.990Z</time>
      </trkpt>
      <trkpt lat="42.51032" lon="-5.78086">
        <ele>884</ele>
        <time>2018-07-23T12:05:29.990Z</time>
      </trkpt>
      <trkpt lat="42.510265" lon="-5.780975">
        <ele>884</ele>
        <time>2018-07-23T12:05:33.000Z</time>
      </trkpt>
      <trkpt lat="42.5102" lon="-5.781108">
        <ele>884</ele>
        <time>2018-07-23T12:05:35.990Z</time>
      </trkpt>
      <trkpt lat="42.510123" lon="-5.781239">
        <ele>883.68</ele>
        <time>2018-07-23T12:05:38.990Z</time>
      </trkpt>
      <trkpt lat="42.510054" lon="-5.781375">
        <ele>883</ele>
        <time>2018-07-23T12:05:41.990Z</time>
      </trkpt>
      <trkpt lat="42.509974" lon="-5.78151">
        <ele>883</ele>
        <time>2018-07-23T12:05:44.990Z</time>
      </trkpt>
      <trkpt lat="42.509914" lon="-5.781612">
        <ele>883</ele>
        <time>2018-07-23T12:05:47.020Z</time>
      </trkpt>
      <trkpt lat="42.509838" lon="-5.781757">
        <ele>883</ele>
        <time>2018-07-23T12:05:49.990Z</time>
      </trkpt>
      <trkpt lat="42.509786" lon="-5.781863">
        <ele>883</ele>
        <time>2018-07-23T12:05:51.990Z</time>
      </trkpt>
      <trkpt lat="42.509726" lon="-5.781971">
        <ele>883</ele>
        <time>2018-07-23T12:05:53.990Z</time>
      </trkpt>
      <trkpt lat="42.50967" lon="-5.782082">
        <ele>883</ele>
        <time>2018-07-23T12:05:55.990Z</time>
      </trkpt>
      <trkpt lat="42.509611" lon="-5.782191">
        <ele>882.6700032</ele>
        <time>2018-07-23T12:05:58.000Z</time>
      </trkpt>
      <trkpt lat="42.509558" lon="-5.78229">
        <ele>882</ele>
        <time>2018-07-23T12:05:59.990Z</time>
      </trkpt>
      <trkpt lat="42.509482" lon="-5.782426">
        <ele>882</ele>
        <time>2018-07-23T12:06:03.000Z</time>
      </trkpt>
      <trkpt lat="42.509415" lon="-5.78256">
        <ele>882</ele>
        <time>2018-07-23T12:06:06.020Z</time>
      </trkpt>
      <trkpt lat="42.509355" lon="-5.782669">
        <ele>882</ele>
        <time>2018-07-23T12:06:08.000Z</time>
      </trkpt>
      <trkpt lat="42.509296" lon="-5.782776">
        <ele>882</ele>
        <time>2018-07-23T12:06:09.990Z</time>
      </trkpt>
      <trkpt lat="42.509246" lon="-5.782878">
        <ele>882</ele>
        <time>2018-07-23T12:06:11.990Z</time>
      </trkpt>
      <trkpt lat="42.509191" lon="-5.782986">
        <ele>881.68</ele>
        <time>2018-07-23T12:06:13.990Z</time>
      </trkpt>
      <trkpt lat="42.509136" lon="-5.783093">
        <ele>882</ele>
        <time>2018-07-23T12:06:15.990Z</time>
      </trkpt>
      <trkpt lat="42.509074" lon="-5.783206">
        <ele>881</ele>
        <time>2018-07-23T12:06:18.000Z</time>
      </trkpt>
      <trkpt lat="42.508996" lon="-5.783328">
        <ele>882</ele>
        <time>2018-07-23T12:06:19.990Z</time>
      </trkpt>
      <trkpt lat="42.508941" lon="-5.783427">
        <ele>881.68</ele>
        <time>2018-07-23T12:06:21.990Z</time>
      </trkpt>
      <trkpt lat="42.508884" lon="-5.783531">
        <ele>881</ele>
        <time>2018-07-23T12:06:23.990Z</time>
      </trkpt>
      <trkpt lat="42.508828" lon="-5.783637">
        <ele>881</ele>
        <time>2018-07-23T12:06:25.960Z</time>
      </trkpt>
      <trkpt lat="42.508769" lon="-5.78375">
        <ele>881</ele>
        <time>2018-07-23T12:06:28.000Z</time>
      </trkpt>
      <trkpt lat="42.508713" lon="-5.783855">
        <ele>881</ele>
        <time>2018-07-23T12:06:29.990Z</time>
      </trkpt>
      <trkpt lat="42.508658" lon="-5.783958">
        <ele>881</ele>
        <time>2018-07-23T12:06:31.990Z</time>
      </trkpt>
      <trkpt lat="42.508596" lon="-5.78406">
        <ele>881</ele>
        <time>2018-07-23T12:06:33.990Z</time>
      </trkpt>
      <trkpt lat="42.508542" lon="-5.784161">
        <ele>881</ele>
        <time>2018-07-23T12:06:35.990Z</time>
      </trkpt>
      <trkpt lat="42.508481" lon="-5.784265">
        <ele>881</ele>
        <time>2018-07-23T12:06:38.000Z</time>
      </trkpt>
      <trkpt lat="42.508422" lon="-5.784357">
        <ele>880</ele>
        <time>2018-07-23T12:06:39.990Z</time>
      </trkpt>
      <trkpt lat="42.508356" lon="-5.784477">
        <ele>880</ele>
        <time>2018-07-23T12:06:43.000Z</time>
      </trkpt>
      <trkpt lat="42.508277" lon="-5.784619">
        <ele>880</ele>
        <time>2018-07-23T12:06:45.990Z</time>
      </trkpt>
      <trkpt lat="42.508225" lon="-5.784723">
        <ele>880</ele>
        <time>2018-07-23T12:06:48.000Z</time>
      </trkpt>
      <trkpt lat="42.508152" lon="-5.784864">
        <ele>880</ele>
        <time>2018-07-23T12:06:50.990Z</time>
      </trkpt>
      <trkpt lat="42.508092" lon="-5.784988">
        <ele>880.32</ele>
        <time>2018-07-23T12:06:53.990Z</time>
      </trkpt>
      <trkpt lat="42.508024" lon="-5.785116">
        <ele>881</ele>
        <time>2018-07-23T12:06:56.990Z</time>
      </trkpt>
      <trkpt lat="42.507951" lon="-5.785259">
        <ele>881</ele>
        <time>2018-07-23T12:06:59.990Z</time>
      </trkpt>
      <trkpt lat="42.507859" lon="-5.785418">
        <ele>881</ele>
        <time>2018-07-23T12:07:03.030Z</time>
      </trkpt>
      <trkpt lat="42.507777" lon="-5.785565">
        <ele>881</ele>
        <time>2018-07-23T12:07:05.990Z</time>
      </trkpt>
      <trkpt lat="42.507712" lon="-5.785688">
        <ele>881</ele>
        <time>2018-07-23T12:07:08.990Z</time>
      </trkpt>
      <trkpt lat="42.507641" lon="-5.785818">
        <ele>881</ele>
        <time>2018-07-23T12:07:11.990Z</time>
      </trkpt>
      <trkpt lat="42.50756" lon="-5.78597">
        <ele>881</ele>
        <time>2018-07-23T12:07:14.990Z</time>
      </trkpt>
      <trkpt lat="42.5075" lon="-5.786075">
        <ele>880.68</ele>
        <time>2018-07-23T12:07:16.990Z</time>
      </trkpt>
      <trkpt lat="42.507424" lon="-5.786216">
        <ele>880</ele>
        <time>2018-07-23T12:07:19.990Z</time>
      </trkpt>
      <trkpt lat="42.507349" lon="-5.786357">
        <ele>880</ele>
        <time>2018-07-23T12:07:22.970Z</time>
      </trkpt>
      <trkpt lat="42.507292" lon="-5.786462">
        <ele>880</ele>
        <time>2018-07-23T12:07:24.990Z</time>
      </trkpt>
      <trkpt lat="42.507227" lon="-5.786569">
        <ele>880</ele>
        <time>2018-07-23T12:07:26.960Z</time>
      </trkpt>
      <trkpt lat="42.507153" lon="-5.786713">
        <ele>880</ele>
        <time>2018-07-23T12:07:29.990Z</time>
      </trkpt>
      <trkpt lat="42.507086" lon="-5.786841">
        <ele>880</ele>
        <time>2018-07-23T12:07:33.000Z</time>
      </trkpt>
      <trkpt lat="42.507025" lon="-5.786954">
        <ele>881</ele>
        <time>2018-07-23T12:07:35.990Z</time>
      </trkpt>
      <trkpt lat="42.506962" lon="-5.787085">
        <ele>881</ele>
        <time>2018-07-23T12:07:38.990Z</time>
      </trkpt>
      <trkpt lat="42.506887" lon="-5.787205">
        <ele>881</ele>
        <time>2018-07-23T12:07:41.960Z</time>
      </trkpt>
      <trkpt lat="42.506813" lon="-5.787347">
        <ele>881</ele>
        <time>2018-07-23T12:07:44.990Z</time>
      </trkpt>
      <trkpt lat="42.506737" lon="-5.787488">
        <ele>881</ele>
        <time>2018-07-23T12:07:48.000Z</time>
      </trkpt>
      <trkpt lat="42.506661" lon="-5.787624">
        <ele>880</ele>
        <time>2018-07-23T12:07:50.990Z</time>
      </trkpt>
      <trkpt lat="42.506591" lon="-5.787757">
        <ele>880</ele>
        <time>2018-07-23T12:07:53.990Z</time>
      </trkpt>
      <trkpt lat="42.506521" lon="-5.787891">
        <ele>881</ele>
        <time>2018-07-23T12:07:56.990Z</time>
      </trkpt>
      <trkpt lat="42.506464" lon="-5.787997">
        <ele>881</ele>
        <time>2018-07-23T12:07:58.990Z</time>
      </trkpt>
      <trkpt lat="42.506402" lon="-5.788103">
        <ele>880.7100032</ele>
        <time>2018-07-23T12:08:00.960Z</time>
      </trkpt>
      <trkpt lat="42.50635" lon="-5.788205">
        <ele>880</ele>
        <time>2018-07-23T12:08:03.000Z</time>
      </trkpt>
      <trkpt lat="42.506274" lon="-5.788343">
        <ele>880</ele>
        <time>2018-07-23T12:08:05.990Z</time>
      </trkpt>
      <trkpt lat="42.50619" lon="-5.788487">
        <ele>880</ele>
        <time>2018-07-23T12:08:09.000Z</time>
      </trkpt>
      <trkpt lat="42.506118" lon="-5.788585">
        <ele>880</ele>
        <time>2018-07-23T12:08:11.000Z</time>
      </trkpt>
      <trkpt lat="42.506056" lon="-5.788696">
        <ele>880</ele>
        <time>2018-07-23T12:08:13.000Z</time>
      </trkpt>
      <trkpt lat="42.505998" lon="-5.788795">
        <ele>880</ele>
        <time>2018-07-23T12:08:15.000Z</time>
      </trkpt>
      <trkpt lat="42.505938" lon="-5.788898">
        <ele>880</ele>
        <time>2018-07-23T12:08:17.000Z</time>
      </trkpt>
      <trkpt lat="42.505878" lon="-5.789008">
        <ele>880</ele>
        <time>2018-07-23T12:08:19.030Z</time>
      </trkpt>
      <trkpt lat="42.505806" lon="-5.789152">
        <ele>880</ele>
        <time>2018-07-23T12:08:21.990Z</time>
      </trkpt>
      <trkpt lat="42.505734" lon="-5.789286">
        <ele>880</ele>
        <time>2018-07-23T12:08:24.990Z</time>
      </trkpt>
      <trkpt lat="42.50567" lon="-5.789411">
        <ele>879</ele>
        <time>2018-07-23T12:08:27.990Z</time>
      </trkpt>
      <trkpt lat="42.505606" lon="-5.789537">
        <ele>879</ele>
        <time>2018-07-23T12:08:30.990Z</time>
      </trkpt>
      <trkpt lat="42.505542" lon="-5.789667">
        <ele>879</ele>
        <time>2018-07-23T12:08:34.000Z</time>
      </trkpt>
      <trkpt lat="42.505478" lon="-5.789795">
        <ele>879</ele>
        <time>2018-07-23T12:08:36.990Z</time>
      </trkpt>
      <trkpt lat="42.505405" lon="-5.789919">
        <ele>880</ele>
        <time>2018-07-23T12:08:39.990Z</time>
      </trkpt>
      <trkpt lat="42.505342" lon="-5.790064">
        <ele>879.68</ele>
        <time>2018-07-23T12:08:42.990Z</time>
      </trkpt>
      <trkpt lat="42.505273" lon="-5.790204">
        <ele>879</ele>
        <time>2018-07-23T12:08:45.990Z</time>
      </trkpt>
      <trkpt lat="42.505204" lon="-5.790339">
        <ele>879</ele>
        <time>2018-07-23T12:08:49.000Z</time>
      </trkpt>
      <trkpt lat="42.505132" lon="-5.790474">
        <ele>879</ele>
        <time>2018-07-23T12:08:51.990Z</time>
      </trkpt>
      <trkpt lat="42.505056" lon="-5.790618">
        <ele>879</ele>
        <time>2018-07-23T12:08:54.990Z</time>
      </trkpt>
      <trkpt lat="42.504974" lon="-5.79075">
        <ele>879</ele>
        <time>2018-07-23T12:08:57.990Z</time>
      </trkpt>
      <trkpt lat="42.50491" lon="-5.790851">
        <ele>879</ele>
        <time>2018-07-23T12:08:59.990Z</time>
      </trkpt>
      <trkpt lat="42.504831" lon="-5.790989">
        <ele>879</ele>
        <time>2018-07-23T12:09:02.990Z</time>
      </trkpt>
      <trkpt lat="42.504762" lon="-5.791087">
        <ele>879</ele>
        <time>2018-07-23T12:09:04.990Z</time>
      </trkpt>
      <trkpt lat="42.504694" lon="-5.791218">
        <ele>879</ele>
        <time>2018-07-23T12:09:07.990Z</time>
      </trkpt>
      <trkpt lat="42.504617" lon="-5.791353">
        <ele>879</ele>
        <time>2018-07-23T12:09:10.990Z</time>
      </trkpt>
      <trkpt lat="42.504554" lon="-5.791459">
        <ele>879</ele>
        <time>2018-07-23T12:09:12.990Z</time>
      </trkpt>
      <trkpt lat="42.504498" lon="-5.791559">
        <ele>879.028580310123</ele>
        <time>2018-07-23T12:09:14.990Z</time>
      </trkpt>
      <trkpt lat="42.504426" lon="-5.791693">
        <ele>880</ele>
        <time>2018-07-23T12:09:17.990Z</time>
      </trkpt>
      <trkpt lat="42.504364" lon="-5.791819">
        <ele>879</ele>
        <time>2018-07-23T12:09:20.990Z</time>
      </trkpt>
      <trkpt lat="42.504298" lon="-5.791955">
        <ele>879</ele>
        <time>2018-07-23T12:09:24.000Z</time>
      </trkpt>
      <trkpt lat="42.504218" lon="-5.792091">
        <ele>879</ele>
        <time>2018-07-23T12:09:26.990Z</time>
      </trkpt>
      <trkpt lat="42.504158" lon="-5.792201">
        <ele>879</ele>
        <time>2018-07-23T12:09:29.990Z</time>
      </trkpt>
      <trkpt lat="42.504086" lon="-5.792328">
        <ele>879</ele>
        <time>2018-07-23T12:09:32.990Z</time>
      </trkpt>
      <trkpt lat="42.504016" lon="-5.792469">
        <ele>879</ele>
        <time>2018-07-23T12:09:35.990Z</time>
      </trkpt>
      <trkpt lat="42.503936" lon="-5.792601">
        <ele>879</ele>
        <time>2018-07-23T12:09:39.000Z</time>
      </trkpt>
      <trkpt lat="42.503856" lon="-5.792742">
        <ele>879</ele>
        <time>2018-07-23T12:09:41.990Z</time>
      </trkpt>
      <trkpt lat="42.503794" lon="-5.79288">
        <ele>878</ele>
        <time>2018-07-23T12:09:44.990Z</time>
      </trkpt>
      <trkpt lat="42.50374" lon="-5.792979">
        <ele>878</ele>
        <time>2018-07-23T12:09:46.990Z</time>
      </trkpt>
      <trkpt lat="42.503686" lon="-5.793078">
        <ele>878</ele>
        <time>2018-07-23T12:09:49.000Z</time>
      </trkpt>
      <trkpt lat="42.503622" lon="-5.793179">
        <ele>878</ele>
        <time>2018-07-23T12:09:50.990Z</time>
      </trkpt>
      <trkpt lat="42.50355" lon="-5.793309">
        <ele>879</ele>
        <time>2018-07-23T12:09:54.000Z</time>
      </trkpt>
      <trkpt lat="42.50349" lon="-5.79344">
        <ele>879</ele>
        <time>2018-07-23T12:09:56.990Z</time>
      </trkpt>
      <trkpt lat="42.503424" lon="-5.793569">
        <ele>879</ele>
        <time>2018-07-23T12:09:59.990Z</time>
      </trkpt>
      <trkpt lat="42.503343" lon="-5.793713">
        <ele>879</ele>
        <time>2018-07-23T12:10:02.990Z</time>
      </trkpt>
      <trkpt lat="42.503277" lon="-5.793822">
        <ele>878</ele>
        <time>2018-07-23T12:10:04.990Z</time>
      </trkpt>
      <trkpt lat="42.503194" lon="-5.793968">
        <ele>878</ele>
        <time>2018-07-23T12:10:07.990Z</time>
      </trkpt>
      <trkpt lat="42.503136" lon="-5.794067">
        <ele>878</ele>
        <time>2018-07-23T12:10:09.990Z</time>
      </trkpt>
      <trkpt lat="42.50306" lon="-5.794207">
        <ele>878</ele>
        <time>2018-07-23T12:10:12.990Z</time>
      </trkpt>
      <trkpt lat="42.502989" lon="-5.794312">
        <ele>878</ele>
        <time>2018-07-23T12:10:14.990Z</time>
      </trkpt>
      <trkpt lat="42.502929" lon="-5.794409">
        <ele>878</ele>
        <time>2018-07-23T12:10:16.990Z</time>
      </trkpt>
      <trkpt lat="42.502876" lon="-5.794508">
        <ele>878</ele>
        <time>2018-07-23T12:10:19.000Z</time>
      </trkpt>
      <trkpt lat="42.502798" lon="-5.79465">
        <ele>877</ele>
        <time>2018-07-23T12:10:21.990Z</time>
      </trkpt>
      <trkpt lat="42.502733" lon="-5.794747">
        <ele>877</ele>
        <time>2018-07-23T12:10:24.000Z</time>
      </trkpt>
      <trkpt lat="42.502675" lon="-5.794848">
        <ele>877</ele>
        <time>2018-07-23T12:10:25.990Z</time>
      </trkpt>
      <trkpt lat="42.502622" lon="-5.794953">
        <ele>877</ele>
        <time>2018-07-23T12:10:27.990Z</time>
      </trkpt>
      <trkpt lat="42.50256" lon="-5.795051">
        <ele>876.762963524827</ele>
        <time>2018-07-23T12:10:29.990Z</time>
      </trkpt>
      <trkpt lat="42.502483" lon="-5.795187">
        <ele>876</ele>
        <time>2018-07-23T12:10:32.990Z</time>
      </trkpt>
      <trkpt lat="42.502414" lon="-5.795335">
        <ele>877</ele>
        <time>2018-07-23T12:10:35.990Z</time>
      </trkpt>
      <trkpt lat="42.502364" lon="-5.79544">
        <ele>876</ele>
        <time>2018-07-23T12:10:37.990Z</time>
      </trkpt>
      <trkpt lat="42.502289" lon="-5.795578">
        <ele>876</ele>
        <time>2018-07-23T12:10:40.990Z</time>
      </trkpt>
      <trkpt lat="42.502215" lon="-5.795715">
        <ele>876.253844942006</ele>
        <time>2018-07-23T12:10:44.000Z</time>
      </trkpt>
      <trkpt lat="42.50214" lon="-5.795855">
        <ele>877</ele>
        <time>2018-07-23T12:10:46.990Z</time>
      </trkpt>
      <trkpt lat="42.502066" lon="-5.795988">
        <ele>876</ele>
        <time>2018-07-23T12:10:49.990Z</time>
      </trkpt>
      <trkpt lat="42.501997" lon="-5.796115">
        <ele>876</ele>
        <time>2018-07-23T12:10:52.990Z</time>
      </trkpt>
      <trkpt lat="42.501927" lon="-5.79626">
        <ele>876</ele>
        <time>2018-07-23T12:10:55.990Z</time>
      </trkpt>
      <trkpt lat="42.501857" lon="-5.796397">
        <ele>876</ele>
        <time>2018-07-23T12:10:59.000Z</time>
      </trkpt>
      <trkpt lat="42.501789" lon="-5.79653">
        <ele>875.68</ele>
        <time>2018-07-23T12:11:01.990Z</time>
      </trkpt>
      <trkpt lat="42.501707" lon="-5.796662">
        <ele>875</ele>
        <time>2018-07-23T12:11:04.990Z</time>
      </trkpt>
      <trkpt lat="42.501646" lon="-5.796764">
        <ele>875</ele>
        <time>2018-07-23T12:11:06.990Z</time>
      </trkpt>
      <trkpt lat="42.501572" lon="-5.796904">
        <ele>876</ele>
        <time>2018-07-23T12:11:10.020Z</time>
      </trkpt>
      <trkpt lat="42.501498" lon="-5.797038">
        <ele>875</ele>
        <time>2018-07-23T12:11:12.990Z</time>
      </trkpt>
      <trkpt lat="42.501428" lon="-5.797162">
        <ele>875</ele>
        <time>2018-07-23T12:11:15.990Z</time>
      </trkpt>
      <trkpt lat="42.501346" lon="-5.797287">
        <ele>875</ele>
        <time>2018-07-23T12:11:19.000Z</time>
      </trkpt>
      <trkpt lat="42.501287" lon="-5.797414">
        <ele>875</ele>
        <time>2018-07-23T12:11:21.990Z</time>
      </trkpt>
      <trkpt lat="42.501217" lon="-5.797548">
        <ele>875</ele>
        <time>2018-07-23T12:11:24.990Z</time>
      </trkpt>
      <trkpt lat="42.501157" lon="-5.79768">
        <ele>875</ele>
        <time>2018-07-23T12:11:27.990Z</time>
      </trkpt>
      <trkpt lat="42.501081" lon="-5.79782">
        <ele>875</ele>
        <time>2018-07-23T12:11:30.990Z</time>
      </trkpt>
      <trkpt lat="42.501025" lon="-5.797922">
        <ele>875</ele>
        <time>2018-07-23T12:11:32.990Z</time>
      </trkpt>
      <trkpt lat="42.500966" lon="-5.798022">
        <ele>874</ele>
        <time>2018-07-23T12:11:34.990Z</time>
      </trkpt>
      <trkpt lat="42.500891" lon="-5.798168">
        <ele>874</ele>
        <time>2018-07-23T12:11:37.990Z</time>
      </trkpt>
      <trkpt lat="42.500831" lon="-5.798276">
        <ele>873</ele>
        <time>2018-07-23T12:11:39.990Z</time>
      </trkpt>
      <trkpt lat="42.500768" lon="-5.798386">
        <ele>873</ele>
        <time>2018-07-23T12:11:41.990Z</time>
      </trkpt>
      <trkpt lat="42.50071" lon="-5.798492">
        <ele>873</ele>
        <time>2018-07-23T12:11:44.000Z</time>
      </trkpt>
      <trkpt lat="42.500629" lon="-5.798645">
        <ele>873</ele>
        <time>2018-07-23T12:11:46.990Z</time>
      </trkpt>
      <trkpt lat="42.500564" lon="-5.798749">
        <ele>873</ele>
        <time>2018-07-23T12:11:48.970Z</time>
      </trkpt>
      <trkpt lat="42.500513" lon="-5.798856">
        <ele>873</ele>
        <time>2018-07-23T12:11:50.990Z</time>
      </trkpt>
      <trkpt lat="42.50045" lon="-5.798968">
        <ele>873</ele>
        <time>2018-07-23T12:11:52.990Z</time>
      </trkpt>
      <trkpt lat="42.500386" lon="-5.799079">
        <ele>873</ele>
        <time>2018-07-23T12:11:54.990Z</time>
      </trkpt>
      <trkpt lat="42.500328" lon="-5.799188">
        <ele>873</ele>
        <time>2018-07-23T12:11:56.990Z</time>
      </trkpt>
      <trkpt lat="42.500271" lon="-5.7993">
        <ele>873</ele>
        <time>2018-07-23T12:11:59.000Z</time>
      </trkpt>
      <trkpt lat="42.500212" lon="-5.799412">
        <ele>873</ele>
        <time>2018-07-23T12:12:00.990Z</time>
      </trkpt>
      <trkpt lat="42.500151" lon="-5.799524">
        <ele>873</ele>
        <time>2018-07-23T12:12:02.990Z</time>
      </trkpt>
      <trkpt lat="42.500086" lon="-5.79963">
        <ele>872.753844942006</ele>
        <time>2018-07-23T12:12:04.990Z</time>
      </trkpt>
      <trkpt lat="42.499995" lon="-5.799772">
        <ele>872</ele>
        <time>2018-07-23T12:12:07.960Z</time>
      </trkpt>
      <trkpt lat="42.499925" lon="-5.799912">
        <ele>872</ele>
        <time>2018-07-23T12:12:10.990Z</time>
      </trkpt>
      <trkpt lat="42.499855" lon="-5.800046">
        <ele>872</ele>
        <time>2018-07-23T12:12:14.000Z</time>
      </trkpt>
      <trkpt lat="42.499782" lon="-5.800176">
        <ele>872</ele>
        <time>2018-07-23T12:12:16.990Z</time>
      </trkpt>
      <trkpt lat="42.499707" lon="-5.800314">
        <ele>872</ele>
        <time>2018-07-23T12:12:19.990Z</time>
      </trkpt>
      <trkpt lat="42.499633" lon="-5.800463">
        <ele>872</ele>
        <time>2018-07-23T12:12:22.990Z</time>
      </trkpt>
      <trkpt lat="42.499559" lon="-5.800611">
        <ele>872</ele>
        <time>2018-07-23T12:12:26.020Z</time>
      </trkpt>
      <trkpt lat="42.499505" lon="-5.800708">
        <ele>872</ele>
        <time>2018-07-23T12:12:27.990Z</time>
      </trkpt>
      <trkpt lat="42.49945" lon="-5.800812">
        <ele>872</ele>
        <time>2018-07-23T12:12:29.990Z</time>
      </trkpt>
      <trkpt lat="42.499371" lon="-5.800959">
        <ele>871</ele>
        <time>2018-07-23T12:12:32.990Z</time>
      </trkpt>
      <trkpt lat="42.499315" lon="-5.801055">
        <ele>871</ele>
        <time>2018-07-23T12:12:34.990Z</time>
      </trkpt>
      <trkpt lat="42.499246" lon="-5.801184">
        <ele>871</ele>
        <time>2018-07-23T12:12:37.990Z</time>
      </trkpt>
      <trkpt lat="42.49918" lon="-5.801319">
        <ele>871</ele>
        <time>2018-07-23T12:12:40.990Z</time>
      </trkpt>
      <trkpt lat="42.499107" lon="-5.801453">
        <ele>871</ele>
        <time>2018-07-23T12:12:44.000Z</time>
      </trkpt>
      <trkpt lat="42.499032" lon="-5.801585">
        <ele>871</ele>
        <time>2018-07-23T12:12:46.990Z</time>
      </trkpt>
      <trkpt lat="42.49897" lon="-5.801719">
        <ele>870</ele>
        <time>2018-07-23T12:12:49.990Z</time>
      </trkpt>
      <trkpt lat="42.498906" lon="-5.801859">
        <ele>870</ele>
        <time>2018-07-23T12:12:52.990Z</time>
      </trkpt>
      <trkpt lat="42.498824" lon="-5.801996">
        <ele>870</ele>
        <time>2018-07-23T12:12:55.990Z</time>
      </trkpt>
      <trkpt lat="42.498752" lon="-5.802118">
        <ele>870</ele>
        <time>2018-07-23T12:12:59.000Z</time>
      </trkpt>
      <trkpt lat="42.498681" lon="-5.802245">
        <ele>870</ele>
        <time>2018-07-23T12:13:01.990Z</time>
      </trkpt>
      <trkpt lat="42.498625" lon="-5.802342">
        <ele>870</ele>
        <time>2018-07-23T12:13:04.030Z</time>
      </trkpt>
      <trkpt lat="42.498564" lon="-5.802467">
        <ele>870</ele>
        <time>2018-07-23T12:13:06.990Z</time>
      </trkpt>
      <trkpt lat="42.498488" lon="-5.802597">
        <ele>870.32</ele>
        <time>2018-07-23T12:13:10.990Z</time>
      </trkpt>
      <trkpt lat="42.498415" lon="-5.802711">
        <ele>871</ele>
        <time>2018-07-23T12:13:14.000Z</time>
      </trkpt>
      <trkpt lat="42.498356" lon="-5.802833">
        <ele>870</ele>
        <time>2018-07-23T12:13:16.990Z</time>
      </trkpt>
      <trkpt lat="42.498295" lon="-5.802954">
        <ele>870</ele>
        <time>2018-07-23T12:13:19.990Z</time>
      </trkpt>
      <trkpt lat="42.498236" lon="-5.803057">
        <ele>869.6499968</ele>
        <time>2018-07-23T12:13:23.020Z</time>
      </trkpt>
      <trkpt lat="42.498167" lon="-5.803177">
        <ele>869</ele>
        <time>2018-07-23T12:13:25.990Z</time>
      </trkpt>
      <trkpt lat="42.498108" lon="-5.803292">
        <ele>869</ele>
        <time>2018-07-23T12:13:29.000Z</time>
      </trkpt>
      <trkpt lat="42.498043" lon="-5.803409">
        <ele>869</ele>
        <time>2018-07-23T12:13:31.990Z</time>
      </trkpt>
      <trkpt lat="42.497972" lon="-5.803531">
        <ele>869</ele>
        <time>2018-07-23T12:13:34.990Z</time>
      </trkpt>
      <trkpt lat="42.497893" lon="-5.803674">
        <ele>869</ele>
        <time>2018-07-23T12:13:37.990Z</time>
      </trkpt>
      <trkpt lat="42.497812" lon="-5.803804">
        <ele>869</ele>
        <time>2018-07-23T12:13:40.990Z</time>
      </trkpt>
      <trkpt lat="42.497723" lon="-5.803894">
        <ele>869</ele>
        <time>2018-07-23T12:13:44.990Z</time>
      </trkpt>
      <trkpt lat="42.497715" lon="-5.804039">
        <ele>869.32</ele>
        <time>2018-07-23T12:13:49.990Z</time>
      </trkpt>
      <trkpt lat="42.497677" lon="-5.804158">
        <ele>870</ele>
        <time>2018-07-23T12:13:54.990Z</time>
      </trkpt>
      <trkpt lat="42.497591" lon="-5.80422">
        <ele>869.6700032</ele>
        <time>2018-07-23T12:14:04.000Z</time>
      </trkpt>
      <trkpt lat="42.497541" lon="-5.804347">
        <ele>870</ele>
        <time>2018-07-23T12:14:07.990Z</time>
      </trkpt>
      <trkpt lat="42.497473" lon="-5.804443">
        <ele>870</ele>
        <time>2018-07-23T12:14:11.990Z</time>
      </trkpt>
      <trkpt lat="42.497422" lon="-5.804549">
        <ele>870</ele>
        <time>2018-07-23T12:14:14.990Z</time>
      </trkpt>
      <trkpt lat="42.497359" lon="-5.804661">
        <ele>869</ele>
        <time>2018-07-23T12:14:19.000Z</time>
      </trkpt>
      <trkpt lat="42.497298" lon="-5.804763">
        <ele>869</ele>
        <time>2018-07-23T12:14:25.990Z</time>
      </trkpt>
      <trkpt lat="42.497345" lon="-5.804623">
        <ele>870</ele>
        <time>2018-07-23T12:14:34.990Z</time>
      </trkpt>
      <trkpt lat="42.497408" lon="-5.804511">
        <ele>869</ele>
        <time>2018-07-23T12:14:37.990Z</time>
      </trkpt>
      <trkpt lat="42.497469" lon="-5.804395">
        <ele>869</ele>
        <time>2018-07-23T12:14:40.990Z</time>
      </trkpt>
      <trkpt lat="42.497527" lon="-5.804282">
        <ele>869</ele>
        <time>2018-07-23T12:14:44.000Z</time>
      </trkpt>
      <trkpt lat="42.497594" lon="-5.80418">
        <ele>869</ele>
        <time>2018-07-23T12:14:46.990Z</time>
      </trkpt>
      <trkpt lat="42.497652" lon="-5.804059">
        <ele>869</ele>
        <time>2018-07-23T12:14:50.990Z</time>
      </trkpt>
      <trkpt lat="42.49769" lon="-5.803944">
        <ele>869</ele>
        <time>2018-07-23T12:14:54.000Z</time>
      </trkpt>
      <trkpt lat="42.497712" lon="-5.803822">
        <ele>869</ele>
        <time>2018-07-23T12:14:56.960Z</time>
      </trkpt>
      <trkpt lat="42.497764" lon="-5.803694">
        <ele>868.68</ele>
        <time>2018-07-23T12:14:59.990Z</time>
      </trkpt>
      <trkpt lat="42.497808" lon="-5.803552">
        <ele>868</ele>
        <time>2018-07-23T12:15:04.000Z</time>
      </trkpt>
      <trkpt lat="42.497851" lon="-5.803427">
        <ele>869</ele>
        <time>2018-07-23T12:15:09.000Z</time>
      </trkpt>
      <trkpt lat="42.497892" lon="-5.803342">
        <ele>869</ele>
        <time>2018-07-23T12:15:22.990Z</time>
      </trkpt>
      <trkpt lat="42.49792" lon="-5.803434">
        <ele>875</ele>
        <time>2018-07-24T05:08:25.000Z</time>
      </trkpt>
      <trkpt lat="42.497917" lon="-5.80345">
        <ele>0</ele>
        <time>2018-07-24T05:08:26.000Z</time>
      </trkpt>
      <trkpt lat="42.497909" lon="-5.803486">
        <ele>873</ele>
        <time>2018-07-24T05:08:28.000Z</time>
      </trkpt>
      <trkpt lat="42.497894" lon="-5.80353">
        <ele>873</ele>
        <time>2018-07-24T05:08:30.000Z</time>
      </trkpt>
      <trkpt lat="42.497888" lon="-5.803554">
        <ele>873</ele>
        <time>2018-07-24T05:08:31.000Z</time>
      </trkpt>
      <trkpt lat="42.497876" lon="-5.8036">
        <ele>873</ele>
        <time>2018-07-24T05:08:33.000Z</time>
      </trkpt>
      <trkpt lat="42.497852" lon="-5.803632">
        <ele>873</ele>
        <time>2018-07-24T05:08:35.000Z</time>
      </trkpt>
      <trkpt lat="42.497837" lon="-5.803668">
        <ele>873</ele>
        <time>2018-07-24T05:08:37.000Z</time>
      </trkpt>
      <trkpt lat="42.497824" lon="-5.803708">
        <ele>873</ele>
        <time>2018-07-24T05:08:39.000Z</time>
      </trkpt>
      <trkpt lat="42.49779" lon="-5.803826">
        <ele>872.414284930605</ele>
        <time>2018-07-24T05:08:44.990Z</time>
      </trkpt>
      <trkpt lat="42.497734" lon="-5.803944">
        <ele>873</ele>
        <time>2018-07-24T05:08:51.990Z</time>
      </trkpt>
      <trkpt lat="42.497683" lon="-5.804052">
        <ele>873</ele>
        <time>2018-07-24T05:08:56.990Z</time>
      </trkpt>
      <trkpt lat="42.497638" lon="-5.804164">
        <ele>873</ele>
        <time>2018-07-24T05:09:01.000Z</time>
      </trkpt>
      <trkpt lat="42.497574" lon="-5.804286">
        <ele>873</ele>
        <time>2018-07-24T05:09:04.990Z</time>
      </trkpt>
      <trkpt lat="42.497516" lon="-5.80441">
        <ele>872</ele>
        <time>2018-07-24T05:09:08.990Z</time>
      </trkpt>
      <trkpt lat="42.497449" lon="-5.804529">
        <ele>872</ele>
        <time>2018-07-24T05:09:12.990Z</time>
      </trkpt>
      <trkpt lat="42.497387" lon="-5.804632">
        <ele>872</ele>
        <time>2018-07-24T05:09:16.000Z</time>
      </trkpt>
      <trkpt lat="42.497319" lon="-5.804745">
        <ele>872</ele>
        <time>2018-07-24T05:09:18.990Z</time>
      </trkpt>
      <trkpt lat="42.497253" lon="-5.804868">
        <ele>872</ele>
        <time>2018-07-24T05:09:21.990Z</time>
      </trkpt>
      <trkpt lat="42.497176" lon="-5.804997">
        <ele>872</ele>
        <time>2018-07-24T05:09:24.990Z</time>
      </trkpt>
      <trkpt lat="42.497097" lon="-5.805135">
        <ele>872</ele>
        <time>2018-07-24T05:09:27.990Z</time>
      </trkpt>
      <trkpt lat="42.497018" lon="-5.805268">
        <ele>872</ele>
        <time>2018-07-24T05:09:31.000Z</time>
      </trkpt>
      <trkpt lat="42.496937" lon="-5.805393">
        <ele>872</ele>
        <time>2018-07-24T05:09:33.990Z</time>
      </trkpt>
      <trkpt lat="42.496865" lon="-5.805534">
        <ele>872</ele>
        <time>2018-07-24T05:09:36.990Z</time>
      </trkpt>
      <trkpt lat="42.496791" lon="-5.805671">
        <ele>872</ele>
        <time>2018-07-24T05:09:39.990Z</time>
      </trkpt>
      <trkpt lat="42.496717" lon="-5.805794">
        <ele>872</ele>
        <time>2018-07-24T05:09:42.990Z</time>
      </trkpt>
      <trkpt lat="42.49665" lon="-5.805915">
        <ele>872</ele>
        <time>2018-07-24T05:09:46.000Z</time>
      </trkpt>
      <trkpt lat="42.496577" lon="-5.806041">
        <ele>872</ele>
        <time>2018-07-24T05:09:48.990Z</time>
      </trkpt>
      <trkpt lat="42.4965" lon="-5.806173">
        <ele>872</ele>
        <time>2018-07-24T05:09:51.990Z</time>
      </trkpt>
      <trkpt lat="42.496422" lon="-5.806306">
        <ele>872</ele>
        <time>2018-07-24T05:09:54.990Z</time>
      </trkpt>
      <trkpt lat="42.496348" lon="-5.806418">
        <ele>872</ele>
        <time>2018-07-24T05:09:57.990Z</time>
      </trkpt>
      <trkpt lat="42.496272" lon="-5.806519">
        <ele>872</ele>
        <time>2018-07-24T05:10:01.000Z</time>
      </trkpt>
      <trkpt lat="42.496201" lon="-5.806615">
        <ele>872</ele>
        <time>2018-07-24T05:10:03.990Z</time>
      </trkpt>
      <trkpt lat="42.496135" lon="-5.806716">
        <ele>872</ele>
        <time>2018-07-24T05:10:06.990Z</time>
      </trkpt>
      <trkpt lat="42.496073" lon="-5.806806">
        <ele>872</ele>
        <time>2018-07-24T05:10:09.990Z</time>
      </trkpt>
      <trkpt lat="42.496007" lon="-5.806904">
        <ele>872</ele>
        <time>2018-07-24T05:10:12.990Z</time>
      </trkpt>
      <trkpt lat="42.495942" lon="-5.807013">
        <ele>872</ele>
        <time>2018-07-24T05:10:16.000Z</time>
      </trkpt>
      <trkpt lat="42.495877" lon="-5.807118">
        <ele>872</ele>
        <time>2018-07-24T05:10:18.990Z</time>
      </trkpt>
      <trkpt lat="42.495811" lon="-5.807236">
        <ele>872</ele>
        <time>2018-07-24T05:10:21.990Z</time>
      </trkpt>
      <trkpt lat="42.495744" lon="-5.807343">
        <ele>872</ele>
        <time>2018-07-24T05:10:24.990Z</time>
      </trkpt>
      <trkpt lat="42.495681" lon="-5.807445">
        <ele>871.4099968</ele>
        <time>2018-07-24T05:10:27.990Z</time>
      </trkpt>
      <trkpt lat="42.495611" lon="-5.807563">
        <ele>871</ele>
        <time>2018-07-24T05:10:31.000Z</time>
      </trkpt>
      <trkpt lat="42.495554" lon="-5.807673">
        <ele>871</ele>
        <time>2018-07-24T05:10:33.990Z</time>
      </trkpt>
      <trkpt lat="42.495497" lon="-5.807773">
        <ele>871</ele>
        <time>2018-07-24T05:10:36.990Z</time>
      </trkpt>
      <trkpt lat="42.495423" lon="-5.807875">
        <ele>871</ele>
        <time>2018-07-24T05:10:39.990Z</time>
      </trkpt>
      <trkpt lat="42.495351" lon="-5.808">
        <ele>871</ele>
        <time>2018-07-24T05:10:42.990Z</time>
      </trkpt>
      <trkpt lat="42.495287" lon="-5.808119">
        <ele>871</ele>
        <time>2018-07-24T05:10:46.000Z</time>
      </trkpt>
      <trkpt lat="42.495211" lon="-5.808191">
        <ele>871</ele>
        <time>2018-07-24T05:10:48.990Z</time>
      </trkpt>
      <trkpt lat="42.495137" lon="-5.808279">
        <ele>871</ele>
        <time>2018-07-24T05:10:51.990Z</time>
      </trkpt>
      <trkpt lat="42.495066" lon="-5.808385">
        <ele>871</ele>
        <time>2018-07-24T05:10:56.000Z</time>
      </trkpt>
      <trkpt lat="42.495001" lon="-5.808507">
        <ele>871</ele>
        <time>2018-07-24T05:11:01.000Z</time>
      </trkpt>
      <trkpt lat="42.494954" lon="-5.808612">
        <ele>871</ele>
        <time>2018-07-24T05:11:04.990Z</time>
      </trkpt>
      <trkpt lat="42.494902" lon="-5.808713">
        <ele>871</ele>
        <time>2018-07-24T05:11:08.990Z</time>
      </trkpt>
      <trkpt lat="42.494843" lon="-5.808841">
        <ele>871</ele>
        <time>2018-07-24T05:11:13.990Z</time>
      </trkpt>
      <trkpt lat="42.49477" lon="-5.808951">
        <ele>871</ele>
        <time>2018-07-24T05:11:17.990Z</time>
      </trkpt>
      <trkpt lat="42.494718" lon="-5.809069">
        <ele>871</ele>
        <time>2018-07-24T05:11:21.990Z</time>
      </trkpt>
      <trkpt lat="42.494655" lon="-5.809192">
        <ele>871</ele>
        <time>2018-07-24T05:11:26.990Z</time>
      </trkpt>
      <trkpt lat="42.49458" lon="-5.809324">
        <ele>871</ele>
        <time>2018-07-24T05:11:31.000Z</time>
      </trkpt>
      <trkpt lat="42.49451" lon="-5.809432">
        <ele>871</ele>
        <time>2018-07-24T05:11:33.990Z</time>
      </trkpt>
      <trkpt lat="42.494451" lon="-5.809545">
        <ele>871</ele>
        <time>2018-07-24T05:11:36.990Z</time>
      </trkpt>
      <trkpt lat="42.494369" lon="-5.809653">
        <ele>870</ele>
        <time>2018-07-24T05:11:39.990Z</time>
      </trkpt>
      <trkpt lat="42.494281" lon="-5.809795">
        <ele>870</ele>
        <time>2018-07-24T05:11:42.990Z</time>
      </trkpt>
      <trkpt lat="42.494197" lon="-5.809938">
        <ele>869</ele>
        <time>2018-07-24T05:11:46.100Z</time>
      </trkpt>
      <trkpt lat="42.494124" lon="-5.810065">
        <ele>869</ele>
        <time>2018-07-24T05:11:48.000Z</time>
      </trkpt>
      <trkpt lat="42.494064" lon="-5.810191">
        <ele>869</ele>
        <time>2018-07-24T05:11:50.000Z</time>
      </trkpt>
      <trkpt lat="42.494002" lon="-5.8103">
        <ele>868.4099968</ele>
        <time>2018-07-24T05:11:51.990Z</time>
      </trkpt>
      <trkpt lat="42.493944" lon="-5.810413">
        <ele>867.714283848384</ele>
        <time>2018-07-24T05:11:53.990Z</time>
      </trkpt>
      <trkpt lat="42.493893" lon="-5.810535">
        <ele>867</ele>
        <time>2018-07-24T05:11:55.990Z</time>
      </trkpt>
      <trkpt lat="42.493836" lon="-5.810673">
        <ele>866</ele>
        <time>2018-07-24T05:11:57.990Z</time>
      </trkpt>
      <trkpt lat="42.493765" lon="-5.810811">
        <ele>866</ele>
        <time>2018-07-24T05:12:00.000Z</time>
      </trkpt>
      <trkpt lat="42.4937" lon="-5.810925">
        <ele>865</ele>
        <time>2018-07-24T05:12:01.990Z</time>
      </trkpt>
      <trkpt lat="42.493637" lon="-5.811025">
        <ele>865</ele>
        <time>2018-07-24T05:12:05.990Z</time>
      </trkpt>
      <trkpt lat="42.493575" lon="-5.811152">
        <ele>865</ele>
        <time>2018-07-24T05:12:10.990Z</time>
      </trkpt>
      <trkpt lat="42.493544" lon="-5.811293">
        <ele>864.577457679064</ele>
        <time>2018-07-24T05:12:13.990Z</time>
      </trkpt>
      <trkpt lat="42.493472" lon="-5.81145">
        <ele>863</ele>
        <time>2018-07-24T05:12:16.990Z</time>
      </trkpt>
      <trkpt lat="42.493415" lon="-5.811567">
        <ele>863</ele>
        <time>2018-07-24T05:12:18.990Z</time>
      </trkpt>
      <trkpt lat="42.493356" lon="-5.811697">
        <ele>862.4099968</ele>
        <time>2018-07-24T05:12:20.990Z</time>
      </trkpt>
      <trkpt lat="42.49329" lon="-5.811833">
        <ele>862</ele>
        <time>2018-07-24T05:12:22.990Z</time>
      </trkpt>
      <trkpt lat="42.493223" lon="-5.811985">
        <ele>862</ele>
        <time>2018-07-24T05:12:25.000Z</time>
      </trkpt>
      <trkpt lat="42.49315" lon="-5.812126">
        <ele>861</ele>
        <time>2018-07-24T05:12:26.990Z</time>
      </trkpt>
      <trkpt lat="42.493082" lon="-5.812263">
        <ele>860.4099968</ele>
        <time>2018-07-24T05:12:28.990Z</time>
      </trkpt>
      <trkpt lat="42.492992" lon="-5.812426">
        <ele>859.4099968</ele>
        <time>2018-07-24T05:12:30.990Z</time>
      </trkpt>
      <trkpt lat="42.492919" lon="-5.81259">
        <ele>859</ele>
        <time>2018-07-24T05:12:32.990Z</time>
      </trkpt>
      <trkpt lat="42.492841" lon="-5.812762">
        <ele>858.579712833451</ele>
        <time>2018-07-24T05:12:35.000Z</time>
      </trkpt>
      <trkpt lat="42.492773" lon="-5.812934">
        <ele>857.418361349477</ele>
        <time>2018-07-24T05:12:36.990Z</time>
      </trkpt>
      <trkpt lat="42.492688" lon="-5.813118">
        <ele>856</ele>
        <time>2018-07-24T05:12:38.990Z</time>
      </trkpt>
      <trkpt lat="42.49262" lon="-5.813282">
        <ele>856</ele>
        <time>2018-07-24T05:12:40.990Z</time>
      </trkpt>
      <trkpt lat="42.49264" lon="-5.813417">
        <ele>855.4099968</ele>
        <time>2018-07-24T05:12:42.990Z</time>
      </trkpt>
      <trkpt lat="42.492716" lon="-5.813495">
        <ele>855</ele>
        <time>2018-07-24T05:12:45.000Z</time>
      </trkpt>
      <trkpt lat="42.492779" lon="-5.813584">
        <ele>855</ele>
        <time>2018-07-24T05:12:46.990Z</time>
      </trkpt>
      <trkpt lat="42.492805" lon="-5.813728">
        <ele>856</ele>
        <time>2018-07-24T05:12:50.000Z</time>
      </trkpt>
      <trkpt lat="42.492733" lon="-5.813868">
        <ele>856</ele>
        <time>2018-07-24T05:12:52.990Z</time>
      </trkpt>
      <trkpt lat="42.492676" lon="-5.813994">
        <ele>855.404039098055</ele>
        <time>2018-07-24T05:12:55.000Z</time>
      </trkpt>
      <trkpt lat="42.492613" lon="-5.814114">
        <ele>854</ele>
        <time>2018-07-24T05:12:56.990Z</time>
      </trkpt>
      <trkpt lat="42.492557" lon="-5.814234">
        <ele>853.4099968</ele>
        <time>2018-07-24T05:12:58.990Z</time>
      </trkpt>
      <trkpt lat="42.492489" lon="-5.814363">
        <ele>853</ele>
        <time>2018-07-24T05:13:00.990Z</time>
      </trkpt>
      <trkpt lat="42.492421" lon="-5.814508">
        <ele>853</ele>
        <time>2018-07-24T05:13:02.990Z</time>
      </trkpt>
      <trkpt lat="42.492354" lon="-5.814647">
        <ele>853</ele>
        <time>2018-07-24T05:13:05.000Z</time>
      </trkpt>
      <trkpt lat="42.492277" lon="-5.814779">
        <ele>853</ele>
        <time>2018-07-24T05:13:06.990Z</time>
      </trkpt>
      <trkpt lat="42.492216" lon="-5.814899">
        <ele>853</ele>
        <time>2018-07-24T05:13:08.990Z</time>
      </trkpt>
      <trkpt lat="42.492146" lon="-5.815045">
        <ele>853</ele>
        <time>2018-07-24T05:13:10.990Z</time>
      </trkpt>
      <trkpt lat="42.492085" lon="-5.815191">
        <ele>853</ele>
        <time>2018-07-24T05:13:12.990Z</time>
      </trkpt>
      <trkpt lat="42.492015" lon="-5.815328">
        <ele>853</ele>
        <time>2018-07-24T05:13:15.000Z</time>
      </trkpt>
      <trkpt lat="42.491935" lon="-5.815454">
        <ele>852.4099968</ele>
        <time>2018-07-24T05:13:16.990Z</time>
      </trkpt>
      <trkpt lat="42.491859" lon="-5.815581">
        <ele>852.405798983416</ele>
        <time>2018-07-24T05:13:18.990Z</time>
      </trkpt>
      <trkpt lat="42.491784" lon="-5.815685">
        <ele>852.4099968</ele>
        <time>2018-07-24T05:13:20.990Z</time>
      </trkpt>
      <trkpt lat="42.491689" lon="-5.815774">
        <ele>852</ele>
        <time>2018-07-24T05:13:22.990Z</time>
      </trkpt>
      <trkpt lat="42.491605" lon="-5.815846">
        <ele>852</ele>
        <time>2018-07-24T05:13:25.000Z</time>
      </trkpt>
      <trkpt lat="42.491508" lon="-5.815925">
        <ele>852</ele>
        <time>2018-07-24T05:13:26.990Z</time>
      </trkpt>
      <trkpt lat="42.491424" lon="-5.816014">
        <ele>852</ele>
        <time>2018-07-24T05:13:28.990Z</time>
      </trkpt>
      <trkpt lat="42.491348" lon="-5.816126">
        <ele>853</ele>
        <time>2018-07-24T05:13:30.990Z</time>
      </trkpt>
      <trkpt lat="42.491282" lon="-5.816233">
        <ele>852</ele>
        <time>2018-07-24T05:13:32.990Z</time>
      </trkpt>
      <trkpt lat="42.49122" lon="-5.816343">
        <ele>852</ele>
        <time>2018-07-24T05:13:35.000Z</time>
      </trkpt>
      <trkpt lat="42.491162" lon="-5.816466">
        <ele>852</ele>
        <time>2018-07-24T05:13:36.990Z</time>
      </trkpt>
      <trkpt lat="42.491109" lon="-5.816593">
        <ele>852</ele>
        <time>2018-07-24T05:13:38.990Z</time>
      </trkpt>
      <trkpt lat="42.491046" lon="-5.816722">
        <ele>852</ele>
        <time>2018-07-24T05:13:40.990Z</time>
      </trkpt>
      <trkpt lat="42.490992" lon="-5.816843">
        <ele>852</ele>
        <time>2018-07-24T05:13:42.990Z</time>
      </trkpt>
      <trkpt lat="42.490932" lon="-5.816958">
        <ele>852</ele>
        <time>2018-07-24T05:13:45.000Z</time>
      </trkpt>
      <trkpt lat="42.490866" lon="-5.817081">
        <ele>852</ele>
        <time>2018-07-24T05:13:46.990Z</time>
      </trkpt>
      <trkpt lat="42.490798" lon="-5.817206">
        <ele>852</ele>
        <time>2018-07-24T05:13:48.990Z</time>
      </trkpt>
      <trkpt lat="42.490729" lon="-5.817326">
        <ele>852</ele>
        <time>2018-07-24T05:13:50.990Z</time>
      </trkpt>
      <trkpt lat="42.490664" lon="-5.817443">
        <ele>852</ele>
        <time>2018-07-24T05:13:52.990Z</time>
      </trkpt>
      <trkpt lat="42.490601" lon="-5.81758">
        <ele>852</ele>
        <time>2018-07-24T05:13:55.000Z</time>
      </trkpt>
      <trkpt lat="42.490538" lon="-5.817696">
        <ele>852.5900032</ele>
        <time>2018-07-24T05:13:56.990Z</time>
      </trkpt>
      <trkpt lat="42.490467" lon="-5.81782">
        <ele>853</ele>
        <time>2018-07-24T05:13:58.990Z</time>
      </trkpt>
      <trkpt lat="42.490397" lon="-5.817951">
        <ele>852</ele>
        <time>2018-07-24T05:14:00.990Z</time>
      </trkpt>
      <trkpt lat="42.490334" lon="-5.818067">
        <ele>852</ele>
        <time>2018-07-24T05:14:02.990Z</time>
      </trkpt>
      <trkpt lat="42.490269" lon="-5.818205">
        <ele>852</ele>
        <time>2018-07-24T05:14:05.000Z</time>
      </trkpt>
      <trkpt lat="42.490203" lon="-5.818314">
        <ele>852</ele>
        <time>2018-07-24T05:14:06.990Z</time>
      </trkpt>
      <trkpt lat="42.490133" lon="-5.81843">
        <ele>852</ele>
        <time>2018-07-24T05:14:08.990Z</time>
      </trkpt>
      <trkpt lat="42.490066" lon="-5.81855">
        <ele>852</ele>
        <time>2018-07-24T05:14:10.990Z</time>
      </trkpt>
      <trkpt lat="42.489999" lon="-5.818669">
        <ele>852</ele>
        <time>2018-07-24T05:14:12.990Z</time>
      </trkpt>
      <trkpt lat="42.489937" lon="-5.818792">
        <ele>852</ele>
        <time>2018-07-24T05:14:15.000Z</time>
      </trkpt>
      <trkpt lat="42.489874" lon="-5.81891">
        <ele>852</ele>
        <time>2018-07-24T05:14:16.990Z</time>
      </trkpt>
      <trkpt lat="42.489814" lon="-5.819027">
        <ele>852</ele>
        <time>2018-07-24T05:14:18.990Z</time>
      </trkpt>
      <trkpt lat="42.489749" lon="-5.819157">
        <ele>852</ele>
        <time>2018-07-24T05:14:20.990Z</time>
      </trkpt>
      <trkpt lat="42.489685" lon="-5.819282">
        <ele>852</ele>
        <time>2018-07-24T05:14:22.990Z</time>
      </trkpt>
      <trkpt lat="42.489619" lon="-5.819402">
        <ele>852</ele>
        <time>2018-07-24T05:14:25.000Z</time>
      </trkpt>
      <trkpt lat="42.489558" lon="-5.819517">
        <ele>852</ele>
        <time>2018-07-24T05:14:26.990Z</time>
      </trkpt>
      <trkpt lat="42.489496" lon="-5.819638">
        <ele>852</ele>
        <time>2018-07-24T05:14:28.990Z</time>
      </trkpt>
      <trkpt lat="42.489429" lon="-5.819763">
        <ele>852</ele>
        <time>2018-07-24T05:14:30.990Z</time>
      </trkpt>
      <trkpt lat="42.489365" lon="-5.819889">
        <ele>852</ele>
        <time>2018-07-24T05:14:32.990Z</time>
      </trkpt>
      <trkpt lat="42.489293" lon="-5.820012">
        <ele>852</ele>
        <time>2018-07-24T05:14:35.000Z</time>
      </trkpt>
      <trkpt lat="42.489232" lon="-5.82013">
        <ele>851.4099968</ele>
        <time>2018-07-24T05:14:36.990Z</time>
      </trkpt>
      <trkpt lat="42.489166" lon="-5.820254">
        <ele>852</ele>
        <time>2018-07-24T05:14:38.990Z</time>
      </trkpt>
      <trkpt lat="42.489095" lon="-5.820387">
        <ele>852</ele>
        <time>2018-07-24T05:14:40.990Z</time>
      </trkpt>
      <trkpt lat="42.489027" lon="-5.820519">
        <ele>852</ele>
        <time>2018-07-24T05:14:42.990Z</time>
      </trkpt>
      <trkpt lat="42.488956" lon="-5.820649">
        <ele>851.465117432849</ele>
        <time>2018-07-24T05:14:45.000Z</time>
      </trkpt>
      <trkpt lat="42.488885" lon="-5.820771">
        <ele>851.4099968</ele>
        <time>2018-07-24T05:14:46.990Z</time>
      </trkpt>
      <trkpt lat="42.488813" lon="-5.820892">
        <ele>851</ele>
        <time>2018-07-24T05:14:48.990Z</time>
      </trkpt>
      <trkpt lat="42.488743" lon="-5.821017">
        <ele>851</ele>
        <time>2018-07-24T05:14:50.990Z</time>
      </trkpt>
      <trkpt lat="42.488678" lon="-5.821142">
        <ele>851</ele>
        <time>2018-07-24T05:14:52.990Z</time>
      </trkpt>
      <trkpt lat="42.488612" lon="-5.821276">
        <ele>851</ele>
        <time>2018-07-24T05:14:55.000Z</time>
      </trkpt>
      <trkpt lat="42.488547" lon="-5.821404">
        <ele>852</ele>
        <time>2018-07-24T05:14:56.990Z</time>
      </trkpt>
      <trkpt lat="42.488482" lon="-5.821535">
        <ele>852</ele>
        <time>2018-07-24T05:14:58.990Z</time>
      </trkpt>
      <trkpt lat="42.488413" lon="-5.821658">
        <ele>851.42708</ele>
        <time>2018-07-24T05:15:00.990Z</time>
      </trkpt>
      <trkpt lat="42.488348" lon="-5.821782">
        <ele>851</ele>
        <time>2018-07-24T05:15:02.990Z</time>
      </trkpt>
      <trkpt lat="42.488272" lon="-5.821921">
        <ele>851</ele>
        <time>2018-07-24T05:15:05.000Z</time>
      </trkpt>
      <trkpt lat="42.488207" lon="-5.822043">
        <ele>851</ele>
        <time>2018-07-24T05:15:06.990Z</time>
      </trkpt>
      <trkpt lat="42.488146" lon="-5.822155">
        <ele>852</ele>
        <time>2018-07-24T05:15:08.990Z</time>
      </trkpt>
      <trkpt lat="42.488086" lon="-5.822272">
        <ele>852</ele>
        <time>2018-07-24T05:15:10.990Z</time>
      </trkpt>
      <trkpt lat="42.488022" lon="-5.8224">
        <ele>852</ele>
        <time>2018-07-24T05:15:12.990Z</time>
      </trkpt>
      <trkpt lat="42.487949" lon="-5.822545">
        <ele>851</ele>
        <time>2018-07-24T05:15:15.000Z</time>
      </trkpt>
      <trkpt lat="42.487875" lon="-5.822693">
        <ele>851</ele>
        <time>2018-07-24T05:15:16.990Z</time>
      </trkpt>
      <trkpt lat="42.487796" lon="-5.822834">
        <ele>850.4099968</ele>
        <time>2018-07-24T05:15:18.990Z</time>
      </trkpt>
      <trkpt lat="42.487721" lon="-5.822962">
        <ele>850</ele>
        <time>2018-07-24T05:15:20.990Z</time>
      </trkpt>
      <trkpt lat="42.487655" lon="-5.823088">
        <ele>850.285716151616</ele>
        <time>2018-07-24T05:15:22.990Z</time>
      </trkpt>
      <trkpt lat="42.487594" lon="-5.823205">
        <ele>851</ele>
        <time>2018-07-24T05:15:25.000Z</time>
      </trkpt>
      <trkpt lat="42.487529" lon="-5.823326">
        <ele>851.5900032</ele>
        <time>2018-07-24T05:15:26.990Z</time>
      </trkpt>
      <trkpt lat="42.487459" lon="-5.823437">
        <ele>852</ele>
        <time>2018-07-24T05:15:28.990Z</time>
      </trkpt>
      <trkpt lat="42.487388" lon="-5.823565">
        <ele>851.594201016584</ele>
        <time>2018-07-24T05:15:30.990Z</time>
      </trkpt>
      <trkpt lat="42.487326" lon="-5.823687">
        <ele>851</ele>
        <time>2018-07-24T05:15:32.990Z</time>
      </trkpt>
      <trkpt lat="42.487257" lon="-5.823816">
        <ele>851</ele>
        <time>2018-07-24T05:15:35.000Z</time>
      </trkpt>
      <trkpt lat="42.487189" lon="-5.823943">
        <ele>851</ele>
        <time>2018-07-24T05:15:36.990Z</time>
      </trkpt>
      <trkpt lat="42.487124" lon="-5.824063">
        <ele>851</ele>
        <time>2018-07-24T05:15:38.990Z</time>
      </trkpt>
      <trkpt lat="42.48706" lon="-5.824181">
        <ele>851</ele>
        <time>2018-07-24T05:15:40.990Z</time>
      </trkpt>
      <trkpt lat="42.486996" lon="-5.824298">
        <ele>851</ele>
        <time>2018-07-24T05:15:42.990Z</time>
      </trkpt>
      <trkpt lat="42.486925" lon="-5.824414">
        <ele>851</ele>
        <time>2018-07-24T05:15:45.000Z</time>
      </trkpt>
      <trkpt lat="42.486859" lon="-5.824531">
        <ele>851</ele>
        <time>2018-07-24T05:15:46.990Z</time>
      </trkpt>
      <trkpt lat="42.486796" lon="-5.824654">
        <ele>851</ele>
        <time>2018-07-24T05:15:48.990Z</time>
      </trkpt>
      <trkpt lat="42.486728" lon="-5.824783">
        <ele>851</ele>
        <time>2018-07-24T05:15:50.990Z</time>
      </trkpt>
      <trkpt lat="42.486663" lon="-5.824908">
        <ele>851</ele>
        <time>2018-07-24T05:15:52.990Z</time>
      </trkpt>
      <trkpt lat="42.486596" lon="-5.825047">
        <ele>851</ele>
        <time>2018-07-24T05:15:55.000Z</time>
      </trkpt>
      <trkpt lat="42.486539" lon="-5.825162">
        <ele>851</ele>
        <time>2018-07-24T05:15:57.000Z</time>
      </trkpt>
      <trkpt lat="42.486474" lon="-5.825291">
        <ele>850.563377742523</ele>
        <time>2018-07-24T05:15:59.000Z</time>
      </trkpt>
      <trkpt lat="42.486402" lon="-5.825421">
        <ele>850</ele>
        <time>2018-07-24T05:16:01.000Z</time>
      </trkpt>
      <trkpt lat="42.48636" lon="-5.825558">
        <ele>850.6</ele>
        <time>2018-07-24T05:16:03.000Z</time>
      </trkpt>
      <trkpt lat="42.486365" lon="-5.825682">
        <ele>851</ele>
        <time>2018-07-24T05:16:05.000Z</time>
      </trkpt>
      <trkpt lat="42.48637" lon="-5.825807">
        <ele>851</ele>
        <time>2018-07-24T05:16:07.000Z</time>
      </trkpt>
      <trkpt lat="42.486324" lon="-5.825942">
        <ele>850.4</ele>
        <time>2018-07-24T05:16:09.000Z</time>
      </trkpt>
      <trkpt lat="42.486256" lon="-5.82604">
        <ele>850</ele>
        <time>2018-07-24T05:16:10.990Z</time>
      </trkpt>
      <trkpt lat="42.486179" lon="-5.826185">
        <ele>850</ele>
        <time>2018-07-24T05:16:14.000Z</time>
      </trkpt>
      <trkpt lat="42.486127" lon="-5.826299">
        <ele>850</ele>
        <time>2018-07-24T05:16:15.990Z</time>
      </trkpt>
      <trkpt lat="42.486077" lon="-5.826405">
        <ele>850</ele>
        <time>2018-07-24T05:16:17.990Z</time>
      </trkpt>
      <trkpt lat="42.486031" lon="-5.826525">
        <ele>850</ele>
        <time>2018-07-24T05:16:19.990Z</time>
      </trkpt>
      <trkpt lat="42.485987" lon="-5.826647">
        <ele>850</ele>
        <time>2018-07-24T05:16:21.990Z</time>
      </trkpt>
      <trkpt lat="42.485945" lon="-5.826761">
        <ele>850</ele>
        <time>2018-07-24T05:16:24.000Z</time>
      </trkpt>
      <trkpt lat="42.485903" lon="-5.826875">
        <ele>850</ele>
        <time>2018-07-24T05:16:25.990Z</time>
      </trkpt>
      <trkpt lat="42.485859" lon="-5.826992">
        <ele>850</ele>
        <time>2018-07-24T05:16:27.990Z</time>
      </trkpt>
      <trkpt lat="42.485813" lon="-5.82712">
        <ele>850</ele>
        <time>2018-07-24T05:16:29.990Z</time>
      </trkpt>
      <trkpt lat="42.485769" lon="-5.827252">
        <ele>850</ele>
        <time>2018-07-24T05:16:31.990Z</time>
      </trkpt>
      <trkpt lat="42.485734" lon="-5.827387">
        <ele>850</ele>
        <time>2018-07-24T05:16:34.000Z</time>
      </trkpt>
      <trkpt lat="42.48569" lon="-5.827513">
        <ele>850</ele>
        <time>2018-07-24T05:16:35.990Z</time>
      </trkpt>
      <trkpt lat="42.48565" lon="-5.827639">
        <ele>850</ele>
        <time>2018-07-24T05:16:37.990Z</time>
      </trkpt>
      <trkpt lat="42.485608" lon="-5.827768">
        <ele>850</ele>
        <time>2018-07-24T05:16:39.990Z</time>
      </trkpt>
      <trkpt lat="42.485574" lon="-5.827896">
        <ele>850</ele>
        <time>2018-07-24T05:16:41.990Z</time>
      </trkpt>
      <trkpt lat="42.485547" lon="-5.828033">
        <ele>850</ele>
        <time>2018-07-24T05:16:44.000Z</time>
      </trkpt>
      <trkpt lat="42.485505" lon="-5.828153">
        <ele>850</ele>
        <time>2018-07-24T05:16:45.990Z</time>
      </trkpt>
      <trkpt lat="42.485461" lon="-5.828282">
        <ele>850</ele>
        <time>2018-07-24T05:16:47.990Z</time>
      </trkpt>
      <trkpt lat="42.485415" lon="-5.828407">
        <ele>850</ele>
        <time>2018-07-24T05:16:49.990Z</time>
      </trkpt>
      <trkpt lat="42.48538" lon="-5.82854">
        <ele>850</ele>
        <time>2018-07-24T05:16:51.990Z</time>
      </trkpt>
      <trkpt lat="42.48535" lon="-5.828678">
        <ele>850</ele>
        <time>2018-07-24T05:16:54.000Z</time>
      </trkpt>
      <trkpt lat="42.485329" lon="-5.828812">
        <ele>850</ele>
        <time>2018-07-24T05:16:55.990Z</time>
      </trkpt>
      <trkpt lat="42.485307" lon="-5.828935">
        <ele>850</ele>
        <time>2018-07-24T05:16:57.990Z</time>
      </trkpt>
      <trkpt lat="42.485285" lon="-5.829063">
        <ele>850</ele>
        <time>2018-07-24T05:16:59.990Z</time>
      </trkpt>
      <trkpt lat="42.485256" lon="-5.829183">
        <ele>849</ele>
        <time>2018-07-24T05:17:01.990Z</time>
      </trkpt>
      <trkpt lat="42.485184" lon="-5.829301">
        <ele>850</ele>
        <time>2018-07-24T05:17:04.990Z</time>
      </trkpt>
      <trkpt lat="42.485091" lon="-5.829283">
        <ele>850</ele>
        <time>2018-07-24T05:17:09.990Z</time>
      </trkpt>
      <trkpt lat="42.484999" lon="-5.82924">
        <ele>850</ele>
        <time>2018-07-24T05:17:14.990Z</time>
      </trkpt>
      <trkpt lat="42.484912" lon="-5.829202">
        <ele>850</ele>
        <time>2018-07-24T05:17:17.990Z</time>
      </trkpt>
      <trkpt lat="42.484825" lon="-5.829166">
        <ele>850</ele>
        <time>2018-07-24T05:17:20.990Z</time>
      </trkpt>
      <trkpt lat="42.484736" lon="-5.829133">
        <ele>850</ele>
        <time>2018-07-24T05:17:24.000Z</time>
      </trkpt>
      <trkpt lat="42.484628" lon="-5.829106">
        <ele>851</ele>
        <time>2018-07-24T05:17:27.990Z</time>
      </trkpt>
      <trkpt lat="42.484526" lon="-5.829057">
        <ele>851</ele>
        <time>2018-07-24T05:17:32.990Z</time>
      </trkpt>
      <trkpt lat="42.484452" lon="-5.829134">
        <ele>850</ele>
        <time>2018-07-24T05:17:36.990Z</time>
      </trkpt>
      <trkpt lat="42.484373" lon="-5.829238">
        <ele>850</ele>
        <time>2018-07-24T05:17:39.990Z</time>
      </trkpt>
      <trkpt lat="42.484314" lon="-5.829337">
        <ele>850</ele>
        <time>2018-07-24T05:17:41.990Z</time>
      </trkpt>
      <trkpt lat="42.484252" lon="-5.829447">
        <ele>850</ele>
        <time>2018-07-24T05:17:44.000Z</time>
      </trkpt>
      <trkpt lat="42.484193" lon="-5.829559">
        <ele>850</ele>
        <time>2018-07-24T05:17:45.990Z</time>
      </trkpt>
      <trkpt lat="42.48413" lon="-5.829663">
        <ele>850</ele>
        <time>2018-07-24T05:17:47.990Z</time>
      </trkpt>
      <trkpt lat="42.484067" lon="-5.829779">
        <ele>850</ele>
        <time>2018-07-24T05:17:49.990Z</time>
      </trkpt>
      <trkpt lat="42.484002" lon="-5.829894">
        <ele>850</ele>
        <time>2018-07-24T05:17:51.990Z</time>
      </trkpt>
      <trkpt lat="42.483941" lon="-5.830007">
        <ele>850</ele>
        <time>2018-07-24T05:17:54.000Z</time>
      </trkpt>
      <trkpt lat="42.483876" lon="-5.830124">
        <ele>850</ele>
        <time>2018-07-24T05:17:55.990Z</time>
      </trkpt>
      <trkpt lat="42.483814" lon="-5.830235">
        <ele>850</ele>
        <time>2018-07-24T05:17:57.990Z</time>
      </trkpt>
      <trkpt lat="42.483753" lon="-5.830339">
        <ele>850</ele>
        <time>2018-07-24T05:17:59.990Z</time>
      </trkpt>
      <trkpt lat="42.483689" lon="-5.830448">
        <ele>850</ele>
        <time>2018-07-24T05:18:01.990Z</time>
      </trkpt>
      <trkpt lat="42.483621" lon="-5.830572">
        <ele>850</ele>
        <time>2018-07-24T05:18:04.000Z</time>
      </trkpt>
      <trkpt lat="42.483552" lon="-5.830688">
        <ele>850</ele>
        <time>2018-07-24T05:18:05.990Z</time>
      </trkpt>
      <trkpt lat="42.483485" lon="-5.830816">
        <ele>850</ele>
        <time>2018-07-24T05:18:07.990Z</time>
      </trkpt>
      <trkpt lat="42.483429" lon="-5.830928">
        <ele>850</ele>
        <time>2018-07-24T05:18:09.990Z</time>
      </trkpt>
      <trkpt lat="42.483379" lon="-5.83103">
        <ele>849.4099968</ele>
        <time>2018-07-24T05:18:11.990Z</time>
      </trkpt>
      <trkpt lat="42.483318" lon="-5.831156">
        <ele>850</ele>
        <time>2018-07-24T05:18:14.990Z</time>
      </trkpt>
      <trkpt lat="42.483261" lon="-5.831263">
        <ele>850</ele>
        <time>2018-07-24T05:18:16.990Z</time>
      </trkpt>
      <trkpt lat="42.483199" lon="-5.831386">
        <ele>849</ele>
        <time>2018-07-24T05:18:19.000Z</time>
      </trkpt>
      <trkpt lat="42.483134" lon="-5.831506">
        <ele>849</ele>
        <time>2018-07-24T05:18:20.990Z</time>
      </trkpt>
      <trkpt lat="42.483071" lon="-5.831626">
        <ele>849</ele>
        <time>2018-07-24T05:18:22.990Z</time>
      </trkpt>
      <trkpt lat="42.483003" lon="-5.831758">
        <ele>848</ele>
        <time>2018-07-24T05:18:24.990Z</time>
      </trkpt>
      <trkpt lat="42.482937" lon="-5.831882">
        <ele>848</ele>
        <time>2018-07-24T05:18:26.990Z</time>
      </trkpt>
      <trkpt lat="42.482866" lon="-5.832014">
        <ele>848</ele>
        <time>2018-07-24T05:18:29.000Z</time>
      </trkpt>
      <trkpt lat="42.482801" lon="-5.832145">
        <ele>848</ele>
        <time>2018-07-24T05:18:30.990Z</time>
      </trkpt>
      <trkpt lat="42.482734" lon="-5.832288">
        <ele>848</ele>
        <time>2018-07-24T05:18:32.990Z</time>
      </trkpt>
      <trkpt lat="42.482661" lon="-5.832434">
        <ele>847.4099968</ele>
        <time>2018-07-24T05:18:34.990Z</time>
      </trkpt>
      <trkpt lat="42.48259" lon="-5.83257">
        <ele>846</ele>
        <time>2018-07-24T05:18:36.990Z</time>
      </trkpt>
      <trkpt lat="42.482513" lon="-5.832718">
        <ele>846</ele>
        <time>2018-07-24T05:18:39.000Z</time>
      </trkpt>
      <trkpt lat="42.482434" lon="-5.83286">
        <ele>846</ele>
        <time>2018-07-24T05:18:40.990Z</time>
      </trkpt>
      <trkpt lat="42.482353" lon="-5.833002">
        <ele>846</ele>
        <time>2018-07-24T05:18:42.990Z</time>
      </trkpt>
      <trkpt lat="42.482276" lon="-5.833144">
        <ele>846</ele>
        <time>2018-07-24T05:18:44.990Z</time>
      </trkpt>
      <trkpt lat="42.482199" lon="-5.833283">
        <ele>846</ele>
        <time>2018-07-24T05:18:46.990Z</time>
      </trkpt>
      <trkpt lat="42.482132" lon="-5.83341">
        <ele>846</ele>
        <time>2018-07-24T05:18:49.000Z</time>
      </trkpt>
      <trkpt lat="42.482068" lon="-5.833527">
        <ele>846</ele>
        <time>2018-07-24T05:18:50.990Z</time>
      </trkpt>
      <trkpt lat="42.482007" lon="-5.833638">
        <ele>846</ele>
        <time>2018-07-24T05:18:52.990Z</time>
      </trkpt>
      <trkpt lat="42.48194" lon="-5.833758">
        <ele>846</ele>
        <time>2018-07-24T05:18:54.990Z</time>
      </trkpt>
      <trkpt lat="42.481872" lon="-5.833872">
        <ele>846</ele>
        <time>2018-07-24T05:18:56.990Z</time>
      </trkpt>
      <trkpt lat="42.481804" lon="-5.834">
        <ele>846</ele>
        <time>2018-07-24T05:18:59.000Z</time>
      </trkpt>
      <trkpt lat="42.481739" lon="-5.834119">
        <ele>846</ele>
        <time>2018-07-24T05:19:00.990Z</time>
      </trkpt>
      <trkpt lat="42.48167" lon="-5.834245">
        <ele>846</ele>
        <time>2018-07-24T05:19:02.990Z</time>
      </trkpt>
      <trkpt lat="42.481604" lon="-5.83437">
        <ele>846</ele>
        <time>2018-07-24T05:19:04.990Z</time>
      </trkpt>
      <trkpt lat="42.481534" lon="-5.834494">
        <ele>846</ele>
        <time>2018-07-24T05:19:06.990Z</time>
      </trkpt>
      <trkpt lat="42.481466" lon="-5.834625">
        <ele>846</ele>
        <time>2018-07-24T05:19:09.000Z</time>
      </trkpt>
      <trkpt lat="42.481398" lon="-5.834761">
        <ele>846</ele>
        <time>2018-07-24T05:19:11.000Z</time>
      </trkpt>
      <trkpt lat="42.481328" lon="-5.834889">
        <ele>846</ele>
        <time>2018-07-24T05:19:13.000Z</time>
      </trkpt>
      <trkpt lat="42.481256" lon="-5.835022">
        <ele>846</ele>
        <time>2018-07-24T05:19:15.000Z</time>
      </trkpt>
      <trkpt lat="42.481188" lon="-5.835148">
        <ele>846</ele>
        <time>2018-07-24T05:19:17.000Z</time>
      </trkpt>
      <trkpt lat="42.481116" lon="-5.835277">
        <ele>846</ele>
        <time>2018-07-24T05:19:19.000Z</time>
      </trkpt>
      <trkpt lat="42.481048" lon="-5.835411">
        <ele>846</ele>
        <time>2018-07-24T05:19:21.000Z</time>
      </trkpt>
      <trkpt lat="42.480984" lon="-5.835546">
        <ele>845</ele>
        <time>2018-07-24T05:19:23.000Z</time>
      </trkpt>
      <trkpt lat="42.480924" lon="-5.835681">
        <ele>845.6</ele>
        <time>2018-07-24T05:19:25.000Z</time>
      </trkpt>
      <trkpt lat="42.480874" lon="-5.835781">
        <ele>846</ele>
        <time>2018-07-24T05:19:27.000Z</time>
      </trkpt>
      <trkpt lat="42.480812" lon="-5.835937">
        <ele>846</ele>
        <time>2018-07-24T05:19:30.000Z</time>
      </trkpt>
      <trkpt lat="42.480748" lon="-5.836062">
        <ele>846</ele>
        <time>2018-07-24T05:19:33.000Z</time>
      </trkpt>
      <trkpt lat="42.4807" lon="-5.836167">
        <ele>846</ele>
        <time>2018-07-24T05:19:36.000Z</time>
      </trkpt>
      <trkpt lat="42.480644" lon="-5.836288">
        <ele>846</ele>
        <time>2018-07-24T05:19:41.000Z</time>
      </trkpt>
      <trkpt lat="42.480566" lon="-5.83638">
        <ele>846</ele>
        <time>2018-07-24T05:19:45.000Z</time>
      </trkpt>
      <trkpt lat="42.480474" lon="-5.836512">
        <ele>846</ele>
        <time>2018-07-24T05:19:48.000Z</time>
      </trkpt>
      <trkpt lat="42.480412" lon="-5.836628">
        <ele>845.01840683503</ele>
        <time>2018-07-24T05:19:50.000Z</time>
      </trkpt>
      <trkpt lat="42.480346" lon="-5.83675">
        <ele>845</ele>
        <time>2018-07-24T05:19:52.000Z</time>
      </trkpt>
      <trkpt lat="42.48028" lon="-5.836874">
        <ele>845</ele>
        <time>2018-07-24T05:19:54.000Z</time>
      </trkpt>
      <trkpt lat="42.480214" lon="-5.836995">
        <ele>845</ele>
        <time>2018-07-24T05:19:56.000Z</time>
      </trkpt>
      <trkpt lat="42.480152" lon="-5.837114">
        <ele>845</ele>
        <time>2018-07-24T05:19:58.000Z</time>
      </trkpt>
      <trkpt lat="42.480089" lon="-5.837231">
        <ele>845</ele>
        <time>2018-07-24T05:20:00.000Z</time>
      </trkpt>
      <trkpt lat="42.480027" lon="-5.837345">
        <ele>845</ele>
        <time>2018-07-24T05:20:02.000Z</time>
      </trkpt>
      <trkpt lat="42.479964" lon="-5.837461">
        <ele>845</ele>
        <time>2018-07-24T05:20:04.000Z</time>
      </trkpt>
      <trkpt lat="42.4799" lon="-5.837577">
        <ele>845</ele>
        <time>2018-07-24T05:20:06.000Z</time>
      </trkpt>
      <trkpt lat="42.479835" lon="-5.837696">
        <ele>845</ele>
        <time>2018-07-24T05:20:08.000Z</time>
      </trkpt>
      <trkpt lat="42.479767" lon="-5.837817">
        <ele>845</ele>
        <time>2018-07-24T05:20:10.000Z</time>
      </trkpt>
      <trkpt lat="42.479695" lon="-5.83794">
        <ele>845</ele>
        <time>2018-07-24T05:20:11.990Z</time>
      </trkpt>
      <trkpt lat="42.479624" lon="-5.838065">
        <ele>845</ele>
        <time>2018-07-24T05:20:13.990Z</time>
      </trkpt>
      <trkpt lat="42.479552" lon="-5.838189">
        <ele>845</ele>
        <time>2018-07-24T05:20:16.000Z</time>
      </trkpt>
      <trkpt lat="42.479483" lon="-5.838315">
        <ele>845</ele>
        <time>2018-07-24T05:20:17.990Z</time>
      </trkpt>
      <trkpt lat="42.479414" lon="-5.838447">
        <ele>845</ele>
        <time>2018-07-24T05:20:19.990Z</time>
      </trkpt>
      <trkpt lat="42.479354" lon="-5.838565">
        <ele>845</ele>
        <time>2018-07-24T05:20:21.990Z</time>
      </trkpt>
      <trkpt lat="42.479281" lon="-5.838694">
        <ele>845</ele>
        <time>2018-07-24T05:20:23.990Z</time>
      </trkpt>
      <trkpt lat="42.479216" lon="-5.838821">
        <ele>845</ele>
        <time>2018-07-24T05:20:26.000Z</time>
      </trkpt>
      <trkpt lat="42.479146" lon="-5.838946">
        <ele>845</ele>
        <time>2018-07-24T05:20:27.990Z</time>
      </trkpt>
      <trkpt lat="42.479077" lon="-5.839071">
        <ele>845</ele>
        <time>2018-07-24T05:20:29.990Z</time>
      </trkpt>
      <trkpt lat="42.47901" lon="-5.839206">
        <ele>845</ele>
        <time>2018-07-24T05:20:31.990Z</time>
      </trkpt>
      <trkpt lat="42.478945" lon="-5.839328">
        <ele>845</ele>
        <time>2018-07-24T05:20:33.990Z</time>
      </trkpt>
      <trkpt lat="42.478879" lon="-5.839458">
        <ele>845</ele>
        <time>2018-07-24T05:20:36.000Z</time>
      </trkpt>
      <trkpt lat="42.478817" lon="-5.839575">
        <ele>845</ele>
        <time>2018-07-24T05:20:37.990Z</time>
      </trkpt>
      <trkpt lat="42.478751" lon="-5.839692">
        <ele>845</ele>
        <time>2018-07-24T05:20:39.990Z</time>
      </trkpt>
      <trkpt lat="42.478684" lon="-5.839819">
        <ele>845</ele>
        <time>2018-07-24T05:20:41.990Z</time>
      </trkpt>
      <trkpt lat="42.478618" lon="-5.839955">
        <ele>845</ele>
        <time>2018-07-24T05:20:43.990Z</time>
      </trkpt>
      <trkpt lat="42.478545" lon="-5.840093">
        <ele>845</ele>
        <time>2018-07-24T05:20:46.000Z</time>
      </trkpt>
      <trkpt lat="42.478475" lon="-5.840228">
        <ele>845</ele>
        <time>2018-07-24T05:20:47.990Z</time>
      </trkpt>
      <trkpt lat="42.478403" lon="-5.840358">
        <ele>845</ele>
        <time>2018-07-24T05:20:49.990Z</time>
      </trkpt>
      <trkpt lat="42.478332" lon="-5.84049">
        <ele>845</ele>
        <time>2018-07-24T05:20:51.990Z</time>
      </trkpt>
      <trkpt lat="42.478257" lon="-5.840625">
        <ele>845</ele>
        <time>2018-07-24T05:20:53.990Z</time>
      </trkpt>
      <trkpt lat="42.478184" lon="-5.840761">
        <ele>845</ele>
        <time>2018-07-24T05:20:56.000Z</time>
      </trkpt>
      <trkpt lat="42.478106" lon="-5.8409">
        <ele>845</ele>
        <time>2018-07-24T05:20:57.990Z</time>
      </trkpt>
      <trkpt lat="42.478031" lon="-5.841035">
        <ele>845</ele>
        <time>2018-07-24T05:20:59.990Z</time>
      </trkpt>
      <trkpt lat="42.477963" lon="-5.841161">
        <ele>844</ele>
        <time>2018-07-24T05:21:01.990Z</time>
      </trkpt>
      <trkpt lat="42.477894" lon="-5.84128">
        <ele>845</ele>
        <time>2018-07-24T05:21:03.990Z</time>
      </trkpt>
      <trkpt lat="42.477822" lon="-5.841412">
        <ele>845</ele>
        <time>2018-07-24T05:21:06.000Z</time>
      </trkpt>
      <trkpt lat="42.477744" lon="-5.841544">
        <ele>845</ele>
        <time>2018-07-24T05:21:07.990Z</time>
      </trkpt>
      <trkpt lat="42.477667" lon="-5.841684">
        <ele>845</ele>
        <time>2018-07-24T05:21:09.990Z</time>
      </trkpt>
      <trkpt lat="42.477597" lon="-5.841825">
        <ele>845</ele>
        <time>2018-07-24T05:21:11.990Z</time>
      </trkpt>
      <trkpt lat="42.47752" lon="-5.841961">
        <ele>844</ele>
        <time>2018-07-24T05:21:13.990Z</time>
      </trkpt>
      <trkpt lat="42.477451" lon="-5.842094">
        <ele>844</ele>
        <time>2018-07-24T05:21:16.000Z</time>
      </trkpt>
      <trkpt lat="42.477382" lon="-5.842233">
        <ele>844</ele>
        <time>2018-07-24T05:21:17.990Z</time>
      </trkpt>
      <trkpt lat="42.477307" lon="-5.842369">
        <ele>844</ele>
        <time>2018-07-24T05:21:19.990Z</time>
      </trkpt>
      <trkpt lat="42.477235" lon="-5.842504">
        <ele>844</ele>
        <time>2018-07-24T05:21:21.990Z</time>
      </trkpt>
      <trkpt lat="42.477155" lon="-5.842652">
        <ele>844</ele>
        <time>2018-07-24T05:21:23.990Z</time>
      </trkpt>
      <trkpt lat="42.477087" lon="-5.842786">
        <ele>844</ele>
        <time>2018-07-24T05:21:26.000Z</time>
      </trkpt>
      <trkpt lat="42.477021" lon="-5.842912">
        <ele>844</ele>
        <time>2018-07-24T05:21:27.990Z</time>
      </trkpt>
      <trkpt lat="42.476954" lon="-5.843032">
        <ele>844</ele>
        <time>2018-07-24T05:21:29.990Z</time>
      </trkpt>
      <trkpt lat="42.476886" lon="-5.843162">
        <ele>844</ele>
        <time>2018-07-24T05:21:31.990Z</time>
      </trkpt>
      <trkpt lat="42.476821" lon="-5.843299">
        <ele>842.4099968</ele>
        <time>2018-07-24T05:21:33.990Z</time>
      </trkpt>
      <trkpt lat="42.476763" lon="-5.843444">
        <ele>842</ele>
        <time>2018-07-24T05:21:36.000Z</time>
      </trkpt>
      <trkpt lat="42.476704" lon="-5.843587">
        <ele>842</ele>
        <time>2018-07-24T05:21:37.990Z</time>
      </trkpt>
      <trkpt lat="42.476636" lon="-5.843726">
        <ele>841.4099968</ele>
        <time>2018-07-24T05:21:39.990Z</time>
      </trkpt>
      <trkpt lat="42.476556" lon="-5.843877">
        <ele>840</ele>
        <time>2018-07-24T05:21:42.990Z</time>
      </trkpt>
      <trkpt lat="42.476493" lon="-5.844009">
        <ele>840</ele>
        <time>2018-07-24T05:21:44.990Z</time>
      </trkpt>
      <trkpt lat="42.476429" lon="-5.844132">
        <ele>840</ele>
        <time>2018-07-24T05:21:47.990Z</time>
      </trkpt>
      <trkpt lat="42.476363" lon="-5.844283">
        <ele>840</ele>
        <time>2018-07-24T05:21:51.000Z</time>
      </trkpt>
      <trkpt lat="42.476299" lon="-5.844402">
        <ele>840</ele>
        <time>2018-07-24T05:21:52.990Z</time>
      </trkpt>
      <trkpt lat="42.476234" lon="-5.844518">
        <ele>839</ele>
        <time>2018-07-24T05:21:54.990Z</time>
      </trkpt>
      <trkpt lat="42.476171" lon="-5.844635">
        <ele>839</ele>
        <time>2018-07-24T05:21:56.990Z</time>
      </trkpt>
      <trkpt lat="42.476082" lon="-5.844768">
        <ele>839</ele>
        <time>2018-07-24T05:21:59.990Z</time>
      </trkpt>
      <trkpt lat="42.476017" lon="-5.844889">
        <ele>838</ele>
        <time>2018-07-24T05:22:02.990Z</time>
      </trkpt>
      <trkpt lat="42.475964" lon="-5.845003">
        <ele>838</ele>
        <time>2018-07-24T05:22:04.990Z</time>
      </trkpt>
      <trkpt lat="42.475894" lon="-5.845136">
        <ele>838</ele>
        <time>2018-07-24T05:22:07.990Z</time>
      </trkpt>
      <trkpt lat="42.475839" lon="-5.845244">
        <ele>838</ele>
        <time>2018-07-24T05:22:11.000Z</time>
      </trkpt>
      <trkpt lat="42.47577" lon="-5.845359">
        <ele>838</ele>
        <time>2018-07-24T05:22:14.990Z</time>
      </trkpt>
      <trkpt lat="42.475706" lon="-5.845463">
        <ele>838</ele>
        <time>2018-07-24T05:22:17.990Z</time>
      </trkpt>
      <trkpt lat="42.475623" lon="-5.84558">
        <ele>837.577457679064</ele>
        <time>2018-07-24T05:22:21.990Z</time>
      </trkpt>
      <trkpt lat="42.475538" lon="-5.845722">
        <ele>837</ele>
        <time>2018-07-24T05:22:24.990Z</time>
      </trkpt>
      <trkpt lat="42.475475" lon="-5.845829">
        <ele>837</ele>
        <time>2018-07-24T05:22:26.990Z</time>
      </trkpt>
      <trkpt lat="42.475421" lon="-5.845934">
        <ele>837</ele>
        <time>2018-07-24T05:22:28.990Z</time>
      </trkpt>
      <trkpt lat="42.475362" lon="-5.846062">
        <ele>837</ele>
        <time>2018-07-24T05:22:31.990Z</time>
      </trkpt>
      <trkpt lat="42.4753" lon="-5.846163">
        <ele>837</ele>
        <time>2018-07-24T05:22:36.000Z</time>
      </trkpt>
      <trkpt lat="42.475241" lon="-5.846283">
        <ele>838</ele>
        <time>2018-07-24T05:22:43.000Z</time>
      </trkpt>
      <trkpt lat="42.475193" lon="-5.846407">
        <ele>837</ele>
        <time>2018-07-24T05:22:48.990Z</time>
      </trkpt>
      <trkpt lat="42.475129" lon="-5.846529">
        <ele>837</ele>
        <time>2018-07-24T05:22:53.000Z</time>
      </trkpt>
      <trkpt lat="42.475067" lon="-5.84665">
        <ele>837</ele>
        <time>2018-07-24T05:22:56.990Z</time>
      </trkpt>
      <trkpt lat="42.474998" lon="-5.84677">
        <ele>837</ele>
        <time>2018-07-24T05:23:01.000Z</time>
      </trkpt>
      <trkpt lat="42.474941" lon="-5.846866">
        <ele>837</ele>
        <time>2018-07-24T05:23:03.000Z</time>
      </trkpt>
      <trkpt lat="42.474892" lon="-5.846972">
        <ele>837</ele>
        <time>2018-07-24T05:23:05.990Z</time>
      </trkpt>
      <trkpt lat="42.4748" lon="-5.847104">
        <ele>837</ele>
        <time>2018-07-24T05:23:14.000Z</time>
      </trkpt>
      <trkpt lat="42.474732" lon="-5.84722">
        <ele>837</ele>
        <time>2018-07-24T05:23:18.000Z</time>
      </trkpt>
      <trkpt lat="42.474694" lon="-5.847333">
        <ele>837</ele>
        <time>2018-07-24T05:23:25.000Z</time>
      </trkpt>
      <trkpt lat="42.474628" lon="-5.847426">
        <ele>837</ele>
        <time>2018-07-24T05:23:31.000Z</time>
      </trkpt>
      <trkpt lat="42.474577" lon="-5.847536">
        <ele>838</ele>
        <time>2018-07-24T05:23:37.990Z</time>
      </trkpt>
      <trkpt lat="42.474514" lon="-5.84764">
        <ele>838</ele>
        <time>2018-07-24T05:23:42.000Z</time>
      </trkpt>
      <trkpt lat="42.474454" lon="-5.847758">
        <ele>838</ele>
        <time>2018-07-24T05:23:45.990Z</time>
      </trkpt>
      <trkpt lat="42.474396" lon="-5.847879">
        <ele>837.4099968</ele>
        <time>2018-07-24T05:23:48.990Z</time>
      </trkpt>
      <trkpt lat="42.474345" lon="-5.847982">
        <ele>837</ele>
        <time>2018-07-24T05:23:50.990Z</time>
      </trkpt>
      <trkpt lat="42.474283" lon="-5.848081">
        <ele>837</ele>
        <time>2018-07-24T05:23:52.990Z</time>
      </trkpt>
      <trkpt lat="42.474205" lon="-5.848194">
        <ele>837</ele>
        <time>2018-07-24T05:23:54.990Z</time>
      </trkpt>
      <trkpt lat="42.47415" lon="-5.848308">
        <ele>837</ele>
        <time>2018-07-24T05:23:57.000Z</time>
      </trkpt>
      <trkpt lat="42.474097" lon="-5.848414">
        <ele>837</ele>
        <time>2018-07-24T05:23:58.990Z</time>
      </trkpt>
      <trkpt lat="42.474034" lon="-5.848524">
        <ele>837</ele>
        <time>2018-07-24T05:24:00.990Z</time>
      </trkpt>
      <trkpt lat="42.473977" lon="-5.848622">
        <ele>837</ele>
        <time>2018-07-24T05:24:02.990Z</time>
      </trkpt>
      <trkpt lat="42.473917" lon="-5.848727">
        <ele>837</ele>
        <time>2018-07-24T05:24:04.990Z</time>
      </trkpt>
      <trkpt lat="42.47386" lon="-5.848836">
        <ele>837</ele>
        <time>2018-07-24T05:24:07.000Z</time>
      </trkpt>
      <trkpt lat="42.47381" lon="-5.848946">
        <ele>837</ele>
        <time>2018-07-24T05:24:08.990Z</time>
      </trkpt>
      <trkpt lat="42.473743" lon="-5.849097">
        <ele>837</ele>
        <time>2018-07-24T05:24:12.000Z</time>
      </trkpt>
      <trkpt lat="42.473686" lon="-5.849215">
        <ele>837</ele>
        <time>2018-07-24T05:24:14.990Z</time>
      </trkpt>
      <trkpt lat="42.473596" lon="-5.849328">
        <ele>836</ele>
        <time>2018-07-24T05:24:18.990Z</time>
      </trkpt>
      <trkpt lat="42.473525" lon="-5.849439">
        <ele>836</ele>
        <time>2018-07-24T05:24:22.000Z</time>
      </trkpt>
      <trkpt lat="42.473445" lon="-5.849597">
        <ele>836</ele>
        <time>2018-07-24T05:24:24.990Z</time>
      </trkpt>
      <trkpt lat="42.473387" lon="-5.849713">
        <ele>836</ele>
        <time>2018-07-24T05:24:27.000Z</time>
      </trkpt>
      <trkpt lat="42.473325" lon="-5.849816">
        <ele>836</ele>
        <time>2018-07-24T05:24:28.990Z</time>
      </trkpt>
      <trkpt lat="42.47326" lon="-5.849928">
        <ele>836</ele>
        <time>2018-07-24T05:24:30.990Z</time>
      </trkpt>
      <trkpt lat="42.47319" lon="-5.85005">
        <ele>836</ele>
        <time>2018-07-24T05:24:33.990Z</time>
      </trkpt>
      <trkpt lat="42.473123" lon="-5.850164">
        <ele>836</ele>
        <time>2018-07-24T05:24:37.990Z</time>
      </trkpt>
      <trkpt lat="42.473053" lon="-5.850311">
        <ele>836</ele>
        <time>2018-07-24T05:24:40.990Z</time>
      </trkpt>
      <trkpt lat="42.472974" lon="-5.850466">
        <ele>836</ele>
        <time>2018-07-24T05:24:43.990Z</time>
      </trkpt>
      <trkpt lat="42.472916" lon="-5.850579">
        <ele>836</ele>
        <time>2018-07-24T05:24:45.990Z</time>
      </trkpt>
      <trkpt lat="42.472864" lon="-5.850698">
        <ele>836</ele>
        <time>2018-07-24T05:24:47.990Z</time>
      </trkpt>
      <trkpt lat="42.472801" lon="-5.850821">
        <ele>836</ele>
        <time>2018-07-24T05:24:49.990Z</time>
      </trkpt>
      <trkpt lat="42.47274" lon="-5.850932">
        <ele>836</ele>
        <time>2018-07-24T05:24:52.000Z</time>
      </trkpt>
      <trkpt lat="42.472682" lon="-5.851051">
        <ele>836</ele>
        <time>2018-07-24T05:24:53.990Z</time>
      </trkpt>
      <trkpt lat="42.472616" lon="-5.851168">
        <ele>836</ele>
        <time>2018-07-24T05:24:55.990Z</time>
      </trkpt>
      <trkpt lat="42.47254" lon="-5.851316">
        <ele>835</ele>
        <time>2018-07-24T05:24:58.990Z</time>
      </trkpt>
      <trkpt lat="42.472459" lon="-5.851466">
        <ele>835</ele>
        <time>2018-07-24T05:25:02.000Z</time>
      </trkpt>
      <trkpt lat="42.472402" lon="-5.851567">
        <ele>835</ele>
        <time>2018-07-24T05:25:03.990Z</time>
      </trkpt>
      <trkpt lat="42.47234" lon="-5.85168">
        <ele>835</ele>
        <time>2018-07-24T05:25:05.990Z</time>
      </trkpt>
      <trkpt lat="42.472273" lon="-5.851807">
        <ele>835</ele>
        <time>2018-07-24T05:25:07.990Z</time>
      </trkpt>
      <trkpt lat="42.472203" lon="-5.851935">
        <ele>835</ele>
        <time>2018-07-24T05:25:09.990Z</time>
      </trkpt>
      <trkpt lat="42.472129" lon="-5.852069">
        <ele>835</ele>
        <time>2018-07-24T05:25:12.000Z</time>
      </trkpt>
      <trkpt lat="42.472063" lon="-5.852197">
        <ele>835</ele>
        <time>2018-07-24T05:25:13.990Z</time>
      </trkpt>
      <trkpt lat="42.471998" lon="-5.852315">
        <ele>835</ele>
        <time>2018-07-24T05:25:15.990Z</time>
      </trkpt>
      <trkpt lat="42.471938" lon="-5.852436">
        <ele>835</ele>
        <time>2018-07-24T05:25:17.990Z</time>
      </trkpt>
      <trkpt lat="42.471869" lon="-5.85256">
        <ele>835</ele>
        <time>2018-07-24T05:25:19.990Z</time>
      </trkpt>
      <trkpt lat="42.471801" lon="-5.852688">
        <ele>835</ele>
        <time>2018-07-24T05:25:22.000Z</time>
      </trkpt>
      <trkpt lat="42.471738" lon="-5.852801">
        <ele>835</ele>
        <time>2018-07-24T05:25:23.990Z</time>
      </trkpt>
      <trkpt lat="42.471676" lon="-5.852919">
        <ele>835</ele>
        <time>2018-07-24T05:25:27.000Z</time>
      </trkpt>
      <trkpt lat="42.471614" lon="-5.853027">
        <ele>835</ele>
        <time>2018-07-24T05:25:30.990Z</time>
      </trkpt>
      <trkpt lat="42.471556" lon="-5.853132">
        <ele>835</ele>
        <time>2018-07-24T05:25:33.990Z</time>
      </trkpt>
      <trkpt lat="42.471496" lon="-5.853246">
        <ele>835</ele>
        <time>2018-07-24T05:25:37.000Z</time>
      </trkpt>
      <trkpt lat="42.471435" lon="-5.853368">
        <ele>835</ele>
        <time>2018-07-24T05:25:39.990Z</time>
      </trkpt>
      <trkpt lat="42.471361" lon="-5.853517">
        <ele>835</ele>
        <time>2018-07-24T05:25:42.990Z</time>
      </trkpt>
      <trkpt lat="42.471273" lon="-5.853654">
        <ele>835</ele>
        <time>2018-07-24T05:25:45.990Z</time>
      </trkpt>
      <trkpt lat="42.471216" lon="-5.853759">
        <ele>835</ele>
        <time>2018-07-24T05:25:47.990Z</time>
      </trkpt>
      <trkpt lat="42.471155" lon="-5.853873">
        <ele>835</ele>
        <time>2018-07-24T05:25:49.990Z</time>
      </trkpt>
      <trkpt lat="42.471091" lon="-5.853991">
        <ele>835</ele>
        <time>2018-07-24T05:25:52.000Z</time>
      </trkpt>
      <trkpt lat="42.471031" lon="-5.854109">
        <ele>835</ele>
        <time>2018-07-24T05:25:53.990Z</time>
      </trkpt>
      <trkpt lat="42.470967" lon="-5.854223">
        <ele>835</ele>
        <time>2018-07-24T05:25:55.990Z</time>
      </trkpt>
      <trkpt lat="42.470897" lon="-5.854353">
        <ele>835</ele>
        <time>2018-07-24T05:25:57.990Z</time>
      </trkpt>
      <trkpt lat="42.470828" lon="-5.854485">
        <ele>835</ele>
        <time>2018-07-24T05:25:59.990Z</time>
      </trkpt>
      <trkpt lat="42.470764" lon="-5.854617">
        <ele>835</ele>
        <time>2018-07-24T05:26:02.000Z</time>
      </trkpt>
      <trkpt lat="42.470694" lon="-5.854759">
        <ele>835</ele>
        <time>2018-07-24T05:26:03.990Z</time>
      </trkpt>
      <trkpt lat="42.470624" lon="-5.854893">
        <ele>835</ele>
        <time>2018-07-24T05:26:05.990Z</time>
      </trkpt>
      <trkpt lat="42.47056" lon="-5.855024">
        <ele>834.4099968</ele>
        <time>2018-07-24T05:26:07.990Z</time>
      </trkpt>
      <trkpt lat="42.470492" lon="-5.855152">
        <ele>834</ele>
        <time>2018-07-24T05:26:09.990Z</time>
      </trkpt>
      <trkpt lat="42.470426" lon="-5.855274">
        <ele>834</ele>
        <time>2018-07-24T05:26:12.000Z</time>
      </trkpt>
      <trkpt lat="42.470354" lon="-5.855401">
        <ele>834</ele>
        <time>2018-07-24T05:26:13.990Z</time>
      </trkpt>
      <trkpt lat="42.470285" lon="-5.855527">
        <ele>834</ele>
        <time>2018-07-24T05:26:15.990Z</time>
      </trkpt>
      <trkpt lat="42.47022" lon="-5.85566">
        <ele>834</ele>
        <time>2018-07-24T05:26:17.990Z</time>
      </trkpt>
      <trkpt lat="42.47015" lon="-5.855784">
        <ele>834</ele>
        <time>2018-07-24T05:26:19.990Z</time>
      </trkpt>
      <trkpt lat="42.470076" lon="-5.855906">
        <ele>835</ele>
        <time>2018-07-24T05:26:22.000Z</time>
      </trkpt>
      <trkpt lat="42.470004" lon="-5.856019">
        <ele>835</ele>
        <time>2018-07-24T05:26:23.990Z</time>
      </trkpt>
      <trkpt lat="42.469942" lon="-5.856138">
        <ele>835</ele>
        <time>2018-07-24T05:26:25.990Z</time>
      </trkpt>
      <trkpt lat="42.469873" lon="-5.856271">
        <ele>835</ele>
        <time>2018-07-24T05:26:27.990Z</time>
      </trkpt>
      <trkpt lat="42.469804" lon="-5.856389">
        <ele>835</ele>
        <time>2018-07-24T05:26:29.990Z</time>
      </trkpt>
      <trkpt lat="42.469732" lon="-5.856518">
        <ele>835</ele>
        <time>2018-07-24T05:26:32.000Z</time>
      </trkpt>
      <trkpt lat="42.469654" lon="-5.856645">
        <ele>835</ele>
        <time>2018-07-24T05:26:33.990Z</time>
      </trkpt>
      <trkpt lat="42.469588" lon="-5.856769">
        <ele>835</ele>
        <time>2018-07-24T05:26:35.990Z</time>
      </trkpt>
      <trkpt lat="42.469518" lon="-5.856894">
        <ele>835</ele>
        <time>2018-07-24T05:26:37.990Z</time>
      </trkpt>
      <trkpt lat="42.469454" lon="-5.857018">
        <ele>835</ele>
        <time>2018-07-24T05:26:39.990Z</time>
      </trkpt>
      <trkpt lat="42.469393" lon="-5.85715">
        <ele>834</ele>
        <time>2018-07-24T05:26:42.000Z</time>
      </trkpt>
      <trkpt lat="42.469326" lon="-5.857271">
        <ele>834</ele>
        <time>2018-07-24T05:26:43.990Z</time>
      </trkpt>
      <trkpt lat="42.469262" lon="-5.85739">
        <ele>834</ele>
        <time>2018-07-24T05:26:45.990Z</time>
      </trkpt>
      <trkpt lat="42.469199" lon="-5.857504">
        <ele>834</ele>
        <time>2018-07-24T05:26:47.990Z</time>
      </trkpt>
      <trkpt lat="42.469138" lon="-5.857621">
        <ele>834</ele>
        <time>2018-07-24T05:26:49.990Z</time>
      </trkpt>
      <trkpt lat="42.469078" lon="-5.857738">
        <ele>834</ele>
        <time>2018-07-24T05:26:52.000Z</time>
      </trkpt>
      <trkpt lat="42.469016" lon="-5.85786">
        <ele>834</ele>
        <time>2018-07-24T05:26:53.990Z</time>
      </trkpt>
      <trkpt lat="42.468957" lon="-5.857982">
        <ele>834</ele>
        <time>2018-07-24T05:26:55.990Z</time>
      </trkpt>
      <trkpt lat="42.468894" lon="-5.858096">
        <ele>834</ele>
        <time>2018-07-24T05:26:57.990Z</time>
      </trkpt>
      <trkpt lat="42.468838" lon="-5.858208">
        <ele>834</ele>
        <time>2018-07-24T05:26:59.990Z</time>
      </trkpt>
      <trkpt lat="42.468788" lon="-5.858313">
        <ele>834.594061288115</ele>
        <time>2018-07-24T05:27:02.000Z</time>
      </trkpt>
      <trkpt lat="42.468693" lon="-5.858399">
        <ele>835</ele>
        <time>2018-07-24T05:27:05.990Z</time>
      </trkpt>
      <trkpt lat="42.468632" lon="-5.858497">
        <ele>835</ele>
        <time>2018-07-24T05:27:10.990Z</time>
      </trkpt>
      <trkpt lat="42.468581" lon="-5.858604">
        <ele>835</ele>
        <time>2018-07-24T05:27:13.990Z</time>
      </trkpt>
      <trkpt lat="42.468517" lon="-5.858729">
        <ele>835</ele>
        <time>2018-07-24T05:27:17.000Z</time>
      </trkpt>
      <trkpt lat="42.468442" lon="-5.858888">
        <ele>834.4099968</ele>
        <time>2018-07-24T05:27:19.990Z</time>
      </trkpt>
      <trkpt lat="42.468378" lon="-5.859016">
        <ele>835</ele>
        <time>2018-07-24T05:27:22.000Z</time>
      </trkpt>
      <trkpt lat="42.468307" lon="-5.859137">
        <ele>835</ele>
        <time>2018-07-24T05:27:23.990Z</time>
      </trkpt>
      <trkpt lat="42.468242" lon="-5.859261">
        <ele>835</ele>
        <time>2018-07-24T05:27:25.990Z</time>
      </trkpt>
      <trkpt lat="42.468178" lon="-5.859376">
        <ele>835</ele>
        <time>2018-07-24T05:27:27.990Z</time>
      </trkpt>
      <trkpt lat="42.468118" lon="-5.859499">
        <ele>835</ele>
        <time>2018-07-24T05:27:29.990Z</time>
      </trkpt>
      <trkpt lat="42.468049" lon="-5.859614">
        <ele>835.588235294118</ele>
        <time>2018-07-24T05:27:32.000Z</time>
      </trkpt>
      <trkpt lat="42.467982" lon="-5.859739">
        <ele>835</ele>
        <time>2018-07-24T05:27:33.990Z</time>
      </trkpt>
      <trkpt lat="42.467914" lon="-5.859846">
        <ele>835</ele>
        <time>2018-07-24T05:27:35.990Z</time>
      </trkpt>
      <trkpt lat="42.467842" lon="-5.859977">
        <ele>835</ele>
        <time>2018-07-24T05:27:37.990Z</time>
      </trkpt>
      <trkpt lat="42.467761" lon="-5.860116">
        <ele>834</ele>
        <time>2018-07-24T05:27:39.990Z</time>
      </trkpt>
      <trkpt lat="42.467694" lon="-5.860257">
        <ele>834</ele>
        <time>2018-07-24T05:27:42.000Z</time>
      </trkpt>
      <trkpt lat="42.467617" lon="-5.860394">
        <ele>833</ele>
        <time>2018-07-24T05:27:43.990Z</time>
      </trkpt>
      <trkpt lat="42.46754" lon="-5.860533">
        <ele>833</ele>
        <time>2018-07-24T05:27:45.990Z</time>
      </trkpt>
      <trkpt lat="42.467467" lon="-5.860674">
        <ele>833.405798983416</ele>
        <time>2018-07-24T05:27:47.990Z</time>
      </trkpt>
      <trkpt lat="42.467388" lon="-5.860813">
        <ele>834</ele>
        <time>2018-07-24T05:27:49.990Z</time>
      </trkpt>
      <trkpt lat="42.467315" lon="-5.860955">
        <ele>834</ele>
        <time>2018-07-24T05:27:52.000Z</time>
      </trkpt>
      <trkpt lat="42.46724" lon="-5.861102">
        <ele>833</ele>
        <time>2018-07-24T05:27:53.990Z</time>
      </trkpt>
      <trkpt lat="42.467164" lon="-5.861245">
        <ele>833</ele>
        <time>2018-07-24T05:27:55.990Z</time>
      </trkpt>
      <trkpt lat="42.467087" lon="-5.861386">
        <ele>833</ele>
        <time>2018-07-24T05:27:57.990Z</time>
      </trkpt>
      <trkpt lat="42.467002" lon="-5.861524">
        <ele>833</ele>
        <time>2018-07-24T05:27:59.990Z</time>
      </trkpt>
      <trkpt lat="42.466929" lon="-5.861669">
        <ele>833</ele>
        <time>2018-07-24T05:28:02.000Z</time>
      </trkpt>
      <trkpt lat="42.466853" lon="-5.861811">
        <ele>833</ele>
        <time>2018-07-24T05:28:03.990Z</time>
      </trkpt>
      <trkpt lat="42.46677" lon="-5.861958">
        <ele>833</ele>
        <time>2018-07-24T05:28:05.990Z</time>
      </trkpt>
      <trkpt lat="42.466696" lon="-5.862103">
        <ele>833</ele>
        <time>2018-07-24T05:28:07.990Z</time>
      </trkpt>
      <trkpt lat="42.466618" lon="-5.862249">
        <ele>833</ele>
        <time>2018-07-24T05:28:09.990Z</time>
      </trkpt>
      <trkpt lat="42.466547" lon="-5.862392">
        <ele>833</ele>
        <time>2018-07-24T05:28:12.000Z</time>
      </trkpt>
      <trkpt lat="42.466473" lon="-5.86253">
        <ele>833</ele>
        <time>2018-07-24T05:28:13.990Z</time>
      </trkpt>
      <trkpt lat="42.466397" lon="-5.86268">
        <ele>833</ele>
        <time>2018-07-24T05:28:15.990Z</time>
      </trkpt>
      <trkpt lat="42.466322" lon="-5.862826">
        <ele>833</ele>
        <time>2018-07-24T05:28:17.990Z</time>
      </trkpt>
      <trkpt lat="42.466242" lon="-5.862971">
        <ele>833</ele>
        <time>2018-07-24T05:28:19.990Z</time>
      </trkpt>
      <trkpt lat="42.466161" lon="-5.863119">
        <ele>833</ele>
        <time>2018-07-24T05:28:22.000Z</time>
      </trkpt>
      <trkpt lat="42.466092" lon="-5.86326">
        <ele>833</ele>
        <time>2018-07-24T05:28:23.990Z</time>
      </trkpt>
      <trkpt lat="42.466011" lon="-5.8634">
        <ele>833</ele>
        <time>2018-07-24T05:28:25.990Z</time>
      </trkpt>
      <trkpt lat="42.465936" lon="-5.863538">
        <ele>833</ele>
        <time>2018-07-24T05:28:27.990Z</time>
      </trkpt>
      <trkpt lat="42.465862" lon="-5.863678">
        <ele>833</ele>
        <time>2018-07-24T05:28:29.990Z</time>
      </trkpt>
      <trkpt lat="42.465784" lon="-5.863816">
        <ele>833</ele>
        <time>2018-07-24T05:28:32.000Z</time>
      </trkpt>
      <trkpt lat="42.465703" lon="-5.863964">
        <ele>833</ele>
        <time>2018-07-24T05:28:33.990Z</time>
      </trkpt>
      <trkpt lat="42.465628" lon="-5.864113">
        <ele>833</ele>
        <time>2018-07-24T05:28:35.990Z</time>
      </trkpt>
      <trkpt lat="42.46555" lon="-5.86425">
        <ele>833</ele>
        <time>2018-07-24T05:28:37.990Z</time>
      </trkpt>
      <trkpt lat="42.465473" lon="-5.864382">
        <ele>833</ele>
        <time>2018-07-24T05:28:39.990Z</time>
      </trkpt>
      <trkpt lat="42.465392" lon="-5.864522">
        <ele>833</ele>
        <time>2018-07-24T05:28:42.000Z</time>
      </trkpt>
      <trkpt lat="42.465312" lon="-5.864662">
        <ele>833</ele>
        <time>2018-07-24T05:28:43.990Z</time>
      </trkpt>
      <trkpt lat="42.465238" lon="-5.864804">
        <ele>833</ele>
        <time>2018-07-24T05:28:45.990Z</time>
      </trkpt>
      <trkpt lat="42.465166" lon="-5.864945">
        <ele>833</ele>
        <time>2018-07-24T05:28:47.990Z</time>
      </trkpt>
      <trkpt lat="42.465093" lon="-5.865086">
        <ele>833</ele>
        <time>2018-07-24T05:28:49.990Z</time>
      </trkpt>
      <trkpt lat="42.46502" lon="-5.86523">
        <ele>833</ele>
        <time>2018-07-24T05:28:52.000Z</time>
      </trkpt>
      <trkpt lat="42.46495" lon="-5.865363">
        <ele>833</ele>
        <time>2018-07-24T05:28:53.990Z</time>
      </trkpt>
      <trkpt lat="42.464878" lon="-5.865505">
        <ele>833</ele>
        <time>2018-07-24T05:28:55.990Z</time>
      </trkpt>
      <trkpt lat="42.464805" lon="-5.865647">
        <ele>833</ele>
        <time>2018-07-24T05:28:57.990Z</time>
      </trkpt>
      <trkpt lat="42.464737" lon="-5.865777">
        <ele>833</ele>
        <time>2018-07-24T05:28:59.990Z</time>
      </trkpt>
      <trkpt lat="42.464673" lon="-5.865901">
        <ele>833</ele>
        <time>2018-07-24T05:29:02.000Z</time>
      </trkpt>
      <trkpt lat="42.464604" lon="-5.866028">
        <ele>833.5900032</ele>
        <time>2018-07-24T05:29:03.990Z</time>
      </trkpt>
      <trkpt lat="42.464545" lon="-5.866146">
        <ele>834</ele>
        <time>2018-07-24T05:29:05.990Z</time>
      </trkpt>
      <trkpt lat="42.464568" lon="-5.86631">
        <ele>833</ele>
        <time>2018-07-24T05:29:08.990Z</time>
      </trkpt>
      <trkpt lat="42.4646" lon="-5.866456">
        <ele>833</ele>
        <time>2018-07-24T05:29:12.000Z</time>
      </trkpt>
      <trkpt lat="42.464615" lon="-5.866592">
        <ele>833</ele>
        <time>2018-07-24T05:29:14.990Z</time>
      </trkpt>
      <trkpt lat="42.464631" lon="-5.866737">
        <ele>834</ele>
        <time>2018-07-24T05:29:17.990Z</time>
      </trkpt>
      <trkpt lat="42.46465" lon="-5.866873">
        <ele>834</ele>
        <time>2018-07-24T05:29:20.990Z</time>
      </trkpt>
      <trkpt lat="42.464682" lon="-5.867012">
        <ele>834</ele>
        <time>2018-07-24T05:29:23.990Z</time>
      </trkpt>
      <trkpt lat="42.464692" lon="-5.867145">
        <ele>834</ele>
        <time>2018-07-24T05:29:27.000Z</time>
      </trkpt>
      <trkpt lat="42.464684" lon="-5.867302">
        <ele>834</ele>
        <time>2018-07-24T05:29:29.990Z</time>
      </trkpt>
      <trkpt lat="42.464673" lon="-5.867475">
        <ele>834</ele>
        <time>2018-07-24T05:29:32.990Z</time>
      </trkpt>
      <trkpt lat="42.464662" lon="-5.867596">
        <ele>833</ele>
        <time>2018-07-24T05:29:34.990Z</time>
      </trkpt>
      <trkpt lat="42.464645" lon="-5.867722">
        <ele>833</ele>
        <time>2018-07-24T05:29:37.000Z</time>
      </trkpt>
      <trkpt lat="42.464629" lon="-5.867845">
        <ele>833</ele>
        <time>2018-07-24T05:29:39.000Z</time>
      </trkpt>
      <trkpt lat="42.464618" lon="-5.868024">
        <ele>833</ele>
        <time>2018-07-24T05:29:42.000Z</time>
      </trkpt>
      <trkpt lat="42.464606" lon="-5.868149">
        <ele>833</ele>
        <time>2018-07-24T05:29:44.000Z</time>
      </trkpt>
      <trkpt lat="42.464586" lon="-5.868333">
        <ele>833</ele>
        <time>2018-07-24T05:29:47.000Z</time>
      </trkpt>
      <trkpt lat="42.464573" lon="-5.868461">
        <ele>833</ele>
        <time>2018-07-24T05:29:49.000Z</time>
      </trkpt>
      <trkpt lat="42.464557" lon="-5.868587">
        <ele>833</ele>
        <time>2018-07-24T05:29:50.990Z</time>
      </trkpt>
      <trkpt lat="42.464533" lon="-5.868718">
        <ele>833</ele>
        <time>2018-07-24T05:29:52.990Z</time>
      </trkpt>
      <trkpt lat="42.464516" lon="-5.868849">
        <ele>833</ele>
        <time>2018-07-24T05:29:54.990Z</time>
      </trkpt>
      <trkpt lat="42.464502" lon="-5.868975">
        <ele>833</ele>
        <time>2018-07-24T05:29:56.990Z</time>
      </trkpt>
      <trkpt lat="42.46449" lon="-5.869105">
        <ele>833</ele>
        <time>2018-07-24T05:29:59.000Z</time>
      </trkpt>
      <trkpt lat="42.464472" lon="-5.869232">
        <ele>833</ele>
        <time>2018-07-24T05:30:00.990Z</time>
      </trkpt>
      <trkpt lat="42.464457" lon="-5.869411">
        <ele>833</ele>
        <time>2018-07-24T05:30:04.000Z</time>
      </trkpt>
      <trkpt lat="42.464454" lon="-5.869537">
        <ele>833</ele>
        <time>2018-07-24T05:30:09.000Z</time>
      </trkpt>
      <trkpt lat="42.464431" lon="-5.869656">
        <ele>833</ele>
        <time>2018-07-24T05:30:12.990Z</time>
      </trkpt>
      <trkpt lat="42.464397" lon="-5.869782">
        <ele>833</ele>
        <time>2018-07-24T05:30:15.990Z</time>
      </trkpt>
      <trkpt lat="42.464375" lon="-5.869939">
        <ele>833</ele>
        <time>2018-07-24T05:30:19.000Z</time>
      </trkpt>
      <trkpt lat="42.464369" lon="-5.870067">
        <ele>833</ele>
        <time>2018-07-24T05:30:20.990Z</time>
      </trkpt>
      <trkpt lat="42.464364" lon="-5.870206">
        <ele>833</ele>
        <time>2018-07-24T05:30:22.990Z</time>
      </trkpt>
      <trkpt lat="42.464362" lon="-5.870347">
        <ele>833</ele>
        <time>2018-07-24T05:30:24.990Z</time>
      </trkpt>
      <trkpt lat="42.464344" lon="-5.8705">
        <ele>832.4099968</ele>
        <time>2018-07-24T05:30:26.990Z</time>
      </trkpt>
      <trkpt lat="42.464328" lon="-5.870645">
        <ele>832</ele>
        <time>2018-07-24T05:30:29.000Z</time>
      </trkpt>
      <trkpt lat="42.464307" lon="-5.870792">
        <ele>832</ele>
        <time>2018-07-24T05:30:30.990Z</time>
      </trkpt>
      <trkpt lat="42.464287" lon="-5.870946">
        <ele>832</ele>
        <time>2018-07-24T05:30:32.990Z</time>
      </trkpt>
      <trkpt lat="42.464266" lon="-5.87109">
        <ele>832</ele>
        <time>2018-07-24T05:30:34.990Z</time>
      </trkpt>
      <trkpt lat="42.464245" lon="-5.871241">
        <ele>832</ele>
        <time>2018-07-24T05:30:36.990Z</time>
      </trkpt>
      <trkpt lat="42.464225" lon="-5.871391">
        <ele>832</ele>
        <time>2018-07-24T05:30:39.000Z</time>
      </trkpt>
      <trkpt lat="42.464205" lon="-5.871546">
        <ele>832</ele>
        <time>2018-07-24T05:30:40.990Z</time>
      </trkpt>
      <trkpt lat="42.464189" lon="-5.871696">
        <ele>831.4099968</ele>
        <time>2018-07-24T05:30:42.990Z</time>
      </trkpt>
      <trkpt lat="42.464175" lon="-5.871842">
        <ele>831</ele>
        <time>2018-07-24T05:30:44.990Z</time>
      </trkpt>
      <trkpt lat="42.464157" lon="-5.871993">
        <ele>831</ele>
        <time>2018-07-24T05:30:46.990Z</time>
      </trkpt>
      <trkpt lat="42.46414" lon="-5.872133">
        <ele>831</ele>
        <time>2018-07-24T05:30:49.000Z</time>
      </trkpt>
      <trkpt lat="42.464115" lon="-5.872283">
        <ele>831</ele>
        <time>2018-07-24T05:30:50.990Z</time>
      </trkpt>
      <trkpt lat="42.464087" lon="-5.872432">
        <ele>831</ele>
        <time>2018-07-24T05:30:52.990Z</time>
      </trkpt>
      <trkpt lat="42.464062" lon="-5.872576">
        <ele>830.577457679064</ele>
        <time>2018-07-24T05:30:54.990Z</time>
      </trkpt>
      <trkpt lat="42.464037" lon="-5.872717">
        <ele>830</ele>
        <time>2018-07-24T05:30:56.990Z</time>
      </trkpt>
      <trkpt lat="42.464015" lon="-5.872873">
        <ele>830</ele>
        <time>2018-07-24T05:30:59.000Z</time>
      </trkpt>
      <trkpt lat="42.463996" lon="-5.873019">
        <ele>830</ele>
        <time>2018-07-24T05:31:00.990Z</time>
      </trkpt>
      <trkpt lat="42.463984" lon="-5.873171">
        <ele>830</ele>
        <time>2018-07-24T05:31:02.990Z</time>
      </trkpt>
      <trkpt lat="42.46397" lon="-5.873329">
        <ele>830</ele>
        <time>2018-07-24T05:31:04.990Z</time>
      </trkpt>
      <trkpt lat="42.46395" lon="-5.873489">
        <ele>830</ele>
        <time>2018-07-24T05:31:06.990Z</time>
      </trkpt>
      <trkpt lat="42.463943" lon="-5.873642">
        <ele>830</ele>
        <time>2018-07-24T05:31:09.000Z</time>
      </trkpt>
      <trkpt lat="42.463936" lon="-5.873794">
        <ele>829.4099968</ele>
        <time>2018-07-24T05:31:10.990Z</time>
      </trkpt>
      <trkpt lat="42.463932" lon="-5.873945">
        <ele>829</ele>
        <time>2018-07-24T05:31:12.990Z</time>
      </trkpt>
      <trkpt lat="42.463935" lon="-5.874082">
        <ele>829</ele>
        <time>2018-07-24T05:31:14.990Z</time>
      </trkpt>
      <trkpt lat="42.463937" lon="-5.874261">
        <ele>829</ele>
        <time>2018-07-24T05:31:17.990Z</time>
      </trkpt>
      <trkpt lat="42.463935" lon="-5.874433">
        <ele>829</ele>
        <time>2018-07-24T05:31:20.990Z</time>
      </trkpt>
      <trkpt lat="42.463928" lon="-5.874607">
        <ele>829</ele>
        <time>2018-07-24T05:31:24.000Z</time>
      </trkpt>
      <trkpt lat="42.463932" lon="-5.874789">
        <ele>830</ele>
        <time>2018-07-24T05:31:26.990Z</time>
      </trkpt>
      <trkpt lat="42.463931" lon="-5.874913">
        <ele>830</ele>
        <time>2018-07-24T05:31:29.000Z</time>
      </trkpt>
      <trkpt lat="42.463928" lon="-5.875096">
        <ele>830</ele>
        <time>2018-07-24T05:31:31.990Z</time>
      </trkpt>
      <trkpt lat="42.463928" lon="-5.875277">
        <ele>830</ele>
        <time>2018-07-24T05:31:34.990Z</time>
      </trkpt>
      <trkpt lat="42.463928" lon="-5.875408">
        <ele>830</ele>
        <time>2018-07-24T05:31:36.990Z</time>
      </trkpt>
      <trkpt lat="42.463928" lon="-5.875535">
        <ele>830</ele>
        <time>2018-07-24T05:31:39.000Z</time>
      </trkpt>
      <trkpt lat="42.463928" lon="-5.875716">
        <ele>830</ele>
        <time>2018-07-24T05:31:41.990Z</time>
      </trkpt>
      <trkpt lat="42.463928" lon="-5.875894">
        <ele>830</ele>
        <time>2018-07-24T05:31:44.990Z</time>
      </trkpt>
      <trkpt lat="42.463935" lon="-5.876017">
        <ele>830</ele>
        <time>2018-07-24T05:31:46.990Z</time>
      </trkpt>
      <trkpt lat="42.46394" lon="-5.876198">
        <ele>830</ele>
        <time>2018-07-24T05:31:49.990Z</time>
      </trkpt>
      <trkpt lat="42.463935" lon="-5.876376">
        <ele>830.5900032</ele>
        <time>2018-07-24T05:31:52.990Z</time>
      </trkpt>
      <trkpt lat="42.463931" lon="-5.876498">
        <ele>831</ele>
        <time>2018-07-24T05:31:54.990Z</time>
      </trkpt>
      <trkpt lat="42.463922" lon="-5.876666">
        <ele>831</ele>
        <time>2018-07-24T05:31:57.990Z</time>
      </trkpt>
      <trkpt lat="42.463926" lon="-5.876822">
        <ele>830.816331861759</ele>
        <time>2018-07-24T05:32:01.000Z</time>
      </trkpt>
      <trkpt lat="42.463922" lon="-5.876974">
        <ele>831</ele>
        <time>2018-07-24T05:32:05.990Z</time>
      </trkpt>
      <trkpt lat="42.463882" lon="-5.877124">
        <ele>830</ele>
        <time>2018-07-24T05:32:10.000Z</time>
      </trkpt>
      <trkpt lat="42.463891" lon="-5.877256">
        <ele>829</ele>
        <time>2018-07-24T05:32:12.990Z</time>
      </trkpt>
      <trkpt lat="42.463901" lon="-5.877417">
        <ele>829</ele>
        <time>2018-07-24T05:32:15.990Z</time>
      </trkpt>
      <trkpt lat="42.463911" lon="-5.877588">
        <ele>828</ele>
        <time>2018-07-24T05:32:18.990Z</time>
      </trkpt>
      <trkpt lat="42.463938" lon="-5.87777">
        <ele>828</ele>
        <time>2018-07-24T05:32:21.990Z</time>
      </trkpt>
      <trkpt lat="42.463957" lon="-5.87794">
        <ele>828</ele>
        <time>2018-07-24T05:32:25.000Z</time>
      </trkpt>
      <trkpt lat="42.463966" lon="-5.878105">
        <ele>828</ele>
        <time>2018-07-24T05:32:27.990Z</time>
      </trkpt>
      <trkpt lat="42.463993" lon="-5.878258">
        <ele>828</ele>
        <time>2018-07-24T05:32:30.990Z</time>
      </trkpt>
      <trkpt lat="42.46401" lon="-5.878423">
        <ele>828</ele>
        <time>2018-07-24T05:32:33.990Z</time>
      </trkpt>
      <trkpt lat="42.464029" lon="-5.878564">
        <ele>828</ele>
        <time>2018-07-24T05:32:36.990Z</time>
      </trkpt>
      <trkpt lat="42.464043" lon="-5.878708">
        <ele>829</ele>
        <time>2018-07-24T05:32:40.000Z</time>
      </trkpt>
      <trkpt lat="42.464052" lon="-5.878874">
        <ele>828.577457679064</ele>
        <time>2018-07-24T05:32:42.990Z</time>
      </trkpt>
      <trkpt lat="42.464054" lon="-5.879017">
        <ele>828</ele>
        <time>2018-07-24T05:32:45.000Z</time>
      </trkpt>
      <trkpt lat="42.464054" lon="-5.879184">
        <ele>827.4099968</ele>
        <time>2018-07-24T05:32:46.990Z</time>
      </trkpt>
      <trkpt lat="42.464044" lon="-5.879359">
        <ele>825.577457679064</ele>
        <time>2018-07-24T05:32:48.990Z</time>
      </trkpt>
      <trkpt lat="42.464025" lon="-5.879531">
        <ele>825</ele>
        <time>2018-07-24T05:32:50.990Z</time>
      </trkpt>
      <trkpt lat="42.464001" lon="-5.879698">
        <ele>825</ele>
        <time>2018-07-24T05:32:52.990Z</time>
      </trkpt>
      <trkpt lat="42.463983" lon="-5.879871">
        <ele>825</ele>
        <time>2018-07-24T05:32:55.000Z</time>
      </trkpt>
      <trkpt lat="42.463959" lon="-5.880041">
        <ele>825</ele>
        <time>2018-07-24T05:32:56.990Z</time>
      </trkpt>
      <trkpt lat="42.463936" lon="-5.880205">
        <ele>824</ele>
        <time>2018-07-24T05:32:58.990Z</time>
      </trkpt>
      <trkpt lat="42.463908" lon="-5.880354">
        <ele>824</ele>
        <time>2018-07-24T05:33:00.990Z</time>
      </trkpt>
      <trkpt lat="42.463881" lon="-5.880488">
        <ele>824.5900032</ele>
        <time>2018-07-24T05:33:02.990Z</time>
      </trkpt>
      <trkpt lat="42.463856" lon="-5.880614">
        <ele>825</ele>
        <time>2018-07-24T05:33:05.000Z</time>
      </trkpt>
      <trkpt lat="42.463823" lon="-5.88079">
        <ele>825</ele>
        <time>2018-07-24T05:33:07.990Z</time>
      </trkpt>
      <trkpt lat="42.463796" lon="-5.880958">
        <ele>825</ele>
        <time>2018-07-24T05:33:10.990Z</time>
      </trkpt>
      <trkpt lat="42.463779" lon="-5.881114">
        <ele>825</ele>
        <time>2018-07-24T05:33:13.990Z</time>
      </trkpt>
      <trkpt lat="42.463758" lon="-5.881256">
        <ele>824</ele>
        <time>2018-07-24T05:33:16.990Z</time>
      </trkpt>
      <trkpt lat="42.463743" lon="-5.88146">
        <ele>824</ele>
        <time>2018-07-24T05:33:20.000Z</time>
      </trkpt>
      <trkpt lat="42.463711" lon="-5.881619">
        <ele>822.588235294118</ele>
        <time>2018-07-24T05:33:22.000Z</time>
      </trkpt>
      <trkpt lat="42.463675" lon="-5.881776">
        <ele>822</ele>
        <time>2018-07-24T05:33:24.000Z</time>
      </trkpt>
      <trkpt lat="42.463642" lon="-5.881928">
        <ele>822</ele>
        <time>2018-07-24T05:33:25.990Z</time>
      </trkpt>
      <trkpt lat="42.463618" lon="-5.88208">
        <ele>822</ele>
        <time>2018-07-24T05:33:27.990Z</time>
      </trkpt>
      <trkpt lat="42.463605" lon="-5.882225">
        <ele>822</ele>
        <time>2018-07-24T05:33:29.990Z</time>
      </trkpt>
      <trkpt lat="42.463587" lon="-5.882364">
        <ele>822.5900032</ele>
        <time>2018-07-24T05:33:31.990Z</time>
      </trkpt>
      <trkpt lat="42.463571" lon="-5.882492">
        <ele>823</ele>
        <time>2018-07-24T05:33:34.000Z</time>
      </trkpt>
      <trkpt lat="42.463571" lon="-5.882624">
        <ele>823</ele>
        <time>2018-07-24T05:33:35.990Z</time>
      </trkpt>
      <trkpt lat="42.463544" lon="-5.88276">
        <ele>823</ele>
        <time>2018-07-24T05:33:37.990Z</time>
      </trkpt>
      <trkpt lat="42.463524" lon="-5.882986">
        <ele>823</ele>
        <time>2018-07-24T05:33:41.000Z</time>
      </trkpt>
      <trkpt lat="42.463522" lon="-5.883134">
        <ele>823</ele>
        <time>2018-07-24T05:33:43.000Z</time>
      </trkpt>
      <trkpt lat="42.463513" lon="-5.88328">
        <ele>823</ele>
        <time>2018-07-24T05:33:45.000Z</time>
      </trkpt>
      <trkpt lat="42.463504" lon="-5.88341">
        <ele>823</ele>
        <time>2018-07-24T05:33:46.990Z</time>
      </trkpt>
      <trkpt lat="42.463502" lon="-5.883538">
        <ele>823</ele>
        <time>2018-07-24T05:33:49.100Z</time>
      </trkpt>
      <trkpt lat="42.463485" lon="-5.883717">
        <ele>823</ele>
        <time>2018-07-24T05:33:52.000Z</time>
      </trkpt>
      <trkpt lat="42.463462" lon="-5.883842">
        <ele>823</ele>
        <time>2018-07-24T05:33:53.990Z</time>
      </trkpt>
      <trkpt lat="42.463463" lon="-5.884022">
        <ele>823</ele>
        <time>2018-07-24T05:33:56.990Z</time>
      </trkpt>
      <trkpt lat="42.463454" lon="-5.8842">
        <ele>823</ele>
        <time>2018-07-24T05:34:00.000Z</time>
      </trkpt>
      <trkpt lat="42.463458" lon="-5.884322">
        <ele>823</ele>
        <time>2018-07-24T05:34:02.000Z</time>
      </trkpt>
      <trkpt lat="42.46343" lon="-5.88446">
        <ele>825</ele>
        <time>2018-07-24T05:34:04.990Z</time>
      </trkpt>
      <trkpt lat="42.463418" lon="-5.884626">
        <ele>825</ele>
        <time>2018-07-24T05:34:09.990Z</time>
      </trkpt>
      <trkpt lat="42.463406" lon="-5.884795">
        <ele>824</ele>
        <time>2018-07-24T05:34:12.990Z</time>
      </trkpt>
      <trkpt lat="42.463404" lon="-5.884934">
        <ele>824</ele>
        <time>2018-07-24T05:34:15.000Z</time>
      </trkpt>
      <trkpt lat="42.463388" lon="-5.88507">
        <ele>824</ele>
        <time>2018-07-24T05:34:17.000Z</time>
      </trkpt>
      <trkpt lat="42.463372" lon="-5.885204">
        <ele>824</ele>
        <time>2018-07-24T05:34:19.000Z</time>
      </trkpt>
      <trkpt lat="42.46335" lon="-5.885328">
        <ele>824</ele>
        <time>2018-07-24T05:34:20.990Z</time>
      </trkpt>
      <trkpt lat="42.463328" lon="-5.885514">
        <ele>824</ele>
        <time>2018-07-24T05:34:24.000Z</time>
      </trkpt>
      <trkpt lat="42.463306" lon="-5.885686">
        <ele>824</ele>
        <time>2018-07-24T05:34:26.990Z</time>
      </trkpt>
      <trkpt lat="42.463287" lon="-5.885807">
        <ele>824</ele>
        <time>2018-07-24T05:34:29.000Z</time>
      </trkpt>
      <trkpt lat="42.463282" lon="-5.885934">
        <ele>824</ele>
        <time>2018-07-24T05:34:30.990Z</time>
      </trkpt>
      <trkpt lat="42.463272" lon="-5.886066">
        <ele>824</ele>
        <time>2018-07-24T05:34:32.990Z</time>
      </trkpt>
      <trkpt lat="42.463296" lon="-5.886202">
        <ele>824</ele>
        <time>2018-07-24T05:34:34.990Z</time>
      </trkpt>
      <trkpt lat="42.463314" lon="-5.886332">
        <ele>824</ele>
        <time>2018-07-24T05:34:36.990Z</time>
      </trkpt>
      <trkpt lat="42.463319" lon="-5.886496">
        <ele>824</ele>
        <time>2018-07-24T05:34:39.990Z</time>
      </trkpt>
      <trkpt lat="42.46329" lon="-5.886622">
        <ele>824</ele>
        <time>2018-07-24T05:34:41.990Z</time>
      </trkpt>
      <trkpt lat="42.46327" lon="-5.886784">
        <ele>825</ele>
        <time>2018-07-24T05:34:44.990Z</time>
      </trkpt>
      <trkpt lat="42.463244" lon="-5.886954">
        <ele>825</ele>
        <time>2018-07-24T05:34:47.990Z</time>
      </trkpt>
      <trkpt lat="42.463206" lon="-5.887126">
        <ele>825</ele>
        <time>2018-07-24T05:34:50.990Z</time>
      </trkpt>
      <trkpt lat="42.463176" lon="-5.887248">
        <ele>825</ele>
        <time>2018-07-24T05:34:52.990Z</time>
      </trkpt>
      <trkpt lat="42.46315" lon="-5.887376">
        <ele>825</ele>
        <time>2018-07-24T05:34:54.990Z</time>
      </trkpt>
      <trkpt lat="42.463114" lon="-5.8875">
        <ele>825</ele>
        <time>2018-07-24T05:34:56.990Z</time>
      </trkpt>
      <trkpt lat="42.463084" lon="-5.887614">
        <ele>825</ele>
        <time>2018-07-24T05:34:59.000Z</time>
      </trkpt>
      <trkpt lat="42.463072" lon="-5.887775">
        <ele>825</ele>
        <time>2018-07-24T05:35:01.990Z</time>
      </trkpt>
      <trkpt lat="42.463046" lon="-5.887924">
        <ele>826</ele>
        <time>2018-07-24T05:35:04.990Z</time>
      </trkpt>
      <trkpt lat="42.463032" lon="-5.888045">
        <ele>826</ele>
        <time>2018-07-24T05:35:11.990Z</time>
      </trkpt>
      <trkpt lat="42.462967" lon="-5.888158">
        <ele>826</ele>
        <time>2018-07-24T05:35:26.990Z</time>
      </trkpt>
      <trkpt lat="42.46293" lon="-5.888275">
        <ele>826</ele>
        <time>2018-07-24T05:35:29.990Z</time>
      </trkpt>
      <trkpt lat="42.46289" lon="-5.888406">
        <ele>826</ele>
        <time>2018-07-24T05:35:32.990Z</time>
      </trkpt>
      <trkpt lat="42.462848" lon="-5.88855">
        <ele>826</ele>
        <time>2018-07-24T05:35:35.990Z</time>
      </trkpt>
      <trkpt lat="42.462814" lon="-5.888695">
        <ele>826</ele>
        <time>2018-07-24T05:35:39.000Z</time>
      </trkpt>
      <trkpt lat="42.462773" lon="-5.888834">
        <ele>826</ele>
        <time>2018-07-24T05:35:41.990Z</time>
      </trkpt>
      <trkpt lat="42.46272" lon="-5.888978">
        <ele>826</ele>
        <time>2018-07-24T05:35:44.990Z</time>
      </trkpt>
      <trkpt lat="42.462674" lon="-5.889138">
        <ele>826</ele>
        <time>2018-07-24T05:35:47.990Z</time>
      </trkpt>
      <trkpt lat="42.462634" lon="-5.889309">
        <ele>826</ele>
        <time>2018-07-24T05:35:50.990Z</time>
      </trkpt>
      <trkpt lat="42.462596" lon="-5.889491">
        <ele>826</ele>
        <time>2018-07-24T05:35:54.000Z</time>
      </trkpt>
      <trkpt lat="42.46257" lon="-5.88961">
        <ele>826</ele>
        <time>2018-07-24T05:35:55.990Z</time>
      </trkpt>
      <trkpt lat="42.462539" lon="-5.889736">
        <ele>826</ele>
        <time>2018-07-24T05:35:57.990Z</time>
      </trkpt>
      <trkpt lat="42.462515" lon="-5.889864">
        <ele>826</ele>
        <time>2018-07-24T05:35:59.990Z</time>
      </trkpt>
      <trkpt lat="42.46249" lon="-5.889989">
        <ele>826</ele>
        <time>2018-07-24T05:36:01.990Z</time>
      </trkpt>
      <trkpt lat="42.462463" lon="-5.890109">
        <ele>826</ele>
        <time>2018-07-24T05:36:04.000Z</time>
      </trkpt>
      <trkpt lat="42.462433" lon="-5.890224">
        <ele>825.4099968</ele>
        <time>2018-07-24T05:36:05.990Z</time>
      </trkpt>
      <trkpt lat="42.462399" lon="-5.890345">
        <ele>825</ele>
        <time>2018-07-24T05:36:07.990Z</time>
      </trkpt>
      <trkpt lat="42.462365" lon="-5.890463">
        <ele>825</ele>
        <time>2018-07-24T05:36:09.990Z</time>
      </trkpt>
      <trkpt lat="42.462331" lon="-5.890585">
        <ele>825</ele>
        <time>2018-07-24T05:36:11.990Z</time>
      </trkpt>
      <trkpt lat="42.462295" lon="-5.890705">
        <ele>825</ele>
        <time>2018-07-24T05:36:14.000Z</time>
      </trkpt>
      <trkpt lat="42.462259" lon="-5.890824">
        <ele>825</ele>
        <time>2018-07-24T05:36:15.990Z</time>
      </trkpt>
      <trkpt lat="42.462224" lon="-5.890949">
        <ele>825</ele>
        <time>2018-07-24T05:36:17.990Z</time>
      </trkpt>
      <trkpt lat="42.462194" lon="-5.891075">
        <ele>825</ele>
        <time>2018-07-24T05:36:19.990Z</time>
      </trkpt>
      <trkpt lat="42.462159" lon="-5.891194">
        <ele>825</ele>
        <time>2018-07-24T05:36:21.990Z</time>
      </trkpt>
      <trkpt lat="42.462118" lon="-5.891365">
        <ele>825</ele>
        <time>2018-07-24T05:36:24.990Z</time>
      </trkpt>
      <trkpt lat="42.462083" lon="-5.891482">
        <ele>825</ele>
        <time>2018-07-24T05:36:26.990Z</time>
      </trkpt>
      <trkpt lat="42.462047" lon="-5.891603">
        <ele>825</ele>
        <time>2018-07-24T05:36:29.000Z</time>
      </trkpt>
      <trkpt lat="42.462015" lon="-5.891721">
        <ele>825</ele>
        <time>2018-07-24T05:36:30.990Z</time>
      </trkpt>
      <trkpt lat="42.461971" lon="-5.891882">
        <ele>825</ele>
        <time>2018-07-24T05:36:34.000Z</time>
      </trkpt>
      <trkpt lat="42.46193" lon="-5.892027">
        <ele>825</ele>
        <time>2018-07-24T05:36:36.990Z</time>
      </trkpt>
      <trkpt lat="42.461889" lon="-5.892184">
        <ele>825</ele>
        <time>2018-07-24T05:36:39.990Z</time>
      </trkpt>
      <trkpt lat="42.461846" lon="-5.892319">
        <ele>825</ele>
        <time>2018-07-24T05:36:42.990Z</time>
      </trkpt>
      <trkpt lat="42.461815" lon="-5.892456">
        <ele>825</ele>
        <time>2018-07-24T05:36:45.990Z</time>
      </trkpt>
      <trkpt lat="42.46177" lon="-5.892611">
        <ele>825</ele>
        <time>2018-07-24T05:36:49.000Z</time>
      </trkpt>
      <trkpt lat="42.461716" lon="-5.892774">
        <ele>825</ele>
        <time>2018-07-24T05:36:51.990Z</time>
      </trkpt>
      <trkpt lat="42.461652" lon="-5.892923">
        <ele>825</ele>
        <time>2018-07-24T05:36:54.990Z</time>
      </trkpt>
      <trkpt lat="42.461581" lon="-5.893073">
        <ele>825</ele>
        <time>2018-07-24T05:36:57.990Z</time>
      </trkpt>
      <trkpt lat="42.461519" lon="-5.893214">
        <ele>825</ele>
        <time>2018-07-24T05:37:00.990Z</time>
      </trkpt>
      <trkpt lat="42.461456" lon="-5.893344">
        <ele>824</ele>
        <time>2018-07-24T05:37:04.000Z</time>
      </trkpt>
      <trkpt lat="42.461374" lon="-5.893484">
        <ele>824</ele>
        <time>2018-07-24T05:37:06.990Z</time>
      </trkpt>
      <trkpt lat="42.461317" lon="-5.893578">
        <ele>824</ele>
        <time>2018-07-24T05:37:09.000Z</time>
      </trkpt>
      <trkpt lat="42.461259" lon="-5.893678">
        <ele>824</ele>
        <time>2018-07-24T05:37:10.990Z</time>
      </trkpt>
      <trkpt lat="42.4612" lon="-5.893781">
        <ele>824</ele>
        <time>2018-07-24T05:37:12.990Z</time>
      </trkpt>
      <trkpt lat="42.461143" lon="-5.89389">
        <ele>824</ele>
        <time>2018-07-24T05:37:14.990Z</time>
      </trkpt>
      <trkpt lat="42.46109" lon="-5.893991">
        <ele>824</ele>
        <time>2018-07-24T05:37:16.990Z</time>
      </trkpt>
      <trkpt lat="42.46103" lon="-5.894098">
        <ele>824</ele>
        <time>2018-07-24T05:37:19.000Z</time>
      </trkpt>
      <trkpt lat="42.460965" lon="-5.894205">
        <ele>824</ele>
        <time>2018-07-24T05:37:20.990Z</time>
      </trkpt>
      <trkpt lat="42.460906" lon="-5.894316">
        <ele>824</ele>
        <time>2018-07-24T05:37:22.990Z</time>
      </trkpt>
      <trkpt lat="42.460845" lon="-5.894418">
        <ele>824</ele>
        <time>2018-07-24T05:37:24.990Z</time>
      </trkpt>
      <trkpt lat="42.460778" lon="-5.894525">
        <ele>824</ele>
        <time>2018-07-24T05:37:26.990Z</time>
      </trkpt>
      <trkpt lat="42.460716" lon="-5.894637">
        <ele>824</ele>
        <time>2018-07-24T05:37:29.000Z</time>
      </trkpt>
      <trkpt lat="42.460658" lon="-5.894732">
        <ele>824</ele>
        <time>2018-07-24T05:37:30.990Z</time>
      </trkpt>
      <trkpt lat="42.460598" lon="-5.894837">
        <ele>824</ele>
        <time>2018-07-24T05:37:32.990Z</time>
      </trkpt>
      <trkpt lat="42.460547" lon="-5.894946">
        <ele>824</ele>
        <time>2018-07-24T05:37:34.990Z</time>
      </trkpt>
      <trkpt lat="42.460488" lon="-5.895053">
        <ele>824</ele>
        <time>2018-07-24T05:37:36.990Z</time>
      </trkpt>
      <trkpt lat="42.460418" lon="-5.895161">
        <ele>824</ele>
        <time>2018-07-24T05:37:39.000Z</time>
      </trkpt>
      <trkpt lat="42.460344" lon="-5.895268">
        <ele>824</ele>
        <time>2018-07-24T05:37:40.990Z</time>
      </trkpt>
      <trkpt lat="42.460274" lon="-5.895383">
        <ele>824</ele>
        <time>2018-07-24T05:37:42.990Z</time>
      </trkpt>
      <trkpt lat="42.460218" lon="-5.895489">
        <ele>824</ele>
        <time>2018-07-24T05:37:44.990Z</time>
      </trkpt>
      <trkpt lat="42.460153" lon="-5.895605">
        <ele>824</ele>
        <time>2018-07-24T05:37:46.990Z</time>
      </trkpt>
      <trkpt lat="42.460093" lon="-5.89572">
        <ele>824</ele>
        <time>2018-07-24T05:37:49.000Z</time>
      </trkpt>
      <trkpt lat="42.460036" lon="-5.895822">
        <ele>824</ele>
        <time>2018-07-24T05:37:50.990Z</time>
      </trkpt>
      <trkpt lat="42.459976" lon="-5.895921">
        <ele>824</ele>
        <time>2018-07-24T05:37:52.990Z</time>
      </trkpt>
      <trkpt lat="42.459916" lon="-5.896023">
        <ele>824</ele>
        <time>2018-07-24T05:37:54.990Z</time>
      </trkpt>
      <trkpt lat="42.459852" lon="-5.896127">
        <ele>824</ele>
        <time>2018-07-24T05:37:56.990Z</time>
      </trkpt>
      <trkpt lat="42.459775" lon="-5.896274">
        <ele>824</ele>
        <time>2018-07-24T05:37:59.990Z</time>
      </trkpt>
      <trkpt lat="42.459723" lon="-5.896374">
        <ele>824</ele>
        <time>2018-07-24T05:38:01.990Z</time>
      </trkpt>
      <trkpt lat="42.459639" lon="-5.896512">
        <ele>824</ele>
        <time>2018-07-24T05:38:04.990Z</time>
      </trkpt>
      <trkpt lat="42.459573" lon="-5.896604">
        <ele>824</ele>
        <time>2018-07-24T05:38:06.990Z</time>
      </trkpt>
      <trkpt lat="42.459491" lon="-5.896747">
        <ele>824</ele>
        <time>2018-07-24T05:38:09.990Z</time>
      </trkpt>
      <trkpt lat="42.459419" lon="-5.896842">
        <ele>824</ele>
        <time>2018-07-24T05:38:11.990Z</time>
      </trkpt>
      <trkpt lat="42.459339" lon="-5.896928">
        <ele>824</ele>
        <time>2018-07-24T05:38:14.000Z</time>
      </trkpt>
      <trkpt lat="42.459263" lon="-5.897018">
        <ele>824</ele>
        <time>2018-07-24T05:38:15.990Z</time>
      </trkpt>
      <trkpt lat="42.459183" lon="-5.897108">
        <ele>824</ele>
        <time>2018-07-24T05:38:17.990Z</time>
      </trkpt>
      <trkpt lat="42.459102" lon="-5.897192">
        <ele>824</ele>
        <time>2018-07-24T05:38:19.990Z</time>
      </trkpt>
      <trkpt lat="42.459015" lon="-5.897277">
        <ele>824</ele>
        <time>2018-07-24T05:38:21.990Z</time>
      </trkpt>
      <trkpt lat="42.458923" lon="-5.897361">
        <ele>824</ele>
        <time>2018-07-24T05:38:24.000Z</time>
      </trkpt>
      <trkpt lat="42.458836" lon="-5.897441">
        <ele>823.4099968</ele>
        <time>2018-07-24T05:38:25.990Z</time>
      </trkpt>
      <trkpt lat="42.45875" lon="-5.897519">
        <ele>823</ele>
        <time>2018-07-24T05:38:27.990Z</time>
      </trkpt>
      <trkpt lat="42.458658" lon="-5.897592">
        <ele>823</ele>
        <time>2018-07-24T05:38:29.990Z</time>
      </trkpt>
      <trkpt lat="42.45856" lon="-5.897669">
        <ele>823</ele>
        <time>2018-07-24T05:38:31.990Z</time>
      </trkpt>
      <trkpt lat="42.458476" lon="-5.897745">
        <ele>823</ele>
        <time>2018-07-24T05:38:34.000Z</time>
      </trkpt>
      <trkpt lat="42.458388" lon="-5.89783">
        <ele>823</ele>
        <time>2018-07-24T05:38:35.990Z</time>
      </trkpt>
      <trkpt lat="42.458303" lon="-5.897922">
        <ele>823</ele>
        <time>2018-07-24T05:38:37.990Z</time>
      </trkpt>
      <trkpt lat="42.458216" lon="-5.898021">
        <ele>823</ele>
        <time>2018-07-24T05:38:39.990Z</time>
      </trkpt>
      <trkpt lat="42.458134" lon="-5.898115">
        <ele>823</ele>
        <time>2018-07-24T05:38:41.990Z</time>
      </trkpt>
      <trkpt lat="42.458056" lon="-5.898212">
        <ele>823</ele>
        <time>2018-07-24T05:38:44.000Z</time>
      </trkpt>
      <trkpt lat="42.457978" lon="-5.898304">
        <ele>823</ele>
        <time>2018-07-24T05:38:45.990Z</time>
      </trkpt>
      <trkpt lat="42.457899" lon="-5.898404">
        <ele>823</ele>
        <time>2018-07-24T05:38:47.990Z</time>
      </trkpt>
      <trkpt lat="42.457825" lon="-5.898515">
        <ele>823</ele>
        <time>2018-07-24T05:38:49.990Z</time>
      </trkpt>
      <trkpt lat="42.457753" lon="-5.898621">
        <ele>823</ele>
        <time>2018-07-24T05:38:51.990Z</time>
      </trkpt>
      <trkpt lat="42.457685" lon="-5.898729">
        <ele>823</ele>
        <time>2018-07-24T05:38:54.000Z</time>
      </trkpt>
      <trkpt lat="42.457619" lon="-5.898833">
        <ele>823</ele>
        <time>2018-07-24T05:38:55.990Z</time>
      </trkpt>
      <trkpt lat="42.457551" lon="-5.898932">
        <ele>823</ele>
        <time>2018-07-24T05:38:57.990Z</time>
      </trkpt>
      <trkpt lat="42.457493" lon="-5.899035">
        <ele>823</ele>
        <time>2018-07-24T05:38:59.990Z</time>
      </trkpt>
      <trkpt lat="42.457431" lon="-5.899144">
        <ele>823</ele>
        <time>2018-07-24T05:39:01.990Z</time>
      </trkpt>
      <trkpt lat="42.457362" lon="-5.899242">
        <ele>823</ele>
        <time>2018-07-24T05:39:04.000Z</time>
      </trkpt>
      <trkpt lat="42.457292" lon="-5.899335">
        <ele>823</ele>
        <time>2018-07-24T05:39:05.990Z</time>
      </trkpt>
      <trkpt lat="42.457223" lon="-5.899428">
        <ele>823</ele>
        <time>2018-07-24T05:39:07.990Z</time>
      </trkpt>
      <trkpt lat="42.457106" lon="-5.899548">
        <ele>822.449282083627</ele>
        <time>2018-07-24T05:39:11.020Z</time>
      </trkpt>
      <trkpt lat="42.457022" lon="-5.899614">
        <ele>823</ele>
        <time>2018-07-24T05:39:12.990Z</time>
      </trkpt>
      <trkpt lat="42.456939" lon="-5.899672">
        <ele>823</ele>
        <time>2018-07-24T05:39:14.990Z</time>
      </trkpt>
      <trkpt lat="42.456848" lon="-5.899728">
        <ele>823</ele>
        <time>2018-07-24T05:39:16.990Z</time>
      </trkpt>
      <trkpt lat="42.456753" lon="-5.899788">
        <ele>823</ele>
        <time>2018-07-24T05:39:19.000Z</time>
      </trkpt>
      <trkpt lat="42.456661" lon="-5.899846">
        <ele>823</ele>
        <time>2018-07-24T05:39:20.990Z</time>
      </trkpt>
      <trkpt lat="42.456573" lon="-5.899914">
        <ele>823</ele>
        <time>2018-07-24T05:39:22.990Z</time>
      </trkpt>
      <trkpt lat="42.456495" lon="-5.89999">
        <ele>823</ele>
        <time>2018-07-24T05:39:24.990Z</time>
      </trkpt>
      <trkpt lat="42.456422" lon="-5.90007">
        <ele>823</ele>
        <time>2018-07-24T05:39:26.990Z</time>
      </trkpt>
      <trkpt lat="42.456352" lon="-5.90015">
        <ele>823</ele>
        <time>2018-07-24T05:39:29.000Z</time>
      </trkpt>
      <trkpt lat="42.456264" lon="-5.90025">
        <ele>823</ele>
        <time>2018-07-24T05:39:31.990Z</time>
      </trkpt>
      <trkpt lat="42.456171" lon="-5.90036">
        <ele>823</ele>
        <time>2018-07-24T05:39:34.990Z</time>
      </trkpt>
      <trkpt lat="42.456079" lon="-5.900462">
        <ele>823</ele>
        <time>2018-07-24T05:39:37.990Z</time>
      </trkpt>
      <trkpt lat="42.455985" lon="-5.900562">
        <ele>823</ele>
        <time>2018-07-24T05:39:40.990Z</time>
      </trkpt>
      <trkpt lat="42.455917" lon="-5.900644">
        <ele>823</ele>
        <time>2018-07-24T05:39:42.990Z</time>
      </trkpt>
      <trkpt lat="42.455822" lon="-5.900765">
        <ele>824</ele>
        <time>2018-07-24T05:39:45.990Z</time>
      </trkpt>
      <trkpt lat="42.455756" lon="-5.900853">
        <ele>823.4099968</ele>
        <time>2018-07-24T05:39:47.990Z</time>
      </trkpt>
      <trkpt lat="42.455668" lon="-5.900988">
        <ele>823</ele>
        <time>2018-07-24T05:39:50.990Z</time>
      </trkpt>
      <trkpt lat="42.455583" lon="-5.901126">
        <ele>823</ele>
        <time>2018-07-24T05:39:54.000Z</time>
      </trkpt>
      <trkpt lat="42.4555" lon="-5.901268">
        <ele>823</ele>
        <time>2018-07-24T05:39:56.990Z</time>
      </trkpt>
      <trkpt lat="42.455468" lon="-5.901382">
        <ele>824</ele>
        <time>2018-07-24T05:39:59.000Z</time>
      </trkpt>
      <trkpt lat="42.455445" lon="-5.901546">
        <ele>824</ele>
        <time>2018-07-24T05:40:01.990Z</time>
      </trkpt>
      <trkpt lat="42.455417" lon="-5.901716">
        <ele>823.542632043738</ele>
        <time>2018-07-24T05:40:04.990Z</time>
      </trkpt>
      <trkpt lat="42.455379" lon="-5.901895">
        <ele>823</ele>
        <time>2018-07-24T05:40:08.000Z</time>
      </trkpt>
      <trkpt lat="42.455353" lon="-5.90202">
        <ele>823</ele>
        <time>2018-07-24T05:40:10.000Z</time>
      </trkpt>
      <trkpt lat="42.455333" lon="-5.902142">
        <ele>823</ele>
        <time>2018-07-24T05:40:12.000Z</time>
      </trkpt>
      <trkpt lat="42.455303" lon="-5.902312">
        <ele>824</ele>
        <time>2018-07-24T05:40:15.000Z</time>
      </trkpt>
      <trkpt lat="42.455268" lon="-5.90247">
        <ele>824</ele>
        <time>2018-07-24T05:40:18.000Z</time>
      </trkpt>
      <trkpt lat="42.455237" lon="-5.902627">
        <ele>824</ele>
        <time>2018-07-24T05:40:21.000Z</time>
      </trkpt>
      <trkpt lat="42.455216" lon="-5.902798">
        <ele>823.534882567151</ele>
        <time>2018-07-24T05:40:24.000Z</time>
      </trkpt>
      <trkpt lat="42.455187" lon="-5.902962">
        <ele>823</ele>
        <time>2018-07-24T05:40:27.000Z</time>
      </trkpt>
      <trkpt lat="42.455159" lon="-5.903116">
        <ele>823</ele>
        <time>2018-07-24T05:40:30.000Z</time>
      </trkpt>
      <trkpt lat="42.455127" lon="-5.903281">
        <ele>823</ele>
        <time>2018-07-24T05:40:33.000Z</time>
      </trkpt>
      <trkpt lat="42.455105" lon="-5.90343">
        <ele>823</ele>
        <time>2018-07-24T05:40:36.000Z</time>
      </trkpt>
      <trkpt lat="42.455075" lon="-5.903577">
        <ele>823</ele>
        <time>2018-07-24T05:40:40.000Z</time>
      </trkpt>
      <trkpt lat="42.45499" lon="-5.903668">
        <ele>824</ele>
        <time>2018-07-24T05:40:45.000Z</time>
      </trkpt>
      <trkpt lat="42.454963" lon="-5.903831">
        <ele>824</ele>
        <time>2018-07-24T05:40:49.000Z</time>
      </trkpt>
      <trkpt lat="42.454937" lon="-5.903984">
        <ele>824</ele>
        <time>2018-07-24T05:40:52.000Z</time>
      </trkpt>
      <trkpt lat="42.454907" lon="-5.904146">
        <ele>824</ele>
        <time>2018-07-24T05:40:55.000Z</time>
      </trkpt>
      <trkpt lat="42.454875" lon="-5.904303">
        <ele>824</ele>
        <time>2018-07-24T05:40:58.000Z</time>
      </trkpt>
      <trkpt lat="42.454846" lon="-5.904472">
        <ele>824</ele>
        <time>2018-07-24T05:41:01.000Z</time>
      </trkpt>
      <trkpt lat="42.454817" lon="-5.904643">
        <ele>824</ele>
        <time>2018-07-24T05:41:04.000Z</time>
      </trkpt>
      <trkpt lat="42.454787" lon="-5.904819">
        <ele>824</ele>
        <time>2018-07-24T05:41:07.000Z</time>
      </trkpt>
      <trkpt lat="42.454755" lon="-5.904999">
        <ele>824</ele>
        <time>2018-07-24T05:41:10.000Z</time>
      </trkpt>
      <trkpt lat="42.454731" lon="-5.905124">
        <ele>824</ele>
        <time>2018-07-24T05:41:11.990Z</time>
      </trkpt>
      <trkpt lat="42.454708" lon="-5.905248">
        <ele>824</ele>
        <time>2018-07-24T05:41:13.990Z</time>
      </trkpt>
      <trkpt lat="42.454689" lon="-5.905373">
        <ele>824</ele>
        <time>2018-07-24T05:41:15.990Z</time>
      </trkpt>
      <trkpt lat="42.454668" lon="-5.905498">
        <ele>824</ele>
        <time>2018-07-24T05:41:17.990Z</time>
      </trkpt>
      <trkpt lat="42.454644" lon="-5.905626">
        <ele>824</ele>
        <time>2018-07-24T05:41:20.000Z</time>
      </trkpt>
      <trkpt lat="42.454627" lon="-5.90575">
        <ele>824</ele>
        <time>2018-07-24T05:41:21.990Z</time>
      </trkpt>
      <trkpt lat="42.454606" lon="-5.90588">
        <ele>824</ele>
        <time>2018-07-24T05:41:23.990Z</time>
      </trkpt>
      <trkpt lat="42.454586" lon="-5.90601">
        <ele>825</ele>
        <time>2018-07-24T05:41:25.990Z</time>
      </trkpt>
      <trkpt lat="42.45456" lon="-5.906144">
        <ele>825</ele>
        <time>2018-07-24T05:41:27.990Z</time>
      </trkpt>
      <trkpt lat="42.454534" lon="-5.90629">
        <ele>825</ele>
        <time>2018-07-24T05:41:30.000Z</time>
      </trkpt>
      <trkpt lat="42.454506" lon="-5.906429">
        <ele>825</ele>
        <time>2018-07-24T05:41:31.990Z</time>
      </trkpt>
      <trkpt lat="42.454482" lon="-5.906566">
        <ele>825</ele>
        <time>2018-07-24T05:41:33.990Z</time>
      </trkpt>
      <trkpt lat="42.454455" lon="-5.906704">
        <ele>825</ele>
        <time>2018-07-24T05:41:35.990Z</time>
      </trkpt>
      <trkpt lat="42.454429" lon="-5.906846">
        <ele>825</ele>
        <time>2018-07-24T05:41:37.990Z</time>
      </trkpt>
      <trkpt lat="42.454411" lon="-5.906987">
        <ele>825</ele>
        <time>2018-07-24T05:41:40.000Z</time>
      </trkpt>
      <trkpt lat="42.454386" lon="-5.907131">
        <ele>825</ele>
        <time>2018-07-24T05:41:41.990Z</time>
      </trkpt>
      <trkpt lat="42.454361" lon="-5.907281">
        <ele>825</ele>
        <time>2018-07-24T05:41:43.990Z</time>
      </trkpt>
      <trkpt lat="42.454334" lon="-5.907428">
        <ele>825</ele>
        <time>2018-07-24T05:41:45.990Z</time>
      </trkpt>
      <trkpt lat="42.454308" lon="-5.907574">
        <ele>825</ele>
        <time>2018-07-24T05:41:47.990Z</time>
      </trkpt>
      <trkpt lat="42.454277" lon="-5.907723">
        <ele>827</ele>
        <time>2018-07-24T05:41:50.000Z</time>
      </trkpt>
      <trkpt lat="42.454254" lon="-5.907865">
        <ele>826</ele>
        <time>2018-07-24T05:41:51.990Z</time>
      </trkpt>
      <trkpt lat="42.454228" lon="-5.908012">
        <ele>826</ele>
        <time>2018-07-24T05:41:53.990Z</time>
      </trkpt>
      <trkpt lat="42.454206" lon="-5.908164">
        <ele>826</ele>
        <time>2018-07-24T05:41:55.990Z</time>
      </trkpt>
      <trkpt lat="42.45418" lon="-5.90831">
        <ele>826.422542320936</ele>
        <time>2018-07-24T05:41:57.990Z</time>
      </trkpt>
      <trkpt lat="42.454153" lon="-5.90846">
        <ele>826.563377742523</ele>
        <time>2018-07-24T05:42:00.000Z</time>
      </trkpt>
      <trkpt lat="42.454122" lon="-5.908607">
        <ele>826</ele>
        <time>2018-07-24T05:42:01.990Z</time>
      </trkpt>
      <trkpt lat="42.454095" lon="-5.908755">
        <ele>826</ele>
        <time>2018-07-24T05:42:03.990Z</time>
      </trkpt>
      <trkpt lat="42.454075" lon="-5.908899">
        <ele>826</ele>
        <time>2018-07-24T05:42:05.990Z</time>
      </trkpt>
      <trkpt lat="42.454044" lon="-5.909047">
        <ele>826</ele>
        <time>2018-07-24T05:42:07.990Z</time>
      </trkpt>
      <trkpt lat="42.45402" lon="-5.909193">
        <ele>826</ele>
        <time>2018-07-24T05:42:10.000Z</time>
      </trkpt>
      <trkpt lat="42.453994" lon="-5.909337">
        <ele>826</ele>
        <time>2018-07-24T05:42:11.990Z</time>
      </trkpt>
      <trkpt lat="42.453963" lon="-5.909481">
        <ele>826</ele>
        <time>2018-07-24T05:42:13.990Z</time>
      </trkpt>
      <trkpt lat="42.453935" lon="-5.909621">
        <ele>827</ele>
        <time>2018-07-24T05:42:15.990Z</time>
      </trkpt>
      <trkpt lat="42.453907" lon="-5.909768">
        <ele>827</ele>
        <time>2018-07-24T05:42:17.990Z</time>
      </trkpt>
      <trkpt lat="42.453878" lon="-5.909909">
        <ele>827</ele>
        <time>2018-07-24T05:42:20.000Z</time>
      </trkpt>
      <trkpt lat="42.453845" lon="-5.910054">
        <ele>827</ele>
        <time>2018-07-24T05:42:21.990Z</time>
      </trkpt>
      <trkpt lat="42.453815" lon="-5.91019">
        <ele>827</ele>
        <time>2018-07-24T05:42:23.990Z</time>
      </trkpt>
      <trkpt lat="42.45379" lon="-5.910336">
        <ele>827</ele>
        <time>2018-07-24T05:42:25.990Z</time>
      </trkpt>
      <trkpt lat="42.453765" lon="-5.910479">
        <ele>827</ele>
        <time>2018-07-24T05:42:27.990Z</time>
      </trkpt>
      <trkpt lat="42.453741" lon="-5.91062">
        <ele>826</ele>
        <time>2018-07-24T05:42:30.000Z</time>
      </trkpt>
      <trkpt lat="42.453723" lon="-5.910755">
        <ele>826.5900032</ele>
        <time>2018-07-24T05:42:31.990Z</time>
      </trkpt>
      <trkpt lat="42.453697" lon="-5.910903">
        <ele>827</ele>
        <time>2018-07-24T05:42:33.990Z</time>
      </trkpt>
      <trkpt lat="42.453673" lon="-5.911046">
        <ele>827</ele>
        <time>2018-07-24T05:42:35.990Z</time>
      </trkpt>
      <trkpt lat="42.453647" lon="-5.911186">
        <ele>827</ele>
        <time>2018-07-24T05:42:37.990Z</time>
      </trkpt>
      <trkpt lat="42.453628" lon="-5.911333">
        <ele>827</ele>
        <time>2018-07-24T05:42:40.000Z</time>
      </trkpt>
      <trkpt lat="42.453602" lon="-5.911477">
        <ele>827</ele>
        <time>2018-07-24T05:42:41.990Z</time>
      </trkpt>
      <trkpt lat="42.453579" lon="-5.911618">
        <ele>827</ele>
        <time>2018-07-24T05:42:43.990Z</time>
      </trkpt>
      <trkpt lat="42.453553" lon="-5.911758">
        <ele>827</ele>
        <time>2018-07-24T05:42:45.990Z</time>
      </trkpt>
      <trkpt lat="42.453529" lon="-5.911907">
        <ele>826.4099968</ele>
        <time>2018-07-24T05:42:47.990Z</time>
      </trkpt>
      <trkpt lat="42.453506" lon="-5.912046">
        <ele>826</ele>
        <time>2018-07-24T05:42:50.000Z</time>
      </trkpt>
      <trkpt lat="42.453478" lon="-5.912196">
        <ele>826</ele>
        <time>2018-07-24T05:42:51.990Z</time>
      </trkpt>
      <trkpt lat="42.453453" lon="-5.912339">
        <ele>826</ele>
        <time>2018-07-24T05:42:53.990Z</time>
      </trkpt>
      <trkpt lat="42.453432" lon="-5.912473">
        <ele>826</ele>
        <time>2018-07-24T05:42:55.990Z</time>
      </trkpt>
      <trkpt lat="42.453407" lon="-5.912608">
        <ele>826</ele>
        <time>2018-07-24T05:42:57.990Z</time>
      </trkpt>
      <trkpt lat="42.453386" lon="-5.912743">
        <ele>826</ele>
        <time>2018-07-24T05:43:00.000Z</time>
      </trkpt>
      <trkpt lat="42.453362" lon="-5.912882">
        <ele>826.405798983416</ele>
        <time>2018-07-24T05:43:01.990Z</time>
      </trkpt>
      <trkpt lat="42.453337" lon="-5.913017">
        <ele>827</ele>
        <time>2018-07-24T05:43:03.990Z</time>
      </trkpt>
      <trkpt lat="42.453309" lon="-5.91315">
        <ele>827</ele>
        <time>2018-07-24T05:43:05.990Z</time>
      </trkpt>
      <trkpt lat="42.453284" lon="-5.913286">
        <ele>827</ele>
        <time>2018-07-24T05:43:07.990Z</time>
      </trkpt>
      <trkpt lat="42.453259" lon="-5.91342">
        <ele>827</ele>
        <time>2018-07-24T05:43:10.000Z</time>
      </trkpt>
      <trkpt lat="42.453236" lon="-5.913553">
        <ele>827.405798983416</ele>
        <time>2018-07-24T05:43:11.990Z</time>
      </trkpt>
      <trkpt lat="42.453211" lon="-5.913686">
        <ele>828</ele>
        <time>2018-07-24T05:43:13.990Z</time>
      </trkpt>
      <trkpt lat="42.453189" lon="-5.91382">
        <ele>828</ele>
        <time>2018-07-24T05:43:15.990Z</time>
      </trkpt>
      <trkpt lat="42.453168" lon="-5.913957">
        <ele>828</ele>
        <time>2018-07-24T05:43:17.990Z</time>
      </trkpt>
      <trkpt lat="42.453143" lon="-5.914094">
        <ele>829</ele>
        <time>2018-07-24T05:43:20.000Z</time>
      </trkpt>
      <trkpt lat="42.453122" lon="-5.91423">
        <ele>828</ele>
        <time>2018-07-24T05:43:21.990Z</time>
      </trkpt>
      <trkpt lat="42.453099" lon="-5.914368">
        <ele>828</ele>
        <time>2018-07-24T05:43:23.990Z</time>
      </trkpt>
      <trkpt lat="42.453076" lon="-5.914499">
        <ele>828</ele>
        <time>2018-07-24T05:43:25.990Z</time>
      </trkpt>
      <trkpt lat="42.453051" lon="-5.914628">
        <ele>828.57843813922</ele>
        <time>2018-07-24T05:43:27.990Z</time>
      </trkpt>
      <trkpt lat="42.453029" lon="-5.914752">
        <ele>829</ele>
        <time>2018-07-24T05:43:30.000Z</time>
      </trkpt>
      <trkpt lat="42.453007" lon="-5.914872">
        <ele>829</ele>
        <time>2018-07-24T05:43:31.990Z</time>
      </trkpt>
      <trkpt lat="42.452983" lon="-5.914995">
        <ele>829</ele>
        <time>2018-07-24T05:43:33.990Z</time>
      </trkpt>
      <trkpt lat="42.452957" lon="-5.915122">
        <ele>829.5900032</ele>
        <time>2018-07-24T05:43:35.990Z</time>
      </trkpt>
      <trkpt lat="42.452933" lon="-5.915251">
        <ele>830</ele>
        <time>2018-07-24T05:43:37.990Z</time>
      </trkpt>
      <trkpt lat="42.452913" lon="-5.915371">
        <ele>830</ele>
        <time>2018-07-24T05:43:40.000Z</time>
      </trkpt>
      <trkpt lat="42.452893" lon="-5.915496">
        <ele>830</ele>
        <time>2018-07-24T05:43:41.990Z</time>
      </trkpt>
      <trkpt lat="42.452862" lon="-5.915662">
        <ele>830</ele>
        <time>2018-07-24T05:43:45.000Z</time>
      </trkpt>
      <trkpt lat="42.45284" lon="-5.915781">
        <ele>830</ele>
        <time>2018-07-24T05:43:46.990Z</time>
      </trkpt>
      <trkpt lat="42.452819" lon="-5.915903">
        <ele>830</ele>
        <time>2018-07-24T05:43:48.990Z</time>
      </trkpt>
      <trkpt lat="42.452798" lon="-5.916023">
        <ele>830</ele>
        <time>2018-07-24T05:43:50.990Z</time>
      </trkpt>
      <trkpt lat="42.452771" lon="-5.91615">
        <ele>830</ele>
        <time>2018-07-24T05:43:52.990Z</time>
      </trkpt>
      <trkpt lat="42.452738" lon="-5.916326">
        <ele>831</ele>
        <time>2018-07-24T05:43:55.990Z</time>
      </trkpt>
      <trkpt lat="42.452715" lon="-5.916444">
        <ele>831</ele>
        <time>2018-07-24T05:43:57.990Z</time>
      </trkpt>
      <trkpt lat="42.452689" lon="-5.916571">
        <ele>831</ele>
        <time>2018-07-24T05:44:00.000Z</time>
      </trkpt>
      <trkpt lat="42.452667" lon="-5.91669">
        <ele>831</ele>
        <time>2018-07-24T05:44:01.990Z</time>
      </trkpt>
      <trkpt lat="42.452629" lon="-5.916866">
        <ele>831</ele>
        <time>2018-07-24T05:44:05.000Z</time>
      </trkpt>
      <trkpt lat="42.452607" lon="-5.916988">
        <ele>831</ele>
        <time>2018-07-24T05:44:06.990Z</time>
      </trkpt>
      <trkpt lat="42.452576" lon="-5.917163">
        <ele>831</ele>
        <time>2018-07-24T05:44:10.000Z</time>
      </trkpt>
      <trkpt lat="42.45255" lon="-5.917333">
        <ele>832</ele>
        <time>2018-07-24T05:44:12.990Z</time>
      </trkpt>
      <trkpt lat="42.452516" lon="-5.917506">
        <ele>833</ele>
        <time>2018-07-24T05:44:15.990Z</time>
      </trkpt>
      <trkpt lat="42.452497" lon="-5.917627">
        <ele>833</ele>
        <time>2018-07-24T05:44:17.990Z</time>
      </trkpt>
      <trkpt lat="42.452477" lon="-5.917756">
        <ele>833</ele>
        <time>2018-07-24T05:44:20.000Z</time>
      </trkpt>
      <trkpt lat="42.452456" lon="-5.917883">
        <ele>833</ele>
        <time>2018-07-24T05:44:21.990Z</time>
      </trkpt>
      <trkpt lat="42.45243" lon="-5.918015">
        <ele>833</ele>
        <time>2018-07-24T05:44:23.990Z</time>
      </trkpt>
      <trkpt lat="42.452411" lon="-5.918139">
        <ele>833</ele>
        <time>2018-07-24T05:44:25.990Z</time>
      </trkpt>
      <trkpt lat="42.452392" lon="-5.918265">
        <ele>833.585863156806</ele>
        <time>2018-07-24T05:44:27.990Z</time>
      </trkpt>
      <trkpt lat="42.452366" lon="-5.918391">
        <ele>834</ele>
        <time>2018-07-24T05:44:30.000Z</time>
      </trkpt>
      <trkpt lat="42.452345" lon="-5.918522">
        <ele>834</ele>
        <time>2018-07-24T05:44:31.990Z</time>
      </trkpt>
      <trkpt lat="42.452326" lon="-5.918642">
        <ele>834</ele>
        <time>2018-07-24T05:44:33.990Z</time>
      </trkpt>
      <trkpt lat="42.452314" lon="-5.918774">
        <ele>834</ele>
        <time>2018-07-24T05:44:35.990Z</time>
      </trkpt>
      <trkpt lat="42.452302" lon="-5.918908">
        <ele>834</ele>
        <time>2018-07-24T05:44:37.990Z</time>
      </trkpt>
      <trkpt lat="42.45228" lon="-5.919039">
        <ele>834</ele>
        <time>2018-07-24T05:44:40.000Z</time>
      </trkpt>
      <trkpt lat="42.452258" lon="-5.919172">
        <ele>834</ele>
        <time>2018-07-24T05:44:41.990Z</time>
      </trkpt>
      <trkpt lat="42.452236" lon="-5.919302">
        <ele>834</ele>
        <time>2018-07-24T05:44:43.990Z</time>
      </trkpt>
      <trkpt lat="42.452214" lon="-5.919431">
        <ele>834</ele>
        <time>2018-07-24T05:44:45.990Z</time>
      </trkpt>
      <trkpt lat="42.452195" lon="-5.919559">
        <ele>834</ele>
        <time>2018-07-24T05:44:47.990Z</time>
      </trkpt>
      <trkpt lat="42.452174" lon="-5.919693">
        <ele>834</ele>
        <time>2018-07-24T05:44:50.000Z</time>
      </trkpt>
      <trkpt lat="42.452155" lon="-5.919824">
        <ele>834.5900032</ele>
        <time>2018-07-24T05:44:51.990Z</time>
      </trkpt>
      <trkpt lat="42.45215" lon="-5.919963">
        <ele>835</ele>
        <time>2018-07-24T05:44:53.990Z</time>
      </trkpt>
      <trkpt lat="42.452155" lon="-5.920103">
        <ele>835</ele>
        <time>2018-07-24T05:44:55.990Z</time>
      </trkpt>
      <trkpt lat="42.452157" lon="-5.920243">
        <ele>835</ele>
        <time>2018-07-24T05:44:57.990Z</time>
      </trkpt>
      <trkpt lat="42.452149" lon="-5.920371">
        <ele>835</ele>
        <time>2018-07-24T05:45:00.000Z</time>
      </trkpt>
      <trkpt lat="42.452119" lon="-5.920495">
        <ele>835</ele>
        <time>2018-07-24T05:45:01.990Z</time>
      </trkpt>
      <trkpt lat="42.452072" lon="-5.920615">
        <ele>835</ele>
        <time>2018-07-24T05:45:03.990Z</time>
      </trkpt>
      <trkpt lat="42.452029" lon="-5.920722">
        <ele>835</ele>
        <time>2018-07-24T05:45:05.990Z</time>
      </trkpt>
      <trkpt lat="42.45198" lon="-5.920832">
        <ele>835</ele>
        <time>2018-07-24T05:45:10.000Z</time>
      </trkpt>
      <trkpt lat="42.452015" lon="-5.920696">
        <ele>836</ele>
        <time>2018-07-24T05:45:22.990Z</time>
      </trkpt>
      <trkpt lat="42.452096" lon="-5.920628">
        <ele>836</ele>
        <time>2018-07-24T05:45:25.990Z</time>
      </trkpt>
      <trkpt lat="42.452189" lon="-5.92061">
        <ele>835</ele>
        <time>2018-07-24T05:45:28.990Z</time>
      </trkpt>
      <trkpt lat="42.452289" lon="-5.920678">
        <ele>835</ele>
        <time>2018-07-24T05:45:32.990Z</time>
      </trkpt>
      <trkpt lat="42.452339" lon="-5.920781">
        <ele>836</ele>
        <time>2018-07-24T05:45:36.990Z</time>
      </trkpt>
      <trkpt lat="42.452332" lon="-5.920935">
        <ele>836</ele>
        <time>2018-07-24T05:45:40.990Z</time>
      </trkpt>
      <trkpt lat="42.452285" lon="-5.921068">
        <ele>836</ele>
        <time>2018-07-24T05:45:43.990Z</time>
      </trkpt>
      <trkpt lat="42.452222" lon="-5.921204">
        <ele>836</ele>
        <time>2018-07-24T05:45:46.990Z</time>
      </trkpt>
      <trkpt lat="42.452146" lon="-5.921342">
        <ele>836</ele>
        <time>2018-07-24T05:45:50.000Z</time>
      </trkpt>
      <trkpt lat="42.452061" lon="-5.921473">
        <ele>836</ele>
        <time>2018-07-24T05:45:52.990Z</time>
      </trkpt>
      <trkpt lat="42.451979" lon="-5.921606">
        <ele>836</ele>
        <time>2018-07-24T05:45:55.990Z</time>
      </trkpt>
      <trkpt lat="42.451886" lon="-5.921732">
        <ele>836</ele>
        <time>2018-07-24T05:45:58.990Z</time>
      </trkpt>
      <trkpt lat="42.451827" lon="-5.921826">
        <ele>836</ele>
        <time>2018-07-24T05:46:00.990Z</time>
      </trkpt>
      <trkpt lat="42.451783" lon="-5.921992">
        <ele>836</ele>
        <time>2018-07-24T05:46:03.990Z</time>
      </trkpt>
      <trkpt lat="42.45175" lon="-5.922167">
        <ele>836</ele>
        <time>2018-07-24T05:46:06.990Z</time>
      </trkpt>
      <trkpt lat="42.451727" lon="-5.922337">
        <ele>836</ele>
        <time>2018-07-24T05:46:10.000Z</time>
      </trkpt>
      <trkpt lat="42.451694" lon="-5.92251">
        <ele>836</ele>
        <time>2018-07-24T05:46:12.990Z</time>
      </trkpt>
      <trkpt lat="42.451665" lon="-5.922685">
        <ele>836</ele>
        <time>2018-07-24T05:46:15.990Z</time>
      </trkpt>
      <trkpt lat="42.451644" lon="-5.922805">
        <ele>836</ele>
        <time>2018-07-24T05:46:17.990Z</time>
      </trkpt>
      <trkpt lat="42.451624" lon="-5.922924">
        <ele>836</ele>
        <time>2018-07-24T05:46:20.000Z</time>
      </trkpt>
      <trkpt lat="42.451602" lon="-5.923044">
        <ele>837</ele>
        <time>2018-07-24T05:46:21.990Z</time>
      </trkpt>
      <trkpt lat="42.451569" lon="-5.923221">
        <ele>837</ele>
        <time>2018-07-24T05:46:25.000Z</time>
      </trkpt>
      <trkpt lat="42.451545" lon="-5.923342">
        <ele>837</ele>
        <time>2018-07-24T05:46:26.990Z</time>
      </trkpt>
      <trkpt lat="42.451527" lon="-5.923468">
        <ele>836.4099968</ele>
        <time>2018-07-24T05:46:28.990Z</time>
      </trkpt>
      <trkpt lat="42.451503" lon="-5.923593">
        <ele>836</ele>
        <time>2018-07-24T05:46:30.990Z</time>
      </trkpt>
      <trkpt lat="42.451481" lon="-5.923718">
        <ele>836</ele>
        <time>2018-07-24T05:46:32.990Z</time>
      </trkpt>
      <trkpt lat="42.451461" lon="-5.923855">
        <ele>836</ele>
        <time>2018-07-24T05:46:35.000Z</time>
      </trkpt>
      <trkpt lat="42.451438" lon="-5.923978">
        <ele>836</ele>
        <time>2018-07-24T05:46:36.990Z</time>
      </trkpt>
      <trkpt lat="42.45141" lon="-5.924154">
        <ele>837</ele>
        <time>2018-07-24T05:46:40.000Z</time>
      </trkpt>
      <trkpt lat="42.451383" lon="-5.924274">
        <ele>837</ele>
        <time>2018-07-24T05:46:41.990Z</time>
      </trkpt>
      <trkpt lat="42.451361" lon="-5.924396">
        <ele>837</ele>
        <time>2018-07-24T05:46:43.990Z</time>
      </trkpt>
      <trkpt lat="42.451345" lon="-5.924518">
        <ele>837</ele>
        <time>2018-07-24T05:46:45.990Z</time>
      </trkpt>
      <trkpt lat="42.451323" lon="-5.924641">
        <ele>837</ele>
        <time>2018-07-24T05:46:47.990Z</time>
      </trkpt>
      <trkpt lat="42.451301" lon="-5.924763">
        <ele>837</ele>
        <time>2018-07-24T05:46:50.000Z</time>
      </trkpt>
      <trkpt lat="42.451281" lon="-5.924882">
        <ele>837</ele>
        <time>2018-07-24T05:46:51.990Z</time>
      </trkpt>
      <trkpt lat="42.451261" lon="-5.925005">
        <ele>837</ele>
        <time>2018-07-24T05:46:53.990Z</time>
      </trkpt>
      <trkpt lat="42.451233" lon="-5.925175">
        <ele>837</ele>
        <time>2018-07-24T05:46:56.990Z</time>
      </trkpt>
      <trkpt lat="42.451215" lon="-5.92533">
        <ele>838</ele>
        <time>2018-07-24T05:47:00.000Z</time>
      </trkpt>
      <trkpt lat="42.451193" lon="-5.925493">
        <ele>839</ele>
        <time>2018-07-24T05:47:02.990Z</time>
      </trkpt>
      <trkpt lat="42.451161" lon="-5.925662">
        <ele>839</ele>
        <time>2018-07-24T05:47:05.990Z</time>
      </trkpt>
      <trkpt lat="42.451137" lon="-5.925832">
        <ele>839</ele>
        <time>2018-07-24T05:47:08.990Z</time>
      </trkpt>
      <trkpt lat="42.451106" lon="-5.926001">
        <ele>840</ele>
        <time>2018-07-24T05:47:11.990Z</time>
      </trkpt>
      <trkpt lat="42.451085" lon="-5.926173">
        <ele>840</ele>
        <time>2018-07-24T05:47:15.000Z</time>
      </trkpt>
      <trkpt lat="42.451052" lon="-5.926342">
        <ele>840</ele>
        <time>2018-07-24T05:47:17.990Z</time>
      </trkpt>
      <trkpt lat="42.451032" lon="-5.926515">
        <ele>840</ele>
        <time>2018-07-24T05:47:20.990Z</time>
      </trkpt>
      <trkpt lat="42.451002" lon="-5.926693">
        <ele>841</ele>
        <time>2018-07-24T05:47:23.990Z</time>
      </trkpt>
      <trkpt lat="42.450974" lon="-5.92681">
        <ele>841</ele>
        <time>2018-07-24T05:47:25.990Z</time>
      </trkpt>
      <trkpt lat="42.450955" lon="-5.926931">
        <ele>841</ele>
        <time>2018-07-24T05:47:27.990Z</time>
      </trkpt>
      <trkpt lat="42.450935" lon="-5.927055">
        <ele>841</ele>
        <time>2018-07-24T05:47:30.000Z</time>
      </trkpt>
      <trkpt lat="42.45091" lon="-5.927223">
        <ele>841</ele>
        <time>2018-07-24T05:47:32.990Z</time>
      </trkpt>
      <trkpt lat="42.450881" lon="-5.927385">
        <ele>841</ele>
        <time>2018-07-24T05:47:35.990Z</time>
      </trkpt>
      <trkpt lat="42.45085" lon="-5.927559">
        <ele>842</ele>
        <time>2018-07-24T05:47:38.990Z</time>
      </trkpt>
      <trkpt lat="42.450824" lon="-5.927723">
        <ele>842</ele>
        <time>2018-07-24T05:47:41.990Z</time>
      </trkpt>
      <trkpt lat="42.450797" lon="-5.927893">
        <ele>843</ele>
        <time>2018-07-24T05:47:45.000Z</time>
      </trkpt>
      <trkpt lat="42.450766" lon="-5.928052">
        <ele>843</ele>
        <time>2018-07-24T05:47:47.990Z</time>
      </trkpt>
      <trkpt lat="42.450741" lon="-5.928197">
        <ele>843.5900032</ele>
        <time>2018-07-24T05:47:50.990Z</time>
      </trkpt>
      <trkpt lat="42.450726" lon="-5.928344">
        <ele>844</ele>
        <time>2018-07-24T05:47:55.000Z</time>
      </trkpt>
      <trkpt lat="42.450694" lon="-5.928473">
        <ele>845</ele>
        <time>2018-07-24T05:48:00.990Z</time>
      </trkpt>
      <trkpt lat="42.450665" lon="-5.928592">
        <ele>845</ele>
        <time>2018-07-24T05:48:05.000Z</time>
      </trkpt>
      <trkpt lat="42.450648" lon="-5.928737">
        <ele>845</ele>
        <time>2018-07-24T05:48:08.990Z</time>
      </trkpt>
      <trkpt lat="42.450617" lon="-5.928866">
        <ele>846</ele>
        <time>2018-07-24T05:48:11.990Z</time>
      </trkpt>
      <trkpt lat="42.450602" lon="-5.928999">
        <ele>846</ele>
        <time>2018-07-24T05:48:15.000Z</time>
      </trkpt>
      <trkpt lat="42.450592" lon="-5.92913">
        <ele>846.405798983416</ele>
        <time>2018-07-24T05:48:17.990Z</time>
      </trkpt>
      <trkpt lat="42.450575" lon="-5.929266">
        <ele>847</ele>
        <time>2018-07-24T05:48:20.990Z</time>
      </trkpt>
      <trkpt lat="42.450547" lon="-5.9294">
        <ele>847.5900032</ele>
        <time>2018-07-24T05:48:23.990Z</time>
      </trkpt>
      <trkpt lat="42.450518" lon="-5.929518">
        <ele>848</ele>
        <time>2018-07-24T05:48:26.990Z</time>
      </trkpt>
      <trkpt lat="42.450499" lon="-5.929658">
        <ele>848.6</ele>
        <time>2018-07-24T05:48:30.000Z</time>
      </trkpt>
      <trkpt lat="42.450468" lon="-5.929786">
        <ele>849</ele>
        <time>2018-07-24T05:48:32.990Z</time>
      </trkpt>
      <trkpt lat="42.450436" lon="-5.929936">
        <ele>850</ele>
        <time>2018-07-24T05:48:36.990Z</time>
      </trkpt>
      <trkpt lat="42.450413" lon="-5.930094">
        <ele>850.585863156806</ele>
        <time>2018-07-24T05:48:40.990Z</time>
      </trkpt>
      <trkpt lat="42.450375" lon="-5.930232">
        <ele>851</ele>
        <time>2018-07-24T05:48:45.000Z</time>
      </trkpt>
      <trkpt lat="42.450338" lon="-5.930369">
        <ele>852</ele>
        <time>2018-07-24T05:48:48.990Z</time>
      </trkpt>
      <trkpt lat="42.4503" lon="-5.9305">
        <ele>852</ele>
        <time>2018-07-24T05:48:52.990Z</time>
      </trkpt>
      <trkpt lat="42.450256" lon="-5.930638">
        <ele>854</ele>
        <time>2018-07-24T05:48:57.990Z</time>
      </trkpt>
      <trkpt lat="42.450214" lon="-5.930773">
        <ele>854.5900032</ele>
        <time>2018-07-24T05:49:02.990Z</time>
      </trkpt>
      <trkpt lat="42.450172" lon="-5.930905">
        <ele>855</ele>
        <time>2018-07-24T05:49:07.990Z</time>
      </trkpt>
      <trkpt lat="42.450145" lon="-5.93103">
        <ele>856</ele>
        <time>2018-07-24T05:49:11.990Z</time>
      </trkpt>
      <trkpt lat="42.450096" lon="-5.931163">
        <ele>857</ele>
        <time>2018-07-24T05:49:15.990Z</time>
      </trkpt>
      <trkpt lat="42.45006" lon="-5.931298">
        <ele>857</ele>
        <time>2018-07-24T05:49:20.000Z</time>
      </trkpt>
      <trkpt lat="42.450029" lon="-5.931447">
        <ele>857.5900032</ele>
        <time>2018-07-24T05:49:23.990Z</time>
      </trkpt>
      <trkpt lat="42.449988" lon="-5.931602">
        <ele>858</ele>
        <time>2018-07-24T05:49:27.990Z</time>
      </trkpt>
      <trkpt lat="42.449964" lon="-5.93173">
        <ele>858</ele>
        <time>2018-07-24T05:49:30.990Z</time>
      </trkpt>
      <trkpt lat="42.449943" lon="-5.931865">
        <ele>858.5900032</ele>
        <time>2018-07-24T05:49:33.990Z</time>
      </trkpt>
      <trkpt lat="42.449917" lon="-5.931996">
        <ele>859</ele>
        <time>2018-07-24T05:49:36.990Z</time>
      </trkpt>
      <trkpt lat="42.449892" lon="-5.932132">
        <ele>859</ele>
        <time>2018-07-24T05:49:40.000Z</time>
      </trkpt>
      <trkpt lat="42.449878" lon="-5.932276">
        <ele>859</ele>
        <time>2018-07-24T05:49:42.990Z</time>
      </trkpt>
      <trkpt lat="42.449854" lon="-5.932408">
        <ele>859.405798983416</ele>
        <time>2018-07-24T05:49:45.990Z</time>
      </trkpt>
      <trkpt lat="42.449833" lon="-5.932541">
        <ele>860</ele>
        <time>2018-07-24T05:49:48.990Z</time>
      </trkpt>
      <trkpt lat="42.449887" lon="-5.932655">
        <ele>860.5900032</ele>
        <time>2018-07-24T05:49:51.990Z</time>
      </trkpt>
      <trkpt lat="42.44989" lon="-5.932817">
        <ele>862</ele>
        <time>2018-07-24T05:49:55.990Z</time>
      </trkpt>
      <trkpt lat="42.449867" lon="-5.932961">
        <ele>862</ele>
        <time>2018-07-24T05:49:58.990Z</time>
      </trkpt>
      <trkpt lat="42.449837" lon="-5.933099">
        <ele>862</ele>
        <time>2018-07-24T05:50:01.990Z</time>
      </trkpt>
      <trkpt lat="42.449802" lon="-5.93324">
        <ele>863</ele>
        <time>2018-07-24T05:50:05.000Z</time>
      </trkpt>
      <trkpt lat="42.449771" lon="-5.933367">
        <ele>863</ele>
        <time>2018-07-24T05:50:07.990Z</time>
      </trkpt>
      <trkpt lat="42.449738" lon="-5.933501">
        <ele>863.5900032</ele>
        <time>2018-07-24T05:50:10.990Z</time>
      </trkpt>
      <trkpt lat="42.449709" lon="-5.933639">
        <ele>864</ele>
        <time>2018-07-24T05:50:13.990Z</time>
      </trkpt>
      <trkpt lat="42.449677" lon="-5.933777">
        <ele>864</ele>
        <time>2018-07-24T05:50:16.990Z</time>
      </trkpt>
      <trkpt lat="42.449646" lon="-5.933916">
        <ele>864.6</ele>
        <time>2018-07-24T05:50:20.000Z</time>
      </trkpt>
      <trkpt lat="42.44961" lon="-5.934061">
        <ele>865</ele>
        <time>2018-07-24T05:50:22.990Z</time>
      </trkpt>
      <trkpt lat="42.449574" lon="-5.934199">
        <ele>865</ele>
        <time>2018-07-24T05:50:25.990Z</time>
      </trkpt>
      <trkpt lat="42.449539" lon="-5.93434">
        <ele>866</ele>
        <time>2018-07-24T05:50:28.990Z</time>
      </trkpt>
      <trkpt lat="42.449514" lon="-5.93447">
        <ele>866</ele>
        <time>2018-07-24T05:50:31.990Z</time>
      </trkpt>
      <trkpt lat="42.449478" lon="-5.934624">
        <ele>867</ele>
        <time>2018-07-24T05:50:35.000Z</time>
      </trkpt>
      <trkpt lat="42.449441" lon="-5.934778">
        <ele>867</ele>
        <time>2018-07-24T05:50:38.000Z</time>
      </trkpt>
      <trkpt lat="42.449403" lon="-5.934938">
        <ele>867</ele>
        <time>2018-07-24T05:50:41.000Z</time>
      </trkpt>
      <trkpt lat="42.449376" lon="-5.935057">
        <ele>867</ele>
        <time>2018-07-24T05:50:43.000Z</time>
      </trkpt>
      <trkpt lat="42.449339" lon="-5.935211">
        <ele>867</ele>
        <time>2018-07-24T05:50:46.000Z</time>
      </trkpt>
      <trkpt lat="42.449298" lon="-5.935365">
        <ele>867</ele>
        <time>2018-07-24T05:50:49.000Z</time>
      </trkpt>
      <trkpt lat="42.449263" lon="-5.935523">
        <ele>867</ele>
        <time>2018-07-24T05:50:52.000Z</time>
      </trkpt>
      <trkpt lat="42.449228" lon="-5.93568">
        <ele>867</ele>
        <time>2018-07-24T05:50:55.000Z</time>
      </trkpt>
      <trkpt lat="42.449191" lon="-5.935839">
        <ele>867</ele>
        <time>2018-07-24T05:50:58.000Z</time>
      </trkpt>
      <trkpt lat="42.449158" lon="-5.936">
        <ele>867</ele>
        <time>2018-07-24T05:51:01.000Z</time>
      </trkpt>
      <trkpt lat="42.449122" lon="-5.936151">
        <ele>867</ele>
        <time>2018-07-24T05:51:04.000Z</time>
      </trkpt>
      <trkpt lat="42.449087" lon="-5.936297">
        <ele>867.563377742523</ele>
        <time>2018-07-24T05:51:07.000Z</time>
      </trkpt>
      <trkpt lat="42.449056" lon="-5.93645">
        <ele>867</ele>
        <time>2018-07-24T05:51:10.000Z</time>
      </trkpt>
      <trkpt lat="42.449018" lon="-5.936613">
        <ele>867</ele>
        <time>2018-07-24T05:51:13.000Z</time>
      </trkpt>
      <trkpt lat="42.44899" lon="-5.936732">
        <ele>867</ele>
        <time>2018-07-24T05:51:15.000Z</time>
      </trkpt>
      <trkpt lat="42.448959" lon="-5.936858">
        <ele>867</ele>
        <time>2018-07-24T05:51:17.000Z</time>
      </trkpt>
      <trkpt lat="42.448921" lon="-5.936994">
        <ele>867</ele>
        <time>2018-07-24T05:51:19.000Z</time>
      </trkpt>
      <trkpt lat="42.448878" lon="-5.937136">
        <ele>866.4</ele>
        <time>2018-07-24T05:51:21.000Z</time>
      </trkpt>
      <trkpt lat="42.448836" lon="-5.937288">
        <ele>865</ele>
        <time>2018-07-24T05:51:23.000Z</time>
      </trkpt>
      <trkpt lat="42.448788" lon="-5.937445">
        <ele>864.563377742523</ele>
        <time>2018-07-24T05:51:25.000Z</time>
      </trkpt>
      <trkpt lat="42.448738" lon="-5.937607">
        <ele>863.404039098055</ele>
        <time>2018-07-24T05:51:27.000Z</time>
      </trkpt>
      <trkpt lat="42.448688" lon="-5.937775">
        <ele>863</ele>
        <time>2018-07-24T05:51:29.000Z</time>
      </trkpt>
      <trkpt lat="42.448632" lon="-5.937947">
        <ele>863</ele>
        <time>2018-07-24T05:51:31.000Z</time>
      </trkpt>
      <trkpt lat="42.448573" lon="-5.938126">
        <ele>861.579712833451</ele>
        <time>2018-07-24T05:51:33.000Z</time>
      </trkpt>
      <trkpt lat="42.448513" lon="-5.93831">
        <ele>860</ele>
        <time>2018-07-24T05:51:35.000Z</time>
      </trkpt>
      <trkpt lat="42.448453" lon="-5.9385">
        <ele>860</ele>
        <time>2018-07-24T05:51:37.000Z</time>
      </trkpt>
      <trkpt lat="42.448394" lon="-5.938695">
        <ele>859</ele>
        <time>2018-07-24T05:51:39.000Z</time>
      </trkpt>
      <trkpt lat="42.448334" lon="-5.938894">
        <ele>859</ele>
        <time>2018-07-24T05:51:40.990Z</time>
      </trkpt>
      <trkpt lat="42.448275" lon="-5.939098">
        <ele>859</ele>
        <time>2018-07-24T05:51:42.990Z</time>
      </trkpt>
      <trkpt lat="42.448214" lon="-5.939303">
        <ele>859</ele>
        <time>2018-07-24T05:51:45.000Z</time>
      </trkpt>
      <trkpt lat="42.448156" lon="-5.93951">
        <ele>858</ele>
        <time>2018-07-24T05:51:46.990Z</time>
      </trkpt>
      <trkpt lat="42.448101" lon="-5.939714">
        <ele>857.577457679064</ele>
        <time>2018-07-24T05:51:48.990Z</time>
      </trkpt>
      <trkpt lat="42.448048" lon="-5.939921">
        <ele>857</ele>
        <time>2018-07-24T05:51:50.990Z</time>
      </trkpt>
      <trkpt lat="42.447998" lon="-5.940128">
        <ele>856</ele>
        <time>2018-07-24T05:51:52.990Z</time>
      </trkpt>
      <trkpt lat="42.447946" lon="-5.940338">
        <ele>856</ele>
        <time>2018-07-24T05:51:55.000Z</time>
      </trkpt>
      <trkpt lat="42.447892" lon="-5.940543">
        <ele>855</ele>
        <time>2018-07-24T05:51:56.990Z</time>
      </trkpt>
      <trkpt lat="42.447842" lon="-5.94075">
        <ele>854.577457679064</ele>
        <time>2018-07-24T05:51:58.990Z</time>
      </trkpt>
      <trkpt lat="42.447794" lon="-5.940939">
        <ele>854</ele>
        <time>2018-07-24T05:52:00.990Z</time>
      </trkpt>
      <trkpt lat="42.447766" lon="-5.941079">
        <ele>854</ele>
        <time>2018-07-24T05:52:02.990Z</time>
      </trkpt>
      <trkpt lat="42.447701" lon="-5.941164">
        <ele>854</ele>
        <time>2018-07-24T05:52:07.990Z</time>
      </trkpt>
      <trkpt lat="42.447643" lon="-5.941266">
        <ele>855</ele>
        <time>2018-07-24T05:52:12.990Z</time>
      </trkpt>
      <trkpt lat="42.447605" lon="-5.941411">
        <ele>855</ele>
        <time>2018-07-24T05:52:15.990Z</time>
      </trkpt>
      <trkpt lat="42.447563" lon="-5.941576">
        <ele>854</ele>
        <time>2018-07-24T05:52:18.990Z</time>
      </trkpt>
      <trkpt lat="42.447533" lon="-5.941698">
        <ele>854</ele>
        <time>2018-07-24T05:52:20.990Z</time>
      </trkpt>
      <trkpt lat="42.447501" lon="-5.941826">
        <ele>854</ele>
        <time>2018-07-24T05:52:22.990Z</time>
      </trkpt>
      <trkpt lat="42.447468" lon="-5.941956">
        <ele>854</ele>
        <time>2018-07-24T05:52:25.000Z</time>
      </trkpt>
      <trkpt lat="42.447443" lon="-5.942082">
        <ele>853</ele>
        <time>2018-07-24T05:52:26.990Z</time>
      </trkpt>
      <trkpt lat="42.447417" lon="-5.942207">
        <ele>853</ele>
        <time>2018-07-24T05:52:28.990Z</time>
      </trkpt>
      <trkpt lat="42.44739" lon="-5.942338">
        <ele>853</ele>
        <time>2018-07-24T05:52:30.990Z</time>
      </trkpt>
      <trkpt lat="42.447359" lon="-5.942464">
        <ele>853</ele>
        <time>2018-07-24T05:52:32.990Z</time>
      </trkpt>
      <trkpt lat="42.447326" lon="-5.942596">
        <ele>853</ele>
        <time>2018-07-24T05:52:35.000Z</time>
      </trkpt>
      <trkpt lat="42.447297" lon="-5.942726">
        <ele>853.5900032</ele>
        <time>2018-07-24T05:52:36.990Z</time>
      </trkpt>
      <trkpt lat="42.447266" lon="-5.942856">
        <ele>854</ele>
        <time>2018-07-24T05:52:38.990Z</time>
      </trkpt>
      <trkpt lat="42.447236" lon="-5.942977">
        <ele>854</ele>
        <time>2018-07-24T05:52:40.990Z</time>
      </trkpt>
      <trkpt lat="42.447207" lon="-5.9431">
        <ele>854</ele>
        <time>2018-07-24T05:52:42.990Z</time>
      </trkpt>
      <trkpt lat="42.447186" lon="-5.943265">
        <ele>854</ele>
        <time>2018-07-24T05:52:45.990Z</time>
      </trkpt>
      <trkpt lat="42.447181" lon="-5.943421">
        <ele>854</ele>
        <time>2018-07-24T05:52:48.990Z</time>
      </trkpt>
      <trkpt lat="42.447177" lon="-5.943574">
        <ele>854</ele>
        <time>2018-07-24T05:52:51.990Z</time>
      </trkpt>
      <trkpt lat="42.447137" lon="-5.943715">
        <ele>854</ele>
        <time>2018-07-24T05:52:55.000Z</time>
      </trkpt>
      <trkpt lat="42.447075" lon="-5.943822">
        <ele>854.405798983416</ele>
        <time>2018-07-24T05:52:57.990Z</time>
      </trkpt>
      <trkpt lat="42.446994" lon="-5.94388">
        <ele>856</ele>
        <time>2018-07-24T05:53:02.990Z</time>
      </trkpt>
      <trkpt lat="42.446902" lon="-5.943876">
        <ele>856</ele>
        <time>2018-07-24T05:53:10.990Z</time>
      </trkpt>
      <trkpt lat="42.446799" lon="-5.943877">
        <ele>856</ele>
        <time>2018-07-24T05:53:15.000Z</time>
      </trkpt>
      <trkpt lat="42.446754" lon="-5.943996">
        <ele>855</ele>
        <time>2018-07-24T05:53:17.990Z</time>
      </trkpt>
      <trkpt lat="42.446707" lon="-5.944154">
        <ele>855</ele>
        <time>2018-07-24T05:53:20.990Z</time>
      </trkpt>
      <trkpt lat="42.446663" lon="-5.944279">
        <ele>854</ele>
        <time>2018-07-24T05:53:22.990Z</time>
      </trkpt>
      <trkpt lat="42.446618" lon="-5.944416">
        <ele>853</ele>
        <time>2018-07-24T05:53:25.000Z</time>
      </trkpt>
      <trkpt lat="42.446582" lon="-5.944543">
        <ele>853</ele>
        <time>2018-07-24T05:53:26.990Z</time>
      </trkpt>
      <trkpt lat="42.446543" lon="-5.944705">
        <ele>853</ele>
        <time>2018-07-24T05:53:30.000Z</time>
      </trkpt>
      <trkpt lat="42.44651" lon="-5.944855">
        <ele>853</ele>
        <time>2018-07-24T05:53:32.990Z</time>
      </trkpt>
      <trkpt lat="42.446486" lon="-5.944995">
        <ele>854.5900032</ele>
        <time>2018-07-24T05:53:35.990Z</time>
      </trkpt>
      <trkpt lat="42.446466" lon="-5.945138">
        <ele>856</ele>
        <time>2018-07-24T05:53:38.990Z</time>
      </trkpt>
      <trkpt lat="42.446431" lon="-5.945268">
        <ele>857</ele>
        <time>2018-07-24T05:53:41.990Z</time>
      </trkpt>
      <trkpt lat="42.446409" lon="-5.945414">
        <ele>857</ele>
        <time>2018-07-24T05:53:45.000Z</time>
      </trkpt>
      <trkpt lat="42.446387" lon="-5.945564">
        <ele>858</ele>
        <time>2018-07-24T05:53:47.990Z</time>
      </trkpt>
      <trkpt lat="42.446369" lon="-5.945713">
        <ele>858</ele>
        <time>2018-07-24T05:53:50.990Z</time>
      </trkpt>
      <trkpt lat="42.446356" lon="-5.945865">
        <ele>859</ele>
        <time>2018-07-24T05:53:53.990Z</time>
      </trkpt>
      <trkpt lat="42.446355" lon="-5.946009">
        <ele>859</ele>
        <time>2018-07-24T05:53:56.990Z</time>
      </trkpt>
      <trkpt lat="42.446351" lon="-5.946151">
        <ele>860</ele>
        <time>2018-07-24T05:54:00.000Z</time>
      </trkpt>
      <trkpt lat="42.446352" lon="-5.946275">
        <ele>860.5900032</ele>
        <time>2018-07-24T05:54:02.990Z</time>
      </trkpt>
      <trkpt lat="42.446361" lon="-5.946399">
        <ele>861.5900032</ele>
        <time>2018-07-24T05:54:05.990Z</time>
      </trkpt>
      <trkpt lat="42.446372" lon="-5.946558">
        <ele>862</ele>
        <time>2018-07-24T05:54:10.000Z</time>
      </trkpt>
      <trkpt lat="42.446373" lon="-5.94668">
        <ele>862.5900032</ele>
        <time>2018-07-24T05:54:12.990Z</time>
      </trkpt>
      <trkpt lat="42.446383" lon="-5.946812">
        <ele>863</ele>
        <time>2018-07-24T05:54:15.990Z</time>
      </trkpt>
      <trkpt lat="42.446394" lon="-5.946941">
        <ele>863.5900032</ele>
        <time>2018-07-24T05:54:18.990Z</time>
      </trkpt>
      <trkpt lat="42.446404" lon="-5.94708">
        <ele>864</ele>
        <time>2018-07-24T05:54:21.990Z</time>
      </trkpt>
      <trkpt lat="42.446407" lon="-5.947218">
        <ele>864</ele>
        <time>2018-07-24T05:54:25.000Z</time>
      </trkpt>
      <trkpt lat="42.446421" lon="-5.947356">
        <ele>865</ele>
        <time>2018-07-24T05:54:27.990Z</time>
      </trkpt>
      <trkpt lat="42.446426" lon="-5.94748">
        <ele>865</ele>
        <time>2018-07-24T05:54:30.990Z</time>
      </trkpt>
      <trkpt lat="42.44644" lon="-5.947606">
        <ele>866</ele>
        <time>2018-07-24T05:54:33.990Z</time>
      </trkpt>
      <trkpt lat="42.446445" lon="-5.947746">
        <ele>866</ele>
        <time>2018-07-24T05:54:36.990Z</time>
      </trkpt>
      <trkpt lat="42.44645" lon="-5.947896">
        <ele>865.436622257477</ele>
        <time>2018-07-24T05:54:40.000Z</time>
      </trkpt>
      <trkpt lat="42.446461" lon="-5.94804">
        <ele>866</ele>
        <time>2018-07-24T05:54:42.990Z</time>
      </trkpt>
      <trkpt lat="42.446476" lon="-5.948168">
        <ele>866</ele>
        <time>2018-07-24T05:54:45.990Z</time>
      </trkpt>
      <trkpt lat="42.446489" lon="-5.94831">
        <ele>866</ele>
        <time>2018-07-24T05:54:48.990Z</time>
      </trkpt>
      <trkpt lat="42.446497" lon="-5.948449">
        <ele>867</ele>
        <time>2018-07-24T05:54:51.990Z</time>
      </trkpt>
      <trkpt lat="42.4465" lon="-5.948593">
        <ele>867</ele>
        <time>2018-07-24T05:54:55.000Z</time>
      </trkpt>
      <trkpt lat="42.446511" lon="-5.948731">
        <ele>867</ele>
        <time>2018-07-24T05:54:57.990Z</time>
      </trkpt>
      <trkpt lat="42.446516" lon="-5.948878">
        <ele>868</ele>
        <time>2018-07-24T05:55:00.990Z</time>
      </trkpt>
      <trkpt lat="42.446525" lon="-5.949014">
        <ele>869</ele>
        <time>2018-07-24T05:55:03.990Z</time>
      </trkpt>
      <trkpt lat="42.446543" lon="-5.94915">
        <ele>869</ele>
        <time>2018-07-24T05:55:06.990Z</time>
      </trkpt>
      <trkpt lat="42.446546" lon="-5.949297">
        <ele>869</ele>
        <time>2018-07-24T05:55:10.000Z</time>
      </trkpt>
      <trkpt lat="42.446558" lon="-5.949453">
        <ele>869.422542320936</ele>
        <time>2018-07-24T05:55:12.990Z</time>
      </trkpt>
      <trkpt lat="42.446566" lon="-5.949596">
        <ele>870</ele>
        <time>2018-07-24T05:55:15.990Z</time>
      </trkpt>
      <trkpt lat="42.446575" lon="-5.949733">
        <ele>871</ele>
        <time>2018-07-24T05:55:18.990Z</time>
      </trkpt>
      <trkpt lat="42.446579" lon="-5.949875">
        <ele>871</ele>
        <time>2018-07-24T05:55:21.990Z</time>
      </trkpt>
      <trkpt lat="42.446589" lon="-5.949999">
        <ele>870.6</ele>
        <time>2018-07-24T05:55:25.000Z</time>
      </trkpt>
      <trkpt lat="42.446599" lon="-5.950126">
        <ele>871</ele>
        <time>2018-07-24T05:55:27.990Z</time>
      </trkpt>
      <trkpt lat="42.446602" lon="-5.950263">
        <ele>871</ele>
        <time>2018-07-24T05:55:30.990Z</time>
      </trkpt>
      <trkpt lat="42.446607" lon="-5.950402">
        <ele>872</ele>
        <time>2018-07-24T05:55:33.990Z</time>
      </trkpt>
      <trkpt lat="42.446618" lon="-5.950536">
        <ele>873</ele>
        <time>2018-07-24T05:55:36.990Z</time>
      </trkpt>
      <trkpt lat="42.446631" lon="-5.950681">
        <ele>873</ele>
        <time>2018-07-24T05:55:40.000Z</time>
      </trkpt>
      <trkpt lat="42.446643" lon="-5.95083">
        <ele>874</ele>
        <time>2018-07-24T05:55:42.990Z</time>
      </trkpt>
      <trkpt lat="42.44665" lon="-5.950979">
        <ele>874</ele>
        <time>2018-07-24T05:55:45.990Z</time>
      </trkpt>
      <trkpt lat="42.446675" lon="-5.951121">
        <ele>874</ele>
        <time>2018-07-24T05:55:48.990Z</time>
      </trkpt>
      <trkpt lat="42.446687" lon="-5.951255">
        <ele>874.581633186176</ele>
        <time>2018-07-24T05:55:51.990Z</time>
      </trkpt>
      <trkpt lat="42.446688" lon="-5.951383">
        <ele>875</ele>
        <time>2018-07-24T05:55:55.000Z</time>
      </trkpt>
      <trkpt lat="42.446702" lon="-5.951512">
        <ele>875</ele>
        <time>2018-07-24T05:55:57.990Z</time>
      </trkpt>
      <trkpt lat="42.446713" lon="-5.951645">
        <ele>875</ele>
        <time>2018-07-24T05:56:00.990Z</time>
      </trkpt>
      <trkpt lat="42.446719" lon="-5.951777">
        <ele>875</ele>
        <time>2018-07-24T05:56:03.990Z</time>
      </trkpt>
      <trkpt lat="42.446727" lon="-5.951919">
        <ele>875</ele>
        <time>2018-07-24T05:56:06.990Z</time>
      </trkpt>
      <trkpt lat="42.446734" lon="-5.952066">
        <ele>875</ele>
        <time>2018-07-24T05:56:10.000Z</time>
      </trkpt>
      <trkpt lat="42.446745" lon="-5.952202">
        <ele>875</ele>
        <time>2018-07-24T05:56:12.990Z</time>
      </trkpt>
      <trkpt lat="42.446759" lon="-5.952336">
        <ele>875</ele>
        <time>2018-07-24T05:56:15.990Z</time>
      </trkpt>
      <trkpt lat="42.446769" lon="-5.952472">
        <ele>876</ele>
        <time>2018-07-24T05:56:18.990Z</time>
      </trkpt>
      <trkpt lat="42.446778" lon="-5.952608">
        <ele>877</ele>
        <time>2018-07-24T05:56:21.990Z</time>
      </trkpt>
      <trkpt lat="42.446789" lon="-5.952746">
        <ele>877</ele>
        <time>2018-07-24T05:56:25.000Z</time>
      </trkpt>
      <trkpt lat="42.446796" lon="-5.952884">
        <ele>877</ele>
        <time>2018-07-24T05:56:27.990Z</time>
      </trkpt>
      <trkpt lat="42.446802" lon="-5.953026">
        <ele>878</ele>
        <time>2018-07-24T05:56:30.990Z</time>
      </trkpt>
      <trkpt lat="42.446809" lon="-5.953176">
        <ele>878</ele>
        <time>2018-07-24T05:56:33.990Z</time>
      </trkpt>
      <trkpt lat="42.446818" lon="-5.953324">
        <ele>878</ele>
        <time>2018-07-24T05:56:36.990Z</time>
      </trkpt>
      <trkpt lat="42.446826" lon="-5.953466">
        <ele>879</ele>
        <time>2018-07-24T05:56:40.000Z</time>
      </trkpt>
      <trkpt lat="42.446838" lon="-5.953612">
        <ele>880</ele>
        <time>2018-07-24T05:56:42.990Z</time>
      </trkpt>
      <trkpt lat="42.446841" lon="-5.953758">
        <ele>879.5900032</ele>
        <time>2018-07-24T05:56:45.990Z</time>
      </trkpt>
      <trkpt lat="42.446848" lon="-5.953906">
        <ele>880</ele>
        <time>2018-07-24T05:56:48.990Z</time>
      </trkpt>
      <trkpt lat="42.446854" lon="-5.954057">
        <ele>880</ele>
        <time>2018-07-24T05:56:51.990Z</time>
      </trkpt>
      <trkpt lat="42.446867" lon="-5.954206">
        <ele>880</ele>
        <time>2018-07-24T05:56:55.000Z</time>
      </trkpt>
      <trkpt lat="42.446879" lon="-5.95436">
        <ele>881</ele>
        <time>2018-07-24T05:56:57.990Z</time>
      </trkpt>
      <trkpt lat="42.446894" lon="-5.954506">
        <ele>881</ele>
        <time>2018-07-24T05:57:00.990Z</time>
      </trkpt>
      <trkpt lat="42.446903" lon="-5.954664">
        <ele>882</ele>
        <time>2018-07-24T05:57:03.990Z</time>
      </trkpt>
      <trkpt lat="42.446913" lon="-5.954828">
        <ele>882</ele>
        <time>2018-07-24T05:57:06.990Z</time>
      </trkpt>
      <trkpt lat="42.446911" lon="-5.954997">
        <ele>882</ele>
        <time>2018-07-24T05:57:10.000Z</time>
      </trkpt>
      <trkpt lat="42.446918" lon="-5.955159">
        <ele>882</ele>
        <time>2018-07-24T05:57:12.990Z</time>
      </trkpt>
      <trkpt lat="42.446924" lon="-5.955318">
        <ele>882</ele>
        <time>2018-07-24T05:57:15.990Z</time>
      </trkpt>
      <trkpt lat="42.446929" lon="-5.955469">
        <ele>882</ele>
        <time>2018-07-24T05:57:18.990Z</time>
      </trkpt>
      <trkpt lat="42.446937" lon="-5.955619">
        <ele>882.5900032</ele>
        <time>2018-07-24T05:57:21.990Z</time>
      </trkpt>
      <trkpt lat="42.446944" lon="-5.955773">
        <ele>883</ele>
        <time>2018-07-24T05:57:25.000Z</time>
      </trkpt>
      <trkpt lat="42.44695" lon="-5.95593">
        <ele>883</ele>
        <time>2018-07-24T05:57:27.990Z</time>
      </trkpt>
      <trkpt lat="42.446957" lon="-5.956098">
        <ele>882</ele>
        <time>2018-07-24T05:57:30.990Z</time>
      </trkpt>
      <trkpt lat="42.446971" lon="-5.956282">
        <ele>882</ele>
        <time>2018-07-24T05:57:33.990Z</time>
      </trkpt>
      <trkpt lat="42.446989" lon="-5.956423">
        <ele>881</ele>
        <time>2018-07-24T05:57:35.990Z</time>
      </trkpt>
      <trkpt lat="42.447001" lon="-5.956576">
        <ele>880</ele>
        <time>2018-07-24T05:57:37.990Z</time>
      </trkpt>
      <trkpt lat="42.447017" lon="-5.956738">
        <ele>879</ele>
        <time>2018-07-24T05:57:40.000Z</time>
      </trkpt>
      <trkpt lat="42.447043" lon="-5.956919">
        <ele>878</ele>
        <time>2018-07-24T05:57:41.990Z</time>
      </trkpt>
      <trkpt lat="42.447056" lon="-5.957113">
        <ele>877</ele>
        <time>2018-07-24T05:57:43.990Z</time>
      </trkpt>
      <trkpt lat="42.447073" lon="-5.957314">
        <ele>876.4099968</ele>
        <time>2018-07-24T05:57:45.990Z</time>
      </trkpt>
      <trkpt lat="42.447091" lon="-5.957536">
        <ele>874.594201016584</ele>
        <time>2018-07-24T05:57:47.990Z</time>
      </trkpt>
      <trkpt lat="42.447108" lon="-5.957762">
        <ele>874</ele>
        <time>2018-07-24T05:57:50.000Z</time>
      </trkpt>
      <trkpt lat="42.447115" lon="-5.957995">
        <ele>873.4099968</ele>
        <time>2018-07-24T05:57:51.990Z</time>
      </trkpt>
      <trkpt lat="42.447123" lon="-5.95824">
        <ele>872</ele>
        <time>2018-07-24T05:57:53.990Z</time>
      </trkpt>
      <trkpt lat="42.44713" lon="-5.958366">
        <ele>871.4</ele>
        <time>2018-07-24T05:57:55.000Z</time>
      </trkpt>
      <trkpt lat="42.447138" lon="-5.958489">
        <ele>870.4099968</ele>
        <time>2018-07-24T05:57:55.990Z</time>
      </trkpt>
      <trkpt lat="42.447144" lon="-5.958614">
        <ele>870</ele>
        <time>2018-07-24T05:57:56.990Z</time>
      </trkpt>
      <trkpt lat="42.447153" lon="-5.958857">
        <ele>869</ele>
        <time>2018-07-24T05:57:58.990Z</time>
      </trkpt>
      <trkpt lat="42.447159" lon="-5.958981">
        <ele>869</ele>
        <time>2018-07-24T05:58:00.000Z</time>
      </trkpt>
      <trkpt lat="42.447172" lon="-5.959223">
        <ele>869</ele>
        <time>2018-07-24T05:58:01.990Z</time>
      </trkpt>
      <trkpt lat="42.447178" lon="-5.959345">
        <ele>869</ele>
        <time>2018-07-24T05:58:02.990Z</time>
      </trkpt>
      <trkpt lat="42.447189" lon="-5.959586">
        <ele>868</ele>
        <time>2018-07-24T05:58:05.000Z</time>
      </trkpt>
      <trkpt lat="42.447202" lon="-5.959808">
        <ele>868</ele>
        <time>2018-07-24T05:58:06.990Z</time>
      </trkpt>
      <trkpt lat="42.447213" lon="-5.960028">
        <ele>868</ele>
        <time>2018-07-24T05:58:08.990Z</time>
      </trkpt>
      <trkpt lat="42.447222" lon="-5.960236">
        <ele>868</ele>
        <time>2018-07-24T05:58:10.990Z</time>
      </trkpt>
      <trkpt lat="42.447232" lon="-5.96044">
        <ele>868</ele>
        <time>2018-07-24T05:58:12.990Z</time>
      </trkpt>
      <trkpt lat="42.447242" lon="-5.960621">
        <ele>868</ele>
        <time>2018-07-24T05:58:15.000Z</time>
      </trkpt>
      <trkpt lat="42.447253" lon="-5.960793">
        <ele>868</ele>
        <time>2018-07-24T05:58:16.990Z</time>
      </trkpt>
      <trkpt lat="42.447262" lon="-5.960977">
        <ele>869</ele>
        <time>2018-07-24T05:58:18.990Z</time>
      </trkpt>
      <trkpt lat="42.447271" lon="-5.961164">
        <ele>869</ele>
        <time>2018-07-24T05:58:20.990Z</time>
      </trkpt>
      <trkpt lat="42.44728" lon="-5.961341">
        <ele>869</ele>
        <time>2018-07-24T05:58:22.990Z</time>
      </trkpt>
      <trkpt lat="42.447283" lon="-5.961512">
        <ele>869</ele>
        <time>2018-07-24T05:58:25.000Z</time>
      </trkpt>
      <trkpt lat="42.447289" lon="-5.961663">
        <ele>869</ele>
        <time>2018-07-24T05:58:26.990Z</time>
      </trkpt>
      <trkpt lat="42.447293" lon="-5.961817">
        <ele>869</ele>
        <time>2018-07-24T05:58:28.990Z</time>
      </trkpt>
      <trkpt lat="42.447301" lon="-5.961966">
        <ele>869</ele>
        <time>2018-07-24T05:58:30.990Z</time>
      </trkpt>
      <trkpt lat="42.447312" lon="-5.962122">
        <ele>869</ele>
        <time>2018-07-24T05:58:32.990Z</time>
      </trkpt>
      <trkpt lat="42.447317" lon="-5.962282">
        <ele>868.579712833451</ele>
        <time>2018-07-24T05:58:35.000Z</time>
      </trkpt>
      <trkpt lat="42.44732" lon="-5.962436">
        <ele>867.418361349477</ele>
        <time>2018-07-24T05:58:36.990Z</time>
      </trkpt>
      <trkpt lat="42.447325" lon="-5.962595">
        <ele>867</ele>
        <time>2018-07-24T05:58:38.990Z</time>
      </trkpt>
      <trkpt lat="42.447331" lon="-5.962762">
        <ele>866.4099968</ele>
        <time>2018-07-24T05:58:40.990Z</time>
      </trkpt>
      <trkpt lat="42.447341" lon="-5.962929">
        <ele>866</ele>
        <time>2018-07-24T05:58:42.990Z</time>
      </trkpt>
      <trkpt lat="42.447353" lon="-5.963114">
        <ele>866</ele>
        <time>2018-07-24T05:58:45.000Z</time>
      </trkpt>
      <trkpt lat="42.447361" lon="-5.963291">
        <ele>865</ele>
        <time>2018-07-24T05:58:46.990Z</time>
      </trkpt>
      <trkpt lat="42.447369" lon="-5.963473">
        <ele>864.4099968</ele>
        <time>2018-07-24T05:58:48.990Z</time>
      </trkpt>
      <trkpt lat="42.447381" lon="-5.963651">
        <ele>864</ele>
        <time>2018-07-24T05:58:50.990Z</time>
      </trkpt>
      <trkpt lat="42.447393" lon="-5.963825">
        <ele>864</ele>
        <time>2018-07-24T05:58:52.990Z</time>
      </trkpt>
      <trkpt lat="42.447395" lon="-5.963999">
        <ele>864</ele>
        <time>2018-07-24T05:58:55.000Z</time>
      </trkpt>
      <trkpt lat="42.447408" lon="-5.964175">
        <ele>864</ele>
        <time>2018-07-24T05:58:56.990Z</time>
      </trkpt>
      <trkpt lat="42.447418" lon="-5.964341">
        <ele>864</ele>
        <time>2018-07-24T05:58:58.990Z</time>
      </trkpt>
      <trkpt lat="42.447432" lon="-5.964502">
        <ele>864</ele>
        <time>2018-07-24T05:59:00.990Z</time>
      </trkpt>
      <trkpt lat="42.44745" lon="-5.964652">
        <ele>864</ele>
        <time>2018-07-24T05:59:02.990Z</time>
      </trkpt>
      <trkpt lat="42.447464" lon="-5.964803">
        <ele>864</ele>
        <time>2018-07-24T05:59:05.000Z</time>
      </trkpt>
      <trkpt lat="42.447468" lon="-5.964962">
        <ele>864</ele>
        <time>2018-07-24T05:59:06.990Z</time>
      </trkpt>
      <trkpt lat="42.447469" lon="-5.9651">
        <ele>865</ele>
        <time>2018-07-24T05:59:08.990Z</time>
      </trkpt>
      <trkpt lat="42.44747" lon="-5.965238">
        <ele>865</ele>
        <time>2018-07-24T05:59:10.990Z</time>
      </trkpt>
      <trkpt lat="42.447473" lon="-5.96537">
        <ele>865</ele>
        <time>2018-07-24T05:59:12.990Z</time>
      </trkpt>
      <trkpt lat="42.447481" lon="-5.965494">
        <ele>866</ele>
        <time>2018-07-24T05:59:15.000Z</time>
      </trkpt>
      <trkpt lat="42.44749" lon="-5.96562">
        <ele>866</ele>
        <time>2018-07-24T05:59:16.990Z</time>
      </trkpt>
      <trkpt lat="42.447501" lon="-5.965752">
        <ele>866</ele>
        <time>2018-07-24T05:59:18.990Z</time>
      </trkpt>
      <trkpt lat="42.447513" lon="-5.965878">
        <ele>866.5900032</ele>
        <time>2018-07-24T05:59:20.990Z</time>
      </trkpt>
      <trkpt lat="42.447516" lon="-5.966002">
        <ele>867</ele>
        <time>2018-07-24T05:59:22.990Z</time>
      </trkpt>
      <trkpt lat="42.447522" lon="-5.966124">
        <ele>868.436622257477</ele>
        <time>2018-07-24T05:59:25.000Z</time>
      </trkpt>
      <trkpt lat="42.447528" lon="-5.966247">
        <ele>869</ele>
        <time>2018-07-24T05:59:26.990Z</time>
      </trkpt>
      <trkpt lat="42.447536" lon="-5.966372">
        <ele>869</ele>
        <time>2018-07-24T05:59:28.990Z</time>
      </trkpt>
      <trkpt lat="42.447544" lon="-5.966494">
        <ele>869.5900032</ele>
        <time>2018-07-24T05:59:30.990Z</time>
      </trkpt>
      <trkpt lat="42.447554" lon="-5.966666">
        <ele>871</ele>
        <time>2018-07-24T05:59:33.990Z</time>
      </trkpt>
      <trkpt lat="42.447568" lon="-5.966846">
        <ele>871</ele>
        <time>2018-07-24T05:59:36.990Z</time>
      </trkpt>
      <trkpt lat="42.447579" lon="-5.967024">
        <ele>871</ele>
        <time>2018-07-24T05:59:40.000Z</time>
      </trkpt>
      <trkpt lat="42.447584" lon="-5.967145">
        <ele>871</ele>
        <time>2018-07-24T05:59:41.990Z</time>
      </trkpt>
      <trkpt lat="42.447591" lon="-5.96727">
        <ele>871</ele>
        <time>2018-07-24T05:59:43.990Z</time>
      </trkpt>
      <trkpt lat="42.447596" lon="-5.967392">
        <ele>871</ele>
        <time>2018-07-24T05:59:45.990Z</time>
      </trkpt>
      <trkpt lat="42.447616" lon="-5.967568">
        <ele>871</ele>
        <time>2018-07-24T05:59:48.990Z</time>
      </trkpt>
      <trkpt lat="42.447633" lon="-5.967742">
        <ele>871</ele>
        <time>2018-07-24T05:59:51.990Z</time>
      </trkpt>
      <trkpt lat="42.447648" lon="-5.967912">
        <ele>871</ele>
        <time>2018-07-24T05:59:55.000Z</time>
      </trkpt>
      <trkpt lat="42.447655" lon="-5.968084">
        <ele>871.5900032</ele>
        <time>2018-07-24T05:59:57.990Z</time>
      </trkpt>
      <trkpt lat="42.44766" lon="-5.96826">
        <ele>872</ele>
        <time>2018-07-24T06:00:00.990Z</time>
      </trkpt>
      <trkpt lat="42.447667" lon="-5.968438">
        <ele>872.5900032</ele>
        <time>2018-07-24T06:00:03.990Z</time>
      </trkpt>
      <trkpt lat="42.447678" lon="-5.968607">
        <ele>874</ele>
        <time>2018-07-24T06:00:06.990Z</time>
      </trkpt>
      <trkpt lat="42.447682" lon="-5.968775">
        <ele>874</ele>
        <time>2018-07-24T06:00:10.000Z</time>
      </trkpt>
      <trkpt lat="42.447685" lon="-5.968943">
        <ele>874</ele>
        <time>2018-07-24T06:00:12.990Z</time>
      </trkpt>
      <trkpt lat="42.447689" lon="-5.969115">
        <ele>874</ele>
        <time>2018-07-24T06:00:15.990Z</time>
      </trkpt>
      <trkpt lat="42.447697" lon="-5.969278">
        <ele>874.584163434973</ele>
        <time>2018-07-24T06:00:18.990Z</time>
      </trkpt>
      <trkpt lat="42.447703" lon="-5.969443">
        <ele>875</ele>
        <time>2018-07-24T06:00:21.990Z</time>
      </trkpt>
      <trkpt lat="42.447703" lon="-5.969596">
        <ele>875</ele>
        <time>2018-07-24T06:00:25.000Z</time>
      </trkpt>
      <trkpt lat="42.447713" lon="-5.969752">
        <ele>875</ele>
        <time>2018-07-24T06:00:27.990Z</time>
      </trkpt>
      <trkpt lat="42.447709" lon="-5.969904">
        <ele>876.5900032</ele>
        <time>2018-07-24T06:00:30.990Z</time>
      </trkpt>
      <trkpt lat="42.447717" lon="-5.970028">
        <ele>877</ele>
        <time>2018-07-24T06:00:33.990Z</time>
      </trkpt>
      <trkpt lat="42.44771" lon="-5.970171">
        <ele>878</ele>
        <time>2018-07-24T06:00:36.990Z</time>
      </trkpt>
      <trkpt lat="42.447711" lon="-5.970313">
        <ele>877.288660746097</ele>
        <time>2018-07-24T06:00:40.000Z</time>
      </trkpt>
      <trkpt lat="42.447716" lon="-5.970439">
        <ele>878</ele>
        <time>2018-07-24T06:00:42.990Z</time>
      </trkpt>
      <trkpt lat="42.447711" lon="-5.970563">
        <ele>878</ele>
        <time>2018-07-24T06:00:45.990Z</time>
      </trkpt>
      <trkpt lat="42.447727" lon="-5.970693">
        <ele>878</ele>
        <time>2018-07-24T06:00:48.990Z</time>
      </trkpt>
      <trkpt lat="42.447726" lon="-5.970836">
        <ele>878</ele>
        <time>2018-07-24T06:00:51.990Z</time>
      </trkpt>
      <trkpt lat="42.447731" lon="-5.970976">
        <ele>879</ele>
        <time>2018-07-24T06:00:55.000Z</time>
      </trkpt>
      <trkpt lat="42.447729" lon="-5.971101">
        <ele>879</ele>
        <time>2018-07-24T06:00:57.990Z</time>
      </trkpt>
      <trkpt lat="42.447727" lon="-5.971233">
        <ele>880.5900032</ele>
        <time>2018-07-24T06:01:00.990Z</time>
      </trkpt>
      <trkpt lat="42.447744" lon="-5.971361">
        <ele>880</ele>
        <time>2018-07-24T06:01:03.990Z</time>
      </trkpt>
      <trkpt lat="42.447754" lon="-5.97149">
        <ele>881</ele>
        <time>2018-07-24T06:01:06.990Z</time>
      </trkpt>
      <trkpt lat="42.447764" lon="-5.971661">
        <ele>881</ele>
        <time>2018-07-24T06:01:10.000Z</time>
      </trkpt>
      <trkpt lat="42.447759" lon="-5.971822">
        <ele>881</ele>
        <time>2018-07-24T06:01:13.000Z</time>
      </trkpt>
      <trkpt lat="42.447762" lon="-5.971967">
        <ele>882</ele>
        <time>2018-07-24T06:01:16.000Z</time>
      </trkpt>
      <trkpt lat="42.447767" lon="-5.972102">
        <ele>882</ele>
        <time>2018-07-24T06:01:19.000Z</time>
      </trkpt>
      <trkpt lat="42.447779" lon="-5.972235">
        <ele>882</ele>
        <time>2018-07-24T06:01:22.000Z</time>
      </trkpt>
      <trkpt lat="42.44779" lon="-5.972357">
        <ele>883.436622257477</ele>
        <time>2018-07-24T06:01:25.000Z</time>
      </trkpt>
      <trkpt lat="42.447795" lon="-5.972482">
        <ele>884.550560181789</ele>
        <time>2018-07-24T06:01:28.000Z</time>
      </trkpt>
      <trkpt lat="42.447801" lon="-5.972639">
        <ele>885</ele>
        <time>2018-07-24T06:01:32.000Z</time>
      </trkpt>
      <trkpt lat="42.44781" lon="-5.972797">
        <ele>885</ele>
        <time>2018-07-24T06:01:36.000Z</time>
      </trkpt>
      <trkpt lat="42.447824" lon="-5.972949">
        <ele>885.6</ele>
        <time>2018-07-24T06:01:40.000Z</time>
      </trkpt>
      <trkpt lat="42.447831" lon="-5.973105">
        <ele>886</ele>
        <time>2018-07-24T06:01:44.000Z</time>
      </trkpt>
      <trkpt lat="42.44784" lon="-5.973264">
        <ele>886</ele>
        <time>2018-07-24T06:01:48.000Z</time>
      </trkpt>
      <trkpt lat="42.447847" lon="-5.973421">
        <ele>886</ele>
        <time>2018-07-24T06:01:52.000Z</time>
      </trkpt>
      <trkpt lat="42.447849" lon="-5.973579">
        <ele>886.465117432849</ele>
        <time>2018-07-24T06:01:56.000Z</time>
      </trkpt>
      <trkpt lat="42.447855" lon="-5.973702">
        <ele>887</ele>
        <time>2018-07-24T06:01:59.000Z</time>
      </trkpt>
      <trkpt lat="42.44786" lon="-5.973863">
        <ele>887</ele>
        <time>2018-07-24T06:02:03.000Z</time>
      </trkpt>
      <trkpt lat="42.447866" lon="-5.973985">
        <ele>888</ele>
        <time>2018-07-24T06:02:06.000Z</time>
      </trkpt>
      <trkpt lat="42.447872" lon="-5.974142">
        <ele>888</ele>
        <time>2018-07-24T06:02:10.000Z</time>
      </trkpt>
      <trkpt lat="42.447886" lon="-5.974273">
        <ele>889</ele>
        <time>2018-07-24T06:02:13.990Z</time>
      </trkpt>
      <trkpt lat="42.447905" lon="-5.974402">
        <ele>890</ele>
        <time>2018-07-24T06:02:17.990Z</time>
      </trkpt>
      <trkpt lat="42.447922" lon="-5.974538">
        <ele>890</ele>
        <time>2018-07-24T06:02:21.990Z</time>
      </trkpt>
      <trkpt lat="42.447928" lon="-5.974681">
        <ele>890</ele>
        <time>2018-07-24T06:02:25.990Z</time>
      </trkpt>
      <trkpt lat="42.447941" lon="-5.974804">
        <ele>891</ele>
        <time>2018-07-24T06:02:28.990Z</time>
      </trkpt>
      <trkpt lat="42.447954" lon="-5.974955">
        <ele>891</ele>
        <time>2018-07-24T06:02:32.990Z</time>
      </trkpt>
      <trkpt lat="42.447958" lon="-5.975095">
        <ele>891.405798983416</ele>
        <time>2018-07-24T06:02:35.990Z</time>
      </trkpt>
      <trkpt lat="42.44797" lon="-5.975246">
        <ele>892</ele>
        <time>2018-07-24T06:02:40.000Z</time>
      </trkpt>
      <trkpt lat="42.447986" lon="-5.975396">
        <ele>893</ele>
        <time>2018-07-24T06:02:43.990Z</time>
      </trkpt>
      <trkpt lat="42.447996" lon="-5.975536">
        <ele>893.5900032</ele>
        <time>2018-07-24T06:02:47.990Z</time>
      </trkpt>
      <trkpt lat="42.448004" lon="-5.975691">
        <ele>894</ele>
        <time>2018-07-24T06:02:51.990Z</time>
      </trkpt>
      <trkpt lat="42.44801" lon="-5.975851">
        <ele>895</ele>
        <time>2018-07-24T06:02:55.990Z</time>
      </trkpt>
      <trkpt lat="42.448026" lon="-5.975974">
        <ele>895</ele>
        <time>2018-07-24T06:02:58.990Z</time>
      </trkpt>
      <trkpt lat="42.448024" lon="-5.976102">
        <ele>895</ele>
        <time>2018-07-24T06:03:01.990Z</time>
      </trkpt>
      <trkpt lat="42.448035" lon="-5.97626">
        <ele>895</ele>
        <time>2018-07-24T06:03:05.990Z</time>
      </trkpt>
      <trkpt lat="42.44803" lon="-5.976407">
        <ele>896</ele>
        <time>2018-07-24T06:03:10.000Z</time>
      </trkpt>
      <trkpt lat="42.448039" lon="-5.976565">
        <ele>896</ele>
        <time>2018-07-24T06:03:13.990Z</time>
      </trkpt>
      <trkpt lat="42.44804" lon="-5.976715">
        <ele>896</ele>
        <time>2018-07-24T06:03:17.990Z</time>
      </trkpt>
      <trkpt lat="42.448051" lon="-5.976851">
        <ele>896</ele>
        <time>2018-07-24T06:03:21.990Z</time>
      </trkpt>
      <trkpt lat="42.448062" lon="-5.977002">
        <ele>897.5900032</ele>
        <time>2018-07-24T06:03:25.990Z</time>
      </trkpt>
      <trkpt lat="42.448065" lon="-5.977154">
        <ele>898</ele>
        <time>2018-07-24T06:03:30.000Z</time>
      </trkpt>
      <trkpt lat="42.448073" lon="-5.977314">
        <ele>899</ele>
        <time>2018-07-24T06:03:33.990Z</time>
      </trkpt>
      <trkpt lat="42.448083" lon="-5.977468">
        <ele>899</ele>
        <time>2018-07-24T06:03:37.990Z</time>
      </trkpt>
      <trkpt lat="42.44808" lon="-5.977592">
        <ele>900</ele>
        <time>2018-07-24T06:03:40.990Z</time>
      </trkpt>
      <trkpt lat="42.448085" lon="-5.977719">
        <ele>900</ele>
        <time>2018-07-24T06:03:43.990Z</time>
      </trkpt>
      <trkpt lat="42.448097" lon="-5.977876">
        <ele>900</ele>
        <time>2018-07-24T06:03:47.990Z</time>
      </trkpt>
      <trkpt lat="42.4481" lon="-5.978002">
        <ele>901</ele>
        <time>2018-07-24T06:03:50.990Z</time>
      </trkpt>
      <trkpt lat="42.448103" lon="-5.978159">
        <ele>901</ele>
        <time>2018-07-24T06:03:55.000Z</time>
      </trkpt>
      <trkpt lat="42.44811" lon="-5.978281">
        <ele>901</ele>
        <time>2018-07-24T06:03:57.990Z</time>
      </trkpt>
      <trkpt lat="42.448112" lon="-5.978435">
        <ele>901.405798983416</ele>
        <time>2018-07-24T06:04:01.990Z</time>
      </trkpt>
      <trkpt lat="42.448127" lon="-5.978571">
        <ele>903</ele>
        <time>2018-07-24T06:04:05.990Z</time>
      </trkpt>
      <trkpt lat="42.448153" lon="-5.978711">
        <ele>903</ele>
        <time>2018-07-24T06:04:10.000Z</time>
      </trkpt>
      <trkpt lat="42.448175" lon="-5.978855">
        <ele>903</ele>
        <time>2018-07-24T06:04:13.990Z</time>
      </trkpt>
      <trkpt lat="42.448179" lon="-5.978986">
        <ele>904.5900032</ele>
        <time>2018-07-24T06:04:17.990Z</time>
      </trkpt>
      <trkpt lat="42.44819" lon="-5.979119">
        <ele>905</ele>
        <time>2018-07-24T06:04:21.990Z</time>
      </trkpt>
      <trkpt lat="42.448193" lon="-5.97926">
        <ele>906</ele>
        <time>2018-07-24T06:04:25.990Z</time>
      </trkpt>
      <trkpt lat="42.448198" lon="-5.979384">
        <ele>907</ele>
        <time>2018-07-24T06:04:30.000Z</time>
      </trkpt>
      <trkpt lat="42.448195" lon="-5.979529">
        <ele>907.5900032</ele>
        <time>2018-07-24T06:04:33.990Z</time>
      </trkpt>
      <trkpt lat="42.448195" lon="-5.979654">
        <ele>908</ele>
        <time>2018-07-24T06:04:37.990Z</time>
      </trkpt>
      <trkpt lat="42.448187" lon="-5.979788">
        <ele>909</ele>
        <time>2018-07-24T06:04:41.000Z</time>
      </trkpt>
      <trkpt lat="42.448186" lon="-5.97995">
        <ele>909</ele>
        <time>2018-07-24T06:04:44.000Z</time>
      </trkpt>
      <trkpt lat="42.448192" lon="-5.980077">
        <ele>909</ele>
        <time>2018-07-24T06:04:46.990Z</time>
      </trkpt>
      <trkpt lat="42.448206" lon="-5.98022">
        <ele>910</ele>
        <time>2018-07-24T06:04:50.990Z</time>
      </trkpt>
      <trkpt lat="42.448195" lon="-5.980344">
        <ele>911</ele>
        <time>2018-07-24T06:04:54.000Z</time>
      </trkpt>
      <trkpt lat="42.448212" lon="-5.980502">
        <ele>912</ele>
        <time>2018-07-24T06:04:57.990Z</time>
      </trkpt>
      <trkpt lat="42.44823" lon="-5.980655">
        <ele>912.5900032</ele>
        <time>2018-07-24T06:05:01.990Z</time>
      </trkpt>
      <trkpt lat="42.448248" lon="-5.98078">
        <ele>913</ele>
        <time>2018-07-24T06:05:04.990Z</time>
      </trkpt>
      <trkpt lat="42.448286" lon="-5.980897">
        <ele>913</ele>
        <time>2018-07-24T06:05:07.990Z</time>
      </trkpt>
      <trkpt lat="42.448331" lon="-5.981014">
        <ele>913</ele>
        <time>2018-07-24T06:05:10.990Z</time>
      </trkpt>
      <trkpt lat="42.448386" lon="-5.981142">
        <ele>913</ele>
        <time>2018-07-24T06:05:14.000Z</time>
      </trkpt>
      <trkpt lat="42.44845" lon="-5.98127">
        <ele>913</ele>
        <time>2018-07-24T06:05:16.990Z</time>
      </trkpt>
      <trkpt lat="42.44851" lon="-5.981407">
        <ele>913</ele>
        <time>2018-07-24T06:05:19.990Z</time>
      </trkpt>
      <trkpt lat="42.448576" lon="-5.981533">
        <ele>913</ele>
        <time>2018-07-24T06:05:22.990Z</time>
      </trkpt>
      <trkpt lat="42.448634" lon="-5.981653">
        <ele>913</ele>
        <time>2018-07-24T06:05:25.990Z</time>
      </trkpt>
      <trkpt lat="42.448702" lon="-5.981767">
        <ele>914</ele>
        <time>2018-07-24T06:05:29.000Z</time>
      </trkpt>
      <trkpt lat="42.44877" lon="-5.981877">
        <ele>914</ele>
        <time>2018-07-24T06:05:31.990Z</time>
      </trkpt>
      <trkpt lat="42.448846" lon="-5.982003">
        <ele>914</ele>
        <time>2018-07-24T06:05:34.990Z</time>
      </trkpt>
      <trkpt lat="42.44892" lon="-5.98213">
        <ele>914</ele>
        <time>2018-07-24T06:05:37.990Z</time>
      </trkpt>
      <trkpt lat="42.448988" lon="-5.982262">
        <ele>914</ele>
        <time>2018-07-24T06:05:40.990Z</time>
      </trkpt>
      <trkpt lat="42.449062" lon="-5.982385">
        <ele>914</ele>
        <time>2018-07-24T06:05:44.000Z</time>
      </trkpt>
      <trkpt lat="42.449132" lon="-5.98251">
        <ele>914</ele>
        <time>2018-07-24T06:05:46.990Z</time>
      </trkpt>
      <trkpt lat="42.449203" lon="-5.982637">
        <ele>914</ele>
        <time>2018-07-24T06:05:49.990Z</time>
      </trkpt>
      <trkpt lat="42.449272" lon="-5.982767">
        <ele>914</ele>
        <time>2018-07-24T06:05:52.990Z</time>
      </trkpt>
      <trkpt lat="42.449348" lon="-5.982899">
        <ele>914</ele>
        <time>2018-07-24T06:05:55.990Z</time>
      </trkpt>
      <trkpt lat="42.449426" lon="-5.983021">
        <ele>914</ele>
        <time>2018-07-24T06:05:59.000Z</time>
      </trkpt>
      <trkpt lat="42.449508" lon="-5.983112">
        <ele>914</ele>
        <time>2018-07-24T06:06:01.990Z</time>
      </trkpt>
      <trkpt lat="42.449606" lon="-5.983091">
        <ele>914</ele>
        <time>2018-07-24T06:06:06.990Z</time>
      </trkpt>
      <trkpt lat="42.449674" lon="-5.982991">
        <ele>915</ele>
        <time>2018-07-24T06:06:10.990Z</time>
      </trkpt>
      <trkpt lat="42.449762" lon="-5.983056">
        <ele>914</ele>
        <time>2018-07-24T06:06:15.990Z</time>
      </trkpt>
      <trkpt lat="42.449843" lon="-5.98317">
        <ele>914</ele>
        <time>2018-07-24T06:06:19.990Z</time>
      </trkpt>
      <trkpt lat="42.449917" lon="-5.98327">
        <ele>914</ele>
        <time>2018-07-24T06:06:22.990Z</time>
      </trkpt>
      <trkpt lat="42.449992" lon="-5.98337">
        <ele>915</ele>
        <time>2018-07-24T06:06:25.990Z</time>
      </trkpt>
      <trkpt lat="42.450067" lon="-5.983481">
        <ele>914.4</ele>
        <time>2018-07-24T06:06:29.000Z</time>
      </trkpt>
      <trkpt lat="42.450145" lon="-5.983593">
        <ele>914</ele>
        <time>2018-07-24T06:06:31.990Z</time>
      </trkpt>
      <trkpt lat="42.450224" lon="-5.983714">
        <ele>914</ele>
        <time>2018-07-24T06:06:34.990Z</time>
      </trkpt>
      <trkpt lat="42.450308" lon="-5.983847">
        <ele>914</ele>
        <time>2018-07-24T06:06:37.990Z</time>
      </trkpt>
      <trkpt lat="42.450387" lon="-5.983989">
        <ele>915</ele>
        <time>2018-07-24T06:06:40.990Z</time>
      </trkpt>
      <trkpt lat="42.450473" lon="-5.98412">
        <ele>915</ele>
        <time>2018-07-24T06:06:44.000Z</time>
      </trkpt>
      <trkpt lat="42.450555" lon="-5.984252">
        <ele>915</ele>
        <time>2018-07-24T06:06:46.990Z</time>
      </trkpt>
      <trkpt lat="42.450642" lon="-5.984382">
        <ele>915</ele>
        <time>2018-07-24T06:06:49.990Z</time>
      </trkpt>
      <trkpt lat="42.450709" lon="-5.984466">
        <ele>915</ele>
        <time>2018-07-24T06:06:51.990Z</time>
      </trkpt>
      <trkpt lat="42.450787" lon="-5.984599">
        <ele>915</ele>
        <time>2018-07-24T06:06:54.990Z</time>
      </trkpt>
      <trkpt lat="42.450881" lon="-5.984721">
        <ele>915</ele>
        <time>2018-07-24T06:06:57.990Z</time>
      </trkpt>
      <trkpt lat="42.450984" lon="-5.984825">
        <ele>915</ele>
        <time>2018-07-24T06:07:00.990Z</time>
      </trkpt>
      <trkpt lat="42.451093" lon="-5.984913">
        <ele>915</ele>
        <time>2018-07-24T06:07:04.000Z</time>
      </trkpt>
      <trkpt lat="42.451208" lon="-5.98497">
        <ele>915</ele>
        <time>2018-07-24T06:07:06.990Z</time>
      </trkpt>
      <trkpt lat="42.451323" lon="-5.984985">
        <ele>915</ele>
        <time>2018-07-24T06:07:09.990Z</time>
      </trkpt>
      <trkpt lat="42.451422" lon="-5.985017">
        <ele>915</ele>
        <time>2018-07-24T06:07:12.990Z</time>
      </trkpt>
      <trkpt lat="42.451472" lon="-5.985118">
        <ele>915</ele>
        <time>2018-07-24T06:07:15.990Z</time>
      </trkpt>
      <trkpt lat="42.451473" lon="-5.985242">
        <ele>915</ele>
        <time>2018-07-24T06:07:19.000Z</time>
      </trkpt>
      <trkpt lat="42.451506" lon="-5.985369">
        <ele>915</ele>
        <time>2018-07-24T06:07:21.990Z</time>
      </trkpt>
      <trkpt lat="42.451518" lon="-5.985521">
        <ele>915</ele>
        <time>2018-07-24T06:07:24.990Z</time>
      </trkpt>
      <trkpt lat="42.451526" lon="-5.985713">
        <ele>915</ele>
        <time>2018-07-24T06:07:29.000Z</time>
      </trkpt>
      <trkpt lat="42.451554" lon="-5.985837">
        <ele>915</ele>
        <time>2018-07-24T06:07:31.000Z</time>
      </trkpt>
      <trkpt lat="42.451636" lon="-5.985957">
        <ele>915</ele>
        <time>2018-07-24T06:07:33.990Z</time>
      </trkpt>
      <trkpt lat="42.451715" lon="-5.986091">
        <ele>915</ele>
        <time>2018-07-24T06:07:36.990Z</time>
      </trkpt>
      <trkpt lat="42.451804" lon="-5.986223">
        <ele>915</ele>
        <time>2018-07-24T06:07:39.990Z</time>
      </trkpt>
      <trkpt lat="42.451861" lon="-5.986323">
        <ele>915.5900032</ele>
        <time>2018-07-24T06:07:41.990Z</time>
      </trkpt>
      <trkpt lat="42.45194" lon="-5.986462">
        <ele>915</ele>
        <time>2018-07-24T06:07:44.990Z</time>
      </trkpt>
      <trkpt lat="42.452017" lon="-5.986599">
        <ele>915</ele>
        <time>2018-07-24T06:07:47.990Z</time>
      </trkpt>
      <trkpt lat="42.452096" lon="-5.986742">
        <ele>915</ele>
        <time>2018-07-24T06:07:51.000Z</time>
      </trkpt>
      <trkpt lat="42.452181" lon="-5.986887">
        <ele>915</ele>
        <time>2018-07-24T06:07:53.990Z</time>
      </trkpt>
      <trkpt lat="42.452251" lon="-5.987031">
        <ele>915</ele>
        <time>2018-07-24T06:07:56.990Z</time>
      </trkpt>
      <trkpt lat="42.452328" lon="-5.98717">
        <ele>915</ele>
        <time>2018-07-24T06:07:59.990Z</time>
      </trkpt>
      <trkpt lat="42.452404" lon="-5.987308">
        <ele>915</ele>
        <time>2018-07-24T06:08:02.990Z</time>
      </trkpt>
      <trkpt lat="42.452481" lon="-5.98745">
        <ele>916</ele>
        <time>2018-07-24T06:08:06.000Z</time>
      </trkpt>
      <trkpt lat="42.452551" lon="-5.987585">
        <ele>915</ele>
        <time>2018-07-24T06:08:08.990Z</time>
      </trkpt>
      <trkpt lat="42.452585" lon="-5.9877">
        <ele>914.411768396747</ele>
        <time>2018-07-24T06:08:11.000Z</time>
      </trkpt>
      <trkpt lat="42.452622" lon="-5.987826">
        <ele>914</ele>
        <time>2018-07-24T06:08:12.990Z</time>
      </trkpt>
      <trkpt lat="42.452672" lon="-5.987936">
        <ele>914</ele>
        <time>2018-07-24T06:08:14.990Z</time>
      </trkpt>
      <trkpt lat="42.452728" lon="-5.98803">
        <ele>914</ele>
        <time>2018-07-24T06:08:16.990Z</time>
      </trkpt>
      <trkpt lat="42.452794" lon="-5.988128">
        <ele>914</ele>
        <time>2018-07-24T06:08:18.990Z</time>
      </trkpt>
      <trkpt lat="42.45285" lon="-5.98823">
        <ele>914</ele>
        <time>2018-07-24T06:08:21.000Z</time>
      </trkpt>
      <trkpt lat="42.452911" lon="-5.988334">
        <ele>914</ele>
        <time>2018-07-24T06:08:22.990Z</time>
      </trkpt>
      <trkpt lat="42.452979" lon="-5.988432">
        <ele>914</ele>
        <time>2018-07-24T06:08:24.990Z</time>
      </trkpt>
      <trkpt lat="42.45304" lon="-5.988532">
        <ele>914</ele>
        <time>2018-07-24T06:08:26.990Z</time>
      </trkpt>
      <trkpt lat="42.453107" lon="-5.988628">
        <ele>914</ele>
        <time>2018-07-24T06:08:28.990Z</time>
      </trkpt>
      <trkpt lat="42.453184" lon="-5.988777">
        <ele>914</ele>
        <time>2018-07-24T06:08:31.990Z</time>
      </trkpt>
      <trkpt lat="42.45324" lon="-5.988878">
        <ele>914</ele>
        <time>2018-07-24T06:08:33.990Z</time>
      </trkpt>
      <trkpt lat="42.453309" lon="-5.989034">
        <ele>914</ele>
        <time>2018-07-24T06:08:36.990Z</time>
      </trkpt>
      <trkpt lat="42.453286" lon="-5.98916">
        <ele>914</ele>
        <time>2018-07-24T06:08:38.000Z</time>
      </trkpt>
      <trkpt lat="42.453314" lon="-5.989323">
        <ele>914</ele>
        <time>2018-07-24T06:08:41.000Z</time>
      </trkpt>
      <trkpt lat="42.453377" lon="-5.98948">
        <ele>914</ele>
        <time>2018-07-24T06:08:43.990Z</time>
      </trkpt>
      <trkpt lat="42.453435" lon="-5.989638">
        <ele>915</ele>
        <time>2018-07-24T06:08:46.990Z</time>
      </trkpt>
      <trkpt lat="42.453482" lon="-5.98981">
        <ele>915</ele>
        <time>2018-07-24T06:08:50.000Z</time>
      </trkpt>
      <trkpt lat="42.453477" lon="-5.989964">
        <ele>915</ele>
        <time>2018-07-24T06:08:53.000Z</time>
      </trkpt>
      <trkpt lat="42.453512" lon="-5.990108">
        <ele>915</ele>
        <time>2018-07-24T06:08:54.990Z</time>
      </trkpt>
      <trkpt lat="42.45354" lon="-5.990254">
        <ele>915</ele>
        <time>2018-07-24T06:08:56.990Z</time>
      </trkpt>
      <trkpt lat="42.453559" lon="-5.99039">
        <ele>915</ele>
        <time>2018-07-24T06:08:59.000Z</time>
      </trkpt>
      <trkpt lat="42.453575" lon="-5.990532">
        <ele>915</ele>
        <time>2018-07-24T06:09:00.990Z</time>
      </trkpt>
      <trkpt lat="42.453606" lon="-5.990654">
        <ele>915</ele>
        <time>2018-07-24T06:09:02.000Z</time>
      </trkpt>
      <trkpt lat="42.453568" lon="-5.990831">
        <ele>914</ele>
        <time>2018-07-24T06:09:05.000Z</time>
      </trkpt>
      <trkpt lat="42.45356" lon="-5.990977">
        <ele>914</ele>
        <time>2018-07-24T06:09:06.990Z</time>
      </trkpt>
      <trkpt lat="42.453563" lon="-5.991123">
        <ele>914</ele>
        <time>2018-07-24T06:09:08.990Z</time>
      </trkpt>
      <trkpt lat="42.453549" lon="-5.991295">
        <ele>914</ele>
        <time>2018-07-24T06:09:11.990Z</time>
      </trkpt>
      <trkpt lat="42.453541" lon="-5.991418">
        <ele>914</ele>
        <time>2018-07-24T06:09:13.990Z</time>
      </trkpt>
      <trkpt lat="42.453517" lon="-5.991549">
        <ele>914</ele>
        <time>2018-07-24T06:09:16.000Z</time>
      </trkpt>
      <trkpt lat="42.453497" lon="-5.99168">
        <ele>913.4099968</ele>
        <time>2018-07-24T06:09:17.990Z</time>
      </trkpt>
      <trkpt lat="42.453471" lon="-5.991805">
        <ele>913</ele>
        <time>2018-07-24T06:09:19.990Z</time>
      </trkpt>
      <trkpt lat="42.453445" lon="-5.991926">
        <ele>913</ele>
        <time>2018-07-24T06:09:21.990Z</time>
      </trkpt>
      <trkpt lat="42.453411" lon="-5.992039">
        <ele>913</ele>
        <time>2018-07-24T06:09:23.990Z</time>
      </trkpt>
      <trkpt lat="42.453382" lon="-5.992162">
        <ele>913</ele>
        <time>2018-07-24T06:09:26.000Z</time>
      </trkpt>
      <trkpt lat="42.453358" lon="-5.992287">
        <ele>913</ele>
        <time>2018-07-24T06:09:27.990Z</time>
      </trkpt>
      <trkpt lat="42.453333" lon="-5.992421">
        <ele>913</ele>
        <time>2018-07-24T06:09:29.990Z</time>
      </trkpt>
      <trkpt lat="42.453306" lon="-5.992546">
        <ele>913</ele>
        <time>2018-07-24T06:09:31.990Z</time>
      </trkpt>
      <trkpt lat="42.453307" lon="-5.992669">
        <ele>913</ele>
        <time>2018-07-24T06:09:33.990Z</time>
      </trkpt>
      <trkpt lat="42.453321" lon="-5.992794">
        <ele>913</ele>
        <time>2018-07-24T06:09:36.000Z</time>
      </trkpt>
      <trkpt lat="42.453343" lon="-5.992929">
        <ele>913</ele>
        <time>2018-07-24T06:09:37.990Z</time>
      </trkpt>
      <trkpt lat="42.453362" lon="-5.993054">
        <ele>913.585863156806</ele>
        <time>2018-07-24T06:09:39.990Z</time>
      </trkpt>
      <trkpt lat="42.453373" lon="-5.993175">
        <ele>914</ele>
        <time>2018-07-24T06:09:41.990Z</time>
      </trkpt>
      <trkpt lat="42.453398" lon="-5.993334">
        <ele>914</ele>
        <time>2018-07-24T06:09:44.990Z</time>
      </trkpt>
      <trkpt lat="42.453397" lon="-5.993457">
        <ele>915</ele>
        <time>2018-07-24T06:09:46.990Z</time>
      </trkpt>
      <trkpt lat="42.453403" lon="-5.993631">
        <ele>915</ele>
        <time>2018-07-24T06:09:49.990Z</time>
      </trkpt>
      <trkpt lat="42.453402" lon="-5.993755">
        <ele>915</ele>
        <time>2018-07-24T06:09:51.990Z</time>
      </trkpt>
      <trkpt lat="42.453404" lon="-5.993879">
        <ele>915</ele>
        <time>2018-07-24T06:09:53.990Z</time>
      </trkpt>
      <trkpt lat="42.453402" lon="-5.994059">
        <ele>915</ele>
        <time>2018-07-24T06:09:56.990Z</time>
      </trkpt>
      <trkpt lat="42.453402" lon="-5.994188">
        <ele>915</ele>
        <time>2018-07-24T06:09:58.990Z</time>
      </trkpt>
      <trkpt lat="42.453398" lon="-5.994315">
        <ele>915</ele>
        <time>2018-07-24T06:10:01.000Z</time>
      </trkpt>
      <trkpt lat="42.453367" lon="-5.994455">
        <ele>915</ele>
        <time>2018-07-24T06:10:03.000Z</time>
      </trkpt>
      <trkpt lat="42.453358" lon="-5.994591">
        <ele>915</ele>
        <time>2018-07-24T06:10:06.000Z</time>
      </trkpt>
      <trkpt lat="42.453359" lon="-5.994729">
        <ele>915</ele>
        <time>2018-07-24T06:10:08.990Z</time>
      </trkpt>
      <trkpt lat="42.453372" lon="-5.99489">
        <ele>916</ele>
        <time>2018-07-24T06:10:12.000Z</time>
      </trkpt>
      <trkpt lat="42.453377" lon="-5.995058">
        <ele>915</ele>
        <time>2018-07-24T06:10:14.990Z</time>
      </trkpt>
      <trkpt lat="42.453381" lon="-5.995191">
        <ele>915</ele>
        <time>2018-07-24T06:10:17.000Z</time>
      </trkpt>
      <trkpt lat="42.453386" lon="-5.995323">
        <ele>915</ele>
        <time>2018-07-24T06:10:18.990Z</time>
      </trkpt>
      <trkpt lat="42.453387" lon="-5.99545">
        <ele>915</ele>
        <time>2018-07-24T06:10:20.990Z</time>
      </trkpt>
      <trkpt lat="42.453393" lon="-5.995579">
        <ele>915</ele>
        <time>2018-07-24T06:10:22.990Z</time>
      </trkpt>
      <trkpt lat="42.453397" lon="-5.995705">
        <ele>915</ele>
        <time>2018-07-24T06:10:24.990Z</time>
      </trkpt>
      <trkpt lat="42.453411" lon="-5.995831">
        <ele>915</ele>
        <time>2018-07-24T06:10:27.000Z</time>
      </trkpt>
      <trkpt lat="42.453434" lon="-5.996008">
        <ele>915</ele>
        <time>2018-07-24T06:10:29.990Z</time>
      </trkpt>
      <trkpt lat="42.453448" lon="-5.996133">
        <ele>915</ele>
        <time>2018-07-24T06:10:32.000Z</time>
      </trkpt>
      <trkpt lat="42.453471" lon="-5.996255">
        <ele>915</ele>
        <time>2018-07-24T06:10:33.990Z</time>
      </trkpt>
      <trkpt lat="42.453484" lon="-5.996378">
        <ele>915</ele>
        <time>2018-07-24T06:10:35.990Z</time>
      </trkpt>
      <trkpt lat="42.45351" lon="-5.996545">
        <ele>915.5900032</ele>
        <time>2018-07-24T06:10:38.990Z</time>
      </trkpt>
      <trkpt lat="42.453534" lon="-5.996725">
        <ele>916</ele>
        <time>2018-07-24T06:10:42.000Z</time>
      </trkpt>
      <trkpt lat="42.453558" lon="-5.996853">
        <ele>916</ele>
        <time>2018-07-24T06:10:43.990Z</time>
      </trkpt>
      <trkpt lat="42.453579" lon="-5.996983">
        <ele>915.4099968</ele>
        <time>2018-07-24T06:10:45.990Z</time>
      </trkpt>
      <trkpt lat="42.453608" lon="-5.997115">
        <ele>916</ele>
        <time>2018-07-24T06:10:47.990Z</time>
      </trkpt>
      <trkpt lat="42.45363" lon="-5.997252">
        <ele>916</ele>
        <time>2018-07-24T06:10:49.990Z</time>
      </trkpt>
      <trkpt lat="42.453652" lon="-5.997375">
        <ele>916</ele>
        <time>2018-07-24T06:10:52.000Z</time>
      </trkpt>
      <trkpt lat="42.453677" lon="-5.997503">
        <ele>916</ele>
        <time>2018-07-24T06:10:53.990Z</time>
      </trkpt>
      <trkpt lat="42.4537" lon="-5.997636">
        <ele>915.422542320936</ele>
        <time>2018-07-24T06:10:55.990Z</time>
      </trkpt>
      <trkpt lat="42.453711" lon="-5.997775">
        <ele>916</ele>
        <time>2018-07-24T06:10:57.990Z</time>
      </trkpt>
      <trkpt lat="42.453733" lon="-5.997896">
        <ele>916</ele>
        <time>2018-07-24T06:10:59.990Z</time>
      </trkpt>
      <trkpt lat="42.453749" lon="-5.998028">
        <ele>916</ele>
        <time>2018-07-24T06:11:02.000Z</time>
      </trkpt>
      <trkpt lat="42.453768" lon="-5.998156">
        <ele>916</ele>
        <time>2018-07-24T06:11:03.990Z</time>
      </trkpt>
      <trkpt lat="42.453783" lon="-5.998295">
        <ele>916</ele>
        <time>2018-07-24T06:11:05.990Z</time>
      </trkpt>
      <trkpt lat="42.453778" lon="-5.998427">
        <ele>916</ele>
        <time>2018-07-24T06:11:08.000Z</time>
      </trkpt>
      <trkpt lat="42.45379" lon="-5.99864">
        <ele>916</ele>
        <time>2018-07-24T06:11:10.000Z</time>
      </trkpt>
      <trkpt lat="42.453786" lon="-5.998825">
        <ele>916</ele>
        <time>2018-07-24T06:11:13.000Z</time>
      </trkpt>
      <trkpt lat="42.453812" lon="-5.999012">
        <ele>916</ele>
        <time>2018-07-24T06:11:16.000Z</time>
      </trkpt>
      <trkpt lat="42.453821" lon="-5.999154">
        <ele>916</ele>
        <time>2018-07-24T06:11:18.000Z</time>
      </trkpt>
      <trkpt lat="42.453839" lon="-5.999287">
        <ele>916</ele>
        <time>2018-07-24T06:11:20.000Z</time>
      </trkpt>
      <trkpt lat="42.453867" lon="-5.99944">
        <ele>916</ele>
        <time>2018-07-24T06:11:22.990Z</time>
      </trkpt>
      <trkpt lat="42.453889" lon="-5.999587">
        <ele>916</ele>
        <time>2018-07-24T06:11:25.990Z</time>
      </trkpt>
      <trkpt lat="42.453909" lon="-5.999727">
        <ele>916</ele>
        <time>2018-07-24T06:11:28.990Z</time>
      </trkpt>
      <trkpt lat="42.453929" lon="-5.999869">
        <ele>916</ele>
        <time>2018-07-24T06:11:31.990Z</time>
      </trkpt>
      <trkpt lat="42.453948" lon="-6.000041">
        <ele>915</ele>
        <time>2018-07-24T06:11:35.000Z</time>
      </trkpt>
      <trkpt lat="42.453971" lon="-6.000224">
        <ele>915</ele>
        <time>2018-07-24T06:11:38.000Z</time>
      </trkpt>
      <trkpt lat="42.453936" lon="-6.000412">
        <ele>914.4</ele>
        <time>2018-07-24T06:11:40.000Z</time>
      </trkpt>
      <trkpt lat="42.453951" lon="-6.000551">
        <ele>914</ele>
        <time>2018-07-24T06:11:42.000Z</time>
      </trkpt>
      <trkpt lat="42.453977" lon="-6.000693">
        <ele>913</ele>
        <time>2018-07-24T06:11:44.000Z</time>
      </trkpt>
      <trkpt lat="42.453991" lon="-6.000841">
        <ele>913</ele>
        <time>2018-07-24T06:11:46.000Z</time>
      </trkpt>
      <trkpt lat="42.454038" lon="-6.000983">
        <ele>911</ele>
        <time>2018-07-24T06:11:48.000Z</time>
      </trkpt>
      <trkpt lat="42.454101" lon="-6.001142">
        <ele>910.4</ele>
        <time>2018-07-24T06:11:50.000Z</time>
      </trkpt>
      <trkpt lat="42.454171" lon="-6.001335">
        <ele>907.8</ele>
        <time>2018-07-24T06:11:52.000Z</time>
      </trkpt>
      <trkpt lat="42.454243" lon="-6.001555">
        <ele>905.159425666902</ele>
        <time>2018-07-24T06:11:54.000Z</time>
      </trkpt>
      <trkpt lat="42.454267" lon="-6.001681">
        <ele>902.8</ele>
        <time>2018-07-24T06:11:55.000Z</time>
      </trkpt>
      <trkpt lat="42.454284" lon="-6.001819">
        <ele>901.4</ele>
        <time>2018-07-24T06:11:56.000Z</time>
      </trkpt>
      <trkpt lat="42.454297" lon="-6.001958">
        <ele>900.090909090909</ele>
        <time>2018-07-24T06:11:57.000Z</time>
      </trkpt>
      <trkpt lat="42.454312" lon="-6.002098">
        <ele>898.176470588235</ele>
        <time>2018-07-24T06:11:58.000Z</time>
      </trkpt>
      <trkpt lat="42.454333" lon="-6.002242">
        <ele>895.2</ele>
        <time>2018-07-24T06:11:59.000Z</time>
      </trkpt>
      <trkpt lat="42.454361" lon="-6.002389">
        <ele>893.4</ele>
        <time>2018-07-24T06:12:00.000Z</time>
      </trkpt>
      <trkpt lat="42.454392" lon="-6.002532">
        <ele>891.8</ele>
        <time>2018-07-24T06:12:01.000Z</time>
      </trkpt>
      <trkpt lat="42.454425" lon="-6.002671">
        <ele>890.541985851638</ele>
        <time>2018-07-24T06:12:02.000Z</time>
      </trkpt>
      <trkpt lat="42.454459" lon="-6.002809">
        <ele>889.159425666902</ele>
        <time>2018-07-24T06:12:03.000Z</time>
      </trkpt>
      <trkpt lat="42.454491" lon="-6.002946">
        <ele>887.069765134301</ele>
        <time>2018-07-24T06:12:04.000Z</time>
      </trkpt>
      <trkpt lat="42.454518" lon="-6.003085">
        <ele>885.563377742523</ele>
        <time>2018-07-24T06:12:05.000Z</time>
      </trkpt>
      <trkpt lat="42.454536" lon="-6.003232">
        <ele>883.8</ele>
        <time>2018-07-24T06:12:06.000Z</time>
      </trkpt>
      <trkpt lat="42.454542" lon="-6.003389">
        <ele>882.090909090909</ele>
        <time>2018-07-24T06:12:07.000Z</time>
      </trkpt>
      <trkpt lat="42.45454" lon="-6.003552">
        <ele>880.176470588235</ele>
        <time>2018-07-24T06:12:08.000Z</time>
      </trkpt>
      <trkpt lat="42.454532" lon="-6.003716">
        <ele>877.8</ele>
        <time>2018-07-24T06:12:09.000Z</time>
      </trkpt>
      <trkpt lat="42.45452" lon="-6.003881">
        <ele>876.4</ele>
        <time>2018-07-24T06:12:10.000Z</time>
      </trkpt>
      <trkpt lat="42.454507" lon="-6.004049">
        <ele>876</ele>
        <time>2018-07-24T06:12:11.000Z</time>
      </trkpt>
      <trkpt lat="42.454493" lon="-6.004219">
        <ele>875.159425666902</ele>
        <time>2018-07-24T06:12:12.000Z</time>
      </trkpt>
      <trkpt lat="42.454478" lon="-6.00439">
        <ele>873.4</ele>
        <time>2018-07-24T06:12:13.000Z</time>
      </trkpt>
      <trkpt lat="42.454461" lon="-6.004561">
        <ele>872.4</ele>
        <time>2018-07-24T06:12:14.000Z</time>
      </trkpt>
      <trkpt lat="42.454442" lon="-6.004731">
        <ele>871.541985851638</ele>
        <time>2018-07-24T06:12:15.000Z</time>
      </trkpt>
      <trkpt lat="42.454422" lon="-6.0049">
        <ele>870.579712833451</ele>
        <time>2018-07-24T06:12:16.000Z</time>
      </trkpt>
      <trkpt lat="42.454401" lon="-6.005069">
        <ele>869.4</ele>
        <time>2018-07-24T06:12:17.000Z</time>
      </trkpt>
      <trkpt lat="42.454383" lon="-6.005238">
        <ele>868.4</ele>
        <time>2018-07-24T06:12:18.000Z</time>
      </trkpt>
      <trkpt lat="42.454365" lon="-6.005405">
        <ele>867.545454545455</ele>
        <time>2018-07-24T06:12:19.000Z</time>
      </trkpt>
      <trkpt lat="42.454351" lon="-6.005558">
        <ele>867</ele>
        <time>2018-07-24T06:12:20.000Z</time>
      </trkpt>
      <trkpt lat="42.454342" lon="-6.005694">
        <ele>867</ele>
        <time>2018-07-24T06:12:21.000Z</time>
      </trkpt>
      <trkpt lat="42.454331" lon="-6.00591">
        <ele>867</ele>
        <time>2018-07-24T06:12:23.000Z</time>
      </trkpt>
      <trkpt lat="42.454328" lon="-6.006053">
        <ele>867</ele>
        <time>2018-07-24T06:12:25.000Z</time>
      </trkpt>
      <trkpt lat="42.454332" lon="-6.006218">
        <ele>867</ele>
        <time>2018-07-24T06:12:29.000Z</time>
      </trkpt>
      <trkpt lat="42.454337" lon="-6.006387">
        <ele>867</ele>
        <time>2018-07-24T06:12:32.000Z</time>
      </trkpt>
      <trkpt lat="42.454347" lon="-6.006517">
        <ele>866.4</ele>
        <time>2018-07-24T06:12:34.000Z</time>
      </trkpt>
      <trkpt lat="42.454351" lon="-6.006666">
        <ele>866</ele>
        <time>2018-07-24T06:12:36.000Z</time>
      </trkpt>
      <trkpt lat="42.454353" lon="-6.006828">
        <ele>865.579712833451</ele>
        <time>2018-07-24T06:12:38.000Z</time>
      </trkpt>
      <trkpt lat="42.454358" lon="-6.006997">
        <ele>864.4</ele>
        <time>2018-07-24T06:12:40.000Z</time>
      </trkpt>
      <trkpt lat="42.454364" lon="-6.007175">
        <ele>864</ele>
        <time>2018-07-24T06:12:41.990Z</time>
      </trkpt>
      <trkpt lat="42.454373" lon="-6.007354">
        <ele>863</ele>
        <time>2018-07-24T06:12:43.990Z</time>
      </trkpt>
      <trkpt lat="42.454363" lon="-6.007494">
        <ele>862</ele>
        <time>2018-07-24T06:12:45.990Z</time>
      </trkpt>
      <trkpt lat="42.454358" lon="-6.007632">
        <ele>862</ele>
        <time>2018-07-24T06:12:47.990Z</time>
      </trkpt>
      <trkpt lat="42.454357" lon="-6.007801">
        <ele>862</ele>
        <time>2018-07-24T06:12:50.000Z</time>
      </trkpt>
      <trkpt lat="42.454364" lon="-6.007986">
        <ele>861.4099968</ele>
        <time>2018-07-24T06:12:51.990Z</time>
      </trkpt>
      <trkpt lat="42.454365" lon="-6.008181">
        <ele>860.594201016584</ele>
        <time>2018-07-24T06:12:53.990Z</time>
      </trkpt>
      <trkpt lat="42.454363" lon="-6.008373">
        <ele>859.418366813824</ele>
        <time>2018-07-24T06:12:55.990Z</time>
      </trkpt>
      <trkpt lat="42.45436" lon="-6.008561">
        <ele>859</ele>
        <time>2018-07-24T06:12:57.990Z</time>
      </trkpt>
      <trkpt lat="42.454353" lon="-6.008755">
        <ele>858.4</ele>
        <time>2018-07-24T06:13:00.000Z</time>
      </trkpt>
      <trkpt lat="42.454354" lon="-6.008938">
        <ele>858</ele>
        <time>2018-07-24T06:13:01.990Z</time>
      </trkpt>
      <trkpt lat="42.454358" lon="-6.009118">
        <ele>858</ele>
        <time>2018-07-24T06:13:03.990Z</time>
      </trkpt>
      <trkpt lat="42.454356" lon="-6.009314">
        <ele>858</ele>
        <time>2018-07-24T06:13:05.990Z</time>
      </trkpt>
      <trkpt lat="42.454352" lon="-6.009504">
        <ele>857.602936470588</ele>
        <time>2018-07-24T06:13:07.990Z</time>
      </trkpt>
      <trkpt lat="42.454352" lon="-6.009699">
        <ele>857</ele>
        <time>2018-07-24T06:13:10.000Z</time>
      </trkpt>
      <trkpt lat="42.454356" lon="-6.009875">
        <ele>857</ele>
        <time>2018-07-24T06:13:11.990Z</time>
      </trkpt>
      <trkpt lat="42.45436" lon="-6.010062">
        <ele>857</ele>
        <time>2018-07-24T06:13:13.990Z</time>
      </trkpt>
      <trkpt lat="42.454354" lon="-6.010241">
        <ele>857</ele>
        <time>2018-07-24T06:13:15.990Z</time>
      </trkpt>
      <trkpt lat="42.454356" lon="-6.010427">
        <ele>857</ele>
        <time>2018-07-24T06:13:17.990Z</time>
      </trkpt>
      <trkpt lat="42.454338" lon="-6.010625">
        <ele>856</ele>
        <time>2018-07-24T06:13:20.000Z</time>
      </trkpt>
      <trkpt lat="42.454338" lon="-6.0108">
        <ele>855</ele>
        <time>2018-07-24T06:13:21.990Z</time>
      </trkpt>
      <trkpt lat="42.454346" lon="-6.010984">
        <ele>855</ele>
        <time>2018-07-24T06:13:23.990Z</time>
      </trkpt>
      <trkpt lat="42.454344" lon="-6.011147">
        <ele>856</ele>
        <time>2018-07-24T06:13:25.990Z</time>
      </trkpt>
      <trkpt lat="42.454342" lon="-6.011315">
        <ele>856</ele>
        <time>2018-07-24T06:13:27.990Z</time>
      </trkpt>
      <trkpt lat="42.454338" lon="-6.011488">
        <ele>855</ele>
        <time>2018-07-24T06:13:30.000Z</time>
      </trkpt>
      <trkpt lat="42.454334" lon="-6.011654">
        <ele>855</ele>
        <time>2018-07-24T06:13:31.990Z</time>
      </trkpt>
      <trkpt lat="42.454322" lon="-6.011825">
        <ele>854.4099968</ele>
        <time>2018-07-24T06:13:33.990Z</time>
      </trkpt>
      <trkpt lat="42.454307" lon="-6.011999">
        <ele>854</ele>
        <time>2018-07-24T06:13:35.990Z</time>
      </trkpt>
      <trkpt lat="42.454288" lon="-6.012175">
        <ele>854</ele>
        <time>2018-07-24T06:13:37.990Z</time>
      </trkpt>
      <trkpt lat="42.454288" lon="-6.012342">
        <ele>854</ele>
        <time>2018-07-24T06:13:40.000Z</time>
      </trkpt>
      <trkpt lat="42.454288" lon="-6.012498">
        <ele>853.4099968</ele>
        <time>2018-07-24T06:13:41.990Z</time>
      </trkpt>
      <trkpt lat="42.454279" lon="-6.012657">
        <ele>853</ele>
        <time>2018-07-24T06:13:43.990Z</time>
      </trkpt>
      <trkpt lat="42.454262" lon="-6.012824">
        <ele>853</ele>
        <time>2018-07-24T06:13:45.990Z</time>
      </trkpt>
      <trkpt lat="42.454242" lon="-6.012989">
        <ele>853</ele>
        <time>2018-07-24T06:13:47.990Z</time>
      </trkpt>
      <trkpt lat="42.454238" lon="-6.013147">
        <ele>853</ele>
        <time>2018-07-24T06:13:50.000Z</time>
      </trkpt>
      <trkpt lat="42.454244" lon="-6.013293">
        <ele>853</ele>
        <time>2018-07-24T06:13:51.990Z</time>
      </trkpt>
      <trkpt lat="42.45425" lon="-6.013448">
        <ele>853</ele>
        <time>2018-07-24T06:13:53.990Z</time>
      </trkpt>
      <trkpt lat="42.454248" lon="-6.013619">
        <ele>852.602936470588</ele>
        <time>2018-07-24T06:13:55.990Z</time>
      </trkpt>
      <trkpt lat="42.454244" lon="-6.013785">
        <ele>852</ele>
        <time>2018-07-24T06:13:57.990Z</time>
      </trkpt>
      <trkpt lat="42.454234" lon="-6.01396">
        <ele>852</ele>
        <time>2018-07-24T06:14:00.000Z</time>
      </trkpt>
      <trkpt lat="42.454236" lon="-6.014131">
        <ele>852</ele>
        <time>2018-07-24T06:14:01.990Z</time>
      </trkpt>
      <trkpt lat="42.454236" lon="-6.01428">
        <ele>851</ele>
        <time>2018-07-24T06:14:03.990Z</time>
      </trkpt>
      <trkpt lat="42.454237" lon="-6.014431">
        <ele>851</ele>
        <time>2018-07-24T06:14:05.990Z</time>
      </trkpt>
      <trkpt lat="42.454236" lon="-6.014582">
        <ele>851</ele>
        <time>2018-07-24T06:14:07.990Z</time>
      </trkpt>
      <trkpt lat="42.454237" lon="-6.014734">
        <ele>851</ele>
        <time>2018-07-24T06:14:10.000Z</time>
      </trkpt>
      <trkpt lat="42.454228" lon="-6.014894">
        <ele>851</ele>
        <time>2018-07-24T06:14:12.000Z</time>
      </trkpt>
      <trkpt lat="42.454242" lon="-6.015085">
        <ele>850.4</ele>
        <time>2018-07-24T06:14:14.000Z</time>
      </trkpt>
      <trkpt lat="42.454248" lon="-6.01527">
        <ele>850</ele>
        <time>2018-07-24T06:14:16.000Z</time>
      </trkpt>
      <trkpt lat="42.45428" lon="-6.015416">
        <ele>850</ele>
        <time>2018-07-24T06:14:17.990Z</time>
      </trkpt>
      <trkpt lat="42.454322" lon="-6.015566">
        <ele>850</ele>
        <time>2018-07-24T06:14:19.990Z</time>
      </trkpt>
      <trkpt lat="42.454352" lon="-6.015726">
        <ele>850</ele>
        <time>2018-07-24T06:14:21.990Z</time>
      </trkpt>
      <trkpt lat="42.454373" lon="-6.015899">
        <ele>850</ele>
        <time>2018-07-24T06:14:23.990Z</time>
      </trkpt>
      <trkpt lat="42.454385" lon="-6.016057">
        <ele>850</ele>
        <time>2018-07-24T06:14:26.000Z</time>
      </trkpt>
      <trkpt lat="42.454367" lon="-6.016247">
        <ele>850</ele>
        <time>2018-07-24T06:14:28.000Z</time>
      </trkpt>
      <trkpt lat="42.454364" lon="-6.016431">
        <ele>850</ele>
        <time>2018-07-24T06:14:30.000Z</time>
      </trkpt>
      <trkpt lat="42.454385" lon="-6.016586">
        <ele>850</ele>
        <time>2018-07-24T06:14:31.990Z</time>
      </trkpt>
      <trkpt lat="42.454386" lon="-6.016729">
        <ele>850</ele>
        <time>2018-07-24T06:14:33.990Z</time>
      </trkpt>
      <trkpt lat="42.45438" lon="-6.016881">
        <ele>849.453846381064</ele>
        <time>2018-07-24T06:14:35.990Z</time>
      </trkpt>
      <trkpt lat="42.454381" lon="-6.01702">
        <ele>850</ele>
        <time>2018-07-24T06:14:37.990Z</time>
      </trkpt>
      <trkpt lat="42.45438" lon="-6.01717">
        <ele>849.4</ele>
        <time>2018-07-24T06:14:40.000Z</time>
      </trkpt>
      <trkpt lat="42.454385" lon="-6.017331">
        <ele>848.4099968</ele>
        <time>2018-07-24T06:14:41.990Z</time>
      </trkpt>
      <trkpt lat="42.454393" lon="-6.017498">
        <ele>847.42156186078</ele>
        <time>2018-07-24T06:14:43.990Z</time>
      </trkpt>
      <trkpt lat="42.454399" lon="-6.017696">
        <ele>846.694906061526</ele>
        <time>2018-07-24T06:14:45.990Z</time>
      </trkpt>
      <trkpt lat="42.454411" lon="-6.017898">
        <ele>846</ele>
        <time>2018-07-24T06:14:47.990Z</time>
      </trkpt>
      <trkpt lat="42.454424" lon="-6.018114">
        <ele>846</ele>
        <time>2018-07-24T06:14:50.000Z</time>
      </trkpt>
      <trkpt lat="42.45444" lon="-6.018332">
        <ele>844.594201016584</ele>
        <time>2018-07-24T06:14:51.990Z</time>
      </trkpt>
      <trkpt lat="42.454456" lon="-6.018567">
        <ele>842.4099968</ele>
        <time>2018-07-24T06:14:53.990Z</time>
      </trkpt>
      <trkpt lat="42.454463" lon="-6.018689">
        <ele>841.534882567151</ele>
        <time>2018-07-24T06:14:55.000Z</time>
      </trkpt>
      <trkpt lat="42.454481" lon="-6.01893">
        <ele>841</ele>
        <time>2018-07-24T06:14:56.990Z</time>
      </trkpt>
      <trkpt lat="42.454489" lon="-6.019056">
        <ele>841</ele>
        <time>2018-07-24T06:14:57.990Z</time>
      </trkpt>
      <trkpt lat="42.454494" lon="-6.019178">
        <ele>841</ele>
        <time>2018-07-24T06:14:58.990Z</time>
      </trkpt>
      <trkpt lat="42.454506" lon="-6.019405">
        <ele>841</ele>
        <time>2018-07-24T06:15:00.990Z</time>
      </trkpt>
      <trkpt lat="42.454517" lon="-6.019642">
        <ele>841</ele>
        <time>2018-07-24T06:15:02.990Z</time>
      </trkpt>
      <trkpt lat="42.454533" lon="-6.019857">
        <ele>841</ele>
        <time>2018-07-24T06:15:05.000Z</time>
      </trkpt>
      <trkpt lat="42.454541" lon="-6.020061">
        <ele>841</ele>
        <time>2018-07-24T06:15:06.990Z</time>
      </trkpt>
      <trkpt lat="42.454557" lon="-6.020248">
        <ele>841</ele>
        <time>2018-07-24T06:15:08.990Z</time>
      </trkpt>
      <trkpt lat="42.45457" lon="-6.020442">
        <ele>841</ele>
        <time>2018-07-24T06:15:10.990Z</time>
      </trkpt>
      <trkpt lat="42.454578" lon="-6.020647">
        <ele>841</ele>
        <time>2018-07-24T06:15:12.990Z</time>
      </trkpt>
      <trkpt lat="42.454585" lon="-6.020842">
        <ele>841</ele>
        <time>2018-07-24T06:15:15.000Z</time>
      </trkpt>
      <trkpt lat="42.454594" lon="-6.021028">
        <ele>841</ele>
        <time>2018-07-24T06:15:16.990Z</time>
      </trkpt>
      <trkpt lat="42.454604" lon="-6.02121">
        <ele>841</ele>
        <time>2018-07-24T06:15:18.990Z</time>
      </trkpt>
      <trkpt lat="42.454621" lon="-6.021385">
        <ele>841</ele>
        <time>2018-07-24T06:15:20.990Z</time>
      </trkpt>
      <trkpt lat="42.454639" lon="-6.02156">
        <ele>841</ele>
        <time>2018-07-24T06:15:22.990Z</time>
      </trkpt>
      <trkpt lat="42.454651" lon="-6.02172">
        <ele>841</ele>
        <time>2018-07-24T06:15:25.000Z</time>
      </trkpt>
      <trkpt lat="42.454668" lon="-6.021885">
        <ele>841</ele>
        <time>2018-07-24T06:15:26.990Z</time>
      </trkpt>
      <trkpt lat="42.454676" lon="-6.022044">
        <ele>841</ele>
        <time>2018-07-24T06:15:28.990Z</time>
      </trkpt>
      <trkpt lat="42.454684" lon="-6.022196">
        <ele>841</ele>
        <time>2018-07-24T06:15:30.990Z</time>
      </trkpt>
      <trkpt lat="42.454687" lon="-6.022349">
        <ele>842</ele>
        <time>2018-07-24T06:15:32.990Z</time>
      </trkpt>
      <trkpt lat="42.454669" lon="-6.022499">
        <ele>843.6</ele>
        <time>2018-07-24T06:15:35.000Z</time>
      </trkpt>
      <trkpt lat="42.454646" lon="-6.022637">
        <ele>844</ele>
        <time>2018-07-24T06:15:36.990Z</time>
      </trkpt>
      <trkpt lat="42.454602" lon="-6.022775">
        <ele>844</ele>
        <time>2018-07-24T06:15:38.990Z</time>
      </trkpt>
      <trkpt lat="42.454525" lon="-6.022901">
        <ele>844</ele>
        <time>2018-07-24T06:15:40.990Z</time>
      </trkpt>
      <trkpt lat="42.454438" lon="-6.023002">
        <ele>844.581638650523</ele>
        <time>2018-07-24T06:15:42.990Z</time>
      </trkpt>
      <trkpt lat="42.454353" lon="-6.023096">
        <ele>845</ele>
        <time>2018-07-24T06:15:45.000Z</time>
      </trkpt>
      <trkpt lat="42.454268" lon="-6.023183">
        <ele>845</ele>
        <time>2018-07-24T06:15:46.990Z</time>
      </trkpt>
      <trkpt lat="42.454186" lon="-6.023269">
        <ele>844.4099968</ele>
        <time>2018-07-24T06:15:48.990Z</time>
      </trkpt>
      <trkpt lat="42.454098" lon="-6.023368">
        <ele>844</ele>
        <time>2018-07-24T06:15:50.990Z</time>
      </trkpt>
      <trkpt lat="42.454014" lon="-6.023462">
        <ele>844</ele>
        <time>2018-07-24T06:15:52.990Z</time>
      </trkpt>
      <trkpt lat="42.453943" lon="-6.023571">
        <ele>845</ele>
        <time>2018-07-24T06:15:55.000Z</time>
      </trkpt>
      <trkpt lat="42.453901" lon="-6.023708">
        <ele>844</ele>
        <time>2018-07-24T06:15:56.990Z</time>
      </trkpt>
      <trkpt lat="42.453887" lon="-6.023856">
        <ele>844</ele>
        <time>2018-07-24T06:15:58.990Z</time>
      </trkpt>
      <trkpt lat="42.453884" lon="-6.024002">
        <ele>844</ele>
        <time>2018-07-24T06:16:00.990Z</time>
      </trkpt>
      <trkpt lat="42.453886" lon="-6.024148">
        <ele>844</ele>
        <time>2018-07-24T06:16:02.990Z</time>
      </trkpt>
      <trkpt lat="42.453891" lon="-6.02429">
        <ele>844</ele>
        <time>2018-07-24T06:16:05.000Z</time>
      </trkpt>
      <trkpt lat="42.453896" lon="-6.024437">
        <ele>844</ele>
        <time>2018-07-24T06:16:06.990Z</time>
      </trkpt>
      <trkpt lat="42.453901" lon="-6.024581">
        <ele>844</ele>
        <time>2018-07-24T06:16:08.990Z</time>
      </trkpt>
      <trkpt lat="42.453908" lon="-6.024722">
        <ele>844</ele>
        <time>2018-07-24T06:16:10.990Z</time>
      </trkpt>
      <trkpt lat="42.453915" lon="-6.024875">
        <ele>844</ele>
        <time>2018-07-24T06:16:12.990Z</time>
      </trkpt>
      <trkpt lat="42.453917" lon="-6.025029">
        <ele>844</ele>
        <time>2018-07-24T06:16:15.000Z</time>
      </trkpt>
      <trkpt lat="42.453926" lon="-6.025189">
        <ele>843</ele>
        <time>2018-07-24T06:16:16.990Z</time>
      </trkpt>
      <trkpt lat="42.453929" lon="-6.025358">
        <ele>843</ele>
        <time>2018-07-24T06:16:18.990Z</time>
      </trkpt>
      <trkpt lat="42.453942" lon="-6.025501">
        <ele>843</ele>
        <time>2018-07-24T06:16:20.990Z</time>
      </trkpt>
      <trkpt lat="42.454054" lon="-6.025577">
        <ele>842</ele>
        <time>2018-07-24T06:16:23.990Z</time>
      </trkpt>
      <trkpt lat="42.454159" lon="-6.025585">
        <ele>842</ele>
        <time>2018-07-24T06:16:25.990Z</time>
      </trkpt>
      <trkpt lat="42.454273" lon="-6.025633">
        <ele>841</ele>
        <time>2018-07-24T06:16:27.990Z</time>
      </trkpt>
      <trkpt lat="42.454336" lon="-6.025757">
        <ele>841</ele>
        <time>2018-07-24T06:16:30.000Z</time>
      </trkpt>
      <trkpt lat="42.454342" lon="-6.025902">
        <ele>841</ele>
        <time>2018-07-24T06:16:31.990Z</time>
      </trkpt>
      <trkpt lat="42.454349" lon="-6.026046">
        <ele>841</ele>
        <time>2018-07-24T06:16:33.990Z</time>
      </trkpt>
      <trkpt lat="42.454358" lon="-6.026184">
        <ele>841</ele>
        <time>2018-07-24T06:16:35.990Z</time>
      </trkpt>
      <trkpt lat="42.454363" lon="-6.026335">
        <ele>841</ele>
        <time>2018-07-24T06:16:37.990Z</time>
      </trkpt>
      <trkpt lat="42.454368" lon="-6.026483">
        <ele>841</ele>
        <time>2018-07-24T06:16:40.000Z</time>
      </trkpt>
      <trkpt lat="42.454378" lon="-6.026627">
        <ele>841</ele>
        <time>2018-07-24T06:16:41.990Z</time>
      </trkpt>
      <trkpt lat="42.45439" lon="-6.026765">
        <ele>841</ele>
        <time>2018-07-24T06:16:43.990Z</time>
      </trkpt>
      <trkpt lat="42.454399" lon="-6.026906">
        <ele>841</ele>
        <time>2018-07-24T06:16:45.990Z</time>
      </trkpt>
      <trkpt lat="42.454405" lon="-6.027132">
        <ele>841</ele>
        <time>2018-07-24T06:16:48.000Z</time>
      </trkpt>
      <trkpt lat="42.454407" lon="-6.027276">
        <ele>841</ele>
        <time>2018-07-24T06:16:50.000Z</time>
      </trkpt>
      <trkpt lat="42.454412" lon="-6.02742">
        <ele>841</ele>
        <time>2018-07-24T06:16:52.000Z</time>
      </trkpt>
      <trkpt lat="42.454439" lon="-6.027544">
        <ele>841</ele>
        <time>2018-07-24T06:16:53.990Z</time>
      </trkpt>
      <trkpt lat="42.454461" lon="-6.027678">
        <ele>841</ele>
        <time>2018-07-24T06:16:55.990Z</time>
      </trkpt>
      <trkpt lat="42.454482" lon="-6.027806">
        <ele>841</ele>
        <time>2018-07-24T06:16:57.990Z</time>
      </trkpt>
      <trkpt lat="42.454502" lon="-6.027943">
        <ele>841</ele>
        <time>2018-07-24T06:16:59.990Z</time>
      </trkpt>
      <trkpt lat="42.454509" lon="-6.028088">
        <ele>841</ele>
        <time>2018-07-24T06:17:02.000Z</time>
      </trkpt>
      <trkpt lat="42.454524" lon="-6.028242">
        <ele>841</ele>
        <time>2018-07-24T06:17:03.990Z</time>
      </trkpt>
      <trkpt lat="42.45454" lon="-6.028377">
        <ele>841</ele>
        <time>2018-07-24T06:17:05.990Z</time>
      </trkpt>
      <trkpt lat="42.454546" lon="-6.028516">
        <ele>841</ele>
        <time>2018-07-24T06:17:07.990Z</time>
      </trkpt>
      <trkpt lat="42.454551" lon="-6.028663">
        <ele>841</ele>
        <time>2018-07-24T06:17:09.990Z</time>
      </trkpt>
      <trkpt lat="42.454556" lon="-6.028807">
        <ele>841</ele>
        <time>2018-07-24T06:17:11.990Z</time>
      </trkpt>
      <trkpt lat="42.454563" lon="-6.02894">
        <ele>841</ele>
        <time>2018-07-24T06:17:13.990Z</time>
      </trkpt>
      <trkpt lat="42.454575" lon="-6.029079">
        <ele>841</ele>
        <time>2018-07-24T06:17:15.990Z</time>
      </trkpt>
      <trkpt lat="42.454582" lon="-6.029213">
        <ele>841</ele>
        <time>2018-07-24T06:17:17.990Z</time>
      </trkpt>
      <trkpt lat="42.454596" lon="-6.029347">
        <ele>841</ele>
        <time>2018-07-24T06:17:19.990Z</time>
      </trkpt>
      <trkpt lat="42.454606" lon="-6.02949">
        <ele>841</ele>
        <time>2018-07-24T06:17:21.990Z</time>
      </trkpt>
      <trkpt lat="42.454613" lon="-6.029627">
        <ele>841</ele>
        <time>2018-07-24T06:17:23.990Z</time>
      </trkpt>
      <trkpt lat="42.454623" lon="-6.029764">
        <ele>841</ele>
        <time>2018-07-24T06:17:25.990Z</time>
      </trkpt>
      <trkpt lat="42.45463" lon="-6.029899">
        <ele>841</ele>
        <time>2018-07-24T06:17:27.990Z</time>
      </trkpt>
      <trkpt lat="42.454635" lon="-6.03003">
        <ele>841</ele>
        <time>2018-07-24T06:17:29.990Z</time>
      </trkpt>
      <trkpt lat="42.454637" lon="-6.030173">
        <ele>841</ele>
        <time>2018-07-24T06:17:32.000Z</time>
      </trkpt>
      <trkpt lat="42.454637" lon="-6.030313">
        <ele>841</ele>
        <time>2018-07-24T06:17:33.990Z</time>
      </trkpt>
      <trkpt lat="42.454644" lon="-6.030452">
        <ele>841</ele>
        <time>2018-07-24T06:17:35.990Z</time>
      </trkpt>
      <trkpt lat="42.454646" lon="-6.030586">
        <ele>841</ele>
        <time>2018-07-24T06:17:37.990Z</time>
      </trkpt>
      <trkpt lat="42.454651" lon="-6.030713">
        <ele>841</ele>
        <time>2018-07-24T06:17:39.990Z</time>
      </trkpt>
      <trkpt lat="42.45465" lon="-6.030843">
        <ele>841</ele>
        <time>2018-07-24T06:17:42.000Z</time>
      </trkpt>
      <trkpt lat="42.454648" lon="-6.030976">
        <ele>841</ele>
        <time>2018-07-24T06:17:43.990Z</time>
      </trkpt>
      <trkpt lat="42.454654" lon="-6.031114">
        <ele>841</ele>
        <time>2018-07-24T06:17:45.990Z</time>
      </trkpt>
      <trkpt lat="42.454666" lon="-6.031261">
        <ele>841</ele>
        <time>2018-07-24T06:17:47.990Z</time>
      </trkpt>
      <trkpt lat="42.454675" lon="-6.03141">
        <ele>841</ele>
        <time>2018-07-24T06:17:49.990Z</time>
      </trkpt>
      <trkpt lat="42.454684" lon="-6.031536">
        <ele>841.5900032</ele>
        <time>2018-07-24T06:17:51.990Z</time>
      </trkpt>
      <trkpt lat="42.454687" lon="-6.031668">
        <ele>842</ele>
        <time>2018-07-24T06:17:53.990Z</time>
      </trkpt>
      <trkpt lat="42.454697" lon="-6.031811">
        <ele>841.4099968</ele>
        <time>2018-07-24T06:17:55.990Z</time>
      </trkpt>
      <trkpt lat="42.454701" lon="-6.031967">
        <ele>841</ele>
        <time>2018-07-24T06:17:57.990Z</time>
      </trkpt>
      <trkpt lat="42.454705" lon="-6.032104">
        <ele>841</ele>
        <time>2018-07-24T06:17:59.990Z</time>
      </trkpt>
      <trkpt lat="42.454708" lon="-6.032237">
        <ele>841</ele>
        <time>2018-07-24T06:18:01.990Z</time>
      </trkpt>
      <trkpt lat="42.454717" lon="-6.032363">
        <ele>841</ele>
        <time>2018-07-24T06:18:03.990Z</time>
      </trkpt>
      <trkpt lat="42.454723" lon="-6.032493">
        <ele>841</ele>
        <time>2018-07-24T06:18:05.990Z</time>
      </trkpt>
      <trkpt lat="42.454718" lon="-6.032629">
        <ele>842</ele>
        <time>2018-07-24T06:18:07.990Z</time>
      </trkpt>
      <trkpt lat="42.454732" lon="-6.032754">
        <ele>841.4099968</ele>
        <time>2018-07-24T06:18:09.990Z</time>
      </trkpt>
      <trkpt lat="42.454732" lon="-6.032895">
        <ele>841</ele>
        <time>2018-07-24T06:18:12.000Z</time>
      </trkpt>
      <trkpt lat="42.454738" lon="-6.033031">
        <ele>841</ele>
        <time>2018-07-24T06:18:13.990Z</time>
      </trkpt>
      <trkpt lat="42.454737" lon="-6.033161">
        <ele>841.5900032</ele>
        <time>2018-07-24T06:18:15.990Z</time>
      </trkpt>
      <trkpt lat="42.454735" lon="-6.033298">
        <ele>842</ele>
        <time>2018-07-24T06:18:17.990Z</time>
      </trkpt>
      <trkpt lat="42.454735" lon="-6.033455">
        <ele>842</ele>
        <time>2018-07-24T06:18:19.100Z</time>
      </trkpt>
      <trkpt lat="42.454787" lon="-6.033608">
        <ele>842</ele>
        <time>2018-07-24T06:18:21.000Z</time>
      </trkpt>
      <trkpt lat="42.454806" lon="-6.033749">
        <ele>842</ele>
        <time>2018-07-24T06:18:23.000Z</time>
      </trkpt>
      <trkpt lat="42.454821" lon="-6.033884">
        <ele>842</ele>
        <time>2018-07-24T06:18:24.990Z</time>
      </trkpt>
      <trkpt lat="42.454836" lon="-6.034013">
        <ele>842.5900032</ele>
        <time>2018-07-24T06:18:26.990Z</time>
      </trkpt>
      <trkpt lat="42.454832" lon="-6.034143">
        <ele>843</ele>
        <time>2018-07-24T06:18:29.000Z</time>
      </trkpt>
      <trkpt lat="42.454845" lon="-6.034273">
        <ele>843</ele>
        <time>2018-07-24T06:18:30.990Z</time>
      </trkpt>
      <trkpt lat="42.454856" lon="-6.0344">
        <ele>843</ele>
        <time>2018-07-24T06:18:32.990Z</time>
      </trkpt>
      <trkpt lat="42.454876" lon="-6.034535">
        <ele>843</ele>
        <time>2018-07-24T06:18:34.990Z</time>
      </trkpt>
      <trkpt lat="42.454893" lon="-6.034671">
        <ele>843</ele>
        <time>2018-07-24T06:18:36.990Z</time>
      </trkpt>
      <trkpt lat="42.454903" lon="-6.034811">
        <ele>843</ele>
        <time>2018-07-24T06:18:39.000Z</time>
      </trkpt>
      <trkpt lat="42.454914" lon="-6.034951">
        <ele>843</ele>
        <time>2018-07-24T06:18:40.990Z</time>
      </trkpt>
      <trkpt lat="42.45492" lon="-6.03509">
        <ele>843</ele>
        <time>2018-07-24T06:18:42.990Z</time>
      </trkpt>
      <trkpt lat="42.454922" lon="-6.035234">
        <ele>843</ele>
        <time>2018-07-24T06:18:44.990Z</time>
      </trkpt>
      <trkpt lat="42.454949" lon="-6.035374">
        <ele>843</ele>
        <time>2018-07-24T06:18:46.990Z</time>
      </trkpt>
      <trkpt lat="42.454979" lon="-6.035514">
        <ele>843</ele>
        <time>2018-07-24T06:18:49.000Z</time>
      </trkpt>
      <trkpt lat="42.454998" lon="-6.035648">
        <ele>843</ele>
        <time>2018-07-24T06:18:50.990Z</time>
      </trkpt>
      <trkpt lat="42.455014" lon="-6.035777">
        <ele>843</ele>
        <time>2018-07-24T06:18:52.990Z</time>
      </trkpt>
      <trkpt lat="42.455025" lon="-6.035914">
        <ele>843</ele>
        <time>2018-07-24T06:18:54.990Z</time>
      </trkpt>
      <trkpt lat="42.455026" lon="-6.036047">
        <ele>842.4099968</ele>
        <time>2018-07-24T06:18:56.990Z</time>
      </trkpt>
      <trkpt lat="42.45503" lon="-6.036178">
        <ele>842</ele>
        <time>2018-07-24T06:18:59.000Z</time>
      </trkpt>
      <trkpt lat="42.455033" lon="-6.036304">
        <ele>842</ele>
        <time>2018-07-24T06:19:00.990Z</time>
      </trkpt>
      <trkpt lat="42.455056" lon="-6.03643">
        <ele>842</ele>
        <time>2018-07-24T06:19:02.990Z</time>
      </trkpt>
      <trkpt lat="42.455094" lon="-6.036613">
        <ele>842</ele>
        <time>2018-07-24T06:19:05.990Z</time>
      </trkpt>
      <trkpt lat="42.455104" lon="-6.036746">
        <ele>842</ele>
        <time>2018-07-24T06:19:07.990Z</time>
      </trkpt>
      <trkpt lat="42.455111" lon="-6.036878">
        <ele>842</ele>
        <time>2018-07-24T06:19:09.990Z</time>
      </trkpt>
      <trkpt lat="42.455121" lon="-6.037011">
        <ele>842</ele>
        <time>2018-07-24T06:19:11.990Z</time>
      </trkpt>
      <trkpt lat="42.455139" lon="-6.03714">
        <ele>842.6</ele>
        <time>2018-07-24T06:19:14.000Z</time>
      </trkpt>
      <trkpt lat="42.455173" lon="-6.037261">
        <ele>843</ele>
        <time>2018-07-24T06:19:15.990Z</time>
      </trkpt>
      <trkpt lat="42.455203" lon="-6.03738">
        <ele>843</ele>
        <time>2018-07-24T06:19:17.990Z</time>
      </trkpt>
      <trkpt lat="42.45523" lon="-6.037509">
        <ele>843</ele>
        <time>2018-07-24T06:19:19.990Z</time>
      </trkpt>
      <trkpt lat="42.455258" lon="-6.037675">
        <ele>843</ele>
        <time>2018-07-24T06:19:22.990Z</time>
      </trkpt>
      <trkpt lat="42.455296" lon="-6.037823">
        <ele>843</ele>
        <time>2018-07-24T06:19:25.990Z</time>
      </trkpt>
      <trkpt lat="42.455319" lon="-6.037946">
        <ele>843</ele>
        <time>2018-07-24T06:19:29.990Z</time>
      </trkpt>
      <trkpt lat="42.455316" lon="-6.038086">
        <ele>844</ele>
        <time>2018-07-24T06:19:40.000Z</time>
      </trkpt>
      <trkpt lat="42.455355" lon="-6.038202">
        <ele>843</ele>
        <time>2018-07-24T06:21:24.990Z</time>
      </trkpt>
      <trkpt lat="42.455374" lon="-6.038324">
        <ele>843</ele>
        <time>2018-07-24T06:21:39.990Z</time>
      </trkpt>
      <trkpt lat="42.455379" lon="-6.038453">
        <ele>843</ele>
        <time>2018-07-24T06:21:44.990Z</time>
      </trkpt>
      <trkpt lat="42.455398" lon="-6.038601">
        <ele>842</ele>
        <time>2018-07-24T06:21:49.000Z</time>
      </trkpt>
      <trkpt lat="42.45542" lon="-6.038736">
        <ele>842</ele>
        <time>2018-07-24T06:21:51.990Z</time>
      </trkpt>
      <trkpt lat="42.455435" lon="-6.038875">
        <ele>842</ele>
        <time>2018-07-24T06:21:54.990Z</time>
      </trkpt>
      <trkpt lat="42.455457" lon="-6.039015">
        <ele>842</ele>
        <time>2018-07-24T06:21:57.990Z</time>
      </trkpt>
      <trkpt lat="42.455477" lon="-6.039154">
        <ele>842</ele>
        <time>2018-07-24T06:22:00.990Z</time>
      </trkpt>
      <trkpt lat="42.455497" lon="-6.039292">
        <ele>842</ele>
        <time>2018-07-24T06:22:04.000Z</time>
      </trkpt>
      <trkpt lat="42.455517" lon="-6.039439">
        <ele>842</ele>
        <time>2018-07-24T06:22:06.990Z</time>
      </trkpt>
      <trkpt lat="42.455532" lon="-6.039568">
        <ele>842</ele>
        <time>2018-07-24T06:22:10.000Z</time>
      </trkpt>
      <trkpt lat="42.455553" lon="-6.039708">
        <ele>842</ele>
        <time>2018-07-24T06:22:13.000Z</time>
      </trkpt>
      <trkpt lat="42.455573" lon="-6.039842">
        <ele>842</ele>
        <time>2018-07-24T06:22:16.000Z</time>
      </trkpt>
      <trkpt lat="42.455592" lon="-6.039986">
        <ele>842</ele>
        <time>2018-07-24T06:22:19.000Z</time>
      </trkpt>
      <trkpt lat="42.455614" lon="-6.040119">
        <ele>842</ele>
        <time>2018-07-24T06:22:22.000Z</time>
      </trkpt>
      <trkpt lat="42.455636" lon="-6.040266">
        <ele>842</ele>
        <time>2018-07-24T06:22:25.000Z</time>
      </trkpt>
      <trkpt lat="42.455656" lon="-6.040416">
        <ele>842</ele>
        <time>2018-07-24T06:22:28.000Z</time>
      </trkpt>
      <trkpt lat="42.455677" lon="-6.040564">
        <ele>842</ele>
        <time>2018-07-24T06:22:31.000Z</time>
      </trkpt>
      <trkpt lat="42.455696" lon="-6.040704">
        <ele>842</ele>
        <time>2018-07-24T06:22:34.000Z</time>
      </trkpt>
      <trkpt lat="42.455715" lon="-6.040853">
        <ele>842</ele>
        <time>2018-07-24T06:22:37.000Z</time>
      </trkpt>
      <trkpt lat="42.455734" lon="-6.041008">
        <ele>842</ele>
        <time>2018-07-24T06:22:40.000Z</time>
      </trkpt>
      <trkpt lat="42.455748" lon="-6.041156">
        <ele>842</ele>
        <time>2018-07-24T06:22:43.000Z</time>
      </trkpt>
      <trkpt lat="42.455769" lon="-6.041296">
        <ele>843</ele>
        <time>2018-07-24T06:22:46.000Z</time>
      </trkpt>
      <trkpt lat="42.455794" lon="-6.041473">
        <ele>843</ele>
        <time>2018-07-24T06:22:49.000Z</time>
      </trkpt>
      <trkpt lat="42.455816" lon="-6.041614">
        <ele>843</ele>
        <time>2018-07-24T06:22:52.000Z</time>
      </trkpt>
      <trkpt lat="42.455821" lon="-6.041748">
        <ele>843</ele>
        <time>2018-07-24T06:22:54.000Z</time>
      </trkpt>
      <trkpt lat="42.455862" lon="-6.041897">
        <ele>842</ele>
        <time>2018-07-24T06:22:57.000Z</time>
      </trkpt>
      <trkpt lat="42.45589" lon="-6.04206">
        <ele>842</ele>
        <time>2018-07-24T06:23:00.000Z</time>
      </trkpt>
      <trkpt lat="42.4559" lon="-6.042214">
        <ele>842</ele>
        <time>2018-07-24T06:23:03.000Z</time>
      </trkpt>
      <trkpt lat="42.455922" lon="-6.042369">
        <ele>842</ele>
        <time>2018-07-24T06:23:05.990Z</time>
      </trkpt>
      <trkpt lat="42.455942" lon="-6.042535">
        <ele>842</ele>
        <time>2018-07-24T06:23:08.990Z</time>
      </trkpt>
      <trkpt lat="42.455934" lon="-6.042661">
        <ele>842</ele>
        <time>2018-07-24T06:23:10.990Z</time>
      </trkpt>
      <trkpt lat="42.455904" lon="-6.042835">
        <ele>843</ele>
        <time>2018-07-24T06:23:13.990Z</time>
      </trkpt>
      <trkpt lat="42.455878" lon="-6.042954">
        <ele>843</ele>
        <time>2018-07-24T06:23:15.990Z</time>
      </trkpt>
      <trkpt lat="42.455842" lon="-6.043125">
        <ele>843</ele>
        <time>2018-07-24T06:23:18.990Z</time>
      </trkpt>
      <trkpt lat="42.45581" lon="-6.043295">
        <ele>843</ele>
        <time>2018-07-24T06:23:21.990Z</time>
      </trkpt>
      <trkpt lat="42.455798" lon="-6.043438">
        <ele>843</ele>
        <time>2018-07-24T06:23:25.000Z</time>
      </trkpt>
      <trkpt lat="42.455824" lon="-6.043566">
        <ele>843</ele>
        <time>2018-07-24T06:23:27.990Z</time>
      </trkpt>
      <trkpt lat="42.455864" lon="-6.043698">
        <ele>844</ele>
        <time>2018-07-24T06:23:32.990Z</time>
      </trkpt>
      <trkpt lat="42.455904" lon="-6.04383">
        <ele>844</ele>
        <time>2018-07-24T06:23:36.990Z</time>
      </trkpt>
      <trkpt lat="42.455832" lon="-6.04394">
        <ele>843</ele>
        <time>2018-07-24T06:23:40.990Z</time>
      </trkpt>
      <trkpt lat="42.455736" lon="-6.044016">
        <ele>843</ele>
        <time>2018-07-24T06:23:43.990Z</time>
      </trkpt>
      <trkpt lat="42.455637" lon="-6.044112">
        <ele>843</ele>
        <time>2018-07-24T06:23:46.990Z</time>
      </trkpt>
      <trkpt lat="42.455534" lon="-6.04421">
        <ele>843</ele>
        <time>2018-07-24T06:23:50.000Z</time>
      </trkpt>
      <trkpt lat="42.455452" lon="-6.0443">
        <ele>843</ele>
        <time>2018-07-24T06:23:52.990Z</time>
      </trkpt>
      <trkpt lat="42.45535" lon="-6.044372">
        <ele>843</ele>
        <time>2018-07-24T06:23:55.990Z</time>
      </trkpt>
      <trkpt lat="42.45523" lon="-6.044418">
        <ele>843</ele>
        <time>2018-07-24T06:23:58.990Z</time>
      </trkpt>
      <trkpt lat="42.455112" lon="-6.044432">
        <ele>844</ele>
        <time>2018-07-24T06:24:01.990Z</time>
      </trkpt>
      <trkpt lat="42.454984" lon="-6.044437">
        <ele>844</ele>
        <time>2018-07-24T06:24:05.000Z</time>
      </trkpt>
      <trkpt lat="42.454859" lon="-6.044423">
        <ele>844</ele>
        <time>2018-07-24T06:24:07.990Z</time>
      </trkpt>
      <trkpt lat="42.454744" lon="-6.044436">
        <ele>844</ele>
        <time>2018-07-24T06:24:10.990Z</time>
      </trkpt>
      <trkpt lat="42.45469" lon="-6.044558">
        <ele>845</ele>
        <time>2018-07-24T06:24:15.990Z</time>
      </trkpt>
      <trkpt lat="42.454584" lon="-6.044569">
        <ele>845.581633186176</ele>
        <time>2018-07-24T06:24:27.990Z</time>
      </trkpt>
      <trkpt lat="42.454512" lon="-6.04449">
        <ele>847</ele>
        <time>2018-07-24T06:24:33.990Z</time>
      </trkpt>
      <trkpt lat="42.454576" lon="-6.044588">
        <ele>848</ele>
        <time>2018-07-24T06:24:42.990Z</time>
      </trkpt>
      <trkpt lat="42.454496" lon="-6.044517">
        <ele>849.405798983416</ele>
        <time>2018-07-24T06:24:53.990Z</time>
      </trkpt>
      <trkpt lat="42.454585" lon="-6.044592">
        <ele>850.422542320936</ele>
        <time>2018-07-24T06:25:03.990Z</time>
      </trkpt>
      <trkpt lat="42.454484" lon="-6.044636">
        <ele>852</ele>
        <time>2018-07-24T06:25:17.990Z</time>
      </trkpt>
      <trkpt lat="42.454385" lon="-6.044626">
        <ele>853</ele>
        <time>2018-07-24T06:25:25.000Z</time>
      </trkpt>
      <trkpt lat="42.454441" lon="-6.044747">
        <ele>851.4099968</ele>
        <time>2018-07-24T06:25:32.990Z</time>
      </trkpt>
      <trkpt lat="42.454521" lon="-6.044849">
        <ele>851</ele>
        <time>2018-07-24T06:25:35.990Z</time>
      </trkpt>
      <trkpt lat="42.454457" lon="-6.04476">
        <ele>849</ele>
        <time>2018-07-24T06:25:45.990Z</time>
      </trkpt>
      <trkpt lat="42.454386" lon="-6.044678">
        <ele>848</ele>
        <time>2018-07-24T06:25:50.000Z</time>
      </trkpt>
      <trkpt lat="42.454443" lon="-6.044795">
        <ele>848</ele>
        <time>2018-07-24T06:25:56.990Z</time>
      </trkpt>
      <trkpt lat="42.454539" lon="-6.044883">
        <ele>847</ele>
        <time>2018-07-24T06:26:00.000Z</time>
      </trkpt>
      <trkpt lat="42.454612" lon="-6.044967">
        <ele>846</ele>
        <time>2018-07-24T06:26:01.990Z</time>
      </trkpt>
      <trkpt lat="42.454659" lon="-6.045071">
        <ele>846</ele>
        <time>2018-07-24T06:26:03.990Z</time>
      </trkpt>
      <trkpt lat="42.454701" lon="-6.045208">
        <ele>846</ele>
        <time>2018-07-24T06:26:06.990Z</time>
      </trkpt>
      <trkpt lat="42.454714" lon="-6.045361">
        <ele>846</ele>
        <time>2018-07-24T06:26:10.000Z</time>
      </trkpt>
      <trkpt lat="42.454725" lon="-6.045514">
        <ele>846</ele>
        <time>2018-07-24T06:26:12.990Z</time>
      </trkpt>
      <trkpt lat="42.454742" lon="-6.045671">
        <ele>846</ele>
        <time>2018-07-24T06:26:15.990Z</time>
      </trkpt>
      <trkpt lat="42.454751" lon="-6.045836">
        <ele>846</ele>
        <time>2018-07-24T06:26:18.990Z</time>
      </trkpt>
      <trkpt lat="42.454755" lon="-6.045998">
        <ele>846</ele>
        <time>2018-07-24T06:26:21.990Z</time>
      </trkpt>
      <trkpt lat="42.454755" lon="-6.046162">
        <ele>846</ele>
        <time>2018-07-24T06:26:25.000Z</time>
      </trkpt>
      <trkpt lat="42.454767" lon="-6.046319">
        <ele>846</ele>
        <time>2018-07-24T06:26:27.990Z</time>
      </trkpt>
      <trkpt lat="42.454768" lon="-6.046479">
        <ele>846</ele>
        <time>2018-07-24T06:26:30.990Z</time>
      </trkpt>
      <trkpt lat="42.454722" lon="-6.046584">
        <ele>846</ele>
        <time>2018-07-24T06:26:33.990Z</time>
      </trkpt>
      <trkpt lat="42.454614" lon="-6.046616">
        <ele>847</ele>
        <time>2018-07-24T06:26:36.990Z</time>
      </trkpt>
      <trkpt lat="42.454492" lon="-6.046614">
        <ele>847</ele>
        <time>2018-07-24T06:26:40.000Z</time>
      </trkpt>
      <trkpt lat="42.454371" lon="-6.046552">
        <ele>847</ele>
        <time>2018-07-24T06:26:42.990Z</time>
      </trkpt>
      <trkpt lat="42.454251" lon="-6.046476">
        <ele>847</ele>
        <time>2018-07-24T06:26:45.990Z</time>
      </trkpt>
      <trkpt lat="42.454167" lon="-6.046425">
        <ele>847</ele>
        <time>2018-07-24T06:26:47.990Z</time>
      </trkpt>
      <trkpt lat="42.454075" lon="-6.046392">
        <ele>847</ele>
        <time>2018-07-24T06:26:50.000Z</time>
      </trkpt>
      <trkpt lat="42.453953" lon="-6.046406">
        <ele>847</ele>
        <time>2018-07-24T06:26:52.990Z</time>
      </trkpt>
      <trkpt lat="42.453856" lon="-6.04648">
        <ele>847</ele>
        <time>2018-07-24T06:26:55.990Z</time>
      </trkpt>
      <trkpt lat="42.453842" lon="-6.046643">
        <ele>847</ele>
        <time>2018-07-24T06:27:00.000Z</time>
      </trkpt>
      <trkpt lat="42.45391" lon="-6.046759">
        <ele>847</ele>
        <time>2018-07-24T06:27:02.990Z</time>
      </trkpt>
      <trkpt lat="42.453978" lon="-6.046874">
        <ele>847</ele>
        <time>2018-07-24T06:27:05.990Z</time>
      </trkpt>
      <trkpt lat="42.45405" lon="-6.04701">
        <ele>847</ele>
        <time>2018-07-24T06:27:08.990Z</time>
      </trkpt>
      <trkpt lat="42.454117" lon="-6.047132">
        <ele>847</ele>
        <time>2018-07-24T06:27:11.990Z</time>
      </trkpt>
      <trkpt lat="42.454189" lon="-6.047264">
        <ele>847</ele>
        <time>2018-07-24T06:27:15.000Z</time>
      </trkpt>
      <trkpt lat="42.454258" lon="-6.0474">
        <ele>847</ele>
        <time>2018-07-24T06:27:17.990Z</time>
      </trkpt>
      <trkpt lat="42.454333" lon="-6.04752">
        <ele>847</ele>
        <time>2018-07-24T06:27:20.990Z</time>
      </trkpt>
      <trkpt lat="42.45441" lon="-6.04765">
        <ele>847.5900032</ele>
        <time>2018-07-24T06:27:23.990Z</time>
      </trkpt>
      <trkpt lat="42.454494" lon="-6.047765">
        <ele>848</ele>
        <time>2018-07-24T06:27:26.990Z</time>
      </trkpt>
      <trkpt lat="42.454584" lon="-6.047865">
        <ele>848</ele>
        <time>2018-07-24T06:27:30.000Z</time>
      </trkpt>
      <trkpt lat="42.454665" lon="-6.047978">
        <ele>848</ele>
        <time>2018-07-24T06:27:32.990Z</time>
      </trkpt>
      <trkpt lat="42.454706" lon="-6.048122">
        <ele>848</ele>
        <time>2018-07-24T06:27:35.990Z</time>
      </trkpt>
      <trkpt lat="42.454678" lon="-6.048272">
        <ele>848</ele>
        <time>2018-07-24T06:27:38.990Z</time>
      </trkpt>
      <trkpt lat="42.45459" lon="-6.048369">
        <ele>848</ele>
        <time>2018-07-24T06:27:41.990Z</time>
      </trkpt>
      <trkpt lat="42.454478" lon="-6.048395">
        <ele>848</ele>
        <time>2018-07-24T06:27:45.000Z</time>
      </trkpt>
      <trkpt lat="42.45436" lon="-6.048413">
        <ele>848</ele>
        <time>2018-07-24T06:27:47.990Z</time>
      </trkpt>
      <trkpt lat="42.454243" lon="-6.048487">
        <ele>848</ele>
        <time>2018-07-24T06:27:50.990Z</time>
      </trkpt>
      <trkpt lat="42.454147" lon="-6.048603">
        <ele>848</ele>
        <time>2018-07-24T06:27:53.990Z</time>
      </trkpt>
      <trkpt lat="42.454078" lon="-6.048694">
        <ele>848</ele>
        <time>2018-07-24T06:27:55.990Z</time>
      </trkpt>
      <trkpt lat="42.454015" lon="-6.048797">
        <ele>848</ele>
        <time>2018-07-24T06:27:57.990Z</time>
      </trkpt>
      <trkpt lat="42.453956" lon="-6.048912">
        <ele>848</ele>
        <time>2018-07-24T06:28:00.000Z</time>
      </trkpt>
      <trkpt lat="42.453902" lon="-6.049027">
        <ele>847</ele>
        <time>2018-07-24T06:28:01.990Z</time>
      </trkpt>
      <trkpt lat="42.453848" lon="-6.049153">
        <ele>847</ele>
        <time>2018-07-24T06:28:03.990Z</time>
      </trkpt>
      <trkpt lat="42.453805" lon="-6.049275">
        <ele>847</ele>
        <time>2018-07-24T06:28:05.990Z</time>
      </trkpt>
      <trkpt lat="42.453772" lon="-6.049393">
        <ele>846.4099968</ele>
        <time>2018-07-24T06:28:07.990Z</time>
      </trkpt>
      <trkpt lat="42.453737" lon="-6.049507">
        <ele>847</ele>
        <time>2018-07-24T06:28:10.000Z</time>
      </trkpt>
      <trkpt lat="42.453702" lon="-6.049672">
        <ele>847</ele>
        <time>2018-07-24T06:28:12.990Z</time>
      </trkpt>
      <trkpt lat="42.45366" lon="-6.049832">
        <ele>848</ele>
        <time>2018-07-24T06:28:15.990Z</time>
      </trkpt>
      <trkpt lat="42.453627" lon="-6.049972">
        <ele>848</ele>
        <time>2018-07-24T06:28:18.990Z</time>
      </trkpt>
      <trkpt lat="42.453603" lon="-6.050088">
        <ele>849.5900032</ele>
        <time>2018-07-24T06:28:22.990Z</time>
      </trkpt>
      <trkpt lat="42.453569" lon="-6.050208">
        <ele>852</ele>
        <time>2018-07-24T06:28:28.990Z</time>
      </trkpt>
      <trkpt lat="42.453536" lon="-6.050326">
        <ele>854</ele>
        <time>2018-07-24T06:28:35.990Z</time>
      </trkpt>
      <trkpt lat="42.453443" lon="-6.050327">
        <ele>854</ele>
        <time>2018-07-24T06:28:47.990Z</time>
      </trkpt>
      <trkpt lat="42.453347" lon="-6.050308">
        <ele>854</ele>
        <time>2018-07-24T06:28:55.000Z</time>
      </trkpt>
      <trkpt lat="42.45325" lon="-6.050304">
        <ele>854</ele>
        <time>2018-07-24T06:29:00.000Z</time>
      </trkpt>
      <trkpt lat="42.45315" lon="-6.050302">
        <ele>854</ele>
        <time>2018-07-24T06:29:05.000Z</time>
      </trkpt>
      <trkpt lat="42.453" lon="-6.050303">
        <ele>854</ele>
        <time>2018-07-24T06:29:11.000Z</time>
      </trkpt>
      <trkpt lat="42.452889" lon="-6.050259">
        <ele>854</ele>
        <time>2018-07-24T06:29:14.000Z</time>
      </trkpt>
      <trkpt lat="42.452781" lon="-6.050262">
        <ele>853</ele>
        <time>2018-07-24T06:29:16.990Z</time>
      </trkpt>
      <trkpt lat="42.452848" lon="-6.050364">
        <ele>854.5900032</ele>
        <time>2018-07-24T06:29:25.990Z</time>
      </trkpt>
      <trkpt lat="42.452944" lon="-6.05039">
        <ele>856</ele>
        <time>2018-07-24T06:29:32.990Z</time>
      </trkpt>
      <trkpt lat="42.453008" lon="-6.050483">
        <ele>858</ele>
        <time>2018-07-24T06:29:40.000Z</time>
      </trkpt>
      <trkpt lat="42.453082" lon="-6.05056">
        <ele>860.43056</ele>
        <time>2018-07-24T06:29:46.990Z</time>
      </trkpt>
      <trkpt lat="42.45316" lon="-6.050656">
        <ele>863</ele>
        <time>2018-07-24T06:29:55.990Z</time>
      </trkpt>
      <trkpt lat="42.453157" lon="-6.050778">
        <ele>863</ele>
        <time>2018-07-24T06:30:02.990Z</time>
      </trkpt>
      <trkpt lat="42.453143" lon="-6.050905">
        <ele>865</ele>
        <time>2018-07-24T06:30:13.990Z</time>
      </trkpt>
      <trkpt lat="42.453104" lon="-6.051038">
        <ele>867</ele>
        <time>2018-07-24T06:30:20.990Z</time>
      </trkpt>
      <trkpt lat="42.453053" lon="-6.05115">
        <ele>868</ele>
        <time>2018-07-24T06:30:27.990Z</time>
      </trkpt>
      <trkpt lat="42.453071" lon="-6.051292">
        <ele>868</ele>
        <time>2018-07-24T06:30:34.990Z</time>
      </trkpt>
      <trkpt lat="42.453102" lon="-6.051423">
        <ele>869</ele>
        <time>2018-07-24T06:30:40.990Z</time>
      </trkpt>
      <trkpt lat="42.453181" lon="-6.051493">
        <ele>870</ele>
        <time>2018-07-24T06:30:45.990Z</time>
      </trkpt>
      <trkpt lat="42.453252" lon="-6.051569">
        <ele>870</ele>
        <time>2018-07-24T06:30:49.990Z</time>
      </trkpt>
      <trkpt lat="42.453308" lon="-6.051683">
        <ele>870</ele>
        <time>2018-07-24T06:30:54.990Z</time>
      </trkpt>
      <trkpt lat="42.453391" lon="-6.051757">
        <ele>870</ele>
        <time>2018-07-24T06:30:57.990Z</time>
      </trkpt>
      <trkpt lat="42.45347" lon="-6.051846">
        <ele>870</ele>
        <time>2018-07-24T06:31:00.990Z</time>
      </trkpt>
      <trkpt lat="42.453547" lon="-6.051928">
        <ele>870.457367956262</ele>
        <time>2018-07-24T06:31:03.990Z</time>
      </trkpt>
      <trkpt lat="42.453626" lon="-6.051989">
        <ele>871</ele>
        <time>2018-07-24T06:31:05.990Z</time>
      </trkpt>
      <trkpt lat="42.453721" lon="-6.05207">
        <ele>871</ele>
        <time>2018-07-24T06:31:08.990Z</time>
      </trkpt>
      <trkpt lat="42.453793" lon="-6.052175">
        <ele>871</ele>
        <time>2018-07-24T06:31:12.000Z</time>
      </trkpt>
      <trkpt lat="42.453873" lon="-6.052283">
        <ele>871</ele>
        <time>2018-07-24T06:31:14.990Z</time>
      </trkpt>
      <trkpt lat="42.453959" lon="-6.052351">
        <ele>871</ele>
        <time>2018-07-24T06:31:17.990Z</time>
      </trkpt>
      <trkpt lat="42.454015" lon="-6.052456">
        <ele>871</ele>
        <time>2018-07-24T06:31:22.000Z</time>
      </trkpt>
      <trkpt lat="42.454079" lon="-6.052578">
        <ele>872</ele>
        <time>2018-07-24T06:31:28.000Z</time>
      </trkpt>
      <trkpt lat="42.454146" lon="-6.052696">
        <ele>872</ele>
        <time>2018-07-24T06:31:34.000Z</time>
      </trkpt>
      <trkpt lat="42.454161" lon="-6.052818">
        <ele>871</ele>
        <time>2018-07-24T06:31:54.000Z</time>
      </trkpt>
      <trkpt lat="42.454136" lon="-6.052953">
        <ele>871</ele>
        <time>2018-07-24T06:31:57.990Z</time>
      </trkpt>
      <trkpt lat="42.454112" lon="-6.05309">
        <ele>871</ele>
        <time>2018-07-24T06:32:00.990Z</time>
      </trkpt>
      <trkpt lat="42.454032" lon="-6.05316">
        <ele>871</ele>
        <time>2018-07-24T06:32:13.000Z</time>
      </trkpt>
      <trkpt lat="42.45394" lon="-6.053218">
        <ele>871</ele>
        <time>2018-07-24T06:32:16.000Z</time>
      </trkpt>
      <trkpt lat="42.453884" lon="-6.053336">
        <ele>870</ele>
        <time>2018-07-24T06:32:20.000Z</time>
      </trkpt>
      <trkpt lat="42.453868" lon="-6.053468">
        <ele>870</ele>
        <time>2018-07-24T06:32:24.000Z</time>
      </trkpt>
      <trkpt lat="42.453832" lon="-6.053617">
        <ele>871</ele>
        <time>2018-07-24T06:32:29.000Z</time>
      </trkpt>
      <trkpt lat="42.4539" lon="-6.053752">
        <ele>871</ele>
        <time>2018-07-24T06:32:34.000Z</time>
      </trkpt>
      <trkpt lat="42.454015" lon="-6.053825">
        <ele>871</ele>
        <time>2018-07-24T06:32:38.000Z</time>
      </trkpt>
      <trkpt lat="42.454092" lon="-6.053904">
        <ele>872</ele>
        <time>2018-07-24T06:32:42.000Z</time>
      </trkpt>
      <trkpt lat="42.454182" lon="-6.053964">
        <ele>872</ele>
        <time>2018-07-24T06:32:45.000Z</time>
      </trkpt>
      <trkpt lat="42.454286" lon="-6.054001">
        <ele>872</ele>
        <time>2018-07-24T06:32:49.000Z</time>
      </trkpt>
      <trkpt lat="42.454398" lon="-6.054041">
        <ele>872</ele>
        <time>2018-07-24T06:32:53.000Z</time>
      </trkpt>
      <trkpt lat="42.45449" lon="-6.05408">
        <ele>872</ele>
        <time>2018-07-24T06:32:57.000Z</time>
      </trkpt>
      <trkpt lat="42.454596" lon="-6.054178">
        <ele>871</ele>
        <time>2018-07-24T06:33:02.000Z</time>
      </trkpt>
      <trkpt lat="42.454686" lon="-6.054255">
        <ele>872</ele>
        <time>2018-07-24T06:33:05.000Z</time>
      </trkpt>
      <trkpt lat="42.454799" lon="-6.05431">
        <ele>872</ele>
        <time>2018-07-24T06:33:08.000Z</time>
      </trkpt>
      <trkpt lat="42.454892" lon="-6.054407">
        <ele>872</ele>
        <time>2018-07-24T06:33:11.000Z</time>
      </trkpt>
      <trkpt lat="42.454971" lon="-6.054485">
        <ele>872</ele>
        <time>2018-07-24T06:33:14.000Z</time>
      </trkpt>
      <trkpt lat="42.455072" lon="-6.054577">
        <ele>872</ele>
        <time>2018-07-24T06:33:17.000Z</time>
      </trkpt>
      <trkpt lat="42.455118" lon="-6.054729">
        <ele>872</ele>
        <time>2018-07-24T06:33:19.990Z</time>
      </trkpt>
      <trkpt lat="42.455196" lon="-6.054817">
        <ele>872</ele>
        <time>2018-07-24T06:33:23.000Z</time>
      </trkpt>
      <trkpt lat="42.45527" lon="-6.054934">
        <ele>872</ele>
        <time>2018-07-24T06:33:25.990Z</time>
      </trkpt>
      <trkpt lat="42.455318" lon="-6.055097">
        <ele>872</ele>
        <time>2018-07-24T06:33:31.000Z</time>
      </trkpt>
      <trkpt lat="42.455377" lon="-6.055211">
        <ele>873</ele>
        <time>2018-07-24T06:33:33.000Z</time>
      </trkpt>
      <trkpt lat="42.455454" lon="-6.055282">
        <ele>873</ele>
        <time>2018-07-24T06:33:37.990Z</time>
      </trkpt>
      <trkpt lat="42.455521" lon="-6.055385">
        <ele>873</ele>
        <time>2018-07-24T06:33:41.990Z</time>
      </trkpt>
      <trkpt lat="42.455596" lon="-6.055479">
        <ele>873</ele>
        <time>2018-07-24T06:33:45.000Z</time>
      </trkpt>
      <trkpt lat="42.455662" lon="-6.055609">
        <ele>873</ele>
        <time>2018-07-24T06:33:47.990Z</time>
      </trkpt>
      <trkpt lat="42.455738" lon="-6.055688">
        <ele>873</ele>
        <time>2018-07-24T06:33:50.990Z</time>
      </trkpt>
      <trkpt lat="42.45581" lon="-6.055784">
        <ele>873</ele>
        <time>2018-07-24T06:33:53.990Z</time>
      </trkpt>
      <trkpt lat="42.4559" lon="-6.055906">
        <ele>873</ele>
        <time>2018-07-24T06:33:56.990Z</time>
      </trkpt>
      <trkpt lat="42.455957" lon="-6.056033">
        <ele>873</ele>
        <time>2018-07-24T06:33:58.990Z</time>
      </trkpt>
      <trkpt lat="42.456" lon="-6.056152">
        <ele>873</ele>
        <time>2018-07-24T06:34:00.990Z</time>
      </trkpt>
      <trkpt lat="42.456057" lon="-6.056247">
        <ele>873</ele>
        <time>2018-07-24T06:34:02.990Z</time>
      </trkpt>
      <trkpt lat="42.456116" lon="-6.056407">
        <ele>873</ele>
        <time>2018-07-24T06:34:05.990Z</time>
      </trkpt>
      <trkpt lat="42.456155" lon="-6.05655">
        <ele>873</ele>
        <time>2018-07-24T06:34:08.990Z</time>
      </trkpt>
      <trkpt lat="42.456229" lon="-6.05666">
        <ele>874</ele>
        <time>2018-07-24T06:34:12.990Z</time>
      </trkpt>
      <trkpt lat="42.456326" lon="-6.056669">
        <ele>874</ele>
        <time>2018-07-24T06:34:23.000Z</time>
      </trkpt>
      <trkpt lat="42.456452" lon="-6.056636">
        <ele>873</ele>
        <time>2018-07-24T06:34:27.000Z</time>
      </trkpt>
      <trkpt lat="42.456558" lon="-6.056647">
        <ele>873</ele>
        <time>2018-07-24T06:34:29.000Z</time>
      </trkpt>
      <trkpt lat="42.456675" lon="-6.056693">
        <ele>874</ele>
        <time>2018-07-24T06:34:32.000Z</time>
      </trkpt>
      <trkpt lat="42.456809" lon="-6.056708">
        <ele>874</ele>
        <time>2018-07-24T06:34:34.990Z</time>
      </trkpt>
      <trkpt lat="42.456911" lon="-6.056685">
        <ele>874</ele>
        <time>2018-07-24T06:34:37.990Z</time>
      </trkpt>
      <trkpt lat="42.457023" lon="-6.056738">
        <ele>874</ele>
        <time>2018-07-24T06:34:42.000Z</time>
      </trkpt>
      <trkpt lat="42.457114" lon="-6.056713">
        <ele>874</ele>
        <time>2018-07-24T06:34:45.000Z</time>
      </trkpt>
      <trkpt lat="42.457199" lon="-6.056609">
        <ele>874</ele>
        <time>2018-07-24T06:34:48.000Z</time>
      </trkpt>
      <trkpt lat="42.457292" lon="-6.05651">
        <ele>874</ele>
        <time>2018-07-24T06:34:51.000Z</time>
      </trkpt>
      <trkpt lat="42.45738" lon="-6.056445">
        <ele>873</ele>
        <time>2018-07-24T06:34:54.000Z</time>
      </trkpt>
      <trkpt lat="42.457361" lon="-6.056316">
        <ele>875</ele>
        <time>2018-07-24T06:36:23.000Z</time>
      </trkpt>
      <trkpt lat="42.457385" lon="-6.056443">
        <ele>874</ele>
        <time>2018-07-24T06:37:04.990Z</time>
      </trkpt>
      <trkpt lat="42.457391" lon="-6.056579">
        <ele>874</ele>
        <time>2018-07-24T06:37:10.990Z</time>
      </trkpt>
      <trkpt lat="42.457454" lon="-6.056697">
        <ele>874.428566204034</ele>
        <time>2018-07-24T06:37:15.000Z</time>
      </trkpt>
      <trkpt lat="42.457474" lon="-6.056831">
        <ele>875</ele>
        <time>2018-07-24T06:37:20.000Z</time>
      </trkpt>
      <trkpt lat="42.457423" lon="-6.056945">
        <ele>875</ele>
        <time>2018-07-24T06:37:25.000Z</time>
      </trkpt>
      <trkpt lat="42.45744" lon="-6.057081">
        <ele>875</ele>
        <time>2018-07-24T06:37:30.000Z</time>
      </trkpt>
      <trkpt lat="42.457432" lon="-6.057203">
        <ele>875</ele>
        <time>2018-07-24T06:37:40.000Z</time>
      </trkpt>
      <trkpt lat="42.457343" lon="-6.057254">
        <ele>875</ele>
        <time>2018-07-24T06:38:19.000Z</time>
      </trkpt>
      <trkpt lat="42.457265" lon="-6.05735">
        <ele>875</ele>
        <time>2018-07-24T06:38:24.000Z</time>
      </trkpt>
      <trkpt lat="42.457182" lon="-6.057459">
        <ele>875</ele>
        <time>2018-07-24T06:38:31.000Z</time>
      </trkpt>
      <trkpt lat="42.457118" lon="-6.05757">
        <ele>875.6</ele>
        <time>2018-07-24T06:38:35.000Z</time>
      </trkpt>
      <trkpt lat="42.45704" lon="-6.05766">
        <ele>876</ele>
        <time>2018-07-24T06:38:40.990Z</time>
      </trkpt>
      <trkpt lat="42.45696" lon="-6.057723">
        <ele>876</ele>
        <time>2018-07-24T06:38:45.000Z</time>
      </trkpt>
      <trkpt lat="42.456854" lon="-6.057834">
        <ele>876</ele>
        <time>2018-07-24T06:38:48.000Z</time>
      </trkpt>
      <trkpt lat="42.456724" lon="-6.057978">
        <ele>876</ele>
        <time>2018-07-24T06:38:53.000Z</time>
      </trkpt>
      <trkpt lat="42.456613" lon="-6.058066">
        <ele>876</ele>
        <time>2018-07-24T06:38:56.000Z</time>
      </trkpt>
      <trkpt lat="42.45652" lon="-6.058124">
        <ele>875</ele>
        <time>2018-07-24T06:38:59.000Z</time>
      </trkpt>
      <trkpt lat="42.456489" lon="-6.058258">
        <ele>875</ele>
        <time>2018-07-24T06:39:02.990Z</time>
      </trkpt>
      <trkpt lat="42.45654" lon="-6.058395">
        <ele>875</ele>
        <time>2018-07-24T06:39:06.990Z</time>
      </trkpt>
      <trkpt lat="42.456614" lon="-6.058537">
        <ele>875</ele>
        <time>2018-07-24T06:39:10.000Z</time>
      </trkpt>
      <trkpt lat="42.456669" lon="-6.058679">
        <ele>875</ele>
        <time>2018-07-24T06:39:12.990Z</time>
      </trkpt>
      <trkpt lat="42.456712" lon="-6.058787">
        <ele>875</ele>
        <time>2018-07-24T06:39:15.000Z</time>
      </trkpt>
      <trkpt lat="42.456787" lon="-6.058918">
        <ele>875</ele>
        <time>2018-07-24T06:39:17.990Z</time>
      </trkpt>
      <trkpt lat="42.456847" lon="-6.059057">
        <ele>876</ele>
        <time>2018-07-24T06:39:20.990Z</time>
      </trkpt>
      <trkpt lat="42.456906" lon="-6.059192">
        <ele>876</ele>
        <time>2018-07-24T06:39:23.990Z</time>
      </trkpt>
      <trkpt lat="42.456972" lon="-6.059302">
        <ele>876</ele>
        <time>2018-07-24T06:39:26.990Z</time>
      </trkpt>
      <trkpt lat="42.457048" lon="-6.059424">
        <ele>876</ele>
        <time>2018-07-24T06:39:30.000Z</time>
      </trkpt>
      <trkpt lat="42.457145" lon="-6.059545">
        <ele>876.5900032</ele>
        <time>2018-07-24T06:39:32.990Z</time>
      </trkpt>
      <trkpt lat="42.457222" lon="-6.059647">
        <ele>877</ele>
        <time>2018-07-24T06:39:35.990Z</time>
      </trkpt>
      <trkpt lat="42.457299" lon="-6.059765">
        <ele>877</ele>
        <time>2018-07-24T06:39:38.990Z</time>
      </trkpt>
      <trkpt lat="42.457398" lon="-6.059855">
        <ele>878</ele>
        <time>2018-07-24T06:39:41.990Z</time>
      </trkpt>
      <trkpt lat="42.457448" lon="-6.059983">
        <ele>878</ele>
        <time>2018-07-24T06:39:45.000Z</time>
      </trkpt>
      <trkpt lat="42.457514" lon="-6.060102">
        <ele>878</ele>
        <time>2018-07-24T06:39:47.990Z</time>
      </trkpt>
      <trkpt lat="42.457581" lon="-6.060207">
        <ele>879</ele>
        <time>2018-07-24T06:39:50.990Z</time>
      </trkpt>
      <trkpt lat="42.457625" lon="-6.060316">
        <ele>879</ele>
        <time>2018-07-24T06:39:53.990Z</time>
      </trkpt>
      <trkpt lat="42.457696" lon="-6.060427">
        <ele>879.414284930605</ele>
        <time>2018-07-24T06:39:56.990Z</time>
      </trkpt>
      <trkpt lat="42.457768" lon="-6.06056">
        <ele>880</ele>
        <time>2018-07-24T06:40:00.000Z</time>
      </trkpt>
      <trkpt lat="42.457842" lon="-6.060693">
        <ele>880</ele>
        <time>2018-07-24T06:40:02.990Z</time>
      </trkpt>
      <trkpt lat="42.45793" lon="-6.060796">
        <ele>880</ele>
        <time>2018-07-24T06:40:05.990Z</time>
      </trkpt>
      <trkpt lat="42.458004" lon="-6.060894">
        <ele>880</ele>
        <time>2018-07-24T06:40:08.990Z</time>
      </trkpt>
      <trkpt lat="42.458072" lon="-6.061011">
        <ele>880</ele>
        <time>2018-07-24T06:40:11.990Z</time>
      </trkpt>
      <trkpt lat="42.458154" lon="-6.061127">
        <ele>880</ele>
        <time>2018-07-24T06:40:15.000Z</time>
      </trkpt>
      <trkpt lat="42.458238" lon="-6.06123">
        <ele>880</ele>
        <time>2018-07-24T06:40:17.990Z</time>
      </trkpt>
      <trkpt lat="42.458304" lon="-6.061316">
        <ele>880</ele>
        <time>2018-07-24T06:40:20.000Z</time>
      </trkpt>
      <trkpt lat="42.458371" lon="-6.06141">
        <ele>880</ele>
        <time>2018-07-24T06:40:21.990Z</time>
      </trkpt>
      <trkpt lat="42.45843" lon="-6.061503">
        <ele>880</ele>
        <time>2018-07-24T06:40:23.990Z</time>
      </trkpt>
      <trkpt lat="42.458502" lon="-6.061646">
        <ele>880</ele>
        <time>2018-07-24T06:40:26.990Z</time>
      </trkpt>
      <trkpt lat="42.458588" lon="-6.061764">
        <ele>881</ele>
        <time>2018-07-24T06:40:30.000Z</time>
      </trkpt>
      <trkpt lat="42.458662" lon="-6.061832">
        <ele>881</ele>
        <time>2018-07-24T06:40:31.990Z</time>
      </trkpt>
      <trkpt lat="42.45874" lon="-6.061976">
        <ele>881</ele>
        <time>2018-07-24T06:40:35.000Z</time>
      </trkpt>
      <trkpt lat="42.458806" lon="-6.062111">
        <ele>881</ele>
        <time>2018-07-24T06:40:37.990Z</time>
      </trkpt>
      <trkpt lat="42.458859" lon="-6.062251">
        <ele>881</ele>
        <time>2018-07-24T06:40:40.990Z</time>
      </trkpt>
      <trkpt lat="42.458892" lon="-6.062389">
        <ele>881</ele>
        <time>2018-07-24T06:40:43.990Z</time>
      </trkpt>
      <trkpt lat="42.458882" lon="-6.06256">
        <ele>881</ele>
        <time>2018-07-24T06:40:46.990Z</time>
      </trkpt>
      <trkpt lat="42.45889" lon="-6.062684">
        <ele>881</ele>
        <time>2018-07-24T06:40:48.990Z</time>
      </trkpt>
      <trkpt lat="42.458938" lon="-6.062864">
        <ele>881</ele>
        <time>2018-07-24T06:40:52.100Z</time>
      </trkpt>
      <trkpt lat="42.458908" lon="-6.063034">
        <ele>881</ele>
        <time>2018-07-24T06:40:54.000Z</time>
      </trkpt>
      <trkpt lat="42.458882" lon="-6.063197">
        <ele>881</ele>
        <time>2018-07-24T06:40:56.990Z</time>
      </trkpt>
      <trkpt lat="42.45889" lon="-6.063356">
        <ele>881</ele>
        <time>2018-07-24T06:40:59.990Z</time>
      </trkpt>
      <trkpt lat="42.458888" lon="-6.06349">
        <ele>881</ele>
        <time>2018-07-24T06:41:03.990Z</time>
      </trkpt>
      <trkpt lat="42.458867" lon="-6.063634">
        <ele>881</ele>
        <time>2018-07-24T06:41:07.990Z</time>
      </trkpt>
      <trkpt lat="42.458824" lon="-6.06376">
        <ele>881</ele>
        <time>2018-07-24T06:41:11.000Z</time>
      </trkpt>
      <trkpt lat="42.458782" lon="-6.063878">
        <ele>881</ele>
        <time>2018-07-24T06:41:13.990Z</time>
      </trkpt>
      <trkpt lat="42.458738" lon="-6.06401">
        <ele>881</ele>
        <time>2018-07-24T06:41:16.990Z</time>
      </trkpt>
      <trkpt lat="42.458705" lon="-6.064162">
        <ele>881</ele>
        <time>2018-07-24T06:41:19.990Z</time>
      </trkpt>
      <trkpt lat="42.458667" lon="-6.064329">
        <ele>881</ele>
        <time>2018-07-24T06:41:22.990Z</time>
      </trkpt>
      <trkpt lat="42.458636" lon="-6.064516">
        <ele>881</ele>
        <time>2018-07-24T06:41:26.000Z</time>
      </trkpt>
      <trkpt lat="42.458612" lon="-6.064664">
        <ele>880.4099968</ele>
        <time>2018-07-24T06:41:27.990Z</time>
      </trkpt>
      <trkpt lat="42.458593" lon="-6.064831">
        <ele>879.4099968</ele>
        <time>2018-07-24T06:41:29.990Z</time>
      </trkpt>
      <trkpt lat="42.458586" lon="-6.065012">
        <ele>878.024539829124</ele>
        <time>2018-07-24T06:41:31.990Z</time>
      </trkpt>
      <trkpt lat="42.45859" lon="-6.06521">
        <ele>877.4099968</ele>
        <time>2018-07-24T06:41:33.990Z</time>
      </trkpt>
      <trkpt lat="42.458597" lon="-6.065418">
        <ele>876</ele>
        <time>2018-07-24T06:41:36.000Z</time>
      </trkpt>
      <trkpt lat="42.458599" lon="-6.065636">
        <ele>874.611932599725</ele>
        <time>2018-07-24T06:41:37.990Z</time>
      </trkpt>
      <trkpt lat="42.458609" lon="-6.065859">
        <ele>874</ele>
        <time>2018-07-24T06:41:39.990Z</time>
      </trkpt>
      <trkpt lat="42.458612" lon="-6.066086">
        <ele>873</ele>
        <time>2018-07-24T06:41:41.990Z</time>
      </trkpt>
      <trkpt lat="42.458616" lon="-6.066318">
        <ele>872</ele>
        <time>2018-07-24T06:41:43.990Z</time>
      </trkpt>
      <trkpt lat="42.458621" lon="-6.066552">
        <ele>871.4</ele>
        <time>2018-07-24T06:41:46.000Z</time>
      </trkpt>
      <trkpt lat="42.458631" lon="-6.066787">
        <ele>871</ele>
        <time>2018-07-24T06:41:47.990Z</time>
      </trkpt>
      <trkpt lat="42.45864" lon="-6.067021">
        <ele>870.724488329872</ele>
        <time>2018-07-24T06:41:49.990Z</time>
      </trkpt>
      <trkpt lat="42.458646" lon="-6.067249">
        <ele>869</ele>
        <time>2018-07-24T06:41:51.990Z</time>
      </trkpt>
      <trkpt lat="42.458655" lon="-6.067472">
        <ele>869</ele>
        <time>2018-07-24T06:41:53.990Z</time>
      </trkpt>
      <trkpt lat="42.458664" lon="-6.067693">
        <ele>869</ele>
        <time>2018-07-24T06:41:56.000Z</time>
      </trkpt>
      <trkpt lat="42.458674" lon="-6.067909">
        <ele>869</ele>
        <time>2018-07-24T06:41:57.990Z</time>
      </trkpt>
      <trkpt lat="42.458685" lon="-6.068108">
        <ele>869</ele>
        <time>2018-07-24T06:41:59.990Z</time>
      </trkpt>
      <trkpt lat="42.458692" lon="-6.068291">
        <ele>869</ele>
        <time>2018-07-24T06:42:01.990Z</time>
      </trkpt>
      <trkpt lat="42.45871" lon="-6.068485">
        <ele>868.4099968</ele>
        <time>2018-07-24T06:42:03.990Z</time>
      </trkpt>
      <trkpt lat="42.458734" lon="-6.068686">
        <ele>867.4</ele>
        <time>2018-07-24T06:42:06.000Z</time>
      </trkpt>
      <trkpt lat="42.458759" lon="-6.068885">
        <ele>867</ele>
        <time>2018-07-24T06:42:07.990Z</time>
      </trkpt>
      <trkpt lat="42.458779" lon="-6.069093">
        <ele>867</ele>
        <time>2018-07-24T06:42:09.990Z</time>
      </trkpt>
      <trkpt lat="42.458803" lon="-6.069296">
        <ele>866.4099968</ele>
        <time>2018-07-24T06:42:11.990Z</time>
      </trkpt>
      <trkpt lat="42.458833" lon="-6.069489">
        <ele>866</ele>
        <time>2018-07-24T06:42:13.990Z</time>
      </trkpt>
      <trkpt lat="42.458859" lon="-6.069679">
        <ele>865</ele>
        <time>2018-07-24T06:42:16.000Z</time>
      </trkpt>
      <trkpt lat="42.458886" lon="-6.069879">
        <ele>865.5900032</ele>
        <time>2018-07-24T06:42:17.990Z</time>
      </trkpt>
      <trkpt lat="42.458913" lon="-6.070075">
        <ele>866</ele>
        <time>2018-07-24T06:42:19.990Z</time>
      </trkpt>
      <trkpt lat="42.458942" lon="-6.070268">
        <ele>865</ele>
        <time>2018-07-24T06:42:21.990Z</time>
      </trkpt>
      <trkpt lat="42.458973" lon="-6.070468">
        <ele>865</ele>
        <time>2018-07-24T06:42:23.990Z</time>
      </trkpt>
      <trkpt lat="42.459001" lon="-6.070654">
        <ele>865</ele>
        <time>2018-07-24T06:42:26.000Z</time>
      </trkpt>
      <trkpt lat="42.459019" lon="-6.070841">
        <ele>865</ele>
        <time>2018-07-24T06:42:27.990Z</time>
      </trkpt>
      <trkpt lat="42.459035" lon="-6.071035">
        <ele>865</ele>
        <time>2018-07-24T06:42:29.990Z</time>
      </trkpt>
      <trkpt lat="42.459055" lon="-6.071234">
        <ele>864</ele>
        <time>2018-07-24T06:42:31.990Z</time>
      </trkpt>
      <trkpt lat="42.459078" lon="-6.071421">
        <ele>864.5900032</ele>
        <time>2018-07-24T06:42:33.990Z</time>
      </trkpt>
      <trkpt lat="42.459105" lon="-6.071608">
        <ele>865</ele>
        <time>2018-07-24T06:42:36.000Z</time>
      </trkpt>
      <trkpt lat="42.459135" lon="-6.071792">
        <ele>864</ele>
        <time>2018-07-24T06:42:37.990Z</time>
      </trkpt>
      <trkpt lat="42.459166" lon="-6.071961">
        <ele>864</ele>
        <time>2018-07-24T06:42:39.990Z</time>
      </trkpt>
      <trkpt lat="42.4592" lon="-6.072135">
        <ele>864</ele>
        <time>2018-07-24T06:42:41.990Z</time>
      </trkpt>
      <trkpt lat="42.459233" lon="-6.072304">
        <ele>864</ele>
        <time>2018-07-24T06:42:43.990Z</time>
      </trkpt>
      <trkpt lat="42.459257" lon="-6.07247">
        <ele>864</ele>
        <time>2018-07-24T06:42:46.000Z</time>
      </trkpt>
      <trkpt lat="42.459291" lon="-6.07263">
        <ele>864</ele>
        <time>2018-07-24T06:42:47.990Z</time>
      </trkpt>
      <trkpt lat="42.459317" lon="-6.07279">
        <ele>864</ele>
        <time>2018-07-24T06:42:49.990Z</time>
      </trkpt>
      <trkpt lat="42.459344" lon="-6.072947">
        <ele>864</ele>
        <time>2018-07-24T06:42:51.990Z</time>
      </trkpt>
      <trkpt lat="42.45935" lon="-6.073108">
        <ele>864</ele>
        <time>2018-07-24T06:42:53.990Z</time>
      </trkpt>
      <trkpt lat="42.459365" lon="-6.073259">
        <ele>864</ele>
        <time>2018-07-24T06:42:56.000Z</time>
      </trkpt>
      <trkpt lat="42.459371" lon="-6.073411">
        <ele>864</ele>
        <time>2018-07-24T06:42:57.990Z</time>
      </trkpt>
      <trkpt lat="42.459372" lon="-6.073569">
        <ele>864</ele>
        <time>2018-07-24T06:42:59.990Z</time>
      </trkpt>
      <trkpt lat="42.459365" lon="-6.073728">
        <ele>864</ele>
        <time>2018-07-24T06:43:01.990Z</time>
      </trkpt>
      <trkpt lat="42.459351" lon="-6.073892">
        <ele>864</ele>
        <time>2018-07-24T06:43:03.990Z</time>
      </trkpt>
      <trkpt lat="42.459339" lon="-6.074054">
        <ele>864.46153618936</ele>
        <time>2018-07-24T06:43:06.000Z</time>
      </trkpt>
      <trkpt lat="42.459331" lon="-6.074218">
        <ele>865</ele>
        <time>2018-07-24T06:43:08.000Z</time>
      </trkpt>
      <trkpt lat="42.459315" lon="-6.074379">
        <ele>865</ele>
        <time>2018-07-24T06:43:10.000Z</time>
      </trkpt>
      <trkpt lat="42.459299" lon="-6.074543">
        <ele>865</ele>
        <time>2018-07-24T06:43:12.000Z</time>
      </trkpt>
      <trkpt lat="42.459278" lon="-6.074696">
        <ele>865</ele>
        <time>2018-07-24T06:43:14.000Z</time>
      </trkpt>
      <trkpt lat="42.459262" lon="-6.074851">
        <ele>865</ele>
        <time>2018-07-24T06:43:16.000Z</time>
      </trkpt>
      <trkpt lat="42.459248" lon="-6.075005">
        <ele>865</ele>
        <time>2018-07-24T06:43:18.000Z</time>
      </trkpt>
      <trkpt lat="42.459229" lon="-6.075155">
        <ele>865</ele>
        <time>2018-07-24T06:43:20.000Z</time>
      </trkpt>
      <trkpt lat="42.459212" lon="-6.075304">
        <ele>865</ele>
        <time>2018-07-24T06:43:22.000Z</time>
      </trkpt>
      <trkpt lat="42.459199" lon="-6.075449">
        <ele>865</ele>
        <time>2018-07-24T06:43:24.000Z</time>
      </trkpt>
      <trkpt lat="42.459187" lon="-6.075591">
        <ele>865</ele>
        <time>2018-07-24T06:43:26.000Z</time>
      </trkpt>
      <trkpt lat="42.459178" lon="-6.075734">
        <ele>865</ele>
        <time>2018-07-24T06:43:28.000Z</time>
      </trkpt>
      <trkpt lat="42.45917" lon="-6.075881">
        <ele>865</ele>
        <time>2018-07-24T06:43:30.000Z</time>
      </trkpt>
      <trkpt lat="42.459164" lon="-6.07603">
        <ele>865</ele>
        <time>2018-07-24T06:43:31.990Z</time>
      </trkpt>
      <trkpt lat="42.459157" lon="-6.076182">
        <ele>866</ele>
        <time>2018-07-24T06:43:33.990Z</time>
      </trkpt>
      <trkpt lat="42.459155" lon="-6.076333">
        <ele>866</ele>
        <time>2018-07-24T06:43:36.000Z</time>
      </trkpt>
      <trkpt lat="42.459155" lon="-6.076478">
        <ele>866</ele>
        <time>2018-07-24T06:43:37.990Z</time>
      </trkpt>
      <trkpt lat="42.459156" lon="-6.076625">
        <ele>866</ele>
        <time>2018-07-24T06:43:39.990Z</time>
      </trkpt>
      <trkpt lat="42.459161" lon="-6.076772">
        <ele>866</ele>
        <time>2018-07-24T06:43:41.990Z</time>
      </trkpt>
      <trkpt lat="42.45916" lon="-6.076916">
        <ele>866</ele>
        <time>2018-07-24T06:43:43.990Z</time>
      </trkpt>
      <trkpt lat="42.459161" lon="-6.077059">
        <ele>866</ele>
        <time>2018-07-24T06:43:46.000Z</time>
      </trkpt>
      <trkpt lat="42.459158" lon="-6.0772">
        <ele>866</ele>
        <time>2018-07-24T06:43:47.990Z</time>
      </trkpt>
      <trkpt lat="42.459165" lon="-6.07735">
        <ele>866</ele>
        <time>2018-07-24T06:43:49.990Z</time>
      </trkpt>
      <trkpt lat="42.459161" lon="-6.077497">
        <ele>866</ele>
        <time>2018-07-24T06:43:51.990Z</time>
      </trkpt>
      <trkpt lat="42.459167" lon="-6.077644">
        <ele>866</ele>
        <time>2018-07-24T06:43:53.990Z</time>
      </trkpt>
      <trkpt lat="42.459166" lon="-6.077799">
        <ele>866</ele>
        <time>2018-07-24T06:43:56.000Z</time>
      </trkpt>
      <trkpt lat="42.459168" lon="-6.077949">
        <ele>866</ele>
        <time>2018-07-24T06:43:57.990Z</time>
      </trkpt>
      <trkpt lat="42.459161" lon="-6.078102">
        <ele>866</ele>
        <time>2018-07-24T06:43:59.990Z</time>
      </trkpt>
      <trkpt lat="42.459166" lon="-6.078245">
        <ele>866</ele>
        <time>2018-07-24T06:44:01.990Z</time>
      </trkpt>
      <trkpt lat="42.459173" lon="-6.078388">
        <ele>866</ele>
        <time>2018-07-24T06:44:03.990Z</time>
      </trkpt>
      <trkpt lat="42.45918" lon="-6.078534">
        <ele>866.6</ele>
        <time>2018-07-24T06:44:06.000Z</time>
      </trkpt>
      <trkpt lat="42.459186" lon="-6.078676">
        <ele>867</ele>
        <time>2018-07-24T06:44:07.990Z</time>
      </trkpt>
      <trkpt lat="42.459185" lon="-6.078818">
        <ele>867</ele>
        <time>2018-07-24T06:44:09.990Z</time>
      </trkpt>
      <trkpt lat="42.459188" lon="-6.078964">
        <ele>867</ele>
        <time>2018-07-24T06:44:11.990Z</time>
      </trkpt>
      <trkpt lat="42.45918" lon="-6.079113">
        <ele>867</ele>
        <time>2018-07-24T06:44:13.990Z</time>
      </trkpt>
      <trkpt lat="42.459181" lon="-6.079259">
        <ele>867</ele>
        <time>2018-07-24T06:44:16.000Z</time>
      </trkpt>
      <trkpt lat="42.459172" lon="-6.079406">
        <ele>868</ele>
        <time>2018-07-24T06:44:17.990Z</time>
      </trkpt>
      <trkpt lat="42.459177" lon="-6.079552">
        <ele>868</ele>
        <time>2018-07-24T06:44:19.990Z</time>
      </trkpt>
      <trkpt lat="42.459183" lon="-6.079691">
        <ele>868</ele>
        <time>2018-07-24T06:44:21.990Z</time>
      </trkpt>
      <trkpt lat="42.459185" lon="-6.079829">
        <ele>868</ele>
        <time>2018-07-24T06:44:23.990Z</time>
      </trkpt>
      <trkpt lat="42.459196" lon="-6.079968">
        <ele>868</ele>
        <time>2018-07-24T06:44:26.000Z</time>
      </trkpt>
      <trkpt lat="42.459198" lon="-6.080107">
        <ele>868</ele>
        <time>2018-07-24T06:44:27.990Z</time>
      </trkpt>
      <trkpt lat="42.459205" lon="-6.080238">
        <ele>868</ele>
        <time>2018-07-24T06:44:29.990Z</time>
      </trkpt>
      <trkpt lat="42.459212" lon="-6.080373">
        <ele>868</ele>
        <time>2018-07-24T06:44:31.990Z</time>
      </trkpt>
      <trkpt lat="42.459209" lon="-6.080502">
        <ele>869</ele>
        <time>2018-07-24T06:44:33.990Z</time>
      </trkpt>
      <trkpt lat="42.459214" lon="-6.080635">
        <ele>869</ele>
        <time>2018-07-24T06:44:36.000Z</time>
      </trkpt>
      <trkpt lat="42.459219" lon="-6.080762">
        <ele>869</ele>
        <time>2018-07-24T06:44:37.990Z</time>
      </trkpt>
      <trkpt lat="42.459243" lon="-6.080888">
        <ele>869</ele>
        <time>2018-07-24T06:44:39.990Z</time>
      </trkpt>
      <trkpt lat="42.459258" lon="-6.08106">
        <ele>869</ele>
        <time>2018-07-24T06:44:42.990Z</time>
      </trkpt>
      <trkpt lat="42.459285" lon="-6.081229">
        <ele>869</ele>
        <time>2018-07-24T06:44:46.000Z</time>
      </trkpt>
      <trkpt lat="42.459316" lon="-6.081403">
        <ele>869</ele>
        <time>2018-07-24T06:44:48.990Z</time>
      </trkpt>
      <trkpt lat="42.459344" lon="-6.081534">
        <ele>869</ele>
        <time>2018-07-24T06:44:51.000Z</time>
      </trkpt>
      <trkpt lat="42.459372" lon="-6.081661">
        <ele>869</ele>
        <time>2018-07-24T06:44:52.990Z</time>
      </trkpt>
      <trkpt lat="42.459407" lon="-6.081784">
        <ele>869</ele>
        <time>2018-07-24T06:44:54.990Z</time>
      </trkpt>
      <trkpt lat="42.459436" lon="-6.081911">
        <ele>869</ele>
        <time>2018-07-24T06:44:56.990Z</time>
      </trkpt>
      <trkpt lat="42.459463" lon="-6.082033">
        <ele>869</ele>
        <time>2018-07-24T06:44:58.990Z</time>
      </trkpt>
      <trkpt lat="42.459494" lon="-6.082155">
        <ele>869</ele>
        <time>2018-07-24T06:45:01.000Z</time>
      </trkpt>
      <trkpt lat="42.459538" lon="-6.082325">
        <ele>869.397063529412</ele>
        <time>2018-07-24T06:45:03.990Z</time>
      </trkpt>
      <trkpt lat="42.459578" lon="-6.08249">
        <ele>870.5900032</ele>
        <time>2018-07-24T06:45:06.990Z</time>
      </trkpt>
      <trkpt lat="42.459607" lon="-6.082641">
        <ele>871</ele>
        <time>2018-07-24T06:45:09.990Z</time>
      </trkpt>
      <trkpt lat="42.459642" lon="-6.082782">
        <ele>872</ele>
        <time>2018-07-24T06:45:12.990Z</time>
      </trkpt>
      <trkpt lat="42.459668" lon="-6.082921">
        <ele>872</ele>
        <time>2018-07-24T06:45:16.000Z</time>
      </trkpt>
      <trkpt lat="42.459694" lon="-6.083049">
        <ele>873</ele>
        <time>2018-07-24T06:45:18.990Z</time>
      </trkpt>
      <trkpt lat="42.459725" lon="-6.08318">
        <ele>874</ele>
        <time>2018-07-24T06:45:21.990Z</time>
      </trkpt>
      <trkpt lat="42.459765" lon="-6.083322">
        <ele>875</ele>
        <time>2018-07-24T06:45:26.000Z</time>
      </trkpt>
      <trkpt lat="42.459804" lon="-6.08344">
        <ele>875</ele>
        <time>2018-07-24T06:45:28.990Z</time>
      </trkpt>
      <trkpt lat="42.459825" lon="-6.083563">
        <ele>876</ele>
        <time>2018-07-24T06:45:31.990Z</time>
      </trkpt>
      <trkpt lat="42.459845" lon="-6.083691">
        <ele>876</ele>
        <time>2018-07-24T06:45:34.990Z</time>
      </trkpt>
      <trkpt lat="42.459868" lon="-6.083818">
        <ele>876.453846381064</ele>
        <time>2018-07-24T06:45:37.990Z</time>
      </trkpt>
      <trkpt lat="42.459899" lon="-6.083945">
        <ele>878</ele>
        <time>2018-07-24T06:45:41.000Z</time>
      </trkpt>
      <trkpt lat="42.45993" lon="-6.084078">
        <ele>878</ele>
        <time>2018-07-24T06:45:43.990Z</time>
      </trkpt>
      <trkpt lat="42.459964" lon="-6.084218">
        <ele>878</ele>
        <time>2018-07-24T06:45:46.990Z</time>
      </trkpt>
      <trkpt lat="42.459996" lon="-6.084357">
        <ele>878</ele>
        <time>2018-07-24T06:45:49.990Z</time>
      </trkpt>
      <trkpt lat="42.460031" lon="-6.084523">
        <ele>878</ele>
        <time>2018-07-24T06:45:52.990Z</time>
      </trkpt>
      <trkpt lat="42.460062" lon="-6.084642">
        <ele>878</ele>
        <time>2018-07-24T06:45:54.990Z</time>
      </trkpt>
      <trkpt lat="42.460091" lon="-6.084768">
        <ele>878</ele>
        <time>2018-07-24T06:45:56.990Z</time>
      </trkpt>
      <trkpt lat="42.460123" lon="-6.084905">
        <ele>878</ele>
        <time>2018-07-24T06:45:58.990Z</time>
      </trkpt>
      <trkpt lat="42.46015" lon="-6.085044">
        <ele>878</ele>
        <time>2018-07-24T06:46:01.000Z</time>
      </trkpt>
      <trkpt lat="42.460182" lon="-6.085187">
        <ele>878</ele>
        <time>2018-07-24T06:46:02.990Z</time>
      </trkpt>
      <trkpt lat="42.460217" lon="-6.085343">
        <ele>877</ele>
        <time>2018-07-24T06:46:04.990Z</time>
      </trkpt>
      <trkpt lat="42.460249" lon="-6.085509">
        <ele>876</ele>
        <time>2018-07-24T06:46:06.990Z</time>
      </trkpt>
      <trkpt lat="42.46029" lon="-6.08568">
        <ele>875</ele>
        <time>2018-07-24T06:46:08.990Z</time>
      </trkpt>
      <trkpt lat="42.460329" lon="-6.085866">
        <ele>875</ele>
        <time>2018-07-24T06:46:11.000Z</time>
      </trkpt>
      <trkpt lat="42.460366" lon="-6.086055">
        <ele>874</ele>
        <time>2018-07-24T06:46:12.990Z</time>
      </trkpt>
      <trkpt lat="42.460409" lon="-6.086258">
        <ele>873</ele>
        <time>2018-07-24T06:46:14.990Z</time>
      </trkpt>
      <trkpt lat="42.460451" lon="-6.086457">
        <ele>873</ele>
        <time>2018-07-24T06:46:16.990Z</time>
      </trkpt>
      <trkpt lat="42.46049" lon="-6.086648">
        <ele>873</ele>
        <time>2018-07-24T06:46:18.990Z</time>
      </trkpt>
      <trkpt lat="42.460533" lon="-6.086829">
        <ele>873</ele>
        <time>2018-07-24T06:46:21.000Z</time>
      </trkpt>
      <trkpt lat="42.460602" lon="-6.086965">
        <ele>873</ele>
        <time>2018-07-24T06:46:22.990Z</time>
      </trkpt>
      <trkpt lat="42.46069" lon="-6.08706">
        <ele>873.5900032</ele>
        <time>2018-07-24T06:46:24.990Z</time>
      </trkpt>
      <trkpt lat="42.460764" lon="-6.0872">
        <ele>875</ele>
        <time>2018-07-24T06:46:27.990Z</time>
      </trkpt>
      <trkpt lat="42.460793" lon="-6.087356">
        <ele>875</ele>
        <time>2018-07-24T06:46:31.000Z</time>
      </trkpt>
      <trkpt lat="42.460815" lon="-6.087476">
        <ele>875</ele>
        <time>2018-07-24T06:46:32.990Z</time>
      </trkpt>
      <trkpt lat="42.460846" lon="-6.087655">
        <ele>875</ele>
        <time>2018-07-24T06:46:36.000Z</time>
      </trkpt>
      <trkpt lat="42.460875" lon="-6.087778">
        <ele>874</ele>
        <time>2018-07-24T06:46:37.990Z</time>
      </trkpt>
      <trkpt lat="42.4609" lon="-6.087907">
        <ele>874</ele>
        <time>2018-07-24T06:46:39.990Z</time>
      </trkpt>
      <trkpt lat="42.460931" lon="-6.088045">
        <ele>874</ele>
        <time>2018-07-24T06:46:41.990Z</time>
      </trkpt>
      <trkpt lat="42.46096" lon="-6.088179">
        <ele>874</ele>
        <time>2018-07-24T06:46:43.990Z</time>
      </trkpt>
      <trkpt lat="42.460991" lon="-6.088304">
        <ele>874</ele>
        <time>2018-07-24T06:46:46.000Z</time>
      </trkpt>
      <trkpt lat="42.461015" lon="-6.088428">
        <ele>874</ele>
        <time>2018-07-24T06:46:47.990Z</time>
      </trkpt>
      <trkpt lat="42.461053" lon="-6.08861">
        <ele>874</ele>
        <time>2018-07-24T06:46:51.000Z</time>
      </trkpt>
      <trkpt lat="42.461077" lon="-6.088733">
        <ele>875</ele>
        <time>2018-07-24T06:46:52.990Z</time>
      </trkpt>
      <trkpt lat="42.461108" lon="-6.088857">
        <ele>875</ele>
        <time>2018-07-24T06:46:54.990Z</time>
      </trkpt>
      <trkpt lat="42.461131" lon="-6.08898">
        <ele>875</ele>
        <time>2018-07-24T06:46:56.990Z</time>
      </trkpt>
      <trkpt lat="42.461166" lon="-6.089102">
        <ele>875</ele>
        <time>2018-07-24T06:46:58.990Z</time>
      </trkpt>
      <trkpt lat="42.461194" lon="-6.089234">
        <ele>875</ele>
        <time>2018-07-24T06:47:01.000Z</time>
      </trkpt>
      <trkpt lat="42.461226" lon="-6.089361">
        <ele>875</ele>
        <time>2018-07-24T06:47:02.990Z</time>
      </trkpt>
      <trkpt lat="42.461263" lon="-6.089479">
        <ele>876</ele>
        <time>2018-07-24T06:47:04.990Z</time>
      </trkpt>
      <trkpt lat="42.461288" lon="-6.089613">
        <ele>876</ele>
        <time>2018-07-24T06:47:06.990Z</time>
      </trkpt>
      <trkpt lat="42.461317" lon="-6.089733">
        <ele>876</ele>
        <time>2018-07-24T06:47:08.990Z</time>
      </trkpt>
      <trkpt lat="42.461343" lon="-6.089862">
        <ele>876</ele>
        <time>2018-07-24T06:47:11.000Z</time>
      </trkpt>
      <trkpt lat="42.461367" lon="-6.089988">
        <ele>876</ele>
        <time>2018-07-24T06:47:12.990Z</time>
      </trkpt>
      <trkpt lat="42.461396" lon="-6.090112">
        <ele>876</ele>
        <time>2018-07-24T06:47:14.990Z</time>
      </trkpt>
      <trkpt lat="42.461427" lon="-6.090284">
        <ele>877</ele>
        <time>2018-07-24T06:47:17.990Z</time>
      </trkpt>
      <trkpt lat="42.46145" lon="-6.090402">
        <ele>877</ele>
        <time>2018-07-24T06:47:19.990Z</time>
      </trkpt>
      <trkpt lat="42.46148" lon="-6.090519">
        <ele>877</ele>
        <time>2018-07-24T06:47:21.990Z</time>
      </trkpt>
      <trkpt lat="42.461517" lon="-6.090688">
        <ele>877</ele>
        <time>2018-07-24T06:47:24.990Z</time>
      </trkpt>
      <trkpt lat="42.461542" lon="-6.090807">
        <ele>877</ele>
        <time>2018-07-24T06:47:26.990Z</time>
      </trkpt>
      <trkpt lat="42.461558" lon="-6.090927">
        <ele>877</ele>
        <time>2018-07-24T06:47:28.990Z</time>
      </trkpt>
      <trkpt lat="42.461582" lon="-6.091047">
        <ele>877</ele>
        <time>2018-07-24T06:47:31.000Z</time>
      </trkpt>
      <trkpt lat="42.461619" lon="-6.091212">
        <ele>877.481487334271</ele>
        <time>2018-07-24T06:47:33.990Z</time>
      </trkpt>
      <trkpt lat="42.461653" lon="-6.091371">
        <ele>878</ele>
        <time>2018-07-24T06:47:36.990Z</time>
      </trkpt>
      <trkpt lat="42.461669" lon="-6.091517">
        <ele>878</ele>
        <time>2018-07-24T06:47:39.990Z</time>
      </trkpt>
      <trkpt lat="42.461682" lon="-6.091674">
        <ele>878</ele>
        <time>2018-07-24T06:47:42.990Z</time>
      </trkpt>
      <trkpt lat="42.4617" lon="-6.091841">
        <ele>878</ele>
        <time>2018-07-24T06:47:46.000Z</time>
      </trkpt>
      <trkpt lat="42.461713" lon="-6.092014">
        <ele>878</ele>
        <time>2018-07-24T06:47:48.990Z</time>
      </trkpt>
      <trkpt lat="42.461721" lon="-6.092182">
        <ele>878</ele>
        <time>2018-07-24T06:47:51.990Z</time>
      </trkpt>
      <trkpt lat="42.461726" lon="-6.092337">
        <ele>878</ele>
        <time>2018-07-24T06:47:54.990Z</time>
      </trkpt>
      <trkpt lat="42.461732" lon="-6.092485">
        <ele>878</ele>
        <time>2018-07-24T06:47:57.990Z</time>
      </trkpt>
      <trkpt lat="42.461735" lon="-6.092634">
        <ele>878</ele>
        <time>2018-07-24T06:48:01.000Z</time>
      </trkpt>
      <trkpt lat="42.461736" lon="-6.092788">
        <ele>878</ele>
        <time>2018-07-24T06:48:03.990Z</time>
      </trkpt>
      <trkpt lat="42.461732" lon="-6.092924">
        <ele>878</ele>
        <time>2018-07-24T06:48:06.990Z</time>
      </trkpt>
      <trkpt lat="42.461737" lon="-6.093083">
        <ele>878</ele>
        <time>2018-07-24T06:48:09.990Z</time>
      </trkpt>
      <trkpt lat="42.46174" lon="-6.093244">
        <ele>878</ele>
        <time>2018-07-24T06:48:12.990Z</time>
      </trkpt>
      <trkpt lat="42.46174" lon="-6.093416">
        <ele>878</ele>
        <time>2018-07-24T06:48:16.000Z</time>
      </trkpt>
      <trkpt lat="42.461743" lon="-6.093578">
        <ele>878</ele>
        <time>2018-07-24T06:48:18.990Z</time>
      </trkpt>
      <trkpt lat="42.46175" lon="-6.093732">
        <ele>878</ele>
        <time>2018-07-24T06:48:21.990Z</time>
      </trkpt>
      <trkpt lat="42.461761" lon="-6.093884">
        <ele>878</ele>
        <time>2018-07-24T06:48:24.990Z</time>
      </trkpt>
      <trkpt lat="42.461767" lon="-6.094038">
        <ele>878</ele>
        <time>2018-07-24T06:48:27.990Z</time>
      </trkpt>
      <trkpt lat="42.461783" lon="-6.094203">
        <ele>879</ele>
        <time>2018-07-24T06:48:31.000Z</time>
      </trkpt>
      <trkpt lat="42.461778" lon="-6.094375">
        <ele>879</ele>
        <time>2018-07-24T06:48:33.990Z</time>
      </trkpt>
      <trkpt lat="42.461783" lon="-6.094533">
        <ele>879</ele>
        <time>2018-07-24T06:48:36.990Z</time>
      </trkpt>
      <trkpt lat="42.461792" lon="-6.0947">
        <ele>879</ele>
        <time>2018-07-24T06:48:39.990Z</time>
      </trkpt>
      <trkpt lat="42.46179" lon="-6.094826">
        <ele>879</ele>
        <time>2018-07-24T06:48:41.990Z</time>
      </trkpt>
      <trkpt lat="42.461786" lon="-6.095">
        <ele>879</ele>
        <time>2018-07-24T06:48:44.990Z</time>
      </trkpt>
      <trkpt lat="42.461788" lon="-6.095127">
        <ele>879</ele>
        <time>2018-07-24T06:48:46.990Z</time>
      </trkpt>
      <trkpt lat="42.461786" lon="-6.09525">
        <ele>879</ele>
        <time>2018-07-24T06:48:48.990Z</time>
      </trkpt>
      <trkpt lat="42.46179" lon="-6.095383">
        <ele>879</ele>
        <time>2018-07-24T06:48:51.000Z</time>
      </trkpt>
      <trkpt lat="42.461799" lon="-6.095505">
        <ele>879</ele>
        <time>2018-07-24T06:48:52.990Z</time>
      </trkpt>
      <trkpt lat="42.461803" lon="-6.095688">
        <ele>879</ele>
        <time>2018-07-24T06:48:56.000Z</time>
      </trkpt>
      <trkpt lat="42.461803" lon="-6.095864">
        <ele>880</ele>
        <time>2018-07-24T06:48:58.990Z</time>
      </trkpt>
      <trkpt lat="42.461804" lon="-6.09599">
        <ele>880</ele>
        <time>2018-07-24T06:49:01.000Z</time>
      </trkpt>
      <trkpt lat="42.461805" lon="-6.096162">
        <ele>880.414295640726</ele>
        <time>2018-07-24T06:49:03.990Z</time>
      </trkpt>
      <trkpt lat="42.461751" lon="-6.096313">
        <ele>881</ele>
        <time>2018-07-24T06:49:06.990Z</time>
      </trkpt>
      <trkpt lat="42.461653" lon="-6.096389">
        <ele>881</ele>
        <time>2018-07-24T06:49:09.990Z</time>
      </trkpt>
      <trkpt lat="42.461565" lon="-6.096434">
        <ele>882</ele>
        <time>2018-07-24T06:49:12.990Z</time>
      </trkpt>
      <trkpt lat="42.461512" lon="-6.096537">
        <ele>882</ele>
        <time>2018-07-24T06:49:16.000Z</time>
      </trkpt>
      <trkpt lat="42.461457" lon="-6.096667">
        <ele>882</ele>
        <time>2018-07-24T06:49:18.990Z</time>
      </trkpt>
      <trkpt lat="42.461389" lon="-6.096815">
        <ele>881</ele>
        <time>2018-07-24T06:49:21.990Z</time>
      </trkpt>
      <trkpt lat="42.461311" lon="-6.096973">
        <ele>881</ele>
        <time>2018-07-24T06:49:24.990Z</time>
      </trkpt>
      <trkpt lat="42.461244" lon="-6.097111">
        <ele>881</ele>
        <time>2018-07-24T06:49:27.990Z</time>
      </trkpt>
      <trkpt lat="42.461187" lon="-6.097225">
        <ele>881</ele>
        <time>2018-07-24T06:49:31.000Z</time>
      </trkpt>
      <trkpt lat="42.461131" lon="-6.097344">
        <ele>881</ele>
        <time>2018-07-24T06:49:33.990Z</time>
      </trkpt>
      <trkpt lat="42.461061" lon="-6.097489">
        <ele>881</ele>
        <time>2018-07-24T06:49:36.990Z</time>
      </trkpt>
      <trkpt lat="42.461012" lon="-6.097608">
        <ele>881</ele>
        <time>2018-07-24T06:49:39.990Z</time>
      </trkpt>
      <trkpt lat="42.460941" lon="-6.097733">
        <ele>881</ele>
        <time>2018-07-24T06:49:42.990Z</time>
      </trkpt>
      <trkpt lat="42.460896" lon="-6.097861">
        <ele>881</ele>
        <time>2018-07-24T06:49:46.000Z</time>
      </trkpt>
      <trkpt lat="42.460822" lon="-6.097969">
        <ele>881</ele>
        <time>2018-07-24T06:49:49.990Z</time>
      </trkpt>
      <trkpt lat="42.46073" lon="-6.098003">
        <ele>881</ele>
        <time>2018-07-24T06:49:53.990Z</time>
      </trkpt>
      <trkpt lat="42.460676" lon="-6.098109">
        <ele>881</ele>
        <time>2018-07-24T06:49:57.990Z</time>
      </trkpt>
      <trkpt lat="42.460615" lon="-6.098226">
        <ele>881</ele>
        <time>2018-07-24T06:50:01.990Z</time>
      </trkpt>
      <trkpt lat="42.460564" lon="-6.098374">
        <ele>881</ele>
        <time>2018-07-24T06:50:06.000Z</time>
      </trkpt>
      <trkpt lat="42.460514" lon="-6.098506">
        <ele>881</ele>
        <time>2018-07-24T06:50:08.990Z</time>
      </trkpt>
      <trkpt lat="42.460475" lon="-6.098638">
        <ele>881</ele>
        <time>2018-07-24T06:50:11.990Z</time>
      </trkpt>
      <trkpt lat="42.46045" lon="-6.098771">
        <ele>881</ele>
        <time>2018-07-24T06:50:14.990Z</time>
      </trkpt>
      <trkpt lat="42.460442" lon="-6.098911">
        <ele>881</ele>
        <time>2018-07-24T06:50:17.990Z</time>
      </trkpt>
      <trkpt lat="42.460463" lon="-6.099034">
        <ele>881</ele>
        <time>2018-07-24T06:50:21.000Z</time>
      </trkpt>
      <trkpt lat="42.460467" lon="-6.099174">
        <ele>882</ele>
        <time>2018-07-24T06:50:24.990Z</time>
      </trkpt>
      <trkpt lat="42.460477" lon="-6.099311">
        <ele>882</ele>
        <time>2018-07-24T06:50:28.990Z</time>
      </trkpt>
      <trkpt lat="42.460521" lon="-6.099436">
        <ele>882</ele>
        <time>2018-07-24T06:50:32.990Z</time>
      </trkpt>
      <trkpt lat="42.460527" lon="-6.099585">
        <ele>882</ele>
        <time>2018-07-24T06:50:36.000Z</time>
      </trkpt>
      <trkpt lat="42.46052" lon="-6.099731">
        <ele>882</ele>
        <time>2018-07-24T06:50:38.990Z</time>
      </trkpt>
      <trkpt lat="42.460509" lon="-6.099882">
        <ele>883</ele>
        <time>2018-07-24T06:50:41.990Z</time>
      </trkpt>
      <trkpt lat="42.460497" lon="-6.100032">
        <ele>883</ele>
        <time>2018-07-24T06:50:44.990Z</time>
      </trkpt>
      <trkpt lat="42.460489" lon="-6.100175">
        <ele>883</ele>
        <time>2018-07-24T06:50:47.990Z</time>
      </trkpt>
      <trkpt lat="42.460494" lon="-6.100322">
        <ele>883</ele>
        <time>2018-07-24T06:50:51.000Z</time>
      </trkpt>
      <trkpt lat="42.460496" lon="-6.100468">
        <ele>883</ele>
        <time>2018-07-24T06:50:53.990Z</time>
      </trkpt>
      <trkpt lat="42.460494" lon="-6.100607">
        <ele>883</ele>
        <time>2018-07-24T06:50:56.990Z</time>
      </trkpt>
      <trkpt lat="42.460493" lon="-6.100744">
        <ele>883</ele>
        <time>2018-07-24T06:50:59.990Z</time>
      </trkpt>
      <trkpt lat="42.460479" lon="-6.10091">
        <ele>883</ele>
        <time>2018-07-24T06:51:02.990Z</time>
      </trkpt>
      <trkpt lat="42.460462" lon="-6.101077">
        <ele>883</ele>
        <time>2018-07-24T06:51:06.000Z</time>
      </trkpt>
      <trkpt lat="42.460454" lon="-6.101247">
        <ele>883</ele>
        <time>2018-07-24T06:51:08.990Z</time>
      </trkpt>
      <trkpt lat="42.460435" lon="-6.101419">
        <ele>883</ele>
        <time>2018-07-24T06:51:11.990Z</time>
      </trkpt>
      <trkpt lat="42.460421" lon="-6.101585">
        <ele>884</ele>
        <time>2018-07-24T06:51:14.990Z</time>
      </trkpt>
      <trkpt lat="42.460412" lon="-6.101726">
        <ele>885</ele>
        <time>2018-07-24T06:51:17.990Z</time>
      </trkpt>
      <trkpt lat="42.4604" lon="-6.101858">
        <ele>886</ele>
        <time>2018-07-24T06:51:21.000Z</time>
      </trkpt>
      <trkpt lat="42.460375" lon="-6.101977">
        <ele>886</ele>
        <time>2018-07-24T06:51:23.990Z</time>
      </trkpt>
      <trkpt lat="42.460316" lon="-6.102104">
        <ele>886</ele>
        <time>2018-07-24T06:51:27.990Z</time>
      </trkpt>
      <trkpt lat="42.460284" lon="-6.102258">
        <ele>886</ele>
        <time>2018-07-24T06:51:31.990Z</time>
      </trkpt>
      <trkpt lat="42.46026" lon="-6.102393">
        <ele>886</ele>
        <time>2018-07-24T06:51:34.990Z</time>
      </trkpt>
      <trkpt lat="42.460244" lon="-6.102528">
        <ele>887</ele>
        <time>2018-07-24T06:51:37.990Z</time>
      </trkpt>
      <trkpt lat="42.460225" lon="-6.102667">
        <ele>887</ele>
        <time>2018-07-24T06:51:41.000Z</time>
      </trkpt>
      <trkpt lat="42.460218" lon="-6.102789">
        <ele>888</ele>
        <time>2018-07-24T06:51:43.990Z</time>
      </trkpt>
      <trkpt lat="42.460199" lon="-6.102912">
        <ele>889</ele>
        <time>2018-07-24T06:51:46.990Z</time>
      </trkpt>
      <trkpt lat="42.460169" lon="-6.103036">
        <ele>889</ele>
        <time>2018-07-24T06:51:49.990Z</time>
      </trkpt>
      <trkpt lat="42.460113" lon="-6.103161">
        <ele>889</ele>
        <time>2018-07-24T06:51:52.990Z</time>
      </trkpt>
      <trkpt lat="42.460075" lon="-6.103288">
        <ele>889</ele>
        <time>2018-07-24T06:51:56.000Z</time>
      </trkpt>
      <trkpt lat="42.46003" lon="-6.103407">
        <ele>889</ele>
        <time>2018-07-24T06:51:58.990Z</time>
      </trkpt>
      <trkpt lat="42.459991" lon="-6.103519">
        <ele>890</ele>
        <time>2018-07-24T06:52:01.990Z</time>
      </trkpt>
      <trkpt lat="42.459959" lon="-6.103634">
        <ele>891</ele>
        <time>2018-07-24T06:52:04.990Z</time>
      </trkpt>
      <trkpt lat="42.459925" lon="-6.103751">
        <ele>891</ele>
        <time>2018-07-24T06:52:07.990Z</time>
      </trkpt>
      <trkpt lat="42.459895" lon="-6.103877">
        <ele>891</ele>
        <time>2018-07-24T06:52:11.000Z</time>
      </trkpt>
      <trkpt lat="42.459868" lon="-6.104007">
        <ele>891</ele>
        <time>2018-07-24T06:52:13.990Z</time>
      </trkpt>
      <trkpt lat="42.459835" lon="-6.104145">
        <ele>891</ele>
        <time>2018-07-24T06:52:16.990Z</time>
      </trkpt>
      <trkpt lat="42.459809" lon="-6.104284">
        <ele>891.5900032</ele>
        <time>2018-07-24T06:52:19.990Z</time>
      </trkpt>
      <trkpt lat="42.45978" lon="-6.104424">
        <ele>892</ele>
        <time>2018-07-24T06:52:22.990Z</time>
      </trkpt>
      <trkpt lat="42.45975" lon="-6.104564">
        <ele>892.6</ele>
        <time>2018-07-24T06:52:26.000Z</time>
      </trkpt>
      <trkpt lat="42.459726" lon="-6.104702">
        <ele>893</ele>
        <time>2018-07-24T06:52:28.990Z</time>
      </trkpt>
      <trkpt lat="42.459702" lon="-6.104828">
        <ele>893</ele>
        <time>2018-07-24T06:52:31.990Z</time>
      </trkpt>
      <trkpt lat="42.459678" lon="-6.104952">
        <ele>893</ele>
        <time>2018-07-24T06:52:34.990Z</time>
      </trkpt>
      <trkpt lat="42.459659" lon="-6.105073">
        <ele>894</ele>
        <time>2018-07-24T06:52:37.990Z</time>
      </trkpt>
      <trkpt lat="42.459634" lon="-6.105205">
        <ele>894</ele>
        <time>2018-07-24T06:52:41.000Z</time>
      </trkpt>
      <trkpt lat="42.459597" lon="-6.105332">
        <ele>894</ele>
        <time>2018-07-24T06:52:43.990Z</time>
      </trkpt>
      <trkpt lat="42.459581" lon="-6.105463">
        <ele>894</ele>
        <time>2018-07-24T06:52:46.990Z</time>
      </trkpt>
      <trkpt lat="42.459556" lon="-6.105595">
        <ele>894</ele>
        <time>2018-07-24T06:52:49.990Z</time>
      </trkpt>
      <trkpt lat="42.459526" lon="-6.105727">
        <ele>894</ele>
        <time>2018-07-24T06:52:52.990Z</time>
      </trkpt>
      <trkpt lat="42.459485" lon="-6.105871">
        <ele>895</ele>
        <time>2018-07-24T06:52:56.000Z</time>
      </trkpt>
      <trkpt lat="42.45946" lon="-6.106017">
        <ele>895</ele>
        <time>2018-07-24T06:52:58.990Z</time>
      </trkpt>
      <trkpt lat="42.459431" lon="-6.106165">
        <ele>895</ele>
        <time>2018-07-24T06:53:01.990Z</time>
      </trkpt>
      <trkpt lat="42.459401" lon="-6.106324">
        <ele>896</ele>
        <time>2018-07-24T06:53:04.990Z</time>
      </trkpt>
      <trkpt lat="42.459378" lon="-6.10648">
        <ele>896</ele>
        <time>2018-07-24T06:53:07.990Z</time>
      </trkpt>
      <trkpt lat="42.459353" lon="-6.106639">
        <ele>896</ele>
        <time>2018-07-24T06:53:11.000Z</time>
      </trkpt>
      <trkpt lat="42.459318" lon="-6.106794">
        <ele>896</ele>
        <time>2018-07-24T06:53:13.990Z</time>
      </trkpt>
      <trkpt lat="42.459297" lon="-6.106943">
        <ele>897</ele>
        <time>2018-07-24T06:53:16.990Z</time>
      </trkpt>
      <trkpt lat="42.459285" lon="-6.107083">
        <ele>897</ele>
        <time>2018-07-24T06:53:19.990Z</time>
      </trkpt>
      <trkpt lat="42.459266" lon="-6.107236">
        <ele>897</ele>
        <time>2018-07-24T06:53:22.990Z</time>
      </trkpt>
      <trkpt lat="42.459243" lon="-6.107402">
        <ele>897</ele>
        <time>2018-07-24T06:53:26.000Z</time>
      </trkpt>
      <trkpt lat="42.459223" lon="-6.10756">
        <ele>897</ele>
        <time>2018-07-24T06:53:28.990Z</time>
      </trkpt>
      <trkpt lat="42.459196" lon="-6.107725">
        <ele>898</ele>
        <time>2018-07-24T06:53:31.990Z</time>
      </trkpt>
      <trkpt lat="42.459164" lon="-6.107862">
        <ele>898</ele>
        <time>2018-07-24T06:53:34.990Z</time>
      </trkpt>
      <trkpt lat="42.459135" lon="-6.108012">
        <ele>898</ele>
        <time>2018-07-24T06:53:38.000Z</time>
      </trkpt>
      <trkpt lat="42.459107" lon="-6.108136">
        <ele>898</ele>
        <time>2018-07-24T06:53:40.000Z</time>
      </trkpt>
      <trkpt lat="42.459082" lon="-6.108254">
        <ele>898</ele>
        <time>2018-07-24T06:53:42.000Z</time>
      </trkpt>
      <trkpt lat="42.459054" lon="-6.108408">
        <ele>898</ele>
        <time>2018-07-24T06:53:45.000Z</time>
      </trkpt>
      <trkpt lat="42.459027" lon="-6.108559">
        <ele>898</ele>
        <time>2018-07-24T06:53:48.000Z</time>
      </trkpt>
      <trkpt lat="42.458999" lon="-6.108712">
        <ele>898</ele>
        <time>2018-07-24T06:53:51.000Z</time>
      </trkpt>
      <trkpt lat="42.45897" lon="-6.108866">
        <ele>898</ele>
        <time>2018-07-24T06:53:54.000Z</time>
      </trkpt>
      <trkpt lat="42.45894" lon="-6.109022">
        <ele>898</ele>
        <time>2018-07-24T06:53:57.000Z</time>
      </trkpt>
      <trkpt lat="42.458913" lon="-6.109174">
        <ele>898</ele>
        <time>2018-07-24T06:54:00.000Z</time>
      </trkpt>
      <trkpt lat="42.458887" lon="-6.109331">
        <ele>898</ele>
        <time>2018-07-24T06:54:03.000Z</time>
      </trkpt>
      <trkpt lat="42.458859" lon="-6.10948">
        <ele>899</ele>
        <time>2018-07-24T06:54:06.000Z</time>
      </trkpt>
      <trkpt lat="42.458837" lon="-6.109629">
        <ele>899</ele>
        <time>2018-07-24T06:54:09.000Z</time>
      </trkpt>
      <trkpt lat="42.45881" lon="-6.109781">
        <ele>899</ele>
        <time>2018-07-24T06:54:12.000Z</time>
      </trkpt>
      <trkpt lat="42.458783" lon="-6.109936">
        <ele>899</ele>
        <time>2018-07-24T06:54:15.000Z</time>
      </trkpt>
      <trkpt lat="42.458758" lon="-6.110094">
        <ele>900</ele>
        <time>2018-07-24T06:54:18.000Z</time>
      </trkpt>
      <trkpt lat="42.458729" lon="-6.110253">
        <ele>900</ele>
        <time>2018-07-24T06:54:21.000Z</time>
      </trkpt>
      <trkpt lat="42.458702" lon="-6.110406">
        <ele>900</ele>
        <time>2018-07-24T06:54:24.000Z</time>
      </trkpt>
      <trkpt lat="42.458674" lon="-6.110557">
        <ele>900</ele>
        <time>2018-07-24T06:54:27.000Z</time>
      </trkpt>
      <trkpt lat="42.458646" lon="-6.110716">
        <ele>900</ele>
        <time>2018-07-24T06:54:30.000Z</time>
      </trkpt>
      <trkpt lat="42.458618" lon="-6.110879">
        <ele>900</ele>
        <time>2018-07-24T06:54:33.000Z</time>
      </trkpt>
      <trkpt lat="42.458591" lon="-6.111038">
        <ele>900</ele>
        <time>2018-07-24T06:54:36.000Z</time>
      </trkpt>
      <trkpt lat="42.458566" lon="-6.111189">
        <ele>901</ele>
        <time>2018-07-24T06:54:39.000Z</time>
      </trkpt>
      <trkpt lat="42.458538" lon="-6.111342">
        <ele>901</ele>
        <time>2018-07-24T06:54:41.990Z</time>
      </trkpt>
      <trkpt lat="42.458509" lon="-6.111496">
        <ele>901</ele>
        <time>2018-07-24T06:54:45.000Z</time>
      </trkpt>
      <trkpt lat="42.458485" lon="-6.111647">
        <ele>901</ele>
        <time>2018-07-24T06:54:47.990Z</time>
      </trkpt>
      <trkpt lat="42.458459" lon="-6.111793">
        <ele>902</ele>
        <time>2018-07-24T06:54:50.990Z</time>
      </trkpt>
      <trkpt lat="42.458427" lon="-6.111954">
        <ele>902</ele>
        <time>2018-07-24T06:54:53.990Z</time>
      </trkpt>
      <trkpt lat="42.458409" lon="-6.112109">
        <ele>902</ele>
        <time>2018-07-24T06:54:56.990Z</time>
      </trkpt>
      <trkpt lat="42.458388" lon="-6.112263">
        <ele>902</ele>
        <time>2018-07-24T06:55:00.000Z</time>
      </trkpt>
      <trkpt lat="42.458365" lon="-6.112416">
        <ele>903</ele>
        <time>2018-07-24T06:55:02.990Z</time>
      </trkpt>
      <trkpt lat="42.458344" lon="-6.112568">
        <ele>903</ele>
        <time>2018-07-24T06:55:05.990Z</time>
      </trkpt>
      <trkpt lat="42.458326" lon="-6.112714">
        <ele>903.414284930605</ele>
        <time>2018-07-24T06:55:08.990Z</time>
      </trkpt>
      <trkpt lat="42.458304" lon="-6.112857">
        <ele>904</ele>
        <time>2018-07-24T06:55:11.990Z</time>
      </trkpt>
      <trkpt lat="42.458284" lon="-6.113003">
        <ele>905</ele>
        <time>2018-07-24T06:55:15.000Z</time>
      </trkpt>
      <trkpt lat="42.458259" lon="-6.113147">
        <ele>904</ele>
        <time>2018-07-24T06:55:17.990Z</time>
      </trkpt>
      <trkpt lat="42.458234" lon="-6.113286">
        <ele>905</ele>
        <time>2018-07-24T06:55:20.990Z</time>
      </trkpt>
      <trkpt lat="42.458219" lon="-6.113414">
        <ele>905</ele>
        <time>2018-07-24T06:55:23.990Z</time>
      </trkpt>
      <trkpt lat="42.458197" lon="-6.11355">
        <ele>905</ele>
        <time>2018-07-24T06:55:26.990Z</time>
      </trkpt>
      <trkpt lat="42.458171" lon="-6.113695">
        <ele>905</ele>
        <time>2018-07-24T06:55:30.000Z</time>
      </trkpt>
      <trkpt lat="42.45815" lon="-6.113834">
        <ele>905.388067400275</ele>
        <time>2018-07-24T06:55:32.990Z</time>
      </trkpt>
      <trkpt lat="42.458127" lon="-6.113961">
        <ele>906</ele>
        <time>2018-07-24T06:55:35.990Z</time>
      </trkpt>
      <trkpt lat="42.458095" lon="-6.114093">
        <ele>907</ele>
        <time>2018-07-24T06:55:40.000Z</time>
      </trkpt>
      <trkpt lat="42.458064" lon="-6.114251">
        <ele>907</ele>
        <time>2018-07-24T06:55:43.990Z</time>
      </trkpt>
      <trkpt lat="42.458037" lon="-6.114373">
        <ele>907</ele>
        <time>2018-07-24T06:55:46.990Z</time>
      </trkpt>
      <trkpt lat="42.458018" lon="-6.1145">
        <ele>907</ele>
        <time>2018-07-24T06:55:50.000Z</time>
      </trkpt>
      <trkpt lat="42.457987" lon="-6.114633">
        <ele>907.5900032</ele>
        <time>2018-07-24T06:55:52.990Z</time>
      </trkpt>
      <trkpt lat="42.457963" lon="-6.114775">
        <ele>908</ele>
        <time>2018-07-24T06:55:55.990Z</time>
      </trkpt>
      <trkpt lat="42.457939" lon="-6.114917">
        <ele>908</ele>
        <time>2018-07-24T06:55:58.990Z</time>
      </trkpt>
      <trkpt lat="42.457916" lon="-6.115062">
        <ele>908</ele>
        <time>2018-07-24T06:56:01.990Z</time>
      </trkpt>
      <trkpt lat="42.457892" lon="-6.115208">
        <ele>908</ele>
        <time>2018-07-24T06:56:05.000Z</time>
      </trkpt>
      <trkpt lat="42.457866" lon="-6.115354">
        <ele>908</ele>
        <time>2018-07-24T06:56:07.990Z</time>
      </trkpt>
      <trkpt lat="42.457834" lon="-6.115498">
        <ele>908</ele>
        <time>2018-07-24T06:56:10.990Z</time>
      </trkpt>
      <trkpt lat="42.457805" lon="-6.115642">
        <ele>908</ele>
        <time>2018-07-24T06:56:13.990Z</time>
      </trkpt>
      <trkpt lat="42.457788" lon="-6.115776">
        <ele>908</ele>
        <time>2018-07-24T06:56:16.990Z</time>
      </trkpt>
      <trkpt lat="42.45777" lon="-6.115919">
        <ele>908</ele>
        <time>2018-07-24T06:56:20.000Z</time>
      </trkpt>
      <trkpt lat="42.457754" lon="-6.116045">
        <ele>908.5900032</ele>
        <time>2018-07-24T06:56:22.990Z</time>
      </trkpt>
      <trkpt lat="42.457732" lon="-6.116175">
        <ele>909</ele>
        <time>2018-07-24T06:56:25.990Z</time>
      </trkpt>
      <trkpt lat="42.457718" lon="-6.116304">
        <ele>910</ele>
        <time>2018-07-24T06:56:28.990Z</time>
      </trkpt>
      <trkpt lat="42.457693" lon="-6.116438">
        <ele>910</ele>
        <time>2018-07-24T06:56:31.990Z</time>
      </trkpt>
      <trkpt lat="42.457675" lon="-6.116569">
        <ele>910</ele>
        <time>2018-07-24T06:56:35.000Z</time>
      </trkpt>
      <trkpt lat="42.457652" lon="-6.116689">
        <ele>910</ele>
        <time>2018-07-24T06:56:37.960Z</time>
      </trkpt>
      <trkpt lat="42.457626" lon="-6.116835">
        <ele>910</ele>
        <time>2018-07-24T06:56:40.990Z</time>
      </trkpt>
      <trkpt lat="42.457605" lon="-6.116954">
        <ele>910</ele>
        <time>2018-07-24T06:56:42.990Z</time>
      </trkpt>
      <trkpt lat="42.45757" lon="-6.117133">
        <ele>910</ele>
        <time>2018-07-24T06:56:46.020Z</time>
      </trkpt>
      <trkpt lat="42.457546" lon="-6.117278">
        <ele>911.5900032</ele>
        <time>2018-07-24T06:56:48.990Z</time>
      </trkpt>
      <trkpt lat="42.457526" lon="-6.117412">
        <ele>911</ele>
        <time>2018-07-24T06:56:51.990Z</time>
      </trkpt>
      <trkpt lat="42.457502" lon="-6.117549">
        <ele>911</ele>
        <time>2018-07-24T06:56:55.000Z</time>
      </trkpt>
      <trkpt lat="42.457483" lon="-6.117682">
        <ele>911</ele>
        <time>2018-07-24T06:56:57.990Z</time>
      </trkpt>
      <trkpt lat="42.457464" lon="-6.117821">
        <ele>912</ele>
        <time>2018-07-24T06:57:00.990Z</time>
      </trkpt>
      <trkpt lat="42.457435" lon="-6.117952">
        <ele>913</ele>
        <time>2018-07-24T06:57:03.990Z</time>
      </trkpt>
      <trkpt lat="42.457408" lon="-6.118077">
        <ele>913</ele>
        <time>2018-07-24T06:57:06.990Z</time>
      </trkpt>
      <trkpt lat="42.457385" lon="-6.118215">
        <ele>913.6</ele>
        <time>2018-07-24T06:57:10.000Z</time>
      </trkpt>
      <trkpt lat="42.457354" lon="-6.118354">
        <ele>914</ele>
        <time>2018-07-24T06:57:12.990Z</time>
      </trkpt>
      <trkpt lat="42.457322" lon="-6.118498">
        <ele>913.414295640726</ele>
        <time>2018-07-24T06:57:15.990Z</time>
      </trkpt>
      <trkpt lat="42.457301" lon="-6.118641">
        <ele>914</ele>
        <time>2018-07-24T06:57:18.990Z</time>
      </trkpt>
      <trkpt lat="42.457283" lon="-6.118771">
        <ele>914</ele>
        <time>2018-07-24T06:57:21.990Z</time>
      </trkpt>
      <trkpt lat="42.457256" lon="-6.118915">
        <ele>914.6</ele>
        <time>2018-07-24T06:57:25.000Z</time>
      </trkpt>
      <trkpt lat="42.457233" lon="-6.119046">
        <ele>915</ele>
        <time>2018-07-24T06:57:27.990Z</time>
      </trkpt>
      <trkpt lat="42.457211" lon="-6.119177">
        <ele>915</ele>
        <time>2018-07-24T06:57:30.990Z</time>
      </trkpt>
      <trkpt lat="42.457189" lon="-6.119309">
        <ele>915</ele>
        <time>2018-07-24T06:57:33.990Z</time>
      </trkpt>
      <trkpt lat="42.457161" lon="-6.119444">
        <ele>916</ele>
        <time>2018-07-24T06:57:36.990Z</time>
      </trkpt>
      <trkpt lat="42.457136" lon="-6.119577">
        <ele>916</ele>
        <time>2018-07-24T06:57:40.000Z</time>
      </trkpt>
      <trkpt lat="42.457108" lon="-6.119731">
        <ele>916</ele>
        <time>2018-07-24T06:57:43.990Z</time>
      </trkpt>
      <trkpt lat="42.457076" lon="-6.119872">
        <ele>917</ele>
        <time>2018-07-24T06:57:46.990Z</time>
      </trkpt>
      <trkpt lat="42.457049" lon="-6.120005">
        <ele>917</ele>
        <time>2018-07-24T06:57:50.000Z</time>
      </trkpt>
      <trkpt lat="42.457013" lon="-6.120147">
        <ele>917</ele>
        <time>2018-07-24T06:57:52.990Z</time>
      </trkpt>
      <trkpt lat="42.456989" lon="-6.120282">
        <ele>917</ele>
        <time>2018-07-24T06:57:55.990Z</time>
      </trkpt>
      <trkpt lat="42.456954" lon="-6.120417">
        <ele>918</ele>
        <time>2018-07-24T06:57:58.990Z</time>
      </trkpt>
      <trkpt lat="42.456933" lon="-6.120568">
        <ele>918</ele>
        <time>2018-07-24T06:58:01.990Z</time>
      </trkpt>
      <trkpt lat="42.456904" lon="-6.120714">
        <ele>919</ele>
        <time>2018-07-24T06:58:05.000Z</time>
      </trkpt>
      <trkpt lat="42.456873" lon="-6.120852">
        <ele>919</ele>
        <time>2018-07-24T06:58:07.990Z</time>
      </trkpt>
      <trkpt lat="42.456846" lon="-6.120995">
        <ele>920</ele>
        <time>2018-07-24T06:58:10.990Z</time>
      </trkpt>
      <trkpt lat="42.456808" lon="-6.121136">
        <ele>920</ele>
        <time>2018-07-24T06:58:13.990Z</time>
      </trkpt>
      <trkpt lat="42.456776" lon="-6.121279">
        <ele>920</ele>
        <time>2018-07-24T06:58:16.990Z</time>
      </trkpt>
      <trkpt lat="42.456734" lon="-6.121431">
        <ele>920</ele>
        <time>2018-07-24T06:58:20.000Z</time>
      </trkpt>
      <trkpt lat="42.456698" lon="-6.121575">
        <ele>921</ele>
        <time>2018-07-24T06:58:22.990Z</time>
      </trkpt>
      <trkpt lat="42.456662" lon="-6.121728">
        <ele>921</ele>
        <time>2018-07-24T06:58:25.990Z</time>
      </trkpt>
      <trkpt lat="42.45662" lon="-6.12188">
        <ele>921</ele>
        <time>2018-07-24T06:58:28.990Z</time>
      </trkpt>
      <trkpt lat="42.456581" lon="-6.122033">
        <ele>921</ele>
        <time>2018-07-24T06:58:31.990Z</time>
      </trkpt>
      <trkpt lat="42.456548" lon="-6.12219">
        <ele>922</ele>
        <time>2018-07-24T06:58:35.000Z</time>
      </trkpt>
      <trkpt lat="42.456515" lon="-6.122321">
        <ele>922</ele>
        <time>2018-07-24T06:58:37.990Z</time>
      </trkpt>
      <trkpt lat="42.456481" lon="-6.122459">
        <ele>921.577457679064</ele>
        <time>2018-07-24T06:58:40.990Z</time>
      </trkpt>
      <trkpt lat="42.45646" lon="-6.122604">
        <ele>922</ele>
        <time>2018-07-24T06:58:43.990Z</time>
      </trkpt>
      <trkpt lat="42.456434" lon="-6.122758">
        <ele>922</ele>
        <time>2018-07-24T06:58:46.990Z</time>
      </trkpt>
      <trkpt lat="42.456405" lon="-6.122899">
        <ele>922</ele>
        <time>2018-07-24T06:58:50.000Z</time>
      </trkpt>
      <trkpt lat="42.456369" lon="-6.123043">
        <ele>922</ele>
        <time>2018-07-24T06:58:52.990Z</time>
      </trkpt>
      <trkpt lat="42.456328" lon="-6.123184">
        <ele>922</ele>
        <time>2018-07-24T06:58:55.990Z</time>
      </trkpt>
      <trkpt lat="42.456293" lon="-6.123345">
        <ele>922</ele>
        <time>2018-07-24T06:58:58.990Z</time>
      </trkpt>
      <trkpt lat="42.456272" lon="-6.123493">
        <ele>922</ele>
        <time>2018-07-24T06:59:01.990Z</time>
      </trkpt>
      <trkpt lat="42.456242" lon="-6.123651">
        <ele>922</ele>
        <time>2018-07-24T06:59:05.000Z</time>
      </trkpt>
      <trkpt lat="42.45621" lon="-6.123806">
        <ele>922</ele>
        <time>2018-07-24T06:59:07.990Z</time>
      </trkpt>
      <trkpt lat="42.456172" lon="-6.123969">
        <ele>922</ele>
        <time>2018-07-24T06:59:10.990Z</time>
      </trkpt>
      <trkpt lat="42.456134" lon="-6.124137">
        <ele>922</ele>
        <time>2018-07-24T06:59:13.990Z</time>
      </trkpt>
      <trkpt lat="42.456099" lon="-6.124288">
        <ele>922</ele>
        <time>2018-07-24T06:59:16.990Z</time>
      </trkpt>
      <trkpt lat="42.456073" lon="-6.124422">
        <ele>922</ele>
        <time>2018-07-24T06:59:20.000Z</time>
      </trkpt>
      <trkpt lat="42.456032" lon="-6.124558">
        <ele>923</ele>
        <time>2018-07-24T06:59:22.990Z</time>
      </trkpt>
      <trkpt lat="42.456002" lon="-6.124703">
        <ele>923</ele>
        <time>2018-07-24T06:59:25.990Z</time>
      </trkpt>
      <trkpt lat="42.45596" lon="-6.124848">
        <ele>923</ele>
        <time>2018-07-24T06:59:28.990Z</time>
      </trkpt>
      <trkpt lat="42.455923" lon="-6.124993">
        <ele>923</ele>
        <time>2018-07-24T06:59:31.990Z</time>
      </trkpt>
      <trkpt lat="42.455881" lon="-6.12514">
        <ele>923</ele>
        <time>2018-07-24T06:59:35.000Z</time>
      </trkpt>
      <trkpt lat="42.455848" lon="-6.125282">
        <ele>924</ele>
        <time>2018-07-24T06:59:37.990Z</time>
      </trkpt>
      <trkpt lat="42.455815" lon="-6.125434">
        <ele>924</ele>
        <time>2018-07-24T06:59:40.990Z</time>
      </trkpt>
      <trkpt lat="42.455777" lon="-6.125572">
        <ele>924</ele>
        <time>2018-07-24T06:59:43.990Z</time>
      </trkpt>
      <trkpt lat="42.455748" lon="-6.1257">
        <ele>924</ele>
        <time>2018-07-24T06:59:46.990Z</time>
      </trkpt>
      <trkpt lat="42.455713" lon="-6.125836">
        <ele>924</ele>
        <time>2018-07-24T06:59:50.000Z</time>
      </trkpt>
      <trkpt lat="42.455681" lon="-6.125988">
        <ele>924</ele>
        <time>2018-07-24T06:59:52.990Z</time>
      </trkpt>
      <trkpt lat="42.455647" lon="-6.126114">
        <ele>925</ele>
        <time>2018-07-24T06:59:55.990Z</time>
      </trkpt>
      <trkpt lat="42.455605" lon="-6.126261">
        <ele>926</ele>
        <time>2018-07-24T06:59:58.990Z</time>
      </trkpt>
      <trkpt lat="42.455582" lon="-6.126417">
        <ele>926</ele>
        <time>2018-07-24T07:00:01.990Z</time>
      </trkpt>
      <trkpt lat="42.455561" lon="-6.126551">
        <ele>926</ele>
        <time>2018-07-24T07:00:05.000Z</time>
      </trkpt>
      <trkpt lat="42.455532" lon="-6.126702">
        <ele>926</ele>
        <time>2018-07-24T07:00:07.990Z</time>
      </trkpt>
      <trkpt lat="42.455508" lon="-6.126868">
        <ele>926</ele>
        <time>2018-07-24T07:00:10.990Z</time>
      </trkpt>
      <trkpt lat="42.455484" lon="-6.127041">
        <ele>926</ele>
        <time>2018-07-24T07:00:13.990Z</time>
      </trkpt>
      <trkpt lat="42.455463" lon="-6.127211">
        <ele>926</ele>
        <time>2018-07-24T07:00:16.990Z</time>
      </trkpt>
      <trkpt lat="42.455442" lon="-6.127369">
        <ele>927</ele>
        <time>2018-07-24T07:00:20.000Z</time>
      </trkpt>
      <trkpt lat="42.455426" lon="-6.127523">
        <ele>927</ele>
        <time>2018-07-24T07:00:22.990Z</time>
      </trkpt>
      <trkpt lat="42.455408" lon="-6.127675">
        <ele>927</ele>
        <time>2018-07-24T07:00:25.990Z</time>
      </trkpt>
      <trkpt lat="42.455389" lon="-6.127818">
        <ele>927</ele>
        <time>2018-07-24T07:00:28.990Z</time>
      </trkpt>
      <trkpt lat="42.455365" lon="-6.127957">
        <ele>928</ele>
        <time>2018-07-24T07:00:31.990Z</time>
      </trkpt>
      <trkpt lat="42.455351" lon="-6.128094">
        <ele>928</ele>
        <time>2018-07-24T07:00:35.000Z</time>
      </trkpt>
      <trkpt lat="42.455329" lon="-6.12823">
        <ele>928</ele>
        <time>2018-07-24T07:00:37.990Z</time>
      </trkpt>
      <trkpt lat="42.45531" lon="-6.128373">
        <ele>929</ele>
        <time>2018-07-24T07:00:40.990Z</time>
      </trkpt>
      <trkpt lat="42.455289" lon="-6.128519">
        <ele>929</ele>
        <time>2018-07-24T07:00:43.990Z</time>
      </trkpt>
      <trkpt lat="42.45527" lon="-6.12866">
        <ele>929</ele>
        <time>2018-07-24T07:00:46.990Z</time>
      </trkpt>
      <trkpt lat="42.45526" lon="-6.1288">
        <ele>930</ele>
        <time>2018-07-24T07:00:50.000Z</time>
      </trkpt>
      <trkpt lat="42.455244" lon="-6.128937">
        <ele>930</ele>
        <time>2018-07-24T07:00:52.990Z</time>
      </trkpt>
      <trkpt lat="42.455231" lon="-6.129083">
        <ele>930</ele>
        <time>2018-07-24T07:00:55.990Z</time>
      </trkpt>
      <trkpt lat="42.455215" lon="-6.129237">
        <ele>930.5900032</ele>
        <time>2018-07-24T07:00:58.990Z</time>
      </trkpt>
      <trkpt lat="42.455197" lon="-6.129383">
        <ele>931</ele>
        <time>2018-07-24T07:01:01.990Z</time>
      </trkpt>
      <trkpt lat="42.455179" lon="-6.129527">
        <ele>931</ele>
        <time>2018-07-24T07:01:05.000Z</time>
      </trkpt>
      <trkpt lat="42.455155" lon="-6.129675">
        <ele>931</ele>
        <time>2018-07-24T07:01:07.990Z</time>
      </trkpt>
      <trkpt lat="42.455142" lon="-6.129829">
        <ele>931.5900032</ele>
        <time>2018-07-24T07:01:10.990Z</time>
      </trkpt>
      <trkpt lat="42.455129" lon="-6.129976">
        <ele>932</ele>
        <time>2018-07-24T07:01:13.990Z</time>
      </trkpt>
      <trkpt lat="42.455117" lon="-6.130121">
        <ele>932</ele>
        <time>2018-07-24T07:01:16.990Z</time>
      </trkpt>
      <trkpt lat="42.455113" lon="-6.130263">
        <ele>932</ele>
        <time>2018-07-24T07:01:20.000Z</time>
      </trkpt>
      <trkpt lat="42.455096" lon="-6.130402">
        <ele>932</ele>
        <time>2018-07-24T07:01:22.990Z</time>
      </trkpt>
      <trkpt lat="42.455077" lon="-6.130537">
        <ele>933</ele>
        <time>2018-07-24T07:01:25.990Z</time>
      </trkpt>
      <trkpt lat="42.455058" lon="-6.130665">
        <ele>933.414284930605</ele>
        <time>2018-07-24T07:01:28.990Z</time>
      </trkpt>
      <trkpt lat="42.455044" lon="-6.130794">
        <ele>934</ele>
        <time>2018-07-24T07:01:31.990Z</time>
      </trkpt>
      <trkpt lat="42.455029" lon="-6.130927">
        <ele>935</ele>
        <time>2018-07-24T07:01:35.000Z</time>
      </trkpt>
      <trkpt lat="42.455003" lon="-6.13107">
        <ele>935</ele>
        <time>2018-07-24T07:01:37.990Z</time>
      </trkpt>
      <trkpt lat="42.454977" lon="-6.131212">
        <ele>935</ele>
        <time>2018-07-24T07:01:40.990Z</time>
      </trkpt>
      <trkpt lat="42.454956" lon="-6.131359">
        <ele>935</ele>
        <time>2018-07-24T07:01:43.990Z</time>
      </trkpt>
      <trkpt lat="42.454936" lon="-6.131506">
        <ele>935</ele>
        <time>2018-07-24T07:01:46.990Z</time>
      </trkpt>
      <trkpt lat="42.45492" lon="-6.131658">
        <ele>935.436622257477</ele>
        <time>2018-07-24T07:01:50.000Z</time>
      </trkpt>
      <trkpt lat="42.454905" lon="-6.131803">
        <ele>936</ele>
        <time>2018-07-24T07:01:52.990Z</time>
      </trkpt>
      <trkpt lat="42.454874" lon="-6.131955">
        <ele>936</ele>
        <time>2018-07-24T07:01:55.990Z</time>
      </trkpt>
      <trkpt lat="42.454865" lon="-6.132101">
        <ele>936</ele>
        <time>2018-07-24T07:01:58.990Z</time>
      </trkpt>
      <trkpt lat="42.454869" lon="-6.132239">
        <ele>937</ele>
        <time>2018-07-24T07:02:01.990Z</time>
      </trkpt>
      <trkpt lat="42.454871" lon="-6.132381">
        <ele>937</ele>
        <time>2018-07-24T07:02:05.000Z</time>
      </trkpt>
      <trkpt lat="42.454876" lon="-6.132525">
        <ele>937</ele>
        <time>2018-07-24T07:02:07.990Z</time>
      </trkpt>
      <trkpt lat="42.454871" lon="-6.132673">
        <ele>937</ele>
        <time>2018-07-24T07:02:10.990Z</time>
      </trkpt>
      <trkpt lat="42.454867" lon="-6.132806">
        <ele>938</ele>
        <time>2018-07-24T07:02:13.990Z</time>
      </trkpt>
      <trkpt lat="42.454871" lon="-6.132936">
        <ele>939</ele>
        <time>2018-07-24T07:02:16.990Z</time>
      </trkpt>
      <trkpt lat="42.454868" lon="-6.133073">
        <ele>940</ele>
        <time>2018-07-24T07:02:20.000Z</time>
      </trkpt>
      <trkpt lat="42.454879" lon="-6.133236">
        <ele>940</ele>
        <time>2018-07-24T07:02:23.990Z</time>
      </trkpt>
      <trkpt lat="42.454883" lon="-6.133359">
        <ele>941</ele>
        <time>2018-07-24T07:02:26.990Z</time>
      </trkpt>
      <trkpt lat="42.454885" lon="-6.133514">
        <ele>941</ele>
        <time>2018-07-24T07:02:30.990Z</time>
      </trkpt>
      <trkpt lat="42.454884" lon="-6.133636">
        <ele>941</ele>
        <time>2018-07-24T07:02:33.990Z</time>
      </trkpt>
      <trkpt lat="42.454887" lon="-6.133792">
        <ele>942</ele>
        <time>2018-07-24T07:02:37.990Z</time>
      </trkpt>
      <trkpt lat="42.454882" lon="-6.133936">
        <ele>943</ele>
        <time>2018-07-24T07:02:41.990Z</time>
      </trkpt>
      <trkpt lat="42.454876" lon="-6.134078">
        <ele>943</ele>
        <time>2018-07-24T07:02:45.990Z</time>
      </trkpt>
      <trkpt lat="42.454874" lon="-6.134235">
        <ele>944</ele>
        <time>2018-07-24T07:02:50.000Z</time>
      </trkpt>
      <trkpt lat="42.454865" lon="-6.134398">
        <ele>944</ele>
        <time>2018-07-24T07:02:53.990Z</time>
      </trkpt>
      <trkpt lat="42.454876" lon="-6.134555">
        <ele>944</ele>
        <time>2018-07-24T07:02:57.990Z</time>
      </trkpt>
      <trkpt lat="42.454879" lon="-6.134713">
        <ele>944</ele>
        <time>2018-07-24T07:03:01.990Z</time>
      </trkpt>
      <trkpt lat="42.454874" lon="-6.134865">
        <ele>944.5900032</ele>
        <time>2018-07-24T07:03:05.990Z</time>
      </trkpt>
      <trkpt lat="42.454881" lon="-6.134988">
        <ele>945</ele>
        <time>2018-07-24T07:03:10.000Z</time>
      </trkpt>
      <trkpt lat="42.454893" lon="-6.135117">
        <ele>945</ele>
        <time>2018-07-24T07:03:26.990Z</time>
      </trkpt>
      <trkpt lat="42.454841" lon="-6.135246">
        <ele>946</ele>
        <time>2018-07-24T07:03:31.990Z</time>
      </trkpt>
      <trkpt lat="42.45481" lon="-6.135377">
        <ele>946</ele>
        <time>2018-07-24T07:03:36.990Z</time>
      </trkpt>
      <trkpt lat="42.454843" lon="-6.135514">
        <ele>946</ele>
        <time>2018-07-24T07:03:40.990Z</time>
      </trkpt>
      <trkpt lat="42.454855" lon="-6.135646">
        <ele>946</ele>
        <time>2018-07-24T07:03:43.990Z</time>
      </trkpt>
      <trkpt lat="42.454864" lon="-6.135771">
        <ele>947</ele>
        <time>2018-07-24T07:03:46.990Z</time>
      </trkpt>
      <trkpt lat="42.454855" lon="-6.135899">
        <ele>948</ele>
        <time>2018-07-24T07:03:50.000Z</time>
      </trkpt>
      <trkpt lat="42.454855" lon="-6.136025">
        <ele>949</ele>
        <time>2018-07-24T07:03:52.990Z</time>
      </trkpt>
      <trkpt lat="42.454854" lon="-6.13615">
        <ele>949</ele>
        <time>2018-07-24T07:03:55.990Z</time>
      </trkpt>
      <trkpt lat="42.454853" lon="-6.136277">
        <ele>950</ele>
        <time>2018-07-24T07:03:58.990Z</time>
      </trkpt>
      <trkpt lat="42.45486" lon="-6.136427">
        <ele>950.5900032</ele>
        <time>2018-07-24T07:04:02.990Z</time>
      </trkpt>
      <trkpt lat="42.454856" lon="-6.13657">
        <ele>952</ele>
        <time>2018-07-24T07:04:06.990Z</time>
      </trkpt>
      <trkpt lat="42.454853" lon="-6.136707">
        <ele>951.6</ele>
        <time>2018-07-24T07:04:10.000Z</time>
      </trkpt>
      <trkpt lat="42.454863" lon="-6.13683">
        <ele>952.6</ele>
        <time>2018-07-24T07:04:13.000Z</time>
      </trkpt>
      <trkpt lat="42.454871" lon="-6.136989">
        <ele>954</ele>
        <time>2018-07-24T07:04:17.000Z</time>
      </trkpt>
      <trkpt lat="42.454872" lon="-6.137141">
        <ele>954</ele>
        <time>2018-07-24T07:04:21.000Z</time>
      </trkpt>
      <trkpt lat="42.454871" lon="-6.137295">
        <ele>955</ele>
        <time>2018-07-24T07:04:25.000Z</time>
      </trkpt>
      <trkpt lat="42.454877" lon="-6.137452">
        <ele>955</ele>
        <time>2018-07-24T07:04:29.000Z</time>
      </trkpt>
      <trkpt lat="42.454879" lon="-6.137611">
        <ele>955</ele>
        <time>2018-07-24T07:04:32.990Z</time>
      </trkpt>
      <trkpt lat="42.454873" lon="-6.13774">
        <ele>955</ele>
        <time>2018-07-24T07:04:36.000Z</time>
      </trkpt>
      <trkpt lat="42.454878" lon="-6.137871">
        <ele>955</ele>
        <time>2018-07-24T07:04:38.990Z</time>
      </trkpt>
      <trkpt lat="42.454874" lon="-6.137998">
        <ele>955</ele>
        <time>2018-07-24T07:04:41.990Z</time>
      </trkpt>
      <trkpt lat="42.454871" lon="-6.138125">
        <ele>955.5900032</ele>
        <time>2018-07-24T07:04:44.990Z</time>
      </trkpt>
      <trkpt lat="42.454873" lon="-6.138253">
        <ele>956</ele>
        <time>2018-07-24T07:04:47.990Z</time>
      </trkpt>
      <trkpt lat="42.454879" lon="-6.138402">
        <ele>956</ele>
        <time>2018-07-24T07:04:51.000Z</time>
      </trkpt>
      <trkpt lat="42.454873" lon="-6.138547">
        <ele>956.5900032</ele>
        <time>2018-07-24T07:04:53.990Z</time>
      </trkpt>
      <trkpt lat="42.454876" lon="-6.13869">
        <ele>957</ele>
        <time>2018-07-24T07:04:56.990Z</time>
      </trkpt>
      <trkpt lat="42.454883" lon="-6.138836">
        <ele>957</ele>
        <time>2018-07-24T07:04:59.990Z</time>
      </trkpt>
      <trkpt lat="42.454887" lon="-6.138976">
        <ele>957</ele>
        <time>2018-07-24T07:05:02.990Z</time>
      </trkpt>
      <trkpt lat="42.454887" lon="-6.13912">
        <ele>958</ele>
        <time>2018-07-24T07:05:06.000Z</time>
      </trkpt>
      <trkpt lat="42.454885" lon="-6.139256">
        <ele>958</ele>
        <time>2018-07-24T07:05:08.990Z</time>
      </trkpt>
      <trkpt lat="42.454887" lon="-6.139399">
        <ele>958.5900032</ele>
        <time>2018-07-24T07:05:11.990Z</time>
      </trkpt>
      <trkpt lat="42.454882" lon="-6.139543">
        <ele>958</ele>
        <time>2018-07-24T07:05:14.990Z</time>
      </trkpt>
      <trkpt lat="42.454881" lon="-6.139691">
        <ele>959</ele>
        <time>2018-07-24T07:05:17.990Z</time>
      </trkpt>
      <trkpt lat="42.45488" lon="-6.139839">
        <ele>959</ele>
        <time>2018-07-24T07:05:21.000Z</time>
      </trkpt>
      <trkpt lat="42.454883" lon="-6.139985">
        <ele>959.5900032</ele>
        <time>2018-07-24T07:05:23.990Z</time>
      </trkpt>
      <trkpt lat="42.454889" lon="-6.140127">
        <ele>960</ele>
        <time>2018-07-24T07:05:26.990Z</time>
      </trkpt>
      <trkpt lat="42.454889" lon="-6.140266">
        <ele>960.5900032</ele>
        <time>2018-07-24T07:05:29.990Z</time>
      </trkpt>
      <trkpt lat="42.454882" lon="-6.140406">
        <ele>961</ele>
        <time>2018-07-24T07:05:32.990Z</time>
      </trkpt>
      <trkpt lat="42.454886" lon="-6.140553">
        <ele>961</ele>
        <time>2018-07-24T07:05:36.000Z</time>
      </trkpt>
      <trkpt lat="42.454887" lon="-6.140705">
        <ele>962</ele>
        <time>2018-07-24T07:05:38.990Z</time>
      </trkpt>
      <trkpt lat="42.454891" lon="-6.140851">
        <ele>962</ele>
        <time>2018-07-24T07:05:41.990Z</time>
      </trkpt>
      <trkpt lat="42.454892" lon="-6.140995">
        <ele>962</ele>
        <time>2018-07-24T07:05:44.990Z</time>
      </trkpt>
      <trkpt lat="42.454886" lon="-6.141134">
        <ele>963</ele>
        <time>2018-07-24T07:05:47.990Z</time>
      </trkpt>
      <trkpt lat="42.454875" lon="-6.141282">
        <ele>963</ele>
        <time>2018-07-24T07:05:51.000Z</time>
      </trkpt>
      <trkpt lat="42.454888" lon="-6.141425">
        <ele>963</ele>
        <time>2018-07-24T07:05:53.990Z</time>
      </trkpt>
      <trkpt lat="42.454889" lon="-6.141577">
        <ele>963</ele>
        <time>2018-07-24T07:05:56.990Z</time>
      </trkpt>
      <trkpt lat="42.454898" lon="-6.141728">
        <ele>963.422542320936</ele>
        <time>2018-07-24T07:05:59.990Z</time>
      </trkpt>
      <trkpt lat="42.454906" lon="-6.141875">
        <ele>964.5900032</ele>
        <time>2018-07-24T07:06:02.990Z</time>
      </trkpt>
      <trkpt lat="42.454912" lon="-6.14202">
        <ele>965</ele>
        <time>2018-07-24T07:06:06.000Z</time>
      </trkpt>
      <trkpt lat="42.454907" lon="-6.142163">
        <ele>965</ele>
        <time>2018-07-24T07:06:08.990Z</time>
      </trkpt>
      <trkpt lat="42.454909" lon="-6.14231">
        <ele>965.422542320936</ele>
        <time>2018-07-24T07:06:11.990Z</time>
      </trkpt>
      <trkpt lat="42.454906" lon="-6.14246">
        <ele>966</ele>
        <time>2018-07-24T07:06:14.990Z</time>
      </trkpt>
      <trkpt lat="42.4549" lon="-6.14261">
        <ele>966</ele>
        <time>2018-07-24T07:06:17.990Z</time>
      </trkpt>
      <trkpt lat="42.454888" lon="-6.142756">
        <ele>967</ele>
        <time>2018-07-24T07:06:21.000Z</time>
      </trkpt>
      <trkpt lat="42.454876" lon="-6.142904">
        <ele>967</ele>
        <time>2018-07-24T07:06:23.990Z</time>
      </trkpt>
      <trkpt lat="42.454867" lon="-6.143053">
        <ele>967.414284930605</ele>
        <time>2018-07-24T07:06:26.990Z</time>
      </trkpt>
      <trkpt lat="42.454856" lon="-6.143202">
        <ele>968</ele>
        <time>2018-07-24T07:06:29.990Z</time>
      </trkpt>
      <trkpt lat="42.454842" lon="-6.143354">
        <ele>968</ele>
        <time>2018-07-24T07:06:32.990Z</time>
      </trkpt>
      <trkpt lat="42.454831" lon="-6.143507">
        <ele>968</ele>
        <time>2018-07-24T07:06:36.000Z</time>
      </trkpt>
      <trkpt lat="42.454817" lon="-6.143664">
        <ele>968.422542320936</ele>
        <time>2018-07-24T07:06:38.990Z</time>
      </trkpt>
      <trkpt lat="42.454807" lon="-6.143833">
        <ele>969</ele>
        <time>2018-07-24T07:06:41.990Z</time>
      </trkpt>
      <trkpt lat="42.454799" lon="-6.143998">
        <ele>969</ele>
        <time>2018-07-24T07:06:44.990Z</time>
      </trkpt>
      <trkpt lat="42.454789" lon="-6.144169">
        <ele>969</ele>
        <time>2018-07-24T07:06:47.990Z</time>
      </trkpt>
      <trkpt lat="42.454771" lon="-6.144338">
        <ele>969</ele>
        <time>2018-07-24T07:06:51.000Z</time>
      </trkpt>
      <trkpt lat="42.454757" lon="-6.144504">
        <ele>970</ele>
        <time>2018-07-24T07:06:53.990Z</time>
      </trkpt>
      <trkpt lat="42.45474" lon="-6.144675">
        <ele>970</ele>
        <time>2018-07-24T07:06:56.990Z</time>
      </trkpt>
      <trkpt lat="42.454731" lon="-6.144842">
        <ele>970</ele>
        <time>2018-07-24T07:06:59.990Z</time>
      </trkpt>
      <trkpt lat="42.454732" lon="-6.145007">
        <ele>971</ele>
        <time>2018-07-24T07:07:02.990Z</time>
      </trkpt>
      <trkpt lat="42.454739" lon="-6.145169">
        <ele>971</ele>
        <time>2018-07-24T07:07:06.000Z</time>
      </trkpt>
      <trkpt lat="42.454752" lon="-6.145313">
        <ele>972</ele>
        <time>2018-07-24T07:07:08.990Z</time>
      </trkpt>
      <trkpt lat="42.454784" lon="-6.145472">
        <ele>972</ele>
        <time>2018-07-24T07:07:11.990Z</time>
      </trkpt>
      <trkpt lat="42.454814" lon="-6.145633">
        <ele>972.5900032</ele>
        <time>2018-07-24T07:07:14.990Z</time>
      </trkpt>
      <trkpt lat="42.454854" lon="-6.145789">
        <ele>973</ele>
        <time>2018-07-24T07:07:17.990Z</time>
      </trkpt>
      <trkpt lat="42.454892" lon="-6.145943">
        <ele>974</ele>
        <time>2018-07-24T07:07:21.000Z</time>
      </trkpt>
      <trkpt lat="42.454928" lon="-6.146093">
        <ele>974.5900032</ele>
        <time>2018-07-24T07:07:23.990Z</time>
      </trkpt>
      <trkpt lat="42.454968" lon="-6.14624">
        <ele>975</ele>
        <time>2018-07-24T07:07:26.990Z</time>
      </trkpt>
      <trkpt lat="42.454997" lon="-6.1464">
        <ele>975</ele>
        <time>2018-07-24T07:07:29.990Z</time>
      </trkpt>
      <trkpt lat="42.455022" lon="-6.146557">
        <ele>975</ele>
        <time>2018-07-24T07:07:32.990Z</time>
      </trkpt>
      <trkpt lat="42.455057" lon="-6.146714">
        <ele>976</ele>
        <time>2018-07-24T07:07:36.000Z</time>
      </trkpt>
      <trkpt lat="42.455085" lon="-6.146858">
        <ele>976</ele>
        <time>2018-07-24T07:07:38.990Z</time>
      </trkpt>
      <trkpt lat="42.455116" lon="-6.147018">
        <ele>977</ele>
        <time>2018-07-24T07:07:41.990Z</time>
      </trkpt>
      <trkpt lat="42.455135" lon="-6.147184">
        <ele>976</ele>
        <time>2018-07-24T07:07:44.990Z</time>
      </trkpt>
      <trkpt lat="42.455167" lon="-6.147355">
        <ele>976</ele>
        <time>2018-07-24T07:07:47.990Z</time>
      </trkpt>
      <trkpt lat="42.455199" lon="-6.147518">
        <ele>977</ele>
        <time>2018-07-24T07:07:51.000Z</time>
      </trkpt>
      <trkpt lat="42.455211" lon="-6.147678">
        <ele>977</ele>
        <time>2018-07-24T07:07:53.990Z</time>
      </trkpt>
      <trkpt lat="42.455228" lon="-6.147844">
        <ele>977.5900032</ele>
        <time>2018-07-24T07:07:56.990Z</time>
      </trkpt>
      <trkpt lat="42.455244" lon="-6.148008">
        <ele>978</ele>
        <time>2018-07-24T07:07:59.990Z</time>
      </trkpt>
      <trkpt lat="42.455255" lon="-6.148169">
        <ele>978</ele>
        <time>2018-07-24T07:08:02.990Z</time>
      </trkpt>
      <trkpt lat="42.455264" lon="-6.14834">
        <ele>978</ele>
        <time>2018-07-24T07:08:06.000Z</time>
      </trkpt>
      <trkpt lat="42.455275" lon="-6.148503">
        <ele>978</ele>
        <time>2018-07-24T07:08:08.990Z</time>
      </trkpt>
      <trkpt lat="42.455288" lon="-6.148655">
        <ele>980</ele>
        <time>2018-07-24T07:08:11.990Z</time>
      </trkpt>
      <trkpt lat="42.455294" lon="-6.148798">
        <ele>980</ele>
        <time>2018-07-24T07:08:14.990Z</time>
      </trkpt>
      <trkpt lat="42.455304" lon="-6.148959">
        <ele>980</ele>
        <time>2018-07-24T07:08:17.990Z</time>
      </trkpt>
      <trkpt lat="42.455305" lon="-6.149126">
        <ele>980</ele>
        <time>2018-07-24T07:08:21.000Z</time>
      </trkpt>
      <trkpt lat="42.455316" lon="-6.14929">
        <ele>980</ele>
        <time>2018-07-24T07:08:23.990Z</time>
      </trkpt>
      <trkpt lat="42.455314" lon="-6.149458">
        <ele>980</ele>
        <time>2018-07-24T07:08:26.990Z</time>
      </trkpt>
      <trkpt lat="42.455306" lon="-6.149617">
        <ele>980</ele>
        <time>2018-07-24T07:08:29.990Z</time>
      </trkpt>
      <trkpt lat="42.455304" lon="-6.149763">
        <ele>980</ele>
        <time>2018-07-24T07:08:32.990Z</time>
      </trkpt>
      <trkpt lat="42.455286" lon="-6.149903">
        <ele>980.6</ele>
        <time>2018-07-24T07:08:36.000Z</time>
      </trkpt>
      <trkpt lat="42.455288" lon="-6.150029">
        <ele>981</ele>
        <time>2018-07-24T07:08:38.990Z</time>
      </trkpt>
      <trkpt lat="42.455282" lon="-6.150179">
        <ele>981</ele>
        <time>2018-07-24T07:08:41.990Z</time>
      </trkpt>
      <trkpt lat="42.45526" lon="-6.150323">
        <ele>981</ele>
        <time>2018-07-24T07:08:44.990Z</time>
      </trkpt>
      <trkpt lat="42.455254" lon="-6.150487">
        <ele>981</ele>
        <time>2018-07-24T07:08:47.990Z</time>
      </trkpt>
      <trkpt lat="42.455242" lon="-6.150662">
        <ele>981</ele>
        <time>2018-07-24T07:08:51.000Z</time>
      </trkpt>
      <trkpt lat="42.455216" lon="-6.150832">
        <ele>981</ele>
        <time>2018-07-24T07:08:53.990Z</time>
      </trkpt>
      <trkpt lat="42.455206" lon="-6.151003">
        <ele>981.414284930605</ele>
        <time>2018-07-24T07:08:56.990Z</time>
      </trkpt>
      <trkpt lat="42.455202" lon="-6.151163">
        <ele>982</ele>
        <time>2018-07-24T07:08:59.990Z</time>
      </trkpt>
      <trkpt lat="42.455202" lon="-6.151325">
        <ele>982</ele>
        <time>2018-07-24T07:09:02.990Z</time>
      </trkpt>
      <trkpt lat="42.4552" lon="-6.151483">
        <ele>982</ele>
        <time>2018-07-24T07:09:06.000Z</time>
      </trkpt>
      <trkpt lat="42.45519" lon="-6.151652">
        <ele>982</ele>
        <time>2018-07-24T07:09:08.990Z</time>
      </trkpt>
      <trkpt lat="42.455186" lon="-6.151831">
        <ele>982</ele>
        <time>2018-07-24T07:09:11.990Z</time>
      </trkpt>
      <trkpt lat="42.45518" lon="-6.152">
        <ele>982</ele>
        <time>2018-07-24T07:09:14.990Z</time>
      </trkpt>
      <trkpt lat="42.455172" lon="-6.152167">
        <ele>982</ele>
        <time>2018-07-24T07:09:17.990Z</time>
      </trkpt>
      <trkpt lat="42.455173" lon="-6.152324">
        <ele>984</ele>
        <time>2018-07-24T07:09:21.000Z</time>
      </trkpt>
      <trkpt lat="42.455166" lon="-6.152481">
        <ele>984</ele>
        <time>2018-07-24T07:09:23.990Z</time>
      </trkpt>
      <trkpt lat="42.455172" lon="-6.152645">
        <ele>984</ele>
        <time>2018-07-24T07:09:26.990Z</time>
      </trkpt>
      <trkpt lat="42.455186" lon="-6.152815">
        <ele>984</ele>
        <time>2018-07-24T07:09:29.990Z</time>
      </trkpt>
      <trkpt lat="42.455181" lon="-6.152989">
        <ele>985</ele>
        <time>2018-07-24T07:09:32.990Z</time>
      </trkpt>
      <trkpt lat="42.455178" lon="-6.153164">
        <ele>985</ele>
        <time>2018-07-24T07:09:36.000Z</time>
      </trkpt>
      <trkpt lat="42.455172" lon="-6.153321">
        <ele>985</ele>
        <time>2018-07-24T07:09:38.990Z</time>
      </trkpt>
      <trkpt lat="42.455172" lon="-6.153495">
        <ele>985.457367956262</ele>
        <time>2018-07-24T07:09:41.990Z</time>
      </trkpt>
      <trkpt lat="42.455166" lon="-6.153667">
        <ele>986.5900032</ele>
        <time>2018-07-24T07:09:44.990Z</time>
      </trkpt>
      <trkpt lat="42.455171" lon="-6.153844">
        <ele>987</ele>
        <time>2018-07-24T07:09:47.990Z</time>
      </trkpt>
      <trkpt lat="42.455168" lon="-6.153969">
        <ele>987</ele>
        <time>2018-07-24T07:09:49.990Z</time>
      </trkpt>
      <trkpt lat="42.455164" lon="-6.154145">
        <ele>987</ele>
        <time>2018-07-24T07:09:52.990Z</time>
      </trkpt>
      <trkpt lat="42.455162" lon="-6.154323">
        <ele>987</ele>
        <time>2018-07-24T07:09:56.000Z</time>
      </trkpt>
      <trkpt lat="42.45516" lon="-6.154447">
        <ele>987</ele>
        <time>2018-07-24T07:09:57.990Z</time>
      </trkpt>
      <trkpt lat="42.45515" lon="-6.154573">
        <ele>987</ele>
        <time>2018-07-24T07:09:59.990Z</time>
      </trkpt>
      <trkpt lat="42.455139" lon="-6.1547">
        <ele>987</ele>
        <time>2018-07-24T07:10:01.990Z</time>
      </trkpt>
      <trkpt lat="42.455125" lon="-6.154828">
        <ele>987</ele>
        <time>2018-07-24T07:10:03.990Z</time>
      </trkpt>
      <trkpt lat="42.455117" lon="-6.154959">
        <ele>987</ele>
        <time>2018-07-24T07:10:06.000Z</time>
      </trkpt>
      <trkpt lat="42.455106" lon="-6.15513">
        <ele>987</ele>
        <time>2018-07-24T07:10:08.990Z</time>
      </trkpt>
      <trkpt lat="42.455098" lon="-6.155297">
        <ele>987</ele>
        <time>2018-07-24T07:10:11.990Z</time>
      </trkpt>
      <trkpt lat="42.455082" lon="-6.155465">
        <ele>987</ele>
        <time>2018-07-24T07:10:14.990Z</time>
      </trkpt>
      <trkpt lat="42.455072" lon="-6.155612">
        <ele>988</ele>
        <time>2018-07-24T07:10:17.990Z</time>
      </trkpt>
      <trkpt lat="42.455074" lon="-6.155737">
        <ele>988</ele>
        <time>2018-07-24T07:10:21.000Z</time>
      </trkpt>
      <trkpt lat="42.455057" lon="-6.155875">
        <ele>988</ele>
        <time>2018-07-24T07:10:24.990Z</time>
      </trkpt>
      <trkpt lat="42.455035" lon="-6.156024">
        <ele>989</ele>
        <time>2018-07-24T07:10:28.990Z</time>
      </trkpt>
      <trkpt lat="42.455046" lon="-6.156176">
        <ele>988</ele>
        <time>2018-07-24T07:10:31.990Z</time>
      </trkpt>
      <trkpt lat="42.455052" lon="-6.15634">
        <ele>988</ele>
        <time>2018-07-24T07:10:34.990Z</time>
      </trkpt>
      <trkpt lat="42.455054" lon="-6.156464">
        <ele>988</ele>
        <time>2018-07-24T07:10:36.990Z</time>
      </trkpt>
      <trkpt lat="42.455059" lon="-6.156589">
        <ele>988</ele>
        <time>2018-07-24T07:10:38.990Z</time>
      </trkpt>
      <trkpt lat="42.455063" lon="-6.156729">
        <ele>988</ele>
        <time>2018-07-24T07:10:41.000Z</time>
      </trkpt>
      <trkpt lat="42.45506" lon="-6.15687">
        <ele>988</ele>
        <time>2018-07-24T07:10:42.990Z</time>
      </trkpt>
      <trkpt lat="42.455061" lon="-6.156998">
        <ele>988</ele>
        <time>2018-07-24T07:10:44.990Z</time>
      </trkpt>
      <trkpt lat="42.455069" lon="-6.157126">
        <ele>988</ele>
        <time>2018-07-24T07:10:46.990Z</time>
      </trkpt>
      <trkpt lat="42.455077" lon="-6.157308">
        <ele>988</ele>
        <time>2018-07-24T07:10:49.990Z</time>
      </trkpt>
      <trkpt lat="42.455081" lon="-6.157445">
        <ele>988</ele>
        <time>2018-07-24T07:10:51.990Z</time>
      </trkpt>
      <trkpt lat="42.455091" lon="-6.157582">
        <ele>988</ele>
        <time>2018-07-24T07:10:53.990Z</time>
      </trkpt>
      <trkpt lat="42.455109" lon="-6.157722">
        <ele>988</ele>
        <time>2018-07-24T07:10:56.000Z</time>
      </trkpt>
      <trkpt lat="42.455125" lon="-6.157865">
        <ele>988</ele>
        <time>2018-07-24T07:10:57.990Z</time>
      </trkpt>
      <trkpt lat="42.455156" lon="-6.157983">
        <ele>988</ele>
        <time>2018-07-24T07:10:59.990Z</time>
      </trkpt>
      <trkpt lat="42.455191" lon="-6.158112">
        <ele>988</ele>
        <time>2018-07-24T07:11:01.990Z</time>
      </trkpt>
      <trkpt lat="42.455226" lon="-6.158239">
        <ele>988</ele>
        <time>2018-07-24T07:11:04.000Z</time>
      </trkpt>
      <trkpt lat="42.455232" lon="-6.158371">
        <ele>988</ele>
        <time>2018-07-24T07:11:06.000Z</time>
      </trkpt>
      <trkpt lat="42.455261" lon="-6.158544">
        <ele>989</ele>
        <time>2018-07-24T07:11:08.990Z</time>
      </trkpt>
      <trkpt lat="42.455265" lon="-6.158675">
        <ele>990</ele>
        <time>2018-07-24T07:11:11.990Z</time>
      </trkpt>
      <trkpt lat="42.455287" lon="-6.158841">
        <ele>990</ele>
        <time>2018-07-24T07:11:16.000Z</time>
      </trkpt>
      <trkpt lat="42.455328" lon="-6.158968">
        <ele>990</ele>
        <time>2018-07-24T07:11:18.990Z</time>
      </trkpt>
      <trkpt lat="42.455339" lon="-6.159105">
        <ele>990.422542320936</ele>
        <time>2018-07-24T07:11:21.990Z</time>
      </trkpt>
      <trkpt lat="42.45535" lon="-6.159258">
        <ele>991</ele>
        <time>2018-07-24T07:11:24.990Z</time>
      </trkpt>
      <trkpt lat="42.455358" lon="-6.159431">
        <ele>991</ele>
        <time>2018-07-24T07:11:28.000Z</time>
      </trkpt>
      <trkpt lat="42.455372" lon="-6.159577">
        <ele>991</ele>
        <time>2018-07-24T07:11:30.990Z</time>
      </trkpt>
      <trkpt lat="42.455399" lon="-6.159735">
        <ele>991</ele>
        <time>2018-07-24T07:11:33.990Z</time>
      </trkpt>
      <trkpt lat="42.455424" lon="-6.159887">
        <ele>992</ele>
        <time>2018-07-24T07:11:36.990Z</time>
      </trkpt>
      <trkpt lat="42.455442" lon="-6.160067">
        <ele>992</ele>
        <time>2018-07-24T07:11:39.990Z</time>
      </trkpt>
      <trkpt lat="42.455467" lon="-6.160239">
        <ele>992</ele>
        <time>2018-07-24T07:11:43.000Z</time>
      </trkpt>
      <trkpt lat="42.455473" lon="-6.1604">
        <ele>992</ele>
        <time>2018-07-24T07:11:45.990Z</time>
      </trkpt>
      <trkpt lat="42.455491" lon="-6.160574">
        <ele>992</ele>
        <time>2018-07-24T07:11:48.990Z</time>
      </trkpt>
      <trkpt lat="42.455501" lon="-6.160747">
        <ele>992</ele>
        <time>2018-07-24T07:11:51.990Z</time>
      </trkpt>
      <trkpt lat="42.455518" lon="-6.16092">
        <ele>992</ele>
        <time>2018-07-24T07:11:54.990Z</time>
      </trkpt>
      <trkpt lat="42.455541" lon="-6.161084">
        <ele>992</ele>
        <time>2018-07-24T07:11:58.000Z</time>
      </trkpt>
      <trkpt lat="42.455564" lon="-6.161248">
        <ele>992</ele>
        <time>2018-07-24T07:12:00.990Z</time>
      </trkpt>
      <trkpt lat="42.455582" lon="-6.161418">
        <ele>993</ele>
        <time>2018-07-24T07:12:03.990Z</time>
      </trkpt>
      <trkpt lat="42.455584" lon="-6.161573">
        <ele>993</ele>
        <time>2018-07-24T07:12:06.990Z</time>
      </trkpt>
      <trkpt lat="42.455596" lon="-6.161718">
        <ele>993</ele>
        <time>2018-07-24T07:12:09.990Z</time>
      </trkpt>
      <trkpt lat="42.455601" lon="-6.16189">
        <ele>993</ele>
        <time>2018-07-24T07:12:13.000Z</time>
      </trkpt>
      <trkpt lat="42.4556" lon="-6.162048">
        <ele>993</ele>
        <time>2018-07-24T07:12:15.990Z</time>
      </trkpt>
      <trkpt lat="42.455585" lon="-6.162199">
        <ele>993</ele>
        <time>2018-07-24T07:12:18.990Z</time>
      </trkpt>
      <trkpt lat="42.455579" lon="-6.162334">
        <ele>993</ele>
        <time>2018-07-24T07:12:21.990Z</time>
      </trkpt>
      <trkpt lat="42.455609" lon="-6.162481">
        <ele>993</ele>
        <time>2018-07-24T07:12:24.990Z</time>
      </trkpt>
      <trkpt lat="42.455631" lon="-6.162624">
        <ele>993</ele>
        <time>2018-07-24T07:12:28.000Z</time>
      </trkpt>
      <trkpt lat="42.455655" lon="-6.162763">
        <ele>993</ele>
        <time>2018-07-24T07:12:30.990Z</time>
      </trkpt>
      <trkpt lat="42.455689" lon="-6.162896">
        <ele>993</ele>
        <time>2018-07-24T07:12:33.990Z</time>
      </trkpt>
      <trkpt lat="42.455713" lon="-6.163028">
        <ele>993</ele>
        <time>2018-07-24T07:12:36.990Z</time>
      </trkpt>
      <trkpt lat="42.455737" lon="-6.163166">
        <ele>993.422542320936</ele>
        <time>2018-07-24T07:12:39.990Z</time>
      </trkpt>
      <trkpt lat="42.455763" lon="-6.163307">
        <ele>994</ele>
        <time>2018-07-24T07:12:43.000Z</time>
      </trkpt>
      <trkpt lat="42.455785" lon="-6.163446">
        <ele>994</ele>
        <time>2018-07-24T07:12:45.990Z</time>
      </trkpt>
      <trkpt lat="42.455804" lon="-6.163595">
        <ele>994</ele>
        <time>2018-07-24T07:12:48.990Z</time>
      </trkpt>
      <trkpt lat="42.455829" lon="-6.163741">
        <ele>995</ele>
        <time>2018-07-24T07:12:51.990Z</time>
      </trkpt>
      <trkpt lat="42.455859" lon="-6.163904">
        <ele>995</ele>
        <time>2018-07-24T07:12:54.990Z</time>
      </trkpt>
      <trkpt lat="42.455892" lon="-6.164066">
        <ele>995</ele>
        <time>2018-07-24T07:12:58.000Z</time>
      </trkpt>
      <trkpt lat="42.455921" lon="-6.164236">
        <ele>995</ele>
        <time>2018-07-24T07:13:00.990Z</time>
      </trkpt>
      <trkpt lat="42.455937" lon="-6.164407">
        <ele>995</ele>
        <time>2018-07-24T07:13:03.990Z</time>
      </trkpt>
      <trkpt lat="42.455973" lon="-6.164564">
        <ele>995</ele>
        <time>2018-07-24T07:13:06.990Z</time>
      </trkpt>
      <trkpt lat="42.456015" lon="-6.164725">
        <ele>995.5900032</ele>
        <time>2018-07-24T07:13:09.990Z</time>
      </trkpt>
      <trkpt lat="42.456045" lon="-6.164896">
        <ele>996</ele>
        <time>2018-07-24T07:13:13.000Z</time>
      </trkpt>
      <trkpt lat="42.456079" lon="-6.165066">
        <ele>996.422542320936</ele>
        <time>2018-07-24T07:13:15.990Z</time>
      </trkpt>
      <trkpt lat="42.456121" lon="-6.16523">
        <ele>997</ele>
        <time>2018-07-24T07:13:18.990Z</time>
      </trkpt>
      <trkpt lat="42.456153" lon="-6.165398">
        <ele>997</ele>
        <time>2018-07-24T07:13:21.990Z</time>
      </trkpt>
      <trkpt lat="42.456186" lon="-6.165562">
        <ele>997</ele>
        <time>2018-07-24T07:13:24.990Z</time>
      </trkpt>
      <trkpt lat="42.456212" lon="-6.165732">
        <ele>997</ele>
        <time>2018-07-24T07:13:28.000Z</time>
      </trkpt>
      <trkpt lat="42.456244" lon="-6.165902">
        <ele>998</ele>
        <time>2018-07-24T07:13:30.990Z</time>
      </trkpt>
      <trkpt lat="42.456268" lon="-6.16602">
        <ele>998</ele>
        <time>2018-07-24T07:13:33.000Z</time>
      </trkpt>
      <trkpt lat="42.456292" lon="-6.166138">
        <ele>998</ele>
        <time>2018-07-24T07:13:34.990Z</time>
      </trkpt>
      <trkpt lat="42.45633" lon="-6.166312">
        <ele>998</ele>
        <time>2018-07-24T07:13:38.000Z</time>
      </trkpt>
      <trkpt lat="42.456362" lon="-6.166484">
        <ele>998</ele>
        <time>2018-07-24T07:13:40.990Z</time>
      </trkpt>
      <trkpt lat="42.456392" lon="-6.166652">
        <ele>998</ele>
        <time>2018-07-24T07:13:43.990Z</time>
      </trkpt>
      <trkpt lat="42.456429" lon="-6.16682">
        <ele>998</ele>
        <time>2018-07-24T07:13:46.990Z</time>
      </trkpt>
      <trkpt lat="42.456472" lon="-6.166992">
        <ele>998.993752</ele>
        <time>2018-07-24T07:13:49.990Z</time>
      </trkpt>
      <trkpt lat="42.456494" lon="-6.167162">
        <ele>999</ele>
        <time>2018-07-24T07:13:53.000Z</time>
      </trkpt>
      <trkpt lat="42.456527" lon="-6.167334">
        <ele>999</ele>
        <time>2018-07-24T07:13:55.990Z</time>
      </trkpt>
      <trkpt lat="42.45655" lon="-6.167454">
        <ele>999</ele>
        <time>2018-07-24T07:13:58.000Z</time>
      </trkpt>
      <trkpt lat="42.45657" lon="-6.167578">
        <ele>999</ele>
        <time>2018-07-24T07:13:59.990Z</time>
      </trkpt>
      <trkpt lat="42.45659" lon="-6.167703">
        <ele>999</ele>
        <time>2018-07-24T07:14:01.990Z</time>
      </trkpt>
      <trkpt lat="42.456613" lon="-6.167827">
        <ele>999</ele>
        <time>2018-07-24T07:14:03.990Z</time>
      </trkpt>
      <trkpt lat="42.456645" lon="-6.168002">
        <ele>999</ele>
        <time>2018-07-24T07:14:06.990Z</time>
      </trkpt>
      <trkpt lat="42.456683" lon="-6.168162">
        <ele>1000</ele>
        <time>2018-07-24T07:14:09.990Z</time>
      </trkpt>
      <trkpt lat="42.456723" lon="-6.168316">
        <ele>1000</ele>
        <time>2018-07-24T07:14:13.000Z</time>
      </trkpt>
      <trkpt lat="42.456753" lon="-6.168473">
        <ele>999</ele>
        <time>2018-07-24T07:14:15.990Z</time>
      </trkpt>
      <trkpt lat="42.456788" lon="-6.16864">
        <ele>999</ele>
        <time>2018-07-24T07:14:18.990Z</time>
      </trkpt>
      <trkpt lat="42.456816" lon="-6.168811">
        <ele>999</ele>
        <time>2018-07-24T07:14:21.990Z</time>
      </trkpt>
      <trkpt lat="42.456843" lon="-6.168929">
        <ele>999</ele>
        <time>2018-07-24T07:14:23.990Z</time>
      </trkpt>
      <trkpt lat="42.456869" lon="-6.169107">
        <ele>999</ele>
        <time>2018-07-24T07:14:26.990Z</time>
      </trkpt>
      <trkpt lat="42.45689" lon="-6.16923">
        <ele>999</ele>
        <time>2018-07-24T07:14:28.990Z</time>
      </trkpt>
      <trkpt lat="42.456916" lon="-6.169353">
        <ele>999</ele>
        <time>2018-07-24T07:14:30.990Z</time>
      </trkpt>
      <trkpt lat="42.456941" lon="-6.169479">
        <ele>999</ele>
        <time>2018-07-24T07:14:33.000Z</time>
      </trkpt>
      <trkpt lat="42.456964" lon="-6.169597">
        <ele>999</ele>
        <time>2018-07-24T07:14:34.990Z</time>
      </trkpt>
      <trkpt lat="42.457005" lon="-6.169762">
        <ele>999</ele>
        <time>2018-07-24T07:14:38.000Z</time>
      </trkpt>
      <trkpt lat="42.457029" lon="-6.169882">
        <ele>999</ele>
        <time>2018-07-24T07:14:40.000Z</time>
      </trkpt>
      <trkpt lat="42.457053" lon="-6.170001">
        <ele>999</ele>
        <time>2018-07-24T07:14:42.000Z</time>
      </trkpt>
      <trkpt lat="42.457078" lon="-6.170119">
        <ele>999</ele>
        <time>2018-07-24T07:14:44.000Z</time>
      </trkpt>
      <trkpt lat="42.457102" lon="-6.170241">
        <ele>999</ele>
        <time>2018-07-24T07:14:46.000Z</time>
      </trkpt>
      <trkpt lat="42.457124" lon="-6.170366">
        <ele>999</ele>
        <time>2018-07-24T07:14:48.000Z</time>
      </trkpt>
      <trkpt lat="42.457142" lon="-6.170491">
        <ele>999</ele>
        <time>2018-07-24T07:14:50.000Z</time>
      </trkpt>
      <trkpt lat="42.457161" lon="-6.170615">
        <ele>999</ele>
        <time>2018-07-24T07:14:52.000Z</time>
      </trkpt>
      <trkpt lat="42.457184" lon="-6.170736">
        <ele>999</ele>
        <time>2018-07-24T07:14:54.000Z</time>
      </trkpt>
      <trkpt lat="42.457206" lon="-6.170857">
        <ele>999</ele>
        <time>2018-07-24T07:14:56.000Z</time>
      </trkpt>
      <trkpt lat="42.457223" lon="-6.170979">
        <ele>999</ele>
        <time>2018-07-24T07:14:58.000Z</time>
      </trkpt>
      <trkpt lat="42.457247" lon="-6.171101">
        <ele>999</ele>
        <time>2018-07-24T07:15:00.000Z</time>
      </trkpt>
      <trkpt lat="42.457272" lon="-6.171222">
        <ele>999</ele>
        <time>2018-07-24T07:15:02.000Z</time>
      </trkpt>
      <trkpt lat="42.457297" lon="-6.171341">
        <ele>999.6</ele>
        <time>2018-07-24T07:15:04.000Z</time>
      </trkpt>
      <trkpt lat="42.457319" lon="-6.171459">
        <ele>1000</ele>
        <time>2018-07-24T07:15:06.000Z</time>
      </trkpt>
      <trkpt lat="42.457345" lon="-6.171578">
        <ele>1000</ele>
        <time>2018-07-24T07:15:08.000Z</time>
      </trkpt>
      <trkpt lat="42.457369" lon="-6.171698">
        <ele>1000.46094</ele>
        <time>2018-07-24T07:15:10.000Z</time>
      </trkpt>
      <trkpt lat="42.457392" lon="-6.171819">
        <ele>1000.41237249442</ele>
        <time>2018-07-24T07:15:12.000Z</time>
      </trkpt>
      <trkpt lat="42.457418" lon="-6.171942">
        <ele>1000</ele>
        <time>2018-07-24T07:15:14.000Z</time>
      </trkpt>
      <trkpt lat="42.457443" lon="-6.172064">
        <ele>1000</ele>
        <time>2018-07-24T07:15:16.000Z</time>
      </trkpt>
      <trkpt lat="42.457469" lon="-6.172183">
        <ele>1000</ele>
        <time>2018-07-24T07:15:18.000Z</time>
      </trkpt>
      <trkpt lat="42.457495" lon="-6.172304">
        <ele>1000</ele>
        <time>2018-07-24T07:15:20.000Z</time>
      </trkpt>
      <trkpt lat="42.457519" lon="-6.172425">
        <ele>1000</ele>
        <time>2018-07-24T07:15:22.000Z</time>
      </trkpt>
      <trkpt lat="42.457542" lon="-6.172543">
        <ele>1000</ele>
        <time>2018-07-24T07:15:24.000Z</time>
      </trkpt>
      <trkpt lat="42.457564" lon="-6.172661">
        <ele>1000.6</ele>
        <time>2018-07-24T07:15:26.000Z</time>
      </trkpt>
      <trkpt lat="42.457585" lon="-6.172783">
        <ele>1001</ele>
        <time>2018-07-24T07:15:28.000Z</time>
      </trkpt>
      <trkpt lat="42.457608" lon="-6.172906">
        <ele>1001</ele>
        <time>2018-07-24T07:15:30.000Z</time>
      </trkpt>
      <trkpt lat="42.457629" lon="-6.173034">
        <ele>1001</ele>
        <time>2018-07-24T07:15:32.000Z</time>
      </trkpt>
      <trkpt lat="42.457648" lon="-6.173161">
        <ele>1001</ele>
        <time>2018-07-24T07:15:34.000Z</time>
      </trkpt>
      <trkpt lat="42.45767" lon="-6.173283">
        <ele>1001.6</ele>
        <time>2018-07-24T07:15:36.000Z</time>
      </trkpt>
      <trkpt lat="42.457702" lon="-6.173458">
        <ele>1002</ele>
        <time>2018-07-24T07:15:39.000Z</time>
      </trkpt>
      <trkpt lat="42.457726" lon="-6.173625">
        <ele>1003</ele>
        <time>2018-07-24T07:15:41.990Z</time>
      </trkpt>
      <trkpt lat="42.457755" lon="-6.17379">
        <ele>1003</ele>
        <time>2018-07-24T07:15:45.000Z</time>
      </trkpt>
      <trkpt lat="42.45778" lon="-6.173954">
        <ele>1004</ele>
        <time>2018-07-24T07:15:47.990Z</time>
      </trkpt>
      <trkpt lat="42.457815" lon="-6.174117">
        <ele>1004</ele>
        <time>2018-07-24T07:15:50.990Z</time>
      </trkpt>
      <trkpt lat="42.457848" lon="-6.174266">
        <ele>1004</ele>
        <time>2018-07-24T07:15:53.990Z</time>
      </trkpt>
      <trkpt lat="42.45788" lon="-6.174414">
        <ele>1004</ele>
        <time>2018-07-24T07:15:56.990Z</time>
      </trkpt>
      <trkpt lat="42.457906" lon="-6.174558">
        <ele>1005</ele>
        <time>2018-07-24T07:16:00.000Z</time>
      </trkpt>
      <trkpt lat="42.457925" lon="-6.174713">
        <ele>1005</ele>
        <time>2018-07-24T07:16:02.990Z</time>
      </trkpt>
      <trkpt lat="42.45796" lon="-6.17486">
        <ele>1006</ele>
        <time>2018-07-24T07:16:05.990Z</time>
      </trkpt>
      <trkpt lat="42.457993" lon="-6.175011">
        <ele>1006</ele>
        <time>2018-07-24T07:16:08.990Z</time>
      </trkpt>
      <trkpt lat="42.458021" lon="-6.175174">
        <ele>1006</ele>
        <time>2018-07-24T07:16:11.990Z</time>
      </trkpt>
      <trkpt lat="42.458055" lon="-6.175324">
        <ele>1006</ele>
        <time>2018-07-24T07:16:15.000Z</time>
      </trkpt>
      <trkpt lat="42.458084" lon="-6.175476">
        <ele>1007</ele>
        <time>2018-07-24T07:16:17.990Z</time>
      </trkpt>
      <trkpt lat="42.458119" lon="-6.175638">
        <ele>1008</ele>
        <time>2018-07-24T07:16:20.990Z</time>
      </trkpt>
      <trkpt lat="42.458146" lon="-6.17579">
        <ele>1008</ele>
        <time>2018-07-24T07:16:23.990Z</time>
      </trkpt>
      <trkpt lat="42.458183" lon="-6.17595">
        <ele>1008.5900032</ele>
        <time>2018-07-24T07:16:26.990Z</time>
      </trkpt>
      <trkpt lat="42.458216" lon="-6.176107">
        <ele>1009</ele>
        <time>2018-07-24T07:16:30.000Z</time>
      </trkpt>
      <trkpt lat="42.458238" lon="-6.176272">
        <ele>1009</ele>
        <time>2018-07-24T07:16:32.990Z</time>
      </trkpt>
      <trkpt lat="42.458271" lon="-6.17645">
        <ele>1009</ele>
        <time>2018-07-24T07:16:35.990Z</time>
      </trkpt>
      <trkpt lat="42.458288" lon="-6.176575">
        <ele>1008</ele>
        <time>2018-07-24T07:16:37.990Z</time>
      </trkpt>
      <trkpt lat="42.458312" lon="-6.176702">
        <ele>1008</ele>
        <time>2018-07-24T07:16:40.000Z</time>
      </trkpt>
      <trkpt lat="42.458335" lon="-6.176829">
        <ele>1008</ele>
        <time>2018-07-24T07:16:41.990Z</time>
      </trkpt>
      <trkpt lat="42.458353" lon="-6.176956">
        <ele>1008</ele>
        <time>2018-07-24T07:16:43.990Z</time>
      </trkpt>
      <trkpt lat="42.458376" lon="-6.177083">
        <ele>1008</ele>
        <time>2018-07-24T07:16:45.990Z</time>
      </trkpt>
      <trkpt lat="42.458389" lon="-6.177217">
        <ele>1008</ele>
        <time>2018-07-24T07:16:47.990Z</time>
      </trkpt>
      <trkpt lat="42.458411" lon="-6.177345">
        <ele>1008</ele>
        <time>2018-07-24T07:16:50.000Z</time>
      </trkpt>
      <trkpt lat="42.458426" lon="-6.177476">
        <ele>1009</ele>
        <time>2018-07-24T07:16:51.990Z</time>
      </trkpt>
      <trkpt lat="42.458451" lon="-6.177601">
        <ele>1009</ele>
        <time>2018-07-24T07:16:53.990Z</time>
      </trkpt>
      <trkpt lat="42.458471" lon="-6.177726">
        <ele>1009</ele>
        <time>2018-07-24T07:16:55.990Z</time>
      </trkpt>
      <trkpt lat="42.458482" lon="-6.177883">
        <ele>1008.54263204374</ele>
        <time>2018-07-24T07:16:58.990Z</time>
      </trkpt>
      <trkpt lat="42.458499" lon="-6.178031">
        <ele>1008.5900032</ele>
        <time>2018-07-24T07:17:01.990Z</time>
      </trkpt>
      <trkpt lat="42.458524" lon="-6.178173">
        <ele>1009</ele>
        <time>2018-07-24T07:17:05.000Z</time>
      </trkpt>
      <trkpt lat="42.458542" lon="-6.178299">
        <ele>1009</ele>
        <time>2018-07-24T07:17:07.990Z</time>
      </trkpt>
      <trkpt lat="42.458566" lon="-6.178437">
        <ele>1009</ele>
        <time>2018-07-24T07:17:10.990Z</time>
      </trkpt>
      <trkpt lat="42.458585" lon="-6.178597">
        <ele>1009</ele>
        <time>2018-07-24T07:17:13.990Z</time>
      </trkpt>
      <trkpt lat="42.458612" lon="-6.17875">
        <ele>1009</ele>
        <time>2018-07-24T07:17:16.990Z</time>
      </trkpt>
      <trkpt lat="42.458637" lon="-6.178897">
        <ele>1009</ele>
        <time>2018-07-24T07:17:20.000Z</time>
      </trkpt>
      <trkpt lat="42.458668" lon="-6.179054">
        <ele>1009</ele>
        <time>2018-07-24T07:17:22.990Z</time>
      </trkpt>
      <trkpt lat="42.458691" lon="-6.179192">
        <ele>1009</ele>
        <time>2018-07-24T07:17:25.990Z</time>
      </trkpt>
      <trkpt lat="42.458712" lon="-6.179343">
        <ele>1009</ele>
        <time>2018-07-24T07:17:28.990Z</time>
      </trkpt>
      <trkpt lat="42.458739" lon="-6.179513">
        <ele>1009</ele>
        <time>2018-07-24T07:17:31.990Z</time>
      </trkpt>
      <trkpt lat="42.458771" lon="-6.179683">
        <ele>1009</ele>
        <time>2018-07-24T07:17:35.000Z</time>
      </trkpt>
      <trkpt lat="42.45879" lon="-6.179855">
        <ele>1009</ele>
        <time>2018-07-24T07:17:37.990Z</time>
      </trkpt>
      <trkpt lat="42.458819" lon="-6.180019">
        <ele>1009</ele>
        <time>2018-07-24T07:17:40.990Z</time>
      </trkpt>
      <trkpt lat="42.458842" lon="-6.180139">
        <ele>1009</ele>
        <time>2018-07-24T07:17:42.990Z</time>
      </trkpt>
      <trkpt lat="42.458861" lon="-6.180266">
        <ele>1009.6</ele>
        <time>2018-07-24T07:17:45.000Z</time>
      </trkpt>
      <trkpt lat="42.458881" lon="-6.18039">
        <ele>1010</ele>
        <time>2018-07-24T07:17:46.990Z</time>
      </trkpt>
      <trkpt lat="42.458896" lon="-6.180512">
        <ele>1010</ele>
        <time>2018-07-24T07:17:48.990Z</time>
      </trkpt>
      <trkpt lat="42.458918" lon="-6.180636">
        <ele>1010</ele>
        <time>2018-07-24T07:17:50.990Z</time>
      </trkpt>
      <trkpt lat="42.458936" lon="-6.180759">
        <ele>1010</ele>
        <time>2018-07-24T07:17:52.990Z</time>
      </trkpt>
      <trkpt lat="42.458953" lon="-6.180883">
        <ele>1010</ele>
        <time>2018-07-24T07:17:55.000Z</time>
      </trkpt>
      <trkpt lat="42.458973" lon="-6.181001">
        <ele>1009.59420101658</ele>
        <time>2018-07-24T07:17:56.990Z</time>
      </trkpt>
      <trkpt lat="42.458999" lon="-6.181172">
        <ele>1010</ele>
        <time>2018-07-24T07:18:00.000Z</time>
      </trkpt>
      <trkpt lat="42.459019" lon="-6.181347">
        <ele>1010</ele>
        <time>2018-07-24T07:18:02.990Z</time>
      </trkpt>
      <trkpt lat="42.459038" lon="-6.181471">
        <ele>1010</ele>
        <time>2018-07-24T07:18:05.000Z</time>
      </trkpt>
      <trkpt lat="42.45906" lon="-6.181592">
        <ele>1010</ele>
        <time>2018-07-24T07:18:06.990Z</time>
      </trkpt>
      <trkpt lat="42.459081" lon="-6.181715">
        <ele>1010.5900032</ele>
        <time>2018-07-24T07:18:08.990Z</time>
      </trkpt>
      <trkpt lat="42.459102" lon="-6.181896">
        <ele>1011</ele>
        <time>2018-07-24T07:18:11.990Z</time>
      </trkpt>
      <trkpt lat="42.459125" lon="-6.182075">
        <ele>1011</ele>
        <time>2018-07-24T07:18:15.000Z</time>
      </trkpt>
      <trkpt lat="42.459148" lon="-6.182258">
        <ele>1010.57745767906</ele>
        <time>2018-07-24T07:18:17.990Z</time>
      </trkpt>
      <trkpt lat="42.459173" lon="-6.182382">
        <ele>1010</ele>
        <time>2018-07-24T07:18:20.000Z</time>
      </trkpt>
      <trkpt lat="42.459191" lon="-6.182507">
        <ele>1010</ele>
        <time>2018-07-24T07:18:21.990Z</time>
      </trkpt>
      <trkpt lat="42.459206" lon="-6.182636">
        <ele>1010</ele>
        <time>2018-07-24T07:18:23.990Z</time>
      </trkpt>
      <trkpt lat="42.459227" lon="-6.182762">
        <ele>1010</ele>
        <time>2018-07-24T07:18:25.990Z</time>
      </trkpt>
      <trkpt lat="42.459247" lon="-6.182888">
        <ele>1010</ele>
        <time>2018-07-24T07:18:27.990Z</time>
      </trkpt>
      <trkpt lat="42.45927" lon="-6.183021">
        <ele>1010</ele>
        <time>2018-07-24T07:18:30.000Z</time>
      </trkpt>
      <trkpt lat="42.459289" lon="-6.183148">
        <ele>1010</ele>
        <time>2018-07-24T07:18:31.990Z</time>
      </trkpt>
      <trkpt lat="42.459319" lon="-6.183276">
        <ele>1010</ele>
        <time>2018-07-24T07:18:33.990Z</time>
      </trkpt>
      <trkpt lat="42.459357" lon="-6.183402">
        <ele>1010</ele>
        <time>2018-07-24T07:18:35.990Z</time>
      </trkpt>
      <trkpt lat="42.459391" lon="-6.183519">
        <ele>1010</ele>
        <time>2018-07-24T07:18:37.990Z</time>
      </trkpt>
      <trkpt lat="42.459429" lon="-6.183643">
        <ele>1010</ele>
        <time>2018-07-24T07:18:40.000Z</time>
      </trkpt>
      <trkpt lat="42.459487" lon="-6.183814">
        <ele>1010</ele>
        <time>2018-07-24T07:18:42.990Z</time>
      </trkpt>
      <trkpt lat="42.459528" lon="-6.183933">
        <ele>1010</ele>
        <time>2018-07-24T07:18:45.000Z</time>
      </trkpt>
      <trkpt lat="42.459571" lon="-6.184054">
        <ele>1010</ele>
        <time>2018-07-24T07:18:46.990Z</time>
      </trkpt>
      <trkpt lat="42.459611" lon="-6.184166">
        <ele>1010</ele>
        <time>2018-07-24T07:18:48.990Z</time>
      </trkpt>
      <trkpt lat="42.459646" lon="-6.184291">
        <ele>1010</ele>
        <time>2018-07-24T07:18:50.990Z</time>
      </trkpt>
      <trkpt lat="42.459697" lon="-6.184409">
        <ele>1010</ele>
        <time>2018-07-24T07:18:52.990Z</time>
      </trkpt>
      <trkpt lat="42.459742" lon="-6.184527">
        <ele>1010</ele>
        <time>2018-07-24T07:18:55.000Z</time>
      </trkpt>
      <trkpt lat="42.459782" lon="-6.184647">
        <ele>1010</ele>
        <time>2018-07-24T07:18:56.990Z</time>
      </trkpt>
      <trkpt lat="42.459816" lon="-6.184763">
        <ele>1010</ele>
        <time>2018-07-24T07:18:58.990Z</time>
      </trkpt>
      <trkpt lat="42.45986" lon="-6.18492">
        <ele>1010</ele>
        <time>2018-07-24T07:19:01.990Z</time>
      </trkpt>
      <trkpt lat="42.459898" lon="-6.185086">
        <ele>1010.6</ele>
        <time>2018-07-24T07:19:05.000Z</time>
      </trkpt>
      <trkpt lat="42.459922" lon="-6.185247">
        <ele>1010.5900032</ele>
        <time>2018-07-24T07:19:07.990Z</time>
      </trkpt>
      <trkpt lat="42.459962" lon="-6.18541">
        <ele>1010.5857150694</ele>
        <time>2018-07-24T07:19:10.990Z</time>
      </trkpt>
      <trkpt lat="42.45999" lon="-6.185553">
        <ele>1010.42028716655</ele>
        <time>2018-07-24T07:19:13.000Z</time>
      </trkpt>
      <trkpt lat="42.460018" lon="-6.18569">
        <ele>1011</ele>
        <time>2018-07-24T07:19:15.000Z</time>
      </trkpt>
      <trkpt lat="42.460034" lon="-6.185811">
        <ele>1011</ele>
        <time>2018-07-24T07:19:17.000Z</time>
      </trkpt>
      <trkpt lat="42.460045" lon="-6.185975">
        <ele>1011</ele>
        <time>2018-07-24T07:19:20.000Z</time>
      </trkpt>
      <trkpt lat="42.460061" lon="-6.186106">
        <ele>1012</ele>
        <time>2018-07-24T07:19:23.000Z</time>
      </trkpt>
      <trkpt lat="42.460078" lon="-6.186237">
        <ele>1012</ele>
        <time>2018-07-24T07:19:25.990Z</time>
      </trkpt>
      <trkpt lat="42.460106" lon="-6.186421">
        <ele>1012</ele>
        <time>2018-07-24T07:19:29.000Z</time>
      </trkpt>
      <trkpt lat="42.46015" lon="-6.186576">
        <ele>1013</ele>
        <time>2018-07-24T07:19:32.000Z</time>
      </trkpt>
      <trkpt lat="42.460176" lon="-6.186719">
        <ele>1014</ele>
        <time>2018-07-24T07:19:34.990Z</time>
      </trkpt>
      <trkpt lat="42.460199" lon="-6.186885">
        <ele>1013</ele>
        <time>2018-07-24T07:19:37.990Z</time>
      </trkpt>
      <trkpt lat="42.460224" lon="-6.187053">
        <ele>1014</ele>
        <time>2018-07-24T07:19:40.990Z</time>
      </trkpt>
      <trkpt lat="42.460253" lon="-6.187221">
        <ele>1014</ele>
        <time>2018-07-24T07:19:43.990Z</time>
      </trkpt>
      <trkpt lat="42.460278" lon="-6.187387">
        <ele>1014</ele>
        <time>2018-07-24T07:19:47.000Z</time>
      </trkpt>
      <trkpt lat="42.460294" lon="-6.187541">
        <ele>1014</ele>
        <time>2018-07-24T07:19:49.990Z</time>
      </trkpt>
      <trkpt lat="42.460321" lon="-6.187705">
        <ele>1014</ele>
        <time>2018-07-24T07:19:52.990Z</time>
      </trkpt>
      <trkpt lat="42.460336" lon="-6.187857">
        <ele>1015</ele>
        <time>2018-07-24T07:19:55.990Z</time>
      </trkpt>
      <trkpt lat="42.460378" lon="-6.18803">
        <ele>1015</ele>
        <time>2018-07-24T07:19:58.990Z</time>
      </trkpt>
      <trkpt lat="42.460409" lon="-6.1882">
        <ele>1016</ele>
        <time>2018-07-24T07:20:02.000Z</time>
      </trkpt>
      <trkpt lat="42.460405" lon="-6.188348">
        <ele>1016</ele>
        <time>2018-07-24T07:20:04.990Z</time>
      </trkpt>
      <trkpt lat="42.460422" lon="-6.188498">
        <ele>1016.5900032</ele>
        <time>2018-07-24T07:20:07.990Z</time>
      </trkpt>
      <trkpt lat="42.460442" lon="-6.188645">
        <ele>1017</ele>
        <time>2018-07-24T07:20:10.990Z</time>
      </trkpt>
      <trkpt lat="42.460466" lon="-6.188807">
        <ele>1018</ele>
        <time>2018-07-24T07:20:13.990Z</time>
      </trkpt>
      <trkpt lat="42.460495" lon="-6.188966">
        <ele>1018</ele>
        <time>2018-07-24T07:20:17.000Z</time>
      </trkpt>
      <trkpt lat="42.460526" lon="-6.189135">
        <ele>1018</ele>
        <time>2018-07-24T07:20:19.990Z</time>
      </trkpt>
      <trkpt lat="42.460555" lon="-6.189298">
        <ele>1018</ele>
        <time>2018-07-24T07:20:22.990Z</time>
      </trkpt>
      <trkpt lat="42.460572" lon="-6.189459">
        <ele>1018</ele>
        <time>2018-07-24T07:20:25.990Z</time>
      </trkpt>
      <trkpt lat="42.460606" lon="-6.18961">
        <ele>1018</ele>
        <time>2018-07-24T07:20:28.990Z</time>
      </trkpt>
      <trkpt lat="42.460631" lon="-6.189767">
        <ele>1018.6</ele>
        <time>2018-07-24T07:20:32.000Z</time>
      </trkpt>
      <trkpt lat="42.460657" lon="-6.189928">
        <ele>1019</ele>
        <time>2018-07-24T07:20:34.990Z</time>
      </trkpt>
      <trkpt lat="42.460686" lon="-6.190095">
        <ele>1019</ele>
        <time>2018-07-24T07:20:37.990Z</time>
      </trkpt>
      <trkpt lat="42.460707" lon="-6.190261">
        <ele>1020</ele>
        <time>2018-07-24T07:20:40.990Z</time>
      </trkpt>
      <trkpt lat="42.460723" lon="-6.190432">
        <ele>1020</ele>
        <time>2018-07-24T07:20:43.990Z</time>
      </trkpt>
      <trkpt lat="42.460745" lon="-6.190553">
        <ele>1020.5900032</ele>
        <time>2018-07-24T07:20:45.990Z</time>
      </trkpt>
      <trkpt lat="42.460774" lon="-6.190728">
        <ele>1020</ele>
        <time>2018-07-24T07:20:48.990Z</time>
      </trkpt>
      <trkpt lat="42.460797" lon="-6.190852">
        <ele>1020</ele>
        <time>2018-07-24T07:20:50.990Z</time>
      </trkpt>
      <trkpt lat="42.460823" lon="-6.190971">
        <ele>1020</ele>
        <time>2018-07-24T07:20:52.990Z</time>
      </trkpt>
      <trkpt lat="42.460839" lon="-6.191093">
        <ele>1020</ele>
        <time>2018-07-24T07:20:54.990Z</time>
      </trkpt>
      <trkpt lat="42.460861" lon="-6.191215">
        <ele>1020</ele>
        <time>2018-07-24T07:20:57.000Z</time>
      </trkpt>
      <trkpt lat="42.460875" lon="-6.191339">
        <ele>1020</ele>
        <time>2018-07-24T07:20:58.990Z</time>
      </trkpt>
      <trkpt lat="42.460891" lon="-6.191465">
        <ele>1020</ele>
        <time>2018-07-24T07:21:00.990Z</time>
      </trkpt>
      <trkpt lat="42.460911" lon="-6.191595">
        <ele>1021</ele>
        <time>2018-07-24T07:21:02.990Z</time>
      </trkpt>
      <trkpt lat="42.460921" lon="-6.191725">
        <ele>1021</ele>
        <time>2018-07-24T07:21:04.990Z</time>
      </trkpt>
      <trkpt lat="42.460948" lon="-6.19186">
        <ele>1021</ele>
        <time>2018-07-24T07:21:07.000Z</time>
      </trkpt>
      <trkpt lat="42.46096" lon="-6.191987">
        <ele>1021</ele>
        <time>2018-07-24T07:21:08.990Z</time>
      </trkpt>
      <trkpt lat="42.460971" lon="-6.192115">
        <ele>1021</ele>
        <time>2018-07-24T07:21:10.990Z</time>
      </trkpt>
      <trkpt lat="42.460991" lon="-6.192237">
        <ele>1021</ele>
        <time>2018-07-24T07:21:12.990Z</time>
      </trkpt>
      <trkpt lat="42.461" lon="-6.192364">
        <ele>1021</ele>
        <time>2018-07-24T07:21:14.990Z</time>
      </trkpt>
      <trkpt lat="42.461014" lon="-6.192507">
        <ele>1021</ele>
        <time>2018-07-24T07:21:17.000Z</time>
      </trkpt>
      <trkpt lat="42.461013" lon="-6.192642">
        <ele>1021</ele>
        <time>2018-07-24T07:21:18.990Z</time>
      </trkpt>
      <trkpt lat="42.461012" lon="-6.192781">
        <ele>1021</ele>
        <time>2018-07-24T07:21:20.990Z</time>
      </trkpt>
      <trkpt lat="42.461019" lon="-6.192922">
        <ele>1021</ele>
        <time>2018-07-24T07:21:22.990Z</time>
      </trkpt>
      <trkpt lat="42.461023" lon="-6.193062">
        <ele>1021</ele>
        <time>2018-07-24T07:21:24.990Z</time>
      </trkpt>
      <trkpt lat="42.461027" lon="-6.193206">
        <ele>1021</ele>
        <time>2018-07-24T07:21:27.000Z</time>
      </trkpt>
      <trkpt lat="42.461019" lon="-6.193344">
        <ele>1021</ele>
        <time>2018-07-24T07:21:28.990Z</time>
      </trkpt>
      <trkpt lat="42.461019" lon="-6.193487">
        <ele>1021</ele>
        <time>2018-07-24T07:21:30.990Z</time>
      </trkpt>
      <trkpt lat="42.461021" lon="-6.193626">
        <ele>1021</ele>
        <time>2018-07-24T07:21:32.990Z</time>
      </trkpt>
      <trkpt lat="42.461018" lon="-6.193771">
        <ele>1021</ele>
        <time>2018-07-24T07:21:34.990Z</time>
      </trkpt>
      <trkpt lat="42.461019" lon="-6.19391">
        <ele>1021.6</ele>
        <time>2018-07-24T07:21:37.000Z</time>
      </trkpt>
      <trkpt lat="42.461019" lon="-6.194046">
        <ele>1022</ele>
        <time>2018-07-24T07:21:38.990Z</time>
      </trkpt>
      <trkpt lat="42.461018" lon="-6.19418">
        <ele>1022</ele>
        <time>2018-07-24T07:21:40.990Z</time>
      </trkpt>
      <trkpt lat="42.461021" lon="-6.194313">
        <ele>1022</ele>
        <time>2018-07-24T07:21:42.990Z</time>
      </trkpt>
      <trkpt lat="42.461018" lon="-6.194443">
        <ele>1022</ele>
        <time>2018-07-24T07:21:44.990Z</time>
      </trkpt>
      <trkpt lat="42.461017" lon="-6.194579">
        <ele>1022</ele>
        <time>2018-07-24T07:21:47.000Z</time>
      </trkpt>
      <trkpt lat="42.461014" lon="-6.194721">
        <ele>1022</ele>
        <time>2018-07-24T07:21:48.990Z</time>
      </trkpt>
      <trkpt lat="42.461009" lon="-6.194862">
        <ele>1022</ele>
        <time>2018-07-24T07:21:50.990Z</time>
      </trkpt>
      <trkpt lat="42.461008" lon="-6.195008">
        <ele>1022</ele>
        <time>2018-07-24T07:21:52.990Z</time>
      </trkpt>
      <trkpt lat="42.461006" lon="-6.195154">
        <ele>1022</ele>
        <time>2018-07-24T07:21:54.990Z</time>
      </trkpt>
      <trkpt lat="42.460996" lon="-6.195286">
        <ele>1022.42028716655</ele>
        <time>2018-07-24T07:21:57.000Z</time>
      </trkpt>
      <trkpt lat="42.460986" lon="-6.195425">
        <ele>1023</ele>
        <time>2018-07-24T07:21:58.990Z</time>
      </trkpt>
      <trkpt lat="42.460983" lon="-6.195567">
        <ele>1023</ele>
        <time>2018-07-24T07:22:00.990Z</time>
      </trkpt>
      <trkpt lat="42.460981" lon="-6.195709">
        <ele>1023</ele>
        <time>2018-07-24T07:22:02.990Z</time>
      </trkpt>
      <trkpt lat="42.460975" lon="-6.195854">
        <ele>1023</ele>
        <time>2018-07-24T07:22:04.990Z</time>
      </trkpt>
      <trkpt lat="42.460966" lon="-6.19599">
        <ele>1023</ele>
        <time>2018-07-24T07:22:07.000Z</time>
      </trkpt>
      <trkpt lat="42.460959" lon="-6.196121">
        <ele>1023</ele>
        <time>2018-07-24T07:22:08.990Z</time>
      </trkpt>
      <trkpt lat="42.460955" lon="-6.196259">
        <ele>1023.5900032</ele>
        <time>2018-07-24T07:22:10.990Z</time>
      </trkpt>
      <trkpt lat="42.460955" lon="-6.196399">
        <ele>1024</ele>
        <time>2018-07-24T07:22:12.990Z</time>
      </trkpt>
      <trkpt lat="42.460957" lon="-6.196535">
        <ele>1024</ele>
        <time>2018-07-24T07:22:14.990Z</time>
      </trkpt>
      <trkpt lat="42.460961" lon="-6.196672">
        <ele>1024</ele>
        <time>2018-07-24T07:22:17.000Z</time>
      </trkpt>
      <trkpt lat="42.460961" lon="-6.196808">
        <ele>1024</ele>
        <time>2018-07-24T07:22:18.990Z</time>
      </trkpt>
      <trkpt lat="42.460956" lon="-6.19694">
        <ele>1024.5900032</ele>
        <time>2018-07-24T07:22:20.990Z</time>
      </trkpt>
      <trkpt lat="42.460955" lon="-6.197077">
        <ele>1025</ele>
        <time>2018-07-24T07:22:22.990Z</time>
      </trkpt>
      <trkpt lat="42.460951" lon="-6.19721">
        <ele>1025</ele>
        <time>2018-07-24T07:22:24.990Z</time>
      </trkpt>
      <trkpt lat="42.460955" lon="-6.19735">
        <ele>1025</ele>
        <time>2018-07-24T07:22:27.000Z</time>
      </trkpt>
      <trkpt lat="42.460956" lon="-6.197476">
        <ele>1025.5900032</ele>
        <time>2018-07-24T07:22:28.990Z</time>
      </trkpt>
      <trkpt lat="42.460958" lon="-6.197603">
        <ele>1026</ele>
        <time>2018-07-24T07:22:30.990Z</time>
      </trkpt>
      <trkpt lat="42.460956" lon="-6.197731">
        <ele>1026</ele>
        <time>2018-07-24T07:22:32.990Z</time>
      </trkpt>
      <trkpt lat="42.460955" lon="-6.197854">
        <ele>1026</ele>
        <time>2018-07-24T07:22:34.990Z</time>
      </trkpt>
      <trkpt lat="42.460953" lon="-6.197979">
        <ele>1026</ele>
        <time>2018-07-24T07:22:37.000Z</time>
      </trkpt>
      <trkpt lat="42.460952" lon="-6.198104">
        <ele>1026</ele>
        <time>2018-07-24T07:22:38.990Z</time>
      </trkpt>
      <trkpt lat="42.460952" lon="-6.198227">
        <ele>1026</ele>
        <time>2018-07-24T07:22:40.990Z</time>
      </trkpt>
      <trkpt lat="42.460953" lon="-6.198352">
        <ele>1026</ele>
        <time>2018-07-24T07:22:42.990Z</time>
      </trkpt>
      <trkpt lat="42.460957" lon="-6.198474">
        <ele>1026.5900032</ele>
        <time>2018-07-24T07:22:44.990Z</time>
      </trkpt>
      <trkpt lat="42.460966" lon="-6.198606">
        <ele>1027</ele>
        <time>2018-07-24T07:22:47.000Z</time>
      </trkpt>
      <trkpt lat="42.460985" lon="-6.198729">
        <ele>1027.40579898342</ele>
        <time>2018-07-24T07:22:48.990Z</time>
      </trkpt>
      <trkpt lat="42.461011" lon="-6.198849">
        <ele>1028</ele>
        <time>2018-07-24T07:22:50.990Z</time>
      </trkpt>
      <trkpt lat="42.461036" lon="-6.198976">
        <ele>1028</ele>
        <time>2018-07-24T07:22:52.990Z</time>
      </trkpt>
      <trkpt lat="42.461066" lon="-6.199106">
        <ele>1028</ele>
        <time>2018-07-24T07:22:54.990Z</time>
      </trkpt>
      <trkpt lat="42.461095" lon="-6.19924">
        <ele>1028</ele>
        <time>2018-07-24T07:22:57.000Z</time>
      </trkpt>
      <trkpt lat="42.461121" lon="-6.199372">
        <ele>1028</ele>
        <time>2018-07-24T07:22:58.990Z</time>
      </trkpt>
      <trkpt lat="42.461154" lon="-6.199494">
        <ele>1028</ele>
        <time>2018-07-24T07:23:00.990Z</time>
      </trkpt>
      <trkpt lat="42.461187" lon="-6.199616">
        <ele>1028</ele>
        <time>2018-07-24T07:23:02.990Z</time>
      </trkpt>
      <trkpt lat="42.461221" lon="-6.19974">
        <ele>1028</ele>
        <time>2018-07-24T07:23:04.990Z</time>
      </trkpt>
      <trkpt lat="42.461258" lon="-6.199875">
        <ele>1028</ele>
        <time>2018-07-24T07:23:07.000Z</time>
      </trkpt>
      <trkpt lat="42.461281" lon="-6.200006">
        <ele>1027</ele>
        <time>2018-07-24T07:23:08.990Z</time>
      </trkpt>
      <trkpt lat="42.461306" lon="-6.200143">
        <ele>1027</ele>
        <time>2018-07-24T07:23:10.990Z</time>
      </trkpt>
      <trkpt lat="42.461325" lon="-6.200276">
        <ele>1027</ele>
        <time>2018-07-24T07:23:12.990Z</time>
      </trkpt>
      <trkpt lat="42.461338" lon="-6.200412">
        <ele>1027</ele>
        <time>2018-07-24T07:23:14.990Z</time>
      </trkpt>
      <trkpt lat="42.461342" lon="-6.200544">
        <ele>1027</ele>
        <time>2018-07-24T07:23:17.000Z</time>
      </trkpt>
      <trkpt lat="42.461346" lon="-6.200669">
        <ele>1027</ele>
        <time>2018-07-24T07:23:18.990Z</time>
      </trkpt>
      <trkpt lat="42.461345" lon="-6.200791">
        <ele>1027</ele>
        <time>2018-07-24T07:23:20.990Z</time>
      </trkpt>
      <trkpt lat="42.46135" lon="-6.200913">
        <ele>1027</ele>
        <time>2018-07-24T07:23:22.990Z</time>
      </trkpt>
      <trkpt lat="42.461359" lon="-6.201044">
        <ele>1027</ele>
        <time>2018-07-24T07:23:24.990Z</time>
      </trkpt>
      <trkpt lat="42.461355" lon="-6.201178">
        <ele>1027</ele>
        <time>2018-07-24T07:23:27.000Z</time>
      </trkpt>
      <trkpt lat="42.461356" lon="-6.2013">
        <ele>1027</ele>
        <time>2018-07-24T07:23:28.990Z</time>
      </trkpt>
      <trkpt lat="42.461364" lon="-6.20143">
        <ele>1027</ele>
        <time>2018-07-24T07:23:30.990Z</time>
      </trkpt>
      <trkpt lat="42.461383" lon="-6.20155">
        <ele>1027</ele>
        <time>2018-07-24T07:23:32.990Z</time>
      </trkpt>
      <trkpt lat="42.4614" lon="-6.201726">
        <ele>1027</ele>
        <time>2018-07-24T07:23:35.990Z</time>
      </trkpt>
      <trkpt lat="42.461426" lon="-6.201846">
        <ele>1027</ele>
        <time>2018-07-24T07:23:37.990Z</time>
      </trkpt>
      <trkpt lat="42.461459" lon="-6.202013">
        <ele>1026</ele>
        <time>2018-07-24T07:23:40.990Z</time>
      </trkpt>
      <trkpt lat="42.461493" lon="-6.202185">
        <ele>1026</ele>
        <time>2018-07-24T07:23:43.990Z</time>
      </trkpt>
      <trkpt lat="42.461528" lon="-6.202359">
        <ele>1026</ele>
        <time>2018-07-24T07:23:47.000Z</time>
      </trkpt>
      <trkpt lat="42.461558" lon="-6.202487">
        <ele>1025</ele>
        <time>2018-07-24T07:23:48.990Z</time>
      </trkpt>
      <trkpt lat="42.46159" lon="-6.202611">
        <ele>1025</ele>
        <time>2018-07-24T07:23:50.990Z</time>
      </trkpt>
      <trkpt lat="42.461622" lon="-6.202734">
        <ele>1025</ele>
        <time>2018-07-24T07:23:52.990Z</time>
      </trkpt>
      <trkpt lat="42.461663" lon="-6.202904">
        <ele>1025.5900032</ele>
        <time>2018-07-24T07:23:55.990Z</time>
      </trkpt>
      <trkpt lat="42.4617" lon="-6.203035">
        <ele>1026</ele>
        <time>2018-07-24T07:23:57.990Z</time>
      </trkpt>
      <trkpt lat="42.46173" lon="-6.203166">
        <ele>1026</ele>
        <time>2018-07-24T07:23:59.990Z</time>
      </trkpt>
      <trkpt lat="42.46176" lon="-6.2033">
        <ele>1026</ele>
        <time>2018-07-24T07:24:02.000Z</time>
      </trkpt>
      <trkpt lat="42.461787" lon="-6.20343">
        <ele>1026</ele>
        <time>2018-07-24T07:24:03.990Z</time>
      </trkpt>
      <trkpt lat="42.461819" lon="-6.203556">
        <ele>1026</ele>
        <time>2018-07-24T07:24:05.990Z</time>
      </trkpt>
      <trkpt lat="42.461839" lon="-6.203679">
        <ele>1026</ele>
        <time>2018-07-24T07:24:07.990Z</time>
      </trkpt>
      <trkpt lat="42.46186" lon="-6.203854">
        <ele>1026</ele>
        <time>2018-07-24T07:24:10.990Z</time>
      </trkpt>
      <trkpt lat="42.461907" lon="-6.204021">
        <ele>1026</ele>
        <time>2018-07-24T07:24:13.990Z</time>
      </trkpt>
      <trkpt lat="42.461948" lon="-6.204176">
        <ele>1026</ele>
        <time>2018-07-24T07:24:17.000Z</time>
      </trkpt>
      <trkpt lat="42.461991" lon="-6.204324">
        <ele>1026</ele>
        <time>2018-07-24T07:24:19.990Z</time>
      </trkpt>
      <trkpt lat="42.462055" lon="-6.20443">
        <ele>1026</ele>
        <time>2018-07-24T07:24:22.990Z</time>
      </trkpt>
      <trkpt lat="42.462125" lon="-6.204544">
        <ele>1026</ele>
        <time>2018-07-24T07:24:25.990Z</time>
      </trkpt>
      <trkpt lat="42.462199" lon="-6.204673">
        <ele>1026</ele>
        <time>2018-07-24T07:24:28.990Z</time>
      </trkpt>
      <trkpt lat="42.462274" lon="-6.204813">
        <ele>1026</ele>
        <time>2018-07-24T07:24:32.000Z</time>
      </trkpt>
      <trkpt lat="42.462346" lon="-6.204941">
        <ele>1026</ele>
        <time>2018-07-24T07:24:34.990Z</time>
      </trkpt>
      <trkpt lat="42.462421" lon="-6.205074">
        <ele>1026</ele>
        <time>2018-07-24T07:24:37.990Z</time>
      </trkpt>
      <trkpt lat="42.462488" lon="-6.205218">
        <ele>1026</ele>
        <time>2018-07-24T07:24:40.990Z</time>
      </trkpt>
      <trkpt lat="42.462569" lon="-6.205364">
        <ele>1026</ele>
        <time>2018-07-24T07:24:43.990Z</time>
      </trkpt>
      <trkpt lat="42.462645" lon="-6.205516">
        <ele>1026</ele>
        <time>2018-07-24T07:24:47.000Z</time>
      </trkpt>
      <trkpt lat="42.46268" lon="-6.205632">
        <ele>1026</ele>
        <time>2018-07-24T07:24:48.990Z</time>
      </trkpt>
      <trkpt lat="42.46273" lon="-6.205796">
        <ele>1026</ele>
        <time>2018-07-24T07:24:52.000Z</time>
      </trkpt>
      <trkpt lat="42.462771" lon="-6.205936">
        <ele>1026</ele>
        <time>2018-07-24T07:24:54.990Z</time>
      </trkpt>
      <trkpt lat="42.4628" lon="-6.206081">
        <ele>1026</ele>
        <time>2018-07-24T07:24:57.990Z</time>
      </trkpt>
      <trkpt lat="42.462786" lon="-6.206243">
        <ele>1026</ele>
        <time>2018-07-24T07:25:00.990Z</time>
      </trkpt>
      <trkpt lat="42.462774" lon="-6.206367">
        <ele>1026</ele>
        <time>2018-07-24T07:25:02.990Z</time>
      </trkpt>
      <trkpt lat="42.462758" lon="-6.206491">
        <ele>1026</ele>
        <time>2018-07-24T07:25:04.990Z</time>
      </trkpt>
      <trkpt lat="42.462762" lon="-6.206617">
        <ele>1026</ele>
        <time>2018-07-24T07:25:07.000Z</time>
      </trkpt>
      <trkpt lat="42.462736" lon="-6.206758">
        <ele>1026</ele>
        <time>2018-07-24T07:25:09.000Z</time>
      </trkpt>
      <trkpt lat="42.462782" lon="-6.206872">
        <ele>1027</ele>
        <time>2018-07-24T07:25:34.000Z</time>
      </trkpt>
      <trkpt lat="42.462807" lon="-6.207003">
        <ele>1027</ele>
        <time>2018-07-24T07:25:37.990Z</time>
      </trkpt>
      <trkpt lat="42.462842" lon="-6.207126">
        <ele>1027</ele>
        <time>2018-07-24T07:25:42.000Z</time>
      </trkpt>
      <trkpt lat="42.462898" lon="-6.207231">
        <ele>1026</ele>
        <time>2018-07-24T07:25:47.000Z</time>
      </trkpt>
      <trkpt lat="42.462971" lon="-6.207358">
        <ele>1027</ele>
        <time>2018-07-24T07:25:50.990Z</time>
      </trkpt>
      <trkpt lat="42.463023" lon="-6.20749">
        <ele>1027</ele>
        <time>2018-07-24T07:25:53.990Z</time>
      </trkpt>
      <trkpt lat="42.463056" lon="-6.207645">
        <ele>1028</ele>
        <time>2018-07-24T07:25:57.990Z</time>
      </trkpt>
      <trkpt lat="42.463058" lon="-6.207802">
        <ele>1027</ele>
        <time>2018-07-24T07:26:00.990Z</time>
      </trkpt>
      <trkpt lat="42.463062" lon="-6.207966">
        <ele>1027</ele>
        <time>2018-07-24T07:26:03.990Z</time>
      </trkpt>
      <trkpt lat="42.463019" lon="-6.20809">
        <ele>1027</ele>
        <time>2018-07-24T07:26:07.000Z</time>
      </trkpt>
      <trkpt lat="42.462909" lon="-6.208198">
        <ele>1026.6999936</ele>
        <time>2018-07-24T07:26:09.990Z</time>
      </trkpt>
      <trkpt lat="42.462834" lon="-6.20828">
        <ele>1026</ele>
        <time>2018-07-24T07:26:12.990Z</time>
      </trkpt>
      <trkpt lat="42.462735" lon="-6.208344">
        <ele>1026</ele>
        <time>2018-07-24T07:26:17.990Z</time>
      </trkpt>
      <trkpt lat="42.462644" lon="-6.208362">
        <ele>1025</ele>
        <time>2018-07-24T07:26:20.990Z</time>
      </trkpt>
      <trkpt lat="42.462587" lon="-6.208483">
        <ele>1024.59420101658</ele>
        <time>2018-07-24T07:26:24.990Z</time>
      </trkpt>
      <trkpt lat="42.462619" lon="-6.208646">
        <ele>1024</ele>
        <time>2018-07-24T07:26:27.990Z</time>
      </trkpt>
      <trkpt lat="42.462639" lon="-6.208782">
        <ele>1024</ele>
        <time>2018-07-24T07:26:30.990Z</time>
      </trkpt>
      <trkpt lat="42.46266" lon="-6.208905">
        <ele>1024</ele>
        <time>2018-07-24T07:26:33.990Z</time>
      </trkpt>
      <trkpt lat="42.462686" lon="-6.209059">
        <ele>1024</ele>
        <time>2018-07-24T07:26:37.990Z</time>
      </trkpt>
      <trkpt lat="42.462701" lon="-6.209207">
        <ele>1024</ele>
        <time>2018-07-24T07:26:40.990Z</time>
      </trkpt>
      <trkpt lat="42.462711" lon="-6.209372">
        <ele>1024</ele>
        <time>2018-07-24T07:26:43.990Z</time>
      </trkpt>
      <trkpt lat="42.462717" lon="-6.209545">
        <ele>1023</ele>
        <time>2018-07-24T07:26:47.000Z</time>
      </trkpt>
      <trkpt lat="42.462723" lon="-6.209717">
        <ele>1023</ele>
        <time>2018-07-24T07:26:49.990Z</time>
      </trkpt>
      <trkpt lat="42.462734" lon="-6.209888">
        <ele>1023</ele>
        <time>2018-07-24T07:26:52.990Z</time>
      </trkpt>
      <trkpt lat="42.462742" lon="-6.210063">
        <ele>1023</ele>
        <time>2018-07-24T07:26:55.990Z</time>
      </trkpt>
      <trkpt lat="42.46276" lon="-6.210233">
        <ele>1024</ele>
        <time>2018-07-24T07:26:58.990Z</time>
      </trkpt>
      <trkpt lat="42.462778" lon="-6.210391">
        <ele>1024</ele>
        <time>2018-07-24T07:27:02.000Z</time>
      </trkpt>
      <trkpt lat="42.462794" lon="-6.21055">
        <ele>1024</ele>
        <time>2018-07-24T07:27:04.990Z</time>
      </trkpt>
      <trkpt lat="42.462809" lon="-6.210713">
        <ele>1024</ele>
        <time>2018-07-24T07:27:07.990Z</time>
      </trkpt>
      <trkpt lat="42.462813" lon="-6.210871">
        <ele>1024</ele>
        <time>2018-07-24T07:27:10.990Z</time>
      </trkpt>
      <trkpt lat="42.46282" lon="-6.211044">
        <ele>1024</ele>
        <time>2018-07-24T07:27:13.990Z</time>
      </trkpt>
      <trkpt lat="42.462835" lon="-6.211227">
        <ele>1024</ele>
        <time>2018-07-24T07:27:17.000Z</time>
      </trkpt>
      <trkpt lat="42.462846" lon="-6.211408">
        <ele>1024</ele>
        <time>2018-07-24T07:27:19.990Z</time>
      </trkpt>
      <trkpt lat="42.462854" lon="-6.211535">
        <ele>1024</ele>
        <time>2018-07-24T07:27:22.000Z</time>
      </trkpt>
      <trkpt lat="42.462855" lon="-6.211671">
        <ele>1023</ele>
        <time>2018-07-24T07:27:23.990Z</time>
      </trkpt>
      <trkpt lat="42.462858" lon="-6.211798">
        <ele>1023</ele>
        <time>2018-07-24T07:27:25.990Z</time>
      </trkpt>
      <trkpt lat="42.462861" lon="-6.211931">
        <ele>1023</ele>
        <time>2018-07-24T07:27:27.990Z</time>
      </trkpt>
      <trkpt lat="42.46286" lon="-6.212059">
        <ele>1023</ele>
        <time>2018-07-24T07:27:29.990Z</time>
      </trkpt>
      <trkpt lat="42.462864" lon="-6.212185">
        <ele>1023</ele>
        <time>2018-07-24T07:27:32.000Z</time>
      </trkpt>
      <trkpt lat="42.462867" lon="-6.212313">
        <ele>1023</ele>
        <time>2018-07-24T07:27:33.990Z</time>
      </trkpt>
      <trkpt lat="42.462877" lon="-6.21244">
        <ele>1023</ele>
        <time>2018-07-24T07:27:35.990Z</time>
      </trkpt>
      <trkpt lat="42.462881" lon="-6.212569">
        <ele>1023</ele>
        <time>2018-07-24T07:27:37.990Z</time>
      </trkpt>
      <trkpt lat="42.46289" lon="-6.212705">
        <ele>1023</ele>
        <time>2018-07-24T07:27:39.990Z</time>
      </trkpt>
      <trkpt lat="42.462897" lon="-6.212844">
        <ele>1022</ele>
        <time>2018-07-24T07:27:42.000Z</time>
      </trkpt>
      <trkpt lat="42.462908" lon="-6.212977">
        <ele>1022</ele>
        <time>2018-07-24T07:27:43.990Z</time>
      </trkpt>
      <trkpt lat="42.462914" lon="-6.213111">
        <ele>1022</ele>
        <time>2018-07-24T07:27:45.990Z</time>
      </trkpt>
      <trkpt lat="42.462922" lon="-6.213252">
        <ele>1022</ele>
        <time>2018-07-24T07:27:47.990Z</time>
      </trkpt>
      <trkpt lat="42.462936" lon="-6.213384">
        <ele>1022</ele>
        <time>2018-07-24T07:27:49.990Z</time>
      </trkpt>
      <trkpt lat="42.462947" lon="-6.213514">
        <ele>1022</ele>
        <time>2018-07-24T07:27:52.000Z</time>
      </trkpt>
      <trkpt lat="42.462964" lon="-6.213647">
        <ele>1021</ele>
        <time>2018-07-24T07:27:53.990Z</time>
      </trkpt>
      <trkpt lat="42.462961" lon="-6.213774">
        <ele>1021</ele>
        <time>2018-07-24T07:27:55.990Z</time>
      </trkpt>
      <trkpt lat="42.462968" lon="-6.213898">
        <ele>1021</ele>
        <time>2018-07-24T07:27:57.990Z</time>
      </trkpt>
      <trkpt lat="42.46298" lon="-6.214076">
        <ele>1021</ele>
        <time>2018-07-24T07:28:00.990Z</time>
      </trkpt>
      <trkpt lat="42.462992" lon="-6.214243">
        <ele>1021</ele>
        <time>2018-07-24T07:28:03.990Z</time>
      </trkpt>
      <trkpt lat="42.463023" lon="-6.214406">
        <ele>1021</ele>
        <time>2018-07-24T07:28:07.000Z</time>
      </trkpt>
      <trkpt lat="42.463036" lon="-6.214528">
        <ele>1021</ele>
        <time>2018-07-24T07:28:08.990Z</time>
      </trkpt>
      <trkpt lat="42.463042" lon="-6.214651">
        <ele>1021</ele>
        <time>2018-07-24T07:28:10.990Z</time>
      </trkpt>
      <trkpt lat="42.463052" lon="-6.21483">
        <ele>1022</ele>
        <time>2018-07-24T07:28:13.990Z</time>
      </trkpt>
      <trkpt lat="42.463064" lon="-6.214999">
        <ele>1022</ele>
        <time>2018-07-24T07:28:17.000Z</time>
      </trkpt>
      <trkpt lat="42.463085" lon="-6.215156">
        <ele>1022</ele>
        <time>2018-07-24T07:28:19.990Z</time>
      </trkpt>
      <trkpt lat="42.46311" lon="-6.215312">
        <ele>1022.28571615162</ele>
        <time>2018-07-24T07:28:22.990Z</time>
      </trkpt>
      <trkpt lat="42.463143" lon="-6.215459">
        <ele>1023</ele>
        <time>2018-07-24T07:28:25.990Z</time>
      </trkpt>
      <trkpt lat="42.463176" lon="-6.215604">
        <ele>1023</ele>
        <time>2018-07-24T07:28:28.990Z</time>
      </trkpt>
      <trkpt lat="42.463206" lon="-6.215758">
        <ele>1023</ele>
        <time>2018-07-24T07:28:32.000Z</time>
      </trkpt>
      <trkpt lat="42.46324" lon="-6.215913">
        <ele>1023</ele>
        <time>2018-07-24T07:28:34.990Z</time>
      </trkpt>
      <trkpt lat="42.463276" lon="-6.216066">
        <ele>1024</ele>
        <time>2018-07-24T07:28:37.990Z</time>
      </trkpt>
      <trkpt lat="42.463307" lon="-6.216228">
        <ele>1024</ele>
        <time>2018-07-24T07:28:40.990Z</time>
      </trkpt>
      <trkpt lat="42.463335" lon="-6.216378">
        <ele>1024</ele>
        <time>2018-07-24T07:28:43.990Z</time>
      </trkpt>
      <trkpt lat="42.463363" lon="-6.21653">
        <ele>1024</ele>
        <time>2018-07-24T07:28:47.000Z</time>
      </trkpt>
      <trkpt lat="42.463395" lon="-6.216687">
        <ele>1024</ele>
        <time>2018-07-24T07:28:49.990Z</time>
      </trkpt>
      <trkpt lat="42.463423" lon="-6.216846">
        <ele>1024</ele>
        <time>2018-07-24T07:28:52.990Z</time>
      </trkpt>
      <trkpt lat="42.46345" lon="-6.216963">
        <ele>1024</ele>
        <time>2018-07-24T07:28:54.990Z</time>
      </trkpt>
      <trkpt lat="42.463477" lon="-6.217082">
        <ele>1024</ele>
        <time>2018-07-24T07:28:57.000Z</time>
      </trkpt>
      <trkpt lat="42.46351" lon="-6.2172">
        <ele>1024</ele>
        <time>2018-07-24T07:28:58.990Z</time>
      </trkpt>
      <trkpt lat="42.463549" lon="-6.217322">
        <ele>1023</ele>
        <time>2018-07-24T07:29:00.990Z</time>
      </trkpt>
      <trkpt lat="42.463601" lon="-6.217436">
        <ele>1023</ele>
        <time>2018-07-24T07:29:02.990Z</time>
      </trkpt>
      <trkpt lat="42.46366" lon="-6.217536">
        <ele>1023</ele>
        <time>2018-07-24T07:29:04.990Z</time>
      </trkpt>
      <trkpt lat="42.463722" lon="-6.21763">
        <ele>1023</ele>
        <time>2018-07-24T07:29:07.000Z</time>
      </trkpt>
      <trkpt lat="42.463822" lon="-6.21775">
        <ele>1023</ele>
        <time>2018-07-24T07:29:09.990Z</time>
      </trkpt>
      <trkpt lat="42.463892" lon="-6.217833">
        <ele>1023</ele>
        <time>2018-07-24T07:29:12.000Z</time>
      </trkpt>
      <trkpt lat="42.463966" lon="-6.21791">
        <ele>1023</ele>
        <time>2018-07-24T07:29:13.990Z</time>
      </trkpt>
      <trkpt lat="42.464042" lon="-6.217987">
        <ele>1023</ele>
        <time>2018-07-24T07:29:15.990Z</time>
      </trkpt>
      <trkpt lat="42.464114" lon="-6.218062">
        <ele>1023</ele>
        <time>2018-07-24T07:29:17.990Z</time>
      </trkpt>
      <trkpt lat="42.464212" lon="-6.218175">
        <ele>1023</ele>
        <time>2018-07-24T07:29:20.990Z</time>
      </trkpt>
      <trkpt lat="42.464314" lon="-6.218286">
        <ele>1023</ele>
        <time>2018-07-24T07:29:23.990Z</time>
      </trkpt>
      <trkpt lat="42.464395" lon="-6.218397">
        <ele>1023</ele>
        <time>2018-07-24T07:29:27.000Z</time>
      </trkpt>
      <trkpt lat="42.464448" lon="-6.218549">
        <ele>1023</ele>
        <time>2018-07-24T07:29:29.990Z</time>
      </trkpt>
      <trkpt lat="42.464456" lon="-6.218707">
        <ele>1023</ele>
        <time>2018-07-24T07:29:32.990Z</time>
      </trkpt>
      <trkpt lat="42.464435" lon="-6.218845">
        <ele>1023.5900032</ele>
        <time>2018-07-24T07:29:35.990Z</time>
      </trkpt>
      <trkpt lat="42.464414" lon="-6.218988">
        <ele>1024</ele>
        <time>2018-07-24T07:29:38.990Z</time>
      </trkpt>
      <trkpt lat="42.464385" lon="-6.219137">
        <ele>1025</ele>
        <time>2018-07-24T07:29:42.000Z</time>
      </trkpt>
      <trkpt lat="42.46437" lon="-6.219278">
        <ele>1025</ele>
        <time>2018-07-24T07:29:44.990Z</time>
      </trkpt>
      <trkpt lat="42.464344" lon="-6.219427">
        <ele>1026</ele>
        <time>2018-07-24T07:29:47.990Z</time>
      </trkpt>
      <trkpt lat="42.464308" lon="-6.219578">
        <ele>1026</ele>
        <time>2018-07-24T07:29:50.990Z</time>
      </trkpt>
      <trkpt lat="42.464286" lon="-6.219727">
        <ele>1025</ele>
        <time>2018-07-24T07:29:53.990Z</time>
      </trkpt>
      <trkpt lat="42.464261" lon="-6.219875">
        <ele>1026</ele>
        <time>2018-07-24T07:29:57.000Z</time>
      </trkpt>
      <trkpt lat="42.464237" lon="-6.220022">
        <ele>1026</ele>
        <time>2018-07-24T07:29:59.990Z</time>
      </trkpt>
      <trkpt lat="42.464208" lon="-6.220161">
        <ele>1026.5900032</ele>
        <time>2018-07-24T07:30:02.990Z</time>
      </trkpt>
      <trkpt lat="42.464178" lon="-6.220311">
        <ele>1027.5900032</ele>
        <time>2018-07-24T07:30:05.990Z</time>
      </trkpt>
      <trkpt lat="42.464158" lon="-6.220464">
        <ele>1028</ele>
        <time>2018-07-24T07:30:08.990Z</time>
      </trkpt>
      <trkpt lat="42.464128" lon="-6.220612">
        <ele>1028</ele>
        <time>2018-07-24T07:30:12.000Z</time>
      </trkpt>
      <trkpt lat="42.464102" lon="-6.220754">
        <ele>1029</ele>
        <time>2018-07-24T07:30:14.990Z</time>
      </trkpt>
      <trkpt lat="42.464082" lon="-6.220895">
        <ele>1030</ele>
        <time>2018-07-24T07:30:17.990Z</time>
      </trkpt>
      <trkpt lat="42.464063" lon="-6.221044">
        <ele>1030</ele>
        <time>2018-07-24T07:30:20.990Z</time>
      </trkpt>
      <trkpt lat="42.464048" lon="-6.221188">
        <ele>1030</ele>
        <time>2018-07-24T07:30:23.990Z</time>
      </trkpt>
      <trkpt lat="42.464034" lon="-6.221333">
        <ele>1031</ele>
        <time>2018-07-24T07:30:27.000Z</time>
      </trkpt>
      <trkpt lat="42.46401" lon="-6.221477">
        <ele>1031</ele>
        <time>2018-07-24T07:30:29.990Z</time>
      </trkpt>
      <trkpt lat="42.463996" lon="-6.221633">
        <ele>1032</ele>
        <time>2018-07-24T07:30:32.990Z</time>
      </trkpt>
      <trkpt lat="42.463984" lon="-6.221784">
        <ele>1033</ele>
        <time>2018-07-24T07:30:35.990Z</time>
      </trkpt>
      <trkpt lat="42.46398" lon="-6.221945">
        <ele>1033</ele>
        <time>2018-07-24T07:30:38.990Z</time>
      </trkpt>
      <trkpt lat="42.463976" lon="-6.222099">
        <ele>1033</ele>
        <time>2018-07-24T07:30:42.000Z</time>
      </trkpt>
      <trkpt lat="42.463982" lon="-6.222259">
        <ele>1033</ele>
        <time>2018-07-24T07:30:44.990Z</time>
      </trkpt>
      <trkpt lat="42.463984" lon="-6.222418">
        <ele>1033</ele>
        <time>2018-07-24T07:30:47.990Z</time>
      </trkpt>
      <trkpt lat="42.46398" lon="-6.222572">
        <ele>1034</ele>
        <time>2018-07-24T07:30:50.990Z</time>
      </trkpt>
      <trkpt lat="42.46398" lon="-6.222734">
        <ele>1034</ele>
        <time>2018-07-24T07:30:53.990Z</time>
      </trkpt>
      <trkpt lat="42.463986" lon="-6.222904">
        <ele>1035</ele>
        <time>2018-07-24T07:30:57.000Z</time>
      </trkpt>
      <trkpt lat="42.463992" lon="-6.223075">
        <ele>1035</ele>
        <time>2018-07-24T07:30:59.990Z</time>
      </trkpt>
      <trkpt lat="42.463999" lon="-6.223248">
        <ele>1035</ele>
        <time>2018-07-24T07:31:02.990Z</time>
      </trkpt>
      <trkpt lat="42.464012" lon="-6.223429">
        <ele>1035</ele>
        <time>2018-07-24T07:31:05.990Z</time>
      </trkpt>
      <trkpt lat="42.464018" lon="-6.223589">
        <ele>1035</ele>
        <time>2018-07-24T07:31:08.990Z</time>
      </trkpt>
      <trkpt lat="42.464033" lon="-6.22376">
        <ele>1035</ele>
        <time>2018-07-24T07:31:12.000Z</time>
      </trkpt>
      <trkpt lat="42.464041" lon="-6.223941">
        <ele>1035</ele>
        <time>2018-07-24T07:31:14.990Z</time>
      </trkpt>
      <trkpt lat="42.464055" lon="-6.224072">
        <ele>1035</ele>
        <time>2018-07-24T07:31:17.000Z</time>
      </trkpt>
      <trkpt lat="42.464073" lon="-6.224251">
        <ele>1035</ele>
        <time>2018-07-24T07:31:19.990Z</time>
      </trkpt>
      <trkpt lat="42.46409" lon="-6.224378">
        <ele>1035</ele>
        <time>2018-07-24T07:31:22.000Z</time>
      </trkpt>
      <trkpt lat="42.464115" lon="-6.224508">
        <ele>1035</ele>
        <time>2018-07-24T07:31:23.990Z</time>
      </trkpt>
      <trkpt lat="42.464143" lon="-6.224631">
        <ele>1035</ele>
        <time>2018-07-24T07:31:25.990Z</time>
      </trkpt>
      <trkpt lat="42.464187" lon="-6.224792">
        <ele>1035</ele>
        <time>2018-07-24T07:31:28.990Z</time>
      </trkpt>
      <trkpt lat="42.464237" lon="-6.224939">
        <ele>1035</ele>
        <time>2018-07-24T07:31:32.000Z</time>
      </trkpt>
      <trkpt lat="42.464273" lon="-6.225079">
        <ele>1036</ele>
        <time>2018-07-24T07:31:34.990Z</time>
      </trkpt>
      <trkpt lat="42.464322" lon="-6.225217">
        <ele>1036</ele>
        <time>2018-07-24T07:31:37.990Z</time>
      </trkpt>
      <trkpt lat="42.46437" lon="-6.225368">
        <ele>1036</ele>
        <time>2018-07-24T07:31:40.990Z</time>
      </trkpt>
      <trkpt lat="42.464421" lon="-6.225508">
        <ele>1037</ele>
        <time>2018-07-24T07:31:43.990Z</time>
      </trkpt>
      <trkpt lat="42.464477" lon="-6.225665">
        <ele>1037</ele>
        <time>2018-07-24T07:31:47.000Z</time>
      </trkpt>
      <trkpt lat="42.464529" lon="-6.225809">
        <ele>1037</ele>
        <time>2018-07-24T07:31:49.990Z</time>
      </trkpt>
      <trkpt lat="42.464573" lon="-6.225949">
        <ele>1038</ele>
        <time>2018-07-24T07:31:52.990Z</time>
      </trkpt>
      <trkpt lat="42.464625" lon="-6.226079">
        <ele>1038</ele>
        <time>2018-07-24T07:31:55.990Z</time>
      </trkpt>
      <trkpt lat="42.464672" lon="-6.226216">
        <ele>1038</ele>
        <time>2018-07-24T07:31:58.990Z</time>
      </trkpt>
      <trkpt lat="42.46472" lon="-6.226351">
        <ele>1038.6</ele>
        <time>2018-07-24T07:32:02.000Z</time>
      </trkpt>
      <trkpt lat="42.464768" lon="-6.226485">
        <ele>1039</ele>
        <time>2018-07-24T07:32:04.990Z</time>
      </trkpt>
      <trkpt lat="42.464814" lon="-6.226627">
        <ele>1039</ele>
        <time>2018-07-24T07:32:07.990Z</time>
      </trkpt>
      <trkpt lat="42.464864" lon="-6.226759">
        <ele>1039</ele>
        <time>2018-07-24T07:32:10.990Z</time>
      </trkpt>
      <trkpt lat="42.464916" lon="-6.2269">
        <ele>1039</ele>
        <time>2018-07-24T07:32:13.990Z</time>
      </trkpt>
      <trkpt lat="42.464974" lon="-6.227041">
        <ele>1039</ele>
        <time>2018-07-24T07:32:17.000Z</time>
      </trkpt>
      <trkpt lat="42.465034" lon="-6.227187">
        <ele>1039</ele>
        <time>2018-07-24T07:32:19.990Z</time>
      </trkpt>
      <trkpt lat="42.46509" lon="-6.227345">
        <ele>1039</ele>
        <time>2018-07-24T07:32:22.990Z</time>
      </trkpt>
      <trkpt lat="42.465154" lon="-6.227503">
        <ele>1040</ele>
        <time>2018-07-24T07:32:25.990Z</time>
      </trkpt>
      <trkpt lat="42.465214" lon="-6.227666">
        <ele>1040</ele>
        <time>2018-07-24T07:32:28.990Z</time>
      </trkpt>
      <trkpt lat="42.465274" lon="-6.227825">
        <ele>1041</ele>
        <time>2018-07-24T07:32:32.000Z</time>
      </trkpt>
      <trkpt lat="42.465332" lon="-6.227983">
        <ele>1041</ele>
        <time>2018-07-24T07:32:34.990Z</time>
      </trkpt>
      <trkpt lat="42.465392" lon="-6.228147">
        <ele>1041</ele>
        <time>2018-07-24T07:32:37.990Z</time>
      </trkpt>
      <trkpt lat="42.465456" lon="-6.228303">
        <ele>1041</ele>
        <time>2018-07-24T07:32:40.990Z</time>
      </trkpt>
      <trkpt lat="42.465504" lon="-6.228418">
        <ele>1041</ele>
        <time>2018-07-24T07:32:42.990Z</time>
      </trkpt>
      <trkpt lat="42.465543" lon="-6.228532">
        <ele>1041</ele>
        <time>2018-07-24T07:32:44.990Z</time>
      </trkpt>
      <trkpt lat="42.465586" lon="-6.228643">
        <ele>1041</ele>
        <time>2018-07-24T07:32:47.000Z</time>
      </trkpt>
      <trkpt lat="42.465625" lon="-6.228755">
        <ele>1042</ele>
        <time>2018-07-24T07:32:48.990Z</time>
      </trkpt>
      <trkpt lat="42.465674" lon="-6.228907">
        <ele>1042</ele>
        <time>2018-07-24T07:32:52.000Z</time>
      </trkpt>
      <trkpt lat="42.465718" lon="-6.229054">
        <ele>1042.5900032</ele>
        <time>2018-07-24T07:32:54.990Z</time>
      </trkpt>
      <trkpt lat="42.465768" lon="-6.229194">
        <ele>1044</ele>
        <time>2018-07-24T07:32:57.990Z</time>
      </trkpt>
      <trkpt lat="42.465814" lon="-6.229332">
        <ele>1044.58163865052</ele>
        <time>2018-07-24T07:33:00.990Z</time>
      </trkpt>
      <trkpt lat="42.465857" lon="-6.229461">
        <ele>1045</ele>
        <time>2018-07-24T07:33:03.990Z</time>
      </trkpt>
      <trkpt lat="42.465904" lon="-6.229579">
        <ele>1045</ele>
        <time>2018-07-24T07:33:07.000Z</time>
      </trkpt>
      <trkpt lat="42.465941" lon="-6.229697">
        <ele>1046</ele>
        <time>2018-07-24T07:33:09.990Z</time>
      </trkpt>
      <trkpt lat="42.465981" lon="-6.22982">
        <ele>1046</ele>
        <time>2018-07-24T07:33:12.990Z</time>
      </trkpt>
      <trkpt lat="42.466024" lon="-6.229945">
        <ele>1046</ele>
        <time>2018-07-24T07:33:15.990Z</time>
      </trkpt>
      <trkpt lat="42.46607" lon="-6.230071">
        <ele>1048</ele>
        <time>2018-07-24T07:33:18.990Z</time>
      </trkpt>
      <trkpt lat="42.466116" lon="-6.230199">
        <ele>1047</ele>
        <time>2018-07-24T07:33:22.000Z</time>
      </trkpt>
      <trkpt lat="42.466163" lon="-6.230315">
        <ele>1047</ele>
        <time>2018-07-24T07:33:24.990Z</time>
      </trkpt>
      <trkpt lat="42.466207" lon="-6.230434">
        <ele>1047</ele>
        <time>2018-07-24T07:33:27.990Z</time>
      </trkpt>
      <trkpt lat="42.466254" lon="-6.230553">
        <ele>1048.5900032</ele>
        <time>2018-07-24T07:33:30.990Z</time>
      </trkpt>
      <trkpt lat="42.4663" lon="-6.230666">
        <ele>1049</ele>
        <time>2018-07-24T07:33:33.990Z</time>
      </trkpt>
      <trkpt lat="42.466348" lon="-6.23079">
        <ele>1049</ele>
        <time>2018-07-24T07:33:37.000Z</time>
      </trkpt>
      <trkpt lat="42.466395" lon="-6.230921">
        <ele>1049</ele>
        <time>2018-07-24T07:33:39.990Z</time>
      </trkpt>
      <trkpt lat="42.466443" lon="-6.231053">
        <ele>1050</ele>
        <time>2018-07-24T07:33:42.990Z</time>
      </trkpt>
      <trkpt lat="42.466487" lon="-6.231187">
        <ele>1050</ele>
        <time>2018-07-24T07:33:45.990Z</time>
      </trkpt>
      <trkpt lat="42.466539" lon="-6.231327">
        <ele>1050</ele>
        <time>2018-07-24T07:33:48.990Z</time>
      </trkpt>
      <trkpt lat="42.466583" lon="-6.23146">
        <ele>1050</ele>
        <time>2018-07-24T07:33:52.000Z</time>
      </trkpt>
      <trkpt lat="42.466631" lon="-6.23159">
        <ele>1050</ele>
        <time>2018-07-24T07:33:54.990Z</time>
      </trkpt>
      <trkpt lat="42.466666" lon="-6.231715">
        <ele>1050</ele>
        <time>2018-07-24T07:33:57.990Z</time>
      </trkpt>
      <trkpt lat="42.466713" lon="-6.231832">
        <ele>1050</ele>
        <time>2018-07-24T07:34:00.990Z</time>
      </trkpt>
      <trkpt lat="42.466757" lon="-6.231944">
        <ele>1051.42254232094</ele>
        <time>2018-07-24T07:34:03.990Z</time>
      </trkpt>
      <trkpt lat="42.466794" lon="-6.232071">
        <ele>1052</ele>
        <time>2018-07-24T07:34:06.990Z</time>
      </trkpt>
      <trkpt lat="42.466843" lon="-6.232197">
        <ele>1052</ele>
        <time>2018-07-24T07:34:09.990Z</time>
      </trkpt>
      <trkpt lat="42.466871" lon="-6.23232">
        <ele>1053</ele>
        <time>2018-07-24T07:34:12.990Z</time>
      </trkpt>
      <trkpt lat="42.466916" lon="-6.232445">
        <ele>1053</ele>
        <time>2018-07-24T07:34:15.990Z</time>
      </trkpt>
      <trkpt lat="42.466964" lon="-6.232567">
        <ele>1053.40579898342</ele>
        <time>2018-07-24T07:34:18.990Z</time>
      </trkpt>
      <trkpt lat="42.467001" lon="-6.232694">
        <ele>1054</ele>
        <time>2018-07-24T07:34:22.000Z</time>
      </trkpt>
      <trkpt lat="42.467047" lon="-6.232822">
        <ele>1055</ele>
        <time>2018-07-24T07:34:24.990Z</time>
      </trkpt>
      <trkpt lat="42.467089" lon="-6.232949">
        <ele>1056</ele>
        <time>2018-07-24T07:34:27.990Z</time>
      </trkpt>
      <trkpt lat="42.467137" lon="-6.233078">
        <ele>1056</ele>
        <time>2018-07-24T07:34:30.990Z</time>
      </trkpt>
      <trkpt lat="42.467181" lon="-6.233204">
        <ele>1056</ele>
        <time>2018-07-24T07:34:33.990Z</time>
      </trkpt>
      <trkpt lat="42.467228" lon="-6.233336">
        <ele>1056</ele>
        <time>2018-07-24T07:34:37.000Z</time>
      </trkpt>
      <trkpt lat="42.467273" lon="-6.233459">
        <ele>1056</ele>
        <time>2018-07-24T07:34:39.990Z</time>
      </trkpt>
      <trkpt lat="42.467318" lon="-6.233593">
        <ele>1056</ele>
        <time>2018-07-24T07:34:42.990Z</time>
      </trkpt>
      <trkpt lat="42.467365" lon="-6.233735">
        <ele>1056</ele>
        <time>2018-07-24T07:34:45.990Z</time>
      </trkpt>
      <trkpt lat="42.467425" lon="-6.233874">
        <ele>1056</ele>
        <time>2018-07-24T07:34:48.990Z</time>
      </trkpt>
      <trkpt lat="42.467482" lon="-6.234021">
        <ele>1056</ele>
        <time>2018-07-24T07:34:52.000Z</time>
      </trkpt>
      <trkpt lat="42.467527" lon="-6.234165">
        <ele>1056</ele>
        <time>2018-07-24T07:34:54.990Z</time>
      </trkpt>
      <trkpt lat="42.46759" lon="-6.234305">
        <ele>1056</ele>
        <time>2018-07-24T07:34:57.990Z</time>
      </trkpt>
      <trkpt lat="42.467641" lon="-6.234449">
        <ele>1056</ele>
        <time>2018-07-24T07:35:00.990Z</time>
      </trkpt>
      <trkpt lat="42.467689" lon="-6.234588">
        <ele>1056</ele>
        <time>2018-07-24T07:35:03.990Z</time>
      </trkpt>
      <trkpt lat="42.467736" lon="-6.234711">
        <ele>1056</ele>
        <time>2018-07-24T07:35:07.000Z</time>
      </trkpt>
      <trkpt lat="42.467781" lon="-6.234843">
        <ele>1056</ele>
        <time>2018-07-24T07:35:09.990Z</time>
      </trkpt>
      <trkpt lat="42.467831" lon="-6.234979">
        <ele>1057</ele>
        <time>2018-07-24T07:35:12.990Z</time>
      </trkpt>
      <trkpt lat="42.467889" lon="-6.235103">
        <ele>1058</ele>
        <time>2018-07-24T07:35:15.990Z</time>
      </trkpt>
      <trkpt lat="42.467941" lon="-6.235216">
        <ele>1058</ele>
        <time>2018-07-24T07:35:18.990Z</time>
      </trkpt>
      <trkpt lat="42.467975" lon="-6.235351">
        <ele>1060</ele>
        <time>2018-07-24T07:35:22.990Z</time>
      </trkpt>
      <trkpt lat="42.467998" lon="-6.235512">
        <ele>1060</ele>
        <time>2018-07-24T07:35:27.000Z</time>
      </trkpt>
      <trkpt lat="42.468043" lon="-6.235631">
        <ele>1061</ele>
        <time>2018-07-24T07:35:29.990Z</time>
      </trkpt>
      <trkpt lat="42.468094" lon="-6.235764">
        <ele>1061</ele>
        <time>2018-07-24T07:35:32.990Z</time>
      </trkpt>
      <trkpt lat="42.468138" lon="-6.235892">
        <ele>1062</ele>
        <time>2018-07-24T07:35:35.990Z</time>
      </trkpt>
      <trkpt lat="42.468193" lon="-6.236017">
        <ele>1063</ele>
        <time>2018-07-24T07:35:39.000Z</time>
      </trkpt>
      <trkpt lat="42.468245" lon="-6.236161">
        <ele>1063</ele>
        <time>2018-07-24T07:35:42.000Z</time>
      </trkpt>
      <trkpt lat="42.468299" lon="-6.236302">
        <ele>1063</ele>
        <time>2018-07-24T07:35:45.000Z</time>
      </trkpt>
      <trkpt lat="42.468351" lon="-6.236434">
        <ele>1064</ele>
        <time>2018-07-24T07:35:48.000Z</time>
      </trkpt>
      <trkpt lat="42.468395" lon="-6.236566">
        <ele>1064</ele>
        <time>2018-07-24T07:35:51.000Z</time>
      </trkpt>
      <trkpt lat="42.468444" lon="-6.236694">
        <ele>1064</ele>
        <time>2018-07-24T07:35:54.000Z</time>
      </trkpt>
      <trkpt lat="42.46849" lon="-6.236824">
        <ele>1065</ele>
        <time>2018-07-24T07:35:57.000Z</time>
      </trkpt>
      <trkpt lat="42.468542" lon="-6.23696">
        <ele>1065</ele>
        <time>2018-07-24T07:36:00.000Z</time>
      </trkpt>
      <trkpt lat="42.468594" lon="-6.237103">
        <ele>1065</ele>
        <time>2018-07-24T07:36:03.000Z</time>
      </trkpt>
      <trkpt lat="42.468646" lon="-6.237244">
        <ele>1065</ele>
        <time>2018-07-24T07:36:06.000Z</time>
      </trkpt>
      <trkpt lat="42.468699" lon="-6.237389">
        <ele>1065</ele>
        <time>2018-07-24T07:36:09.000Z</time>
      </trkpt>
      <trkpt lat="42.468755" lon="-6.237528">
        <ele>1065</ele>
        <time>2018-07-24T07:36:12.000Z</time>
      </trkpt>
      <trkpt lat="42.468807" lon="-6.237658">
        <ele>1066</ele>
        <time>2018-07-24T07:36:15.000Z</time>
      </trkpt>
      <trkpt lat="42.468856" lon="-6.237799">
        <ele>1065.53488256715</ele>
        <time>2018-07-24T07:36:18.000Z</time>
      </trkpt>
      <trkpt lat="42.468915" lon="-6.237942">
        <ele>1065</ele>
        <time>2018-07-24T07:36:21.000Z</time>
      </trkpt>
      <trkpt lat="42.468971" lon="-6.238085">
        <ele>1065</ele>
        <time>2018-07-24T07:36:24.000Z</time>
      </trkpt>
      <trkpt lat="42.469033" lon="-6.238229">
        <ele>1065</ele>
        <time>2018-07-24T07:36:26.990Z</time>
      </trkpt>
      <trkpt lat="42.469086" lon="-6.238371">
        <ele>1066</ele>
        <time>2018-07-24T07:36:29.990Z</time>
      </trkpt>
      <trkpt lat="42.469145" lon="-6.23851">
        <ele>1066</ele>
        <time>2018-07-24T07:36:32.990Z</time>
      </trkpt>
      <trkpt lat="42.46921" lon="-6.238655">
        <ele>1066.42254232094</ele>
        <time>2018-07-24T07:36:35.990Z</time>
      </trkpt>
      <trkpt lat="42.469274" lon="-6.238793">
        <ele>1067</ele>
        <time>2018-07-24T07:36:39.000Z</time>
      </trkpt>
      <trkpt lat="42.469339" lon="-6.23894">
        <ele>1067</ele>
        <time>2018-07-24T07:36:41.990Z</time>
      </trkpt>
      <trkpt lat="42.469384" lon="-6.239087">
        <ele>1067</ele>
        <time>2018-07-24T07:36:44.990Z</time>
      </trkpt>
      <trkpt lat="42.469446" lon="-6.239241">
        <ele>1067</ele>
        <time>2018-07-24T07:36:47.990Z</time>
      </trkpt>
      <trkpt lat="42.469506" lon="-6.239374">
        <ele>1067.5900032</ele>
        <time>2018-07-24T07:36:50.990Z</time>
      </trkpt>
      <trkpt lat="42.469563" lon="-6.2395">
        <ele>1068</ele>
        <time>2018-07-24T07:36:54.000Z</time>
      </trkpt>
      <trkpt lat="42.469617" lon="-6.239652">
        <ele>1068</ele>
        <time>2018-07-24T07:36:56.990Z</time>
      </trkpt>
      <trkpt lat="42.469666" lon="-6.239775">
        <ele>1068</ele>
        <time>2018-07-24T07:36:59.990Z</time>
      </trkpt>
      <trkpt lat="42.46972" lon="-6.239909">
        <ele>1069</ele>
        <time>2018-07-24T07:37:03.990Z</time>
      </trkpt>
      <trkpt lat="42.469778" lon="-6.240057">
        <ele>1069</ele>
        <time>2018-07-24T07:37:07.990Z</time>
      </trkpt>
      <trkpt lat="42.469838" lon="-6.240191">
        <ele>1069</ele>
        <time>2018-07-24T07:37:10.990Z</time>
      </trkpt>
      <trkpt lat="42.469892" lon="-6.240332">
        <ele>1069</ele>
        <time>2018-07-24T07:37:14.000Z</time>
      </trkpt>
      <trkpt lat="42.46994" lon="-6.240456">
        <ele>1069</ele>
        <time>2018-07-24T07:37:16.990Z</time>
      </trkpt>
      <trkpt lat="42.469992" lon="-6.240596">
        <ele>1069</ele>
        <time>2018-07-24T07:37:19.990Z</time>
      </trkpt>
      <trkpt lat="42.470048" lon="-6.240739">
        <ele>1070</ele>
        <time>2018-07-24T07:37:22.990Z</time>
      </trkpt>
      <trkpt lat="42.470104" lon="-6.240882">
        <ele>1070</ele>
        <time>2018-07-24T07:37:25.990Z</time>
      </trkpt>
      <trkpt lat="42.470154" lon="-6.24103">
        <ele>1069</ele>
        <time>2018-07-24T07:37:29.000Z</time>
      </trkpt>
      <trkpt lat="42.470214" lon="-6.241186">
        <ele>1069</ele>
        <time>2018-07-24T07:37:31.990Z</time>
      </trkpt>
      <trkpt lat="42.470276" lon="-6.241333">
        <ele>1069.42254232094</ele>
        <time>2018-07-24T07:37:34.990Z</time>
      </trkpt>
      <trkpt lat="42.470342" lon="-6.241488">
        <ele>1069.4099968</ele>
        <time>2018-07-24T07:37:37.990Z</time>
      </trkpt>
      <trkpt lat="42.4704" lon="-6.241638">
        <ele>1070</ele>
        <time>2018-07-24T07:37:40.990Z</time>
      </trkpt>
      <trkpt lat="42.470457" lon="-6.241791">
        <ele>1070</ele>
        <time>2018-07-24T07:37:44.000Z</time>
      </trkpt>
      <trkpt lat="42.470514" lon="-6.241934">
        <ele>1070</ele>
        <time>2018-07-24T07:37:46.990Z</time>
      </trkpt>
      <trkpt lat="42.47057" lon="-6.242086">
        <ele>1070</ele>
        <time>2018-07-24T07:37:49.990Z</time>
      </trkpt>
      <trkpt lat="42.470638" lon="-6.242233">
        <ele>1070</ele>
        <time>2018-07-24T07:37:52.990Z</time>
      </trkpt>
      <trkpt lat="42.470696" lon="-6.242371">
        <ele>1070</ele>
        <time>2018-07-24T07:37:55.990Z</time>
      </trkpt>
      <trkpt lat="42.47075" lon="-6.242512">
        <ele>1070</ele>
        <time>2018-07-24T07:37:59.000Z</time>
      </trkpt>
      <trkpt lat="42.470807" lon="-6.242664">
        <ele>1070</ele>
        <time>2018-07-24T07:38:01.990Z</time>
      </trkpt>
      <trkpt lat="42.470866" lon="-6.242812">
        <ele>1070</ele>
        <time>2018-07-24T07:38:04.990Z</time>
      </trkpt>
      <trkpt lat="42.470929" lon="-6.242961">
        <ele>1070</ele>
        <time>2018-07-24T07:38:07.990Z</time>
      </trkpt>
      <trkpt lat="42.470993" lon="-6.24311">
        <ele>1071</ele>
        <time>2018-07-24T07:38:10.990Z</time>
      </trkpt>
      <trkpt lat="42.471056" lon="-6.243259">
        <ele>1071</ele>
        <time>2018-07-24T07:38:14.000Z</time>
      </trkpt>
      <trkpt lat="42.471113" lon="-6.243412">
        <ele>1071</ele>
        <time>2018-07-24T07:38:16.990Z</time>
      </trkpt>
      <trkpt lat="42.471164" lon="-6.243553">
        <ele>1071.5900032</ele>
        <time>2018-07-24T07:38:19.990Z</time>
      </trkpt>
      <trkpt lat="42.471211" lon="-6.243672">
        <ele>1072</ele>
        <time>2018-07-24T07:38:22.990Z</time>
      </trkpt>
      <trkpt lat="42.471267" lon="-6.24382">
        <ele>1072</ele>
        <time>2018-07-24T07:38:25.990Z</time>
      </trkpt>
      <trkpt lat="42.471319" lon="-6.243966">
        <ele>1072</ele>
        <time>2018-07-24T07:38:29.000Z</time>
      </trkpt>
      <trkpt lat="42.471387" lon="-6.244108">
        <ele>1072</ele>
        <time>2018-07-24T07:38:31.990Z</time>
      </trkpt>
      <trkpt lat="42.471439" lon="-6.244256">
        <ele>1073</ele>
        <time>2018-07-24T07:38:34.990Z</time>
      </trkpt>
      <trkpt lat="42.471481" lon="-6.244366">
        <ele>1073</ele>
        <time>2018-07-24T07:38:36.990Z</time>
      </trkpt>
      <trkpt lat="42.471516" lon="-6.244479">
        <ele>1073</ele>
        <time>2018-07-24T07:38:39.000Z</time>
      </trkpt>
      <trkpt lat="42.471572" lon="-6.244642">
        <ele>1072</ele>
        <time>2018-07-24T07:38:41.990Z</time>
      </trkpt>
      <trkpt lat="42.471618" lon="-6.24475">
        <ele>1072.6</ele>
        <time>2018-07-24T07:38:44.000Z</time>
      </trkpt>
      <trkpt lat="42.471664" lon="-6.244861">
        <ele>1073</ele>
        <time>2018-07-24T07:38:45.990Z</time>
      </trkpt>
      <trkpt lat="42.471716" lon="-6.245019">
        <ele>1073</ele>
        <time>2018-07-24T07:38:49.000Z</time>
      </trkpt>
      <trkpt lat="42.471768" lon="-6.245162">
        <ele>1073</ele>
        <time>2018-07-24T07:38:51.990Z</time>
      </trkpt>
      <trkpt lat="42.471808" lon="-6.245296">
        <ele>1073</ele>
        <time>2018-07-24T07:38:54.990Z</time>
      </trkpt>
      <trkpt lat="42.471853" lon="-6.245456">
        <ele>1073</ele>
        <time>2018-07-24T07:38:57.990Z</time>
      </trkpt>
      <trkpt lat="42.471897" lon="-6.245624">
        <ele>1072.41836134948</ele>
        <time>2018-07-24T07:39:00.990Z</time>
      </trkpt>
      <trkpt lat="42.471928" lon="-6.245741">
        <ele>1072</ele>
        <time>2018-07-24T07:39:02.990Z</time>
      </trkpt>
      <trkpt lat="42.471958" lon="-6.245863">
        <ele>1072</ele>
        <time>2018-07-24T07:39:04.990Z</time>
      </trkpt>
      <trkpt lat="42.471999" lon="-6.246033">
        <ele>1071.5900032</ele>
        <time>2018-07-24T07:39:07.990Z</time>
      </trkpt>
      <trkpt lat="42.472027" lon="-6.246158">
        <ele>1072</ele>
        <time>2018-07-24T07:39:09.990Z</time>
      </trkpt>
      <trkpt lat="42.472058" lon="-6.246278">
        <ele>1072</ele>
        <time>2018-07-24T07:39:11.990Z</time>
      </trkpt>
      <trkpt lat="42.472088" lon="-6.246403">
        <ele>1072</ele>
        <time>2018-07-24T07:39:14.000Z</time>
      </trkpt>
      <trkpt lat="42.472116" lon="-6.246527">
        <ele>1071.57745767906</ele>
        <time>2018-07-24T07:39:15.990Z</time>
      </trkpt>
      <trkpt lat="42.472152" lon="-6.246649">
        <ele>1071</ele>
        <time>2018-07-24T07:39:17.990Z</time>
      </trkpt>
      <trkpt lat="42.472182" lon="-6.246767">
        <ele>1071</ele>
        <time>2018-07-24T07:39:19.990Z</time>
      </trkpt>
      <trkpt lat="42.472226" lon="-6.246934">
        <ele>1071</ele>
        <time>2018-07-24T07:39:22.990Z</time>
      </trkpt>
      <trkpt lat="42.472266" lon="-6.24711">
        <ele>1071</ele>
        <time>2018-07-24T07:39:25.990Z</time>
      </trkpt>
      <trkpt lat="42.472306" lon="-6.247265">
        <ele>1071</ele>
        <time>2018-07-24T07:39:29.000Z</time>
      </trkpt>
      <trkpt lat="42.472336" lon="-6.24741">
        <ele>1071</ele>
        <time>2018-07-24T07:39:31.990Z</time>
      </trkpt>
      <trkpt lat="42.472375" lon="-6.247571">
        <ele>1070.41413684319</ele>
        <time>2018-07-24T07:39:34.990Z</time>
      </trkpt>
      <trkpt lat="42.472412" lon="-6.24773">
        <ele>1070</ele>
        <time>2018-07-24T07:39:37.990Z</time>
      </trkpt>
      <trkpt lat="42.472452" lon="-6.24787">
        <ele>1070</ele>
        <time>2018-07-24T07:39:40.990Z</time>
      </trkpt>
      <trkpt lat="42.472482" lon="-6.247986">
        <ele>1070</ele>
        <time>2018-07-24T07:39:44.000Z</time>
      </trkpt>
      <trkpt lat="42.472524" lon="-6.248132">
        <ele>1070</ele>
        <time>2018-07-24T07:39:46.990Z</time>
      </trkpt>
      <trkpt lat="42.47257" lon="-6.248293">
        <ele>1070</ele>
        <time>2018-07-24T07:39:49.990Z</time>
      </trkpt>
      <trkpt lat="42.472606" lon="-6.248427">
        <ele>1070</ele>
        <time>2018-07-24T07:39:52.990Z</time>
      </trkpt>
      <trkpt lat="42.472638" lon="-6.248579">
        <ele>1071</ele>
        <time>2018-07-24T07:39:55.990Z</time>
      </trkpt>
      <trkpt lat="42.472676" lon="-6.248734">
        <ele>1071</ele>
        <time>2018-07-24T07:39:59.000Z</time>
      </trkpt>
      <trkpt lat="42.472719" lon="-6.248887">
        <ele>1071</ele>
        <time>2018-07-24T07:40:01.990Z</time>
      </trkpt>
      <trkpt lat="42.472762" lon="-6.24904">
        <ele>1071</ele>
        <time>2018-07-24T07:40:04.990Z</time>
      </trkpt>
      <trkpt lat="42.472796" lon="-6.249192">
        <ele>1071</ele>
        <time>2018-07-24T07:40:07.990Z</time>
      </trkpt>
      <trkpt lat="42.472827" lon="-6.249339">
        <ele>1071</ele>
        <time>2018-07-24T07:40:10.990Z</time>
      </trkpt>
      <trkpt lat="42.472866" lon="-6.24949">
        <ele>1071</ele>
        <time>2018-07-24T07:40:14.000Z</time>
      </trkpt>
      <trkpt lat="42.472909" lon="-6.249655">
        <ele>1071</ele>
        <time>2018-07-24T07:40:16.990Z</time>
      </trkpt>
      <trkpt lat="42.472939" lon="-6.24977">
        <ele>1071</ele>
        <time>2018-07-24T07:40:19.000Z</time>
      </trkpt>
      <trkpt lat="42.472982" lon="-6.249925">
        <ele>1071</ele>
        <time>2018-07-24T07:40:21.990Z</time>
      </trkpt>
      <trkpt lat="42.473019" lon="-6.250073">
        <ele>1071</ele>
        <time>2018-07-24T07:40:24.990Z</time>
      </trkpt>
      <trkpt lat="42.473052" lon="-6.250199">
        <ele>1071</ele>
        <time>2018-07-24T07:40:27.990Z</time>
      </trkpt>
      <trkpt lat="42.473092" lon="-6.250353">
        <ele>1071</ele>
        <time>2018-07-24T07:40:30.990Z</time>
      </trkpt>
      <trkpt lat="42.473134" lon="-6.250503">
        <ele>1071</ele>
        <time>2018-07-24T07:40:34.000Z</time>
      </trkpt>
      <trkpt lat="42.47318" lon="-6.250644">
        <ele>1071</ele>
        <time>2018-07-24T07:40:36.990Z</time>
      </trkpt>
      <trkpt lat="42.473229" lon="-6.250781">
        <ele>1072</ele>
        <time>2018-07-24T07:40:39.990Z</time>
      </trkpt>
      <trkpt lat="42.473302" lon="-6.250919">
        <ele>1072</ele>
        <time>2018-07-24T07:40:42.990Z</time>
      </trkpt>
      <trkpt lat="42.473366" lon="-6.251058">
        <ele>1071</ele>
        <time>2018-07-24T07:40:45.990Z</time>
      </trkpt>
      <trkpt lat="42.473436" lon="-6.251198">
        <ele>1071</ele>
        <time>2018-07-24T07:40:49.000Z</time>
      </trkpt>
      <trkpt lat="42.473503" lon="-6.251341">
        <ele>1071</ele>
        <time>2018-07-24T07:40:51.990Z</time>
      </trkpt>
      <trkpt lat="42.473553" lon="-6.251446">
        <ele>1071</ele>
        <time>2018-07-24T07:40:54.000Z</time>
      </trkpt>
      <trkpt lat="42.473611" lon="-6.251555">
        <ele>1071</ele>
        <time>2018-07-24T07:40:55.990Z</time>
      </trkpt>
      <trkpt lat="42.47368" lon="-6.251679">
        <ele>1071</ele>
        <time>2018-07-24T07:40:57.990Z</time>
      </trkpt>
      <trkpt lat="42.473741" lon="-6.251811">
        <ele>1070.4099968</ele>
        <time>2018-07-24T07:40:59.990Z</time>
      </trkpt>
      <trkpt lat="42.473805" lon="-6.251938">
        <ele>1070</ele>
        <time>2018-07-24T07:41:01.990Z</time>
      </trkpt>
      <trkpt lat="42.473868" lon="-6.252066">
        <ele>1070</ele>
        <time>2018-07-24T07:41:04.000Z</time>
      </trkpt>
      <trkpt lat="42.473926" lon="-6.252188">
        <ele>1070</ele>
        <time>2018-07-24T07:41:05.990Z</time>
      </trkpt>
      <trkpt lat="42.473987" lon="-6.252298">
        <ele>1070</ele>
        <time>2018-07-24T07:41:07.990Z</time>
      </trkpt>
      <trkpt lat="42.474041" lon="-6.252414">
        <ele>1070</ele>
        <time>2018-07-24T07:41:09.990Z</time>
      </trkpt>
      <trkpt lat="42.474085" lon="-6.252524">
        <ele>1070</ele>
        <time>2018-07-24T07:41:11.990Z</time>
      </trkpt>
      <trkpt lat="42.474118" lon="-6.252678">
        <ele>1070</ele>
        <time>2018-07-24T07:41:14.990Z</time>
      </trkpt>
      <trkpt lat="42.474132" lon="-6.252836">
        <ele>1070</ele>
        <time>2018-07-24T07:41:17.990Z</time>
      </trkpt>
      <trkpt lat="42.474144" lon="-6.252991">
        <ele>1070</ele>
        <time>2018-07-24T07:41:20.990Z</time>
      </trkpt>
      <trkpt lat="42.474145" lon="-6.25315">
        <ele>1070</ele>
        <time>2018-07-24T07:41:24.000Z</time>
      </trkpt>
      <trkpt lat="42.47415" lon="-6.253311">
        <ele>1070</ele>
        <time>2018-07-24T07:41:26.990Z</time>
      </trkpt>
      <trkpt lat="42.474161" lon="-6.253479">
        <ele>1070</ele>
        <time>2018-07-24T07:41:29.990Z</time>
      </trkpt>
      <trkpt lat="42.474152" lon="-6.253649">
        <ele>1070</ele>
        <time>2018-07-24T07:41:32.990Z</time>
      </trkpt>
      <trkpt lat="42.47415" lon="-6.253808">
        <ele>1069.4099968</ele>
        <time>2018-07-24T07:41:35.990Z</time>
      </trkpt>
      <trkpt lat="42.474151" lon="-6.253979">
        <ele>1069</ele>
        <time>2018-07-24T07:41:39.000Z</time>
      </trkpt>
      <trkpt lat="42.474154" lon="-6.254135">
        <ele>1069</ele>
        <time>2018-07-24T07:41:41.990Z</time>
      </trkpt>
      <trkpt lat="42.474164" lon="-6.25426">
        <ele>1069</ele>
        <time>2018-07-24T07:41:49.990Z</time>
      </trkpt>
      <trkpt lat="42.474084" lon="-6.254328">
        <ele>1069</ele>
        <time>2018-07-24T07:42:49.990Z</time>
      </trkpt>
      <trkpt lat="42.474092" lon="-6.254468">
        <ele>1070</ele>
        <time>2018-07-24T07:42:59.000Z</time>
      </trkpt>
      <trkpt lat="42.474118" lon="-6.254587">
        <ele>1070.40579898342</ele>
        <time>2018-07-24T07:43:04.990Z</time>
      </trkpt>
      <trkpt lat="42.474134" lon="-6.254723">
        <ele>1072</ele>
        <time>2018-07-24T07:43:10.990Z</time>
      </trkpt>
      <trkpt lat="42.474121" lon="-6.254862">
        <ele>1073</ele>
        <time>2018-07-24T07:43:25.990Z</time>
      </trkpt>
      <trkpt lat="42.474124" lon="-6.254995">
        <ele>1075</ele>
        <time>2018-07-24T07:43:30.990Z</time>
      </trkpt>
      <trkpt lat="42.474122" lon="-6.255122">
        <ele>1075</ele>
        <time>2018-07-24T07:43:35.990Z</time>
      </trkpt>
      <trkpt lat="42.474132" lon="-6.255257">
        <ele>1075</ele>
        <time>2018-07-24T07:43:40.990Z</time>
      </trkpt>
      <trkpt lat="42.47415" lon="-6.255398">
        <ele>1077</ele>
        <time>2018-07-24T07:43:45.990Z</time>
      </trkpt>
      <trkpt lat="42.474192" lon="-6.255529">
        <ele>1077</ele>
        <time>2018-07-24T07:43:50.990Z</time>
      </trkpt>
      <trkpt lat="42.474246" lon="-6.255656">
        <ele>1077.5900032</ele>
        <time>2018-07-24T07:43:55.990Z</time>
      </trkpt>
      <trkpt lat="42.474315" lon="-6.255769">
        <ele>1079</ele>
        <time>2018-07-24T07:44:00.990Z</time>
      </trkpt>
      <trkpt lat="42.474376" lon="-6.255878">
        <ele>1080</ele>
        <time>2018-07-24T07:44:05.990Z</time>
      </trkpt>
      <trkpt lat="42.474448" lon="-6.255977">
        <ele>1080</ele>
        <time>2018-07-24T07:44:10.990Z</time>
      </trkpt>
      <trkpt lat="42.474511" lon="-6.256074">
        <ele>1081</ele>
        <time>2018-07-24T07:44:15.990Z</time>
      </trkpt>
      <trkpt lat="42.474573" lon="-6.256164">
        <ele>1082</ele>
        <time>2018-07-24T07:44:20.990Z</time>
      </trkpt>
      <trkpt lat="42.474629" lon="-6.256266">
        <ele>1082.5900032</ele>
        <time>2018-07-24T07:44:25.990Z</time>
      </trkpt>
      <trkpt lat="42.474697" lon="-6.256377">
        <ele>1084</ele>
        <time>2018-07-24T07:44:31.990Z</time>
      </trkpt>
      <trkpt lat="42.474742" lon="-6.256491">
        <ele>1084.5900032</ele>
        <time>2018-07-24T07:44:36.990Z</time>
      </trkpt>
      <trkpt lat="42.474798" lon="-6.256591">
        <ele>1086</ele>
        <time>2018-07-24T07:44:41.990Z</time>
      </trkpt>
      <trkpt lat="42.474853" lon="-6.256689">
        <ele>1086.5900032</ele>
        <time>2018-07-24T07:44:46.990Z</time>
      </trkpt>
      <trkpt lat="42.474919" lon="-6.256795">
        <ele>1088</ele>
        <time>2018-07-24T07:44:51.990Z</time>
      </trkpt>
      <trkpt lat="42.474982" lon="-6.256903">
        <ele>1089</ele>
        <time>2018-07-24T07:44:56.990Z</time>
      </trkpt>
      <trkpt lat="42.475048" lon="-6.25701">
        <ele>1090</ele>
        <time>2018-07-24T07:45:01.990Z</time>
      </trkpt>
      <trkpt lat="42.475117" lon="-6.257118">
        <ele>1090.4099968</ele>
        <time>2018-07-24T07:45:06.990Z</time>
      </trkpt>
      <trkpt lat="42.475182" lon="-6.25722">
        <ele>1091</ele>
        <time>2018-07-24T07:45:11.990Z</time>
      </trkpt>
      <trkpt lat="42.47525" lon="-6.257324">
        <ele>1091</ele>
        <time>2018-07-24T07:45:16.990Z</time>
      </trkpt>
      <trkpt lat="42.475317" lon="-6.25744">
        <ele>1093</ele>
        <time>2018-07-24T07:45:21.990Z</time>
      </trkpt>
      <trkpt lat="42.475384" lon="-6.257549">
        <ele>1093.5900032</ele>
        <time>2018-07-24T07:45:26.990Z</time>
      </trkpt>
      <trkpt lat="42.475452" lon="-6.257663">
        <ele>1094</ele>
        <time>2018-07-24T07:45:32.990Z</time>
      </trkpt>
      <trkpt lat="42.47551" lon="-6.257789">
        <ele>1094</ele>
        <time>2018-07-24T07:45:37.990Z</time>
      </trkpt>
      <trkpt lat="42.475567" lon="-6.257899">
        <ele>1096</ele>
        <time>2018-07-24T07:45:41.990Z</time>
      </trkpt>
      <trkpt lat="42.47563" lon="-6.257998">
        <ele>1096</ele>
        <time>2018-07-24T07:45:45.990Z</time>
      </trkpt>
      <trkpt lat="42.475691" lon="-6.258107">
        <ele>1096</ele>
        <time>2018-07-24T07:45:50.990Z</time>
      </trkpt>
      <trkpt lat="42.475746" lon="-6.258234">
        <ele>1097</ele>
        <time>2018-07-24T07:45:55.990Z</time>
      </trkpt>
      <trkpt lat="42.475804" lon="-6.258327">
        <ele>1098</ele>
        <time>2018-07-24T07:45:59.990Z</time>
      </trkpt>
      <trkpt lat="42.475868" lon="-6.258424">
        <ele>1098</ele>
        <time>2018-07-24T07:46:04.000Z</time>
      </trkpt>
      <trkpt lat="42.475948" lon="-6.258523">
        <ele>1098</ele>
        <time>2018-07-24T07:46:08.000Z</time>
      </trkpt>
      <trkpt lat="42.476026" lon="-6.258634">
        <ele>1098.6</ele>
        <time>2018-07-24T07:46:12.000Z</time>
      </trkpt>
      <trkpt lat="42.476083" lon="-6.258736">
        <ele>1099</ele>
        <time>2018-07-24T07:46:16.000Z</time>
      </trkpt>
      <trkpt lat="42.476132" lon="-6.258849">
        <ele>1099.6</ele>
        <time>2018-07-24T07:46:20.000Z</time>
      </trkpt>
      <trkpt lat="42.4762" lon="-6.258944">
        <ele>1100</ele>
        <time>2018-07-24T07:46:24.000Z</time>
      </trkpt>
      <trkpt lat="42.476264" lon="-6.259047">
        <ele>1101</ele>
        <time>2018-07-24T07:46:28.000Z</time>
      </trkpt>
      <trkpt lat="42.476331" lon="-6.259143">
        <ele>1101</ele>
        <time>2018-07-24T07:46:32.000Z</time>
      </trkpt>
      <trkpt lat="42.476385" lon="-6.25924">
        <ele>1102</ele>
        <time>2018-07-24T07:46:36.000Z</time>
      </trkpt>
      <trkpt lat="42.476443" lon="-6.259344">
        <ele>1102</ele>
        <time>2018-07-24T07:46:40.000Z</time>
      </trkpt>
      <trkpt lat="42.476507" lon="-6.259442">
        <ele>1102.6</ele>
        <time>2018-07-24T07:46:44.000Z</time>
      </trkpt>
      <trkpt lat="42.476569" lon="-6.259537">
        <ele>1103.43662225748</ele>
        <time>2018-07-24T07:46:48.000Z</time>
      </trkpt>
      <trkpt lat="42.476637" lon="-6.25965">
        <ele>1104</ele>
        <time>2018-07-24T07:46:53.000Z</time>
      </trkpt>
      <trkpt lat="42.476699" lon="-6.259745">
        <ele>1104</ele>
        <time>2018-07-24T07:46:57.000Z</time>
      </trkpt>
      <trkpt lat="42.476763" lon="-6.259841">
        <ele>1105</ele>
        <time>2018-07-24T07:47:01.000Z</time>
      </trkpt>
      <trkpt lat="42.47683" lon="-6.25993">
        <ele>1105</ele>
        <time>2018-07-24T07:47:05.000Z</time>
      </trkpt>
      <trkpt lat="42.476895" lon="-6.260021">
        <ele>1106</ele>
        <time>2018-07-24T07:47:09.000Z</time>
      </trkpt>
      <trkpt lat="42.476978" lon="-6.260127">
        <ele>1107</ele>
        <time>2018-07-24T07:47:13.990Z</time>
      </trkpt>
      <trkpt lat="42.477056" lon="-6.260227">
        <ele>1107</ele>
        <time>2018-07-24T07:47:18.990Z</time>
      </trkpt>
      <trkpt lat="42.477125" lon="-6.260312">
        <ele>1107</ele>
        <time>2018-07-24T07:47:22.990Z</time>
      </trkpt>
      <trkpt lat="42.477208" lon="-6.260399">
        <ele>1108</ele>
        <time>2018-07-24T07:47:26.990Z</time>
      </trkpt>
      <trkpt lat="42.477292" lon="-6.260501">
        <ele>1108</ele>
        <time>2018-07-24T07:47:30.990Z</time>
      </trkpt>
      <trkpt lat="42.477377" lon="-6.260594">
        <ele>1108</ele>
        <time>2018-07-24T07:47:35.000Z</time>
      </trkpt>
      <trkpt lat="42.477439" lon="-6.260688">
        <ele>1108</ele>
        <time>2018-07-24T07:47:38.990Z</time>
      </trkpt>
      <trkpt lat="42.477526" lon="-6.260788">
        <ele>1109</ele>
        <time>2018-07-24T07:47:42.990Z</time>
      </trkpt>
      <trkpt lat="42.477608" lon="-6.260903">
        <ele>1109</ele>
        <time>2018-07-24T07:47:46.990Z</time>
      </trkpt>
      <trkpt lat="42.477683" lon="-6.261012">
        <ele>1109</ele>
        <time>2018-07-24T07:47:50.990Z</time>
      </trkpt>
      <trkpt lat="42.477742" lon="-6.261133">
        <ele>1109</ele>
        <time>2018-07-24T07:47:55.000Z</time>
      </trkpt>
      <trkpt lat="42.477795" lon="-6.261281">
        <ele>1109</ele>
        <time>2018-07-24T07:47:58.990Z</time>
      </trkpt>
      <trkpt lat="42.477821" lon="-6.261433">
        <ele>1109</ele>
        <time>2018-07-24T07:48:02.990Z</time>
      </trkpt>
      <trkpt lat="42.477838" lon="-6.26157">
        <ele>1109</ele>
        <time>2018-07-24T07:48:05.990Z</time>
      </trkpt>
      <trkpt lat="42.47786" lon="-6.261704">
        <ele>1109</ele>
        <time>2018-07-24T07:48:08.990Z</time>
      </trkpt>
      <trkpt lat="42.477886" lon="-6.261836">
        <ele>1109</ele>
        <time>2018-07-24T07:48:11.990Z</time>
      </trkpt>
      <trkpt lat="42.477894" lon="-6.261965">
        <ele>1109</ele>
        <time>2018-07-24T07:48:15.000Z</time>
      </trkpt>
      <trkpt lat="42.477912" lon="-6.262109">
        <ele>1109</ele>
        <time>2018-07-24T07:48:17.990Z</time>
      </trkpt>
      <trkpt lat="42.477928" lon="-6.262262">
        <ele>1108.01241840978</ele>
        <time>2018-07-24T07:48:20.990Z</time>
      </trkpt>
      <trkpt lat="42.477946" lon="-6.262401">
        <ele>1108</ele>
        <time>2018-07-24T07:48:23.990Z</time>
      </trkpt>
      <trkpt lat="42.477965" lon="-6.262556">
        <ele>1108</ele>
        <time>2018-07-24T07:48:26.990Z</time>
      </trkpt>
      <trkpt lat="42.477989" lon="-6.26272">
        <ele>1108</ele>
        <time>2018-07-24T07:48:30.000Z</time>
      </trkpt>
      <trkpt lat="42.478017" lon="-6.262892">
        <ele>1108</ele>
        <time>2018-07-24T07:48:32.990Z</time>
      </trkpt>
      <trkpt lat="42.478039" lon="-6.263063">
        <ele>1108</ele>
        <time>2018-07-24T07:48:35.990Z</time>
      </trkpt>
      <trkpt lat="42.478062" lon="-6.263193">
        <ele>1108</ele>
        <time>2018-07-24T07:48:37.990Z</time>
      </trkpt>
      <trkpt lat="42.478083" lon="-6.263317">
        <ele>1107.56337774252</ele>
        <time>2018-07-24T07:48:40.000Z</time>
      </trkpt>
      <trkpt lat="42.478106" lon="-6.263489">
        <ele>1107</ele>
        <time>2018-07-24T07:48:42.990Z</time>
      </trkpt>
      <trkpt lat="42.478131" lon="-6.263659">
        <ele>1106.4099968</ele>
        <time>2018-07-24T07:48:45.990Z</time>
      </trkpt>
      <trkpt lat="42.478156" lon="-6.263842">
        <ele>1106</ele>
        <time>2018-07-24T07:48:48.990Z</time>
      </trkpt>
      <trkpt lat="42.478178" lon="-6.263976">
        <ele>1106</ele>
        <time>2018-07-24T07:48:50.990Z</time>
      </trkpt>
      <trkpt lat="42.478205" lon="-6.264105">
        <ele>1106</ele>
        <time>2018-07-24T07:48:52.990Z</time>
      </trkpt>
      <trkpt lat="42.478225" lon="-6.264242">
        <ele>1106</ele>
        <time>2018-07-24T07:48:55.000Z</time>
      </trkpt>
      <trkpt lat="42.478241" lon="-6.264383">
        <ele>1105.41836134948</ele>
        <time>2018-07-24T07:48:56.990Z</time>
      </trkpt>
      <trkpt lat="42.478258" lon="-6.264524">
        <ele>1105</ele>
        <time>2018-07-24T07:48:58.990Z</time>
      </trkpt>
      <trkpt lat="42.478276" lon="-6.264661">
        <ele>1104</ele>
        <time>2018-07-24T07:49:00.990Z</time>
      </trkpt>
      <trkpt lat="42.478302" lon="-6.264797">
        <ele>1104</ele>
        <time>2018-07-24T07:49:02.990Z</time>
      </trkpt>
      <trkpt lat="42.47834" lon="-6.26493">
        <ele>1104</ele>
        <time>2018-07-24T07:49:05.000Z</time>
      </trkpt>
      <trkpt lat="42.478354" lon="-6.265056">
        <ele>1104</ele>
        <time>2018-07-24T07:49:06.990Z</time>
      </trkpt>
      <trkpt lat="42.478375" lon="-6.265248">
        <ele>1104</ele>
        <time>2018-07-24T07:49:10.000Z</time>
      </trkpt>
      <trkpt lat="42.478392" lon="-6.265396">
        <ele>1104</ele>
        <time>2018-07-24T07:49:11.990Z</time>
      </trkpt>
      <trkpt lat="42.478409" lon="-6.265526">
        <ele>1104</ele>
        <time>2018-07-24T07:49:13.990Z</time>
      </trkpt>
      <trkpt lat="42.478423" lon="-6.265658">
        <ele>1103.41836681382</ele>
        <time>2018-07-24T07:49:15.990Z</time>
      </trkpt>
      <trkpt lat="42.478442" lon="-6.265801">
        <ele>1103</ele>
        <time>2018-07-24T07:49:17.990Z</time>
      </trkpt>
      <trkpt lat="42.478457" lon="-6.265934">
        <ele>1103</ele>
        <time>2018-07-24T07:49:20.000Z</time>
      </trkpt>
      <trkpt lat="42.478488" lon="-6.266067">
        <ele>1103</ele>
        <time>2018-07-24T07:49:21.990Z</time>
      </trkpt>
      <trkpt lat="42.478514" lon="-6.266238">
        <ele>1104</ele>
        <time>2018-07-24T07:49:25.000Z</time>
      </trkpt>
      <trkpt lat="42.47854" lon="-6.266406">
        <ele>1103</ele>
        <time>2018-07-24T07:49:27.990Z</time>
      </trkpt>
      <trkpt lat="42.478559" lon="-6.266535">
        <ele>1103</ele>
        <time>2018-07-24T07:49:30.000Z</time>
      </trkpt>
      <trkpt lat="42.478586" lon="-6.26666">
        <ele>1103</ele>
        <time>2018-07-24T07:49:31.990Z</time>
      </trkpt>
      <trkpt lat="42.478614" lon="-6.26679">
        <ele>1103</ele>
        <time>2018-07-24T07:49:33.990Z</time>
      </trkpt>
      <trkpt lat="42.478639" lon="-6.266967">
        <ele>1103</ele>
        <time>2018-07-24T07:49:36.990Z</time>
      </trkpt>
      <trkpt lat="42.478666" lon="-6.267093">
        <ele>1103</ele>
        <time>2018-07-24T07:49:38.990Z</time>
      </trkpt>
      <trkpt lat="42.478693" lon="-6.267218">
        <ele>1103</ele>
        <time>2018-07-24T07:49:40.990Z</time>
      </trkpt>
      <trkpt lat="42.478723" lon="-6.267394">
        <ele>1103</ele>
        <time>2018-07-24T07:49:43.990Z</time>
      </trkpt>
      <trkpt lat="42.478762" lon="-6.26757">
        <ele>1103</ele>
        <time>2018-07-24T07:49:46.990Z</time>
      </trkpt>
      <trkpt lat="42.478784" lon="-6.267696">
        <ele>1103</ele>
        <time>2018-07-24T07:49:48.990Z</time>
      </trkpt>
      <trkpt lat="42.478807" lon="-6.26786">
        <ele>1103</ele>
        <time>2018-07-24T07:49:51.990Z</time>
      </trkpt>
      <trkpt lat="42.47883" lon="-6.268022">
        <ele>1103</ele>
        <time>2018-07-24T07:49:55.000Z</time>
      </trkpt>
      <trkpt lat="42.478857" lon="-6.268168">
        <ele>1103</ele>
        <time>2018-07-24T07:49:57.990Z</time>
      </trkpt>
      <trkpt lat="42.478884" lon="-6.268322">
        <ele>1103</ele>
        <time>2018-07-24T07:50:00.990Z</time>
      </trkpt>
      <trkpt lat="42.478905" lon="-6.268481">
        <ele>1103</ele>
        <time>2018-07-24T07:50:03.990Z</time>
      </trkpt>
      <trkpt lat="42.478943" lon="-6.268638">
        <ele>1103</ele>
        <time>2018-07-24T07:50:06.990Z</time>
      </trkpt>
      <trkpt lat="42.478971" lon="-6.268808">
        <ele>1103</ele>
        <time>2018-07-24T07:50:10.000Z</time>
      </trkpt>
      <trkpt lat="42.478987" lon="-6.26895">
        <ele>1103</ele>
        <time>2018-07-24T07:50:12.990Z</time>
      </trkpt>
      <trkpt lat="42.479008" lon="-6.269108">
        <ele>1104</ele>
        <time>2018-07-24T07:50:15.990Z</time>
      </trkpt>
      <trkpt lat="42.47903" lon="-6.269257">
        <ele>1104</ele>
        <time>2018-07-24T07:50:18.990Z</time>
      </trkpt>
      <trkpt lat="42.479046" lon="-6.269402">
        <ele>1104</ele>
        <time>2018-07-24T07:50:21.990Z</time>
      </trkpt>
      <trkpt lat="42.479056" lon="-6.269547">
        <ele>1104</ele>
        <time>2018-07-24T07:50:25.000Z</time>
      </trkpt>
      <trkpt lat="42.479083" lon="-6.269703">
        <ele>1105</ele>
        <time>2018-07-24T07:50:27.990Z</time>
      </trkpt>
      <trkpt lat="42.479095" lon="-6.269841">
        <ele>1105</ele>
        <time>2018-07-24T07:50:30.990Z</time>
      </trkpt>
      <trkpt lat="42.479106" lon="-6.269963">
        <ele>1105</ele>
        <time>2018-07-24T07:50:33.990Z</time>
      </trkpt>
      <trkpt lat="42.479106" lon="-6.270087">
        <ele>1106</ele>
        <time>2018-07-24T07:50:36.990Z</time>
      </trkpt>
      <trkpt lat="42.47912" lon="-6.270236">
        <ele>1106</ele>
        <time>2018-07-24T07:50:40.000Z</time>
      </trkpt>
      <trkpt lat="42.479141" lon="-6.270383">
        <ele>1106</ele>
        <time>2018-07-24T07:50:42.990Z</time>
      </trkpt>
      <trkpt lat="42.479155" lon="-6.270514">
        <ele>1106</ele>
        <time>2018-07-24T07:50:45.990Z</time>
      </trkpt>
      <trkpt lat="42.479155" lon="-6.270644">
        <ele>1106</ele>
        <time>2018-07-24T07:50:48.990Z</time>
      </trkpt>
      <trkpt lat="42.479154" lon="-6.270783">
        <ele>1106</ele>
        <time>2018-07-24T07:50:51.990Z</time>
      </trkpt>
      <trkpt lat="42.479162" lon="-6.270934">
        <ele>1107.6</ele>
        <time>2018-07-24T07:50:55.000Z</time>
      </trkpt>
      <trkpt lat="42.479157" lon="-6.271065">
        <ele>1108</ele>
        <time>2018-07-24T07:50:57.990Z</time>
      </trkpt>
      <trkpt lat="42.479139" lon="-6.271206">
        <ele>1108</ele>
        <time>2018-07-24T07:51:00.990Z</time>
      </trkpt>
      <trkpt lat="42.479112" lon="-6.271332">
        <ele>1108</ele>
        <time>2018-07-24T07:51:03.990Z</time>
      </trkpt>
      <trkpt lat="42.479079" lon="-6.271458">
        <ele>1108</ele>
        <time>2018-07-24T07:51:06.990Z</time>
      </trkpt>
      <trkpt lat="42.479055" lon="-6.271583">
        <ele>1108</ele>
        <time>2018-07-24T07:51:10.000Z</time>
      </trkpt>
      <trkpt lat="42.479034" lon="-6.271739">
        <ele>1109</ele>
        <time>2018-07-24T07:51:13.990Z</time>
      </trkpt>
      <trkpt lat="42.479013" lon="-6.271865">
        <ele>1110</ele>
        <time>2018-07-24T07:51:16.990Z</time>
      </trkpt>
      <trkpt lat="42.478986" lon="-6.271995">
        <ele>1109</ele>
        <time>2018-07-24T07:51:20.000Z</time>
      </trkpt>
      <trkpt lat="42.478973" lon="-6.272133">
        <ele>1110</ele>
        <time>2018-07-24T07:51:22.990Z</time>
      </trkpt>
      <trkpt lat="42.478971" lon="-6.272265">
        <ele>1111</ele>
        <time>2018-07-24T07:51:25.990Z</time>
      </trkpt>
      <trkpt lat="42.478957" lon="-6.27239">
        <ele>1111</ele>
        <time>2018-07-24T07:51:28.990Z</time>
      </trkpt>
      <trkpt lat="42.478949" lon="-6.27252">
        <ele>1111</ele>
        <time>2018-07-24T07:51:31.990Z</time>
      </trkpt>
      <trkpt lat="42.47896" lon="-6.272651">
        <ele>1111</ele>
        <time>2018-07-24T07:51:35.000Z</time>
      </trkpt>
      <trkpt lat="42.478984" lon="-6.272777">
        <ele>1112.42254232094</ele>
        <time>2018-07-24T07:51:37.990Z</time>
      </trkpt>
      <trkpt lat="42.479002" lon="-6.272914">
        <ele>1113</ele>
        <time>2018-07-24T07:51:41.990Z</time>
      </trkpt>
      <trkpt lat="42.479031" lon="-6.273067">
        <ele>1113</ele>
        <time>2018-07-24T07:51:45.990Z</time>
      </trkpt>
      <trkpt lat="42.479073" lon="-6.273184">
        <ele>1113</ele>
        <time>2018-07-24T07:51:48.990Z</time>
      </trkpt>
      <trkpt lat="42.479109" lon="-6.273312">
        <ele>1113.5900032</ele>
        <time>2018-07-24T07:51:52.990Z</time>
      </trkpt>
      <trkpt lat="42.479152" lon="-6.273456">
        <ele>1114.42254232094</ele>
        <time>2018-07-24T07:51:56.990Z</time>
      </trkpt>
      <trkpt lat="42.479204" lon="-6.273569">
        <ele>1115</ele>
        <time>2018-07-24T07:52:00.000Z</time>
      </trkpt>
      <trkpt lat="42.479251" lon="-6.273703">
        <ele>1116.58823160325</ele>
        <time>2018-07-24T07:52:05.000Z</time>
      </trkpt>
      <trkpt lat="42.479289" lon="-6.273845">
        <ele>1117</ele>
        <time>2018-07-24T07:52:10.000Z</time>
      </trkpt>
      <trkpt lat="42.479331" lon="-6.273971">
        <ele>1117.5900032</ele>
        <time>2018-07-24T07:52:13.990Z</time>
      </trkpt>
      <trkpt lat="42.479374" lon="-6.274103">
        <ele>1118</ele>
        <time>2018-07-24T07:52:17.990Z</time>
      </trkpt>
      <trkpt lat="42.479416" lon="-6.274234">
        <ele>1119</ele>
        <time>2018-07-24T07:52:21.990Z</time>
      </trkpt>
      <trkpt lat="42.479459" lon="-6.274379">
        <ele>1119</ele>
        <time>2018-07-24T07:52:25.990Z</time>
      </trkpt>
      <trkpt lat="42.479497" lon="-6.274502">
        <ele>1120</ele>
        <time>2018-07-24T07:52:30.000Z</time>
      </trkpt>
      <trkpt lat="42.479526" lon="-6.274634">
        <ele>1121</ele>
        <time>2018-07-24T07:52:33.990Z</time>
      </trkpt>
      <trkpt lat="42.479569" lon="-6.274776">
        <ele>1121</ele>
        <time>2018-07-24T07:52:37.990Z</time>
      </trkpt>
      <trkpt lat="42.479601" lon="-6.274901">
        <ele>1121.5900032</ele>
        <time>2018-07-24T07:52:41.990Z</time>
      </trkpt>
      <trkpt lat="42.479627" lon="-6.275039">
        <ele>1123</ele>
        <time>2018-07-24T07:52:45.990Z</time>
      </trkpt>
      <trkpt lat="42.479661" lon="-6.275176">
        <ele>1123</ele>
        <time>2018-07-24T07:52:50.000Z</time>
      </trkpt>
      <trkpt lat="42.47969" lon="-6.27532">
        <ele>1124</ele>
        <time>2018-07-24T07:52:53.990Z</time>
      </trkpt>
      <trkpt lat="42.479719" lon="-6.27545">
        <ele>1124.5900032</ele>
        <time>2018-07-24T07:52:57.990Z</time>
      </trkpt>
      <trkpt lat="42.479742" lon="-6.27558">
        <ele>1124.4099968</ele>
        <time>2018-07-24T07:53:00.990Z</time>
      </trkpt>
      <trkpt lat="42.479774" lon="-6.275706">
        <ele>1125</ele>
        <time>2018-07-24T07:53:03.990Z</time>
      </trkpt>
      <trkpt lat="42.479798" lon="-6.275848">
        <ele>1125.5900032</ele>
        <time>2018-07-24T07:53:06.990Z</time>
      </trkpt>
      <trkpt lat="42.479825" lon="-6.275986">
        <ele>1126</ele>
        <time>2018-07-24T07:53:10.000Z</time>
      </trkpt>
      <trkpt lat="42.479854" lon="-6.276122">
        <ele>1126</ele>
        <time>2018-07-24T07:53:12.990Z</time>
      </trkpt>
      <trkpt lat="42.479887" lon="-6.276262">
        <ele>1126.5900032</ele>
        <time>2018-07-24T07:53:15.990Z</time>
      </trkpt>
      <trkpt lat="42.47992" lon="-6.276405">
        <ele>1127</ele>
        <time>2018-07-24T07:53:18.990Z</time>
      </trkpt>
      <trkpt lat="42.479951" lon="-6.27655">
        <ele>1127</ele>
        <time>2018-07-24T07:53:21.990Z</time>
      </trkpt>
      <trkpt lat="42.479979" lon="-6.276699">
        <ele>1127</ele>
        <time>2018-07-24T07:53:25.000Z</time>
      </trkpt>
      <trkpt lat="42.479994" lon="-6.276836">
        <ele>1127</ele>
        <time>2018-07-24T07:53:27.990Z</time>
      </trkpt>
      <trkpt lat="42.480015" lon="-6.276975">
        <ele>1128</ele>
        <time>2018-07-24T07:53:30.990Z</time>
      </trkpt>
      <trkpt lat="42.480048" lon="-6.27712">
        <ele>1128</ele>
        <time>2018-07-24T07:53:33.990Z</time>
      </trkpt>
      <trkpt lat="42.480083" lon="-6.277263">
        <ele>1128</ele>
        <time>2018-07-24T07:53:36.990Z</time>
      </trkpt>
      <trkpt lat="42.480105" lon="-6.277409">
        <ele>1128</ele>
        <time>2018-07-24T07:53:40.000Z</time>
      </trkpt>
      <trkpt lat="42.480143" lon="-6.277563">
        <ele>1128</ele>
        <time>2018-07-24T07:53:42.990Z</time>
      </trkpt>
      <trkpt lat="42.480165" lon="-6.277705">
        <ele>1128</ele>
        <time>2018-07-24T07:53:45.990Z</time>
      </trkpt>
      <trkpt lat="42.480192" lon="-6.277851">
        <ele>1128.58416343497</ele>
        <time>2018-07-24T07:53:48.990Z</time>
      </trkpt>
      <trkpt lat="42.480216" lon="-6.277983">
        <ele>1129</ele>
        <time>2018-07-24T07:53:51.990Z</time>
      </trkpt>
      <trkpt lat="42.480233" lon="-6.278128">
        <ele>1129</ele>
        <time>2018-07-24T07:53:55.990Z</time>
      </trkpt>
      <trkpt lat="42.480241" lon="-6.278277">
        <ele>1129</ele>
        <time>2018-07-24T07:54:00.990Z</time>
      </trkpt>
      <trkpt lat="42.480267" lon="-6.278434">
        <ele>1130</ele>
        <time>2018-07-24T07:54:05.000Z</time>
      </trkpt>
      <trkpt lat="42.480293" lon="-6.278582">
        <ele>1130</ele>
        <time>2018-07-24T07:54:07.990Z</time>
      </trkpt>
      <trkpt lat="42.480324" lon="-6.27872">
        <ele>1129</ele>
        <time>2018-07-24T07:54:10.990Z</time>
      </trkpt>
      <trkpt lat="42.480404" lon="-6.27884">
        <ele>1129</ele>
        <time>2018-07-24T07:54:22.990Z</time>
      </trkpt>
      <trkpt lat="42.480463" lon="-6.27896">
        <ele>1129</ele>
        <time>2018-07-24T07:54:25.000Z</time>
      </trkpt>
      <trkpt lat="42.48052" lon="-6.279065">
        <ele>1129</ele>
        <time>2018-07-24T07:54:26.990Z</time>
      </trkpt>
      <trkpt lat="42.480622" lon="-6.279176">
        <ele>1129</ele>
        <time>2018-07-24T07:54:30.000Z</time>
      </trkpt>
      <trkpt lat="42.48069" lon="-6.279303">
        <ele>1130.5900032</ele>
        <time>2018-07-24T07:54:32.990Z</time>
      </trkpt>
      <trkpt lat="42.480736" lon="-6.279424">
        <ele>1131</ele>
        <time>2018-07-24T07:54:36.990Z</time>
      </trkpt>
      <trkpt lat="42.480742" lon="-6.279554">
        <ele>1132</ele>
        <time>2018-07-24T07:54:42.990Z</time>
      </trkpt>
      <trkpt lat="42.480785" lon="-6.279666">
        <ele>1132</ele>
        <time>2018-07-24T07:54:46.990Z</time>
      </trkpt>
      <trkpt lat="42.480829" lon="-6.279782">
        <ele>1132</ele>
        <time>2018-07-24T07:54:50.000Z</time>
      </trkpt>
      <trkpt lat="42.48087" lon="-6.279918">
        <ele>1133.6</ele>
        <time>2018-07-24T07:54:55.000Z</time>
      </trkpt>
      <trkpt lat="42.480946" lon="-6.280016">
        <ele>1134</ele>
        <time>2018-07-24T07:55:02.990Z</time>
      </trkpt>
      <trkpt lat="42.480876" lon="-6.279923">
        <ele>1134</ele>
        <time>2018-07-24T07:55:11.990Z</time>
      </trkpt>
      <trkpt lat="42.480784" lon="-6.27991">
        <ele>1134</ele>
        <time>2018-07-24T07:56:33.990Z</time>
      </trkpt>
      <trkpt lat="42.480844" lon="-6.280006">
        <ele>1134</ele>
        <time>2018-07-24T07:58:22.990Z</time>
      </trkpt>
      <trkpt lat="42.480923" lon="-6.280074">
        <ele>1136</ele>
        <time>2018-07-24T08:05:57.990Z</time>
      </trkpt>
      <trkpt lat="42.48099" lon="-6.280166">
        <ele>1137</ele>
        <time>2018-07-24T08:06:01.990Z</time>
      </trkpt>
      <trkpt lat="42.48105" lon="-6.280274">
        <ele>1137</ele>
        <time>2018-07-24T08:06:05.990Z</time>
      </trkpt>
      <trkpt lat="42.48112" lon="-6.280396">
        <ele>1138</ele>
        <time>2018-07-24T08:06:09.990Z</time>
      </trkpt>
      <trkpt lat="42.48118" lon="-6.280501">
        <ele>1138</ele>
        <time>2018-07-24T08:06:12.990Z</time>
      </trkpt>
      <trkpt lat="42.481242" lon="-6.280612">
        <ele>1139</ele>
        <time>2018-07-24T08:06:15.990Z</time>
      </trkpt>
      <trkpt lat="42.481316" lon="-6.280731">
        <ele>1139</ele>
        <time>2018-07-24T08:06:19.000Z</time>
      </trkpt>
      <trkpt lat="42.481383" lon="-6.280828">
        <ele>1139</ele>
        <time>2018-07-24T08:06:21.990Z</time>
      </trkpt>
      <trkpt lat="42.481442" lon="-6.280959">
        <ele>1139</ele>
        <time>2018-07-24T08:06:25.990Z</time>
      </trkpt>
      <trkpt lat="42.481513" lon="-6.28107">
        <ele>1139.6</ele>
        <time>2018-07-24T08:06:29.000Z</time>
      </trkpt>
      <trkpt lat="42.481564" lon="-6.28118">
        <ele>1141</ele>
        <time>2018-07-24T08:06:31.990Z</time>
      </trkpt>
      <trkpt lat="42.481603" lon="-6.281296">
        <ele>1141</ele>
        <time>2018-07-24T08:06:34.990Z</time>
      </trkpt>
      <trkpt lat="42.481625" lon="-6.281441">
        <ele>1142</ele>
        <time>2018-07-24T08:06:39.000Z</time>
      </trkpt>
      <trkpt lat="42.481649" lon="-6.281592">
        <ele>1142</ele>
        <time>2018-07-24T08:06:42.990Z</time>
      </trkpt>
      <trkpt lat="42.481699" lon="-6.281727">
        <ele>1143</ele>
        <time>2018-07-24T08:06:47.990Z</time>
      </trkpt>
      <trkpt lat="42.481752" lon="-6.28186">
        <ele>1145</ele>
        <time>2018-07-24T08:06:52.990Z</time>
      </trkpt>
      <trkpt lat="42.48181" lon="-6.281986">
        <ele>1146</ele>
        <time>2018-07-24T08:06:57.990Z</time>
      </trkpt>
      <trkpt lat="42.481852" lon="-6.282099">
        <ele>1147</ele>
        <time>2018-07-24T08:07:02.990Z</time>
      </trkpt>
      <trkpt lat="42.481906" lon="-6.282256">
        <ele>1148</ele>
        <time>2018-07-24T08:07:09.000Z</time>
      </trkpt>
      <trkpt lat="42.481903" lon="-6.282408">
        <ele>1148</ele>
        <time>2018-07-24T08:07:13.000Z</time>
      </trkpt>
      <trkpt lat="42.481915" lon="-6.282544">
        <ele>1149</ele>
        <time>2018-07-24T08:07:16.000Z</time>
      </trkpt>
      <trkpt lat="42.481945" lon="-6.282666">
        <ele>1150</ele>
        <time>2018-07-24T08:07:20.000Z</time>
      </trkpt>
      <trkpt lat="42.481978" lon="-6.282795">
        <ele>1150.6</ele>
        <time>2018-07-24T08:07:25.000Z</time>
      </trkpt>
      <trkpt lat="42.482028" lon="-6.282906">
        <ele>1152</ele>
        <time>2018-07-24T08:07:30.000Z</time>
      </trkpt>
      <trkpt lat="42.482069" lon="-6.283017">
        <ele>1152</ele>
        <time>2018-07-24T08:07:34.990Z</time>
      </trkpt>
      <trkpt lat="42.482112" lon="-6.283144">
        <ele>1153</ele>
        <time>2018-07-24T08:07:40.000Z</time>
      </trkpt>
      <trkpt lat="42.482148" lon="-6.283281">
        <ele>1154</ele>
        <time>2018-07-24T08:07:45.000Z</time>
      </trkpt>
      <trkpt lat="42.48219" lon="-6.283406">
        <ele>1154</ele>
        <time>2018-07-24T08:07:50.990Z</time>
      </trkpt>
      <trkpt lat="42.48221" lon="-6.28353">
        <ele>1154</ele>
        <time>2018-07-24T08:07:55.000Z</time>
      </trkpt>
      <trkpt lat="42.482236" lon="-6.283657">
        <ele>1154.42254232094</ele>
        <time>2018-07-24T08:07:58.990Z</time>
      </trkpt>
      <trkpt lat="42.482254" lon="-6.283797">
        <ele>1157</ele>
        <time>2018-07-24T08:08:04.990Z</time>
      </trkpt>
      <trkpt lat="42.482294" lon="-6.283913">
        <ele>1157</ele>
        <time>2018-07-24T08:08:10.990Z</time>
      </trkpt>
      <trkpt lat="42.482324" lon="-6.284043">
        <ele>1158</ele>
        <time>2018-07-24T08:08:16.000Z</time>
      </trkpt>
      <trkpt lat="42.482352" lon="-6.284169">
        <ele>1158</ele>
        <time>2018-07-24T08:08:21.000Z</time>
      </trkpt>
      <trkpt lat="42.482378" lon="-6.284299">
        <ele>1159</ele>
        <time>2018-07-24T08:08:25.990Z</time>
      </trkpt>
      <trkpt lat="42.48239" lon="-6.28443">
        <ele>1159</ele>
        <time>2018-07-24T08:08:29.990Z</time>
      </trkpt>
      <trkpt lat="42.48241" lon="-6.284556">
        <ele>1160.5900032</ele>
        <time>2018-07-24T08:08:34.990Z</time>
      </trkpt>
      <trkpt lat="42.482428" lon="-6.284677">
        <ele>1161</ele>
        <time>2018-07-24T08:08:39.990Z</time>
      </trkpt>
      <trkpt lat="42.482474" lon="-6.284807">
        <ele>1162</ele>
        <time>2018-07-24T08:08:45.000Z</time>
      </trkpt>
      <trkpt lat="42.482456" lon="-6.284947">
        <ele>1163</ele>
        <time>2018-07-24T08:08:50.000Z</time>
      </trkpt>
      <trkpt lat="42.482466" lon="-6.285103">
        <ele>1164</ele>
        <time>2018-07-24T08:08:56.000Z</time>
      </trkpt>
      <trkpt lat="42.482492" lon="-6.285245">
        <ele>1165</ele>
        <time>2018-07-24T08:09:03.100Z</time>
      </trkpt>
      <trkpt lat="42.48253" lon="-6.285385">
        <ele>1166</ele>
        <time>2018-07-24T08:09:06.000Z</time>
      </trkpt>
      <trkpt lat="42.482513" lon="-6.285519">
        <ele>1166.5900032</ele>
        <time>2018-07-24T08:09:10.990Z</time>
      </trkpt>
      <trkpt lat="42.482476" lon="-6.285651">
        <ele>1168</ele>
        <time>2018-07-24T08:09:15.000Z</time>
      </trkpt>
      <trkpt lat="42.482502" lon="-6.285789">
        <ele>1168</ele>
        <time>2018-07-24T08:09:19.990Z</time>
      </trkpt>
      <trkpt lat="42.4825" lon="-6.285928">
        <ele>1168.58586315681</ele>
        <time>2018-07-24T08:09:24.990Z</time>
      </trkpt>
      <trkpt lat="42.482521" lon="-6.286073">
        <ele>1169</ele>
        <time>2018-07-24T08:09:29.990Z</time>
      </trkpt>
      <trkpt lat="42.48254" lon="-6.286232">
        <ele>1169.3000064</ele>
        <time>2018-07-24T08:09:36.100Z</time>
      </trkpt>
      <trkpt lat="42.482573" lon="-6.286361">
        <ele>1169</ele>
        <time>2018-07-24T08:09:39.000Z</time>
      </trkpt>
      <trkpt lat="42.482613" lon="-6.286508">
        <ele>1169</ele>
        <time>2018-07-24T08:09:42.990Z</time>
      </trkpt>
      <trkpt lat="42.482649" lon="-6.286631">
        <ele>1170</ele>
        <time>2018-07-24T08:09:46.990Z</time>
      </trkpt>
      <trkpt lat="42.482689" lon="-6.286751">
        <ele>1170</ele>
        <time>2018-07-24T08:09:51.000Z</time>
      </trkpt>
      <trkpt lat="42.482716" lon="-6.286871">
        <ele>1170</ele>
        <time>2018-07-24T08:09:54.990Z</time>
      </trkpt>
      <trkpt lat="42.482747" lon="-6.286997">
        <ele>1170</ele>
        <time>2018-07-24T08:09:58.990Z</time>
      </trkpt>
      <trkpt lat="42.482785" lon="-6.287118">
        <ele>1170</ele>
        <time>2018-07-24T08:10:02.990Z</time>
      </trkpt>
      <trkpt lat="42.48282" lon="-6.287252">
        <ele>1170</ele>
        <time>2018-07-24T08:10:06.990Z</time>
      </trkpt>
      <trkpt lat="42.482856" lon="-6.287382">
        <ele>1170</ele>
        <time>2018-07-24T08:10:11.000Z</time>
      </trkpt>
      <trkpt lat="42.482878" lon="-6.287504">
        <ele>1170</ele>
        <time>2018-07-24T08:10:14.990Z</time>
      </trkpt>
      <trkpt lat="42.4829" lon="-6.287648">
        <ele>1171</ele>
        <time>2018-07-24T08:10:19.990Z</time>
      </trkpt>
      <trkpt lat="42.482897" lon="-6.287778">
        <ele>1172</ele>
        <time>2018-07-24T08:10:23.990Z</time>
      </trkpt>
      <trkpt lat="42.482912" lon="-6.287947">
        <ele>1172</ele>
        <time>2018-07-24T08:10:29.000Z</time>
      </trkpt>
      <trkpt lat="42.48292" lon="-6.288071">
        <ele>1172</ele>
        <time>2018-07-24T08:10:32.000Z</time>
      </trkpt>
      <trkpt lat="42.482947" lon="-6.288207">
        <ele>1172.5900032</ele>
        <time>2018-07-24T08:10:35.990Z</time>
      </trkpt>
      <trkpt lat="42.482982" lon="-6.288344">
        <ele>1173</ele>
        <time>2018-07-24T08:10:39.990Z</time>
      </trkpt>
      <trkpt lat="42.483006" lon="-6.28849">
        <ele>1173.6</ele>
        <time>2018-07-24T08:10:44.000Z</time>
      </trkpt>
      <trkpt lat="42.483034" lon="-6.288637">
        <ele>1174</ele>
        <time>2018-07-24T08:10:47.990Z</time>
      </trkpt>
      <trkpt lat="42.483061" lon="-6.288759">
        <ele>1174</ele>
        <time>2018-07-24T08:10:50.990Z</time>
      </trkpt>
      <trkpt lat="42.483068" lon="-6.288914">
        <ele>1175</ele>
        <time>2018-07-24T08:10:55.000Z</time>
      </trkpt>
      <trkpt lat="42.483089" lon="-6.289035">
        <ele>1175</ele>
        <time>2018-07-24T08:10:57.990Z</time>
      </trkpt>
      <trkpt lat="42.483084" lon="-6.289157">
        <ele>1175</ele>
        <time>2018-07-24T08:11:00.990Z</time>
      </trkpt>
      <trkpt lat="42.483082" lon="-6.289279">
        <ele>1176</ele>
        <time>2018-07-24T08:11:03.990Z</time>
      </trkpt>
      <trkpt lat="42.483066" lon="-6.28944">
        <ele>1176</ele>
        <time>2018-07-24T08:11:07.990Z</time>
      </trkpt>
      <trkpt lat="42.483036" lon="-6.289593">
        <ele>1176</ele>
        <time>2018-07-24T08:11:11.990Z</time>
      </trkpt>
      <trkpt lat="42.483002" lon="-6.289731">
        <ele>1176.5900032</ele>
        <time>2018-07-24T08:11:15.990Z</time>
      </trkpt>
      <trkpt lat="42.48298" lon="-6.289877">
        <ele>1178</ele>
        <time>2018-07-24T08:11:20.000Z</time>
      </trkpt>
      <trkpt lat="42.48295" lon="-6.290021">
        <ele>1179.42254232094</ele>
        <time>2018-07-24T08:11:23.990Z</time>
      </trkpt>
      <trkpt lat="42.482908" lon="-6.290157">
        <ele>1180</ele>
        <time>2018-07-24T08:11:27.990Z</time>
      </trkpt>
      <trkpt lat="42.482876" lon="-6.290306">
        <ele>1180</ele>
        <time>2018-07-24T08:11:31.990Z</time>
      </trkpt>
      <trkpt lat="42.48284" lon="-6.290452">
        <ele>1181</ele>
        <time>2018-07-24T08:11:35.990Z</time>
      </trkpt>
      <trkpt lat="42.482806" lon="-6.290582">
        <ele>1181</ele>
        <time>2018-07-24T08:11:40.000Z</time>
      </trkpt>
      <trkpt lat="42.482782" lon="-6.29072">
        <ele>1182</ele>
        <time>2018-07-24T08:11:43.990Z</time>
      </trkpt>
      <trkpt lat="42.48277" lon="-6.290866">
        <ele>1182.5900032</ele>
        <time>2018-07-24T08:11:47.990Z</time>
      </trkpt>
      <trkpt lat="42.482756" lon="-6.291017">
        <ele>1183</ele>
        <time>2018-07-24T08:11:51.990Z</time>
      </trkpt>
      <trkpt lat="42.482736" lon="-6.291165">
        <ele>1183</ele>
        <time>2018-07-24T08:11:55.990Z</time>
      </trkpt>
      <trkpt lat="42.482728" lon="-6.291296">
        <ele>1183</ele>
        <time>2018-07-24T08:11:58.990Z</time>
      </trkpt>
      <trkpt lat="42.482717" lon="-6.291448">
        <ele>1184</ele>
        <time>2018-07-24T08:12:02.990Z</time>
      </trkpt>
      <trkpt lat="42.482703" lon="-6.291595">
        <ele>1184</ele>
        <time>2018-07-24T08:12:06.990Z</time>
      </trkpt>
      <trkpt lat="42.482693" lon="-6.291745">
        <ele>1184.5900032</ele>
        <time>2018-07-24T08:12:10.990Z</time>
      </trkpt>
      <trkpt lat="42.482685" lon="-6.29188">
        <ele>1185</ele>
        <time>2018-07-24T08:12:15.000Z</time>
      </trkpt>
      <trkpt lat="42.482706" lon="-6.29201">
        <ele>1185.41428493061</ele>
        <time>2018-07-24T08:12:18.990Z</time>
      </trkpt>
      <trkpt lat="42.482714" lon="-6.29215">
        <ele>1186</ele>
        <time>2018-07-24T08:12:22.990Z</time>
      </trkpt>
      <trkpt lat="42.482718" lon="-6.292282">
        <ele>1186</ele>
        <time>2018-07-24T08:12:26.990Z</time>
      </trkpt>
      <trkpt lat="42.482714" lon="-6.292407">
        <ele>1186</ele>
        <time>2018-07-24T08:12:30.990Z</time>
      </trkpt>
      <trkpt lat="42.482715" lon="-6.292553">
        <ele>1187</ele>
        <time>2018-07-24T08:12:35.000Z</time>
      </trkpt>
      <trkpt lat="42.482728" lon="-6.292689">
        <ele>1188.42254232094</ele>
        <time>2018-07-24T08:12:38.990Z</time>
      </trkpt>
      <trkpt lat="42.482744" lon="-6.292831">
        <ele>1189</ele>
        <time>2018-07-24T08:12:42.990Z</time>
      </trkpt>
      <trkpt lat="42.482768" lon="-6.292977">
        <ele>1189</ele>
        <time>2018-07-24T08:12:46.990Z</time>
      </trkpt>
      <trkpt lat="42.482771" lon="-6.293108">
        <ele>1190</ele>
        <time>2018-07-24T08:12:50.990Z</time>
      </trkpt>
      <trkpt lat="42.482775" lon="-6.293233">
        <ele>1190</ele>
        <time>2018-07-24T08:12:55.000Z</time>
      </trkpt>
      <trkpt lat="42.482787" lon="-6.293358">
        <ele>1190</ele>
        <time>2018-07-24T08:12:58.990Z</time>
      </trkpt>
      <trkpt lat="42.482796" lon="-6.293488">
        <ele>1192</ele>
        <time>2018-07-24T08:13:02.990Z</time>
      </trkpt>
      <trkpt lat="42.482823" lon="-6.293642">
        <ele>1191</ele>
        <time>2018-07-24T08:13:06.990Z</time>
      </trkpt>
      <trkpt lat="42.482852" lon="-6.29379">
        <ele>1191</ele>
        <time>2018-07-24T08:13:10.990Z</time>
      </trkpt>
      <trkpt lat="42.482875" lon="-6.293928">
        <ele>1192.59406128812</ele>
        <time>2018-07-24T08:13:15.000Z</time>
      </trkpt>
      <trkpt lat="42.482895" lon="-6.294065">
        <ele>1193</ele>
        <time>2018-07-24T08:13:18.990Z</time>
      </trkpt>
      <trkpt lat="42.482916" lon="-6.294199">
        <ele>1193</ele>
        <time>2018-07-24T08:13:22.990Z</time>
      </trkpt>
      <trkpt lat="42.482953" lon="-6.29433">
        <ele>1194</ele>
        <time>2018-07-24T08:13:26.990Z</time>
      </trkpt>
      <trkpt lat="42.482951" lon="-6.294456">
        <ele>1195</ele>
        <time>2018-07-24T08:13:30.990Z</time>
      </trkpt>
      <trkpt lat="42.482981" lon="-6.294592">
        <ele>1195</ele>
        <time>2018-07-24T08:13:35.000Z</time>
      </trkpt>
      <trkpt lat="42.483025" lon="-6.294733">
        <ele>1195</ele>
        <time>2018-07-24T08:13:38.990Z</time>
      </trkpt>
      <trkpt lat="42.483059" lon="-6.294879">
        <ele>1196</ele>
        <time>2018-07-24T08:13:42.990Z</time>
      </trkpt>
      <trkpt lat="42.483077" lon="-6.295023">
        <ele>1197</ele>
        <time>2018-07-24T08:13:46.990Z</time>
      </trkpt>
      <trkpt lat="42.483105" lon="-6.295163">
        <ele>1197</ele>
        <time>2018-07-24T08:13:50.990Z</time>
      </trkpt>
      <trkpt lat="42.483139" lon="-6.295303">
        <ele>1198</ele>
        <time>2018-07-24T08:13:55.000Z</time>
      </trkpt>
      <trkpt lat="42.483171" lon="-6.295456">
        <ele>1198</ele>
        <time>2018-07-24T08:13:58.990Z</time>
      </trkpt>
      <trkpt lat="42.483192" lon="-6.295581">
        <ele>1198</ele>
        <time>2018-07-24T08:14:01.990Z</time>
      </trkpt>
      <trkpt lat="42.483216" lon="-6.295724">
        <ele>1199</ele>
        <time>2018-07-24T08:14:05.990Z</time>
      </trkpt>
      <trkpt lat="42.483233" lon="-6.29586">
        <ele>1199</ele>
        <time>2018-07-24T08:14:10.000Z</time>
      </trkpt>
      <trkpt lat="42.483228" lon="-6.296017">
        <ele>1199</ele>
        <time>2018-07-24T08:14:14.000Z</time>
      </trkpt>
      <trkpt lat="42.483204" lon="-6.296159">
        <ele>1199</ele>
        <time>2018-07-24T08:14:17.990Z</time>
      </trkpt>
      <trkpt lat="42.483174" lon="-6.296297">
        <ele>1200</ele>
        <time>2018-07-24T08:14:22.990Z</time>
      </trkpt>
      <trkpt lat="42.483179" lon="-6.29645">
        <ele>1200</ele>
        <time>2018-07-24T08:14:27.990Z</time>
      </trkpt>
      <trkpt lat="42.483181" lon="-6.296589">
        <ele>1200</ele>
        <time>2018-07-24T08:14:32.000Z</time>
      </trkpt>
      <trkpt lat="42.483197" lon="-6.296733">
        <ele>1201</ele>
        <time>2018-07-24T08:14:35.990Z</time>
      </trkpt>
      <trkpt lat="42.483221" lon="-6.296879">
        <ele>1201</ele>
        <time>2018-07-24T08:14:39.990Z</time>
      </trkpt>
      <trkpt lat="42.483242" lon="-6.297017">
        <ele>1201</ele>
        <time>2018-07-24T08:14:43.990Z</time>
      </trkpt>
      <trkpt lat="42.483277" lon="-6.29716">
        <ele>1201</ele>
        <time>2018-07-24T08:14:47.990Z</time>
      </trkpt>
      <trkpt lat="42.483298" lon="-6.297284">
        <ele>1201</ele>
        <time>2018-07-24T08:14:50.990Z</time>
      </trkpt>
      <trkpt lat="42.483334" lon="-6.297434">
        <ele>1203</ele>
        <time>2018-07-24T08:14:54.990Z</time>
      </trkpt>
      <trkpt lat="42.483375" lon="-6.297572">
        <ele>1203</ele>
        <time>2018-07-24T08:14:58.990Z</time>
      </trkpt>
      <trkpt lat="42.483393" lon="-6.297704">
        <ele>1203</ele>
        <time>2018-07-24T08:15:02.990Z</time>
      </trkpt>
      <trkpt lat="42.483425" lon="-6.297825">
        <ele>1203</ele>
        <time>2018-07-24T08:15:07.000Z</time>
      </trkpt>
      <trkpt lat="42.483457" lon="-6.297962">
        <ele>1203</ele>
        <time>2018-07-24T08:15:10.990Z</time>
      </trkpt>
      <trkpt lat="42.483505" lon="-6.298103">
        <ele>1203</ele>
        <time>2018-07-24T08:15:14.990Z</time>
      </trkpt>
      <trkpt lat="42.483556" lon="-6.298237">
        <ele>1204</ele>
        <time>2018-07-24T08:15:18.990Z</time>
      </trkpt>
      <trkpt lat="42.4836" lon="-6.298362">
        <ele>1204</ele>
        <time>2018-07-24T08:15:22.990Z</time>
      </trkpt>
      <trkpt lat="42.483637" lon="-6.298487">
        <ele>1204</ele>
        <time>2018-07-24T08:15:27.000Z</time>
      </trkpt>
      <trkpt lat="42.48367" lon="-6.298617">
        <ele>1205</ele>
        <time>2018-07-24T08:15:30.990Z</time>
      </trkpt>
      <trkpt lat="42.483684" lon="-6.298741">
        <ele>1205</ele>
        <time>2018-07-24T08:15:34.990Z</time>
      </trkpt>
      <trkpt lat="42.483701" lon="-6.298867">
        <ele>1206</ele>
        <time>2018-07-24T08:15:57.990Z</time>
      </trkpt>
      <trkpt lat="42.483756" lon="-6.298964">
        <ele>1206</ele>
        <time>2018-07-24T08:16:03.990Z</time>
      </trkpt>
      <trkpt lat="42.483814" lon="-6.299058">
        <ele>1207</ele>
        <time>2018-07-24T08:16:08.990Z</time>
      </trkpt>
      <trkpt lat="42.483884" lon="-6.299165">
        <ele>1208</ele>
        <time>2018-07-24T08:16:14.990Z</time>
      </trkpt>
      <trkpt lat="42.483948" lon="-6.299267">
        <ele>1208</ele>
        <time>2018-07-24T08:16:19.990Z</time>
      </trkpt>
      <trkpt lat="42.483998" lon="-6.299376">
        <ele>1209</ele>
        <time>2018-07-24T08:16:24.000Z</time>
      </trkpt>
      <trkpt lat="42.484056" lon="-6.299495">
        <ele>1209.5900032</ele>
        <time>2018-07-24T08:16:28.990Z</time>
      </trkpt>
      <trkpt lat="42.484118" lon="-6.299585">
        <ele>1211</ele>
        <time>2018-07-24T08:16:33.990Z</time>
      </trkpt>
      <trkpt lat="42.484188" lon="-6.299699">
        <ele>1210</ele>
        <time>2018-07-24T08:16:38.990Z</time>
      </trkpt>
      <trkpt lat="42.48425" lon="-6.299805">
        <ele>1211</ele>
        <time>2018-07-24T08:16:43.990Z</time>
      </trkpt>
      <trkpt lat="42.484314" lon="-6.299924">
        <ele>1211</ele>
        <time>2018-07-24T08:16:48.990Z</time>
      </trkpt>
      <trkpt lat="42.484378" lon="-6.300038">
        <ele>1212</ele>
        <time>2018-07-24T08:16:53.990Z</time>
      </trkpt>
      <trkpt lat="42.484436" lon="-6.300132">
        <ele>1212</ele>
        <time>2018-07-24T08:16:57.990Z</time>
      </trkpt>
      <trkpt lat="42.484508" lon="-6.300248">
        <ele>1213</ele>
        <time>2018-07-24T08:17:02.990Z</time>
      </trkpt>
      <trkpt lat="42.484574" lon="-6.300358">
        <ele>1213</ele>
        <time>2018-07-24T08:17:07.990Z</time>
      </trkpt>
      <trkpt lat="42.484638" lon="-6.300446">
        <ele>1213</ele>
        <time>2018-07-24T08:17:11.990Z</time>
      </trkpt>
      <trkpt lat="42.484706" lon="-6.300543">
        <ele>1213</ele>
        <time>2018-07-24T08:17:16.000Z</time>
      </trkpt>
      <trkpt lat="42.484768" lon="-6.30063">
        <ele>1214</ele>
        <time>2018-07-24T08:17:21.000Z</time>
      </trkpt>
      <trkpt lat="42.484844" lon="-6.300724">
        <ele>1214.42028716655</ele>
        <time>2018-07-24T08:17:26.000Z</time>
      </trkpt>
      <trkpt lat="42.484912" lon="-6.300829">
        <ele>1215</ele>
        <time>2018-07-24T08:17:31.000Z</time>
      </trkpt>
      <trkpt lat="42.484984" lon="-6.300932">
        <ele>1216</ele>
        <time>2018-07-24T08:17:36.000Z</time>
      </trkpt>
      <trkpt lat="42.48504" lon="-6.301057">
        <ele>1216.59406128812</ele>
        <time>2018-07-24T08:17:41.000Z</time>
      </trkpt>
      <trkpt lat="42.485106" lon="-6.301168">
        <ele>1217</ele>
        <time>2018-07-24T08:17:46.000Z</time>
      </trkpt>
      <trkpt lat="42.485169" lon="-6.301284">
        <ele>1218.46511743285</ele>
        <time>2018-07-24T08:17:52.000Z</time>
      </trkpt>
      <trkpt lat="42.485224" lon="-6.301396">
        <ele>1219</ele>
        <time>2018-07-24T08:17:57.000Z</time>
      </trkpt>
      <trkpt lat="42.48528" lon="-6.301509">
        <ele>1220</ele>
        <time>2018-07-24T08:18:02.000Z</time>
      </trkpt>
      <trkpt lat="42.485325" lon="-6.301634">
        <ele>1221</ele>
        <time>2018-07-24T08:18:07.000Z</time>
      </trkpt>
      <trkpt lat="42.485373" lon="-6.301761">
        <ele>1222</ele>
        <time>2018-07-24T08:18:12.000Z</time>
      </trkpt>
      <trkpt lat="42.485419" lon="-6.301887">
        <ele>1222</ele>
        <time>2018-07-24T08:18:17.000Z</time>
      </trkpt>
      <trkpt lat="42.485468" lon="-6.302007">
        <ele>1223</ele>
        <time>2018-07-24T08:18:22.000Z</time>
      </trkpt>
      <trkpt lat="42.485514" lon="-6.302126">
        <ele>1224.59406128812</ele>
        <time>2018-07-24T08:18:27.000Z</time>
      </trkpt>
      <trkpt lat="42.485561" lon="-6.302246">
        <ele>1225</ele>
        <time>2018-07-24T08:18:32.000Z</time>
      </trkpt>
      <trkpt lat="42.485604" lon="-6.302371">
        <ele>1226</ele>
        <time>2018-07-24T08:18:37.000Z</time>
      </trkpt>
      <trkpt lat="42.485651" lon="-6.302492">
        <ele>1227</ele>
        <time>2018-07-24T08:18:41.990Z</time>
      </trkpt>
      <trkpt lat="42.485694" lon="-6.302599">
        <ele>1228</ele>
        <time>2018-07-24T08:18:45.990Z</time>
      </trkpt>
      <trkpt lat="42.485751" lon="-6.302709">
        <ele>1228</ele>
        <time>2018-07-24T08:18:50.990Z</time>
      </trkpt>
      <trkpt lat="42.485799" lon="-6.302824">
        <ele>1228.58416343497</ele>
        <time>2018-07-24T08:18:55.990Z</time>
      </trkpt>
      <trkpt lat="42.485857" lon="-6.302953">
        <ele>1229</ele>
        <time>2018-07-24T08:19:00.990Z</time>
      </trkpt>
      <trkpt lat="42.485906" lon="-6.303056">
        <ele>1230</ele>
        <time>2018-07-24T08:19:05.000Z</time>
      </trkpt>
      <trkpt lat="42.485962" lon="-6.303177">
        <ele>1231</ele>
        <time>2018-07-24T08:19:09.990Z</time>
      </trkpt>
      <trkpt lat="42.486007" lon="-6.30331">
        <ele>1231</ele>
        <time>2018-07-24T08:19:15.000Z</time>
      </trkpt>
      <trkpt lat="42.486046" lon="-6.303425">
        <ele>1232</ele>
        <time>2018-07-24T08:19:20.000Z</time>
      </trkpt>
      <trkpt lat="42.486092" lon="-6.303545">
        <ele>1233.44444444444</ele>
        <time>2018-07-24T08:19:25.000Z</time>
      </trkpt>
      <trkpt lat="42.486139" lon="-6.303672">
        <ele>1234</ele>
        <time>2018-07-24T08:19:30.000Z</time>
      </trkpt>
      <trkpt lat="42.486185" lon="-6.303802">
        <ele>1235</ele>
        <time>2018-07-24T08:19:35.000Z</time>
      </trkpt>
      <trkpt lat="42.486227" lon="-6.303948">
        <ele>1236</ele>
        <time>2018-07-24T08:19:40.000Z</time>
      </trkpt>
      <trkpt lat="42.486266" lon="-6.30406">
        <ele>1236</ele>
        <time>2018-07-24T08:19:43.990Z</time>
      </trkpt>
      <trkpt lat="42.486319" lon="-6.304176">
        <ele>1237</ele>
        <time>2018-07-24T08:19:47.990Z</time>
      </trkpt>
      <trkpt lat="42.486367" lon="-6.3043">
        <ele>1237</ele>
        <time>2018-07-24T08:19:52.990Z</time>
      </trkpt>
      <trkpt lat="42.486395" lon="-6.30442">
        <ele>1237.6</ele>
        <time>2018-07-24T08:19:57.000Z</time>
      </trkpt>
      <trkpt lat="42.486442" lon="-6.304538">
        <ele>1238.43056</ele>
        <time>2018-07-24T08:20:00.990Z</time>
      </trkpt>
      <trkpt lat="42.486494" lon="-6.304674">
        <ele>1239</ele>
        <time>2018-07-24T08:20:05.990Z</time>
      </trkpt>
      <trkpt lat="42.48654" lon="-6.304782">
        <ele>1240</ele>
        <time>2018-07-24T08:20:09.990Z</time>
      </trkpt>
      <trkpt lat="42.486578" lon="-6.304897">
        <ele>1240</ele>
        <time>2018-07-24T08:20:13.990Z</time>
      </trkpt>
      <trkpt lat="42.486639" lon="-6.305015">
        <ele>1241</ele>
        <time>2018-07-24T08:20:18.990Z</time>
      </trkpt>
      <trkpt lat="42.486696" lon="-6.305111">
        <ele>1241</ele>
        <time>2018-07-24T08:20:22.990Z</time>
      </trkpt>
      <trkpt lat="42.486765" lon="-6.305221">
        <ele>1241.5900032</ele>
        <time>2018-07-24T08:20:27.990Z</time>
      </trkpt>
      <trkpt lat="42.486833" lon="-6.305332">
        <ele>1242</ele>
        <time>2018-07-24T08:20:32.990Z</time>
      </trkpt>
      <trkpt lat="42.486904" lon="-6.305432">
        <ele>1242</ele>
        <time>2018-07-24T08:20:37.990Z</time>
      </trkpt>
      <trkpt lat="42.486977" lon="-6.305544">
        <ele>1243</ele>
        <time>2018-07-24T08:20:42.990Z</time>
      </trkpt>
      <trkpt lat="42.487039" lon="-6.30564">
        <ele>1243</ele>
        <time>2018-07-24T08:20:47.000Z</time>
      </trkpt>
      <trkpt lat="42.487099" lon="-6.305738">
        <ele>1243</ele>
        <time>2018-07-24T08:20:50.990Z</time>
      </trkpt>
      <trkpt lat="42.487169" lon="-6.305848">
        <ele>1244</ele>
        <time>2018-07-24T08:20:55.990Z</time>
      </trkpt>
      <trkpt lat="42.487228" lon="-6.305942">
        <ele>1244</ele>
        <time>2018-07-24T08:21:00.990Z</time>
      </trkpt>
      <trkpt lat="42.487282" lon="-6.306045">
        <ele>1245</ele>
        <time>2018-07-24T08:21:04.990Z</time>
      </trkpt>
      <trkpt lat="42.487338" lon="-6.306146">
        <ele>1246</ele>
        <time>2018-07-24T08:21:08.990Z</time>
      </trkpt>
      <trkpt lat="42.487384" lon="-6.30626">
        <ele>1246.4099968</ele>
        <time>2018-07-24T08:21:12.990Z</time>
      </trkpt>
      <trkpt lat="42.487423" lon="-6.306385">
        <ele>1246</ele>
        <time>2018-07-24T08:21:16.990Z</time>
      </trkpt>
      <trkpt lat="42.487456" lon="-6.306518">
        <ele>1247</ele>
        <time>2018-07-24T08:21:20.990Z</time>
      </trkpt>
      <trkpt lat="42.487489" lon="-6.306659">
        <ele>1247</ele>
        <time>2018-07-24T08:21:24.990Z</time>
      </trkpt>
      <trkpt lat="42.487521" lon="-6.306799">
        <ele>1247</ele>
        <time>2018-07-24T08:21:28.990Z</time>
      </trkpt>
      <trkpt lat="42.48755" lon="-6.306931">
        <ele>1248</ele>
        <time>2018-07-24T08:21:32.990Z</time>
      </trkpt>
      <trkpt lat="42.487581" lon="-6.307058">
        <ele>1248.43662225748</ele>
        <time>2018-07-24T08:21:37.000Z</time>
      </trkpt>
      <trkpt lat="42.4876" lon="-6.307194">
        <ele>1250</ele>
        <time>2018-07-24T08:21:42.000Z</time>
      </trkpt>
      <trkpt lat="42.487619" lon="-6.307336">
        <ele>1251</ele>
        <time>2018-07-24T08:21:47.000Z</time>
      </trkpt>
      <trkpt lat="42.487629" lon="-6.307484">
        <ele>1251</ele>
        <time>2018-07-24T08:21:52.000Z</time>
      </trkpt>
      <trkpt lat="42.487627" lon="-6.307636">
        <ele>1251</ele>
        <time>2018-07-24T08:21:57.000Z</time>
      </trkpt>
      <trkpt lat="42.487596" lon="-6.307778">
        <ele>1252</ele>
        <time>2018-07-24T08:22:02.000Z</time>
      </trkpt>
      <trkpt lat="42.487561" lon="-6.3079">
        <ele>1253</ele>
        <time>2018-07-24T08:22:05.990Z</time>
      </trkpt>
      <trkpt lat="42.487537" lon="-6.308047">
        <ele>1254</ele>
        <time>2018-07-24T08:22:10.990Z</time>
      </trkpt>
      <trkpt lat="42.487514" lon="-6.308165">
        <ele>1254</ele>
        <time>2018-07-24T08:22:14.990Z</time>
      </trkpt>
      <trkpt lat="42.487474" lon="-6.308286">
        <ele>1255</ele>
        <time>2018-07-24T08:22:18.990Z</time>
      </trkpt>
      <trkpt lat="42.487422" lon="-6.308401">
        <ele>1255</ele>
        <time>2018-07-24T08:22:22.990Z</time>
      </trkpt>
      <trkpt lat="42.48735" lon="-6.30849">
        <ele>1255</ele>
        <time>2018-07-24T08:22:27.000Z</time>
      </trkpt>
      <trkpt lat="42.487261" lon="-6.308565">
        <ele>1256</ele>
        <time>2018-07-24T08:22:30.990Z</time>
      </trkpt>
      <trkpt lat="42.487172" lon="-6.308618">
        <ele>1256</ele>
        <time>2018-07-24T08:22:34.990Z</time>
      </trkpt>
      <trkpt lat="42.487085" lon="-6.308666">
        <ele>1256</ele>
        <time>2018-07-24T08:22:38.990Z</time>
      </trkpt>
      <trkpt lat="42.486998" lon="-6.308729">
        <ele>1257</ele>
        <time>2018-07-24T08:22:43.990Z</time>
      </trkpt>
      <trkpt lat="42.486904" lon="-6.30878">
        <ele>1258</ele>
        <time>2018-07-24T08:22:47.990Z</time>
      </trkpt>
      <trkpt lat="42.486818" lon="-6.308827">
        <ele>1258</ele>
        <time>2018-07-24T08:22:52.000Z</time>
      </trkpt>
      <trkpt lat="42.486732" lon="-6.30887">
        <ele>1259</ele>
        <time>2018-07-24T08:22:55.990Z</time>
      </trkpt>
      <trkpt lat="42.486648" lon="-6.308931">
        <ele>1259</ele>
        <time>2018-07-24T08:22:59.990Z</time>
      </trkpt>
      <trkpt lat="42.486571" lon="-6.309003">
        <ele>1260</ele>
        <time>2018-07-24T08:23:03.990Z</time>
      </trkpt>
      <trkpt lat="42.486497" lon="-6.309074">
        <ele>1260</ele>
        <time>2018-07-24T08:23:07.990Z</time>
      </trkpt>
      <trkpt lat="42.486421" lon="-6.309159">
        <ele>1261</ele>
        <time>2018-07-24T08:23:12.000Z</time>
      </trkpt>
      <trkpt lat="42.486351" lon="-6.30925">
        <ele>1261</ele>
        <time>2018-07-24T08:23:15.990Z</time>
      </trkpt>
      <trkpt lat="42.486295" lon="-6.309348">
        <ele>1262</ele>
        <time>2018-07-24T08:23:19.990Z</time>
      </trkpt>
      <trkpt lat="42.486247" lon="-6.309454">
        <ele>1263</ele>
        <time>2018-07-24T08:23:23.990Z</time>
      </trkpt>
      <trkpt lat="42.48624" lon="-6.309578">
        <ele>1263</ele>
        <time>2018-07-24T08:23:28.000Z</time>
      </trkpt>
      <trkpt lat="42.48618" lon="-6.309694">
        <ele>1264</ele>
        <time>2018-07-24T08:23:32.990Z</time>
      </trkpt>
      <trkpt lat="42.486132" lon="-6.309811">
        <ele>1264.45736795626</ele>
        <time>2018-07-24T08:23:47.990Z</time>
      </trkpt>
      <trkpt lat="42.486124" lon="-6.30994">
        <ele>1265</ele>
        <time>2018-07-24T08:23:53.990Z</time>
      </trkpt>
      <trkpt lat="42.486116" lon="-6.310069">
        <ele>1266.5900032</ele>
        <time>2018-07-24T08:23:58.990Z</time>
      </trkpt>
      <trkpt lat="42.486123" lon="-6.310201">
        <ele>1267</ele>
        <time>2018-07-24T08:24:02.990Z</time>
      </trkpt>
      <trkpt lat="42.486108" lon="-6.310329">
        <ele>1267</ele>
        <time>2018-07-24T08:24:07.000Z</time>
      </trkpt>
      <trkpt lat="42.4861" lon="-6.310455">
        <ele>1267</ele>
        <time>2018-07-24T08:24:10.990Z</time>
      </trkpt>
      <trkpt lat="42.486102" lon="-6.310583">
        <ele>1267</ele>
        <time>2018-07-24T08:24:14.990Z</time>
      </trkpt>
      <trkpt lat="42.486108" lon="-6.310715">
        <ele>1269</ele>
        <time>2018-07-24T08:24:19.990Z</time>
      </trkpt>
      <trkpt lat="42.486127" lon="-6.310854">
        <ele>1269</ele>
        <time>2018-07-24T08:24:24.990Z</time>
      </trkpt>
      <trkpt lat="42.486158" lon="-6.310997">
        <ele>1270</ele>
        <time>2018-07-24T08:24:29.990Z</time>
      </trkpt>
      <trkpt lat="42.486181" lon="-6.311133">
        <ele>1270</ele>
        <time>2018-07-24T08:24:34.990Z</time>
      </trkpt>
      <trkpt lat="42.486208" lon="-6.311268">
        <ele>1271</ele>
        <time>2018-07-24T08:24:39.990Z</time>
      </trkpt>
      <trkpt lat="42.486236" lon="-6.311404">
        <ele>1271</ele>
        <time>2018-07-24T08:24:44.990Z</time>
      </trkpt>
      <trkpt lat="42.486263" lon="-6.31153">
        <ele>1271</ele>
        <time>2018-07-24T08:24:49.990Z</time>
      </trkpt>
      <trkpt lat="42.486307" lon="-6.311646">
        <ele>1271</ele>
        <time>2018-07-24T08:24:54.990Z</time>
      </trkpt>
      <trkpt lat="42.486349" lon="-6.311765">
        <ele>1272</ele>
        <time>2018-07-24T08:24:58.990Z</time>
      </trkpt>
      <trkpt lat="42.486404" lon="-6.311886">
        <ele>1273</ele>
        <time>2018-07-24T08:25:03.990Z</time>
      </trkpt>
      <trkpt lat="42.486464" lon="-6.31199">
        <ele>1274</ele>
        <time>2018-07-24T08:25:08.990Z</time>
      </trkpt>
      <trkpt lat="42.486523" lon="-6.312098">
        <ele>1275</ele>
        <time>2018-07-24T08:25:13.990Z</time>
      </trkpt>
      <trkpt lat="42.486598" lon="-6.312208">
        <ele>1276</ele>
        <time>2018-07-24T08:25:18.990Z</time>
      </trkpt>
      <trkpt lat="42.486667" lon="-6.312308">
        <ele>1277</ele>
        <time>2018-07-24T08:25:23.990Z</time>
      </trkpt>
      <trkpt lat="42.486735" lon="-6.312416">
        <ele>1277</ele>
        <time>2018-07-24T08:25:28.990Z</time>
      </trkpt>
      <trkpt lat="42.486811" lon="-6.312516">
        <ele>1278</ele>
        <time>2018-07-24T08:25:32.990Z</time>
      </trkpt>
      <trkpt lat="42.486884" lon="-6.312622">
        <ele>1278</ele>
        <time>2018-07-24T08:25:37.000Z</time>
      </trkpt>
      <trkpt lat="42.486949" lon="-6.31271">
        <ele>1279</ele>
        <time>2018-07-24T08:25:40.990Z</time>
      </trkpt>
      <trkpt lat="42.487011" lon="-6.312806">
        <ele>1279.5900032</ele>
        <time>2018-07-24T08:25:44.990Z</time>
      </trkpt>
      <trkpt lat="42.487087" lon="-6.312916">
        <ele>1280</ele>
        <time>2018-07-24T08:25:49.990Z</time>
      </trkpt>
      <trkpt lat="42.487163" lon="-6.313023">
        <ele>1280</ele>
        <time>2018-07-24T08:25:54.990Z</time>
      </trkpt>
      <trkpt lat="42.487241" lon="-6.313122">
        <ele>1281</ele>
        <time>2018-07-24T08:25:59.990Z</time>
      </trkpt>
      <trkpt lat="42.487311" lon="-6.313202">
        <ele>1282</ele>
        <time>2018-07-24T08:26:03.990Z</time>
      </trkpt>
      <trkpt lat="42.487391" lon="-6.313286">
        <ele>1282</ele>
        <time>2018-07-24T08:26:10.990Z</time>
      </trkpt>
      <trkpt lat="42.487476" lon="-6.313362">
        <ele>1283</ele>
        <time>2018-07-24T08:26:17.000Z</time>
      </trkpt>
      <trkpt lat="42.487558" lon="-6.313426">
        <ele>1284</ele>
        <time>2018-07-24T08:26:22.000Z</time>
      </trkpt>
      <trkpt lat="42.487653" lon="-6.313502">
        <ele>1284</ele>
        <time>2018-07-24T08:26:27.000Z</time>
      </trkpt>
      <trkpt lat="42.487732" lon="-6.313574">
        <ele>1285</ele>
        <time>2018-07-24T08:26:32.000Z</time>
      </trkpt>
      <trkpt lat="42.487821" lon="-6.313651">
        <ele>1285.6</ele>
        <time>2018-07-24T08:26:37.000Z</time>
      </trkpt>
      <trkpt lat="42.487892" lon="-6.313737">
        <ele>1286</ele>
        <time>2018-07-24T08:26:40.990Z</time>
      </trkpt>
      <trkpt lat="42.487964" lon="-6.31382">
        <ele>1286</ele>
        <time>2018-07-24T08:26:44.990Z</time>
      </trkpt>
      <trkpt lat="42.488034" lon="-6.313903">
        <ele>1286</ele>
        <time>2018-07-24T08:26:48.990Z</time>
      </trkpt>
      <trkpt lat="42.4881" lon="-6.31401">
        <ele>1287</ele>
        <time>2018-07-24T08:26:52.990Z</time>
      </trkpt>
      <trkpt lat="42.488162" lon="-6.314117">
        <ele>1287</ele>
        <time>2018-07-24T08:26:57.000Z</time>
      </trkpt>
      <trkpt lat="42.488206" lon="-6.314241">
        <ele>1287.5900032</ele>
        <time>2018-07-24T08:27:00.990Z</time>
      </trkpt>
      <trkpt lat="42.488222" lon="-6.314366">
        <ele>1288</ele>
        <time>2018-07-24T08:27:04.990Z</time>
      </trkpt>
      <trkpt lat="42.488209" lon="-6.31451">
        <ele>1290</ele>
        <time>2018-07-24T08:27:09.990Z</time>
      </trkpt>
      <trkpt lat="42.488178" lon="-6.314642">
        <ele>1289</ele>
        <time>2018-07-24T08:27:14.990Z</time>
      </trkpt>
      <trkpt lat="42.488133" lon="-6.314748">
        <ele>1290</ele>
        <time>2018-07-24T08:27:18.990Z</time>
      </trkpt>
      <trkpt lat="42.488098" lon="-6.314873">
        <ele>1291</ele>
        <time>2018-07-24T08:27:22.990Z</time>
      </trkpt>
      <trkpt lat="42.488061" lon="-6.315018">
        <ele>1292</ele>
        <time>2018-07-24T08:27:27.990Z</time>
      </trkpt>
      <trkpt lat="42.488031" lon="-6.315146">
        <ele>1292</ele>
        <time>2018-07-24T08:27:32.000Z</time>
      </trkpt>
      <trkpt lat="42.488027" lon="-6.315278">
        <ele>1293</ele>
        <time>2018-07-24T08:27:35.990Z</time>
      </trkpt>
      <trkpt lat="42.488018" lon="-6.315408">
        <ele>1293</ele>
        <time>2018-07-24T08:27:39.990Z</time>
      </trkpt>
      <trkpt lat="42.488032" lon="-6.315557">
        <ele>1294</ele>
        <time>2018-07-24T08:27:43.990Z</time>
      </trkpt>
      <trkpt lat="42.488052" lon="-6.315699">
        <ele>1294</ele>
        <time>2018-07-24T08:27:47.990Z</time>
      </trkpt>
      <trkpt lat="42.488077" lon="-6.315835">
        <ele>1295</ele>
        <time>2018-07-24T08:27:52.000Z</time>
      </trkpt>
      <trkpt lat="42.488108" lon="-6.315951">
        <ele>1295.43056</ele>
        <time>2018-07-24T08:27:55.990Z</time>
      </trkpt>
      <trkpt lat="42.488123" lon="-6.31609">
        <ele>1296</ele>
        <time>2018-07-24T08:27:59.990Z</time>
      </trkpt>
      <trkpt lat="42.48815" lon="-6.316225">
        <ele>1297</ele>
        <time>2018-07-24T08:28:03.990Z</time>
      </trkpt>
      <trkpt lat="42.488172" lon="-6.316359">
        <ele>1297</ele>
        <time>2018-07-24T08:28:08.000Z</time>
      </trkpt>
      <trkpt lat="42.4882" lon="-6.316489">
        <ele>1297</ele>
        <time>2018-07-24T08:28:12.000Z</time>
      </trkpt>
      <trkpt lat="42.488228" lon="-6.316618">
        <ele>1297</ele>
        <time>2018-07-24T08:28:16.000Z</time>
      </trkpt>
      <trkpt lat="42.488252" lon="-6.31675">
        <ele>1299</ele>
        <time>2018-07-24T08:28:20.000Z</time>
      </trkpt>
      <trkpt lat="42.488278" lon="-6.316889">
        <ele>1299</ele>
        <time>2018-07-24T08:28:24.000Z</time>
      </trkpt>
      <trkpt lat="42.488308" lon="-6.317024">
        <ele>1299</ele>
        <time>2018-07-24T08:28:28.000Z</time>
      </trkpt>
      <trkpt lat="42.48834" lon="-6.317159">
        <ele>1301</ele>
        <time>2018-07-24T08:28:32.000Z</time>
      </trkpt>
      <trkpt lat="42.488376" lon="-6.317286">
        <ele>1301</ele>
        <time>2018-07-24T08:28:36.000Z</time>
      </trkpt>
      <trkpt lat="42.488422" lon="-6.3174">
        <ele>1301</ele>
        <time>2018-07-24T08:28:40.000Z</time>
      </trkpt>
      <trkpt lat="42.488478" lon="-6.317515">
        <ele>1302</ele>
        <time>2018-07-24T08:28:44.000Z</time>
      </trkpt>
      <trkpt lat="42.488554" lon="-6.317613">
        <ele>1302</ele>
        <time>2018-07-24T08:28:48.000Z</time>
      </trkpt>
      <trkpt lat="42.488618" lon="-6.317704">
        <ele>1302</ele>
        <time>2018-07-24T08:28:52.000Z</time>
      </trkpt>
      <trkpt lat="42.488684" lon="-6.3178">
        <ele>1303</ele>
        <time>2018-07-24T08:28:56.000Z</time>
      </trkpt>
      <trkpt lat="42.488758" lon="-6.31792">
        <ele>1303</ele>
        <time>2018-07-24T08:29:00.000Z</time>
      </trkpt>
      <trkpt lat="42.488831" lon="-6.318025">
        <ele>1304</ele>
        <time>2018-07-24T08:29:03.000Z</time>
      </trkpt>
      <trkpt lat="42.488907" lon="-6.318133">
        <ele>1304.46511743285</ele>
        <time>2018-07-24T08:29:06.000Z</time>
      </trkpt>
      <trkpt lat="42.488992" lon="-6.318254">
        <ele>1305</ele>
        <time>2018-07-24T08:29:09.000Z</time>
      </trkpt>
      <trkpt lat="42.489083" lon="-6.318377">
        <ele>1306.43056</ele>
        <time>2018-07-24T08:29:11.990Z</time>
      </trkpt>
      <trkpt lat="42.489165" lon="-6.318493">
        <ele>1307</ele>
        <time>2018-07-24T08:29:15.000Z</time>
      </trkpt>
      <trkpt lat="42.489246" lon="-6.318601">
        <ele>1307.39706352941</ele>
        <time>2018-07-24T08:29:17.990Z</time>
      </trkpt>
      <trkpt lat="42.489327" lon="-6.318695">
        <ele>1309</ele>
        <time>2018-07-24T08:29:20.990Z</time>
      </trkpt>
      <trkpt lat="42.489419" lon="-6.318757">
        <ele>1309.57843813922</ele>
        <time>2018-07-24T08:29:23.990Z</time>
      </trkpt>
      <trkpt lat="42.489529" lon="-6.318836">
        <ele>1310.5900032</ele>
        <time>2018-07-24T08:29:26.990Z</time>
      </trkpt>
      <trkpt lat="42.489637" lon="-6.318928">
        <ele>1311.3100032</ele>
        <time>2018-07-24T08:29:30.000Z</time>
      </trkpt>
      <trkpt lat="42.489724" lon="-6.319012">
        <ele>1313</ele>
        <time>2018-07-24T08:29:32.990Z</time>
      </trkpt>
      <trkpt lat="42.489786" lon="-6.319124">
        <ele>1313.5900032</ele>
        <time>2018-07-24T08:29:35.990Z</time>
      </trkpt>
      <trkpt lat="42.489841" lon="-6.319262">
        <ele>1314</ele>
        <time>2018-07-24T08:29:38.990Z</time>
      </trkpt>
      <trkpt lat="42.489863" lon="-6.319407">
        <ele>1315</ele>
        <time>2018-07-24T08:29:41.990Z</time>
      </trkpt>
      <trkpt lat="42.489839" lon="-6.319612">
        <ele>1316</ele>
        <time>2018-07-24T08:29:46.000Z</time>
      </trkpt>
      <trkpt lat="42.489801" lon="-6.319768">
        <ele>1316</ele>
        <time>2018-07-24T08:29:49.000Z</time>
      </trkpt>
      <trkpt lat="42.489785" lon="-6.3199">
        <ele>1316</ele>
        <time>2018-07-24T08:29:51.990Z</time>
      </trkpt>
      <trkpt lat="42.489754" lon="-6.320036">
        <ele>1317</ele>
        <time>2018-07-24T08:29:55.000Z</time>
      </trkpt>
      <trkpt lat="42.489718" lon="-6.320148">
        <ele>1318</ele>
        <time>2018-07-24T08:29:57.990Z</time>
      </trkpt>
      <trkpt lat="42.489688" lon="-6.320278">
        <ele>1319</ele>
        <time>2018-07-24T08:30:00.990Z</time>
      </trkpt>
      <trkpt lat="42.48965" lon="-6.32042">
        <ele>1319.57843813922</ele>
        <time>2018-07-24T08:30:03.990Z</time>
      </trkpt>
      <trkpt lat="42.489622" lon="-6.320562">
        <ele>1320</ele>
        <time>2018-07-24T08:30:06.990Z</time>
      </trkpt>
      <trkpt lat="42.489614" lon="-6.320714">
        <ele>1321</ele>
        <time>2018-07-24T08:30:10.990Z</time>
      </trkpt>
      <trkpt lat="42.489608" lon="-6.320848">
        <ele>1322</ele>
        <time>2018-07-24T08:30:15.000Z</time>
      </trkpt>
      <trkpt lat="42.489572" lon="-6.320984">
        <ele>1322</ele>
        <time>2018-07-24T08:30:18.990Z</time>
      </trkpt>
      <trkpt lat="42.48956" lon="-6.321138">
        <ele>1323</ele>
        <time>2018-07-24T08:30:22.990Z</time>
      </trkpt>
      <trkpt lat="42.489552" lon="-6.321267">
        <ele>1324</ele>
        <time>2018-07-24T08:30:25.990Z</time>
      </trkpt>
      <trkpt lat="42.48955" lon="-6.321406">
        <ele>1324</ele>
        <time>2018-07-24T08:30:28.990Z</time>
      </trkpt>
      <trkpt lat="42.489562" lon="-6.321538">
        <ele>1325</ele>
        <time>2018-07-24T08:30:31.990Z</time>
      </trkpt>
      <trkpt lat="42.489583" lon="-6.32167">
        <ele>1325</ele>
        <time>2018-07-24T08:30:35.000Z</time>
      </trkpt>
      <trkpt lat="42.489613" lon="-6.3218">
        <ele>1326</ele>
        <time>2018-07-24T08:30:37.990Z</time>
      </trkpt>
      <trkpt lat="42.489642" lon="-6.321934">
        <ele>1327</ele>
        <time>2018-07-24T08:30:40.990Z</time>
      </trkpt>
      <trkpt lat="42.489682" lon="-6.322062">
        <ele>1327</ele>
        <time>2018-07-24T08:30:43.990Z</time>
      </trkpt>
      <trkpt lat="42.489726" lon="-6.322189">
        <ele>1328</ele>
        <time>2018-07-24T08:30:46.990Z</time>
      </trkpt>
      <trkpt lat="42.489774" lon="-6.32231">
        <ele>1328</ele>
        <time>2018-07-24T08:30:50.000Z</time>
      </trkpt>
      <trkpt lat="42.489827" lon="-6.32242">
        <ele>1329</ele>
        <time>2018-07-24T08:30:52.990Z</time>
      </trkpt>
      <trkpt lat="42.489892" lon="-6.322514">
        <ele>1329.5900032</ele>
        <time>2018-07-24T08:30:55.990Z</time>
      </trkpt>
      <trkpt lat="42.489968" lon="-6.322633">
        <ele>1330</ele>
        <time>2018-07-24T08:31:00.000Z</time>
      </trkpt>
      <trkpt lat="42.490033" lon="-6.322724">
        <ele>1330</ele>
        <time>2018-07-24T08:31:02.990Z</time>
      </trkpt>
      <trkpt lat="42.490114" lon="-6.322836">
        <ele>1330.5900032</ele>
        <time>2018-07-24T08:31:06.990Z</time>
      </trkpt>
      <trkpt lat="42.490183" lon="-6.322924">
        <ele>1332</ele>
        <time>2018-07-24T08:31:10.000Z</time>
      </trkpt>
      <trkpt lat="42.490246" lon="-6.323012">
        <ele>1332</ele>
        <time>2018-07-24T08:31:12.990Z</time>
      </trkpt>
      <trkpt lat="42.490311" lon="-6.32311">
        <ele>1333</ele>
        <time>2018-07-24T08:31:15.990Z</time>
      </trkpt>
      <trkpt lat="42.490384" lon="-6.323203">
        <ele>1333.5900032</ele>
        <time>2018-07-24T08:31:18.990Z</time>
      </trkpt>
      <trkpt lat="42.490464" lon="-6.323315">
        <ele>1334</ele>
        <time>2018-07-24T08:31:22.990Z</time>
      </trkpt>
      <trkpt lat="42.490533" lon="-6.323402">
        <ele>1335</ele>
        <time>2018-07-24T08:31:25.990Z</time>
      </trkpt>
      <trkpt lat="42.490615" lon="-6.323516">
        <ele>1335</ele>
        <time>2018-07-24T08:31:30.000Z</time>
      </trkpt>
      <trkpt lat="42.490672" lon="-6.323622">
        <ele>1335</ele>
        <time>2018-07-24T08:31:32.990Z</time>
      </trkpt>
      <trkpt lat="42.490728" lon="-6.323749">
        <ele>1336</ele>
        <time>2018-07-24T08:31:36.990Z</time>
      </trkpt>
      <trkpt lat="42.490767" lon="-6.32387">
        <ele>1336</ele>
        <time>2018-07-24T08:31:40.000Z</time>
      </trkpt>
      <trkpt lat="42.490827" lon="-6.32402">
        <ele>1336.45736795626</ele>
        <time>2018-07-24T08:31:42.990Z</time>
      </trkpt>
      <trkpt lat="42.490868" lon="-6.324173">
        <ele>1337</ele>
        <time>2018-07-24T08:31:45.990Z</time>
      </trkpt>
      <trkpt lat="42.490903" lon="-6.324322">
        <ele>1337</ele>
        <time>2018-07-24T08:31:48.990Z</time>
      </trkpt>
      <trkpt lat="42.490939" lon="-6.324464">
        <ele>1337</ele>
        <time>2018-07-24T08:31:51.990Z</time>
      </trkpt>
      <trkpt lat="42.490972" lon="-6.324607">
        <ele>1338</ele>
        <time>2018-07-24T08:31:55.000Z</time>
      </trkpt>
      <trkpt lat="42.491009" lon="-6.324746">
        <ele>1338</ele>
        <time>2018-07-24T08:31:57.990Z</time>
      </trkpt>
      <trkpt lat="42.491048" lon="-6.324885">
        <ele>1338</ele>
        <time>2018-07-24T08:32:00.990Z</time>
      </trkpt>
      <trkpt lat="42.491087" lon="-6.325026">
        <ele>1339</ele>
        <time>2018-07-24T08:32:03.990Z</time>
      </trkpt>
      <trkpt lat="42.49112" lon="-6.32516">
        <ele>1339</ele>
        <time>2018-07-24T08:32:06.990Z</time>
      </trkpt>
      <trkpt lat="42.491154" lon="-6.325301">
        <ele>1340</ele>
        <time>2018-07-24T08:32:10.000Z</time>
      </trkpt>
      <trkpt lat="42.491176" lon="-6.325451">
        <ele>1340</ele>
        <time>2018-07-24T08:32:12.990Z</time>
      </trkpt>
      <trkpt lat="42.49121" lon="-6.325588">
        <ele>1341</ele>
        <time>2018-07-24T08:32:15.990Z</time>
      </trkpt>
      <trkpt lat="42.491236" lon="-6.325736">
        <ele>1341</ele>
        <time>2018-07-24T08:32:18.990Z</time>
      </trkpt>
      <trkpt lat="42.491262" lon="-6.325882">
        <ele>1341</ele>
        <time>2018-07-24T08:32:21.990Z</time>
      </trkpt>
      <trkpt lat="42.491296" lon="-6.326021">
        <ele>1341</ele>
        <time>2018-07-24T08:32:25.000Z</time>
      </trkpt>
      <trkpt lat="42.491328" lon="-6.326156">
        <ele>1342.41429564073</ele>
        <time>2018-07-24T08:32:27.990Z</time>
      </trkpt>
      <trkpt lat="42.491358" lon="-6.326276">
        <ele>1343</ele>
        <time>2018-07-24T08:32:30.990Z</time>
      </trkpt>
      <trkpt lat="42.491368" lon="-6.326401">
        <ele>1343</ele>
        <time>2018-07-24T08:32:33.990Z</time>
      </trkpt>
      <trkpt lat="42.491348" lon="-6.326548">
        <ele>1343</ele>
        <time>2018-07-24T08:32:36.990Z</time>
      </trkpt>
      <trkpt lat="42.491307" lon="-6.326684">
        <ele>1343</ele>
        <time>2018-07-24T08:32:40.000Z</time>
      </trkpt>
      <trkpt lat="42.491254" lon="-6.326819">
        <ele>1343</ele>
        <time>2018-07-24T08:32:42.990Z</time>
      </trkpt>
      <trkpt lat="42.49118" lon="-6.326982">
        <ele>1344</ele>
        <time>2018-07-24T08:32:46.000Z</time>
      </trkpt>
      <trkpt lat="42.491124" lon="-6.327083">
        <ele>1344</ele>
        <time>2018-07-24T08:32:48.000Z</time>
      </trkpt>
      <trkpt lat="42.491014" lon="-6.327188">
        <ele>1344</ele>
        <time>2018-07-24T08:32:50.990Z</time>
      </trkpt>
      <trkpt lat="42.490934" lon="-6.327263">
        <ele>1344</ele>
        <time>2018-07-24T08:32:53.000Z</time>
      </trkpt>
      <trkpt lat="42.49083" lon="-6.327368">
        <ele>1344.5900032</ele>
        <time>2018-07-24T08:32:55.990Z</time>
      </trkpt>
      <trkpt lat="42.490698" lon="-6.327482">
        <ele>1345</ele>
        <time>2018-07-24T08:33:00.000Z</time>
      </trkpt>
      <trkpt lat="42.4906" lon="-6.327584">
        <ele>1345</ele>
        <time>2018-07-24T08:33:03.000Z</time>
      </trkpt>
      <trkpt lat="42.490488" lon="-6.327619">
        <ele>1346</ele>
        <time>2018-07-24T08:33:05.990Z</time>
      </trkpt>
      <trkpt lat="42.490392" lon="-6.327699">
        <ele>1347</ele>
        <time>2018-07-24T08:33:09.000Z</time>
      </trkpt>
      <trkpt lat="42.490308" lon="-6.327773">
        <ele>1347.5900032</ele>
        <time>2018-07-24T08:33:12.990Z</time>
      </trkpt>
      <trkpt lat="42.490219" lon="-6.327848">
        <ele>1348</ele>
        <time>2018-07-24T08:33:16.990Z</time>
      </trkpt>
      <trkpt lat="42.49013" lon="-6.327923">
        <ele>1349</ele>
        <time>2018-07-24T08:33:19.990Z</time>
      </trkpt>
      <trkpt lat="42.490025" lon="-6.32801">
        <ele>1350</ele>
        <time>2018-07-24T08:33:24.000Z</time>
      </trkpt>
      <trkpt lat="42.489934" lon="-6.32809">
        <ele>1351</ele>
        <time>2018-07-24T08:33:26.990Z</time>
      </trkpt>
      <trkpt lat="42.48984" lon="-6.32818">
        <ele>1352.5900032</ele>
        <time>2018-07-24T08:33:29.990Z</time>
      </trkpt>
      <trkpt lat="42.489764" lon="-6.328267">
        <ele>1353</ele>
        <time>2018-07-24T08:33:32.990Z</time>
      </trkpt>
      <trkpt lat="42.489688" lon="-6.328369">
        <ele>1353.41429564073</ele>
        <time>2018-07-24T08:33:35.990Z</time>
      </trkpt>
      <trkpt lat="42.489614" lon="-6.328483">
        <ele>1354.6</ele>
        <time>2018-07-24T08:33:39.000Z</time>
      </trkpt>
      <trkpt lat="42.489556" lon="-6.328604">
        <ele>1356</ele>
        <time>2018-07-24T08:33:41.990Z</time>
      </trkpt>
      <trkpt lat="42.489474" lon="-6.328684">
        <ele>1356</ele>
        <time>2018-07-24T08:33:45.000Z</time>
      </trkpt>
      <trkpt lat="42.489403" lon="-6.32878">
        <ele>1357</ele>
        <time>2018-07-24T08:33:47.990Z</time>
      </trkpt>
      <trkpt lat="42.489343" lon="-6.328884">
        <ele>1358</ele>
        <time>2018-07-24T08:33:50.990Z</time>
      </trkpt>
      <trkpt lat="42.489289" lon="-6.328993">
        <ele>1358</ele>
        <time>2018-07-24T08:33:53.990Z</time>
      </trkpt>
      <trkpt lat="42.489228" lon="-6.329124">
        <ele>1360</ele>
        <time>2018-07-24T08:33:57.990Z</time>
      </trkpt>
      <trkpt lat="42.48921" lon="-6.329277">
        <ele>1360</ele>
        <time>2018-07-24T08:34:01.990Z</time>
      </trkpt>
      <trkpt lat="42.489196" lon="-6.329412">
        <ele>1360.5900032</ele>
        <time>2018-07-24T08:34:05.990Z</time>
      </trkpt>
      <trkpt lat="42.489187" lon="-6.32954">
        <ele>1361</ele>
        <time>2018-07-24T08:34:10.000Z</time>
      </trkpt>
      <trkpt lat="42.48918" lon="-6.329689">
        <ele>1361</ele>
        <time>2018-07-24T08:34:15.000Z</time>
      </trkpt>
      <trkpt lat="42.489188" lon="-6.329845">
        <ele>1362.6</ele>
        <time>2018-07-24T08:34:20.000Z</time>
      </trkpt>
      <trkpt lat="42.489189" lon="-6.329982">
        <ele>1363</ele>
        <time>2018-07-24T08:34:23.990Z</time>
      </trkpt>
      <trkpt lat="42.489192" lon="-6.330124">
        <ele>1364</ele>
        <time>2018-07-24T08:34:27.990Z</time>
      </trkpt>
      <trkpt lat="42.489205" lon="-6.330265">
        <ele>1365</ele>
        <time>2018-07-24T08:34:31.990Z</time>
      </trkpt>
      <trkpt lat="42.489213" lon="-6.330407">
        <ele>1365</ele>
        <time>2018-07-24T08:34:36.000Z</time>
      </trkpt>
      <trkpt lat="42.489199" lon="-6.330528">
        <ele>1366</ele>
        <time>2018-07-24T08:34:39.000Z</time>
      </trkpt>
      <trkpt lat="42.489216" lon="-6.33066">
        <ele>1366</ele>
        <time>2018-07-24T08:34:42.990Z</time>
      </trkpt>
      <trkpt lat="42.48922" lon="-6.330808">
        <ele>1367</ele>
        <time>2018-07-24T08:34:46.990Z</time>
      </trkpt>
      <trkpt lat="42.489218" lon="-6.330955">
        <ele>1367.41428493061</ele>
        <time>2018-07-24T08:34:50.990Z</time>
      </trkpt>
      <trkpt lat="42.489231" lon="-6.331087">
        <ele>1369</ele>
        <time>2018-07-24T08:34:54.990Z</time>
      </trkpt>
      <trkpt lat="42.489248" lon="-6.331221">
        <ele>1369</ele>
        <time>2018-07-24T08:34:59.000Z</time>
      </trkpt>
      <trkpt lat="42.489273" lon="-6.331359">
        <ele>1369.5900032</ele>
        <time>2018-07-24T08:35:02.990Z</time>
      </trkpt>
      <trkpt lat="42.489306" lon="-6.331499">
        <ele>1370</ele>
        <time>2018-07-24T08:35:06.990Z</time>
      </trkpt>
      <trkpt lat="42.489373" lon="-6.331625">
        <ele>1370.41428493061</ele>
        <time>2018-07-24T08:35:10.990Z</time>
      </trkpt>
      <trkpt lat="42.489436" lon="-6.331759">
        <ele>1371</ele>
        <time>2018-07-24T08:35:14.990Z</time>
      </trkpt>
      <trkpt lat="42.489502" lon="-6.331879">
        <ele>1372</ele>
        <time>2018-07-24T08:35:19.000Z</time>
      </trkpt>
      <trkpt lat="42.489572" lon="-6.331986">
        <ele>1373</ele>
        <time>2018-07-24T08:35:22.990Z</time>
      </trkpt>
      <trkpt lat="42.489646" lon="-6.332085">
        <ele>1374</ele>
        <time>2018-07-24T08:35:26.990Z</time>
      </trkpt>
      <trkpt lat="42.489711" lon="-6.332191">
        <ele>1375</ele>
        <time>2018-07-24T08:35:30.990Z</time>
      </trkpt>
      <trkpt lat="42.489777" lon="-6.332294">
        <ele>1375</ele>
        <time>2018-07-24T08:35:34.990Z</time>
      </trkpt>
      <trkpt lat="42.489847" lon="-6.3324">
        <ele>1376</ele>
        <time>2018-07-24T08:35:39.000Z</time>
      </trkpt>
      <trkpt lat="42.489919" lon="-6.332516">
        <ele>1377</ele>
        <time>2018-07-24T08:35:42.990Z</time>
      </trkpt>
      <trkpt lat="42.489994" lon="-6.332635">
        <ele>1377</ele>
        <time>2018-07-24T08:35:46.990Z</time>
      </trkpt>
      <trkpt lat="42.490072" lon="-6.332755">
        <ele>1377.41428493061</ele>
        <time>2018-07-24T08:35:50.990Z</time>
      </trkpt>
      <trkpt lat="42.490153" lon="-6.332865">
        <ele>1378</ele>
        <time>2018-07-24T08:35:54.990Z</time>
      </trkpt>
      <trkpt lat="42.490261" lon="-6.333032">
        <ele>1379</ele>
        <time>2018-07-24T08:36:00.000Z</time>
      </trkpt>
      <trkpt lat="42.490339" lon="-6.333152">
        <ele>1379</ele>
        <time>2018-07-24T08:36:03.000Z</time>
      </trkpt>
      <trkpt lat="42.490415" lon="-6.333229">
        <ele>1379</ele>
        <time>2018-07-24T08:36:05.990Z</time>
      </trkpt>
      <trkpt lat="42.490505" lon="-6.333331">
        <ele>1380</ele>
        <time>2018-07-24T08:36:09.990Z</time>
      </trkpt>
      <trkpt lat="42.490594" lon="-6.333423">
        <ele>1380</ele>
        <time>2018-07-24T08:36:14.000Z</time>
      </trkpt>
      <trkpt lat="42.490683" lon="-6.333496">
        <ele>1381</ele>
        <time>2018-07-24T08:36:17.990Z</time>
      </trkpt>
      <trkpt lat="42.490771" lon="-6.333567">
        <ele>1382</ele>
        <time>2018-07-24T08:36:21.990Z</time>
      </trkpt>
      <trkpt lat="42.490861" lon="-6.33365">
        <ele>1383</ele>
        <time>2018-07-24T08:36:25.990Z</time>
      </trkpt>
      <trkpt lat="42.490948" lon="-6.333731">
        <ele>1384</ele>
        <time>2018-07-24T08:36:29.990Z</time>
      </trkpt>
      <trkpt lat="42.491042" lon="-6.333795">
        <ele>1385</ele>
        <time>2018-07-24T08:36:34.000Z</time>
      </trkpt>
      <trkpt lat="42.491121" lon="-6.333867">
        <ele>1385</ele>
        <time>2018-07-24T08:36:37.990Z</time>
      </trkpt>
      <trkpt lat="42.491203" lon="-6.333966">
        <ele>1386</ele>
        <time>2018-07-24T08:36:41.990Z</time>
      </trkpt>
      <trkpt lat="42.491274" lon="-6.334067">
        <ele>1386</ele>
        <time>2018-07-24T08:36:45.990Z</time>
      </trkpt>
      <trkpt lat="42.49135" lon="-6.334176">
        <ele>1386.5900032</ele>
        <time>2018-07-24T08:36:49.990Z</time>
      </trkpt>
      <trkpt lat="42.491415" lon="-6.334303">
        <ele>1387</ele>
        <time>2018-07-24T08:36:54.000Z</time>
      </trkpt>
      <trkpt lat="42.491455" lon="-6.33443">
        <ele>1388</ele>
        <time>2018-07-24T08:36:57.990Z</time>
      </trkpt>
      <trkpt lat="42.49147" lon="-6.334574">
        <ele>1388</ele>
        <time>2018-07-24T08:37:01.990Z</time>
      </trkpt>
      <trkpt lat="42.491453" lon="-6.334726">
        <ele>1389</ele>
        <time>2018-07-24T08:37:06.000Z</time>
      </trkpt>
      <trkpt lat="42.491402" lon="-6.334849">
        <ele>1389.5800064</ele>
        <time>2018-07-24T08:37:09.990Z</time>
      </trkpt>
      <trkpt lat="42.491359" lon="-6.334981">
        <ele>1390</ele>
        <time>2018-07-24T08:37:14.000Z</time>
      </trkpt>
      <trkpt lat="42.491287" lon="-6.335115">
        <ele>1390</ele>
        <time>2018-07-24T08:37:17.990Z</time>
      </trkpt>
      <trkpt lat="42.491213" lon="-6.335234">
        <ele>1391</ele>
        <time>2018-07-24T08:37:21.990Z</time>
      </trkpt>
      <trkpt lat="42.49115" lon="-6.335321">
        <ele>1391</ele>
        <time>2018-07-24T08:37:24.990Z</time>
      </trkpt>
      <trkpt lat="42.491071" lon="-6.335443">
        <ele>1391</ele>
        <time>2018-07-24T08:37:29.000Z</time>
      </trkpt>
      <trkpt lat="42.491" lon="-6.335571">
        <ele>1391.42254232094</ele>
        <time>2018-07-24T08:37:32.990Z</time>
      </trkpt>
      <trkpt lat="42.490948" lon="-6.335677">
        <ele>1392</ele>
        <time>2018-07-24T08:37:35.990Z</time>
      </trkpt>
      <trkpt lat="42.490903" lon="-6.335783">
        <ele>1392</ele>
        <time>2018-07-24T08:37:39.000Z</time>
      </trkpt>
      <trkpt lat="42.490855" lon="-6.335918">
        <ele>1393</ele>
        <time>2018-07-24T08:37:42.990Z</time>
      </trkpt>
      <trkpt lat="42.490815" lon="-6.336065">
        <ele>1394</ele>
        <time>2018-07-24T08:37:46.990Z</time>
      </trkpt>
      <trkpt lat="42.49077" lon="-6.336206">
        <ele>1394</ele>
        <time>2018-07-24T08:37:50.990Z</time>
      </trkpt>
      <trkpt lat="42.490735" lon="-6.336357">
        <ele>1395</ele>
        <time>2018-07-24T08:37:54.990Z</time>
      </trkpt>
      <trkpt lat="42.4907" lon="-6.336499">
        <ele>1395</ele>
        <time>2018-07-24T08:37:59.000Z</time>
      </trkpt>
      <trkpt lat="42.490663" lon="-6.336646">
        <ele>1395.45736795626</ele>
        <time>2018-07-24T08:38:02.990Z</time>
      </trkpt>
      <trkpt lat="42.490641" lon="-6.336794">
        <ele>1396.42254232094</ele>
        <time>2018-07-24T08:38:06.990Z</time>
      </trkpt>
      <trkpt lat="42.490639" lon="-6.336941">
        <ele>1397</ele>
        <time>2018-07-24T08:38:10.990Z</time>
      </trkpt>
      <trkpt lat="42.490651" lon="-6.337083">
        <ele>1398</ele>
        <time>2018-07-24T08:38:14.990Z</time>
      </trkpt>
      <trkpt lat="42.490666" lon="-6.337224">
        <ele>1398</ele>
        <time>2018-07-24T08:38:19.000Z</time>
      </trkpt>
      <trkpt lat="42.490685" lon="-6.337354">
        <ele>1400</ele>
        <time>2018-07-24T08:38:24.990Z</time>
      </trkpt>
      <trkpt lat="42.49069" lon="-6.337487">
        <ele>1400</ele>
        <time>2018-07-24T08:38:30.990Z</time>
      </trkpt>
      <trkpt lat="42.490702" lon="-6.337622">
        <ele>1400</ele>
        <time>2018-07-24T08:38:35.990Z</time>
      </trkpt>
      <trkpt lat="42.490698" lon="-6.337755">
        <ele>1402</ele>
        <time>2018-07-24T08:38:41.000Z</time>
      </trkpt>
      <trkpt lat="42.490704" lon="-6.337901">
        <ele>1402</ele>
        <time>2018-07-24T08:38:47.000Z</time>
      </trkpt>
      <trkpt lat="42.490718" lon="-6.338033">
        <ele>1402.6</ele>
        <time>2018-07-24T08:38:52.000Z</time>
      </trkpt>
      <trkpt lat="42.49073" lon="-6.338158">
        <ele>1403</ele>
        <time>2018-07-24T08:38:56.000Z</time>
      </trkpt>
      <trkpt lat="42.490751" lon="-6.338282">
        <ele>1403</ele>
        <time>2018-07-24T08:39:00.000Z</time>
      </trkpt>
      <trkpt lat="42.490767" lon="-6.338433">
        <ele>1404</ele>
        <time>2018-07-24T08:39:05.000Z</time>
      </trkpt>
      <trkpt lat="42.490782" lon="-6.338562">
        <ele>1405</ele>
        <time>2018-07-24T08:39:09.000Z</time>
      </trkpt>
      <trkpt lat="42.490803" lon="-6.338695">
        <ele>1406</ele>
        <time>2018-07-24T08:39:13.000Z</time>
      </trkpt>
      <trkpt lat="42.490827" lon="-6.338829">
        <ele>1407</ele>
        <time>2018-07-24T08:39:17.000Z</time>
      </trkpt>
      <trkpt lat="42.49083" lon="-6.338975">
        <ele>1407</ele>
        <time>2018-07-24T08:39:21.000Z</time>
      </trkpt>
      <trkpt lat="42.490796" lon="-6.339099">
        <ele>1408</ele>
        <time>2018-07-24T08:39:25.000Z</time>
      </trkpt>
      <trkpt lat="42.490781" lon="-6.339234">
        <ele>1410</ele>
        <time>2018-07-24T08:40:00.990Z</time>
      </trkpt>
      <trkpt lat="42.490795" lon="-6.339362">
        <ele>1409</ele>
        <time>2018-07-24T08:40:10.990Z</time>
      </trkpt>
      <trkpt lat="42.490708" lon="-6.33939">
        <ele>1411.41667555556</ele>
        <time>2018-07-24T08:42:17.990Z</time>
      </trkpt>
      <trkpt lat="42.490766" lon="-6.339284">
        <ele>1413</ele>
        <time>2018-07-24T08:47:36.990Z</time>
      </trkpt>
      <trkpt lat="42.490836" lon="-6.339178">
        <ele>1413</ele>
        <time>2018-07-24T08:47:43.000Z</time>
      </trkpt>
      <trkpt lat="42.490918" lon="-6.339256">
        <ele>1413</ele>
        <time>2018-07-24T08:47:48.990Z</time>
      </trkpt>
      <trkpt lat="42.49095" lon="-6.339377">
        <ele>1413</ele>
        <time>2018-07-24T08:47:55.000Z</time>
      </trkpt>
      <trkpt lat="42.490988" lon="-6.339502">
        <ele>1414</ele>
        <time>2018-07-24T08:48:00.000Z</time>
      </trkpt>
      <trkpt lat="42.491022" lon="-6.339625">
        <ele>1414</ele>
        <time>2018-07-24T08:48:05.000Z</time>
      </trkpt>
      <trkpt lat="42.491055" lon="-6.339742">
        <ele>1415</ele>
        <time>2018-07-24T08:48:10.000Z</time>
      </trkpt>
      <trkpt lat="42.491096" lon="-6.339871">
        <ele>1415.6</ele>
        <time>2018-07-24T08:48:15.000Z</time>
      </trkpt>
      <trkpt lat="42.491132" lon="-6.339998">
        <ele>1416</ele>
        <time>2018-07-24T08:48:20.000Z</time>
      </trkpt>
      <trkpt lat="42.491166" lon="-6.340138">
        <ele>1416.40579898342</ele>
        <time>2018-07-24T08:48:25.990Z</time>
      </trkpt>
      <trkpt lat="42.491196" lon="-6.340269">
        <ele>1417</ele>
        <time>2018-07-24T08:48:30.990Z</time>
      </trkpt>
      <trkpt lat="42.49123" lon="-6.340407">
        <ele>1417.58416343497</ele>
        <time>2018-07-24T08:48:35.990Z</time>
      </trkpt>
      <trkpt lat="42.491262" lon="-6.34054">
        <ele>1418</ele>
        <time>2018-07-24T08:48:40.990Z</time>
      </trkpt>
      <trkpt lat="42.491294" lon="-6.340669">
        <ele>1419</ele>
        <time>2018-07-24T08:48:45.990Z</time>
      </trkpt>
      <trkpt lat="42.49133" lon="-6.340792">
        <ele>1419.57745767906</ele>
        <time>2018-07-24T08:48:50.990Z</time>
      </trkpt>
      <trkpt lat="42.49136" lon="-6.340921">
        <ele>1420</ele>
        <time>2018-07-24T08:48:55.990Z</time>
      </trkpt>
      <trkpt lat="42.491396" lon="-6.341055">
        <ele>1420</ele>
        <time>2018-07-24T08:49:00.990Z</time>
      </trkpt>
      <trkpt lat="42.491423" lon="-6.341178">
        <ele>1421</ele>
        <time>2018-07-24T08:49:05.990Z</time>
      </trkpt>
      <trkpt lat="42.491449" lon="-6.341308">
        <ele>1421</ele>
        <time>2018-07-24T08:49:11.000Z</time>
      </trkpt>
      <trkpt lat="42.491482" lon="-6.341449">
        <ele>1421</ele>
        <time>2018-07-24T08:49:16.000Z</time>
      </trkpt>
      <trkpt lat="42.491519" lon="-6.341572">
        <ele>1421</ele>
        <time>2018-07-24T08:49:21.000Z</time>
      </trkpt>
      <trkpt lat="42.491571" lon="-6.34168">
        <ele>1422</ele>
        <time>2018-07-24T08:49:26.000Z</time>
      </trkpt>
      <trkpt lat="42.491642" lon="-6.341759">
        <ele>1423</ele>
        <time>2018-07-24T08:49:31.000Z</time>
      </trkpt>
      <trkpt lat="42.491725" lon="-6.341811">
        <ele>1423</ele>
        <time>2018-07-24T08:49:36.000Z</time>
      </trkpt>
      <trkpt lat="42.491818" lon="-6.341834">
        <ele>1425</ele>
        <time>2018-07-24T08:49:41.000Z</time>
      </trkpt>
      <trkpt lat="42.491927" lon="-6.341846">
        <ele>1426</ele>
        <time>2018-07-24T08:49:46.000Z</time>
      </trkpt>
      <trkpt lat="42.492036" lon="-6.341854">
        <ele>1426.6</ele>
        <time>2018-07-24T08:49:51.000Z</time>
      </trkpt>
      <trkpt lat="42.492143" lon="-6.341866">
        <ele>1428</ele>
        <time>2018-07-24T08:49:55.990Z</time>
      </trkpt>
      <trkpt lat="42.492246" lon="-6.341878">
        <ele>1428.5900032</ele>
        <time>2018-07-24T08:50:00.990Z</time>
      </trkpt>
      <trkpt lat="42.492348" lon="-6.341891">
        <ele>1429</ele>
        <time>2018-07-24T08:50:05.990Z</time>
      </trkpt>
      <trkpt lat="42.49244" lon="-6.34191">
        <ele>1430</ele>
        <time>2018-07-24T08:50:10.990Z</time>
      </trkpt>
      <trkpt lat="42.492543" lon="-6.341925">
        <ele>1430</ele>
        <time>2018-07-24T08:50:15.990Z</time>
      </trkpt>
      <trkpt lat="42.492641" lon="-6.341937">
        <ele>1430.4099968</ele>
        <time>2018-07-24T08:50:20.990Z</time>
      </trkpt>
      <trkpt lat="42.492739" lon="-6.341949">
        <ele>1431</ele>
        <time>2018-07-24T08:50:25.990Z</time>
      </trkpt>
      <trkpt lat="42.492843" lon="-6.341954">
        <ele>1432.42254232094</ele>
        <time>2018-07-24T08:50:30.990Z</time>
      </trkpt>
      <trkpt lat="42.49295" lon="-6.341957">
        <ele>1433</ele>
        <time>2018-07-24T08:50:35.990Z</time>
      </trkpt>
      <trkpt lat="42.493043" lon="-6.341938">
        <ele>1433.5900032</ele>
        <time>2018-07-24T08:50:40.990Z</time>
      </trkpt>
      <trkpt lat="42.493137" lon="-6.341929">
        <ele>1435</ele>
        <time>2018-07-24T08:50:45.990Z</time>
      </trkpt>
      <trkpt lat="42.493227" lon="-6.341901">
        <ele>1435</ele>
        <time>2018-07-24T08:50:50.990Z</time>
      </trkpt>
      <trkpt lat="42.493316" lon="-6.34187">
        <ele>1436</ele>
        <time>2018-07-24T08:50:55.990Z</time>
      </trkpt>
      <trkpt lat="42.493416" lon="-6.341818">
        <ele>1437</ele>
        <time>2018-07-24T08:51:00.990Z</time>
      </trkpt>
      <trkpt lat="42.493514" lon="-6.341762">
        <ele>1437.5900032</ele>
        <time>2018-07-24T08:51:05.990Z</time>
      </trkpt>
      <trkpt lat="42.493602" lon="-6.341726">
        <ele>1438</ele>
        <time>2018-07-24T08:51:10.000Z</time>
      </trkpt>
      <trkpt lat="42.493704" lon="-6.341688">
        <ele>1439</ele>
        <time>2018-07-24T08:51:15.000Z</time>
      </trkpt>
      <trkpt lat="42.493804" lon="-6.341648">
        <ele>1441</ele>
        <time>2018-07-24T08:51:20.000Z</time>
      </trkpt>
      <trkpt lat="42.493905" lon="-6.341596">
        <ele>1441</ele>
        <time>2018-07-24T08:51:25.000Z</time>
      </trkpt>
      <trkpt lat="42.493997" lon="-6.341572">
        <ele>1441</ele>
        <time>2018-07-24T08:51:28.990Z</time>
      </trkpt>
      <trkpt lat="42.494092" lon="-6.341578">
        <ele>1441</ele>
        <time>2018-07-24T08:51:32.990Z</time>
      </trkpt>
      <trkpt lat="42.49419" lon="-6.341594">
        <ele>1441</ele>
        <time>2018-07-24T08:51:36.990Z</time>
      </trkpt>
      <trkpt lat="42.494285" lon="-6.34162">
        <ele>1441.993752</ele>
        <time>2018-07-24T08:51:40.990Z</time>
      </trkpt>
      <trkpt lat="42.494376" lon="-6.341654">
        <ele>1442</ele>
        <time>2018-07-24T08:51:45.000Z</time>
      </trkpt>
      <trkpt lat="42.494468" lon="-6.34169">
        <ele>1442</ele>
        <time>2018-07-24T08:51:48.990Z</time>
      </trkpt>
      <trkpt lat="42.494568" lon="-6.34174">
        <ele>1443</ele>
        <time>2018-07-24T08:51:53.990Z</time>
      </trkpt>
      <trkpt lat="42.494667" lon="-6.341778">
        <ele>1443</ele>
        <time>2018-07-24T08:51:57.990Z</time>
      </trkpt>
      <trkpt lat="42.494762" lon="-6.341858">
        <ele>1443</ele>
        <time>2018-07-24T08:52:02.990Z</time>
      </trkpt>
      <trkpt lat="42.49483" lon="-6.341969">
        <ele>1444</ele>
        <time>2018-07-24T08:52:07.990Z</time>
      </trkpt>
      <trkpt lat="42.494886" lon="-6.342067">
        <ele>1444</ele>
        <time>2018-07-24T08:52:12.990Z</time>
      </trkpt>
      <trkpt lat="42.494945" lon="-6.342176">
        <ele>1445</ele>
        <time>2018-07-24T08:52:17.990Z</time>
      </trkpt>
      <trkpt lat="42.494999" lon="-6.342278">
        <ele>1445</ele>
        <time>2018-07-24T08:52:22.990Z</time>
      </trkpt>
      <trkpt lat="42.495055" lon="-6.342391">
        <ele>1446.40000365718</ele>
        <time>2018-07-24T08:52:27.990Z</time>
      </trkpt>
      <trkpt lat="42.495114" lon="-6.342506">
        <ele>1447</ele>
        <time>2018-07-24T08:52:33.990Z</time>
      </trkpt>
      <trkpt lat="42.495167" lon="-6.342624">
        <ele>1448</ele>
        <time>2018-07-24T08:52:40.990Z</time>
      </trkpt>
      <trkpt lat="42.495217" lon="-6.342737">
        <ele>1449</ele>
        <time>2018-07-24T08:52:47.990Z</time>
      </trkpt>
      <trkpt lat="42.495274" lon="-6.342838">
        <ele>1450</ele>
        <time>2018-07-24T08:52:53.990Z</time>
      </trkpt>
      <trkpt lat="42.495315" lon="-6.342967">
        <ele>1451</ele>
        <time>2018-07-24T08:53:00.990Z</time>
      </trkpt>
      <trkpt lat="42.495363" lon="-6.343072">
        <ele>1452</ele>
        <time>2018-07-24T08:53:06.990Z</time>
      </trkpt>
      <trkpt lat="42.495401" lon="-6.343188">
        <ele>1452.5800064</ele>
        <time>2018-07-24T08:53:11.990Z</time>
      </trkpt>
      <trkpt lat="42.495438" lon="-6.343302">
        <ele>1454</ele>
        <time>2018-07-24T08:53:17.960Z</time>
      </trkpt>
      <trkpt lat="42.495474" lon="-6.343428">
        <ele>1455</ele>
        <time>2018-07-24T08:53:23.990Z</time>
      </trkpt>
      <trkpt lat="42.49551" lon="-6.343542">
        <ele>1456</ele>
        <time>2018-07-24T08:53:28.990Z</time>
      </trkpt>
      <trkpt lat="42.495549" lon="-6.343673">
        <ele>1456</ele>
        <time>2018-07-24T08:53:35.000Z</time>
      </trkpt>
      <trkpt lat="42.495584" lon="-6.343811">
        <ele>1458</ele>
        <time>2018-07-24T08:53:40.990Z</time>
      </trkpt>
      <trkpt lat="42.495608" lon="-6.343932">
        <ele>1458</ele>
        <time>2018-07-24T08:53:45.990Z</time>
      </trkpt>
      <trkpt lat="42.495631" lon="-6.344063">
        <ele>1459</ele>
        <time>2018-07-24T08:53:51.990Z</time>
      </trkpt>
      <trkpt lat="42.495641" lon="-6.344201">
        <ele>1460</ele>
        <time>2018-07-24T08:53:57.990Z</time>
      </trkpt>
      <trkpt lat="42.495642" lon="-6.344334">
        <ele>1460</ele>
        <time>2018-07-24T08:54:03.990Z</time>
      </trkpt>
      <trkpt lat="42.495626" lon="-6.344471">
        <ele>1460.6</ele>
        <time>2018-07-24T08:54:10.000Z</time>
      </trkpt>
      <trkpt lat="42.495614" lon="-6.344594">
        <ele>1462</ele>
        <time>2018-07-24T08:54:15.000Z</time>
      </trkpt>
      <trkpt lat="42.495594" lon="-6.344718">
        <ele>1463</ele>
        <time>2018-07-24T08:54:20.990Z</time>
      </trkpt>
      <trkpt lat="42.495566" lon="-6.344849">
        <ele>1464</ele>
        <time>2018-07-24T08:54:26.990Z</time>
      </trkpt>
      <trkpt lat="42.495541" lon="-6.344974">
        <ele>1465</ele>
        <time>2018-07-24T08:54:32.990Z</time>
      </trkpt>
      <trkpt lat="42.495506" lon="-6.345105">
        <ele>1466.5900032</ele>
        <time>2018-07-24T08:54:38.990Z</time>
      </trkpt>
      <trkpt lat="42.49549" lon="-6.345238">
        <ele>1468</ele>
        <time>2018-07-24T08:54:45.000Z</time>
      </trkpt>
      <trkpt lat="42.495456" lon="-6.345372">
        <ele>1469</ele>
        <time>2018-07-24T08:54:52.020Z</time>
      </trkpt>
      <trkpt lat="42.495436" lon="-6.345496">
        <ele>1469</ele>
        <time>2018-07-24T08:54:57.990Z</time>
      </trkpt>
      <trkpt lat="42.495419" lon="-6.345622">
        <ele>1470</ele>
        <time>2018-07-24T08:55:03.990Z</time>
      </trkpt>
      <trkpt lat="42.495387" lon="-6.345739">
        <ele>1471</ele>
        <time>2018-07-24T08:55:10.000Z</time>
      </trkpt>
      <trkpt lat="42.495367" lon="-6.345868">
        <ele>1472</ele>
        <time>2018-07-24T08:55:15.990Z</time>
      </trkpt>
      <trkpt lat="42.495335" lon="-6.346005">
        <ele>1473</ele>
        <time>2018-07-24T08:55:22.990Z</time>
      </trkpt>
      <trkpt lat="42.495314" lon="-6.346138">
        <ele>1474</ele>
        <time>2018-07-24T08:55:28.990Z</time>
      </trkpt>
      <trkpt lat="42.495283" lon="-6.346271">
        <ele>1475</ele>
        <time>2018-07-24T08:55:35.000Z</time>
      </trkpt>
      <trkpt lat="42.495254" lon="-6.346402">
        <ele>1475</ele>
        <time>2018-07-24T08:55:40.990Z</time>
      </trkpt>
      <trkpt lat="42.495226" lon="-6.346525">
        <ele>1476</ele>
        <time>2018-07-24T08:55:46.990Z</time>
      </trkpt>
      <trkpt lat="42.495193" lon="-6.346657">
        <ele>1477</ele>
        <time>2018-07-24T08:55:52.990Z</time>
      </trkpt>
      <trkpt lat="42.49517" lon="-6.346793">
        <ele>1478</ele>
        <time>2018-07-24T08:55:58.990Z</time>
      </trkpt>
      <trkpt lat="42.495132" lon="-6.346913">
        <ele>1478</ele>
        <time>2018-07-24T08:56:05.000Z</time>
      </trkpt>
      <trkpt lat="42.495108" lon="-6.347045">
        <ele>1479</ele>
        <time>2018-07-24T08:56:10.990Z</time>
      </trkpt>
      <trkpt lat="42.495076" lon="-6.347171">
        <ele>1479.5900032</ele>
        <time>2018-07-24T08:56:16.990Z</time>
      </trkpt>
      <trkpt lat="42.495054" lon="-6.347313">
        <ele>1481</ele>
        <time>2018-07-24T08:56:22.990Z</time>
      </trkpt>
      <trkpt lat="42.495006" lon="-6.347425">
        <ele>1481</ele>
        <time>2018-07-24T08:56:28.990Z</time>
      </trkpt>
      <trkpt lat="42.494991" lon="-6.347557">
        <ele>1483</ele>
        <time>2018-07-24T08:56:35.990Z</time>
      </trkpt>
      <trkpt lat="42.494972" lon="-6.347684">
        <ele>1484</ele>
        <time>2018-07-24T08:56:41.990Z</time>
      </trkpt>
      <trkpt lat="42.494958" lon="-6.34782">
        <ele>1485</ele>
        <time>2018-07-24T08:56:47.990Z</time>
      </trkpt>
      <trkpt lat="42.494943" lon="-6.347944">
        <ele>1485.5900032</ele>
        <time>2018-07-24T08:56:53.990Z</time>
      </trkpt>
      <trkpt lat="42.494914" lon="-6.348078">
        <ele>1486</ele>
        <time>2018-07-24T08:57:00.990Z</time>
      </trkpt>
      <trkpt lat="42.494894" lon="-6.34821">
        <ele>1487</ele>
        <time>2018-07-24T08:57:06.990Z</time>
      </trkpt>
      <trkpt lat="42.494866" lon="-6.348344">
        <ele>1487</ele>
        <time>2018-07-24T08:57:11.990Z</time>
      </trkpt>
      <trkpt lat="42.494851" lon="-6.348471">
        <ele>1487</ele>
        <time>2018-07-24T08:57:18.990Z</time>
      </trkpt>
      <trkpt lat="42.494827" lon="-6.348608">
        <ele>1488</ele>
        <time>2018-07-24T08:57:24.970Z</time>
      </trkpt>
      <trkpt lat="42.494819" lon="-6.348737">
        <ele>1489</ele>
        <time>2018-07-24T08:57:30.990Z</time>
      </trkpt>
      <trkpt lat="42.494794" lon="-6.348862">
        <ele>1489</ele>
        <time>2018-07-24T08:57:36.990Z</time>
      </trkpt>
      <trkpt lat="42.494772" lon="-6.348985">
        <ele>1489.60825272826</ele>
        <time>2018-07-24T08:57:43.020Z</time>
      </trkpt>
      <trkpt lat="42.494755" lon="-6.349111">
        <ele>1491</ele>
        <time>2018-07-24T08:57:50.000Z</time>
      </trkpt>
      <trkpt lat="42.494738" lon="-6.349255">
        <ele>1492.58416343497</ele>
        <time>2018-07-24T08:57:56.990Z</time>
      </trkpt>
      <trkpt lat="42.494721" lon="-6.349375">
        <ele>1493</ele>
        <time>2018-07-24T08:58:01.990Z</time>
      </trkpt>
      <trkpt lat="42.494709" lon="-6.349498">
        <ele>1493.5900032</ele>
        <time>2018-07-24T08:58:06.990Z</time>
      </trkpt>
      <trkpt lat="42.494685" lon="-6.349626">
        <ele>1494</ele>
        <time>2018-07-24T08:58:11.990Z</time>
      </trkpt>
      <trkpt lat="42.494664" lon="-6.34976">
        <ele>1494</ele>
        <time>2018-07-24T08:58:16.990Z</time>
      </trkpt>
      <trkpt lat="42.494628" lon="-6.349873">
        <ele>1494</ele>
        <time>2018-07-24T08:58:21.960Z</time>
      </trkpt>
      <trkpt lat="42.49456" lon="-6.349979">
        <ele>1494</ele>
        <time>2018-07-24T08:58:26.990Z</time>
      </trkpt>
      <trkpt lat="42.494489" lon="-6.35007">
        <ele>1495</ele>
        <time>2018-07-24T08:58:33.000Z</time>
      </trkpt>
      <trkpt lat="42.49439" lon="-6.350126">
        <ele>1495</ele>
        <time>2018-07-24T08:58:39.000Z</time>
      </trkpt>
      <trkpt lat="42.494293" lon="-6.350178">
        <ele>1495</ele>
        <time>2018-07-24T08:58:44.990Z</time>
      </trkpt>
      <trkpt lat="42.494204" lon="-6.35022">
        <ele>1496</ele>
        <time>2018-07-24T08:58:49.990Z</time>
      </trkpt>
      <trkpt lat="42.494106" lon="-6.350263">
        <ele>1496</ele>
        <time>2018-07-24T08:58:54.990Z</time>
      </trkpt>
      <trkpt lat="42.494014" lon="-6.350304">
        <ele>1496</ele>
        <time>2018-07-24T08:58:59.030Z</time>
      </trkpt>
      <trkpt lat="42.493921" lon="-6.350375">
        <ele>1496</ele>
        <time>2018-07-24T08:59:04.990Z</time>
      </trkpt>
      <trkpt lat="42.493833" lon="-6.350438">
        <ele>1497</ele>
        <time>2018-07-24T08:59:09.990Z</time>
      </trkpt>
      <trkpt lat="42.493745" lon="-6.350506">
        <ele>1497</ele>
        <time>2018-07-24T08:59:15.990Z</time>
      </trkpt>
      <trkpt lat="42.493669" lon="-6.350587">
        <ele>1497.42254232094</ele>
        <time>2018-07-24T08:59:20.990Z</time>
      </trkpt>
      <trkpt lat="42.493582" lon="-6.350681">
        <ele>1498</ele>
        <time>2018-07-24T08:59:25.990Z</time>
      </trkpt>
      <trkpt lat="42.493497" lon="-6.350778">
        <ele>1498</ele>
        <time>2018-07-24T08:59:29.990Z</time>
      </trkpt>
      <trkpt lat="42.493428" lon="-6.350857">
        <ele>1498</ele>
        <time>2018-07-24T08:59:32.990Z</time>
      </trkpt>
      <trkpt lat="42.49335" lon="-6.350946">
        <ele>1498</ele>
        <time>2018-07-24T08:59:35.990Z</time>
      </trkpt>
      <trkpt lat="42.49327" lon="-6.351051">
        <ele>1497</ele>
        <time>2018-07-24T08:59:39.000Z</time>
      </trkpt>
      <trkpt lat="42.493178" lon="-6.351149">
        <ele>1496</ele>
        <time>2018-07-24T08:59:42.000Z</time>
      </trkpt>
      <trkpt lat="42.493082" lon="-6.351267">
        <ele>1496</ele>
        <time>2018-07-24T08:59:45.000Z</time>
      </trkpt>
      <trkpt lat="42.493012" lon="-6.351357">
        <ele>1496</ele>
        <time>2018-07-24T08:59:47.000Z</time>
      </trkpt>
      <trkpt lat="42.492937" lon="-6.351459">
        <ele>1496</ele>
        <time>2018-07-24T08:59:49.000Z</time>
      </trkpt>
      <trkpt lat="42.492857" lon="-6.351566">
        <ele>1495</ele>
        <time>2018-07-24T08:59:51.000Z</time>
      </trkpt>
      <trkpt lat="42.492779" lon="-6.351675">
        <ele>1495</ele>
        <time>2018-07-24T08:59:53.000Z</time>
      </trkpt>
      <trkpt lat="42.492705" lon="-6.351772">
        <ele>1495</ele>
        <time>2018-07-24T08:59:55.000Z</time>
      </trkpt>
      <trkpt lat="42.492641" lon="-6.351875">
        <ele>1495</ele>
        <time>2018-07-24T08:59:57.000Z</time>
      </trkpt>
      <trkpt lat="42.49258" lon="-6.351982">
        <ele>1495</ele>
        <time>2018-07-24T08:59:59.000Z</time>
      </trkpt>
      <trkpt lat="42.49252" lon="-6.352088">
        <ele>1495</ele>
        <time>2018-07-24T09:00:00.990Z</time>
      </trkpt>
      <trkpt lat="42.492464" lon="-6.352204">
        <ele>1494.44</ele>
        <time>2018-07-24T09:00:02.960Z</time>
      </trkpt>
      <trkpt lat="42.492395" lon="-6.352329">
        <ele>1494</ele>
        <time>2018-07-24T09:00:04.990Z</time>
      </trkpt>
      <trkpt lat="42.492332" lon="-6.352463">
        <ele>1494</ele>
        <time>2018-07-24T09:00:06.990Z</time>
      </trkpt>
      <trkpt lat="42.492258" lon="-6.352596">
        <ele>1493.54198585164</ele>
        <time>2018-07-24T09:00:09.000Z</time>
      </trkpt>
      <trkpt lat="42.492191" lon="-6.352734">
        <ele>1493</ele>
        <time>2018-07-24T09:00:10.990Z</time>
      </trkpt>
      <trkpt lat="42.492133" lon="-6.352871">
        <ele>1492</ele>
        <time>2018-07-24T09:00:12.990Z</time>
      </trkpt>
      <trkpt lat="42.492071" lon="-6.353002">
        <ele>1492</ele>
        <time>2018-07-24T09:00:14.990Z</time>
      </trkpt>
      <trkpt lat="42.492011" lon="-6.353143">
        <ele>1491</ele>
        <time>2018-07-24T09:00:16.990Z</time>
      </trkpt>
      <trkpt lat="42.491944" lon="-6.353274">
        <ele>1491</ele>
        <time>2018-07-24T09:00:19.000Z</time>
      </trkpt>
      <trkpt lat="42.491888" lon="-6.353396">
        <ele>1491</ele>
        <time>2018-07-24T09:00:20.990Z</time>
      </trkpt>
      <trkpt lat="42.491844" lon="-6.35353">
        <ele>1490</ele>
        <time>2018-07-24T09:00:22.990Z</time>
      </trkpt>
      <trkpt lat="42.491808" lon="-6.353687">
        <ele>1490</ele>
        <time>2018-07-24T09:00:24.990Z</time>
      </trkpt>
      <trkpt lat="42.491791" lon="-6.353862">
        <ele>1488.59420101658</ele>
        <time>2018-07-24T09:00:26.990Z</time>
      </trkpt>
      <trkpt lat="42.491773" lon="-6.354045">
        <ele>1486.4</ele>
        <time>2018-07-24T09:00:29.000Z</time>
      </trkpt>
      <trkpt lat="42.491758" lon="-6.354235">
        <ele>1485.4099968</ele>
        <time>2018-07-24T09:00:30.990Z</time>
      </trkpt>
      <trkpt lat="42.491738" lon="-6.354429">
        <ele>1485</ele>
        <time>2018-07-24T09:00:32.990Z</time>
      </trkpt>
      <trkpt lat="42.491686" lon="-6.354617">
        <ele>1483.4099968</ele>
        <time>2018-07-24T09:00:34.990Z</time>
      </trkpt>
      <trkpt lat="42.491586" lon="-6.354786">
        <ele>1481.4099968</ele>
        <time>2018-07-24T09:00:36.990Z</time>
      </trkpt>
      <trkpt lat="42.491462" lon="-6.3549">
        <ele>1480</ele>
        <time>2018-07-24T09:00:39.000Z</time>
      </trkpt>
      <trkpt lat="42.491359" lon="-6.354997">
        <ele>1481</ele>
        <time>2018-07-24T09:00:41.020Z</time>
      </trkpt>
      <trkpt lat="42.491268" lon="-6.355087">
        <ele>1481.5900032</ele>
        <time>2018-07-24T09:00:42.990Z</time>
      </trkpt>
      <trkpt lat="42.491196" lon="-6.355167">
        <ele>1483</ele>
        <time>2018-07-24T09:00:44.990Z</time>
      </trkpt>
      <trkpt lat="42.491109" lon="-6.355279">
        <ele>1484</ele>
        <time>2018-07-24T09:00:47.990Z</time>
      </trkpt>
      <trkpt lat="42.491009" lon="-6.355382">
        <ele>1485</ele>
        <time>2018-07-24T09:00:50.990Z</time>
      </trkpt>
      <trkpt lat="42.490914" lon="-6.355478">
        <ele>1485</ele>
        <time>2018-07-24T09:00:54.000Z</time>
      </trkpt>
      <trkpt lat="42.490843" lon="-6.355568">
        <ele>1485</ele>
        <time>2018-07-24T09:00:56.990Z</time>
      </trkpt>
      <trkpt lat="42.490788" lon="-6.355684">
        <ele>1486.5900032</ele>
        <time>2018-07-24T09:00:59.990Z</time>
      </trkpt>
      <trkpt lat="42.490753" lon="-6.355812">
        <ele>1487</ele>
        <time>2018-07-24T09:01:02.990Z</time>
      </trkpt>
      <trkpt lat="42.490723" lon="-6.355962">
        <ele>1487</ele>
        <time>2018-07-24T09:01:06.990Z</time>
      </trkpt>
      <trkpt lat="42.490709" lon="-6.35609">
        <ele>1488</ele>
        <time>2018-07-24T09:01:09.990Z</time>
      </trkpt>
      <trkpt lat="42.490702" lon="-6.356247">
        <ele>1489</ele>
        <time>2018-07-24T09:01:14.010Z</time>
      </trkpt>
      <trkpt lat="42.490706" lon="-6.356375">
        <ele>1489</ele>
        <time>2018-07-24T09:01:16.990Z</time>
      </trkpt>
      <trkpt lat="42.490701" lon="-6.356505">
        <ele>1489.42254232094</ele>
        <time>2018-07-24T09:01:19.990Z</time>
      </trkpt>
      <trkpt lat="42.490698" lon="-6.356639">
        <ele>1490</ele>
        <time>2018-07-24T09:01:22.990Z</time>
      </trkpt>
      <trkpt lat="42.490703" lon="-6.356768">
        <ele>1491</ele>
        <time>2018-07-24T09:01:25.990Z</time>
      </trkpt>
      <trkpt lat="42.490711" lon="-6.356889">
        <ele>1491</ele>
        <time>2018-07-24T09:01:29.000Z</time>
      </trkpt>
      <trkpt lat="42.490708" lon="-6.357019">
        <ele>1491</ele>
        <time>2018-07-24T09:01:31.990Z</time>
      </trkpt>
      <trkpt lat="42.490706" lon="-6.357161">
        <ele>1491</ele>
        <time>2018-07-24T09:01:34.990Z</time>
      </trkpt>
      <trkpt lat="42.4907" lon="-6.357319">
        <ele>1492</ele>
        <time>2018-07-24T09:01:39.000Z</time>
      </trkpt>
      <trkpt lat="42.490702" lon="-6.357454">
        <ele>1492</ele>
        <time>2018-07-24T09:01:41.990Z</time>
      </trkpt>
      <trkpt lat="42.490677" lon="-6.357593">
        <ele>1492</ele>
        <time>2018-07-24T09:01:44.990Z</time>
      </trkpt>
      <trkpt lat="42.490656" lon="-6.357736">
        <ele>1492</ele>
        <time>2018-07-24T09:01:47.990Z</time>
      </trkpt>
      <trkpt lat="42.490627" lon="-6.357896">
        <ele>1492</ele>
        <time>2018-07-24T09:01:50.990Z</time>
      </trkpt>
      <trkpt lat="42.490583" lon="-6.358052">
        <ele>1492</ele>
        <time>2018-07-24T09:01:54.000Z</time>
      </trkpt>
      <trkpt lat="42.490534" lon="-6.358188">
        <ele>1492</ele>
        <time>2018-07-24T09:01:56.990Z</time>
      </trkpt>
      <trkpt lat="42.490484" lon="-6.358319">
        <ele>1492</ele>
        <time>2018-07-24T09:01:59.990Z</time>
      </trkpt>
      <trkpt lat="42.490428" lon="-6.358462">
        <ele>1492</ele>
        <time>2018-07-24T09:02:02.990Z</time>
      </trkpt>
      <trkpt lat="42.490354" lon="-6.358602">
        <ele>1492</ele>
        <time>2018-07-24T09:02:05.990Z</time>
      </trkpt>
      <trkpt lat="42.490307" lon="-6.358712">
        <ele>1492</ele>
        <time>2018-07-24T09:02:07.990Z</time>
      </trkpt>
      <trkpt lat="42.490263" lon="-6.358821">
        <ele>1491</ele>
        <time>2018-07-24T09:02:09.990Z</time>
      </trkpt>
      <trkpt lat="42.490212" lon="-6.35898">
        <ele>1491</ele>
        <time>2018-07-24T09:02:12.990Z</time>
      </trkpt>
      <trkpt lat="42.490157" lon="-6.359131">
        <ele>1492</ele>
        <time>2018-07-24T09:02:15.990Z</time>
      </trkpt>
      <trkpt lat="42.490111" lon="-6.359275">
        <ele>1492</ele>
        <time>2018-07-24T09:02:19.000Z</time>
      </trkpt>
      <trkpt lat="42.490054" lon="-6.359414">
        <ele>1492</ele>
        <time>2018-07-24T09:02:21.990Z</time>
      </trkpt>
      <trkpt lat="42.489991" lon="-6.35955">
        <ele>1492</ele>
        <time>2018-07-24T09:02:24.990Z</time>
      </trkpt>
      <trkpt lat="42.489915" lon="-6.359678">
        <ele>1492</ele>
        <time>2018-07-24T09:02:27.990Z</time>
      </trkpt>
      <trkpt lat="42.489842" lon="-6.359797">
        <ele>1492</ele>
        <time>2018-07-24T09:02:30.990Z</time>
      </trkpt>
      <trkpt lat="42.489757" lon="-6.3599">
        <ele>1492</ele>
        <time>2018-07-24T09:02:34.000Z</time>
      </trkpt>
      <trkpt lat="42.489684" lon="-6.360004">
        <ele>1492</ele>
        <time>2018-07-24T09:02:36.990Z</time>
      </trkpt>
      <trkpt lat="42.489603" lon="-6.360102">
        <ele>1492</ele>
        <time>2018-07-24T09:02:40.990Z</time>
      </trkpt>
      <trkpt lat="42.489533" lon="-6.360186">
        <ele>1493</ele>
        <time>2018-07-24T09:02:44.000Z</time>
      </trkpt>
      <trkpt lat="42.48947" lon="-6.360295">
        <ele>1493</ele>
        <time>2018-07-24T09:02:47.020Z</time>
      </trkpt>
      <trkpt lat="42.489392" lon="-6.360406">
        <ele>1493</ele>
        <time>2018-07-24T09:02:49.990Z</time>
      </trkpt>
      <trkpt lat="42.489318" lon="-6.36053">
        <ele>1493</ele>
        <time>2018-07-24T09:02:52.990Z</time>
      </trkpt>
      <trkpt lat="42.489261" lon="-6.36063">
        <ele>1493.45736795626</ele>
        <time>2018-07-24T09:02:54.990Z</time>
      </trkpt>
      <trkpt lat="42.489203" lon="-6.36073">
        <ele>1494</ele>
        <time>2018-07-24T09:02:56.990Z</time>
      </trkpt>
      <trkpt lat="42.489146" lon="-6.360826">
        <ele>1494</ele>
        <time>2018-07-24T09:02:59.000Z</time>
      </trkpt>
      <trkpt lat="42.489068" lon="-6.360951">
        <ele>1495</ele>
        <time>2018-07-24T09:03:01.990Z</time>
      </trkpt>
      <trkpt lat="42.488985" lon="-6.361072">
        <ele>1495</ele>
        <time>2018-07-24T09:03:04.990Z</time>
      </trkpt>
      <trkpt lat="42.488938" lon="-6.361202">
        <ele>1495</ele>
        <time>2018-07-24T09:03:07.990Z</time>
      </trkpt>
      <trkpt lat="42.488983" lon="-6.361314">
        <ele>1496</ele>
        <time>2018-07-24T09:04:54.990Z</time>
      </trkpt>
      <trkpt lat="42.488914" lon="-6.361215">
        <ele>1497</ele>
        <time>2018-07-24T09:07:10.000Z</time>
      </trkpt>
      <trkpt lat="42.488853" lon="-6.361342">
        <ele>1497</ele>
        <time>2018-07-24T09:07:16.990Z</time>
      </trkpt>
      <trkpt lat="42.488798" lon="-6.361449">
        <ele>1497</ele>
        <time>2018-07-24T09:07:20.990Z</time>
      </trkpt>
      <trkpt lat="42.488743" lon="-6.361569">
        <ele>1497</ele>
        <time>2018-07-24T09:07:25.000Z</time>
      </trkpt>
      <trkpt lat="42.488708" lon="-6.361684">
        <ele>1497</ele>
        <time>2018-07-24T09:07:27.990Z</time>
      </trkpt>
      <trkpt lat="42.488662" lon="-6.361828">
        <ele>1497</ele>
        <time>2018-07-24T09:07:32.020Z</time>
      </trkpt>
      <trkpt lat="42.48863" lon="-6.361955">
        <ele>1497</ele>
        <time>2018-07-24T09:07:35.000Z</time>
      </trkpt>
      <trkpt lat="42.488609" lon="-6.3621">
        <ele>1497</ele>
        <time>2018-07-24T09:07:37.990Z</time>
      </trkpt>
      <trkpt lat="42.488591" lon="-6.362259">
        <ele>1497</ele>
        <time>2018-07-24T09:07:40.990Z</time>
      </trkpt>
      <trkpt lat="42.488577" lon="-6.362389">
        <ele>1497</ele>
        <time>2018-07-24T09:07:42.990Z</time>
      </trkpt>
      <trkpt lat="42.488565" lon="-6.362535">
        <ele>1497</ele>
        <time>2018-07-24T09:07:45.000Z</time>
      </trkpt>
      <trkpt lat="42.488559" lon="-6.362696">
        <ele>1496</ele>
        <time>2018-07-24T09:07:46.990Z</time>
      </trkpt>
      <trkpt lat="42.488561" lon="-6.362882">
        <ele>1494.63579905501</ele>
        <time>2018-07-24T09:07:48.990Z</time>
      </trkpt>
      <trkpt lat="42.488575" lon="-6.363093">
        <ele>1493</ele>
        <time>2018-07-24T09:07:51.020Z</time>
      </trkpt>
      <trkpt lat="42.488608" lon="-6.363319">
        <ele>1491.41583656503</ele>
        <time>2018-07-24T09:07:52.990Z</time>
      </trkpt>
      <trkpt lat="42.488624" lon="-6.36344">
        <ele>1490.41413684319</ele>
        <time>2018-07-24T09:07:53.990Z</time>
      </trkpt>
      <trkpt lat="42.488642" lon="-6.36358">
        <ele>1489.54198585164</ele>
        <time>2018-07-24T09:07:55.000Z</time>
      </trkpt>
      <trkpt lat="42.488668" lon="-6.363723">
        <ele>1488.59420101658</ele>
        <time>2018-07-24T09:07:55.990Z</time>
      </trkpt>
      <trkpt lat="42.488701" lon="-6.36387">
        <ele>1487.42156911957</ele>
        <time>2018-07-24T09:07:56.990Z</time>
      </trkpt>
      <trkpt lat="42.488741" lon="-6.364017">
        <ele>1486.41836681382</ele>
        <time>2018-07-24T09:07:57.990Z</time>
      </trkpt>
      <trkpt lat="42.488785" lon="-6.364165">
        <ele>1486</ele>
        <time>2018-07-24T09:07:58.990Z</time>
      </trkpt>
      <trkpt lat="42.488826" lon="-6.364321">
        <ele>1486</ele>
        <time>2018-07-24T09:08:00.000Z</time>
      </trkpt>
      <trkpt lat="42.488867" lon="-6.36448">
        <ele>1484.7599872</ele>
        <time>2018-07-24T09:08:01.020Z</time>
      </trkpt>
      <trkpt lat="42.488912" lon="-6.364628">
        <ele>1484</ele>
        <time>2018-07-24T09:08:01.960Z</time>
      </trkpt>
      <trkpt lat="42.488965" lon="-6.364783">
        <ele>1483.54961697803</ele>
        <time>2018-07-24T09:08:02.990Z</time>
      </trkpt>
      <trkpt lat="42.489015" lon="-6.36494">
        <ele>1482.59420101658</ele>
        <time>2018-07-24T09:08:03.990Z</time>
      </trkpt>
      <trkpt lat="42.489065" lon="-6.365103">
        <ele>1481.41176839675</ele>
        <time>2018-07-24T09:08:05.000Z</time>
      </trkpt>
      <trkpt lat="42.489111" lon="-6.365264">
        <ele>1480.41836681382</ele>
        <time>2018-07-24T09:08:05.990Z</time>
      </trkpt>
      <trkpt lat="42.489153" lon="-6.365431">
        <ele>1479.54961697803</ele>
        <time>2018-07-24T09:08:06.990Z</time>
      </trkpt>
      <trkpt lat="42.489186" lon="-6.365597">
        <ele>1479</ele>
        <time>2018-07-24T09:08:07.990Z</time>
      </trkpt>
      <trkpt lat="42.489214" lon="-6.365772">
        <ele>1478.53519984135</ele>
        <time>2018-07-24T09:08:09.020Z</time>
      </trkpt>
      <trkpt lat="42.48923" lon="-6.365942">
        <ele>1477.54198585164</ele>
        <time>2018-07-24T09:08:10.000Z</time>
      </trkpt>
      <trkpt lat="42.489244" lon="-6.366107">
        <ele>1476.6376841168</ele>
        <time>2018-07-24T09:08:10.960Z</time>
      </trkpt>
      <trkpt lat="42.489258" lon="-6.366286">
        <ele>1475.4099968</ele>
        <time>2018-07-24T09:08:11.990Z</time>
      </trkpt>
      <trkpt lat="42.489263" lon="-6.366459">
        <ele>1474.4099968</ele>
        <time>2018-07-24T09:08:12.990Z</time>
      </trkpt>
      <trkpt lat="42.489258" lon="-6.36663">
        <ele>1474.5900032</ele>
        <time>2018-07-24T09:08:13.990Z</time>
      </trkpt>
      <trkpt lat="42.489245" lon="-6.366802">
        <ele>1475</ele>
        <time>2018-07-24T09:08:15.000Z</time>
      </trkpt>
      <trkpt lat="42.489225" lon="-6.366967">
        <ele>1475</ele>
        <time>2018-07-24T09:08:15.990Z</time>
      </trkpt>
      <trkpt lat="42.489204" lon="-6.367131">
        <ele>1474.4099968</ele>
        <time>2018-07-24T09:08:16.990Z</time>
      </trkpt>
      <trkpt lat="42.489176" lon="-6.367289">
        <ele>1473.4099968</ele>
        <time>2018-07-24T09:08:17.990Z</time>
      </trkpt>
      <trkpt lat="42.48915" lon="-6.367445">
        <ele>1473</ele>
        <time>2018-07-24T09:08:18.990Z</time>
      </trkpt>
      <trkpt lat="42.48912" lon="-6.367603">
        <ele>1473</ele>
        <time>2018-07-24T09:08:20.000Z</time>
      </trkpt>
      <trkpt lat="42.489098" lon="-6.367752">
        <ele>1473</ele>
        <time>2018-07-24T09:08:20.990Z</time>
      </trkpt>
      <trkpt lat="42.489088" lon="-6.367901">
        <ele>1473</ele>
        <time>2018-07-24T09:08:21.990Z</time>
      </trkpt>
      <trkpt lat="42.489078" lon="-6.36805">
        <ele>1473</ele>
        <time>2018-07-24T09:08:22.990Z</time>
      </trkpt>
      <trkpt lat="42.489077" lon="-6.3682">
        <ele>1473</ele>
        <time>2018-07-24T09:08:23.990Z</time>
      </trkpt>
      <trkpt lat="42.489083" lon="-6.368352">
        <ele>1473</ele>
        <time>2018-07-24T09:08:25.030Z</time>
      </trkpt>
      <trkpt lat="42.489086" lon="-6.368486">
        <ele>1473</ele>
        <time>2018-07-24T09:08:25.960Z</time>
      </trkpt>
      <trkpt lat="42.489092" lon="-6.36863">
        <ele>1473</ele>
        <time>2018-07-24T09:08:26.990Z</time>
      </trkpt>
      <trkpt lat="42.489098" lon="-6.368765">
        <ele>1473</ele>
        <time>2018-07-24T09:08:27.990Z</time>
      </trkpt>
      <trkpt lat="42.489104" lon="-6.368904">
        <ele>1473</ele>
        <time>2018-07-24T09:08:28.990Z</time>
      </trkpt>
      <trkpt lat="42.489107" lon="-6.369041">
        <ele>1473</ele>
        <time>2018-07-24T09:08:30.000Z</time>
      </trkpt>
      <trkpt lat="42.489111" lon="-6.369172">
        <ele>1473</ele>
        <time>2018-07-24T09:08:30.990Z</time>
      </trkpt>
      <trkpt lat="42.489111" lon="-6.369302">
        <ele>1473</ele>
        <time>2018-07-24T09:08:31.990Z</time>
      </trkpt>
      <trkpt lat="42.489115" lon="-6.369435">
        <ele>1473</ele>
        <time>2018-07-24T09:08:32.990Z</time>
      </trkpt>
      <trkpt lat="42.489119" lon="-6.369571">
        <ele>1473</ele>
        <time>2018-07-24T09:08:33.990Z</time>
      </trkpt>
      <trkpt lat="42.489122" lon="-6.369707">
        <ele>1473</ele>
        <time>2018-07-24T09:08:35.030Z</time>
      </trkpt>
      <trkpt lat="42.48914" lon="-6.369951">
        <ele>1473</ele>
        <time>2018-07-24T09:08:36.990Z</time>
      </trkpt>
      <trkpt lat="42.489182" lon="-6.370184">
        <ele>1474</ele>
        <time>2018-07-24T09:08:38.990Z</time>
      </trkpt>
      <trkpt lat="42.48924" lon="-6.370408">
        <ele>1474</ele>
        <time>2018-07-24T09:08:41.020Z</time>
      </trkpt>
      <trkpt lat="42.489297" lon="-6.370613">
        <ele>1474</ele>
        <time>2018-07-24T09:08:42.990Z</time>
      </trkpt>
      <trkpt lat="42.489347" lon="-6.370799">
        <ele>1475</ele>
        <time>2018-07-24T09:08:45.000Z</time>
      </trkpt>
      <trkpt lat="42.489393" lon="-6.370969">
        <ele>1476</ele>
        <time>2018-07-24T09:08:47.020Z</time>
      </trkpt>
      <trkpt lat="42.489439" lon="-6.371108">
        <ele>1476.56</ele>
        <time>2018-07-24T09:08:48.960Z</time>
      </trkpt>
      <trkpt lat="42.489479" lon="-6.371234">
        <ele>1477</ele>
        <time>2018-07-24T09:08:50.990Z</time>
      </trkpt>
      <trkpt lat="42.489513" lon="-6.371371">
        <ele>1477</ele>
        <time>2018-07-24T09:08:52.990Z</time>
      </trkpt>
      <trkpt lat="42.489574" lon="-6.371516">
        <ele>1477</ele>
        <time>2018-07-24T09:08:55.030Z</time>
      </trkpt>
      <trkpt lat="42.489629" lon="-6.371648">
        <ele>1477</ele>
        <time>2018-07-24T09:08:56.990Z</time>
      </trkpt>
      <trkpt lat="42.489682" lon="-6.371779">
        <ele>1477</ele>
        <time>2018-07-24T09:08:58.990Z</time>
      </trkpt>
      <trkpt lat="42.489741" lon="-6.371911">
        <ele>1477</ele>
        <time>2018-07-24T09:09:00.990Z</time>
      </trkpt>
      <trkpt lat="42.489806" lon="-6.372048">
        <ele>1477</ele>
        <time>2018-07-24T09:09:02.990Z</time>
      </trkpt>
      <trkpt lat="42.48987" lon="-6.372192">
        <ele>1477</ele>
        <time>2018-07-24T09:09:05.000Z</time>
      </trkpt>
      <trkpt lat="42.489944" lon="-6.372341">
        <ele>1477</ele>
        <time>2018-07-24T09:09:07.020Z</time>
      </trkpt>
      <trkpt lat="42.489992" lon="-6.372502">
        <ele>1477</ele>
        <time>2018-07-24T09:09:08.990Z</time>
      </trkpt>
      <trkpt lat="42.490008" lon="-6.372664">
        <ele>1477</ele>
        <time>2018-07-24T09:09:10.990Z</time>
      </trkpt>
      <trkpt lat="42.489996" lon="-6.37282">
        <ele>1478</ele>
        <time>2018-07-24T09:09:13.020Z</time>
      </trkpt>
      <trkpt lat="42.489981" lon="-6.372951">
        <ele>1479</ele>
        <time>2018-07-24T09:09:15.000Z</time>
      </trkpt>
      <trkpt lat="42.489959" lon="-6.37308">
        <ele>1479.5900032</ele>
        <time>2018-07-24T09:09:16.990Z</time>
      </trkpt>
      <trkpt lat="42.489918" lon="-6.373202">
        <ele>1480</ele>
        <time>2018-07-24T09:09:18.990Z</time>
      </trkpt>
      <trkpt lat="42.489857" lon="-6.373304">
        <ele>1481</ele>
        <time>2018-07-24T09:09:21.020Z</time>
      </trkpt>
      <trkpt lat="42.489749" lon="-6.37341">
        <ele>1481</ele>
        <time>2018-07-24T09:09:23.990Z</time>
      </trkpt>
      <trkpt lat="42.489666" lon="-6.373478">
        <ele>1481</ele>
        <time>2018-07-24T09:09:26.020Z</time>
      </trkpt>
      <trkpt lat="42.489578" lon="-6.37355">
        <ele>1481</ele>
        <time>2018-07-24T09:09:27.990Z</time>
      </trkpt>
      <trkpt lat="42.48948" lon="-6.373613">
        <ele>1481</ele>
        <time>2018-07-24T09:09:30.000Z</time>
      </trkpt>
      <trkpt lat="42.489393" lon="-6.373702">
        <ele>1481</ele>
        <time>2018-07-24T09:09:32.020Z</time>
      </trkpt>
      <trkpt lat="42.489301" lon="-6.373796">
        <ele>1480</ele>
        <time>2018-07-24T09:09:33.990Z</time>
      </trkpt>
      <trkpt lat="42.489207" lon="-6.373908">
        <ele>1479</ele>
        <time>2018-07-24T09:09:35.990Z</time>
      </trkpt>
      <trkpt lat="42.489116" lon="-6.374027">
        <ele>1479</ele>
        <time>2018-07-24T09:09:37.990Z</time>
      </trkpt>
      <trkpt lat="42.489023" lon="-6.374158">
        <ele>1478</ele>
        <time>2018-07-24T09:09:40.030Z</time>
      </trkpt>
      <trkpt lat="42.48894" lon="-6.374283">
        <ele>1478</ele>
        <time>2018-07-24T09:09:41.990Z</time>
      </trkpt>
      <trkpt lat="42.488857" lon="-6.37442">
        <ele>1478</ele>
        <time>2018-07-24T09:09:43.990Z</time>
      </trkpt>
      <trkpt lat="42.488781" lon="-6.374552">
        <ele>1477.6376841168</ele>
        <time>2018-07-24T09:09:45.960Z</time>
      </trkpt>
      <trkpt lat="42.488698" lon="-6.374709">
        <ele>1477</ele>
        <time>2018-07-24T09:09:47.990Z</time>
      </trkpt>
      <trkpt lat="42.488628" lon="-6.374879">
        <ele>1476.4</ele>
        <time>2018-07-24T09:09:50.000Z</time>
      </trkpt>
      <trkpt lat="42.488562" lon="-6.375068">
        <ele>1475</ele>
        <time>2018-07-24T09:09:51.990Z</time>
      </trkpt>
      <trkpt lat="42.488501" lon="-6.375265">
        <ele>1475</ele>
        <time>2018-07-24T09:09:53.990Z</time>
      </trkpt>
      <trkpt lat="42.488442" lon="-6.375454">
        <ele>1474</ele>
        <time>2018-07-24T09:09:56.020Z</time>
      </trkpt>
      <trkpt lat="42.488382" lon="-6.375651">
        <ele>1473.4099968</ele>
        <time>2018-07-24T09:09:57.990Z</time>
      </trkpt>
      <trkpt lat="42.488365" lon="-6.375875">
        <ele>1473</ele>
        <time>2018-07-24T09:10:00.000Z</time>
      </trkpt>
      <trkpt lat="42.488376" lon="-6.376111">
        <ele>1473</ele>
        <time>2018-07-24T09:10:01.990Z</time>
      </trkpt>
      <trkpt lat="42.488393" lon="-6.376232">
        <ele>1472.60293647059</ele>
        <time>2018-07-24T09:10:02.990Z</time>
      </trkpt>
      <trkpt lat="42.488404" lon="-6.376362">
        <ele>1472</ele>
        <time>2018-07-24T09:10:04.020Z</time>
      </trkpt>
      <trkpt lat="42.488415" lon="-6.376483">
        <ele>1471.62319593366</ele>
        <time>2018-07-24T09:10:04.970Z</time>
      </trkpt>
      <trkpt lat="42.488426" lon="-6.376615">
        <ele>1471</ele>
        <time>2018-07-24T09:10:05.990Z</time>
      </trkpt>
      <trkpt lat="42.488436" lon="-6.376744">
        <ele>1470.4099968</ele>
        <time>2018-07-24T09:10:06.990Z</time>
      </trkpt>
      <trkpt lat="42.488444" lon="-6.376885">
        <ele>1470</ele>
        <time>2018-07-24T09:10:08.100Z</time>
      </trkpt>
      <trkpt lat="42.488449" lon="-6.377008">
        <ele>1469.4</ele>
        <time>2018-07-24T09:10:09.000Z</time>
      </trkpt>
      <trkpt lat="42.488456" lon="-6.377137">
        <ele>1468.54545454545</ele>
        <time>2018-07-24T09:10:10.000Z</time>
      </trkpt>
      <trkpt lat="42.488461" lon="-6.377278">
        <ele>1468</ele>
        <time>2018-07-24T09:10:11.000Z</time>
      </trkpt>
      <trkpt lat="42.488464" lon="-6.377408">
        <ele>1467.4</ele>
        <time>2018-07-24T09:10:12.000Z</time>
      </trkpt>
      <trkpt lat="42.488471" lon="-6.377532">
        <ele>1467</ele>
        <time>2018-07-24T09:10:13.000Z</time>
      </trkpt>
      <trkpt lat="42.48847" lon="-6.377658">
        <ele>1467</ele>
        <time>2018-07-24T09:10:14.000Z</time>
      </trkpt>
      <trkpt lat="42.488461" lon="-6.377901">
        <ele>1467</ele>
        <time>2018-07-24T09:10:16.000Z</time>
      </trkpt>
      <trkpt lat="42.488435" lon="-6.378139">
        <ele>1465.4</ele>
        <time>2018-07-24T09:10:18.000Z</time>
      </trkpt>
      <trkpt lat="42.488397" lon="-6.37836">
        <ele>1465</ele>
        <time>2018-07-24T09:10:19.990Z</time>
      </trkpt>
      <trkpt lat="42.488332" lon="-6.378571">
        <ele>1466</ele>
        <time>2018-07-24T09:10:21.990Z</time>
      </trkpt>
      <trkpt lat="42.488222" lon="-6.378726">
        <ele>1466</ele>
        <time>2018-07-24T09:10:24.000Z</time>
      </trkpt>
      <trkpt lat="42.488093" lon="-6.378853">
        <ele>1466</ele>
        <time>2018-07-24T09:10:25.990Z</time>
      </trkpt>
      <trkpt lat="42.487961" lon="-6.37898">
        <ele>1465.55302787879</ele>
        <time>2018-07-24T09:10:27.990Z</time>
      </trkpt>
      <trkpt lat="42.487837" lon="-6.379115">
        <ele>1465</ele>
        <time>2018-07-24T09:10:30.020Z</time>
      </trkpt>
      <trkpt lat="42.487744" lon="-6.379271">
        <ele>1464.5900032</ele>
        <time>2018-07-24T09:10:31.990Z</time>
      </trkpt>
      <trkpt lat="42.487691" lon="-6.379442">
        <ele>1465</ele>
        <time>2018-07-24T09:10:34.000Z</time>
      </trkpt>
      <trkpt lat="42.487662" lon="-6.379603">
        <ele>1465</ele>
        <time>2018-07-24T09:10:36.020Z</time>
      </trkpt>
      <trkpt lat="42.487644" lon="-6.379739">
        <ele>1466</ele>
        <time>2018-07-24T09:10:37.990Z</time>
      </trkpt>
      <trkpt lat="42.487611" lon="-6.379887">
        <ele>1466</ele>
        <time>2018-07-24T09:10:39.990Z</time>
      </trkpt>
      <trkpt lat="42.487562" lon="-6.380029">
        <ele>1466</ele>
        <time>2018-07-24T09:10:41.990Z</time>
      </trkpt>
      <trkpt lat="42.487503" lon="-6.380174">
        <ele>1465.3699968</ele>
        <time>2018-07-24T09:10:44.030Z</time>
      </trkpt>
      <trkpt lat="42.487446" lon="-6.380326">
        <ele>1465</ele>
        <time>2018-07-24T09:10:45.990Z</time>
      </trkpt>
      <trkpt lat="42.487433" lon="-6.380499">
        <ele>1464.4099968</ele>
        <time>2018-07-24T09:10:47.990Z</time>
      </trkpt>
      <trkpt lat="42.487462" lon="-6.380654">
        <ele>1464</ele>
        <time>2018-07-24T09:10:49.990Z</time>
      </trkpt>
      <trkpt lat="42.487507" lon="-6.380798">
        <ele>1464</ele>
        <time>2018-07-24T09:10:51.990Z</time>
      </trkpt>
      <trkpt lat="42.487536" lon="-6.380947">
        <ele>1464</ele>
        <time>2018-07-24T09:10:54.000Z</time>
      </trkpt>
      <trkpt lat="42.487557" lon="-6.381095">
        <ele>1464</ele>
        <time>2018-07-24T09:10:55.990Z</time>
      </trkpt>
      <trkpt lat="42.487569" lon="-6.381258">
        <ele>1464</ele>
        <time>2018-07-24T09:10:57.990Z</time>
      </trkpt>
      <trkpt lat="42.48756" lon="-6.381398">
        <ele>1464</ele>
        <time>2018-07-24T09:10:59.990Z</time>
      </trkpt>
      <trkpt lat="42.487544" lon="-6.381555">
        <ele>1463</ele>
        <time>2018-07-24T09:11:02.960Z</time>
      </trkpt>
      <trkpt lat="42.487526" lon="-6.381676">
        <ele>1463</ele>
        <time>2018-07-24T09:11:07.990Z</time>
      </trkpt>
      <trkpt lat="42.487544" lon="-6.381837">
        <ele>1462</ele>
        <time>2018-07-24T09:11:14.990Z</time>
      </trkpt>
      <trkpt lat="42.487586" lon="-6.381968">
        <ele>1461</ele>
        <time>2018-07-24T09:11:16.990Z</time>
      </trkpt>
      <trkpt lat="42.487636" lon="-6.382128">
        <ele>1459.56337774252</ele>
        <time>2018-07-24T09:11:19.000Z</time>
      </trkpt>
      <trkpt lat="42.487692" lon="-6.382305">
        <ele>1458.44</ele>
        <time>2018-07-24T09:11:20.960Z</time>
      </trkpt>
      <trkpt lat="42.487742" lon="-6.382504">
        <ele>1457</ele>
        <time>2018-07-24T09:11:22.990Z</time>
      </trkpt>
      <trkpt lat="42.487782" lon="-6.382708">
        <ele>1457</ele>
        <time>2018-07-24T09:11:24.990Z</time>
      </trkpt>
      <trkpt lat="42.48781" lon="-6.382905">
        <ele>1456.4099968</ele>
        <time>2018-07-24T09:11:26.990Z</time>
      </trkpt>
      <trkpt lat="42.48783" lon="-6.38309">
        <ele>1456</ele>
        <time>2018-07-24T09:11:29.000Z</time>
      </trkpt>
      <trkpt lat="42.48787" lon="-6.383282">
        <ele>1456</ele>
        <time>2018-07-24T09:11:30.990Z</time>
      </trkpt>
      <trkpt lat="42.48792" lon="-6.383479">
        <ele>1454.3799936</ele>
        <time>2018-07-24T09:11:33.020Z</time>
      </trkpt>
      <trkpt lat="42.487978" lon="-6.383673">
        <ele>1454</ele>
        <time>2018-07-24T09:11:34.990Z</time>
      </trkpt>
      <trkpt lat="42.488032" lon="-6.38387">
        <ele>1453</ele>
        <time>2018-07-24T09:11:36.990Z</time>
      </trkpt>
      <trkpt lat="42.488082" lon="-6.384053">
        <ele>1453</ele>
        <time>2018-07-24T09:11:39.000Z</time>
      </trkpt>
      <trkpt lat="42.488136" lon="-6.384216">
        <ele>1453</ele>
        <time>2018-07-24T09:11:41.020Z</time>
      </trkpt>
      <trkpt lat="42.488198" lon="-6.384364">
        <ele>1453</ele>
        <time>2018-07-24T09:11:42.990Z</time>
      </trkpt>
      <trkpt lat="42.488285" lon="-6.384509">
        <ele>1453</ele>
        <time>2018-07-24T09:11:44.990Z</time>
      </trkpt>
      <trkpt lat="42.48839" lon="-6.384622">
        <ele>1452.4099968</ele>
        <time>2018-07-24T09:11:46.990Z</time>
      </trkpt>
      <trkpt lat="42.488526" lon="-6.384716">
        <ele>1451.4</ele>
        <time>2018-07-24T09:11:49.000Z</time>
      </trkpt>
      <trkpt lat="42.488682" lon="-6.384788">
        <ele>1449.4099968</ele>
        <time>2018-07-24T09:11:50.990Z</time>
      </trkpt>
      <trkpt lat="42.48884" lon="-6.384848">
        <ele>1449</ele>
        <time>2018-07-24T09:11:52.990Z</time>
      </trkpt>
      <trkpt lat="42.488928" lon="-6.384883">
        <ele>1448.37623247915</ele>
        <time>2018-07-24T09:11:54.030Z</time>
      </trkpt>
      <trkpt lat="42.489094" lon="-6.384964">
        <ele>1447.63580193263</ele>
        <time>2018-07-24T09:11:55.990Z</time>
      </trkpt>
      <trkpt lat="42.489174" lon="-6.385019">
        <ele>1447.01852042066</ele>
        <time>2018-07-24T09:11:56.990Z</time>
      </trkpt>
      <trkpt lat="42.489312" lon="-6.385178">
        <ele>1445.4</ele>
        <time>2018-07-24T09:11:59.000Z</time>
      </trkpt>
      <trkpt lat="42.489412" lon="-6.385378">
        <ele>1445</ele>
        <time>2018-07-24T09:12:00.990Z</time>
      </trkpt>
      <trkpt lat="42.489501" lon="-6.385578">
        <ele>1445.45038302197</ele>
        <time>2018-07-24T09:12:02.990Z</time>
      </trkpt>
      <trkpt lat="42.489598" lon="-6.38576">
        <ele>1445.3799936</ele>
        <time>2018-07-24T09:12:05.020Z</time>
      </trkpt>
      <trkpt lat="42.489691" lon="-6.38593">
        <ele>1445</ele>
        <time>2018-07-24T09:12:06.990Z</time>
      </trkpt>
      <trkpt lat="42.489783" lon="-6.38609">
        <ele>1446</ele>
        <time>2018-07-24T09:12:09.000Z</time>
      </trkpt>
      <trkpt lat="42.489881" lon="-6.386236">
        <ele>1446</ele>
        <time>2018-07-24T09:12:10.990Z</time>
      </trkpt>
      <trkpt lat="42.489972" lon="-6.386366">
        <ele>1445</ele>
        <time>2018-07-24T09:12:12.990Z</time>
      </trkpt>
      <trkpt lat="42.490079" lon="-6.38649">
        <ele>1445</ele>
        <time>2018-07-24T09:12:14.990Z</time>
      </trkpt>
      <trkpt lat="42.490189" lon="-6.386592">
        <ele>1444.52671382787</ele>
        <time>2018-07-24T09:12:17.020Z</time>
      </trkpt>
      <trkpt lat="42.490289" lon="-6.386692">
        <ele>1443</ele>
        <time>2018-07-24T09:12:19.000Z</time>
      </trkpt>
      <trkpt lat="42.490343" lon="-6.38683">
        <ele>1442</ele>
        <time>2018-07-24T09:12:20.990Z</time>
      </trkpt>
      <trkpt lat="42.490381" lon="-6.387">
        <ele>1441.4099968</ele>
        <time>2018-07-24T09:12:22.990Z</time>
      </trkpt>
      <trkpt lat="42.490412" lon="-6.387192">
        <ele>1440</ele>
        <time>2018-07-24T09:12:24.990Z</time>
      </trkpt>
      <trkpt lat="42.490457" lon="-6.387381">
        <ele>1439</ele>
        <time>2018-07-24T09:12:26.990Z</time>
      </trkpt>
      <trkpt lat="42.490527" lon="-6.387559">
        <ele>1439</ele>
        <time>2018-07-24T09:12:29.000Z</time>
      </trkpt>
      <trkpt lat="42.490582" lon="-6.387844">
        <ele>1437</ele>
        <time>2018-07-24T09:12:32.000Z</time>
      </trkpt>
      <trkpt lat="42.490547" lon="-6.388075">
        <ele>1437</ele>
        <time>2018-07-24T09:12:34.000Z</time>
      </trkpt>
      <trkpt lat="42.490515" lon="-6.388306">
        <ele>1436</ele>
        <time>2018-07-24T09:12:36.030Z</time>
      </trkpt>
      <trkpt lat="42.490482" lon="-6.388522">
        <ele>1435</ele>
        <time>2018-07-24T09:12:37.990Z</time>
      </trkpt>
      <trkpt lat="42.490438" lon="-6.388732">
        <ele>1435</ele>
        <time>2018-07-24T09:12:39.990Z</time>
      </trkpt>
      <trkpt lat="42.490373" lon="-6.388916">
        <ele>1435</ele>
        <time>2018-07-24T09:12:41.990Z</time>
      </trkpt>
      <trkpt lat="42.490308" lon="-6.389073">
        <ele>1435</ele>
        <time>2018-07-24T09:12:43.990Z</time>
      </trkpt>
      <trkpt lat="42.490249" lon="-6.389225">
        <ele>1435</ele>
        <time>2018-07-24T09:12:46.030Z</time>
      </trkpt>
      <trkpt lat="42.490212" lon="-6.389352">
        <ele>1436</ele>
        <time>2018-07-24T09:12:47.990Z</time>
      </trkpt>
      <trkpt lat="42.490173" lon="-6.389516">
        <ele>1437</ele>
        <time>2018-07-24T09:12:51.000Z</time>
      </trkpt>
      <trkpt lat="42.490169" lon="-6.389651">
        <ele>1437</ele>
        <time>2018-07-24T09:12:53.990Z</time>
      </trkpt>
      <trkpt lat="42.490182" lon="-6.389776">
        <ele>1438</ele>
        <time>2018-07-24T09:12:56.990Z</time>
      </trkpt>
      <trkpt lat="42.490199" lon="-6.389899">
        <ele>1440</ele>
        <time>2018-07-24T09:13:01.000Z</time>
      </trkpt>
      <trkpt lat="42.490212" lon="-6.390049">
        <ele>1440</ele>
        <time>2018-07-24T09:13:06.000Z</time>
      </trkpt>
      <trkpt lat="42.490222" lon="-6.39018">
        <ele>1442</ele>
        <time>2018-07-24T09:13:09.990Z</time>
      </trkpt>
      <trkpt lat="42.490245" lon="-6.390303">
        <ele>1443</ele>
        <time>2018-07-24T09:13:14.020Z</time>
      </trkpt>
      <trkpt lat="42.490264" lon="-6.39044">
        <ele>1444</ele>
        <time>2018-07-24T09:13:18.990Z</time>
      </trkpt>
      <trkpt lat="42.49027" lon="-6.390561">
        <ele>1444.5900032</ele>
        <time>2018-07-24T09:13:23.990Z</time>
      </trkpt>
      <trkpt lat="42.490274" lon="-6.390684">
        <ele>1446</ele>
        <time>2018-07-24T09:13:28.990Z</time>
      </trkpt>
      <trkpt lat="42.490291" lon="-6.390813">
        <ele>1446</ele>
        <time>2018-07-24T09:13:33.960Z</time>
      </trkpt>
      <trkpt lat="42.490315" lon="-6.390952">
        <ele>1447.5900032</ele>
        <time>2018-07-24T09:13:38.990Z</time>
      </trkpt>
      <trkpt lat="42.490331" lon="-6.391072">
        <ele>1448.45736795626</ele>
        <time>2018-07-24T09:13:42.990Z</time>
      </trkpt>
      <trkpt lat="42.490359" lon="-6.391197">
        <ele>1449</ele>
        <time>2018-07-24T09:13:46.990Z</time>
      </trkpt>
      <trkpt lat="42.490394" lon="-6.391338">
        <ele>1450</ele>
        <time>2018-07-24T09:13:52.020Z</time>
      </trkpt>
      <trkpt lat="42.490451" lon="-6.391433">
        <ele>1451</ele>
        <time>2018-07-24T09:13:56.010Z</time>
      </trkpt>
      <trkpt lat="42.49052" lon="-6.391529">
        <ele>1451</ele>
        <time>2018-07-24T09:13:59.990Z</time>
      </trkpt>
      <trkpt lat="42.490598" lon="-6.391624">
        <ele>1451</ele>
        <time>2018-07-24T09:14:03.990Z</time>
      </trkpt>
      <trkpt lat="42.490667" lon="-6.391727">
        <ele>1451</ele>
        <time>2018-07-24T09:14:07.990Z</time>
      </trkpt>
      <trkpt lat="42.490736" lon="-6.391826">
        <ele>1451</ele>
        <time>2018-07-24T09:14:11.960Z</time>
      </trkpt>
      <trkpt lat="42.490811" lon="-6.391924">
        <ele>1451</ele>
        <time>2018-07-24T09:14:16.000Z</time>
      </trkpt>
      <trkpt lat="42.490893" lon="-6.392029">
        <ele>1451</ele>
        <time>2018-07-24T09:14:19.990Z</time>
      </trkpt>
      <trkpt lat="42.490973" lon="-6.392126">
        <ele>1452</ele>
        <time>2018-07-24T09:14:23.990Z</time>
      </trkpt>
      <trkpt lat="42.491047" lon="-6.39222">
        <ele>1452</ele>
        <time>2018-07-24T09:14:27.990Z</time>
      </trkpt>
      <trkpt lat="42.491127" lon="-6.392304">
        <ele>1452</ele>
        <time>2018-07-24T09:14:31.990Z</time>
      </trkpt>
      <trkpt lat="42.491204" lon="-6.392383">
        <ele>1452</ele>
        <time>2018-07-24T09:14:35.100Z</time>
      </trkpt>
      <trkpt lat="42.491268" lon="-6.392471">
        <ele>1452</ele>
        <time>2018-07-24T09:14:37.000Z</time>
      </trkpt>
      <trkpt lat="42.491338" lon="-6.392555">
        <ele>1451.53488256715</ele>
        <time>2018-07-24T09:14:39.000Z</time>
      </trkpt>
      <trkpt lat="42.491409" lon="-6.392664">
        <ele>1451</ele>
        <time>2018-07-24T09:14:41.990Z</time>
      </trkpt>
      <trkpt lat="42.491476" lon="-6.392785">
        <ele>1451</ele>
        <time>2018-07-24T09:14:45.000Z</time>
      </trkpt>
      <trkpt lat="42.49154" lon="-6.392908">
        <ele>1451</ele>
        <time>2018-07-24T09:14:47.990Z</time>
      </trkpt>
      <trkpt lat="42.491606" lon="-6.393032">
        <ele>1451</ele>
        <time>2018-07-24T09:14:50.990Z</time>
      </trkpt>
      <trkpt lat="42.491655" lon="-6.393165">
        <ele>1452</ele>
        <time>2018-07-24T09:14:53.990Z</time>
      </trkpt>
      <trkpt lat="42.491692" lon="-6.393297">
        <ele>1452</ele>
        <time>2018-07-24T09:14:56.990Z</time>
      </trkpt>
      <trkpt lat="42.491693" lon="-6.39343">
        <ele>1452</ele>
        <time>2018-07-24T09:15:00.000Z</time>
      </trkpt>
      <trkpt lat="42.491681" lon="-6.393561">
        <ele>1452.5900032</ele>
        <time>2018-07-24T09:15:02.990Z</time>
      </trkpt>
      <trkpt lat="42.491632" lon="-6.393666">
        <ele>1453</ele>
        <time>2018-07-24T09:15:05.990Z</time>
      </trkpt>
      <trkpt lat="42.491552" lon="-6.393778">
        <ele>1454</ele>
        <time>2018-07-24T09:15:10.000Z</time>
      </trkpt>
      <trkpt lat="42.491479" lon="-6.393877">
        <ele>1455</ele>
        <time>2018-07-24T09:15:13.990Z</time>
      </trkpt>
      <trkpt lat="42.491418" lon="-6.393988">
        <ele>1456</ele>
        <time>2018-07-24T09:15:17.990Z</time>
      </trkpt>
      <trkpt lat="42.491373" lon="-6.394133">
        <ele>1457</ele>
        <time>2018-07-24T09:15:21.990Z</time>
      </trkpt>
      <trkpt lat="42.491359" lon="-6.394255">
        <ele>1458</ele>
        <time>2018-07-24T09:15:25.000Z</time>
      </trkpt>
      <trkpt lat="42.491371" lon="-6.394405">
        <ele>1458</ele>
        <time>2018-07-24T09:15:28.990Z</time>
      </trkpt>
      <trkpt lat="42.491387" lon="-6.394536">
        <ele>1458</ele>
        <time>2018-07-24T09:15:32.990Z</time>
      </trkpt>
      <trkpt lat="42.491395" lon="-6.394676">
        <ele>1458</ele>
        <time>2018-07-24T09:15:36.990Z</time>
      </trkpt>
      <trkpt lat="42.491418" lon="-6.394808">
        <ele>1458</ele>
        <time>2018-07-24T09:15:40.990Z</time>
      </trkpt>
      <trkpt lat="42.491439" lon="-6.394954">
        <ele>1458</ele>
        <time>2018-07-24T09:15:45.000Z</time>
      </trkpt>
      <trkpt lat="42.491462" lon="-6.395079">
        <ele>1458</ele>
        <time>2018-07-24T09:15:48.990Z</time>
      </trkpt>
      <trkpt lat="42.491496" lon="-6.395211">
        <ele>1459</ele>
        <time>2018-07-24T09:15:52.990Z</time>
      </trkpt>
      <trkpt lat="42.49153" lon="-6.395339">
        <ele>1459</ele>
        <time>2018-07-24T09:15:56.990Z</time>
      </trkpt>
      <trkpt lat="42.491567" lon="-6.395477">
        <ele>1459</ele>
        <time>2018-07-24T09:16:00.990Z</time>
      </trkpt>
      <trkpt lat="42.491606" lon="-6.395619">
        <ele>1460</ele>
        <time>2018-07-24T09:16:05.030Z</time>
      </trkpt>
      <trkpt lat="42.491636" lon="-6.395765">
        <ele>1461</ele>
        <time>2018-07-24T09:16:10.000Z</time>
      </trkpt>
      <trkpt lat="42.49168" lon="-6.395905">
        <ele>1461</ele>
        <time>2018-07-24T09:16:13.990Z</time>
      </trkpt>
      <trkpt lat="42.491723" lon="-6.396037">
        <ele>1461</ele>
        <time>2018-07-24T09:16:17.990Z</time>
      </trkpt>
      <trkpt lat="42.491758" lon="-6.396151">
        <ele>1461</ele>
        <time>2018-07-24T09:16:20.990Z</time>
      </trkpt>
      <trkpt lat="42.491795" lon="-6.396267">
        <ele>1461</ele>
        <time>2018-07-24T09:16:23.990Z</time>
      </trkpt>
      <trkpt lat="42.49185" lon="-6.396391">
        <ele>1461</ele>
        <time>2018-07-24T09:16:26.990Z</time>
      </trkpt>
      <trkpt lat="42.491896" lon="-6.396511">
        <ele>1461</ele>
        <time>2018-07-24T09:16:30.000Z</time>
      </trkpt>
      <trkpt lat="42.49194" lon="-6.396621">
        <ele>1461</ele>
        <time>2018-07-24T09:16:32.990Z</time>
      </trkpt>
      <trkpt lat="42.491988" lon="-6.396729">
        <ele>1461</ele>
        <time>2018-07-24T09:16:35.990Z</time>
      </trkpt>
      <trkpt lat="42.492041" lon="-6.396836">
        <ele>1461</ele>
        <time>2018-07-24T09:16:38.960Z</time>
      </trkpt>
      <trkpt lat="42.492101" lon="-6.396948">
        <ele>1461</ele>
        <time>2018-07-24T09:16:41.990Z</time>
      </trkpt>
      <trkpt lat="42.492164" lon="-6.397067">
        <ele>1461</ele>
        <time>2018-07-24T09:16:45.000Z</time>
      </trkpt>
      <trkpt lat="42.492233" lon="-6.397208">
        <ele>1461</ele>
        <time>2018-07-24T09:16:47.990Z</time>
      </trkpt>
      <trkpt lat="42.492298" lon="-6.397361">
        <ele>1461</ele>
        <time>2018-07-24T09:16:50.990Z</time>
      </trkpt>
      <trkpt lat="42.492354" lon="-6.397457">
        <ele>1460.42156911957</ele>
        <time>2018-07-24T09:16:52.990Z</time>
      </trkpt>
      <trkpt lat="42.49241" lon="-6.397553">
        <ele>1460</ele>
        <time>2018-07-24T09:16:55.000Z</time>
      </trkpt>
      <trkpt lat="42.492497" lon="-6.397686">
        <ele>1459</ele>
        <time>2018-07-24T09:16:57.990Z</time>
      </trkpt>
      <trkpt lat="42.492559" lon="-6.397783">
        <ele>1459</ele>
        <time>2018-07-24T09:17:00.000Z</time>
      </trkpt>
      <trkpt lat="42.492609" lon="-6.397897">
        <ele>1459</ele>
        <time>2018-07-24T09:17:02.020Z</time>
      </trkpt>
      <trkpt lat="42.49264" lon="-6.398018">
        <ele>1459</ele>
        <time>2018-07-24T09:17:03.990Z</time>
      </trkpt>
      <trkpt lat="42.492642" lon="-6.398144">
        <ele>1459</ele>
        <time>2018-07-24T09:17:05.990Z</time>
      </trkpt>
      <trkpt lat="42.492611" lon="-6.398262">
        <ele>1459</ele>
        <time>2018-07-24T09:17:07.990Z</time>
      </trkpt>
      <trkpt lat="42.492571" lon="-6.398376">
        <ele>1458</ele>
        <time>2018-07-24T09:17:10.000Z</time>
      </trkpt>
      <trkpt lat="42.49251" lon="-6.39853">
        <ele>1459</ele>
        <time>2018-07-24T09:17:12.990Z</time>
      </trkpt>
      <trkpt lat="42.492432" lon="-6.398686">
        <ele>1459</ele>
        <time>2018-07-24T09:17:15.990Z</time>
      </trkpt>
      <trkpt lat="42.492381" lon="-6.398838">
        <ele>1459</ele>
        <time>2018-07-24T09:17:18.990Z</time>
      </trkpt>
      <trkpt lat="42.492316" lon="-6.398983">
        <ele>1460</ele>
        <time>2018-07-24T09:17:21.960Z</time>
      </trkpt>
      <trkpt lat="42.492284" lon="-6.399108">
        <ele>1460</ele>
        <time>2018-07-24T09:17:23.990Z</time>
      </trkpt>
      <trkpt lat="42.492263" lon="-6.399251">
        <ele>1460.6199936</ele>
        <time>2018-07-24T09:17:26.020Z</time>
      </trkpt>
      <trkpt lat="42.492264" lon="-6.399383">
        <ele>1462</ele>
        <time>2018-07-24T09:17:27.990Z</time>
      </trkpt>
      <trkpt lat="42.492277" lon="-6.399519">
        <ele>1462.6</ele>
        <time>2018-07-24T09:17:30.000Z</time>
      </trkpt>
      <trkpt lat="42.492324" lon="-6.399692">
        <ele>1464.45736795626</ele>
        <time>2018-07-24T09:17:32.990Z</time>
      </trkpt>
      <trkpt lat="42.492347" lon="-6.399822">
        <ele>1465</ele>
        <time>2018-07-24T09:17:35.000Z</time>
      </trkpt>
      <trkpt lat="42.492377" lon="-6.399948">
        <ele>1466</ele>
        <time>2018-07-24T09:17:36.990Z</time>
      </trkpt>
      <trkpt lat="42.492409" lon="-6.400086">
        <ele>1466</ele>
        <time>2018-07-24T09:17:38.990Z</time>
      </trkpt>
      <trkpt lat="42.492453" lon="-6.400224">
        <ele>1466.56</ele>
        <time>2018-07-24T09:17:40.960Z</time>
      </trkpt>
      <trkpt lat="42.492487" lon="-6.400352">
        <ele>1467</ele>
        <time>2018-07-24T09:17:42.990Z</time>
      </trkpt>
      <trkpt lat="42.492521" lon="-6.400466">
        <ele>1467.58823160325</ele>
        <time>2018-07-24T09:17:45.000Z</time>
      </trkpt>
      <trkpt lat="42.492567" lon="-6.400595">
        <ele>1468</ele>
        <time>2018-07-24T09:17:47.990Z</time>
      </trkpt>
      <trkpt lat="42.49259" lon="-6.400714">
        <ele>1469</ele>
        <time>2018-07-24T09:17:50.990Z</time>
      </trkpt>
      <trkpt lat="42.492611" lon="-6.400878">
        <ele>1469</ele>
        <time>2018-07-24T09:17:55.000Z</time>
      </trkpt>
      <trkpt lat="42.492627" lon="-6.401004">
        <ele>1469</ele>
        <time>2018-07-24T09:17:57.990Z</time>
      </trkpt>
      <trkpt lat="42.492652" lon="-6.401147">
        <ele>1468</ele>
        <time>2018-07-24T09:18:00.990Z</time>
      </trkpt>
      <trkpt lat="42.49267" lon="-6.40132">
        <ele>1467.4099968</ele>
        <time>2018-07-24T09:18:03.990Z</time>
      </trkpt>
      <trkpt lat="42.492683" lon="-6.401448">
        <ele>1467</ele>
        <time>2018-07-24T09:18:05.990Z</time>
      </trkpt>
      <trkpt lat="42.492706" lon="-6.40157">
        <ele>1466.4099968</ele>
        <time>2018-07-24T09:18:07.990Z</time>
      </trkpt>
      <trkpt lat="42.492729" lon="-6.401717">
        <ele>1465.54198585164</ele>
        <time>2018-07-24T09:18:10.000Z</time>
      </trkpt>
      <trkpt lat="42.492756" lon="-6.401878">
        <ele>1465</ele>
        <time>2018-07-24T09:18:12.020Z</time>
      </trkpt>
      <trkpt lat="42.492788" lon="-6.40204">
        <ele>1465</ele>
        <time>2018-07-24T09:18:13.990Z</time>
      </trkpt>
      <trkpt lat="42.492812" lon="-6.402206">
        <ele>1464.54263204374</ele>
        <time>2018-07-24T09:18:15.990Z</time>
      </trkpt>
      <trkpt lat="42.492828" lon="-6.402379">
        <ele>1463</ele>
        <time>2018-07-24T09:18:18.020Z</time>
      </trkpt>
      <trkpt lat="42.492831" lon="-6.402544">
        <ele>1462</ele>
        <time>2018-07-24T09:18:20.000Z</time>
      </trkpt>
      <trkpt lat="42.492819" lon="-6.402716">
        <ele>1462.5900032</ele>
        <time>2018-07-24T09:18:21.990Z</time>
      </trkpt>
      <trkpt lat="42.492804" lon="-6.402877">
        <ele>1462.4099968</ele>
        <time>2018-07-24T09:18:23.990Z</time>
      </trkpt>
      <trkpt lat="42.492788" lon="-6.403031">
        <ele>1462</ele>
        <time>2018-07-24T09:18:25.990Z</time>
      </trkpt>
      <trkpt lat="42.492765" lon="-6.403181">
        <ele>1462</ele>
        <time>2018-07-24T09:18:28.020Z</time>
      </trkpt>
      <trkpt lat="42.492742" lon="-6.403313">
        <ele>1462</ele>
        <time>2018-07-24T09:18:30.000Z</time>
      </trkpt>
      <trkpt lat="42.492717" lon="-6.403453">
        <ele>1462.5900032</ele>
        <time>2018-07-24T09:18:31.990Z</time>
      </trkpt>
      <trkpt lat="42.4927" lon="-6.403584">
        <ele>1463</ele>
        <time>2018-07-24T09:18:33.990Z</time>
      </trkpt>
      <trkpt lat="42.492668" lon="-6.403711">
        <ele>1463</ele>
        <time>2018-07-24T09:18:35.990Z</time>
      </trkpt>
      <trkpt lat="42.492645" lon="-6.403877">
        <ele>1463</ele>
        <time>2018-07-24T09:18:38.960Z</time>
      </trkpt>
      <trkpt lat="42.492609" lon="-6.404037">
        <ele>1463</ele>
        <time>2018-07-24T09:18:41.990Z</time>
      </trkpt>
      <trkpt lat="42.492592" lon="-6.404163">
        <ele>1463</ele>
        <time>2018-07-24T09:18:45.100Z</time>
      </trkpt>
      <trkpt lat="42.492554" lon="-6.404293">
        <ele>1463</ele>
        <time>2018-07-24T09:18:48.000Z</time>
      </trkpt>
      <trkpt lat="42.492538" lon="-6.404419">
        <ele>1464</ele>
        <time>2018-07-24T09:18:52.990Z</time>
      </trkpt>
      <trkpt lat="42.492532" lon="-6.404557">
        <ele>1465</ele>
        <time>2018-07-24T09:18:59.000Z</time>
      </trkpt>
      <trkpt lat="42.492513" lon="-6.404691">
        <ele>1465</ele>
        <time>2018-07-24T09:19:01.990Z</time>
      </trkpt>
      <trkpt lat="42.492478" lon="-6.404806">
        <ele>1465</ele>
        <time>2018-07-24T09:19:04.990Z</time>
      </trkpt>
      <trkpt lat="42.49246" lon="-6.404958">
        <ele>1465</ele>
        <time>2018-07-24T09:19:09.000Z</time>
      </trkpt>
      <trkpt lat="42.49241" lon="-6.405098">
        <ele>1465.45736795626</ele>
        <time>2018-07-24T09:19:12.990Z</time>
      </trkpt>
      <trkpt lat="42.492364" lon="-6.40521">
        <ele>1466</ele>
        <time>2018-07-24T09:19:15.960Z</time>
      </trkpt>
      <trkpt lat="42.492304" lon="-6.405302">
        <ele>1466.58823160325</ele>
        <time>2018-07-24T09:19:19.000Z</time>
      </trkpt>
      <trkpt lat="42.492212" lon="-6.405426">
        <ele>1468</ele>
        <time>2018-07-24T09:19:21.990Z</time>
      </trkpt>
      <trkpt lat="42.492113" lon="-6.405498">
        <ele>1468</ele>
        <time>2018-07-24T09:19:24.990Z</time>
      </trkpt>
      <trkpt lat="42.492006" lon="-6.405554">
        <ele>1468</ele>
        <time>2018-07-24T09:19:27.990Z</time>
      </trkpt>
      <trkpt lat="42.491909" lon="-6.405598">
        <ele>1468</ele>
        <time>2018-07-24T09:19:30.990Z</time>
      </trkpt>
      <trkpt lat="42.491793" lon="-6.405638">
        <ele>1468</ele>
        <time>2018-07-24T09:19:34.960Z</time>
      </trkpt>
      <trkpt lat="42.491686" lon="-6.405673">
        <ele>1468</ele>
        <time>2018-07-24T09:19:37.990Z</time>
      </trkpt>
      <trkpt lat="42.491579" lon="-6.405702">
        <ele>1468</ele>
        <time>2018-07-24T09:19:40.960Z</time>
      </trkpt>
      <trkpt lat="42.491486" lon="-6.405736">
        <ele>1468</ele>
        <time>2018-07-24T09:19:44.000Z</time>
      </trkpt>
      <trkpt lat="42.491375" lon="-6.405768">
        <ele>1469</ele>
        <time>2018-07-24T09:19:47.990Z</time>
      </trkpt>
      <trkpt lat="42.491269" lon="-6.405808">
        <ele>1469</ele>
        <time>2018-07-24T09:19:51.990Z</time>
      </trkpt>
      <trkpt lat="42.49117" lon="-6.405826">
        <ele>1469.45736795626</ele>
        <time>2018-07-24T09:19:54.990Z</time>
      </trkpt>
      <trkpt lat="42.491072" lon="-6.40585">
        <ele>1471</ele>
        <time>2018-07-24T09:19:57.990Z</time>
      </trkpt>
      <trkpt lat="42.490965" lon="-6.405886">
        <ele>1471</ele>
        <time>2018-07-24T09:20:00.990Z</time>
      </trkpt>
      <trkpt lat="42.490879" lon="-6.405929">
        <ele>1472</ele>
        <time>2018-07-24T09:20:04.000Z</time>
      </trkpt>
      <trkpt lat="42.490779" lon="-6.405991">
        <ele>1473</ele>
        <time>2018-07-24T09:20:07.990Z</time>
      </trkpt>
      <trkpt lat="42.490689" lon="-6.406065">
        <ele>1474</ele>
        <time>2018-07-24T09:20:12.020Z</time>
      </trkpt>
      <trkpt lat="42.490601" lon="-6.406141">
        <ele>1475</ele>
        <time>2018-07-24T09:20:16.990Z</time>
      </trkpt>
      <trkpt lat="42.490501" lon="-6.406201">
        <ele>1476</ele>
        <time>2018-07-24T09:20:22.990Z</time>
      </trkpt>
      <trkpt lat="42.490396" lon="-6.406232">
        <ele>1477</ele>
        <time>2018-07-24T09:20:29.000Z</time>
      </trkpt>
      <trkpt lat="42.490291" lon="-6.406258">
        <ele>1477.58416343497</ele>
        <time>2018-07-24T09:20:34.990Z</time>
      </trkpt>
      <trkpt lat="42.490202" lon="-6.406286">
        <ele>1478</ele>
        <time>2018-07-24T09:20:40.000Z</time>
      </trkpt>
      <trkpt lat="42.490107" lon="-6.406323">
        <ele>1479</ele>
        <time>2018-07-24T09:20:46.000Z</time>
      </trkpt>
      <trkpt lat="42.490012" lon="-6.406347">
        <ele>1480.6</ele>
        <time>2018-07-24T09:20:52.000Z</time>
      </trkpt>
      <trkpt lat="42.48992" lon="-6.406389">
        <ele>1482</ele>
        <time>2018-07-24T09:20:59.000Z</time>
      </trkpt>
      <trkpt lat="42.489829" lon="-6.406446">
        <ele>1484</ele>
        <time>2018-07-24T09:21:07.000Z</time>
      </trkpt>
      <trkpt lat="42.489743" lon="-6.406512">
        <ele>1485.46511743285</ele>
        <time>2018-07-24T09:21:15.000Z</time>
      </trkpt>
      <trkpt lat="42.489659" lon="-6.406575">
        <ele>1487</ele>
        <time>2018-07-24T09:21:23.000Z</time>
      </trkpt>
      <trkpt lat="42.489572" lon="-6.40664">
        <ele>1488.6</ele>
        <time>2018-07-24T09:21:32.000Z</time>
      </trkpt>
      <trkpt lat="42.489501" lon="-6.406731">
        <ele>1490</ele>
        <time>2018-07-24T09:21:39.000Z</time>
      </trkpt>
      <trkpt lat="42.489469" lon="-6.40686">
        <ele>1491.43056</ele>
        <time>2018-07-24T09:21:45.990Z</time>
      </trkpt>
      <trkpt lat="42.489478" lon="-6.407001">
        <ele>1492</ele>
        <time>2018-07-24T09:21:51.990Z</time>
      </trkpt>
      <trkpt lat="42.489516" lon="-6.407136">
        <ele>1493</ele>
        <time>2018-07-24T09:21:57.990Z</time>
      </trkpt>
      <trkpt lat="42.489558" lon="-6.407263">
        <ele>1493</ele>
        <time>2018-07-24T09:22:02.990Z</time>
      </trkpt>
      <trkpt lat="42.489618" lon="-6.407375">
        <ele>1493</ele>
        <time>2018-07-24T09:22:06.960Z</time>
      </trkpt>
      <trkpt lat="42.489659" lon="-6.407498">
        <ele>1493</ele>
        <time>2018-07-24T09:22:10.990Z</time>
      </trkpt>
      <trkpt lat="42.48971" lon="-6.407639">
        <ele>1494</ele>
        <time>2018-07-24T09:22:14.990Z</time>
      </trkpt>
      <trkpt lat="42.489754" lon="-6.407772">
        <ele>1494</ele>
        <time>2018-07-24T09:22:19.000Z</time>
      </trkpt>
      <trkpt lat="42.4898" lon="-6.407882">
        <ele>1494</ele>
        <time>2018-07-24T09:22:22.990Z</time>
      </trkpt>
      <trkpt lat="42.48982" lon="-6.408027">
        <ele>1495</ele>
        <time>2018-07-24T09:22:36.990Z</time>
      </trkpt>
      <trkpt lat="42.489858" lon="-6.408148">
        <ele>1494</ele>
        <time>2018-07-24T09:22:39.990Z</time>
      </trkpt>
      <trkpt lat="42.489906" lon="-6.408265">
        <ele>1494</ele>
        <time>2018-07-24T09:22:42.960Z</time>
      </trkpt>
      <trkpt lat="42.489944" lon="-6.408399">
        <ele>1493</ele>
        <time>2018-07-24T09:22:45.990Z</time>
      </trkpt>
      <trkpt lat="42.489984" lon="-6.408518">
        <ele>1493</ele>
        <time>2018-07-24T09:22:49.000Z</time>
      </trkpt>
      <trkpt lat="42.490026" lon="-6.408669">
        <ele>1493.5900032</ele>
        <time>2018-07-24T09:22:52.990Z</time>
      </trkpt>
      <trkpt lat="42.490074" lon="-6.408808">
        <ele>1493</ele>
        <time>2018-07-24T09:22:56.990Z</time>
      </trkpt>
      <trkpt lat="42.490118" lon="-6.408952">
        <ele>1493</ele>
        <time>2018-07-24T09:23:00.990Z</time>
      </trkpt>
      <trkpt lat="42.490153" lon="-6.409064">
        <ele>1493</ele>
        <time>2018-07-24T09:23:03.970Z</time>
      </trkpt>
      <trkpt lat="42.490174" lon="-6.409185">
        <ele>1493</ele>
        <time>2018-07-24T09:23:06.990Z</time>
      </trkpt>
      <trkpt lat="42.49021" lon="-6.409301">
        <ele>1493</ele>
        <time>2018-07-24T09:23:09.990Z</time>
      </trkpt>
      <trkpt lat="42.490244" lon="-6.409429">
        <ele>1493</ele>
        <time>2018-07-24T09:23:12.990Z</time>
      </trkpt>
      <trkpt lat="42.490287" lon="-6.40956">
        <ele>1493</ele>
        <time>2018-07-24T09:23:15.990Z</time>
      </trkpt>
      <trkpt lat="42.490324" lon="-6.409691">
        <ele>1493</ele>
        <time>2018-07-24T09:23:19.000Z</time>
      </trkpt>
      <trkpt lat="42.490348" lon="-6.409819">
        <ele>1493</ele>
        <time>2018-07-24T09:23:22.020Z</time>
      </trkpt>
      <trkpt lat="42.490378" lon="-6.409946">
        <ele>1493</ele>
        <time>2018-07-24T09:23:24.990Z</time>
      </trkpt>
      <trkpt lat="42.490404" lon="-6.410082">
        <ele>1493</ele>
        <time>2018-07-24T09:23:27.990Z</time>
      </trkpt>
      <trkpt lat="42.490432" lon="-6.41021">
        <ele>1493</ele>
        <time>2018-07-24T09:23:30.990Z</time>
      </trkpt>
      <trkpt lat="42.490452" lon="-6.410356">
        <ele>1494</ele>
        <time>2018-07-24T09:23:34.000Z</time>
      </trkpt>
      <trkpt lat="42.490467" lon="-6.410508">
        <ele>1494</ele>
        <time>2018-07-24T09:23:36.990Z</time>
      </trkpt>
      <trkpt lat="42.49047" lon="-6.410681">
        <ele>1493</ele>
        <time>2018-07-24T09:23:39.990Z</time>
      </trkpt>
      <trkpt lat="42.490471" lon="-6.410811">
        <ele>1492.61971551678</ele>
        <time>2018-07-24T09:23:41.960Z</time>
      </trkpt>
      <trkpt lat="42.490459" lon="-6.410946">
        <ele>1491.4</ele>
        <time>2018-07-24T09:23:44.000Z</time>
      </trkpt>
      <trkpt lat="42.490435" lon="-6.41109">
        <ele>1491</ele>
        <time>2018-07-24T09:23:45.990Z</time>
      </trkpt>
      <trkpt lat="42.490399" lon="-6.411242">
        <ele>1491</ele>
        <time>2018-07-24T09:23:47.990Z</time>
      </trkpt>
      <trkpt lat="42.490356" lon="-6.411381">
        <ele>1491</ele>
        <time>2018-07-24T09:23:49.990Z</time>
      </trkpt>
      <trkpt lat="42.490312" lon="-6.411517">
        <ele>1490</ele>
        <time>2018-07-24T09:23:52.020Z</time>
      </trkpt>
      <trkpt lat="42.490267" lon="-6.411645">
        <ele>1490</ele>
        <time>2018-07-24T09:23:54.000Z</time>
      </trkpt>
      <trkpt lat="42.49023" lon="-6.411764">
        <ele>1490</ele>
        <time>2018-07-24T09:23:55.990Z</time>
      </trkpt>
      <trkpt lat="42.490203" lon="-6.411881">
        <ele>1490</ele>
        <time>2018-07-24T09:23:57.990Z</time>
      </trkpt>
      <trkpt lat="42.490149" lon="-6.412041">
        <ele>1491</ele>
        <time>2018-07-24T09:24:00.960Z</time>
      </trkpt>
      <trkpt lat="42.49009" lon="-6.412162">
        <ele>1491</ele>
        <time>2018-07-24T09:24:02.990Z</time>
      </trkpt>
      <trkpt lat="42.490017" lon="-6.412302">
        <ele>1491</ele>
        <time>2018-07-24T09:24:05.990Z</time>
      </trkpt>
      <trkpt lat="42.489954" lon="-6.412399">
        <ele>1492</ele>
        <time>2018-07-24T09:24:07.990Z</time>
      </trkpt>
      <trkpt lat="42.489858" lon="-6.412511">
        <ele>1492</ele>
        <time>2018-07-24T09:24:10.990Z</time>
      </trkpt>
      <trkpt lat="42.489776" lon="-6.412603">
        <ele>1493</ele>
        <time>2018-07-24T09:24:14.000Z</time>
      </trkpt>
      <trkpt lat="42.489702" lon="-6.412706">
        <ele>1493</ele>
        <time>2018-07-24T09:24:16.960Z</time>
      </trkpt>
      <trkpt lat="42.489622" lon="-6.412813">
        <ele>1494</ele>
        <time>2018-07-24T09:24:19.960Z</time>
      </trkpt>
      <trkpt lat="42.489572" lon="-6.412926">
        <ele>1495</ele>
        <time>2018-07-24T09:24:22.990Z</time>
      </trkpt>
      <trkpt lat="42.48954" lon="-6.413056">
        <ele>1495</ele>
        <time>2018-07-24T09:24:25.990Z</time>
      </trkpt>
      <trkpt lat="42.489526" lon="-6.413194">
        <ele>1496</ele>
        <time>2018-07-24T09:24:29.000Z</time>
      </trkpt>
      <trkpt lat="42.489496" lon="-6.413345">
        <ele>1496</ele>
        <time>2018-07-24T09:24:31.990Z</time>
      </trkpt>
      <trkpt lat="42.489476" lon="-6.413499">
        <ele>1496.5900032</ele>
        <time>2018-07-24T09:24:34.990Z</time>
      </trkpt>
      <trkpt lat="42.489466" lon="-6.413653">
        <ele>1497</ele>
        <time>2018-07-24T09:24:38.020Z</time>
      </trkpt>
      <trkpt lat="42.489476" lon="-6.413807">
        <ele>1498</ele>
        <time>2018-07-24T09:24:40.990Z</time>
      </trkpt>
      <trkpt lat="42.489476" lon="-6.413972">
        <ele>1498</ele>
        <time>2018-07-24T09:24:44.000Z</time>
      </trkpt>
      <trkpt lat="42.489479" lon="-6.414133">
        <ele>1498</ele>
        <time>2018-07-24T09:24:46.990Z</time>
      </trkpt>
      <trkpt lat="42.489481" lon="-6.414288">
        <ele>1498</ele>
        <time>2018-07-24T09:24:49.990Z</time>
      </trkpt>
      <trkpt lat="42.489484" lon="-6.414437">
        <ele>1499</ele>
        <time>2018-07-24T09:24:52.990Z</time>
      </trkpt>
      <trkpt lat="42.489481" lon="-6.414566">
        <ele>1499</ele>
        <time>2018-07-24T09:24:55.990Z</time>
      </trkpt>
      <trkpt lat="42.489478" lon="-6.414719">
        <ele>1500</ele>
        <time>2018-07-24T09:24:59.990Z</time>
      </trkpt>
      <trkpt lat="42.489482" lon="-6.414868">
        <ele>1500</ele>
        <time>2018-07-24T09:25:04.000Z</time>
      </trkpt>
      <trkpt lat="42.489476" lon="-6.415006">
        <ele>1500</ele>
        <time>2018-07-24T09:25:06.990Z</time>
      </trkpt>
      <trkpt lat="42.489464" lon="-6.415144">
        <ele>1499</ele>
        <time>2018-07-24T09:25:09.990Z</time>
      </trkpt>
      <trkpt lat="42.48946" lon="-6.415272">
        <ele>1499</ele>
        <time>2018-07-24T09:25:12.990Z</time>
      </trkpt>
      <trkpt lat="42.489458" lon="-6.415399">
        <ele>1499</ele>
        <time>2018-07-24T09:25:16.020Z</time>
      </trkpt>
      <trkpt lat="42.489444" lon="-6.415551">
        <ele>1499</ele>
        <time>2018-07-24T09:25:19.990Z</time>
      </trkpt>
      <trkpt lat="42.48944" lon="-6.415681">
        <ele>1499</ele>
        <time>2018-07-24T09:25:22.990Z</time>
      </trkpt>
      <trkpt lat="42.489442" lon="-6.41582">
        <ele>1499</ele>
        <time>2018-07-24T09:25:25.990Z</time>
      </trkpt>
      <trkpt lat="42.489446" lon="-6.415961">
        <ele>1498.40403909806</ele>
        <time>2018-07-24T09:25:29.000Z</time>
      </trkpt>
      <trkpt lat="42.489444" lon="-6.416108">
        <ele>1498</ele>
        <time>2018-07-24T09:25:31.990Z</time>
      </trkpt>
      <trkpt lat="42.489452" lon="-6.416244">
        <ele>1498</ele>
        <time>2018-07-24T09:25:35.020Z</time>
      </trkpt>
      <trkpt lat="42.489446" lon="-6.416397">
        <ele>1498</ele>
        <time>2018-07-24T09:25:37.990Z</time>
      </trkpt>
      <trkpt lat="42.489442" lon="-6.41655">
        <ele>1498</ele>
        <time>2018-07-24T09:25:40.990Z</time>
      </trkpt>
      <trkpt lat="42.489448" lon="-6.41669">
        <ele>1497.40816593088</ele>
        <time>2018-07-24T09:25:44.000Z</time>
      </trkpt>
      <trkpt lat="42.489448" lon="-6.416833">
        <ele>1498</ele>
        <time>2018-07-24T09:25:47.990Z</time>
      </trkpt>
      <trkpt lat="42.489456" lon="-6.416971">
        <ele>1498</ele>
        <time>2018-07-24T09:25:50.990Z</time>
      </trkpt>
      <trkpt lat="42.489472" lon="-6.417104">
        <ele>1498</ele>
        <time>2018-07-24T09:25:54.030Z</time>
      </trkpt>
      <trkpt lat="42.48947" lon="-6.417251">
        <ele>1499</ele>
        <time>2018-07-24T09:25:57.990Z</time>
      </trkpt>
      <trkpt lat="42.489474" lon="-6.417379">
        <ele>1499</ele>
        <time>2018-07-24T09:26:00.990Z</time>
      </trkpt>
      <trkpt lat="42.489473" lon="-6.417532">
        <ele>1499</ele>
        <time>2018-07-24T09:26:04.990Z</time>
      </trkpt>
      <trkpt lat="42.489454" lon="-6.417679">
        <ele>1498.4099968</ele>
        <time>2018-07-24T09:26:07.990Z</time>
      </trkpt>
      <trkpt lat="42.489433" lon="-6.417807">
        <ele>1499</ele>
        <time>2018-07-24T09:26:10.990Z</time>
      </trkpt>
      <trkpt lat="42.489411" lon="-6.417969">
        <ele>1499.5900032</ele>
        <time>2018-07-24T09:26:14.990Z</time>
      </trkpt>
      <trkpt lat="42.48937" lon="-6.418087">
        <ele>1500</ele>
        <time>2018-07-24T09:26:17.990Z</time>
      </trkpt>
      <trkpt lat="42.489312" lon="-6.418198">
        <ele>1500</ele>
        <time>2018-07-24T09:26:20.990Z</time>
      </trkpt>
      <trkpt lat="42.489241" lon="-6.41832">
        <ele>1500</ele>
        <time>2018-07-24T09:26:24.990Z</time>
      </trkpt>
      <trkpt lat="42.48914" lon="-6.418407">
        <ele>1501</ele>
        <time>2018-07-24T09:26:29.000Z</time>
      </trkpt>
      <trkpt lat="42.489041" lon="-6.418476">
        <ele>1501</ele>
        <time>2018-07-24T09:26:32.960Z</time>
      </trkpt>
      <trkpt lat="42.488952" lon="-6.418549">
        <ele>1502</ele>
        <time>2018-07-24T09:26:35.990Z</time>
      </trkpt>
      <trkpt lat="42.488869" lon="-6.41861">
        <ele>1502</ele>
        <time>2018-07-24T09:26:39.000Z</time>
      </trkpt>
      <trkpt lat="42.488774" lon="-6.41869">
        <ele>1502</ele>
        <time>2018-07-24T09:26:41.990Z</time>
      </trkpt>
      <trkpt lat="42.488696" lon="-6.418791">
        <ele>1502</ele>
        <time>2018-07-24T09:26:44.990Z</time>
      </trkpt>
      <trkpt lat="42.488609" lon="-6.4189">
        <ele>1502</ele>
        <time>2018-07-24T09:26:47.990Z</time>
      </trkpt>
      <trkpt lat="42.488528" lon="-6.418999">
        <ele>1503</ele>
        <time>2018-07-24T09:26:51.020Z</time>
      </trkpt>
      <trkpt lat="42.488447" lon="-6.419108">
        <ele>1502</ele>
        <time>2018-07-24T09:26:54.000Z</time>
      </trkpt>
      <trkpt lat="42.488359" lon="-6.419223">
        <ele>1502</ele>
        <time>2018-07-24T09:26:56.990Z</time>
      </trkpt>
      <trkpt lat="42.48828" lon="-6.419326">
        <ele>1502</ele>
        <time>2018-07-24T09:26:59.990Z</time>
      </trkpt>
      <trkpt lat="42.488223" lon="-6.419441">
        <ele>1502</ele>
        <time>2018-07-24T09:27:02.990Z</time>
      </trkpt>
      <trkpt lat="42.488167" lon="-6.419561">
        <ele>1503</ele>
        <time>2018-07-24T09:27:05.990Z</time>
      </trkpt>
      <trkpt lat="42.488125" lon="-6.419678">
        <ele>1503</ele>
        <time>2018-07-24T09:27:09.000Z</time>
      </trkpt>
      <trkpt lat="42.488085" lon="-6.419802">
        <ele>1503</ele>
        <time>2018-07-24T09:27:11.960Z</time>
      </trkpt>
      <trkpt lat="42.48804" lon="-6.419942">
        <ele>1503</ele>
        <time>2018-07-24T09:27:14.990Z</time>
      </trkpt>
      <trkpt lat="42.488013" lon="-6.420085">
        <ele>1503</ele>
        <time>2018-07-24T09:27:17.990Z</time>
      </trkpt>
      <trkpt lat="42.48799" lon="-6.420231">
        <ele>1503</ele>
        <time>2018-07-24T09:27:20.990Z</time>
      </trkpt>
      <trkpt lat="42.488003" lon="-6.420394">
        <ele>1502</ele>
        <time>2018-07-24T09:27:24.000Z</time>
      </trkpt>
      <trkpt lat="42.488028" lon="-6.42055">
        <ele>1502</ele>
        <time>2018-07-24T09:27:26.990Z</time>
      </trkpt>
      <trkpt lat="42.488062" lon="-6.420704">
        <ele>1502</ele>
        <time>2018-07-24T09:27:29.960Z</time>
      </trkpt>
      <trkpt lat="42.488105" lon="-6.42086">
        <ele>1502</ele>
        <time>2018-07-24T09:27:32.990Z</time>
      </trkpt>
      <trkpt lat="42.488152" lon="-6.421031">
        <ele>1501</ele>
        <time>2018-07-24T09:27:35.990Z</time>
      </trkpt>
      <trkpt lat="42.488189" lon="-6.421161">
        <ele>1501</ele>
        <time>2018-07-24T09:27:37.990Z</time>
      </trkpt>
      <trkpt lat="42.488234" lon="-6.421299">
        <ele>1501</ele>
        <time>2018-07-24T09:27:39.990Z</time>
      </trkpt>
      <trkpt lat="42.488285" lon="-6.42145">
        <ele>1499.4099968</ele>
        <time>2018-07-24T09:27:41.990Z</time>
      </trkpt>
      <trkpt lat="42.488347" lon="-6.421613">
        <ele>1499</ele>
        <time>2018-07-24T09:27:44.000Z</time>
      </trkpt>
      <trkpt lat="42.488407" lon="-6.421774">
        <ele>1497.51938361397</ele>
        <time>2018-07-24T09:27:46.020Z</time>
      </trkpt>
      <trkpt lat="42.488464" lon="-6.421935">
        <ele>1496</ele>
        <time>2018-07-24T09:27:47.990Z</time>
      </trkpt>
      <trkpt lat="42.48853" lon="-6.422106">
        <ele>1495</ele>
        <time>2018-07-24T09:27:49.990Z</time>
      </trkpt>
      <trkpt lat="42.488597" lon="-6.422289">
        <ele>1495</ele>
        <time>2018-07-24T09:27:51.990Z</time>
      </trkpt>
      <trkpt lat="42.488671" lon="-6.422472">
        <ele>1494</ele>
        <time>2018-07-24T09:27:54.000Z</time>
      </trkpt>
      <trkpt lat="42.488742" lon="-6.42266">
        <ele>1492.4099968</ele>
        <time>2018-07-24T09:27:55.990Z</time>
      </trkpt>
      <trkpt lat="42.488805" lon="-6.422852">
        <ele>1491.54961697803</ele>
        <time>2018-07-24T09:27:57.990Z</time>
      </trkpt>
      <trkpt lat="42.488848" lon="-6.423059">
        <ele>1491</ele>
        <time>2018-07-24T09:27:59.990Z</time>
      </trkpt>
      <trkpt lat="42.488865" lon="-6.423269">
        <ele>1490</ele>
        <time>2018-07-24T09:28:01.990Z</time>
      </trkpt>
      <trkpt lat="42.488859" lon="-6.423496">
        <ele>1489</ele>
        <time>2018-07-24T09:28:04.000Z</time>
      </trkpt>
      <trkpt lat="42.488825" lon="-6.423712">
        <ele>1488.56944</ele>
        <time>2018-07-24T09:28:05.990Z</time>
      </trkpt>
      <trkpt lat="42.488787" lon="-6.42392">
        <ele>1486.44</ele>
        <time>2018-07-24T09:28:07.960Z</time>
      </trkpt>
      <trkpt lat="42.488778" lon="-6.42413">
        <ele>1485</ele>
        <time>2018-07-24T09:28:09.990Z</time>
      </trkpt>
      <trkpt lat="42.488792" lon="-6.424314">
        <ele>1485</ele>
        <time>2018-07-24T09:28:11.990Z</time>
      </trkpt>
      <trkpt lat="42.488826" lon="-6.424487">
        <ele>1485</ele>
        <time>2018-07-24T09:28:14.000Z</time>
      </trkpt>
      <trkpt lat="42.488871" lon="-6.424648">
        <ele>1485</ele>
        <time>2018-07-24T09:28:15.990Z</time>
      </trkpt>
      <trkpt lat="42.488922" lon="-6.424815">
        <ele>1485</ele>
        <time>2018-07-24T09:28:17.990Z</time>
      </trkpt>
      <trkpt lat="42.488971" lon="-6.424978">
        <ele>1484.4099968</ele>
        <time>2018-07-24T09:28:19.990Z</time>
      </trkpt>
      <trkpt lat="42.489021" lon="-6.425135">
        <ele>1484</ele>
        <time>2018-07-24T09:28:21.990Z</time>
      </trkpt>
      <trkpt lat="42.489077" lon="-6.425305">
        <ele>1482.53125</ele>
        <time>2018-07-24T09:28:24.000Z</time>
      </trkpt>
      <trkpt lat="42.489137" lon="-6.425485">
        <ele>1482</ele>
        <time>2018-07-24T09:28:26.020Z</time>
      </trkpt>
      <trkpt lat="42.48919" lon="-6.425677">
        <ele>1480.42718313885</ele>
        <time>2018-07-24T09:28:27.990Z</time>
      </trkpt>
      <trkpt lat="42.489245" lon="-6.425868">
        <ele>1478.4099968</ele>
        <time>2018-07-24T09:28:29.990Z</time>
      </trkpt>
      <trkpt lat="42.489293" lon="-6.426048">
        <ele>1477.54961697803</ele>
        <time>2018-07-24T09:28:31.990Z</time>
      </trkpt>
      <trkpt lat="42.48934" lon="-6.426192">
        <ele>1476.4</ele>
        <time>2018-07-24T09:28:34.000Z</time>
      </trkpt>
      <trkpt lat="42.489376" lon="-6.426342">
        <ele>1475</ele>
        <time>2018-07-24T09:28:36.990Z</time>
      </trkpt>
      <trkpt lat="42.489415" lon="-6.426457">
        <ele>1473.41413684319</ele>
        <time>2018-07-24T09:28:39.990Z</time>
      </trkpt>
      <trkpt lat="42.489449" lon="-6.426611">
        <ele>1472</ele>
        <time>2018-07-24T09:28:42.990Z</time>
      </trkpt>
      <trkpt lat="42.489491" lon="-6.426741">
        <ele>1470.03874738294</ele>
        <time>2018-07-24T09:28:45.020Z</time>
      </trkpt>
      <trkpt lat="42.489539" lon="-6.426874">
        <ele>1467.41583656503</ele>
        <time>2018-07-24T09:28:46.990Z</time>
      </trkpt>
      <trkpt lat="42.489594" lon="-6.426991">
        <ele>1465.4</ele>
        <time>2018-07-24T09:28:49.000Z</time>
      </trkpt>
      <trkpt lat="42.489654" lon="-6.427097">
        <ele>1464</ele>
        <time>2018-07-24T09:28:50.990Z</time>
      </trkpt>
      <trkpt lat="42.489723" lon="-6.427187">
        <ele>1462.4099968</ele>
        <time>2018-07-24T09:28:52.990Z</time>
      </trkpt>
      <trkpt lat="42.489793" lon="-6.427266">
        <ele>1460.55117467421</ele>
        <time>2018-07-24T09:28:54.990Z</time>
      </trkpt>
      <trkpt lat="42.48986" lon="-6.427356">
        <ele>1459</ele>
        <time>2018-07-24T09:28:56.990Z</time>
      </trkpt>
      <trkpt lat="42.48993" lon="-6.427452">
        <ele>1457.4</ele>
        <time>2018-07-24T09:28:59.000Z</time>
      </trkpt>
      <trkpt lat="42.490003" lon="-6.42754">
        <ele>1454.8199936</ele>
        <time>2018-07-24T09:29:00.990Z</time>
      </trkpt>
      <trkpt lat="42.490088" lon="-6.427638">
        <ele>1453.57745767906</ele>
        <time>2018-07-24T09:29:02.990Z</time>
      </trkpt>
      <trkpt lat="42.490177" lon="-6.427746">
        <ele>1451.5725201282</ele>
        <time>2018-07-24T09:29:04.960Z</time>
      </trkpt>
      <trkpt lat="42.490275" lon="-6.427867">
        <ele>1449.4099968</ele>
        <time>2018-07-24T09:29:06.990Z</time>
      </trkpt>
      <trkpt lat="42.490371" lon="-6.427986">
        <ele>1448</ele>
        <time>2018-07-24T09:29:09.000Z</time>
      </trkpt>
      <trkpt lat="42.490463" lon="-6.428101">
        <ele>1446.4099968</ele>
        <time>2018-07-24T09:29:10.990Z</time>
      </trkpt>
      <trkpt lat="42.490556" lon="-6.428209">
        <ele>1445.55813538132</ele>
        <time>2018-07-24T09:29:12.990Z</time>
      </trkpt>
      <trkpt lat="42.49066" lon="-6.42833">
        <ele>1443.4099968</ele>
        <time>2018-07-24T09:29:14.990Z</time>
      </trkpt>
      <trkpt lat="42.490767" lon="-6.428458">
        <ele>1441.4099968</ele>
        <time>2018-07-24T09:29:16.990Z</time>
      </trkpt>
      <trkpt lat="42.490864" lon="-6.428586">
        <ele>1439.54198585164</ele>
        <time>2018-07-24T09:29:19.000Z</time>
      </trkpt>
      <trkpt lat="42.490928" lon="-6.428735">
        <ele>1437.54263204374</ele>
        <time>2018-07-24T09:29:20.990Z</time>
      </trkpt>
      <trkpt lat="42.490987" lon="-6.42891">
        <ele>1436.3799936</ele>
        <time>2018-07-24T09:29:23.020Z</time>
      </trkpt>
      <trkpt lat="42.491042" lon="-6.429111">
        <ele>1434.4099968</ele>
        <time>2018-07-24T09:29:24.990Z</time>
      </trkpt>
      <trkpt lat="42.491102" lon="-6.42933">
        <ele>1433</ele>
        <time>2018-07-24T09:29:26.990Z</time>
      </trkpt>
      <trkpt lat="42.491159" lon="-6.429547">
        <ele>1430.8</ele>
        <time>2018-07-24T09:29:29.000Z</time>
      </trkpt>
      <trkpt lat="42.491215" lon="-6.429773">
        <ele>1428.4099968</ele>
        <time>2018-07-24T09:29:30.990Z</time>
      </trkpt>
      <trkpt lat="42.491251" lon="-6.429893">
        <ele>1427.54961697803</ele>
        <time>2018-07-24T09:29:31.990Z</time>
      </trkpt>
      <trkpt lat="42.491282" lon="-6.430012">
        <ele>1426.59420101658</ele>
        <time>2018-07-24T09:29:32.990Z</time>
      </trkpt>
      <trkpt lat="42.491317" lon="-6.430131">
        <ele>1425.4</ele>
        <time>2018-07-24T09:29:34.000Z</time>
      </trkpt>
      <trkpt lat="42.491351" lon="-6.430254">
        <ele>1424.4099968</ele>
        <time>2018-07-24T09:29:34.990Z</time>
      </trkpt>
      <trkpt lat="42.491385" lon="-6.430378">
        <ele>1422.8199936</ele>
        <time>2018-07-24T09:29:35.990Z</time>
      </trkpt>
      <trkpt lat="42.491423" lon="-6.430501">
        <ele>1421.54961697803</ele>
        <time>2018-07-24T09:29:36.990Z</time>
      </trkpt>
      <trkpt lat="42.491459" lon="-6.430623">
        <ele>1420.59420101658</ele>
        <time>2018-07-24T09:29:37.990Z</time>
      </trkpt>
      <trkpt lat="42.491493" lon="-6.430746">
        <ele>1419.4</ele>
        <time>2018-07-24T09:29:39.000Z</time>
      </trkpt>
      <trkpt lat="42.491522" lon="-6.430867">
        <ele>1418.54263204374</ele>
        <time>2018-07-24T09:29:39.990Z</time>
      </trkpt>
      <trkpt lat="42.491553" lon="-6.430994">
        <ele>1418</ele>
        <time>2018-07-24T09:29:40.990Z</time>
      </trkpt>
      <trkpt lat="42.491587" lon="-6.431128">
        <ele>1417.55638750409</ele>
        <time>2018-07-24T09:29:41.990Z</time>
      </trkpt>
      <trkpt lat="42.491618" lon="-6.431264">
        <ele>1417</ele>
        <time>2018-07-24T09:29:42.990Z</time>
      </trkpt>
      <trkpt lat="42.491652" lon="-6.431405">
        <ele>1416.3699968</ele>
        <time>2018-07-24T09:29:44.030Z</time>
      </trkpt>
      <trkpt lat="42.491682" lon="-6.431533">
        <ele>1415.44</ele>
        <time>2018-07-24T09:29:44.960Z</time>
      </trkpt>
      <trkpt lat="42.491707" lon="-6.431679">
        <ele>1413.8199936</ele>
        <time>2018-07-24T09:29:45.990Z</time>
      </trkpt>
      <trkpt lat="42.491724" lon="-6.431826">
        <ele>1412.54961697803</ele>
        <time>2018-07-24T09:29:46.990Z</time>
      </trkpt>
      <trkpt lat="42.491737" lon="-6.431979">
        <ele>1411.59420101658</ele>
        <time>2018-07-24T09:29:47.990Z</time>
      </trkpt>
      <trkpt lat="42.491743" lon="-6.432127">
        <ele>1411</ele>
        <time>2018-07-24T09:29:49.000Z</time>
      </trkpt>
      <trkpt lat="42.491741" lon="-6.432272">
        <ele>1410.4099968</ele>
        <time>2018-07-24T09:29:49.990Z</time>
      </trkpt>
      <trkpt lat="42.49173" lon="-6.432414">
        <ele>1410</ele>
        <time>2018-07-24T09:29:50.990Z</time>
      </trkpt>
      <trkpt lat="42.491711" lon="-6.432562">
        <ele>1409.59420101658</ele>
        <time>2018-07-24T09:29:51.990Z</time>
      </trkpt>
      <trkpt lat="42.491688" lon="-6.432704">
        <ele>1408.4099968</ele>
        <time>2018-07-24T09:29:52.990Z</time>
      </trkpt>
      <trkpt lat="42.491659" lon="-6.432842">
        <ele>1408</ele>
        <time>2018-07-24T09:29:54.000Z</time>
      </trkpt>
      <trkpt lat="42.491628" lon="-6.43298">
        <ele>1408</ele>
        <time>2018-07-24T09:29:54.990Z</time>
      </trkpt>
      <trkpt lat="42.491596" lon="-6.433115">
        <ele>1407.54961697803</ele>
        <time>2018-07-24T09:29:55.990Z</time>
      </trkpt>
      <trkpt lat="42.491561" lon="-6.433256">
        <ele>1407</ele>
        <time>2018-07-24T09:29:56.990Z</time>
      </trkpt>
      <trkpt lat="42.491529" lon="-6.433393">
        <ele>1406.4099968</ele>
        <time>2018-07-24T09:29:57.990Z</time>
      </trkpt>
      <trkpt lat="42.491492" lon="-6.433527">
        <ele>1406</ele>
        <time>2018-07-24T09:29:59.000Z</time>
      </trkpt>
      <trkpt lat="42.49145" lon="-6.433653">
        <ele>1405.70873255539</ele>
        <time>2018-07-24T09:29:59.990Z</time>
      </trkpt>
      <trkpt lat="42.491367" lon="-6.433904">
        <ele>1405</ele>
        <time>2018-07-24T09:30:01.000Z</time>
      </trkpt>
      <trkpt lat="42.491408" lon="-6.433783">
        <ele>1405</ele>
        <time>2018-07-24T09:30:01.020Z</time>
      </trkpt>
      <trkpt lat="42.491329" lon="-6.434036">
        <ele>1403.4099968</ele>
        <time>2018-07-24T09:30:02.990Z</time>
      </trkpt>
      <trkpt lat="42.491293" lon="-6.434164">
        <ele>1403</ele>
        <time>2018-07-24T09:30:03.970Z</time>
      </trkpt>
      <trkpt lat="42.491255" lon="-6.434302">
        <ele>1402.4099968</ele>
        <time>2018-07-24T09:30:04.990Z</time>
      </trkpt>
      <trkpt lat="42.49122" lon="-6.434439">
        <ele>1402</ele>
        <time>2018-07-24T09:30:05.990Z</time>
      </trkpt>
      <trkpt lat="42.491191" lon="-6.434578">
        <ele>1402</ele>
        <time>2018-07-24T09:30:06.990Z</time>
      </trkpt>
      <trkpt lat="42.491167" lon="-6.434718">
        <ele>1402</ele>
        <time>2018-07-24T09:30:07.990Z</time>
      </trkpt>
      <trkpt lat="42.491148" lon="-6.434864">
        <ele>1401.4</ele>
        <time>2018-07-24T09:30:09.000Z</time>
      </trkpt>
      <trkpt lat="42.491119" lon="-6.43501">
        <ele>1401</ele>
        <time>2018-07-24T09:30:09.990Z</time>
      </trkpt>
      <trkpt lat="42.491089" lon="-6.435151">
        <ele>1401</ele>
        <time>2018-07-24T09:30:10.990Z</time>
      </trkpt>
      <trkpt lat="42.491054" lon="-6.435297">
        <ele>1400</ele>
        <time>2018-07-24T09:30:12.020Z</time>
      </trkpt>
      <trkpt lat="42.491015" lon="-6.435429">
        <ele>1399.44</ele>
        <time>2018-07-24T09:30:12.960Z</time>
      </trkpt>
      <trkpt lat="42.49097" lon="-6.435574">
        <ele>1398.40593871189</ele>
        <time>2018-07-24T09:30:14.000Z</time>
      </trkpt>
      <trkpt lat="42.490927" lon="-6.435714">
        <ele>1397.55384342723</ele>
        <time>2018-07-24T09:30:14.990Z</time>
      </trkpt>
      <trkpt lat="42.490886" lon="-6.435853">
        <ele>1396.59420101658</ele>
        <time>2018-07-24T09:30:15.990Z</time>
      </trkpt>
      <trkpt lat="42.490857" lon="-6.435997">
        <ele>1395.4099968</ele>
        <time>2018-07-24T09:30:16.990Z</time>
      </trkpt>
      <trkpt lat="42.490838" lon="-6.436151">
        <ele>1394.54263204374</ele>
        <time>2018-07-24T09:30:17.990Z</time>
      </trkpt>
      <trkpt lat="42.490822" lon="-6.436306">
        <ele>1393.69607720108</ele>
        <time>2018-07-24T09:30:19.000Z</time>
      </trkpt>
      <trkpt lat="42.490811" lon="-6.436467">
        <ele>1392.55073646718</ele>
        <time>2018-07-24T09:30:20.020Z</time>
      </trkpt>
      <trkpt lat="42.490795" lon="-6.436623">
        <ele>1391.4099968</ele>
        <time>2018-07-24T09:30:20.990Z</time>
      </trkpt>
      <trkpt lat="42.490783" lon="-6.43678">
        <ele>1390.44</ele>
        <time>2018-07-24T09:30:21.960Z</time>
      </trkpt>
      <trkpt lat="42.490771" lon="-6.436953">
        <ele>1389.54961697803</ele>
        <time>2018-07-24T09:30:22.990Z</time>
      </trkpt>
      <trkpt lat="42.490759" lon="-6.437125">
        <ele>1388.57971283345</ele>
        <time>2018-07-24T09:30:24.000Z</time>
      </trkpt>
      <trkpt lat="42.490744" lon="-6.437301">
        <ele>1386.8199936</ele>
        <time>2018-07-24T09:30:24.990Z</time>
      </trkpt>
      <trkpt lat="42.49073" lon="-6.437477">
        <ele>1386</ele>
        <time>2018-07-24T09:30:25.990Z</time>
      </trkpt>
      <trkpt lat="42.490715" lon="-6.437655">
        <ele>1385.54961697803</ele>
        <time>2018-07-24T09:30:26.990Z</time>
      </trkpt>
      <trkpt lat="42.490695" lon="-6.437823">
        <ele>1384.59420101658</ele>
        <time>2018-07-24T09:30:27.990Z</time>
      </trkpt>
      <trkpt lat="42.490668" lon="-6.437993">
        <ele>1383.4</ele>
        <time>2018-07-24T09:30:29.000Z</time>
      </trkpt>
      <trkpt lat="42.490641" lon="-6.438158">
        <ele>1382.4099968</ele>
        <time>2018-07-24T09:30:29.990Z</time>
      </trkpt>
      <trkpt lat="42.490616" lon="-6.43832">
        <ele>1381.54961697803</ele>
        <time>2018-07-24T09:30:30.990Z</time>
      </trkpt>
      <trkpt lat="42.490595" lon="-6.438482">
        <ele>1381</ele>
        <time>2018-07-24T09:30:31.990Z</time>
      </trkpt>
      <trkpt lat="42.490586" lon="-6.438646">
        <ele>1380.4099968</ele>
        <time>2018-07-24T09:30:32.990Z</time>
      </trkpt>
      <trkpt lat="42.490582" lon="-6.4388">
        <ele>1379.4</ele>
        <time>2018-07-24T09:30:34.000Z</time>
      </trkpt>
      <trkpt lat="42.490584" lon="-6.438952">
        <ele>1378.4099968</ele>
        <time>2018-07-24T09:30:34.990Z</time>
      </trkpt>
      <trkpt lat="42.490588" lon="-6.439097">
        <ele>1378</ele>
        <time>2018-07-24T09:30:35.990Z</time>
      </trkpt>
      <trkpt lat="42.49059" lon="-6.439231">
        <ele>1377.71428384838</ele>
        <time>2018-07-24T09:30:36.990Z</time>
      </trkpt>
      <trkpt lat="42.49059" lon="-6.439359">
        <ele>1377</ele>
        <time>2018-07-24T09:30:37.990Z</time>
      </trkpt>
      <trkpt lat="42.490584" lon="-6.439567">
        <ele>1375.44</ele>
        <time>2018-07-24T09:30:39.960Z</time>
      </trkpt>
      <trkpt lat="42.490567" lon="-6.439724">
        <ele>1375</ele>
        <time>2018-07-24T09:30:41.990Z</time>
      </trkpt>
      <trkpt lat="42.490478" lon="-6.439756">
        <ele>1377</ele>
        <time>2018-07-24T09:32:35.990Z</time>
      </trkpt>
      <trkpt lat="42.490409" lon="-6.439854">
        <ele>1376.4</ele>
        <time>2018-07-24T09:34:12.000Z</time>
      </trkpt>
      <trkpt lat="42.490323" lon="-6.439953">
        <ele>1376</ele>
        <time>2018-07-24T09:34:15.990Z</time>
      </trkpt>
      <trkpt lat="42.49021" lon="-6.440049">
        <ele>1375</ele>
        <time>2018-07-24T09:34:18.990Z</time>
      </trkpt>
      <trkpt lat="42.490111" lon="-6.440138">
        <ele>1373.42156911957</ele>
        <time>2018-07-24T09:34:20.990Z</time>
      </trkpt>
      <trkpt lat="42.48999" lon="-6.440225">
        <ele>1373</ele>
        <time>2018-07-24T09:34:22.990Z</time>
      </trkpt>
      <trkpt lat="42.489837" lon="-6.440307">
        <ele>1372</ele>
        <time>2018-07-24T09:34:24.990Z</time>
      </trkpt>
      <trkpt lat="42.48968" lon="-6.440396">
        <ele>1370.51908270148</ele>
        <time>2018-07-24T09:34:27.030Z</time>
      </trkpt>
      <trkpt lat="42.489537" lon="-6.440525">
        <ele>1370</ele>
        <time>2018-07-24T09:34:28.990Z</time>
      </trkpt>
      <trkpt lat="42.489423" lon="-6.440661">
        <ele>1370</ele>
        <time>2018-07-24T09:34:30.990Z</time>
      </trkpt>
      <trkpt lat="42.489326" lon="-6.440787">
        <ele>1371.45038302197</ele>
        <time>2018-07-24T09:34:32.990Z</time>
      </trkpt>
      <trkpt lat="42.48925" lon="-6.440909">
        <ele>1372</ele>
        <time>2018-07-24T09:34:34.990Z</time>
      </trkpt>
      <trkpt lat="42.489207" lon="-6.441042">
        <ele>1372</ele>
        <time>2018-07-24T09:34:37.000Z</time>
      </trkpt>
      <trkpt lat="42.48922" lon="-6.441171">
        <ele>1373.5900032</ele>
        <time>2018-07-24T09:34:38.990Z</time>
      </trkpt>
      <trkpt lat="42.489284" lon="-6.441317">
        <ele>1375.45801414836</ele>
        <time>2018-07-24T09:34:42.000Z</time>
      </trkpt>
      <trkpt lat="42.48937" lon="-6.441449">
        <ele>1376</ele>
        <time>2018-07-24T09:34:44.990Z</time>
      </trkpt>
      <trkpt lat="42.489474" lon="-6.441536">
        <ele>1376</ele>
        <time>2018-07-24T09:34:47.990Z</time>
      </trkpt>
      <trkpt lat="42.489569" lon="-6.441651">
        <ele>1376.58586315681</ele>
        <time>2018-07-24T09:34:50.990Z</time>
      </trkpt>
      <trkpt lat="42.489647" lon="-6.441725">
        <ele>1377</ele>
        <time>2018-07-24T09:34:52.990Z</time>
      </trkpt>
      <trkpt lat="42.489727" lon="-6.441801">
        <ele>1377</ele>
        <time>2018-07-24T09:34:54.990Z</time>
      </trkpt>
      <trkpt lat="42.48982" lon="-6.441875">
        <ele>1377</ele>
        <time>2018-07-24T09:34:57.000Z</time>
      </trkpt>
      <trkpt lat="42.48992" lon="-6.441948">
        <ele>1376</ele>
        <time>2018-07-24T09:34:58.990Z</time>
      </trkpt>
      <trkpt lat="42.490037" lon="-6.442021">
        <ele>1374.4099968</ele>
        <time>2018-07-24T09:35:00.990Z</time>
      </trkpt>
      <trkpt lat="42.49017" lon="-6.442098">
        <ele>1373.637496</ele>
        <time>2018-07-24T09:35:02.990Z</time>
      </trkpt>
      <trkpt lat="42.490314" lon="-6.442166">
        <ele>1373</ele>
        <time>2018-07-24T09:35:05.020Z</time>
      </trkpt>
      <trkpt lat="42.49046" lon="-6.442226">
        <ele>1372</ele>
        <time>2018-07-24T09:35:07.000Z</time>
      </trkpt>
      <trkpt lat="42.490598" lon="-6.442294">
        <ele>1371.54961697803</ele>
        <time>2018-07-24T09:35:08.990Z</time>
      </trkpt>
      <trkpt lat="42.490738" lon="-6.442358">
        <ele>1371.4099968</ele>
        <time>2018-07-24T09:35:10.990Z</time>
      </trkpt>
      <trkpt lat="42.490854" lon="-6.442409">
        <ele>1371</ele>
        <time>2018-07-24T09:35:12.990Z</time>
      </trkpt>
      <trkpt lat="42.490942" lon="-6.442458">
        <ele>1371</ele>
        <time>2018-07-24T09:35:14.990Z</time>
      </trkpt>
      <trkpt lat="42.491037" lon="-6.442491">
        <ele>1371</ele>
        <time>2018-07-24T09:35:24.020Z</time>
      </trkpt>
      <trkpt lat="42.491138" lon="-6.442565">
        <ele>1370</ele>
        <time>2018-07-24T09:35:27.000Z</time>
      </trkpt>
      <trkpt lat="42.49124" lon="-6.442633">
        <ele>1368.42156911957</ele>
        <time>2018-07-24T09:35:28.990Z</time>
      </trkpt>
      <trkpt lat="42.491373" lon="-6.442708">
        <ele>1366.4099968</ele>
        <time>2018-07-24T09:35:30.990Z</time>
      </trkpt>
      <trkpt lat="42.491534" lon="-6.442769">
        <ele>1364.54263204374</ele>
        <time>2018-07-24T09:35:32.990Z</time>
      </trkpt>
      <trkpt lat="42.49169" lon="-6.442778">
        <ele>1361.83167313005</ele>
        <time>2018-07-24T09:35:34.990Z</time>
      </trkpt>
      <trkpt lat="42.491846" lon="-6.442669">
        <ele>1359.4</ele>
        <time>2018-07-24T09:35:37.000Z</time>
      </trkpt>
      <trkpt lat="42.491966" lon="-6.442493">
        <ele>1358.54961697803</ele>
        <time>2018-07-24T09:35:38.990Z</time>
      </trkpt>
      <trkpt lat="42.492026" lon="-6.442399">
        <ele>1357.59420101658</ele>
        <time>2018-07-24T09:35:39.990Z</time>
      </trkpt>
      <trkpt lat="42.492086" lon="-6.442301">
        <ele>1357</ele>
        <time>2018-07-24T09:35:40.990Z</time>
      </trkpt>
      <trkpt lat="42.492146" lon="-6.442195">
        <ele>1357</ele>
        <time>2018-07-24T09:35:42.000Z</time>
      </trkpt>
      <trkpt lat="42.492206" lon="-6.442086">
        <ele>1357</ele>
        <time>2018-07-24T09:35:42.990Z</time>
      </trkpt>
      <trkpt lat="42.492265" lon="-6.441978">
        <ele>1356.55384342723</ele>
        <time>2018-07-24T09:35:43.990Z</time>
      </trkpt>
      <trkpt lat="42.49233" lon="-6.441879">
        <ele>1356</ele>
        <time>2018-07-24T09:35:44.990Z</time>
      </trkpt>
      <trkpt lat="42.4924" lon="-6.441797">
        <ele>1356</ele>
        <time>2018-07-24T09:35:45.990Z</time>
      </trkpt>
      <trkpt lat="42.492483" lon="-6.441739">
        <ele>1356</ele>
        <time>2018-07-24T09:35:47.000Z</time>
      </trkpt>
      <trkpt lat="42.492654" lon="-6.44175">
        <ele>1356</ele>
        <time>2018-07-24T09:35:48.990Z</time>
      </trkpt>
      <trkpt lat="42.492744" lon="-6.441805">
        <ele>1356</ele>
        <time>2018-07-24T09:35:49.990Z</time>
      </trkpt>
      <trkpt lat="42.492834" lon="-6.441874">
        <ele>1355.59420101658</ele>
        <time>2018-07-24T09:35:50.990Z</time>
      </trkpt>
      <trkpt lat="42.49293" lon="-6.441952">
        <ele>1353.8</ele>
        <time>2018-07-24T09:35:52.000Z</time>
      </trkpt>
      <trkpt lat="42.493022" lon="-6.442031">
        <ele>1351.8199936</ele>
        <time>2018-07-24T09:35:52.990Z</time>
      </trkpt>
      <trkpt lat="42.493126" lon="-6.442108">
        <ele>1350.09923395607</ele>
        <time>2018-07-24T09:35:53.990Z</time>
      </trkpt>
      <trkpt lat="42.493242" lon="-6.442174">
        <ele>1348.18840203317</ele>
        <time>2018-07-24T09:35:54.990Z</time>
      </trkpt>
      <trkpt lat="42.49336" lon="-6.442233">
        <ele>1345.8199936</ele>
        <time>2018-07-24T09:35:55.990Z</time>
      </trkpt>
      <trkpt lat="42.493494" lon="-6.442289">
        <ele>1343.8</ele>
        <time>2018-07-24T09:35:57.000Z</time>
      </trkpt>
      <trkpt lat="42.493628" lon="-6.442343">
        <ele>1342.09923395607</ele>
        <time>2018-07-24T09:35:57.990Z</time>
      </trkpt>
      <trkpt lat="42.493768" lon="-6.442386">
        <ele>1340.59420101658</ele>
        <time>2018-07-24T09:35:58.990Z</time>
      </trkpt>
      <trkpt lat="42.493912" lon="-6.442427">
        <ele>1338.61718</ele>
        <time>2018-07-24T09:35:59.990Z</time>
      </trkpt>
      <trkpt lat="42.494062" lon="-6.44246">
        <ele>1334.8472</ele>
        <time>2018-07-24T09:36:00.990Z</time>
      </trkpt>
      <trkpt lat="42.494218" lon="-6.442494">
        <ele>1331.03816540295</ele>
        <time>2018-07-24T09:36:02.030Z</time>
      </trkpt>
      <trkpt lat="42.494363" lon="-6.44253">
        <ele>1329.27536823359</ele>
        <time>2018-07-24T09:36:02.960Z</time>
      </trkpt>
      <trkpt lat="42.494513" lon="-6.442578">
        <ele>1326.8199936</ele>
        <time>2018-07-24T09:36:03.990Z</time>
      </trkpt>
      <trkpt lat="42.494654" lon="-6.442626">
        <ele>1325.54961697803</ele>
        <time>2018-07-24T09:36:04.990Z</time>
      </trkpt>
      <trkpt lat="42.494782" lon="-6.442682">
        <ele>1324.18840203317</ele>
        <time>2018-07-24T09:36:05.990Z</time>
      </trkpt>
      <trkpt lat="42.494906" lon="-6.44274">
        <ele>1322.4</ele>
        <time>2018-07-24T09:36:07.000Z</time>
      </trkpt>
      <trkpt lat="42.495015" lon="-6.442811">
        <ele>1321.4099968</ele>
        <time>2018-07-24T09:36:07.990Z</time>
      </trkpt>
      <trkpt lat="42.495113" lon="-6.442905">
        <ele>1321</ele>
        <time>2018-07-24T09:36:08.990Z</time>
      </trkpt>
      <trkpt lat="42.495194" lon="-6.443028">
        <ele>1320.59420101658</ele>
        <time>2018-07-24T09:36:09.990Z</time>
      </trkpt>
      <trkpt lat="42.495257" lon="-6.443171">
        <ele>1318.8199936</ele>
        <time>2018-07-24T09:36:10.990Z</time>
      </trkpt>
      <trkpt lat="42.495323" lon="-6.443324">
        <ele>1317.4</ele>
        <time>2018-07-24T09:36:12.000Z</time>
      </trkpt>
      <trkpt lat="42.495387" lon="-6.443477">
        <ele>1316.54961697803</ele>
        <time>2018-07-24T09:36:12.990Z</time>
      </trkpt>
      <trkpt lat="42.495447" lon="-6.443627">
        <ele>1315.18840203317</ele>
        <time>2018-07-24T09:36:13.990Z</time>
      </trkpt>
      <trkpt lat="42.495497" lon="-6.443776">
        <ele>1313.4099968</ele>
        <time>2018-07-24T09:36:14.990Z</time>
      </trkpt>
      <trkpt lat="42.495547" lon="-6.443928">
        <ele>1312.4099968</ele>
        <time>2018-07-24T09:36:15.990Z</time>
      </trkpt>
      <trkpt lat="42.495607" lon="-6.444086">
        <ele>1311.08397170328</ele>
        <time>2018-07-24T09:36:17.000Z</time>
      </trkpt>
      <trkpt lat="42.495672" lon="-6.444248">
        <ele>1309.59420101658</ele>
        <time>2018-07-24T09:36:17.990Z</time>
      </trkpt>
      <trkpt lat="42.495736" lon="-6.444418">
        <ele>1307.62789613122</ele>
        <time>2018-07-24T09:36:18.990Z</time>
      </trkpt>
      <trkpt lat="42.495801" lon="-6.444592">
        <ele>1305.41175584781</ele>
        <time>2018-07-24T09:36:19.990Z</time>
      </trkpt>
      <trkpt lat="42.495869" lon="-6.444768">
        <ele>1302.65215374912</ele>
        <time>2018-07-24T09:36:21.020Z</time>
      </trkpt>
      <trkpt lat="42.49594" lon="-6.444926">
        <ele>1299.82352202994</ele>
        <time>2018-07-24T09:36:22.000Z</time>
      </trkpt>
      <trkpt lat="42.496019" lon="-6.44507">
        <ele>1297.89795331949</ele>
        <time>2018-07-24T09:36:22.960Z</time>
      </trkpt>
      <trkpt lat="42.496119" lon="-6.445204">
        <ele>1296.54961697803</ele>
        <time>2018-07-24T09:36:23.990Z</time>
      </trkpt>
      <trkpt lat="42.496227" lon="-6.445311">
        <ele>1295.18840203317</ele>
        <time>2018-07-24T09:36:24.990Z</time>
      </trkpt>
      <trkpt lat="42.496344" lon="-6.445392">
        <ele>1293.4099968</ele>
        <time>2018-07-24T09:36:25.990Z</time>
      </trkpt>
      <trkpt lat="42.496465" lon="-6.445449">
        <ele>1291.8</ele>
        <time>2018-07-24T09:36:27.000Z</time>
      </trkpt>
      <trkpt lat="42.49658" lon="-6.445482">
        <ele>1290.54961697803</ele>
        <time>2018-07-24T09:36:27.990Z</time>
      </trkpt>
      <trkpt lat="42.49669" lon="-6.445485">
        <ele>1289.59420101658</ele>
        <time>2018-07-24T09:36:28.990Z</time>
      </trkpt>
      <trkpt lat="42.496791" lon="-6.445449">
        <ele>1289</ele>
        <time>2018-07-24T09:36:29.990Z</time>
      </trkpt>
      <trkpt lat="42.496877" lon="-6.445374">
        <ele>1288.4099968</ele>
        <time>2018-07-24T09:36:30.990Z</time>
      </trkpt>
      <trkpt lat="42.496954" lon="-6.445278">
        <ele>1288</ele>
        <time>2018-07-24T09:36:32.000Z</time>
      </trkpt>
      <trkpt lat="42.497027" lon="-6.445181">
        <ele>1288</ele>
        <time>2018-07-24T09:36:32.990Z</time>
      </trkpt>
      <trkpt lat="42.497104" lon="-6.445084">
        <ele>1287.4099968</ele>
        <time>2018-07-24T09:36:33.990Z</time>
      </trkpt>
      <trkpt lat="42.497178" lon="-6.44499">
        <ele>1286.4099968</ele>
        <time>2018-07-24T09:36:34.990Z</time>
      </trkpt>
      <trkpt lat="42.497255" lon="-6.444891">
        <ele>1285.4099968</ele>
        <time>2018-07-24T09:36:35.990Z</time>
      </trkpt>
      <trkpt lat="42.497328" lon="-6.444782">
        <ele>1284.54198585164</ele>
        <time>2018-07-24T09:36:37.000Z</time>
      </trkpt>
      <trkpt lat="42.497393" lon="-6.444663">
        <ele>1283.71428384838</ele>
        <time>2018-07-24T09:36:37.990Z</time>
      </trkpt>
      <trkpt lat="42.497447" lon="-6.444528">
        <ele>1282.15491535813</ele>
        <time>2018-07-24T09:36:38.990Z</time>
      </trkpt>
      <trkpt lat="42.497503" lon="-6.444396">
        <ele>1280.3800064</ele>
        <time>2018-07-24T09:36:40.020Z</time>
      </trkpt>
      <trkpt lat="42.49763" lon="-6.444221">
        <ele>1279</ele>
        <time>2018-07-24T09:36:42.000Z</time>
      </trkpt>
      <trkpt lat="42.497796" lon="-6.444224">
        <ele>1277.8199936</ele>
        <time>2018-07-24T09:36:43.990Z</time>
      </trkpt>
      <trkpt lat="42.497875" lon="-6.44429">
        <ele>1275.84313823913</ele>
        <time>2018-07-24T09:36:44.990Z</time>
      </trkpt>
      <trkpt lat="42.497953" lon="-6.444382">
        <ele>1274.41836681382</ele>
        <time>2018-07-24T09:36:45.990Z</time>
      </trkpt>
      <trkpt lat="42.498038" lon="-6.444486">
        <ele>1273.08397170328</ele>
        <time>2018-07-24T09:36:47.000Z</time>
      </trkpt>
      <trkpt lat="42.498116" lon="-6.444602">
        <ele>1271.18840203317</ele>
        <time>2018-07-24T09:36:47.990Z</time>
      </trkpt>
      <trkpt lat="42.498192" lon="-6.444738">
        <ele>1268.8199936</ele>
        <time>2018-07-24T09:36:48.990Z</time>
      </trkpt>
      <trkpt lat="42.498255" lon="-6.44488">
        <ele>1267.4099968</ele>
        <time>2018-07-24T09:36:49.990Z</time>
      </trkpt>
      <trkpt lat="42.49831" lon="-6.44502">
        <ele>1266.09923395607</ele>
        <time>2018-07-24T09:36:50.990Z</time>
      </trkpt>
      <trkpt lat="42.498367" lon="-6.445158">
        <ele>1264.57971283345</ele>
        <time>2018-07-24T09:36:52.000Z</time>
      </trkpt>
      <trkpt lat="42.498418" lon="-6.4453">
        <ele>1263.4099968</ele>
        <time>2018-07-24T09:36:52.990Z</time>
      </trkpt>
      <trkpt lat="42.498459" lon="-6.445447">
        <ele>1262.4099968</ele>
        <time>2018-07-24T09:36:53.990Z</time>
      </trkpt>
      <trkpt lat="42.498491" lon="-6.445594">
        <ele>1260.8199936</ele>
        <time>2018-07-24T09:36:54.990Z</time>
      </trkpt>
      <trkpt lat="42.498527" lon="-6.445744">
        <ele>1259.09923395607</ele>
        <time>2018-07-24T09:36:55.990Z</time>
      </trkpt>
      <trkpt lat="42.498559" lon="-6.445898">
        <ele>1257.70408296544</ele>
        <time>2018-07-24T09:36:57.000Z</time>
      </trkpt>
      <trkpt lat="42.498583" lon="-6.44605">
        <ele>1255.73237303719</ele>
        <time>2018-07-24T09:36:57.990Z</time>
      </trkpt>
      <trkpt lat="42.498601" lon="-6.446206">
        <ele>1252.7599872</ele>
        <time>2018-07-24T09:36:59.020Z</time>
      </trkpt>
      <trkpt lat="42.498602" lon="-6.446356">
        <ele>1251.13178079201</ele>
        <time>2018-07-24T09:36:59.960Z</time>
      </trkpt>
      <trkpt lat="42.49858" lon="-6.44653">
        <ele>1248.73237303719</ele>
        <time>2018-07-24T09:37:00.990Z</time>
      </trkpt>
      <trkpt lat="42.49856" lon="-6.446708">
        <ele>1246.40593871189</ele>
        <time>2018-07-24T09:37:02.000Z</time>
      </trkpt>
      <trkpt lat="42.49853" lon="-6.446892">
        <ele>1244.82827368639</ele>
        <time>2018-07-24T09:37:02.990Z</time>
      </trkpt>
      <trkpt lat="42.498488" lon="-6.447097">
        <ele>1242.65908363636</ele>
        <time>2018-07-24T09:37:03.990Z</time>
      </trkpt>
      <trkpt lat="42.498454" lon="-6.447303">
        <ele>1240.20587294118</ele>
        <time>2018-07-24T09:37:04.990Z</time>
      </trkpt>
      <trkpt lat="42.49842" lon="-6.447508">
        <ele>1237.2299904</ele>
        <time>2018-07-24T09:37:05.990Z</time>
      </trkpt>
      <trkpt lat="42.498387" lon="-6.447714">
        <ele>1234.63636363636</ele>
        <time>2018-07-24T09:37:07.000Z</time>
      </trkpt>
      <trkpt lat="42.498361" lon="-6.447913">
        <ele>1232.60293647059</ele>
        <time>2018-07-24T09:37:07.990Z</time>
      </trkpt>
      <trkpt lat="42.498349" lon="-6.448106">
        <ele>1230.2299904</ele>
        <time>2018-07-24T09:37:08.990Z</time>
      </trkpt>
      <trkpt lat="42.498337" lon="-6.448294">
        <ele>1228.09923395607</ele>
        <time>2018-07-24T09:37:09.990Z</time>
      </trkpt>
      <trkpt lat="42.498328" lon="-6.448485">
        <ele>1226.59420101658</ele>
        <time>2018-07-24T09:37:10.990Z</time>
      </trkpt>
      <trkpt lat="42.49833" lon="-6.448675">
        <ele>1224.8</ele>
        <time>2018-07-24T09:37:12.000Z</time>
      </trkpt>
      <trkpt lat="42.498345" lon="-6.448859">
        <ele>1223.4099968</ele>
        <time>2018-07-24T09:37:12.990Z</time>
      </trkpt>
      <trkpt lat="42.498365" lon="-6.449038">
        <ele>1222.54961697803</ele>
        <time>2018-07-24T09:37:13.990Z</time>
      </trkpt>
      <trkpt lat="42.498402" lon="-6.449209">
        <ele>1221.59420101658</ele>
        <time>2018-07-24T09:37:14.990Z</time>
      </trkpt>
      <trkpt lat="42.498441" lon="-6.449362">
        <ele>1220.54263204374</ele>
        <time>2018-07-24T09:37:15.990Z</time>
      </trkpt>
      <trkpt lat="42.498497" lon="-6.449501">
        <ele>1220</ele>
        <time>2018-07-24T09:37:17.000Z</time>
      </trkpt>
      <trkpt lat="42.498558" lon="-6.449628">
        <ele>1220</ele>
        <time>2018-07-24T09:37:17.990Z</time>
      </trkpt>
      <trkpt lat="42.498625" lon="-6.44975">
        <ele>1219.61193259972</ele>
        <time>2018-07-24T09:37:18.990Z</time>
      </trkpt>
      <trkpt lat="42.498692" lon="-6.449862">
        <ele>1219</ele>
        <time>2018-07-24T09:37:19.990Z</time>
      </trkpt>
      <trkpt lat="42.49876" lon="-6.449964">
        <ele>1219</ele>
        <time>2018-07-24T09:37:20.990Z</time>
      </trkpt>
      <trkpt lat="42.498821" lon="-6.45007">
        <ele>1219</ele>
        <time>2018-07-24T09:37:22.000Z</time>
      </trkpt>
      <trkpt lat="42.498903" lon="-6.450282">
        <ele>1219</ele>
        <time>2018-07-24T09:37:23.990Z</time>
      </trkpt>
      <trkpt lat="42.498933" lon="-6.450406">
        <ele>1219</ele>
        <time>2018-07-24T09:37:24.990Z</time>
      </trkpt>
      <trkpt lat="42.498962" lon="-6.450529">
        <ele>1218.4099968</ele>
        <time>2018-07-24T09:37:25.990Z</time>
      </trkpt>
      <trkpt lat="42.498991" lon="-6.450658">
        <ele>1217.4</ele>
        <time>2018-07-24T09:37:27.000Z</time>
      </trkpt>
      <trkpt lat="42.499016" lon="-6.450795">
        <ele>1216.55302787879</ele>
        <time>2018-07-24T09:37:27.990Z</time>
      </trkpt>
      <trkpt lat="42.499037" lon="-6.450947">
        <ele>1215.60293647059</ele>
        <time>2018-07-24T09:37:28.990Z</time>
      </trkpt>
      <trkpt lat="42.499061" lon="-6.451104">
        <ele>1213.2299904</ele>
        <time>2018-07-24T09:37:29.990Z</time>
      </trkpt>
      <trkpt lat="42.499081" lon="-6.451261">
        <ele>1210.8199936</ele>
        <time>2018-07-24T09:37:30.990Z</time>
      </trkpt>
      <trkpt lat="42.499102" lon="-6.451423">
        <ele>1209.54545454545</ele>
        <time>2018-07-24T09:37:32.000Z</time>
      </trkpt>
      <trkpt lat="42.49913" lon="-6.451586">
        <ele>1208.20587294118</ele>
        <time>2018-07-24T09:37:32.990Z</time>
      </trkpt>
      <trkpt lat="42.499163" lon="-6.451745">
        <ele>1206.4099968</ele>
        <time>2018-07-24T09:37:33.990Z</time>
      </trkpt>
      <trkpt lat="42.499199" lon="-6.451896">
        <ele>1205.54263204374</ele>
        <time>2018-07-24T09:37:34.990Z</time>
      </trkpt>
      <trkpt lat="42.49923" lon="-6.452046">
        <ele>1204.57745767906</ele>
        <time>2018-07-24T09:37:35.990Z</time>
      </trkpt>
      <trkpt lat="42.499253" lon="-6.452209">
        <ele>1204</ele>
        <time>2018-07-24T09:37:37.030Z</time>
      </trkpt>
      <trkpt lat="42.49927" lon="-6.452355">
        <ele>1203.6376841168</ele>
        <time>2018-07-24T09:37:37.960Z</time>
      </trkpt>
      <trkpt lat="42.499281" lon="-6.452533">
        <ele>1201.8199936</ele>
        <time>2018-07-24T09:37:38.990Z</time>
      </trkpt>
      <trkpt lat="42.499286" lon="-6.4527">
        <ele>1200.54263204374</ele>
        <time>2018-07-24T09:37:39.990Z</time>
      </trkpt>
      <trkpt lat="42.499283" lon="-6.452869">
        <ele>1200</ele>
        <time>2018-07-24T09:37:40.990Z</time>
      </trkpt>
      <trkpt lat="42.499277" lon="-6.453037">
        <ele>1199.07245946648</ele>
        <time>2018-07-24T09:37:42.030Z</time>
      </trkpt>
      <trkpt lat="42.499261" lon="-6.453192">
        <ele>1197.4099968</ele>
        <time>2018-07-24T09:37:42.990Z</time>
      </trkpt>
      <trkpt lat="42.499234" lon="-6.453341">
        <ele>1196.44</ele>
        <time>2018-07-24T09:37:43.960Z</time>
      </trkpt>
      <trkpt lat="42.49918" lon="-6.453498">
        <ele>1195.09923395607</ele>
        <time>2018-07-24T09:37:44.990Z</time>
      </trkpt>
      <trkpt lat="42.499109" lon="-6.453644">
        <ele>1193.18840203317</ele>
        <time>2018-07-24T09:37:45.990Z</time>
      </trkpt>
      <trkpt lat="42.49903" lon="-6.453765">
        <ele>1190.8</ele>
        <time>2018-07-24T09:37:47.000Z</time>
      </trkpt>
      <trkpt lat="42.498935" lon="-6.453876">
        <ele>1188.8199936</ele>
        <time>2018-07-24T09:37:47.990Z</time>
      </trkpt>
      <trkpt lat="42.49884" lon="-6.453976">
        <ele>1187.54961697803</ele>
        <time>2018-07-24T09:37:48.990Z</time>
      </trkpt>
      <trkpt lat="42.498737" lon="-6.45408">
        <ele>1186.59420101658</ele>
        <time>2018-07-24T09:37:49.990Z</time>
      </trkpt>
      <trkpt lat="42.498644" lon="-6.454198">
        <ele>1185.4099968</ele>
        <time>2018-07-24T09:37:50.990Z</time>
      </trkpt>
      <trkpt lat="42.49857" lon="-6.454336">
        <ele>1184.4</ele>
        <time>2018-07-24T09:37:52.000Z</time>
      </trkpt>
      <trkpt lat="42.498517" lon="-6.454475">
        <ele>1183.55302787879</ele>
        <time>2018-07-24T09:37:52.990Z</time>
      </trkpt>
      <trkpt lat="42.498472" lon="-6.454628">
        <ele>1182.72164526728</ele>
        <time>2018-07-24T09:37:53.990Z</time>
      </trkpt>
      <trkpt lat="42.498435" lon="-6.454786">
        <ele>1181.15491535813</ele>
        <time>2018-07-24T09:37:54.990Z</time>
      </trkpt>
      <trkpt lat="42.498403" lon="-6.454932">
        <ele>1178.7600128</ele>
        <time>2018-07-24T09:37:56.020Z</time>
      </trkpt>
      <trkpt lat="42.498373" lon="-6.455058">
        <ele>1177.56818424242</ele>
        <time>2018-07-24T09:37:56.970Z</time>
      </trkpt>
      <trkpt lat="42.498335" lon="-6.45518">
        <ele>1176.60293647059</ele>
        <time>2018-07-24T09:37:57.990Z</time>
      </trkpt>
      <trkpt lat="42.498293" lon="-6.455293">
        <ele>1176</ele>
        <time>2018-07-24T09:37:58.990Z</time>
      </trkpt>
      <trkpt lat="42.498191" lon="-6.455484">
        <ele>1173.8199936</ele>
        <time>2018-07-24T09:38:00.990Z</time>
      </trkpt>
      <trkpt lat="42.498066" lon="-6.455624">
        <ele>1173</ele>
        <time>2018-07-24T09:38:02.990Z</time>
      </trkpt>
      <trkpt lat="42.497936" lon="-6.455709">
        <ele>1172</ele>
        <time>2018-07-24T09:38:04.990Z</time>
      </trkpt>
      <trkpt lat="42.497822" lon="-6.455767">
        <ele>1171</ele>
        <time>2018-07-24T09:38:07.000Z</time>
      </trkpt>
      <trkpt lat="42.49773" lon="-6.455862">
        <ele>1171</ele>
        <time>2018-07-24T09:38:09.990Z</time>
      </trkpt>
      <trkpt lat="42.497804" lon="-6.455971">
        <ele>1169</ele>
        <time>2018-07-24T09:38:13.990Z</time>
      </trkpt>
      <trkpt lat="42.497925" lon="-6.456021">
        <ele>1167</ele>
        <time>2018-07-24T09:38:19.000Z</time>
      </trkpt>
      <trkpt lat="42.498005" lon="-6.456122">
        <ele>1165.44</ele>
        <time>2018-07-24T09:38:53.960Z</time>
      </trkpt>
      <trkpt lat="42.498101" lon="-6.456167">
        <ele>1165</ele>
        <time>2018-07-24T09:38:56.990Z</time>
      </trkpt>
      <trkpt lat="42.49822" lon="-6.456233">
        <ele>1164</ele>
        <time>2018-07-24T09:38:59.990Z</time>
      </trkpt>
      <trkpt lat="42.498336" lon="-6.456294">
        <ele>1162.4</ele>
        <time>2018-07-24T09:39:03.000Z</time>
      </trkpt>
      <trkpt lat="42.498412" lon="-6.456404">
        <ele>1162</ele>
        <time>2018-07-24T09:39:06.000Z</time>
      </trkpt>
      <trkpt lat="42.498472" lon="-6.456522">
        <ele>1161</ele>
        <time>2018-07-24T09:40:03.000Z</time>
      </trkpt>
      <trkpt lat="42.49857" lon="-6.456635">
        <ele>1160</ele>
        <time>2018-07-24T09:40:07.100Z</time>
      </trkpt>
      <trkpt lat="42.498643" lon="-6.456751">
        <ele>1159</ele>
        <time>2018-07-24T09:40:10.000Z</time>
      </trkpt>
      <trkpt lat="42.498721" lon="-6.456872">
        <ele>1158</ele>
        <time>2018-07-24T09:40:13.990Z</time>
      </trkpt>
      <trkpt lat="42.4988" lon="-6.456993">
        <ele>1158</ele>
        <time>2018-07-24T09:40:17.000Z</time>
      </trkpt>
      <trkpt lat="42.498912" lon="-6.457087">
        <ele>1156.4</ele>
        <time>2018-07-24T09:40:20.000Z</time>
      </trkpt>
      <trkpt lat="42.499005" lon="-6.457212">
        <ele>1156</ele>
        <time>2018-07-24T09:40:22.990Z</time>
      </trkpt>
      <trkpt lat="42.499092" lon="-6.457347">
        <ele>1154.54330867383</ele>
        <time>2018-07-24T09:40:26.000Z</time>
      </trkpt>
      <trkpt lat="42.499146" lon="-6.457457">
        <ele>1153.2700032</ele>
        <time>2018-07-24T09:40:28.130Z</time>
      </trkpt>
      <trkpt lat="42.499196" lon="-6.457606">
        <ele>1153</ele>
        <time>2018-07-24T09:40:30.000Z</time>
      </trkpt>
      <trkpt lat="42.499242" lon="-6.457762">
        <ele>1152.54198585164</ele>
        <time>2018-07-24T09:40:32.000Z</time>
      </trkpt>
      <trkpt lat="42.499303" lon="-6.457904">
        <ele>1151</ele>
        <time>2018-07-24T09:40:33.990Z</time>
      </trkpt>
      <trkpt lat="42.499406" lon="-6.458126">
        <ele>1150</ele>
        <time>2018-07-24T09:40:38.000Z</time>
      </trkpt>
      <trkpt lat="42.49948" lon="-6.458213">
        <ele>1149.40593871189</ele>
        <time>2018-07-24T09:40:40.000Z</time>
      </trkpt>
      <trkpt lat="42.499559" lon="-6.458297">
        <ele>1148.54198585164</ele>
        <time>2018-07-24T09:40:42.000Z</time>
      </trkpt>
      <trkpt lat="42.49965" lon="-6.458346">
        <ele>1148</ele>
        <time>2018-07-24T09:40:43.990Z</time>
      </trkpt>
      <trkpt lat="42.499753" lon="-6.458386">
        <ele>1147</ele>
        <time>2018-07-24T09:40:45.990Z</time>
      </trkpt>
      <trkpt lat="42.49986" lon="-6.458409">
        <ele>1146</ele>
        <time>2018-07-24T09:40:47.960Z</time>
      </trkpt>
      <trkpt lat="42.499959" lon="-6.458409">
        <ele>1146</ele>
        <time>2018-07-24T09:40:49.990Z</time>
      </trkpt>
      <trkpt lat="42.500059" lon="-6.458426">
        <ele>1145</ele>
        <time>2018-07-24T09:40:52.000Z</time>
      </trkpt>
      <trkpt lat="42.500162" lon="-6.458444">
        <ele>1143.4199936</ele>
        <time>2018-07-24T09:40:53.980Z</time>
      </trkpt>
      <trkpt lat="42.500259" lon="-6.458466">
        <ele>1142.4099968</ele>
        <time>2018-07-24T09:40:55.990Z</time>
      </trkpt>
      <trkpt lat="42.500382" lon="-6.458496">
        <ele>1141</ele>
        <time>2018-07-24T09:40:58.990Z</time>
      </trkpt>
      <trkpt lat="42.500476" lon="-6.45854">
        <ele>1140</ele>
        <time>2018-07-24T09:41:02.000Z</time>
      </trkpt>
      <trkpt lat="42.500569" lon="-6.458602">
        <ele>1138.4300032</ele>
        <time>2018-07-24T09:41:06.970Z</time>
      </trkpt>
      <trkpt lat="42.500648" lon="-6.458666">
        <ele>1138</ele>
        <time>2018-07-24T09:41:09.990Z</time>
      </trkpt>
      <trkpt lat="42.500746" lon="-6.458736">
        <ele>1138</ele>
        <time>2018-07-24T09:41:12.990Z</time>
      </trkpt>
      <trkpt lat="42.500826" lon="-6.458816">
        <ele>1138</ele>
        <time>2018-07-24T09:41:14.990Z</time>
      </trkpt>
      <trkpt lat="42.500915" lon="-6.458914">
        <ele>1137</ele>
        <time>2018-07-24T09:41:17.990Z</time>
      </trkpt>
      <trkpt lat="42.500986" lon="-6.458999">
        <ele>1136</ele>
        <time>2018-07-24T09:41:19.990Z</time>
      </trkpt>
      <trkpt lat="42.501071" lon="-6.45908">
        <ele>1135</ele>
        <time>2018-07-24T09:41:22.000Z</time>
      </trkpt>
      <trkpt lat="42.501151" lon="-6.459142">
        <ele>1134</ele>
        <time>2018-07-24T09:41:23.990Z</time>
      </trkpt>
      <trkpt lat="42.501259" lon="-6.459214">
        <ele>1133</ele>
        <time>2018-07-24T09:41:27.000Z</time>
      </trkpt>
      <trkpt lat="42.501347" lon="-6.459282">
        <ele>1133</ele>
        <time>2018-07-24T09:41:28.990Z</time>
      </trkpt>
      <trkpt lat="42.501432" lon="-6.459357">
        <ele>1131.4099968</ele>
        <time>2018-07-24T09:41:30.990Z</time>
      </trkpt>
      <trkpt lat="42.501525" lon="-6.45943">
        <ele>1130</ele>
        <time>2018-07-24T09:41:32.990Z</time>
      </trkpt>
      <trkpt lat="42.50161" lon="-6.459491">
        <ele>1129.4099968</ele>
        <time>2018-07-24T09:41:34.990Z</time>
      </trkpt>
      <trkpt lat="42.50171" lon="-6.459589">
        <ele>1129</ele>
        <time>2018-07-24T09:41:38.000Z</time>
      </trkpt>
      <trkpt lat="42.501794" lon="-6.459665">
        <ele>1128.54198585164</ele>
        <time>2018-07-24T09:41:40.000Z</time>
      </trkpt>
      <trkpt lat="42.501879" lon="-6.459759">
        <ele>1128</ele>
        <time>2018-07-24T09:41:42.000Z</time>
      </trkpt>
      <trkpt lat="42.501966" lon="-6.459857">
        <ele>1127</ele>
        <time>2018-07-24T09:41:44.000Z</time>
      </trkpt>
      <trkpt lat="42.502061" lon="-6.45996">
        <ele>1125.4</ele>
        <time>2018-07-24T09:41:46.000Z</time>
      </trkpt>
      <trkpt lat="42.502155" lon="-6.460065">
        <ele>1124.54198585164</ele>
        <time>2018-07-24T09:41:48.000Z</time>
      </trkpt>
      <trkpt lat="42.502246" lon="-6.460164">
        <ele>1124</ele>
        <time>2018-07-24T09:41:50.000Z</time>
      </trkpt>
      <trkpt lat="42.502346" lon="-6.460261">
        <ele>1123.4</ele>
        <time>2018-07-24T09:41:52.000Z</time>
      </trkpt>
      <trkpt lat="42.502444" lon="-6.460351">
        <ele>1122.4</ele>
        <time>2018-07-24T09:41:54.000Z</time>
      </trkpt>
      <trkpt lat="42.502545" lon="-6.460438">
        <ele>1122</ele>
        <time>2018-07-24T09:41:56.000Z</time>
      </trkpt>
      <trkpt lat="42.502645" lon="-6.460518">
        <ele>1122</ele>
        <time>2018-07-24T09:41:58.000Z</time>
      </trkpt>
      <trkpt lat="42.502747" lon="-6.460594">
        <ele>1122</ele>
        <time>2018-07-24T09:42:00.000Z</time>
      </trkpt>
      <trkpt lat="42.50285" lon="-6.460674">
        <ele>1122</ele>
        <time>2018-07-24T09:42:02.000Z</time>
      </trkpt>
      <trkpt lat="42.502959" lon="-6.460772">
        <ele>1121.54545454545</ele>
        <time>2018-07-24T09:42:04.000Z</time>
      </trkpt>
      <trkpt lat="42.50307" lon="-6.460903">
        <ele>1120.4</ele>
        <time>2018-07-24T09:42:06.000Z</time>
      </trkpt>
      <trkpt lat="42.503181" lon="-6.461066">
        <ele>1118.4</ele>
        <time>2018-07-24T09:42:08.000Z</time>
      </trkpt>
      <trkpt lat="42.503293" lon="-6.461251">
        <ele>1116.54198585164</ele>
        <time>2018-07-24T09:42:10.000Z</time>
      </trkpt>
      <trkpt lat="42.503355" lon="-6.461342">
        <ele>1115.59420101658</ele>
        <time>2018-07-24T09:42:10.990Z</time>
      </trkpt>
      <trkpt lat="42.503423" lon="-6.461434">
        <ele>1114.4099968</ele>
        <time>2018-07-24T09:42:11.990Z</time>
      </trkpt>
      <trkpt lat="42.503494" lon="-6.46152">
        <ele>1113.4099968</ele>
        <time>2018-07-24T09:42:12.990Z</time>
      </trkpt>
      <trkpt lat="42.503567" lon="-6.461602">
        <ele>1112.4099968</ele>
        <time>2018-07-24T09:42:13.990Z</time>
      </trkpt>
      <trkpt lat="42.503642" lon="-6.461682">
        <ele>1112</ele>
        <time>2018-07-24T09:42:15.000Z</time>
      </trkpt>
      <trkpt lat="42.503715" lon="-6.461762">
        <ele>1111.54961697803</ele>
        <time>2018-07-24T09:42:15.990Z</time>
      </trkpt>
      <trkpt lat="42.503786" lon="-6.461844">
        <ele>1110.59420101658</ele>
        <time>2018-07-24T09:42:16.990Z</time>
      </trkpt>
      <trkpt lat="42.50386" lon="-6.461932">
        <ele>1110</ele>
        <time>2018-07-24T09:42:17.990Z</time>
      </trkpt>
      <trkpt lat="42.503937" lon="-6.462017">
        <ele>1109.4099968</ele>
        <time>2018-07-24T09:42:18.990Z</time>
      </trkpt>
      <trkpt lat="42.504015" lon="-6.462102">
        <ele>1109</ele>
        <time>2018-07-24T09:42:20.000Z</time>
      </trkpt>
      <trkpt lat="42.504089" lon="-6.462184">
        <ele>1108.7058779239</ele>
        <time>2018-07-24T09:42:20.990Z</time>
      </trkpt>
      <trkpt lat="42.504164" lon="-6.462258">
        <ele>1108</ele>
        <time>2018-07-24T09:42:22.020Z</time>
      </trkpt>
      <trkpt lat="42.504241" lon="-6.462331">
        <ele>1107.4099968</ele>
        <time>2018-07-24T09:42:22.990Z</time>
      </trkpt>
      <trkpt lat="42.504316" lon="-6.462398">
        <ele>1106.44</ele>
        <time>2018-07-24T09:42:23.960Z</time>
      </trkpt>
      <trkpt lat="42.504393" lon="-6.462471">
        <ele>1106</ele>
        <time>2018-07-24T09:42:25.000Z</time>
      </trkpt>
      <trkpt lat="42.504528" lon="-6.462614">
        <ele>1106</ele>
        <time>2018-07-24T09:42:26.990Z</time>
      </trkpt>
      <trkpt lat="42.504597" lon="-6.462699">
        <ele>1106</ele>
        <time>2018-07-24T09:42:27.990Z</time>
      </trkpt>
      <trkpt lat="42.504662" lon="-6.462792">
        <ele>1106</ele>
        <time>2018-07-24T09:42:28.990Z</time>
      </trkpt>
      <trkpt lat="42.504724" lon="-6.462888">
        <ele>1105.4</ele>
        <time>2018-07-24T09:42:30.000Z</time>
      </trkpt>
      <trkpt lat="42.504786" lon="-6.462988">
        <ele>1104.4099968</ele>
        <time>2018-07-24T09:42:30.990Z</time>
      </trkpt>
      <trkpt lat="42.50485" lon="-6.463094">
        <ele>1103.55302787879</ele>
        <time>2018-07-24T09:42:31.990Z</time>
      </trkpt>
      <trkpt lat="42.504914" lon="-6.463206">
        <ele>1102.60293647059</ele>
        <time>2018-07-24T09:42:32.990Z</time>
      </trkpt>
      <trkpt lat="42.504971" lon="-6.463314">
        <ele>1102</ele>
        <time>2018-07-24T09:42:33.990Z</time>
      </trkpt>
      <trkpt lat="42.505021" lon="-6.463422">
        <ele>1102</ele>
        <time>2018-07-24T09:42:35.000Z</time>
      </trkpt>
      <trkpt lat="42.505112" lon="-6.463618">
        <ele>1101</ele>
        <time>2018-07-24T09:42:36.990Z</time>
      </trkpt>
      <trkpt lat="42.505173" lon="-6.463754">
        <ele>1101</ele>
        <time>2018-07-24T09:42:38.990Z</time>
      </trkpt>
      <trkpt lat="42.505241" lon="-6.463904">
        <ele>1100.44</ele>
        <time>2018-07-24T09:42:41.960Z</time>
      </trkpt>
      <trkpt lat="42.505303" lon="-6.464046">
        <ele>1100</ele>
        <time>2018-07-24T09:42:43.990Z</time>
      </trkpt>
      <trkpt lat="42.50537" lon="-6.464184">
        <ele>1099</ele>
        <time>2018-07-24T09:42:45.990Z</time>
      </trkpt>
      <trkpt lat="42.50545" lon="-6.464342">
        <ele>1098</ele>
        <time>2018-07-24T09:42:47.990Z</time>
      </trkpt>
      <trkpt lat="42.505532" lon="-6.46448">
        <ele>1097</ele>
        <time>2018-07-24T09:42:50.000Z</time>
      </trkpt>
      <trkpt lat="42.505619" lon="-6.46463">
        <ele>1096.4099968</ele>
        <time>2018-07-24T09:42:51.990Z</time>
      </trkpt>
      <trkpt lat="42.505707" lon="-6.46478">
        <ele>1096</ele>
        <time>2018-07-24T09:42:53.990Z</time>
      </trkpt>
      <trkpt lat="42.505779" lon="-6.464922">
        <ele>1096</ele>
        <time>2018-07-24T09:42:55.990Z</time>
      </trkpt>
      <trkpt lat="42.50585" lon="-6.465066">
        <ele>1094.54263204374</ele>
        <time>2018-07-24T09:42:57.990Z</time>
      </trkpt>
      <trkpt lat="42.505915" lon="-6.465202">
        <ele>1092.3699968</ele>
        <time>2018-07-24T09:43:00.030Z</time>
      </trkpt>
      <trkpt lat="42.505979" lon="-6.465322">
        <ele>1091</ele>
        <time>2018-07-24T09:43:01.990Z</time>
      </trkpt>
      <trkpt lat="42.506048" lon="-6.465457">
        <ele>1091</ele>
        <time>2018-07-24T09:43:03.990Z</time>
      </trkpt>
      <trkpt lat="42.506119" lon="-6.465604">
        <ele>1090</ele>
        <time>2018-07-24T09:43:05.990Z</time>
      </trkpt>
      <trkpt lat="42.506191" lon="-6.465757">
        <ele>1089</ele>
        <time>2018-07-24T09:43:07.990Z</time>
      </trkpt>
      <trkpt lat="42.506277" lon="-6.465917">
        <ele>1087.54198585164</ele>
        <time>2018-07-24T09:43:10.000Z</time>
      </trkpt>
      <trkpt lat="42.506362" lon="-6.466071">
        <ele>1086.4099968</ele>
        <time>2018-07-24T09:43:11.990Z</time>
      </trkpt>
      <trkpt lat="42.506444" lon="-6.466219">
        <ele>1085</ele>
        <time>2018-07-24T09:43:13.990Z</time>
      </trkpt>
      <trkpt lat="42.506516" lon="-6.466337">
        <ele>1084.54961697803</ele>
        <time>2018-07-24T09:43:15.990Z</time>
      </trkpt>
      <trkpt lat="42.506585" lon="-6.466451">
        <ele>1084</ele>
        <time>2018-07-24T09:43:17.990Z</time>
      </trkpt>
      <trkpt lat="42.506645" lon="-6.466573">
        <ele>1083</ele>
        <time>2018-07-24T09:43:19.970Z</time>
      </trkpt>
      <trkpt lat="42.506718" lon="-6.466718">
        <ele>1082.4099968</ele>
        <time>2018-07-24T09:43:21.990Z</time>
      </trkpt>
      <trkpt lat="42.506788" lon="-6.466862">
        <ele>1082</ele>
        <time>2018-07-24T09:43:23.990Z</time>
      </trkpt>
      <trkpt lat="42.506857" lon="-6.467">
        <ele>1081</ele>
        <time>2018-07-24T09:43:25.990Z</time>
      </trkpt>
      <trkpt lat="42.506937" lon="-6.467134">
        <ele>1079.4099968</ele>
        <time>2018-07-24T09:43:27.990Z</time>
      </trkpt>
      <trkpt lat="42.507025" lon="-6.467262">
        <ele>1077.4</ele>
        <time>2018-07-24T09:43:30.000Z</time>
      </trkpt>
      <trkpt lat="42.507118" lon="-6.467383">
        <ele>1077</ele>
        <time>2018-07-24T09:43:31.990Z</time>
      </trkpt>
      <trkpt lat="42.507222" lon="-6.467496">
        <ele>1075.55384342723</ele>
        <time>2018-07-24T09:43:33.990Z</time>
      </trkpt>
      <trkpt lat="42.507332" lon="-6.467608">
        <ele>1074.54263204374</ele>
        <time>2018-07-24T09:43:35.990Z</time>
      </trkpt>
      <trkpt lat="42.507444" lon="-6.467719">
        <ele>1072.3800064</ele>
        <time>2018-07-24T09:43:38.020Z</time>
      </trkpt>
      <trkpt lat="42.50755" lon="-6.467812">
        <ele>1070.54198585164</ele>
        <time>2018-07-24T09:43:40.000Z</time>
      </trkpt>
      <trkpt lat="42.507657" lon="-6.467893">
        <ele>1068.4099968</ele>
        <time>2018-07-24T09:43:41.990Z</time>
      </trkpt>
      <trkpt lat="42.507769" lon="-6.467962">
        <ele>1067</ele>
        <time>2018-07-24T09:43:43.990Z</time>
      </trkpt>
      <trkpt lat="42.507894" lon="-6.467988">
        <ele>1065.4099968</ele>
        <time>2018-07-24T09:43:45.990Z</time>
      </trkpt>
      <trkpt lat="42.508024" lon="-6.467943">
        <ele>1063.55384342723</ele>
        <time>2018-07-24T09:43:47.990Z</time>
      </trkpt>
      <trkpt lat="42.508138" lon="-6.467855">
        <ele>1061.4</ele>
        <time>2018-07-24T09:43:50.000Z</time>
      </trkpt>
      <trkpt lat="42.508258" lon="-6.467783">
        <ele>1059.4099968</ele>
        <time>2018-07-24T09:43:51.990Z</time>
      </trkpt>
      <trkpt lat="42.508391" lon="-6.467761">
        <ele>1058.4099968</ele>
        <time>2018-07-24T09:43:53.990Z</time>
      </trkpt>
      <trkpt lat="42.508536" lon="-6.467763">
        <ele>1056.72277139888</ele>
        <time>2018-07-24T09:43:55.990Z</time>
      </trkpt>
      <trkpt lat="42.508693" lon="-6.467775">
        <ele>1053.86272541318</ele>
        <time>2018-07-24T09:43:57.980Z</time>
      </trkpt>
      <trkpt lat="42.508863" lon="-6.467797">
        <ele>1051.4</ele>
        <time>2018-07-24T09:44:00.000Z</time>
      </trkpt>
      <trkpt lat="42.509034" lon="-6.467818">
        <ele>1048</ele>
        <time>2018-07-24T09:44:01.990Z</time>
      </trkpt>
      <trkpt lat="42.509199" lon="-6.467858">
        <ele>1046.4099968</ele>
        <time>2018-07-24T09:44:03.990Z</time>
      </trkpt>
      <trkpt lat="42.509364" lon="-6.467911">
        <ele>1045.4099968</ele>
        <time>2018-07-24T09:44:05.990Z</time>
      </trkpt>
      <trkpt lat="42.509522" lon="-6.467989">
        <ele>1044</ele>
        <time>2018-07-24T09:44:07.990Z</time>
      </trkpt>
      <trkpt lat="42.509671" lon="-6.46808">
        <ele>1044</ele>
        <time>2018-07-24T09:44:10.000Z</time>
      </trkpt>
      <trkpt lat="42.509809" lon="-6.468193">
        <ele>1044</ele>
        <time>2018-07-24T09:44:11.990Z</time>
      </trkpt>
      <trkpt lat="42.509938" lon="-6.468325">
        <ele>1042.63353765672</ele>
        <time>2018-07-24T09:44:13.990Z</time>
      </trkpt>
      <trkpt lat="42.510074" lon="-6.468468">
        <ele>1042</ele>
        <time>2018-07-24T09:44:16.020Z</time>
      </trkpt>
      <trkpt lat="42.510199" lon="-6.468615">
        <ele>1041</ele>
        <time>2018-07-24T09:44:17.990Z</time>
      </trkpt>
      <trkpt lat="42.510329" lon="-6.468763">
        <ele>1040.54198585164</ele>
        <time>2018-07-24T09:44:20.000Z</time>
      </trkpt>
      <trkpt lat="42.510447" lon="-6.468903">
        <ele>1040</ele>
        <time>2018-07-24T09:44:21.990Z</time>
      </trkpt>
      <trkpt lat="42.510568" lon="-6.46905">
        <ele>1039</ele>
        <time>2018-07-24T09:44:23.990Z</time>
      </trkpt>
      <trkpt lat="42.510686" lon="-6.469188">
        <ele>1038</ele>
        <time>2018-07-24T09:44:25.990Z</time>
      </trkpt>
      <trkpt lat="42.510807" lon="-6.469321">
        <ele>1038</ele>
        <time>2018-07-24T09:44:27.990Z</time>
      </trkpt>
      <trkpt lat="42.510925" lon="-6.469455">
        <ele>1036.4</ele>
        <time>2018-07-24T09:44:30.000Z</time>
      </trkpt>
      <trkpt lat="42.511046" lon="-6.469591">
        <ele>1036</ele>
        <time>2018-07-24T09:44:31.990Z</time>
      </trkpt>
      <trkpt lat="42.511173" lon="-6.469729">
        <ele>1035</ele>
        <time>2018-07-24T09:44:33.990Z</time>
      </trkpt>
      <trkpt lat="42.511301" lon="-6.469865">
        <ele>1034</ele>
        <time>2018-07-24T09:44:35.990Z</time>
      </trkpt>
      <trkpt lat="42.511425" lon="-6.470002">
        <ele>1033</ele>
        <time>2018-07-24T09:44:37.990Z</time>
      </trkpt>
      <trkpt lat="42.511557" lon="-6.470142">
        <ele>1031.40593871189</ele>
        <time>2018-07-24T09:44:40.000Z</time>
      </trkpt>
      <trkpt lat="42.511688" lon="-6.470278">
        <ele>1030</ele>
        <time>2018-07-24T09:44:41.990Z</time>
      </trkpt>
      <trkpt lat="42.511811" lon="-6.470413">
        <ele>1029.54961697803</ele>
        <time>2018-07-24T09:44:43.990Z</time>
      </trkpt>
      <trkpt lat="42.511931" lon="-6.470551">
        <ele>1028</ele>
        <time>2018-07-24T09:44:45.990Z</time>
      </trkpt>
      <trkpt lat="42.512042" lon="-6.470687">
        <ele>1026.4099968</ele>
        <time>2018-07-24T09:44:47.990Z</time>
      </trkpt>
      <trkpt lat="42.51214" lon="-6.470808">
        <ele>1024.4</ele>
        <time>2018-07-24T09:44:50.000Z</time>
      </trkpt>
      <trkpt lat="42.512245" lon="-6.470944">
        <ele>1023.63580193263</ele>
        <time>2018-07-24T09:44:51.990Z</time>
      </trkpt>
      <trkpt lat="42.51235" lon="-6.471078">
        <ele>1022.3800064</ele>
        <time>2018-07-24T09:44:54.020Z</time>
      </trkpt>
      <trkpt lat="42.512451" lon="-6.471217">
        <ele>1020.4099968</ele>
        <time>2018-07-24T09:44:55.990Z</time>
      </trkpt>
      <trkpt lat="42.512562" lon="-6.47136">
        <ele>1018.54961697803</ele>
        <time>2018-07-24T09:44:57.990Z</time>
      </trkpt>
      <trkpt lat="42.512678" lon="-6.471511">
        <ele>1016.4</ele>
        <time>2018-07-24T09:45:00.000Z</time>
      </trkpt>
      <trkpt lat="42.512789" lon="-6.471666">
        <ele>1014</ele>
        <time>2018-07-24T09:45:01.990Z</time>
      </trkpt>
      <trkpt lat="42.512906" lon="-6.471816">
        <ele>1012.54961697803</ele>
        <time>2018-07-24T09:45:03.990Z</time>
      </trkpt>
      <trkpt lat="42.513022" lon="-6.471948">
        <ele>1012</ele>
        <time>2018-07-24T09:45:05.990Z</time>
      </trkpt>
      <trkpt lat="42.513154" lon="-6.472018">
        <ele>1010.4099968</ele>
        <time>2018-07-24T09:45:07.990Z</time>
      </trkpt>
      <trkpt lat="42.513304" lon="-6.47199">
        <ele>1009.53125</ele>
        <time>2018-07-24T09:45:10.000Z</time>
      </trkpt>
      <trkpt lat="42.51347" lon="-6.471919">
        <ele>1007.33982030347</ele>
        <time>2018-07-24T09:45:12.020Z</time>
      </trkpt>
      <trkpt lat="42.513557" lon="-6.471882">
        <ele>1005.59420101658</ele>
        <time>2018-07-24T09:45:12.990Z</time>
      </trkpt>
      <trkpt lat="42.513645" lon="-6.471848">
        <ele>1005</ele>
        <time>2018-07-24T09:45:13.990Z</time>
      </trkpt>
      <trkpt lat="42.513823" lon="-6.471801">
        <ele>1004</ele>
        <time>2018-07-24T09:45:15.990Z</time>
      </trkpt>
      <trkpt lat="42.513918" lon="-6.471786">
        <ele>1004</ele>
        <time>2018-07-24T09:45:16.990Z</time>
      </trkpt>
      <trkpt lat="42.514013" lon="-6.471775">
        <ele>1003.59420101658</ele>
        <time>2018-07-24T09:45:17.990Z</time>
      </trkpt>
      <trkpt lat="42.514107" lon="-6.471767">
        <ele>1001.8199936</ele>
        <time>2018-07-24T09:45:18.990Z</time>
      </trkpt>
      <trkpt lat="42.514206" lon="-6.471758">
        <ele>1000.4</ele>
        <time>2018-07-24T09:45:20.000Z</time>
      </trkpt>
      <trkpt lat="42.5143" lon="-6.471752">
        <ele>1000</ele>
        <time>2018-07-24T09:45:20.990Z</time>
      </trkpt>
      <trkpt lat="42.514471" lon="-6.471729">
        <ele>999.553027878788</ele>
        <time>2018-07-24T09:45:22.990Z</time>
      </trkpt>
      <trkpt lat="42.514635" lon="-6.471663">
        <ele>999</ele>
        <time>2018-07-24T09:45:25.000Z</time>
      </trkpt>
      <trkpt lat="42.514751" lon="-6.471506">
        <ele>1000</ele>
        <time>2018-07-24T09:45:26.990Z</time>
      </trkpt>
      <trkpt lat="42.51485" lon="-6.471302">
        <ele>999.553027878788</ele>
        <time>2018-07-24T09:45:28.990Z</time>
      </trkpt>
      <trkpt lat="42.514904" lon="-6.471195">
        <ele>998.711339253903</ele>
        <time>2018-07-24T09:45:30.000Z</time>
      </trkpt>
      <trkpt lat="42.514967" lon="-6.471096">
        <ele>997.154915358128</ele>
        <time>2018-07-24T09:45:30.990Z</time>
      </trkpt>
      <trkpt lat="42.51505" lon="-6.470992">
        <ele>995.3800064</ele>
        <time>2018-07-24T09:45:32.020Z</time>
      </trkpt>
      <trkpt lat="42.515131" lon="-6.470918">
        <ele>994.575757575758</ele>
        <time>2018-07-24T09:45:32.960Z</time>
      </trkpt>
      <trkpt lat="42.515227" lon="-6.470865">
        <ele>993.602936470588</ele>
        <time>2018-07-24T09:45:33.990Z</time>
      </trkpt>
      <trkpt lat="42.515326" lon="-6.470829">
        <ele>993</ele>
        <time>2018-07-24T09:45:35.000Z</time>
      </trkpt>
      <trkpt lat="42.515422" lon="-6.470804">
        <ele>992.4099968</ele>
        <time>2018-07-24T09:45:35.990Z</time>
      </trkpt>
      <trkpt lat="42.515515" lon="-6.470763">
        <ele>992</ele>
        <time>2018-07-24T09:45:36.990Z</time>
      </trkpt>
      <trkpt lat="42.515601" lon="-6.470707">
        <ele>992</ele>
        <time>2018-07-24T09:45:37.990Z</time>
      </trkpt>
      <trkpt lat="42.51568" lon="-6.47064">
        <ele>992</ele>
        <time>2018-07-24T09:45:38.990Z</time>
      </trkpt>
      <trkpt lat="42.515767" lon="-6.47057">
        <ele>991.4</ele>
        <time>2018-07-24T09:45:40.000Z</time>
      </trkpt>
      <trkpt lat="42.515865" lon="-6.470519">
        <ele>990.4099968</ele>
        <time>2018-07-24T09:45:40.990Z</time>
      </trkpt>
      <trkpt lat="42.51597" lon="-6.470494">
        <ele>988.8199936</ele>
        <time>2018-07-24T09:45:41.990Z</time>
      </trkpt>
      <trkpt lat="42.516082" lon="-6.470495">
        <ele>987.106055757576</ele>
        <time>2018-07-24T09:45:42.990Z</time>
      </trkpt>
      <trkpt lat="42.516182" lon="-6.47052">
        <ele>986</ele>
        <time>2018-07-24T09:45:43.990Z</time>
      </trkpt>
      <trkpt lat="42.516282" lon="-6.470563">
        <ele>985.4</ele>
        <time>2018-07-24T09:45:45.000Z</time>
      </trkpt>
      <trkpt lat="42.516365" lon="-6.470634">
        <ele>985</ele>
        <time>2018-07-24T09:45:45.990Z</time>
      </trkpt>
      <trkpt lat="42.516437" lon="-6.470725">
        <ele>985</ele>
        <time>2018-07-24T09:45:46.990Z</time>
      </trkpt>
      <trkpt lat="42.516498" lon="-6.470831">
        <ele>985</ele>
        <time>2018-07-24T09:45:47.990Z</time>
      </trkpt>
      <trkpt lat="42.516552" lon="-6.47094">
        <ele>985</ele>
        <time>2018-07-24T09:45:48.990Z</time>
      </trkpt>
      <trkpt lat="42.516608" lon="-6.471049">
        <ele>984.563377742523</ele>
        <time>2018-07-24T09:45:50.000Z</time>
      </trkpt>
      <trkpt lat="42.516664" lon="-6.471159">
        <ele>983.3799936</ele>
        <time>2018-07-24T09:45:51.020Z</time>
      </trkpt>
      <trkpt lat="42.516717" lon="-6.471264">
        <ele>982.44</ele>
        <time>2018-07-24T09:45:51.960Z</time>
      </trkpt>
      <trkpt lat="42.516776" lon="-6.471378">
        <ele>982</ele>
        <time>2018-07-24T09:45:52.990Z</time>
      </trkpt>
      <trkpt lat="42.516834" lon="-6.47149">
        <ele>981.594201016584</ele>
        <time>2018-07-24T09:45:53.990Z</time>
      </trkpt>
      <trkpt lat="42.516888" lon="-6.471604">
        <ele>981</ele>
        <time>2018-07-24T09:45:55.000Z</time>
      </trkpt>
      <trkpt lat="42.516942" lon="-6.471711">
        <ele>981</ele>
        <time>2018-07-24T09:45:55.990Z</time>
      </trkpt>
      <trkpt lat="42.516997" lon="-6.471823">
        <ele>981</ele>
        <time>2018-07-24T09:45:56.990Z</time>
      </trkpt>
      <trkpt lat="42.51705" lon="-6.471932">
        <ele>981</ele>
        <time>2018-07-24T09:45:57.990Z</time>
      </trkpt>
      <trkpt lat="42.517099" lon="-6.472039">
        <ele>980.602936470588</ele>
        <time>2018-07-24T09:45:58.990Z</time>
      </trkpt>
      <trkpt lat="42.517152" lon="-6.472145">
        <ele>980</ele>
        <time>2018-07-24T09:46:00.000Z</time>
      </trkpt>
      <trkpt lat="42.517203" lon="-6.472249">
        <ele>979.4099968</ele>
        <time>2018-07-24T09:46:00.990Z</time>
      </trkpt>
      <trkpt lat="42.517253" lon="-6.472353">
        <ele>979</ele>
        <time>2018-07-24T09:46:01.990Z</time>
      </trkpt>
      <trkpt lat="42.517305" lon="-6.472455">
        <ele>978.553027878788</ele>
        <time>2018-07-24T09:46:02.990Z</time>
      </trkpt>
      <trkpt lat="42.517356" lon="-6.472559">
        <ele>977.602936470588</ele>
        <time>2018-07-24T09:46:03.990Z</time>
      </trkpt>
      <trkpt lat="42.517407" lon="-6.47266">
        <ele>977</ele>
        <time>2018-07-24T09:46:05.000Z</time>
      </trkpt>
      <trkpt lat="42.517498" lon="-6.472837">
        <ele>977</ele>
        <time>2018-07-24T09:46:06.990Z</time>
      </trkpt>
      <trkpt lat="42.517586" lon="-6.473006">
        <ele>977</ele>
        <time>2018-07-24T09:46:08.990Z</time>
      </trkpt>
      <trkpt lat="42.517674" lon="-6.473178">
        <ele>977</ele>
        <time>2018-07-24T09:46:10.990Z</time>
      </trkpt>
      <trkpt lat="42.517757" lon="-6.473346">
        <ele>977</ele>
        <time>2018-07-24T09:46:12.990Z</time>
      </trkpt>
      <trkpt lat="42.517845" lon="-6.473519">
        <ele>976.4</ele>
        <time>2018-07-24T09:46:15.000Z</time>
      </trkpt>
      <trkpt lat="42.517932" lon="-6.473693">
        <ele>975.553027878788</ele>
        <time>2018-07-24T09:46:16.990Z</time>
      </trkpt>
      <trkpt lat="42.518018" lon="-6.473858">
        <ele>975</ele>
        <time>2018-07-24T09:46:18.990Z</time>
      </trkpt>
      <trkpt lat="42.518105" lon="-6.474038">
        <ele>975</ele>
        <time>2018-07-24T09:46:20.990Z</time>
      </trkpt>
      <trkpt lat="42.518197" lon="-6.474226">
        <ele>974.553027878788</ele>
        <time>2018-07-24T09:46:22.990Z</time>
      </trkpt>
      <trkpt lat="42.51825" lon="-6.474326">
        <ele>973.602936470588</ele>
        <time>2018-07-24T09:46:23.990Z</time>
      </trkpt>
      <trkpt lat="42.518302" lon="-6.474432">
        <ele>973</ele>
        <time>2018-07-24T09:46:25.000Z</time>
      </trkpt>
      <trkpt lat="42.518395" lon="-6.474624">
        <ele>972</ele>
        <time>2018-07-24T09:46:26.990Z</time>
      </trkpt>
      <trkpt lat="42.518494" lon="-6.474812">
        <ele>971</ele>
        <time>2018-07-24T09:46:29.020Z</time>
      </trkpt>
      <trkpt lat="42.518587" lon="-6.474987">
        <ele>970.5900032</ele>
        <time>2018-07-24T09:46:30.990Z</time>
      </trkpt>
      <trkpt lat="42.518671" lon="-6.475169">
        <ele>970.4099968</ele>
        <time>2018-07-24T09:46:32.990Z</time>
      </trkpt>
      <trkpt lat="42.518761" lon="-6.475336">
        <ele>970</ele>
        <time>2018-07-24T09:46:35.000Z</time>
      </trkpt>
      <trkpt lat="42.518848" lon="-6.47551">
        <ele>969.4099968</ele>
        <time>2018-07-24T09:46:36.990Z</time>
      </trkpt>
      <trkpt lat="42.518933" lon="-6.475682">
        <ele>969</ele>
        <time>2018-07-24T09:46:38.990Z</time>
      </trkpt>
      <trkpt lat="42.519018" lon="-6.475846">
        <ele>969</ele>
        <time>2018-07-24T09:46:40.990Z</time>
      </trkpt>
      <trkpt lat="42.519095" lon="-6.476014">
        <ele>969</ele>
        <time>2018-07-24T09:46:42.990Z</time>
      </trkpt>
      <trkpt lat="42.519171" lon="-6.476176">
        <ele>968</ele>
        <time>2018-07-24T09:46:45.000Z</time>
      </trkpt>
      <trkpt lat="42.519244" lon="-6.476335">
        <ele>968</ele>
        <time>2018-07-24T09:46:46.990Z</time>
      </trkpt>
      <trkpt lat="42.519315" lon="-6.476492">
        <ele>968</ele>
        <time>2018-07-24T09:46:48.960Z</time>
      </trkpt>
      <trkpt lat="42.519387" lon="-6.476654">
        <ele>968</ele>
        <time>2018-07-24T09:46:50.990Z</time>
      </trkpt>
      <trkpt lat="42.519455" lon="-6.476795">
        <ele>968</ele>
        <time>2018-07-24T09:46:52.990Z</time>
      </trkpt>
      <trkpt lat="42.519529" lon="-6.476935">
        <ele>967.545454545455</ele>
        <time>2018-07-24T09:46:55.000Z</time>
      </trkpt>
      <trkpt lat="42.519608" lon="-6.477066">
        <ele>967</ele>
        <time>2018-07-24T09:46:56.990Z</time>
      </trkpt>
      <trkpt lat="42.519702" lon="-6.477176">
        <ele>967</ele>
        <time>2018-07-24T09:46:58.990Z</time>
      </trkpt>
      <trkpt lat="42.519804" lon="-6.477272">
        <ele>966.4099968</ele>
        <time>2018-07-24T09:47:00.990Z</time>
      </trkpt>
      <trkpt lat="42.519917" lon="-6.477348">
        <ele>966</ele>
        <time>2018-07-24T09:47:02.990Z</time>
      </trkpt>
      <trkpt lat="42.520039" lon="-6.477426">
        <ele>965</ele>
        <time>2018-07-24T09:47:05.000Z</time>
      </trkpt>
      <trkpt lat="42.520168" lon="-6.477508">
        <ele>964</ele>
        <time>2018-07-24T09:47:07.020Z</time>
      </trkpt>
      <trkpt lat="42.520284" lon="-6.477585">
        <ele>963</ele>
        <time>2018-07-24T09:47:08.990Z</time>
      </trkpt>
      <trkpt lat="42.520403" lon="-6.477664">
        <ele>962</ele>
        <time>2018-07-24T09:47:10.990Z</time>
      </trkpt>
      <trkpt lat="42.52052" lon="-6.477741">
        <ele>961.4099968</ele>
        <time>2018-07-24T09:47:12.990Z</time>
      </trkpt>
      <trkpt lat="42.520646" lon="-6.477817">
        <ele>960</ele>
        <time>2018-07-24T09:47:15.000Z</time>
      </trkpt>
      <trkpt lat="42.52078" lon="-6.477878">
        <ele>960</ele>
        <time>2018-07-24T09:47:16.990Z</time>
      </trkpt>
      <trkpt lat="42.520923" lon="-6.477931">
        <ele>959</ele>
        <time>2018-07-24T09:47:18.990Z</time>
      </trkpt>
      <trkpt lat="42.521063" lon="-6.477974">
        <ele>959</ele>
        <time>2018-07-24T09:47:20.990Z</time>
      </trkpt>
      <trkpt lat="42.521208" lon="-6.478037">
        <ele>958</ele>
        <time>2018-07-24T09:47:22.990Z</time>
      </trkpt>
      <trkpt lat="42.521336" lon="-6.478123">
        <ele>957</ele>
        <time>2018-07-24T09:47:25.000Z</time>
      </trkpt>
      <trkpt lat="42.521464" lon="-6.47824">
        <ele>956.4099968</ele>
        <time>2018-07-24T09:47:26.990Z</time>
      </trkpt>
      <trkpt lat="42.521587" lon="-6.478373">
        <ele>954.4099968</ele>
        <time>2018-07-24T09:47:28.990Z</time>
      </trkpt>
      <trkpt lat="42.52171" lon="-6.478514">
        <ele>954</ele>
        <time>2018-07-24T09:47:30.990Z</time>
      </trkpt>
      <trkpt lat="42.521839" lon="-6.478646">
        <ele>953.4099968</ele>
        <time>2018-07-24T09:47:32.990Z</time>
      </trkpt>
      <trkpt lat="42.521977" lon="-6.478745">
        <ele>952</ele>
        <time>2018-07-24T09:47:35.000Z</time>
      </trkpt>
      <trkpt lat="42.522116" lon="-6.478823">
        <ele>952</ele>
        <time>2018-07-24T09:47:36.990Z</time>
      </trkpt>
      <trkpt lat="42.522259" lon="-6.478894">
        <ele>952</ele>
        <time>2018-07-24T09:47:38.990Z</time>
      </trkpt>
      <trkpt lat="42.522399" lon="-6.478965">
        <ele>952</ele>
        <time>2018-07-24T09:47:40.990Z</time>
      </trkpt>
      <trkpt lat="42.522533" lon="-6.479026">
        <ele>950.542632043738</ele>
        <time>2018-07-24T09:47:42.990Z</time>
      </trkpt>
      <trkpt lat="42.522674" lon="-6.479057">
        <ele>951</ele>
        <time>2018-07-24T09:47:45.030Z</time>
      </trkpt>
      <trkpt lat="42.522799" lon="-6.479013">
        <ele>950.4099968</ele>
        <time>2018-07-24T09:47:46.990Z</time>
      </trkpt>
      <trkpt lat="42.522896" lon="-6.478908">
        <ele>950</ele>
        <time>2018-07-24T09:47:48.990Z</time>
      </trkpt>
      <trkpt lat="42.522966" lon="-6.478755">
        <ele>950</ele>
        <time>2018-07-24T09:47:50.990Z</time>
      </trkpt>
      <trkpt lat="42.523022" lon="-6.478594">
        <ele>950</ele>
        <time>2018-07-24T09:47:52.990Z</time>
      </trkpt>
      <trkpt lat="42.523135" lon="-6.47849">
        <ele>949</ele>
        <time>2018-07-24T09:47:55.000Z</time>
      </trkpt>
      <trkpt lat="42.523344" lon="-6.478493">
        <ele>948</ele>
        <time>2018-07-24T09:47:58.000Z</time>
      </trkpt>
      <trkpt lat="42.523489" lon="-6.478549">
        <ele>948</ele>
        <time>2018-07-24T09:48:00.000Z</time>
      </trkpt>
      <trkpt lat="42.523606" lon="-6.478598">
        <ele>948</ele>
        <time>2018-07-24T09:48:02.030Z</time>
      </trkpt>
      <trkpt lat="42.523722" lon="-6.478634">
        <ele>948</ele>
        <time>2018-07-24T09:48:03.990Z</time>
      </trkpt>
      <trkpt lat="42.523817" lon="-6.478703">
        <ele>948</ele>
        <time>2018-07-24T09:48:05.990Z</time>
      </trkpt>
      <trkpt lat="42.523896" lon="-6.478791">
        <ele>947</ele>
        <time>2018-07-24T09:48:07.990Z</time>
      </trkpt>
      <trkpt lat="42.523937" lon="-6.478932">
        <ele>946.4099968</ele>
        <time>2018-07-24T09:48:09.990Z</time>
      </trkpt>
      <trkpt lat="42.523923" lon="-6.479078">
        <ele>946</ele>
        <time>2018-07-24T09:48:12.000Z</time>
      </trkpt>
      <trkpt lat="42.523884" lon="-6.479225">
        <ele>945.4099968</ele>
        <time>2018-07-24T09:48:13.990Z</time>
      </trkpt>
      <trkpt lat="42.523854" lon="-6.479388">
        <ele>944.558140919419</ele>
        <time>2018-07-24T09:48:15.990Z</time>
      </trkpt>
      <trkpt lat="42.523843" lon="-6.47957">
        <ele>944</ele>
        <time>2018-07-24T09:48:17.990Z</time>
      </trkpt>
      <trkpt lat="42.523868" lon="-6.479737">
        <ele>943</ele>
        <time>2018-07-24T09:48:19.990Z</time>
      </trkpt>
      <trkpt lat="42.523916" lon="-6.479914">
        <ele>943</ele>
        <time>2018-07-24T09:48:22.000Z</time>
      </trkpt>
      <trkpt lat="42.523969" lon="-6.48008">
        <ele>941.572520128195</ele>
        <time>2018-07-24T09:48:23.960Z</time>
      </trkpt>
      <trkpt lat="42.524032" lon="-6.480266">
        <ele>941</ele>
        <time>2018-07-24T09:48:25.990Z</time>
      </trkpt>
      <trkpt lat="42.524099" lon="-6.48045">
        <ele>941</ele>
        <time>2018-07-24T09:48:27.990Z</time>
      </trkpt>
      <trkpt lat="42.524168" lon="-6.480649">
        <ele>940.553027878788</ele>
        <time>2018-07-24T09:48:29.990Z</time>
      </trkpt>
      <trkpt lat="42.524241" lon="-6.480852">
        <ele>939</ele>
        <time>2018-07-24T09:48:32.000Z</time>
      </trkpt>
      <trkpt lat="42.524321" lon="-6.481077">
        <ele>937.4099968</ele>
        <time>2018-07-24T09:48:33.990Z</time>
      </trkpt>
      <trkpt lat="42.524367" lon="-6.481198">
        <ele>936.4099968</ele>
        <time>2018-07-24T09:48:34.990Z</time>
      </trkpt>
      <trkpt lat="42.524409" lon="-6.481313">
        <ele>935.553027878788</ele>
        <time>2018-07-24T09:48:35.990Z</time>
      </trkpt>
      <trkpt lat="42.524465" lon="-6.481427">
        <ele>934.588235294118</ele>
        <time>2018-07-24T09:48:37.000Z</time>
      </trkpt>
      <trkpt lat="42.52452" lon="-6.48154">
        <ele>933.4099968</ele>
        <time>2018-07-24T09:48:37.990Z</time>
      </trkpt>
      <trkpt lat="42.524579" lon="-6.481655">
        <ele>932.4099968</ele>
        <time>2018-07-24T09:48:38.990Z</time>
      </trkpt>
      <trkpt lat="42.524641" lon="-6.481766">
        <ele>932</ele>
        <time>2018-07-24T09:48:39.990Z</time>
      </trkpt>
      <trkpt lat="42.524705" lon="-6.481885">
        <ele>931.708732555394</ele>
        <time>2018-07-24T09:48:40.990Z</time>
      </trkpt>
      <trkpt lat="42.524765" lon="-6.482015">
        <ele>930.544112941176</ele>
        <time>2018-07-24T09:48:42.030Z</time>
      </trkpt>
      <trkpt lat="42.524824" lon="-6.48213">
        <ele>929.4099968</ele>
        <time>2018-07-24T09:48:42.990Z</time>
      </trkpt>
      <trkpt lat="42.524885" lon="-6.482246">
        <ele>928.44</ele>
        <time>2018-07-24T09:48:43.960Z</time>
      </trkpt>
      <trkpt lat="42.52495" lon="-6.482372">
        <ele>927.549616978035</ele>
        <time>2018-07-24T09:48:44.990Z</time>
      </trkpt>
      <trkpt lat="42.525016" lon="-6.4825">
        <ele>926.594201016584</ele>
        <time>2018-07-24T09:48:45.990Z</time>
      </trkpt>
      <trkpt lat="42.52508" lon="-6.482625">
        <ele>925.4</ele>
        <time>2018-07-24T09:48:47.000Z</time>
      </trkpt>
      <trkpt lat="42.525144" lon="-6.48275">
        <ele>924.4099968</ele>
        <time>2018-07-24T09:48:47.990Z</time>
      </trkpt>
      <trkpt lat="42.525206" lon="-6.482875">
        <ele>923.4099968</ele>
        <time>2018-07-24T09:48:48.990Z</time>
      </trkpt>
      <trkpt lat="42.525271" lon="-6.483">
        <ele>923</ele>
        <time>2018-07-24T09:48:49.990Z</time>
      </trkpt>
      <trkpt lat="42.525338" lon="-6.483126">
        <ele>922.602936470588</ele>
        <time>2018-07-24T09:48:50.990Z</time>
      </trkpt>
      <trkpt lat="42.525404" lon="-6.483253">
        <ele>921.4</ele>
        <time>2018-07-24T09:48:52.000Z</time>
      </trkpt>
      <trkpt lat="42.525468" lon="-6.483367">
        <ele>920.4099968</ele>
        <time>2018-07-24T09:48:52.990Z</time>
      </trkpt>
      <trkpt lat="42.525536" lon="-6.483484">
        <ele>919.542632043738</ele>
        <time>2018-07-24T09:48:53.990Z</time>
      </trkpt>
      <trkpt lat="42.525608" lon="-6.483597">
        <ele>918.577457679064</ele>
        <time>2018-07-24T09:48:54.990Z</time>
      </trkpt>
      <trkpt lat="42.525682" lon="-6.483712">
        <ele>918</ele>
        <time>2018-07-24T09:48:55.990Z</time>
      </trkpt>
      <trkpt lat="42.525759" lon="-6.483834">
        <ele>917.4</ele>
        <time>2018-07-24T09:48:57.000Z</time>
      </trkpt>
      <trkpt lat="42.52583" lon="-6.483947">
        <ele>916.4099968</ele>
        <time>2018-07-24T09:48:57.990Z</time>
      </trkpt>
      <trkpt lat="42.525896" lon="-6.484063">
        <ele>915.635799055009</ele>
        <time>2018-07-24T09:48:58.990Z</time>
      </trkpt>
      <trkpt lat="42.525962" lon="-6.484182">
        <ele>915.018512665729</ele>
        <time>2018-07-24T09:48:59.990Z</time>
      </trkpt>
      <trkpt lat="42.526072" lon="-6.484424">
        <ele>914</ele>
        <time>2018-07-24T09:49:01.000Z</time>
      </trkpt>
      <trkpt lat="42.526022" lon="-6.484302">
        <ele>914</ele>
        <time>2018-07-24T09:49:01.020Z</time>
      </trkpt>
      <trkpt lat="42.526122" lon="-6.484556">
        <ele>914</ele>
        <time>2018-07-24T09:49:02.990Z</time>
      </trkpt>
      <trkpt lat="42.526169" lon="-6.484682">
        <ele>913.611932599725</ele>
        <time>2018-07-24T09:49:03.990Z</time>
      </trkpt>
      <trkpt lat="42.526221" lon="-6.484809">
        <ele>912.4099968</ele>
        <time>2018-07-24T09:49:04.990Z</time>
      </trkpt>
      <trkpt lat="42.52628" lon="-6.484921">
        <ele>911.4099968</ele>
        <time>2018-07-24T09:49:05.990Z</time>
      </trkpt>
      <trkpt lat="42.526352" lon="-6.485012">
        <ele>911.594061288115</ele>
        <time>2018-07-24T09:49:07.000Z</time>
      </trkpt>
      <trkpt lat="42.52651" lon="-6.485072">
        <ele>911.549616978035</ele>
        <time>2018-07-24T09:49:08.990Z</time>
      </trkpt>
      <trkpt lat="42.526653" lon="-6.484964">
        <ele>910</ele>
        <time>2018-07-24T09:49:10.990Z</time>
      </trkpt>
      <trkpt lat="42.526771" lon="-6.484811">
        <ele>910</ele>
        <time>2018-07-24T09:49:12.990Z</time>
      </trkpt>
      <trkpt lat="42.526908" lon="-6.484725">
        <ele>910</ele>
        <time>2018-07-24T09:49:14.990Z</time>
      </trkpt>
      <trkpt lat="42.527059" lon="-6.484764">
        <ele>908.4</ele>
        <time>2018-07-24T09:49:17.000Z</time>
      </trkpt>
      <trkpt lat="42.527183" lon="-6.484899">
        <ele>907</ele>
        <time>2018-07-24T09:49:18.990Z</time>
      </trkpt>
      <trkpt lat="42.527258" lon="-6.485062">
        <ele>908</ele>
        <time>2018-07-24T09:49:20.960Z</time>
      </trkpt>
      <trkpt lat="42.52731" lon="-6.485245">
        <ele>908</ele>
        <time>2018-07-24T09:49:22.990Z</time>
      </trkpt>
      <trkpt lat="42.527354" lon="-6.485428">
        <ele>907</ele>
        <time>2018-07-24T09:49:24.990Z</time>
      </trkpt>
      <trkpt lat="42.527349" lon="-6.485641">
        <ele>906.4</ele>
        <time>2018-07-24T09:49:27.000Z</time>
      </trkpt>
      <trkpt lat="42.527272" lon="-6.485837">
        <ele>905.54687</ele>
        <time>2018-07-24T09:49:28.990Z</time>
      </trkpt>
      <trkpt lat="42.527149" lon="-6.486008">
        <ele>904.421569119566</ele>
        <time>2018-07-24T09:49:30.990Z</time>
      </trkpt>
      <trkpt lat="42.527019" lon="-6.486166">
        <ele>903</ele>
        <time>2018-07-24T09:49:32.990Z</time>
      </trkpt>
      <trkpt lat="42.526903" lon="-6.486324">
        <ele>902.549616978035</ele>
        <time>2018-07-24T09:49:34.990Z</time>
      </trkpt>
      <trkpt lat="42.526789" lon="-6.486511">
        <ele>901</ele>
        <time>2018-07-24T09:49:37.000Z</time>
      </trkpt>
      <trkpt lat="42.526672" lon="-6.486691">
        <ele>900</ele>
        <time>2018-07-24T09:49:39.020Z</time>
      </trkpt>
      <trkpt lat="42.526575" lon="-6.486888">
        <ele>898.549616978035</ele>
        <time>2018-07-24T09:49:40.990Z</time>
      </trkpt>
      <trkpt lat="42.526538" lon="-6.486999">
        <ele>898</ele>
        <time>2018-07-24T09:49:42.000Z</time>
      </trkpt>
      <trkpt lat="42.526505" lon="-6.487114">
        <ele>897.4099968</ele>
        <time>2018-07-24T09:49:42.990Z</time>
      </trkpt>
      <trkpt lat="42.526483" lon="-6.487237">
        <ele>896.4099968</ele>
        <time>2018-07-24T09:49:43.990Z</time>
      </trkpt>
      <trkpt lat="42.526461" lon="-6.487357">
        <ele>896</ele>
        <time>2018-07-24T09:49:44.990Z</time>
      </trkpt>
      <trkpt lat="42.526441" lon="-6.487482">
        <ele>896</ele>
        <time>2018-07-24T09:49:45.990Z</time>
      </trkpt>
      <trkpt lat="42.526422" lon="-6.487605">
        <ele>896</ele>
        <time>2018-07-24T09:49:47.000Z</time>
      </trkpt>
      <trkpt lat="42.526386" lon="-6.487843">
        <ele>896</ele>
        <time>2018-07-24T09:49:48.990Z</time>
      </trkpt>
      <trkpt lat="42.526369" lon="-6.48797">
        <ele>895.549616978035</ele>
        <time>2018-07-24T09:49:49.990Z</time>
      </trkpt>
      <trkpt lat="42.526363" lon="-6.488096">
        <ele>894.594201016584</ele>
        <time>2018-07-24T09:49:50.990Z</time>
      </trkpt>
      <trkpt lat="42.526363" lon="-6.488227">
        <ele>893.4</ele>
        <time>2018-07-24T09:49:52.000Z</time>
      </trkpt>
      <trkpt lat="42.526369" lon="-6.488358">
        <ele>892.4099968</ele>
        <time>2018-07-24T09:49:52.990Z</time>
      </trkpt>
      <trkpt lat="42.526379" lon="-6.488488">
        <ele>891.4099968</ele>
        <time>2018-07-24T09:49:53.990Z</time>
      </trkpt>
      <trkpt lat="42.526387" lon="-6.488621">
        <ele>891</ele>
        <time>2018-07-24T09:49:54.990Z</time>
      </trkpt>
      <trkpt lat="42.526397" lon="-6.488753">
        <ele>891</ele>
        <time>2018-07-24T09:49:55.990Z</time>
      </trkpt>
      <trkpt lat="42.526404" lon="-6.488888">
        <ele>891</ele>
        <time>2018-07-24T09:49:57.000Z</time>
      </trkpt>
      <trkpt lat="42.526416" lon="-6.489022">
        <ele>890</ele>
        <time>2018-07-24T09:49:58.020Z</time>
      </trkpt>
      <trkpt lat="42.526426" lon="-6.489147">
        <ele>890</ele>
        <time>2018-07-24T09:49:58.960Z</time>
      </trkpt>
      <trkpt lat="42.526435" lon="-6.489289">
        <ele>889.4099968</ele>
        <time>2018-07-24T09:49:59.990Z</time>
      </trkpt>
      <trkpt lat="42.526431" lon="-6.489426">
        <ele>888.549616978035</ele>
        <time>2018-07-24T09:50:00.990Z</time>
      </trkpt>
      <trkpt lat="42.526421" lon="-6.489559">
        <ele>888</ele>
        <time>2018-07-24T09:50:02.000Z</time>
      </trkpt>
      <trkpt lat="42.526407" lon="-6.489693">
        <ele>887.4099968</ele>
        <time>2018-07-24T09:50:02.990Z</time>
      </trkpt>
      <trkpt lat="42.526392" lon="-6.489825">
        <ele>887</ele>
        <time>2018-07-24T09:50:03.990Z</time>
      </trkpt>
      <trkpt lat="42.526378" lon="-6.48996">
        <ele>886.4099968</ele>
        <time>2018-07-24T09:50:04.990Z</time>
      </trkpt>
      <trkpt lat="42.526376" lon="-6.490099">
        <ele>885.549616978035</ele>
        <time>2018-07-24T09:50:05.990Z</time>
      </trkpt>
      <trkpt lat="42.526386" lon="-6.490244">
        <ele>884.579712833451</ele>
        <time>2018-07-24T09:50:07.000Z</time>
      </trkpt>
      <trkpt lat="42.526399" lon="-6.490382">
        <ele>883.4099968</ele>
        <time>2018-07-24T09:50:07.990Z</time>
      </trkpt>
      <trkpt lat="42.526412" lon="-6.49052">
        <ele>882.4099968</ele>
        <time>2018-07-24T09:50:08.990Z</time>
      </trkpt>
      <trkpt lat="42.526429" lon="-6.490663">
        <ele>882</ele>
        <time>2018-07-24T09:50:09.990Z</time>
      </trkpt>
      <trkpt lat="42.526448" lon="-6.490804">
        <ele>881.594201016584</ele>
        <time>2018-07-24T09:50:10.990Z</time>
      </trkpt>
      <trkpt lat="42.526462" lon="-6.49095">
        <ele>880.4</ele>
        <time>2018-07-24T09:50:12.000Z</time>
      </trkpt>
      <trkpt lat="42.526476" lon="-6.49109">
        <ele>880</ele>
        <time>2018-07-24T09:50:12.990Z</time>
      </trkpt>
      <trkpt lat="42.526491" lon="-6.491232">
        <ele>879.4099968</ele>
        <time>2018-07-24T09:50:13.990Z</time>
      </trkpt>
      <trkpt lat="42.526507" lon="-6.491369">
        <ele>878.635799055009</ele>
        <time>2018-07-24T09:50:14.990Z</time>
      </trkpt>
      <trkpt lat="42.52652" lon="-6.491506">
        <ele>878.018512665729</ele>
        <time>2018-07-24T09:50:15.990Z</time>
      </trkpt>
      <trkpt lat="42.526531" lon="-6.491648">
        <ele>878</ele>
        <time>2018-07-24T09:50:17.030Z</time>
      </trkpt>
      <trkpt lat="42.526528" lon="-6.491775">
        <ele>878</ele>
        <time>2018-07-24T09:50:17.960Z</time>
      </trkpt>
      <trkpt lat="42.526511" lon="-6.491916">
        <ele>877.4099968</ele>
        <time>2018-07-24T09:50:18.990Z</time>
      </trkpt>
      <trkpt lat="42.526482" lon="-6.492047">
        <ele>876.549616978035</ele>
        <time>2018-07-24T09:50:19.990Z</time>
      </trkpt>
      <trkpt lat="42.526451" lon="-6.492171">
        <ele>875.594201016584</ele>
        <time>2018-07-24T09:50:20.990Z</time>
      </trkpt>
      <trkpt lat="42.526426" lon="-6.492302">
        <ele>874.4</ele>
        <time>2018-07-24T09:50:22.000Z</time>
      </trkpt>
      <trkpt lat="42.52642" lon="-6.492441">
        <ele>873.4099968</ele>
        <time>2018-07-24T09:50:22.990Z</time>
      </trkpt>
      <trkpt lat="42.52644" lon="-6.49258">
        <ele>873</ele>
        <time>2018-07-24T09:50:23.990Z</time>
      </trkpt>
      <trkpt lat="42.526482" lon="-6.492713">
        <ele>872.549616978035</ele>
        <time>2018-07-24T09:50:24.990Z</time>
      </trkpt>
      <trkpt lat="42.526532" lon="-6.492849">
        <ele>871.594201016584</ele>
        <time>2018-07-24T09:50:25.990Z</time>
      </trkpt>
      <trkpt lat="42.526592" lon="-6.49298">
        <ele>870.4</ele>
        <time>2018-07-24T09:50:27.000Z</time>
      </trkpt>
      <trkpt lat="42.526653" lon="-6.493097">
        <ele>869.4099968</ele>
        <time>2018-07-24T09:50:27.990Z</time>
      </trkpt>
      <trkpt lat="42.526728" lon="-6.493204">
        <ele>869</ele>
        <time>2018-07-24T09:50:28.990Z</time>
      </trkpt>
      <trkpt lat="42.526815" lon="-6.493298">
        <ele>869</ele>
        <time>2018-07-24T09:50:29.990Z</time>
      </trkpt>
      <trkpt lat="42.526909" lon="-6.493377">
        <ele>868.594201016584</ele>
        <time>2018-07-24T09:50:30.990Z</time>
      </trkpt>
      <trkpt lat="42.527006" lon="-6.493444">
        <ele>867.4</ele>
        <time>2018-07-24T09:50:32.000Z</time>
      </trkpt>
      <trkpt lat="42.527102" lon="-6.493498">
        <ele>866.4099968</ele>
        <time>2018-07-24T09:50:32.990Z</time>
      </trkpt>
      <trkpt lat="42.527205" lon="-6.49354">
        <ele>865.635801932634</ele>
        <time>2018-07-24T09:50:33.990Z</time>
      </trkpt>
      <trkpt lat="42.527313" lon="-6.493563">
        <ele>865.01852042066</ele>
        <time>2018-07-24T09:50:34.990Z</time>
      </trkpt>
      <trkpt lat="42.527428" lon="-6.493578">
        <ele>864</ele>
        <time>2018-07-24T09:50:36.020Z</time>
      </trkpt>
      <trkpt lat="42.527536" lon="-6.493597">
        <ele>862.8600064</ele>
        <time>2018-07-24T09:50:36.970Z</time>
      </trkpt>
      <trkpt lat="42.527647" lon="-6.493633">
        <ele>861.4099968</ele>
        <time>2018-07-24T09:50:37.990Z</time>
      </trkpt>
      <trkpt lat="42.527747" lon="-6.493674">
        <ele>860.53906</ele>
        <time>2018-07-24T09:50:38.990Z</time>
      </trkpt>
      <trkpt lat="42.527845" lon="-6.493724">
        <ele>860</ele>
        <time>2018-07-24T09:50:39.990Z</time>
      </trkpt>
      <trkpt lat="42.527941" lon="-6.493782">
        <ele>860</ele>
        <time>2018-07-24T09:50:40.990Z</time>
      </trkpt>
      <trkpt lat="42.52803" lon="-6.493858">
        <ele>859.404039098055</ele>
        <time>2018-07-24T09:50:42.000Z</time>
      </trkpt>
      <trkpt lat="42.528107" lon="-6.493947">
        <ele>858.4099968</ele>
        <time>2018-07-24T09:50:42.990Z</time>
      </trkpt>
      <trkpt lat="42.528179" lon="-6.494049">
        <ele>858</ele>
        <time>2018-07-24T09:50:43.990Z</time>
      </trkpt>
      <trkpt lat="42.52824" lon="-6.494165">
        <ele>858</ele>
        <time>2018-07-24T09:50:44.990Z</time>
      </trkpt>
      <trkpt lat="42.528288" lon="-6.494287">
        <ele>857.4099968</ele>
        <time>2018-07-24T09:50:45.990Z</time>
      </trkpt>
      <trkpt lat="42.528323" lon="-6.494426">
        <ele>856.4</ele>
        <time>2018-07-24T09:50:47.000Z</time>
      </trkpt>
      <trkpt lat="42.528339" lon="-6.49457">
        <ele>855.549616978035</ele>
        <time>2018-07-24T09:50:47.990Z</time>
      </trkpt>
      <trkpt lat="42.52834" lon="-6.494715">
        <ele>854.594201016584</ele>
        <time>2018-07-24T09:50:48.990Z</time>
      </trkpt>
      <trkpt lat="42.528334" lon="-6.494857">
        <ele>853.4099968</ele>
        <time>2018-07-24T09:50:49.990Z</time>
      </trkpt>
      <trkpt lat="42.528321" lon="-6.495001">
        <ele>852.4099968</ele>
        <time>2018-07-24T09:50:50.990Z</time>
      </trkpt>
      <trkpt lat="42.528307" lon="-6.495149">
        <ele>852</ele>
        <time>2018-07-24T09:50:52.000Z</time>
      </trkpt>
      <trkpt lat="42.528294" lon="-6.495293">
        <ele>852</ele>
        <time>2018-07-24T09:50:52.990Z</time>
      </trkpt>
      <trkpt lat="42.528278" lon="-6.49544">
        <ele>852</ele>
        <time>2018-07-24T09:50:53.990Z</time>
      </trkpt>
      <trkpt lat="42.528265" lon="-6.495589">
        <ele>851</ele>
        <time>2018-07-24T09:50:55.020Z</time>
      </trkpt>
      <trkpt lat="42.528253" lon="-6.495724">
        <ele>850.44</ele>
        <time>2018-07-24T09:50:55.960Z</time>
      </trkpt>
      <trkpt lat="42.528242" lon="-6.495871">
        <ele>850</ele>
        <time>2018-07-24T09:50:57.000Z</time>
      </trkpt>
      <trkpt lat="42.528226" lon="-6.496007">
        <ele>849.558140919419</ele>
        <time>2018-07-24T09:50:57.990Z</time>
      </trkpt>
      <trkpt lat="42.528188" lon="-6.496132">
        <ele>849</ele>
        <time>2018-07-24T09:50:58.990Z</time>
      </trkpt>
      <trkpt lat="42.528125" lon="-6.496233">
        <ele>848.4099968</ele>
        <time>2018-07-24T09:50:59.990Z</time>
      </trkpt>
      <trkpt lat="42.527964" lon="-6.496316">
        <ele>847</ele>
        <time>2018-07-24T09:51:02.000Z</time>
      </trkpt>
      <trkpt lat="42.527875" lon="-6.496296">
        <ele>847</ele>
        <time>2018-07-24T09:51:02.990Z</time>
      </trkpt>
      <trkpt lat="42.52779" lon="-6.49625">
        <ele>846.594201016584</ele>
        <time>2018-07-24T09:51:03.990Z</time>
      </trkpt>
      <trkpt lat="42.527698" lon="-6.496195">
        <ele>845.4099968</ele>
        <time>2018-07-24T09:51:04.990Z</time>
      </trkpt>
      <trkpt lat="42.527603" lon="-6.496135">
        <ele>843.8199936</ele>
        <time>2018-07-24T09:51:05.990Z</time>
      </trkpt>
      <trkpt lat="42.52751" lon="-6.496087">
        <ele>842.4</ele>
        <time>2018-07-24T09:51:07.000Z</time>
      </trkpt>
      <trkpt lat="42.527408" lon="-6.496064">
        <ele>842</ele>
        <time>2018-07-24T09:51:07.990Z</time>
      </trkpt>
      <trkpt lat="42.527304" lon="-6.496066">
        <ele>841.594201016584</ele>
        <time>2018-07-24T09:51:08.990Z</time>
      </trkpt>
      <trkpt lat="42.527202" lon="-6.496101">
        <ele>840.4099968</ele>
        <time>2018-07-24T09:51:09.990Z</time>
      </trkpt>
      <trkpt lat="42.527108" lon="-6.496171">
        <ele>839.4099968</ele>
        <time>2018-07-24T09:51:10.990Z</time>
      </trkpt>
      <trkpt lat="42.527028" lon="-6.496272">
        <ele>838.534882567151</ele>
        <time>2018-07-24T09:51:12.000Z</time>
      </trkpt>
      <trkpt lat="42.526963" lon="-6.496386">
        <ele>837.705877923903</ele>
        <time>2018-07-24T09:51:12.990Z</time>
      </trkpt>
      <trkpt lat="42.52691" lon="-6.496514">
        <ele>837</ele>
        <time>2018-07-24T09:51:14.020Z</time>
      </trkpt>
      <trkpt lat="42.526863" lon="-6.496627">
        <ele>837</ele>
        <time>2018-07-24T09:51:14.990Z</time>
      </trkpt>
      <trkpt lat="42.526812" lon="-6.496741">
        <ele>837</ele>
        <time>2018-07-24T09:51:15.960Z</time>
      </trkpt>
      <trkpt lat="42.526751" lon="-6.496864">
        <ele>836.4</ele>
        <time>2018-07-24T09:51:17.000Z</time>
      </trkpt>
      <trkpt lat="42.526693" lon="-6.496979">
        <ele>836</ele>
        <time>2018-07-24T09:51:17.990Z</time>
      </trkpt>
      <trkpt lat="42.526631" lon="-6.497092">
        <ele>835.594201016584</ele>
        <time>2018-07-24T09:51:18.990Z</time>
      </trkpt>
      <trkpt lat="42.526559" lon="-6.497199">
        <ele>833.8199936</ele>
        <time>2018-07-24T09:51:19.990Z</time>
      </trkpt>
      <trkpt lat="42.526483" lon="-6.497295">
        <ele>833</ele>
        <time>2018-07-24T09:51:20.990Z</time>
      </trkpt>
      <trkpt lat="42.526393" lon="-6.497387">
        <ele>833</ele>
        <time>2018-07-24T09:51:22.000Z</time>
      </trkpt>
      <trkpt lat="42.526297" lon="-6.497465">
        <ele>832.594201016584</ele>
        <time>2018-07-24T09:51:22.990Z</time>
      </trkpt>
      <trkpt lat="42.526195" lon="-6.497527">
        <ele>831.4099968</ele>
        <time>2018-07-24T09:51:23.990Z</time>
      </trkpt>
      <trkpt lat="42.526093" lon="-6.49759">
        <ele>830.4099968</ele>
        <time>2018-07-24T09:51:24.990Z</time>
      </trkpt>
      <trkpt lat="42.526005" lon="-6.497661">
        <ele>829.4099968</ele>
        <time>2018-07-24T09:51:25.990Z</time>
      </trkpt>
      <trkpt lat="42.525937" lon="-6.497761">
        <ele>829</ele>
        <time>2018-07-24T09:51:27.000Z</time>
      </trkpt>
      <trkpt lat="42.525896" lon="-6.497882">
        <ele>828.594201016584</ele>
        <time>2018-07-24T09:51:27.990Z</time>
      </trkpt>
      <trkpt lat="42.525874" lon="-6.498013">
        <ele>827.4099968</ele>
        <time>2018-07-24T09:51:28.990Z</time>
      </trkpt>
      <trkpt lat="42.525861" lon="-6.498137">
        <ele>826.4099968</ele>
        <time>2018-07-24T09:51:29.990Z</time>
      </trkpt>
      <trkpt lat="42.525813" lon="-6.498364">
        <ele>824.696077201084</ele>
        <time>2018-07-24T09:51:32.000Z</time>
      </trkpt>
      <trkpt lat="42.525728" lon="-6.498542">
        <ele>823.4099968</ele>
        <time>2018-07-24T09:51:33.990Z</time>
      </trkpt>
      <trkpt lat="42.525613" lon="-6.498607">
        <ele>822.44</ele>
        <time>2018-07-24T09:51:34.960Z</time>
      </trkpt>
      <trkpt lat="42.525514" lon="-6.498673">
        <ele>822</ele>
        <time>2018-07-24T09:51:35.990Z</time>
      </trkpt>
      <trkpt lat="42.525414" lon="-6.498724">
        <ele>821.541985851638</ele>
        <time>2018-07-24T09:51:37.000Z</time>
      </trkpt>
      <trkpt lat="42.52531" lon="-6.498741">
        <ele>820.594201016584</ele>
        <time>2018-07-24T09:51:37.990Z</time>
      </trkpt>
      <trkpt lat="42.525209" lon="-6.498723">
        <ele>820</ele>
        <time>2018-07-24T09:51:38.990Z</time>
      </trkpt>
      <trkpt lat="42.52512" lon="-6.498668">
        <ele>819.4099968</ele>
        <time>2018-07-24T09:51:39.990Z</time>
      </trkpt>
      <trkpt lat="42.525044" lon="-6.498586">
        <ele>818.4099968</ele>
        <time>2018-07-24T09:51:40.990Z</time>
      </trkpt>
      <trkpt lat="42.524973" lon="-6.498499">
        <ele>817.545454545455</ele>
        <time>2018-07-24T09:51:42.000Z</time>
      </trkpt>
      <trkpt lat="42.524886" lon="-6.498452">
        <ele>817</ele>
        <time>2018-07-24T09:51:42.990Z</time>
      </trkpt>
      <trkpt lat="42.524792" lon="-6.498434">
        <ele>815.8199936</ele>
        <time>2018-07-24T09:51:43.990Z</time>
      </trkpt>
      <trkpt lat="42.524696" lon="-6.498437">
        <ele>815</ele>
        <time>2018-07-24T09:51:44.990Z</time>
      </trkpt>
      <trkpt lat="42.524609" lon="-6.498471">
        <ele>815</ele>
        <time>2018-07-24T09:51:45.990Z</time>
      </trkpt>
      <trkpt lat="42.524536" lon="-6.498546">
        <ele>814.4</ele>
        <time>2018-07-24T09:51:47.000Z</time>
      </trkpt>
      <trkpt lat="42.524454" lon="-6.498747">
        <ele>814</ele>
        <time>2018-07-24T09:51:48.990Z</time>
      </trkpt>
      <trkpt lat="42.524395" lon="-6.498941">
        <ele>814</ele>
        <time>2018-07-24T09:51:50.990Z</time>
      </trkpt>
      <trkpt lat="42.524303" lon="-6.49909">
        <ele>814</ele>
        <time>2018-07-24T09:51:52.960Z</time>
      </trkpt>
      <trkpt lat="42.524185" lon="-6.49921">
        <ele>814</ele>
        <time>2018-07-24T09:51:54.990Z</time>
      </trkpt>
      <trkpt lat="42.524065" lon="-6.499341">
        <ele>814</ele>
        <time>2018-07-24T09:51:57.000Z</time>
      </trkpt>
      <trkpt lat="42.523951" lon="-6.499482">
        <ele>812.4099968</ele>
        <time>2018-07-24T09:51:58.990Z</time>
      </trkpt>
      <trkpt lat="42.523848" lon="-6.499654">
        <ele>811.549616978035</ele>
        <time>2018-07-24T09:52:00.990Z</time>
      </trkpt>
      <trkpt lat="42.523792" lon="-6.499873">
        <ele>811</ele>
        <time>2018-07-24T09:52:02.990Z</time>
      </trkpt>
      <trkpt lat="42.523768" lon="-6.500101">
        <ele>810</ele>
        <time>2018-07-24T09:52:04.990Z</time>
      </trkpt>
      <trkpt lat="42.523731" lon="-6.500337">
        <ele>810</ele>
        <time>2018-07-24T09:52:07.000Z</time>
      </trkpt>
      <trkpt lat="42.523692" lon="-6.500572">
        <ele>808.534882567151</ele>
        <time>2018-07-24T09:52:09.000Z</time>
      </trkpt>
      <trkpt lat="42.523672" lon="-6.5007">
        <ele>808</ele>
        <time>2018-07-24T09:52:10.000Z</time>
      </trkpt>
      <trkpt lat="42.523657" lon="-6.500826">
        <ele>807.4</ele>
        <time>2018-07-24T09:52:11.000Z</time>
      </trkpt>
      <trkpt lat="42.523655" lon="-6.500952">
        <ele>807</ele>
        <time>2018-07-24T09:52:12.000Z</time>
      </trkpt>
      <trkpt lat="42.523675" lon="-6.501198">
        <ele>806.4</ele>
        <time>2018-07-24T09:52:14.000Z</time>
      </trkpt>
      <trkpt lat="42.523693" lon="-6.50132">
        <ele>806</ele>
        <time>2018-07-24T09:52:15.000Z</time>
      </trkpt>
      <trkpt lat="42.523735" lon="-6.501553">
        <ele>806</ele>
        <time>2018-07-24T09:52:17.000Z</time>
      </trkpt>
      <trkpt lat="42.523739" lon="-6.501784">
        <ele>805</ele>
        <time>2018-07-24T09:52:19.000Z</time>
      </trkpt>
      <trkpt lat="42.523683" lon="-6.501995">
        <ele>805</ele>
        <time>2018-07-24T09:52:21.000Z</time>
      </trkpt>
      <trkpt lat="42.523591" lon="-6.502192">
        <ele>805</ele>
        <time>2018-07-24T09:52:23.000Z</time>
      </trkpt>
      <trkpt lat="42.523493" lon="-6.502391">
        <ele>804</ele>
        <time>2018-07-24T09:52:25.000Z</time>
      </trkpt>
      <trkpt lat="42.523444" lon="-6.502495">
        <ele>804</ele>
        <time>2018-07-24T09:52:26.000Z</time>
      </trkpt>
      <trkpt lat="42.523397" lon="-6.502601">
        <ele>804</ele>
        <time>2018-07-24T09:52:27.000Z</time>
      </trkpt>
      <trkpt lat="42.523355" lon="-6.502712">
        <ele>804</ele>
        <time>2018-07-24T09:52:28.000Z</time>
      </trkpt>
      <trkpt lat="42.523324" lon="-6.502827">
        <ele>803.696077201084</ele>
        <time>2018-07-24T09:52:29.000Z</time>
      </trkpt>
      <trkpt lat="42.523285" lon="-6.503056">
        <ele>802</ele>
        <time>2018-07-24T09:52:31.000Z</time>
      </trkpt>
      <trkpt lat="42.523245" lon="-6.503278">
        <ele>802</ele>
        <time>2018-07-24T09:52:33.000Z</time>
      </trkpt>
      <trkpt lat="42.523184" lon="-6.503486">
        <ele>801.541985851638</ele>
        <time>2018-07-24T09:52:35.000Z</time>
      </trkpt>
      <trkpt lat="42.523096" lon="-6.503688">
        <ele>801</ele>
        <time>2018-07-24T09:52:37.000Z</time>
      </trkpt>
      <trkpt lat="42.522989" lon="-6.503878">
        <ele>800</ele>
        <time>2018-07-24T09:52:39.000Z</time>
      </trkpt>
      <trkpt lat="42.522865" lon="-6.504048">
        <ele>799</ele>
        <time>2018-07-24T09:52:41.000Z</time>
      </trkpt>
      <trkpt lat="42.522759" lon="-6.504218">
        <ele>797.4099968</ele>
        <time>2018-07-24T09:52:42.990Z</time>
      </trkpt>
      <trkpt lat="42.52268" lon="-6.504385">
        <ele>797</ele>
        <time>2018-07-24T09:52:44.990Z</time>
      </trkpt>
      <trkpt lat="42.522665" lon="-6.504545">
        <ele>797</ele>
        <time>2018-07-24T09:52:47.000Z</time>
      </trkpt>
      <trkpt lat="42.522718" lon="-6.50468">
        <ele>797</ele>
        <time>2018-07-24T09:52:49.020Z</time>
      </trkpt>
      <trkpt lat="42.522828" lon="-6.504697">
        <ele>793.4099968</ele>
        <time>2018-07-24T09:52:50.990Z</time>
      </trkpt>
      <trkpt lat="42.522921" lon="-6.504474">
        <ele>793</ele>
        <time>2018-07-24T09:52:52.990Z</time>
      </trkpt>
      <trkpt lat="42.522976" lon="-6.504346">
        <ele>792.549616978035</ele>
        <time>2018-07-24T09:52:53.990Z</time>
      </trkpt>
      <trkpt lat="42.523031" lon="-6.50424">
        <ele>792</ele>
        <time>2018-07-24T09:52:54.990Z</time>
      </trkpt>
      <trkpt lat="42.523092" lon="-6.50413">
        <ele>790.8199936</ele>
        <time>2018-07-24T09:52:55.990Z</time>
      </trkpt>
      <trkpt lat="42.52316" lon="-6.504005">
        <ele>789.4</ele>
        <time>2018-07-24T09:52:57.000Z</time>
      </trkpt>
      <trkpt lat="42.523222" lon="-6.5039">
        <ele>789</ele>
        <time>2018-07-24T09:52:57.990Z</time>
      </trkpt>
      <trkpt lat="42.523286" lon="-6.50379">
        <ele>788.549616978035</ele>
        <time>2018-07-24T09:52:58.990Z</time>
      </trkpt>
      <trkpt lat="42.52335" lon="-6.503688">
        <ele>788</ele>
        <time>2018-07-24T09:52:59.990Z</time>
      </trkpt>
      <trkpt lat="42.523406" lon="-6.503566">
        <ele>786.8199936</ele>
        <time>2018-07-24T09:53:00.990Z</time>
      </trkpt>
      <trkpt lat="42.523436" lon="-6.503438">
        <ele>786</ele>
        <time>2018-07-24T09:53:02.000Z</time>
      </trkpt>
      <trkpt lat="42.523462" lon="-6.503313">
        <ele>786</ele>
        <time>2018-07-24T09:53:02.990Z</time>
      </trkpt>
      <trkpt lat="42.523504" lon="-6.503105">
        <ele>785</ele>
        <time>2018-07-24T09:53:04.990Z</time>
      </trkpt>
      <trkpt lat="42.523564" lon="-6.502955">
        <ele>784.555555555556</ele>
        <time>2018-07-24T09:53:07.000Z</time>
      </trkpt>
      <trkpt lat="42.523682" lon="-6.502947">
        <ele>782.44</ele>
        <time>2018-07-24T09:53:08.960Z</time>
      </trkpt>
      <trkpt lat="42.523784" lon="-6.503088">
        <ele>781</ele>
        <time>2018-07-24T09:53:10.990Z</time>
      </trkpt>
      <trkpt lat="42.52384" lon="-6.503306">
        <ele>779.4099968</ele>
        <time>2018-07-24T09:53:12.990Z</time>
      </trkpt>
      <trkpt lat="42.523887" lon="-6.503522">
        <ele>779</ele>
        <time>2018-07-24T09:53:14.990Z</time>
      </trkpt>
      <trkpt lat="42.523898" lon="-6.503754">
        <ele>778</ele>
        <time>2018-07-24T09:53:17.000Z</time>
      </trkpt>
      <trkpt lat="42.523895" lon="-6.503997">
        <ele>776.421569119566</ele>
        <time>2018-07-24T09:53:18.990Z</time>
      </trkpt>
      <trkpt lat="42.523892" lon="-6.504124">
        <ele>775.418366813824</ele>
        <time>2018-07-24T09:53:19.990Z</time>
      </trkpt>
      <trkpt lat="42.523885" lon="-6.504248">
        <ele>774.4099968</ele>
        <time>2018-07-24T09:53:20.990Z</time>
      </trkpt>
      <trkpt lat="42.523868" lon="-6.504371">
        <ele>773.4</ele>
        <time>2018-07-24T09:53:22.000Z</time>
      </trkpt>
      <trkpt lat="42.523842" lon="-6.504488">
        <ele>772.549616978035</ele>
        <time>2018-07-24T09:53:22.990Z</time>
      </trkpt>
      <trkpt lat="42.523812" lon="-6.504608">
        <ele>771.594201016584</ele>
        <time>2018-07-24T09:53:23.990Z</time>
      </trkpt>
      <trkpt lat="42.523778" lon="-6.50473">
        <ele>771</ele>
        <time>2018-07-24T09:53:24.990Z</time>
      </trkpt>
      <trkpt lat="42.523743" lon="-6.504862">
        <ele>770.577457679064</ele>
        <time>2018-07-24T09:53:25.990Z</time>
      </trkpt>
      <trkpt lat="42.52371" lon="-6.505">
        <ele>769.3699968</ele>
        <time>2018-07-24T09:53:27.030Z</time>
      </trkpt>
      <trkpt lat="42.52368" lon="-6.505127">
        <ele>768.572520128195</ele>
        <time>2018-07-24T09:53:27.960Z</time>
      </trkpt>
      <trkpt lat="42.52366" lon="-6.505277">
        <ele>767.594201016584</ele>
        <time>2018-07-24T09:53:28.990Z</time>
      </trkpt>
      <trkpt lat="42.523646" lon="-6.505422">
        <ele>766.4099968</ele>
        <time>2018-07-24T09:53:29.990Z</time>
      </trkpt>
      <trkpt lat="42.523636" lon="-6.50557">
        <ele>765.4099968</ele>
        <time>2018-07-24T09:53:30.990Z</time>
      </trkpt>
      <trkpt lat="42.523632" lon="-6.50572">
        <ele>764.541985851638</ele>
        <time>2018-07-24T09:53:32.000Z</time>
      </trkpt>
      <trkpt lat="42.523641" lon="-6.505869">
        <ele>764</ele>
        <time>2018-07-24T09:53:32.990Z</time>
      </trkpt>
      <trkpt lat="42.523656" lon="-6.506015">
        <ele>763.4099968</ele>
        <time>2018-07-24T09:53:33.990Z</time>
      </trkpt>
      <trkpt lat="42.523674" lon="-6.506161">
        <ele>762.4099968</ele>
        <time>2018-07-24T09:53:34.990Z</time>
      </trkpt>
      <trkpt lat="42.523696" lon="-6.506305">
        <ele>761.4099968</ele>
        <time>2018-07-24T09:53:35.990Z</time>
      </trkpt>
      <trkpt lat="42.523726" lon="-6.506457">
        <ele>761</ele>
        <time>2018-07-24T09:53:37.000Z</time>
      </trkpt>
      <trkpt lat="42.523754" lon="-6.506612">
        <ele>760.188402033169</ele>
        <time>2018-07-24T09:53:37.990Z</time>
      </trkpt>
      <trkpt lat="42.523786" lon="-6.506771">
        <ele>758.4099968</ele>
        <time>2018-07-24T09:53:38.990Z</time>
      </trkpt>
      <trkpt lat="42.523822" lon="-6.506932">
        <ele>758</ele>
        <time>2018-07-24T09:53:39.990Z</time>
      </trkpt>
      <trkpt lat="42.523855" lon="-6.507089">
        <ele>757.549616978035</ele>
        <time>2018-07-24T09:53:40.990Z</time>
      </trkpt>
      <trkpt lat="42.52388" lon="-6.507256">
        <ele>756.579712833451</ele>
        <time>2018-07-24T09:53:42.000Z</time>
      </trkpt>
      <trkpt lat="42.523889" lon="-6.507412">
        <ele>754.8199936</ele>
        <time>2018-07-24T09:53:42.990Z</time>
      </trkpt>
      <trkpt lat="42.523886" lon="-6.507576">
        <ele>753.542632043738</ele>
        <time>2018-07-24T09:53:43.990Z</time>
      </trkpt>
      <trkpt lat="42.523874" lon="-6.507743">
        <ele>752.705877923903</ele>
        <time>2018-07-24T09:53:44.990Z</time>
      </trkpt>
      <trkpt lat="42.523862" lon="-6.507903">
        <ele>752</ele>
        <time>2018-07-24T09:53:46.020Z</time>
      </trkpt>
      <trkpt lat="42.52386" lon="-6.508057">
        <ele>751.417477537934</ele>
        <time>2018-07-24T09:53:47.000Z</time>
      </trkpt>
      <trkpt lat="42.523878" lon="-6.508194">
        <ele>750.453609743867</ele>
        <time>2018-07-24T09:53:47.960Z</time>
      </trkpt>
      <trkpt lat="42.52391" lon="-6.508333">
        <ele>749.4099968</ele>
        <time>2018-07-24T09:53:48.990Z</time>
      </trkpt>
      <trkpt lat="42.523946" lon="-6.508457">
        <ele>749</ele>
        <time>2018-07-24T09:53:49.990Z</time>
      </trkpt>
      <trkpt lat="42.524002" lon="-6.508561">
        <ele>749</ele>
        <time>2018-07-24T09:53:50.990Z</time>
      </trkpt>
      <trkpt lat="42.524074" lon="-6.508658">
        <ele>748.4</ele>
        <time>2018-07-24T09:53:52.000Z</time>
      </trkpt>
      <trkpt lat="42.52416" lon="-6.50876">
        <ele>747.4099968</ele>
        <time>2018-07-24T09:53:52.990Z</time>
      </trkpt>
      <trkpt lat="42.52425" lon="-6.508848">
        <ele>746.549616978035</ele>
        <time>2018-07-24T09:53:53.990Z</time>
      </trkpt>
      <trkpt lat="42.524344" lon="-6.508876">
        <ele>745.594201016584</ele>
        <time>2018-07-24T09:53:54.990Z</time>
      </trkpt>
      <trkpt lat="42.524462" lon="-6.508838">
        <ele>743.8199936</ele>
        <time>2018-07-24T09:53:55.990Z</time>
      </trkpt>
      <trkpt lat="42.524574" lon="-6.508839">
        <ele>743</ele>
        <time>2018-07-24T09:53:57.000Z</time>
      </trkpt>
      <trkpt lat="42.524684" lon="-6.508857">
        <ele>742.4099968</ele>
        <time>2018-07-24T09:53:57.990Z</time>
      </trkpt>
      <trkpt lat="42.524802" lon="-6.508865">
        <ele>741.553027878788</ele>
        <time>2018-07-24T09:53:58.990Z</time>
      </trkpt>
      <trkpt lat="42.52492" lon="-6.50886">
        <ele>740.602936470588</ele>
        <time>2018-07-24T09:53:59.990Z</time>
      </trkpt>
      <trkpt lat="42.525038" lon="-6.508878">
        <ele>738.8199936</ele>
        <time>2018-07-24T09:54:00.990Z</time>
      </trkpt>
      <trkpt lat="42.525156" lon="-6.508888">
        <ele>738</ele>
        <time>2018-07-24T09:54:02.000Z</time>
      </trkpt>
      <trkpt lat="42.525266" lon="-6.50891">
        <ele>737.633537656721</ele>
        <time>2018-07-24T09:54:02.990Z</time>
      </trkpt>
      <trkpt lat="42.525378" lon="-6.508931">
        <ele>737.012418409776</ele>
        <time>2018-07-24T09:54:03.990Z</time>
      </trkpt>
      <trkpt lat="42.525482" lon="-6.508941">
        <ele>736</ele>
        <time>2018-07-24T09:54:05.020Z</time>
      </trkpt>
      <trkpt lat="42.525658" lon="-6.50888">
        <ele>735</ele>
        <time>2018-07-24T09:54:07.000Z</time>
      </trkpt>
      <trkpt lat="42.525772" lon="-6.508717">
        <ele>735</ele>
        <time>2018-07-24T09:54:08.990Z</time>
      </trkpt>
      <trkpt lat="42.525888" lon="-6.508593">
        <ele>734</ele>
        <time>2018-07-24T09:54:10.990Z</time>
      </trkpt>
      <trkpt lat="42.526007" lon="-6.508698">
        <ele>733.4099968</ele>
        <time>2018-07-24T09:54:12.990Z</time>
      </trkpt>
      <trkpt lat="42.526106" lon="-6.50891">
        <ele>732</ele>
        <time>2018-07-24T09:54:14.990Z</time>
      </trkpt>
      <trkpt lat="42.526168" lon="-6.509009">
        <ele>731.594201016584</ele>
        <time>2018-07-24T09:54:15.990Z</time>
      </trkpt>
      <trkpt lat="42.526242" lon="-6.509113">
        <ele>730.411768396747</ele>
        <time>2018-07-24T09:54:17.000Z</time>
      </trkpt>
      <trkpt lat="42.52632" lon="-6.509214">
        <ele>729.418366813824</ele>
        <time>2018-07-24T09:54:17.990Z</time>
      </trkpt>
      <trkpt lat="42.5264" lon="-6.509313">
        <ele>728.4099968</ele>
        <time>2018-07-24T09:54:18.990Z</time>
      </trkpt>
      <trkpt lat="42.526482" lon="-6.509413">
        <ele>727.549616978035</ele>
        <time>2018-07-24T09:54:19.990Z</time>
      </trkpt>
      <trkpt lat="42.526568" lon="-6.509521">
        <ele>726.594201016584</ele>
        <time>2018-07-24T09:54:20.990Z</time>
      </trkpt>
      <trkpt lat="42.5267" lon="-6.509783">
        <ele>724.563377742523</ele>
        <time>2018-07-24T09:54:23.000Z</time>
      </trkpt>
      <trkpt lat="42.526726" lon="-6.509948">
        <ele>724</ele>
        <time>2018-07-24T09:54:24.000Z</time>
      </trkpt>
      <trkpt lat="42.526752" lon="-6.510069">
        <ele>722.739138500353</ele>
        <time>2018-07-24T09:54:25.000Z</time>
      </trkpt>
      <trkpt lat="42.526746" lon="-6.510306">
        <ele>719</ele>
        <time>2018-07-24T09:54:27.000Z</time>
      </trkpt>
      <trkpt lat="42.526724" lon="-6.510439">
        <ele>719</ele>
        <time>2018-07-24T09:54:27.990Z</time>
      </trkpt>
      <trkpt lat="42.526696" lon="-6.51057">
        <ele>719</ele>
        <time>2018-07-24T09:54:28.990Z</time>
      </trkpt>
      <trkpt lat="42.526666" lon="-6.5108">
        <ele>718.4099968</ele>
        <time>2018-07-24T09:54:30.990Z</time>
      </trkpt>
      <trkpt lat="42.526784" lon="-6.510985">
        <ele>718</ele>
        <time>2018-07-24T09:54:32.990Z</time>
      </trkpt>
      <trkpt lat="42.526862" lon="-6.511046">
        <ele>718</ele>
        <time>2018-07-24T09:54:33.990Z</time>
      </trkpt>
      <trkpt lat="42.526954" lon="-6.511109">
        <ele>717.549616978035</ele>
        <time>2018-07-24T09:54:34.990Z</time>
      </trkpt>
      <trkpt lat="42.527042" lon="-6.511164">
        <ele>716.594201016584</ele>
        <time>2018-07-24T09:54:35.990Z</time>
      </trkpt>
      <trkpt lat="42.527144" lon="-6.511237">
        <ele>715.2999936</ele>
        <time>2018-07-24T09:54:37.100Z</time>
      </trkpt>
      <trkpt lat="42.527234" lon="-6.51127">
        <ele>714.4</ele>
        <time>2018-07-24T09:54:38.000Z</time>
      </trkpt>
      <trkpt lat="42.527336" lon="-6.511288">
        <ele>713.4</ele>
        <time>2018-07-24T09:54:39.000Z</time>
      </trkpt>
      <trkpt lat="42.527442" lon="-6.511299">
        <ele>712.541985851638</ele>
        <time>2018-07-24T09:54:40.000Z</time>
      </trkpt>
      <trkpt lat="42.52755" lon="-6.511309">
        <ele>711.701033240522</ele>
        <time>2018-07-24T09:54:41.000Z</time>
      </trkpt>
      <trkpt lat="42.52766" lon="-6.511301">
        <ele>710.56944</ele>
        <time>2018-07-24T09:54:41.990Z</time>
      </trkpt>
      <trkpt lat="42.527776" lon="-6.511302">
        <ele>709.3799936</ele>
        <time>2018-07-24T09:54:43.020Z</time>
      </trkpt>
      <trkpt lat="42.52787" lon="-6.511303">
        <ele>708.572520128195</ele>
        <time>2018-07-24T09:54:43.960Z</time>
      </trkpt>
      <trkpt lat="42.527988" lon="-6.511314">
        <ele>708</ele>
        <time>2018-07-24T09:54:44.990Z</time>
      </trkpt>
      <trkpt lat="42.528102" lon="-6.511302">
        <ele>707.4</ele>
        <time>2018-07-24T09:54:46.000Z</time>
      </trkpt>
      <trkpt lat="42.528208" lon="-6.511287">
        <ele>706.4099968</ele>
        <time>2018-07-24T09:54:46.990Z</time>
      </trkpt>
      <trkpt lat="42.528324" lon="-6.511268">
        <ele>705.4099968</ele>
        <time>2018-07-24T09:54:47.990Z</time>
      </trkpt>
      <trkpt lat="42.528434" lon="-6.51125">
        <ele>704.549616978035</ele>
        <time>2018-07-24T09:54:48.990Z</time>
      </trkpt>
      <trkpt lat="42.528548" lon="-6.511228">
        <ele>703.594201016584</ele>
        <time>2018-07-24T09:54:49.990Z</time>
      </trkpt>
      <trkpt lat="42.52866" lon="-6.511195">
        <ele>702.4</ele>
        <time>2018-07-24T09:54:51.000Z</time>
      </trkpt>
      <trkpt lat="42.52878" lon="-6.511164">
        <ele>701.4099968</ele>
        <time>2018-07-24T09:54:51.990Z</time>
      </trkpt>
      <trkpt lat="42.52889" lon="-6.511132">
        <ele>700.549616978035</ele>
        <time>2018-07-24T09:54:52.990Z</time>
      </trkpt>
      <trkpt lat="42.529" lon="-6.511107">
        <ele>699.594201016584</ele>
        <time>2018-07-24T09:54:53.990Z</time>
      </trkpt>
      <trkpt lat="42.529126" lon="-6.511088">
        <ele>698.4099968</ele>
        <time>2018-07-24T09:54:54.990Z</time>
      </trkpt>
      <trkpt lat="42.529238" lon="-6.511066">
        <ele>698</ele>
        <time>2018-07-24T09:54:56.000Z</time>
      </trkpt>
      <trkpt lat="42.529352" lon="-6.511046">
        <ele>697.549616978035</ele>
        <time>2018-07-24T09:54:56.990Z</time>
      </trkpt>
      <trkpt lat="42.52946" lon="-6.511037">
        <ele>696.594201016584</ele>
        <time>2018-07-24T09:54:57.990Z</time>
      </trkpt>
      <trkpt lat="42.529568" lon="-6.511022">
        <ele>696</ele>
        <time>2018-07-24T09:54:58.990Z</time>
      </trkpt>
      <trkpt lat="42.529672" lon="-6.510986">
        <ele>695.53906</ele>
        <time>2018-07-24T09:54:59.990Z</time>
      </trkpt>
      <trkpt lat="42.529765" lon="-6.510917">
        <ele>694.111111111111</ele>
        <time>2018-07-24T09:55:01.000Z</time>
      </trkpt>
      <trkpt lat="42.52985" lon="-6.510827">
        <ele>693</ele>
        <time>2018-07-24T09:55:02.020Z</time>
      </trkpt>
      <trkpt lat="42.529928" lon="-6.510754">
        <ele>692.637684116796</ele>
        <time>2018-07-24T09:55:02.960Z</time>
      </trkpt>
      <trkpt lat="42.530014" lon="-6.510706">
        <ele>691.4099968</ele>
        <time>2018-07-24T09:55:03.990Z</time>
      </trkpt>
      <trkpt lat="42.53017" lon="-6.510717">
        <ele>689.4</ele>
        <time>2018-07-24T09:55:06.000Z</time>
      </trkpt>
      <trkpt lat="42.530267" lon="-6.510895">
        <ele>689</ele>
        <time>2018-07-24T09:55:07.990Z</time>
      </trkpt>
      <trkpt lat="42.53034" lon="-6.511126">
        <ele>688.4099968</ele>
        <time>2018-07-24T09:55:09.990Z</time>
      </trkpt>
      <trkpt lat="42.530386" lon="-6.511248">
        <ele>687.4</ele>
        <time>2018-07-24T09:55:11.000Z</time>
      </trkpt>
      <trkpt lat="42.530431" lon="-6.511372">
        <ele>686.4099968</ele>
        <time>2018-07-24T09:55:11.990Z</time>
      </trkpt>
      <trkpt lat="42.530479" lon="-6.511495">
        <ele>685.549616978035</ele>
        <time>2018-07-24T09:55:12.990Z</time>
      </trkpt>
      <trkpt lat="42.530529" lon="-6.511622">
        <ele>684.594201016584</ele>
        <time>2018-07-24T09:55:13.990Z</time>
      </trkpt>
      <trkpt lat="42.530578" lon="-6.511752">
        <ele>684</ele>
        <time>2018-07-24T09:55:14.990Z</time>
      </trkpt>
      <trkpt lat="42.530622" lon="-6.511879">
        <ele>682.8</ele>
        <time>2018-07-24T09:55:16.000Z</time>
      </trkpt>
      <trkpt lat="42.530678" lon="-6.511988">
        <ele>681.4099968</ele>
        <time>2018-07-24T09:55:16.990Z</time>
      </trkpt>
      <trkpt lat="42.530744" lon="-6.512092">
        <ele>681</ele>
        <time>2018-07-24T09:55:17.990Z</time>
      </trkpt>
      <trkpt lat="42.530818" lon="-6.512183">
        <ele>680.714283848384</ele>
        <time>2018-07-24T09:55:18.990Z</time>
      </trkpt>
      <trkpt lat="42.530896" lon="-6.512266">
        <ele>680</ele>
        <time>2018-07-24T09:55:19.990Z</time>
      </trkpt>
      <trkpt lat="42.530977" lon="-6.512348">
        <ele>679.3699968</ele>
        <time>2018-07-24T09:55:21.030Z</time>
      </trkpt>
      <trkpt lat="42.531058" lon="-6.512413">
        <ele>678.44</ele>
        <time>2018-07-24T09:55:21.960Z</time>
      </trkpt>
      <trkpt lat="42.531146" lon="-6.51249">
        <ele>678</ele>
        <time>2018-07-24T09:55:22.990Z</time>
      </trkpt>
      <trkpt lat="42.531219" lon="-6.512569">
        <ele>677.594201016584</ele>
        <time>2018-07-24T09:55:23.990Z</time>
      </trkpt>
      <trkpt lat="42.531296" lon="-6.512658">
        <ele>677</ele>
        <time>2018-07-24T09:55:24.990Z</time>
      </trkpt>
      <trkpt lat="42.531381" lon="-6.512732">
        <ele>676.4</ele>
        <time>2018-07-24T09:55:26.000Z</time>
      </trkpt>
      <trkpt lat="42.531469" lon="-6.512783">
        <ele>676</ele>
        <time>2018-07-24T09:55:26.990Z</time>
      </trkpt>
      <trkpt lat="42.531639" lon="-6.512777">
        <ele>674.549616978035</ele>
        <time>2018-07-24T09:55:28.990Z</time>
      </trkpt>
      <trkpt lat="42.531789" lon="-6.512643">
        <ele>673.4</ele>
        <time>2018-07-24T09:55:31.000Z</time>
      </trkpt>
      <trkpt lat="42.53194" lon="-6.512556">
        <ele>671.4099968</ele>
        <time>2018-07-24T09:55:32.990Z</time>
      </trkpt>
      <trkpt lat="42.532097" lon="-6.512621">
        <ele>671</ele>
        <time>2018-07-24T09:55:34.990Z</time>
      </trkpt>
      <trkpt lat="42.532171" lon="-6.512703">
        <ele>670.579712833451</ele>
        <time>2018-07-24T09:55:36.000Z</time>
      </trkpt>
      <trkpt lat="42.532323" lon="-6.512851">
        <ele>668.542632043738</ele>
        <time>2018-07-24T09:55:37.990Z</time>
      </trkpt>
      <trkpt lat="42.532406" lon="-6.512913">
        <ele>667.705877923903</ele>
        <time>2018-07-24T09:55:38.990Z</time>
      </trkpt>
      <trkpt lat="42.532494" lon="-6.512954">
        <ele>667</ele>
        <time>2018-07-24T09:55:40.020Z</time>
      </trkpt>
      <trkpt lat="42.532668" lon="-6.512977">
        <ele>664.453609743867</ele>
        <time>2018-07-24T09:55:41.960Z</time>
      </trkpt>
      <trkpt lat="42.532761" lon="-6.512944">
        <ele>663.4099968</ele>
        <time>2018-07-24T09:55:42.990Z</time>
      </trkpt>
      <trkpt lat="42.532857" lon="-6.512886">
        <ele>663</ele>
        <time>2018-07-24T09:55:43.990Z</time>
      </trkpt>
      <trkpt lat="42.532952" lon="-6.512834">
        <ele>662.56944</ele>
        <time>2018-07-24T09:55:44.990Z</time>
      </trkpt>
      <trkpt lat="42.533048" lon="-6.512777">
        <ele>662</ele>
        <time>2018-07-24T09:55:46.000Z</time>
      </trkpt>
      <trkpt lat="42.533149" lon="-6.512723">
        <ele>662</ele>
        <time>2018-07-24T09:55:46.990Z</time>
      </trkpt>
      <trkpt lat="42.533254" lon="-6.512667">
        <ele>661.4</ele>
        <time>2018-07-24T09:55:48.000Z</time>
      </trkpt>
      <trkpt lat="42.533358" lon="-6.512602">
        <ele>660.541985851638</ele>
        <time>2018-07-24T09:55:49.000Z</time>
      </trkpt>
      <trkpt lat="42.533457" lon="-6.512522">
        <ele>659.579712833451</ele>
        <time>2018-07-24T09:55:50.000Z</time>
      </trkpt>
      <trkpt lat="42.533547" lon="-6.512428">
        <ele>658.4</ele>
        <time>2018-07-24T09:55:51.000Z</time>
      </trkpt>
      <trkpt lat="42.533631" lon="-6.512326">
        <ele>657.4099968</ele>
        <time>2018-07-24T09:55:51.990Z</time>
      </trkpt>
      <trkpt lat="42.53372" lon="-6.512221">
        <ele>657</ele>
        <time>2018-07-24T09:55:52.990Z</time>
      </trkpt>
      <trkpt lat="42.533799" lon="-6.512133">
        <ele>656.594201016584</ele>
        <time>2018-07-24T09:55:53.990Z</time>
      </trkpt>
      <trkpt lat="42.533879" lon="-6.512051">
        <ele>656</ele>
        <time>2018-07-24T09:55:54.990Z</time>
      </trkpt>
      <trkpt lat="42.533964" lon="-6.511975">
        <ele>656</ele>
        <time>2018-07-24T09:55:56.000Z</time>
      </trkpt>
      <trkpt lat="42.534051" lon="-6.511911">
        <ele>656</ele>
        <time>2018-07-24T09:55:56.990Z</time>
      </trkpt>
      <trkpt lat="42.534136" lon="-6.511869">
        <ele>656</ele>
        <time>2018-07-24T09:55:57.990Z</time>
      </trkpt>
      <trkpt lat="42.5343" lon="-6.511888">
        <ele>656</ele>
        <time>2018-07-24T09:55:59.990Z</time>
      </trkpt>
      <trkpt lat="42.534364" lon="-6.51204">
        <ele>656</ele>
        <time>2018-07-24T09:56:01.990Z</time>
      </trkpt>
      <trkpt lat="42.534332" lon="-6.512222">
        <ele>656</ele>
        <time>2018-07-24T09:56:03.990Z</time>
      </trkpt>
      <trkpt lat="42.534241" lon="-6.51239">
        <ele>655</ele>
        <time>2018-07-24T09:56:06.000Z</time>
      </trkpt>
      <trkpt lat="42.534128" lon="-6.512579">
        <ele>653.4099968</ele>
        <time>2018-07-24T09:56:07.990Z</time>
      </trkpt>
      <trkpt lat="42.534074" lon="-6.512681">
        <ele>653</ele>
        <time>2018-07-24T09:56:08.990Z</time>
      </trkpt>
      <trkpt lat="42.534028" lon="-6.512795">
        <ele>652.4099968</ele>
        <time>2018-07-24T09:56:09.990Z</time>
      </trkpt>
      <trkpt lat="42.533987" lon="-6.512926">
        <ele>651.083971703275</ele>
        <time>2018-07-24T09:56:11.000Z</time>
      </trkpt>
      <trkpt lat="42.53396" lon="-6.51306">
        <ele>649.594201016584</ele>
        <time>2018-07-24T09:56:11.990Z</time>
      </trkpt>
      <trkpt lat="42.533936" lon="-6.513192">
        <ele>648.4099968</ele>
        <time>2018-07-24T09:56:12.990Z</time>
      </trkpt>
      <trkpt lat="42.533913" lon="-6.513328">
        <ele>647.4099968</ele>
        <time>2018-07-24T09:56:13.990Z</time>
      </trkpt>
      <trkpt lat="42.533886" lon="-6.51346">
        <ele>646.4099968</ele>
        <time>2018-07-24T09:56:14.990Z</time>
      </trkpt>
      <trkpt lat="42.533864" lon="-6.513596">
        <ele>646</ele>
        <time>2018-07-24T09:56:16.000Z</time>
      </trkpt>
      <trkpt lat="42.533855" lon="-6.513728">
        <ele>646</ele>
        <time>2018-07-24T09:56:16.990Z</time>
      </trkpt>
      <trkpt lat="42.53387" lon="-6.513856">
        <ele>645.3800064</ele>
        <time>2018-07-24T09:56:18.020Z</time>
      </trkpt>
      <trkpt lat="42.53396" lon="-6.514067">
        <ele>644</ele>
        <time>2018-07-24T09:56:19.990Z</time>
      </trkpt>
      <trkpt lat="42.534028" lon="-6.51416">
        <ele>644</ele>
        <time>2018-07-24T09:56:21.000Z</time>
      </trkpt>
      <trkpt lat="42.534099" lon="-6.51426">
        <ele>643.594201016584</ele>
        <time>2018-07-24T09:56:21.990Z</time>
      </trkpt>
      <trkpt lat="42.534171" lon="-6.514364">
        <ele>642.4099968</ele>
        <time>2018-07-24T09:56:22.990Z</time>
      </trkpt>
      <trkpt lat="42.534246" lon="-6.514468">
        <ele>641.4099968</ele>
        <time>2018-07-24T09:56:23.990Z</time>
      </trkpt>
      <trkpt lat="42.534319" lon="-6.514573">
        <ele>640.415836565027</ele>
        <time>2018-07-24T09:56:24.990Z</time>
      </trkpt>
      <trkpt lat="42.534379" lon="-6.514688">
        <ele>639.546153618936</ele>
        <time>2018-07-24T09:56:26.000Z</time>
      </trkpt>
      <trkpt lat="42.534425" lon="-6.514813">
        <ele>639</ele>
        <time>2018-07-24T09:56:26.990Z</time>
      </trkpt>
      <trkpt lat="42.534461" lon="-6.514944">
        <ele>638.4099968</ele>
        <time>2018-07-24T09:56:27.990Z</time>
      </trkpt>
      <trkpt lat="42.534498" lon="-6.51508">
        <ele>638</ele>
        <time>2018-07-24T09:56:28.990Z</time>
      </trkpt>
      <trkpt lat="42.53454" lon="-6.515202">
        <ele>638</ele>
        <time>2018-07-24T09:56:29.990Z</time>
      </trkpt>
      <trkpt lat="42.534587" lon="-6.515324">
        <ele>638</ele>
        <time>2018-07-24T09:56:31.000Z</time>
      </trkpt>
      <trkpt lat="42.534637" lon="-6.515444">
        <ele>637.594201016584</ele>
        <time>2018-07-24T09:56:31.990Z</time>
      </trkpt>
      <trkpt lat="42.534687" lon="-6.51557">
        <ele>635.8199936</ele>
        <time>2018-07-24T09:56:32.990Z</time>
      </trkpt>
      <trkpt lat="42.534727" lon="-6.515705">
        <ele>635</ele>
        <time>2018-07-24T09:56:33.990Z</time>
      </trkpt>
      <trkpt lat="42.534758" lon="-6.51585">
        <ele>634.635799055009</ele>
        <time>2018-07-24T09:56:34.990Z</time>
      </trkpt>
      <trkpt lat="42.534784" lon="-6.515998">
        <ele>634.012341777153</ele>
        <time>2018-07-24T09:56:36.000Z</time>
      </trkpt>
      <trkpt lat="42.534812" lon="-6.516132">
        <ele>633</ele>
        <time>2018-07-24T09:56:37.020Z</time>
      </trkpt>
      <trkpt lat="42.534847" lon="-6.516245">
        <ele>632.44</ele>
        <time>2018-07-24T09:56:37.960Z</time>
      </trkpt>
      <trkpt lat="42.5349" lon="-6.516359">
        <ele>631.4099968</ele>
        <time>2018-07-24T09:56:38.990Z</time>
      </trkpt>
      <trkpt lat="42.534965" lon="-6.516456">
        <ele>630.542632043738</ele>
        <time>2018-07-24T09:56:39.990Z</time>
      </trkpt>
      <trkpt lat="42.535037" lon="-6.516548">
        <ele>629.563377742523</ele>
        <time>2018-07-24T09:56:41.000Z</time>
      </trkpt>
      <trkpt lat="42.535111" lon="-6.516634">
        <ele>627.854366277697</ele>
        <time>2018-07-24T09:56:41.990Z</time>
      </trkpt>
      <trkpt lat="42.535196" lon="-6.516709">
        <ele>626.422678507805</ele>
        <time>2018-07-24T09:56:42.990Z</time>
      </trkpt>
      <trkpt lat="42.535285" lon="-6.51677">
        <ele>626</ele>
        <time>2018-07-24T09:56:43.990Z</time>
      </trkpt>
      <trkpt lat="42.535378" lon="-6.516827">
        <ele>626</ele>
        <time>2018-07-24T09:56:44.990Z</time>
      </trkpt>
      <trkpt lat="42.535466" lon="-6.516874">
        <ele>625.579712833451</ele>
        <time>2018-07-24T09:56:46.000Z</time>
      </trkpt>
      <trkpt lat="42.535557" lon="-6.516924">
        <ele>624.4099968</ele>
        <time>2018-07-24T09:56:46.990Z</time>
      </trkpt>
      <trkpt lat="42.535649" lon="-6.516971">
        <ele>623.4099968</ele>
        <time>2018-07-24T09:56:47.990Z</time>
      </trkpt>
      <trkpt lat="42.53574" lon="-6.517022">
        <ele>623</ele>
        <time>2018-07-24T09:56:48.990Z</time>
      </trkpt>
      <trkpt lat="42.535832" lon="-6.517077">
        <ele>622.549616978035</ele>
        <time>2018-07-24T09:56:49.990Z</time>
      </trkpt>
      <trkpt lat="42.535923" lon="-6.517138">
        <ele>621.579712833451</ele>
        <time>2018-07-24T09:56:51.000Z</time>
      </trkpt>
      <trkpt lat="42.536008" lon="-6.517179">
        <ele>620.4099968</ele>
        <time>2018-07-24T09:56:51.990Z</time>
      </trkpt>
      <trkpt lat="42.536165" lon="-6.51725">
        <ele>620</ele>
        <time>2018-07-24T09:56:53.990Z</time>
      </trkpt>
      <trkpt lat="42.536295" lon="-6.517313">
        <ele>619</ele>
        <time>2018-07-24T09:56:56.030Z</time>
      </trkpt>
      <trkpt lat="42.536399" lon="-6.517354">
        <ele>619</ele>
        <time>2018-07-24T09:56:57.990Z</time>
      </trkpt>
      <trkpt lat="42.536493" lon="-6.51739">
        <ele>617.4099968</ele>
        <time>2018-07-24T09:56:59.990Z</time>
      </trkpt>
      <trkpt lat="42.536583" lon="-6.517411">
        <ele>617</ele>
        <time>2018-07-24T09:57:01.990Z</time>
      </trkpt>
      <trkpt lat="42.536686" lon="-6.517427">
        <ele>617</ele>
        <time>2018-07-24T09:57:03.990Z</time>
      </trkpt>
      <trkpt lat="42.536794" lon="-6.517465">
        <ele>616.546153618936</ele>
        <time>2018-07-24T09:57:06.000Z</time>
      </trkpt>
      <trkpt lat="42.53691" lon="-6.51752">
        <ele>614.4099968</ele>
        <time>2018-07-24T09:57:07.990Z</time>
      </trkpt>
      <trkpt lat="42.537024" lon="-6.517588">
        <ele>613</ele>
        <time>2018-07-24T09:57:09.990Z</time>
      </trkpt>
      <trkpt lat="42.537138" lon="-6.51768">
        <ele>612.4099968</ele>
        <time>2018-07-24T09:57:11.990Z</time>
      </trkpt>
      <trkpt lat="42.537247" lon="-6.517784">
        <ele>611</ele>
        <time>2018-07-24T09:57:13.990Z</time>
      </trkpt>
      <trkpt lat="42.537352" lon="-6.517894">
        <ele>610.3000064</ele>
        <time>2018-07-24T09:57:16.100Z</time>
      </trkpt>
      <trkpt lat="42.537437" lon="-6.518028">
        <ele>609.4</ele>
        <time>2018-07-24T09:57:18.000Z</time>
      </trkpt>
      <trkpt lat="42.537518" lon="-6.518149">
        <ele>608</ele>
        <time>2018-07-24T09:57:19.970Z</time>
      </trkpt>
      <trkpt lat="42.537582" lon="-6.51828">
        <ele>608.450383021965</ele>
        <time>2018-07-24T09:57:22.990Z</time>
      </trkpt>
      <trkpt lat="42.537597" lon="-6.518427">
        <ele>609</ele>
        <time>2018-07-24T09:57:26.990Z</time>
      </trkpt>
      <trkpt lat="42.537604" lon="-6.518557">
        <ele>609</ele>
        <time>2018-07-24T09:57:31.990Z</time>
      </trkpt>
      <trkpt lat="42.537598" lon="-6.518696">
        <ele>609</ele>
        <time>2018-07-24T09:57:36.990Z</time>
      </trkpt>
      <trkpt lat="42.537619" lon="-6.518831">
        <ele>609</ele>
        <time>2018-07-24T09:57:40.990Z</time>
      </trkpt>
      <trkpt lat="42.537626" lon="-6.51899">
        <ele>609</ele>
        <time>2018-07-24T09:57:45.990Z</time>
      </trkpt>
      <trkpt lat="42.537657" lon="-6.51913">
        <ele>608</ele>
        <time>2018-07-24T09:57:48.990Z</time>
      </trkpt>
      <trkpt lat="42.537686" lon="-6.519263">
        <ele>606.581080379845</ele>
        <time>2018-07-24T09:57:52.000Z</time>
      </trkpt>
      <trkpt lat="42.537771" lon="-6.519527">
        <ele>606</ele>
        <time>2018-07-24T09:57:57.000Z</time>
      </trkpt>
      <trkpt lat="42.537796" lon="-6.519648">
        <ele>605.541985851638</ele>
        <time>2018-07-24T09:58:00.000Z</time>
      </trkpt>
      <trkpt lat="42.537834" lon="-6.519808">
        <ele>605</ele>
        <time>2018-07-24T09:58:03.000Z</time>
      </trkpt>
      <trkpt lat="42.537876" lon="-6.519918">
        <ele>605</ele>
        <time>2018-07-24T09:58:05.000Z</time>
      </trkpt>
      <trkpt lat="42.53796" lon="-6.520086">
        <ele>604</ele>
        <time>2018-07-24T09:58:09.000Z</time>
      </trkpt>
      <trkpt lat="42.537986" lon="-6.520244">
        <ele>604</ele>
        <time>2018-07-24T09:58:12.000Z</time>
      </trkpt>
      <trkpt lat="42.538017" lon="-6.520369">
        <ele>604</ele>
        <time>2018-07-24T09:58:14.000Z</time>
      </trkpt>
      <trkpt lat="42.538053" lon="-6.520496">
        <ele>604</ele>
        <time>2018-07-24T09:58:16.000Z</time>
      </trkpt>
      <trkpt lat="42.5381" lon="-6.52066">
        <ele>603</ele>
        <time>2018-07-24T09:58:19.000Z</time>
      </trkpt>
      <trkpt lat="42.538165" lon="-6.52082">
        <ele>603</ele>
        <time>2018-07-24T09:58:22.000Z</time>
      </trkpt>
      <trkpt lat="42.538208" lon="-6.521001">
        <ele>602.404039098055</ele>
        <time>2018-07-24T09:58:25.000Z</time>
      </trkpt>
      <trkpt lat="42.538255" lon="-6.521154">
        <ele>602</ele>
        <time>2018-07-24T09:58:28.000Z</time>
      </trkpt>
      <trkpt lat="42.538293" lon="-6.521284">
        <ele>602</ele>
        <time>2018-07-24T09:58:30.000Z</time>
      </trkpt>
      <trkpt lat="42.538362" lon="-6.521431">
        <ele>602</ele>
        <time>2018-07-24T09:58:32.000Z</time>
      </trkpt>
      <trkpt lat="42.538413" lon="-6.521552">
        <ele>601.4</ele>
        <time>2018-07-24T09:58:34.000Z</time>
      </trkpt>
      <trkpt lat="42.538446" lon="-6.521681">
        <ele>601</ele>
        <time>2018-07-24T09:58:36.000Z</time>
      </trkpt>
      <trkpt lat="42.538502" lon="-6.521783">
        <ele>601</ele>
        <time>2018-07-24T09:58:38.000Z</time>
      </trkpt>
      <trkpt lat="42.538542" lon="-6.521897">
        <ele>601</ele>
        <time>2018-07-24T09:58:40.000Z</time>
      </trkpt>
      <trkpt lat="42.538584" lon="-6.52204">
        <ele>601</ele>
        <time>2018-07-24T09:58:42.990Z</time>
      </trkpt>
      <trkpt lat="42.538641" lon="-6.522185">
        <ele>601</ele>
        <time>2018-07-24T09:58:47.000Z</time>
      </trkpt>
      <trkpt lat="42.538696" lon="-6.522314">
        <ele>601.587627505575</ele>
        <time>2018-07-24T09:58:50.000Z</time>
      </trkpt>
      <trkpt lat="42.538756" lon="-6.522412">
        <ele>602</ele>
        <time>2018-07-24T09:58:52.990Z</time>
      </trkpt>
      <trkpt lat="42.538832" lon="-6.522483">
        <ele>602</ele>
        <time>2018-07-24T09:58:56.000Z</time>
      </trkpt>
      <trkpt lat="42.538895" lon="-6.522578">
        <ele>602</ele>
        <time>2018-07-24T09:58:59.000Z</time>
      </trkpt>
      <trkpt lat="42.538986" lon="-6.522662">
        <ele>602.5900032</ele>
        <time>2018-07-24T09:59:01.990Z</time>
      </trkpt>
      <trkpt lat="42.539069" lon="-6.522769">
        <ele>604</ele>
        <time>2018-07-24T09:59:06.000Z</time>
      </trkpt>
      <trkpt lat="42.539094" lon="-6.522906">
        <ele>605</ele>
        <time>2018-07-24T09:59:11.000Z</time>
      </trkpt>
      <trkpt lat="42.539001" lon="-6.522917">
        <ele>604</ele>
        <time>2018-07-24T10:02:26.000Z</time>
      </trkpt>
      <trkpt lat="42.539091" lon="-6.52293">
        <ele>602.449618479674</ele>
        <time>2018-07-24T10:04:26.990Z</time>
      </trkpt>
      <trkpt lat="42.539136" lon="-6.523046">
        <ele>602</ele>
        <time>2018-07-24T10:04:54.000Z</time>
      </trkpt>
      <trkpt lat="42.539209" lon="-6.523139">
        <ele>601</ele>
        <time>2018-07-24T10:04:57.990Z</time>
      </trkpt>
      <trkpt lat="42.53928" lon="-6.523232">
        <ele>600.4099968</ele>
        <time>2018-07-24T10:05:00.990Z</time>
      </trkpt>
      <trkpt lat="42.539352" lon="-6.523356">
        <ele>599.4</ele>
        <time>2018-07-24T10:05:04.000Z</time>
      </trkpt>
      <trkpt lat="42.539416" lon="-6.523502">
        <ele>599</ele>
        <time>2018-07-24T10:05:06.990Z</time>
      </trkpt>
      <trkpt lat="42.539462" lon="-6.523609">
        <ele>599</ele>
        <time>2018-07-24T10:05:09.000Z</time>
      </trkpt>
      <trkpt lat="42.53951" lon="-6.523717">
        <ele>599</ele>
        <time>2018-07-24T10:05:10.960Z</time>
      </trkpt>
      <trkpt lat="42.539561" lon="-6.523828">
        <ele>598</ele>
        <time>2018-07-24T10:05:12.990Z</time>
      </trkpt>
      <trkpt lat="42.539614" lon="-6.52394">
        <ele>598</ele>
        <time>2018-07-24T10:05:14.990Z</time>
      </trkpt>
      <trkpt lat="42.539661" lon="-6.524047">
        <ele>597.542632043738</ele>
        <time>2018-07-24T10:05:16.990Z</time>
      </trkpt>
      <trkpt lat="42.539709" lon="-6.524156">
        <ele>597</ele>
        <time>2018-07-24T10:05:19.990Z</time>
      </trkpt>
      <trkpt lat="42.539752" lon="-6.524268">
        <ele>597</ele>
        <time>2018-07-24T10:05:22.990Z</time>
      </trkpt>
      <trkpt lat="42.539811" lon="-6.524376">
        <ele>597</ele>
        <time>2018-07-24T10:05:25.990Z</time>
      </trkpt>
      <trkpt lat="42.539888" lon="-6.524532">
        <ele>596.3699968</ele>
        <time>2018-07-24T10:05:29.030Z</time>
      </trkpt>
      <trkpt lat="42.539951" lon="-6.524649">
        <ele>595</ele>
        <time>2018-07-24T10:05:30.990Z</time>
      </trkpt>
      <trkpt lat="42.540007" lon="-6.524766">
        <ele>595</ele>
        <time>2018-07-24T10:05:32.990Z</time>
      </trkpt>
      <trkpt lat="42.540061" lon="-6.524885">
        <ele>595.5900032</ele>
        <time>2018-07-24T10:05:34.990Z</time>
      </trkpt>
      <trkpt lat="42.540105" lon="-6.524992">
        <ele>596</ele>
        <time>2018-07-24T10:05:36.990Z</time>
      </trkpt>
      <trkpt lat="42.540156" lon="-6.525097">
        <ele>596</ele>
        <time>2018-07-24T10:05:39.000Z</time>
      </trkpt>
      <trkpt lat="42.540218" lon="-6.525233">
        <ele>596</ele>
        <time>2018-07-24T10:05:41.990Z</time>
      </trkpt>
      <trkpt lat="42.540292" lon="-6.525353">
        <ele>595.4099968</ele>
        <time>2018-07-24T10:05:44.990Z</time>
      </trkpt>
      <trkpt lat="42.540367" lon="-6.525489">
        <ele>595.6199936</ele>
        <time>2018-07-24T10:05:48.020Z</time>
      </trkpt>
      <trkpt lat="42.540422" lon="-6.525585">
        <ele>596</ele>
        <time>2018-07-24T10:05:49.990Z</time>
      </trkpt>
      <trkpt lat="42.54047" lon="-6.525691">
        <ele>596</ele>
        <time>2018-07-24T10:05:51.990Z</time>
      </trkpt>
      <trkpt lat="42.540541" lon="-6.52583">
        <ele>596</ele>
        <time>2018-07-24T10:05:54.990Z</time>
      </trkpt>
      <trkpt lat="42.540609" lon="-6.525957">
        <ele>597</ele>
        <time>2018-07-24T10:05:57.990Z</time>
      </trkpt>
      <trkpt lat="42.540697" lon="-6.526097">
        <ele>596.4099968</ele>
        <time>2018-07-24T10:06:00.990Z</time>
      </trkpt>
      <trkpt lat="42.54077" lon="-6.526193">
        <ele>595.4099968</ele>
        <time>2018-07-24T10:06:02.990Z</time>
      </trkpt>
      <trkpt lat="42.540848" lon="-6.526306">
        <ele>595</ele>
        <time>2018-07-24T10:06:04.990Z</time>
      </trkpt>
      <trkpt lat="42.540924" lon="-6.526427">
        <ele>594.4099968</ele>
        <time>2018-07-24T10:06:06.990Z</time>
      </trkpt>
      <trkpt lat="42.541011" lon="-6.52655">
        <ele>593</ele>
        <time>2018-07-24T10:06:09.000Z</time>
      </trkpt>
      <trkpt lat="42.541102" lon="-6.526676">
        <ele>593</ele>
        <time>2018-07-24T10:06:10.990Z</time>
      </trkpt>
      <trkpt lat="42.541192" lon="-6.526799">
        <ele>593</ele>
        <time>2018-07-24T10:06:12.990Z</time>
      </trkpt>
      <trkpt lat="42.541274" lon="-6.526917">
        <ele>593</ele>
        <time>2018-07-24T10:06:14.990Z</time>
      </trkpt>
      <trkpt lat="42.541354" lon="-6.527033">
        <ele>592</ele>
        <time>2018-07-24T10:06:16.990Z</time>
      </trkpt>
      <trkpt lat="42.541434" lon="-6.527155">
        <ele>592</ele>
        <time>2018-07-24T10:06:19.000Z</time>
      </trkpt>
      <trkpt lat="42.541508" lon="-6.527268">
        <ele>592</ele>
        <time>2018-07-24T10:06:20.990Z</time>
      </trkpt>
      <trkpt lat="42.541588" lon="-6.527384">
        <ele>592</ele>
        <time>2018-07-24T10:06:22.990Z</time>
      </trkpt>
      <trkpt lat="42.541662" lon="-6.527499">
        <ele>592</ele>
        <time>2018-07-24T10:06:24.990Z</time>
      </trkpt>
      <trkpt lat="42.54173" lon="-6.527609">
        <ele>592</ele>
        <time>2018-07-24T10:06:26.960Z</time>
      </trkpt>
      <trkpt lat="42.5418" lon="-6.527716">
        <ele>591.458014148362</ele>
        <time>2018-07-24T10:06:29.000Z</time>
      </trkpt>
      <trkpt lat="42.541864" lon="-6.527816">
        <ele>592</ele>
        <time>2018-07-24T10:06:30.990Z</time>
      </trkpt>
      <trkpt lat="42.541929" lon="-6.527925">
        <ele>592</ele>
        <time>2018-07-24T10:06:32.990Z</time>
      </trkpt>
      <trkpt lat="42.54199" lon="-6.528033">
        <ele>592</ele>
        <time>2018-07-24T10:06:34.990Z</time>
      </trkpt>
      <trkpt lat="42.542044" lon="-6.528151">
        <ele>592</ele>
        <time>2018-07-24T10:06:36.990Z</time>
      </trkpt>
      <trkpt lat="42.542104" lon="-6.528276">
        <ele>592</ele>
        <time>2018-07-24T10:06:39.000Z</time>
      </trkpt>
      <trkpt lat="42.54216" lon="-6.528405">
        <ele>592</ele>
        <time>2018-07-24T10:06:40.990Z</time>
      </trkpt>
      <trkpt lat="42.542216" lon="-6.528529">
        <ele>591</ele>
        <time>2018-07-24T10:06:42.990Z</time>
      </trkpt>
      <trkpt lat="42.542278" lon="-6.528661">
        <ele>591</ele>
        <time>2018-07-24T10:06:45.020Z</time>
      </trkpt>
      <trkpt lat="42.542338" lon="-6.528785">
        <ele>591</ele>
        <time>2018-07-24T10:06:46.990Z</time>
      </trkpt>
      <trkpt lat="42.542406" lon="-6.52892">
        <ele>591</ele>
        <time>2018-07-24T10:06:49.000Z</time>
      </trkpt>
      <trkpt lat="42.542464" lon="-6.529042">
        <ele>591</ele>
        <time>2018-07-24T10:06:50.990Z</time>
      </trkpt>
      <trkpt lat="42.54252" lon="-6.52917">
        <ele>590.5900032</ele>
        <time>2018-07-24T10:06:52.990Z</time>
      </trkpt>
      <trkpt lat="42.542584" lon="-6.529308">
        <ele>591</ele>
        <time>2018-07-24T10:06:54.990Z</time>
      </trkpt>
      <trkpt lat="42.542646" lon="-6.529432">
        <ele>590</ele>
        <time>2018-07-24T10:06:56.990Z</time>
      </trkpt>
      <trkpt lat="42.542716" lon="-6.529577">
        <ele>590</ele>
        <time>2018-07-24T10:06:59.000Z</time>
      </trkpt>
      <trkpt lat="42.542788" lon="-6.529711">
        <ele>590</ele>
        <time>2018-07-24T10:07:00.990Z</time>
      </trkpt>
      <trkpt lat="42.542854" lon="-6.529853">
        <ele>591</ele>
        <time>2018-07-24T10:07:02.990Z</time>
      </trkpt>
      <trkpt lat="42.542917" lon="-6.52999">
        <ele>590.572520128195</ele>
        <time>2018-07-24T10:07:04.960Z</time>
      </trkpt>
      <trkpt lat="42.542978" lon="-6.530115">
        <ele>590</ele>
        <time>2018-07-24T10:07:06.990Z</time>
      </trkpt>
      <trkpt lat="42.543043" lon="-6.530257">
        <ele>590</ele>
        <time>2018-07-24T10:07:09.000Z</time>
      </trkpt>
      <trkpt lat="42.543106" lon="-6.530402">
        <ele>590</ele>
        <time>2018-07-24T10:07:10.990Z</time>
      </trkpt>
      <trkpt lat="42.543169" lon="-6.530543">
        <ele>590</ele>
        <time>2018-07-24T10:07:12.990Z</time>
      </trkpt>
      <trkpt lat="42.543234" lon="-6.53068">
        <ele>590</ele>
        <time>2018-07-24T10:07:14.990Z</time>
      </trkpt>
      <trkpt lat="42.5433" lon="-6.53082">
        <ele>589</ele>
        <time>2018-07-24T10:07:16.990Z</time>
      </trkpt>
      <trkpt lat="42.54336" lon="-6.530956">
        <ele>589</ele>
        <time>2018-07-24T10:07:19.000Z</time>
      </trkpt>
      <trkpt lat="42.543415" lon="-6.531085">
        <ele>589</ele>
        <time>2018-07-24T10:07:20.990Z</time>
      </trkpt>
      <trkpt lat="42.543471" lon="-6.531217">
        <ele>589</ele>
        <time>2018-07-24T10:07:23.020Z</time>
      </trkpt>
      <trkpt lat="42.543525" lon="-6.53134">
        <ele>588</ele>
        <time>2018-07-24T10:07:24.990Z</time>
      </trkpt>
      <trkpt lat="42.543583" lon="-6.531459">
        <ele>588</ele>
        <time>2018-07-24T10:07:26.990Z</time>
      </trkpt>
      <trkpt lat="42.543641" lon="-6.531577">
        <ele>588</ele>
        <time>2018-07-24T10:07:29.000Z</time>
      </trkpt>
      <trkpt lat="42.543701" lon="-6.531701">
        <ele>588</ele>
        <time>2018-07-24T10:07:30.990Z</time>
      </trkpt>
      <trkpt lat="42.543759" lon="-6.531819">
        <ele>587</ele>
        <time>2018-07-24T10:07:32.990Z</time>
      </trkpt>
      <trkpt lat="42.543818" lon="-6.531944">
        <ele>587</ele>
        <time>2018-07-24T10:07:34.990Z</time>
      </trkpt>
      <trkpt lat="42.543878" lon="-6.532067">
        <ele>587</ele>
        <time>2018-07-24T10:07:36.990Z</time>
      </trkpt>
      <trkpt lat="42.543931" lon="-6.532204">
        <ele>587</ele>
        <time>2018-07-24T10:07:39.000Z</time>
      </trkpt>
      <trkpt lat="42.543994" lon="-6.532337">
        <ele>587</ele>
        <time>2018-07-24T10:07:40.990Z</time>
      </trkpt>
      <trkpt lat="42.544055" lon="-6.53247">
        <ele>587</ele>
        <time>2018-07-24T10:07:42.990Z</time>
      </trkpt>
      <trkpt lat="42.544116" lon="-6.532606">
        <ele>586.4099968</ele>
        <time>2018-07-24T10:07:44.990Z</time>
      </trkpt>
      <trkpt lat="42.544178" lon="-6.532727">
        <ele>586</ele>
        <time>2018-07-24T10:07:46.990Z</time>
      </trkpt>
      <trkpt lat="42.544236" lon="-6.532845">
        <ele>586</ele>
        <time>2018-07-24T10:07:49.000Z</time>
      </trkpt>
      <trkpt lat="42.544295" lon="-6.532969">
        <ele>586</ele>
        <time>2018-07-24T10:07:50.990Z</time>
      </trkpt>
      <trkpt lat="42.544352" lon="-6.533095">
        <ele>586</ele>
        <time>2018-07-24T10:07:52.990Z</time>
      </trkpt>
      <trkpt lat="42.544409" lon="-6.533221">
        <ele>586</ele>
        <time>2018-07-24T10:07:54.990Z</time>
      </trkpt>
      <trkpt lat="42.544465" lon="-6.533348">
        <ele>586</ele>
        <time>2018-07-24T10:07:56.990Z</time>
      </trkpt>
      <trkpt lat="42.544526" lon="-6.533467">
        <ele>586</ele>
        <time>2018-07-24T10:07:59.000Z</time>
      </trkpt>
      <trkpt lat="42.544579" lon="-6.533584">
        <ele>585.3799936</ele>
        <time>2018-07-24T10:08:01.020Z</time>
      </trkpt>
      <trkpt lat="42.544635" lon="-6.533692">
        <ele>586</ele>
        <time>2018-07-24T10:08:02.990Z</time>
      </trkpt>
      <trkpt lat="42.544687" lon="-6.533796">
        <ele>585.4099968</ele>
        <time>2018-07-24T10:08:04.990Z</time>
      </trkpt>
      <trkpt lat="42.54475" lon="-6.533936">
        <ele>586</ele>
        <time>2018-07-24T10:08:07.990Z</time>
      </trkpt>
      <trkpt lat="42.54481" lon="-6.534052">
        <ele>586</ele>
        <time>2018-07-24T10:08:10.990Z</time>
      </trkpt>
      <trkpt lat="42.544872" lon="-6.534176">
        <ele>586</ele>
        <time>2018-07-24T10:08:14.000Z</time>
      </trkpt>
      <trkpt lat="42.544951" lon="-6.534326">
        <ele>586.5900032</ele>
        <time>2018-07-24T10:08:16.990Z</time>
      </trkpt>
      <trkpt lat="42.545021" lon="-6.534474">
        <ele>587</ele>
        <time>2018-07-24T10:08:20.020Z</time>
      </trkpt>
      <trkpt lat="42.545084" lon="-6.534622">
        <ele>586</ele>
        <time>2018-07-24T10:08:22.990Z</time>
      </trkpt>
      <trkpt lat="42.54515" lon="-6.534751">
        <ele>586</ele>
        <time>2018-07-24T10:08:25.990Z</time>
      </trkpt>
      <trkpt lat="42.545213" lon="-6.534888">
        <ele>586</ele>
        <time>2018-07-24T10:08:29.000Z</time>
      </trkpt>
      <trkpt lat="42.545275" lon="-6.535039">
        <ele>586</ele>
        <time>2018-07-24T10:08:31.990Z</time>
      </trkpt>
      <trkpt lat="42.54532" lon="-6.535145">
        <ele>586</ele>
        <time>2018-07-24T10:08:34.000Z</time>
      </trkpt>
      <trkpt lat="42.545371" lon="-6.535245">
        <ele>587</ele>
        <time>2018-07-24T10:08:35.990Z</time>
      </trkpt>
      <trkpt lat="42.545435" lon="-6.535393">
        <ele>587</ele>
        <time>2018-07-24T10:08:39.030Z</time>
      </trkpt>
      <trkpt lat="42.545486" lon="-6.535519">
        <ele>588</ele>
        <time>2018-07-24T10:08:41.990Z</time>
      </trkpt>
      <trkpt lat="42.545553" lon="-6.535622">
        <ele>588.5900032</ele>
        <time>2018-07-24T10:08:44.990Z</time>
      </trkpt>
      <trkpt lat="42.545599" lon="-6.535742">
        <ele>589</ele>
        <time>2018-07-24T10:08:47.990Z</time>
      </trkpt>
      <trkpt lat="42.545634" lon="-6.535865">
        <ele>590</ele>
        <time>2018-07-24T10:08:50.990Z</time>
      </trkpt>
      <trkpt lat="42.545647" lon="-6.536024">
        <ele>591</ele>
        <time>2018-07-24T10:08:54.990Z</time>
      </trkpt>
      <trkpt lat="42.545662" lon="-6.536146">
        <ele>591</ele>
        <time>2018-07-24T10:08:58.020Z</time>
      </trkpt>
      <trkpt lat="42.545659" lon="-6.53629">
        <ele>592</ele>
        <time>2018-07-24T10:09:01.990Z</time>
      </trkpt>
      <trkpt lat="42.545653" lon="-6.536438">
        <ele>594</ele>
        <time>2018-07-24T10:09:05.990Z</time>
      </trkpt>
      <trkpt lat="42.545658" lon="-6.536582">
        <ele>594</ele>
        <time>2018-07-24T10:09:09.990Z</time>
      </trkpt>
      <trkpt lat="42.545649" lon="-6.536731">
        <ele>594</ele>
        <time>2018-07-24T10:09:14.000Z</time>
      </trkpt>
      <trkpt lat="42.545648" lon="-6.536881">
        <ele>594</ele>
        <time>2018-07-24T10:09:17.960Z</time>
      </trkpt>
      <trkpt lat="42.545647" lon="-6.53703">
        <ele>594.457367956262</ele>
        <time>2018-07-24T10:09:21.990Z</time>
      </trkpt>
      <trkpt lat="42.545641" lon="-6.537165">
        <ele>596</ele>
        <time>2018-07-24T10:09:25.990Z</time>
      </trkpt>
      <trkpt lat="42.545646" lon="-6.537308">
        <ele>597</ele>
        <time>2018-07-24T10:09:29.990Z</time>
      </trkpt>
      <trkpt lat="42.545652" lon="-6.537447">
        <ele>597</ele>
        <time>2018-07-24T10:09:34.000Z</time>
      </trkpt>
      <trkpt lat="42.545668" lon="-6.537597">
        <ele>597</ele>
        <time>2018-07-24T10:09:37.990Z</time>
      </trkpt>
      <trkpt lat="42.545679" lon="-6.537751">
        <ele>598</ele>
        <time>2018-07-24T10:09:41.990Z</time>
      </trkpt>
      <trkpt lat="42.545701" lon="-6.537879">
        <ele>598</ele>
        <time>2018-07-24T10:09:44.990Z</time>
      </trkpt>
      <trkpt lat="42.54573" lon="-6.538028">
        <ele>599</ele>
        <time>2018-07-24T10:09:49.000Z</time>
      </trkpt>
      <trkpt lat="42.54577" lon="-6.538172">
        <ele>599</ele>
        <time>2018-07-24T10:09:52.990Z</time>
      </trkpt>
      <trkpt lat="42.545816" lon="-6.53828">
        <ele>599</ele>
        <time>2018-07-24T10:09:55.960Z</time>
      </trkpt>
      <trkpt lat="42.54587" lon="-6.538387">
        <ele>599</ele>
        <time>2018-07-24T10:09:59.000Z</time>
      </trkpt>
      <trkpt lat="42.54593" lon="-6.538494">
        <ele>599</ele>
        <time>2018-07-24T10:10:01.990Z</time>
      </trkpt>
      <trkpt lat="42.54598" lon="-6.5386">
        <ele>599.5900032</ele>
        <time>2018-07-24T10:10:04.990Z</time>
      </trkpt>
      <trkpt lat="42.546056" lon="-6.538719">
        <ele>600</ele>
        <time>2018-07-24T10:10:07.990Z</time>
      </trkpt>
      <trkpt lat="42.546121" lon="-6.538838">
        <ele>600</ele>
        <time>2018-07-24T10:10:10.990Z</time>
      </trkpt>
      <trkpt lat="42.546178" lon="-6.538967">
        <ele>600</ele>
        <time>2018-07-24T10:10:14.000Z</time>
      </trkpt>
      <trkpt lat="42.54623" lon="-6.539097">
        <ele>600</ele>
        <time>2018-07-24T10:10:16.990Z</time>
      </trkpt>
      <trkpt lat="42.546271" lon="-6.539239">
        <ele>600</ele>
        <time>2018-07-24T10:10:19.990Z</time>
      </trkpt>
      <trkpt lat="42.546302" lon="-6.539374">
        <ele>600</ele>
        <time>2018-07-24T10:10:22.990Z</time>
      </trkpt>
      <trkpt lat="42.546321" lon="-6.539509">
        <ele>601</ele>
        <time>2018-07-24T10:10:25.990Z</time>
      </trkpt>
      <trkpt lat="42.54634" lon="-6.539643">
        <ele>601</ele>
        <time>2018-07-24T10:10:29.000Z</time>
      </trkpt>
      <trkpt lat="42.546347" lon="-6.539782">
        <ele>601</ele>
        <time>2018-07-24T10:10:31.990Z</time>
      </trkpt>
      <trkpt lat="42.546349" lon="-6.539925">
        <ele>601</ele>
        <time>2018-07-24T10:10:34.990Z</time>
      </trkpt>
      <trkpt lat="42.546352" lon="-6.540069">
        <ele>600</ele>
        <time>2018-07-24T10:10:37.990Z</time>
      </trkpt>
      <trkpt lat="42.546359" lon="-6.54021">
        <ele>601</ele>
        <time>2018-07-24T10:10:40.990Z</time>
      </trkpt>
      <trkpt lat="42.546362" lon="-6.540355">
        <ele>601</ele>
        <time>2018-07-24T10:10:44.000Z</time>
      </trkpt>
      <trkpt lat="42.546365" lon="-6.540479">
        <ele>602</ele>
        <time>2018-07-24T10:10:46.990Z</time>
      </trkpt>
      <trkpt lat="42.546374" lon="-6.54061">
        <ele>602</ele>
        <time>2018-07-24T10:10:49.990Z</time>
      </trkpt>
      <trkpt lat="42.546378" lon="-6.540749">
        <ele>602</ele>
        <time>2018-07-24T10:10:52.960Z</time>
      </trkpt>
      <trkpt lat="42.546386" lon="-6.540875">
        <ele>602</ele>
        <time>2018-07-24T10:10:55.990Z</time>
      </trkpt>
      <trkpt lat="42.5464" lon="-6.541018">
        <ele>603</ele>
        <time>2018-07-24T10:10:59.000Z</time>
      </trkpt>
      <trkpt lat="42.54641" lon="-6.541145">
        <ele>603</ele>
        <time>2018-07-24T10:11:01.990Z</time>
      </trkpt>
      <trkpt lat="42.546415" lon="-6.541273">
        <ele>603</ele>
        <time>2018-07-24T10:11:04.990Z</time>
      </trkpt>
      <trkpt lat="42.546424" lon="-6.541404">
        <ele>603</ele>
        <time>2018-07-24T10:11:07.990Z</time>
      </trkpt>
      <trkpt lat="42.54643" lon="-6.541533">
        <ele>603</ele>
        <time>2018-07-24T10:11:11.020Z</time>
      </trkpt>
      <trkpt lat="42.546447" lon="-6.541653">
        <ele>603</ele>
        <time>2018-07-24T10:11:14.000Z</time>
      </trkpt>
      <trkpt lat="42.546458" lon="-6.541776">
        <ele>604</ele>
        <time>2018-07-24T10:11:16.990Z</time>
      </trkpt>
      <trkpt lat="42.546461" lon="-6.541928">
        <ele>605</ele>
        <time>2018-07-24T10:11:20.990Z</time>
      </trkpt>
      <trkpt lat="42.546453" lon="-6.542082">
        <ele>605.5900032</ele>
        <time>2018-07-24T10:11:24.990Z</time>
      </trkpt>
      <trkpt lat="42.546448" lon="-6.542228">
        <ele>606</ele>
        <time>2018-07-24T10:11:29.000Z</time>
      </trkpt>
      <trkpt lat="42.546442" lon="-6.542373">
        <ele>606.5900032</ele>
        <time>2018-07-24T10:11:32.990Z</time>
      </trkpt>
      <trkpt lat="42.546432" lon="-6.542519">
        <ele>607</ele>
        <time>2018-07-24T10:11:36.990Z</time>
      </trkpt>
      <trkpt lat="42.546423" lon="-6.542659">
        <ele>607</ele>
        <time>2018-07-24T10:11:40.990Z</time>
      </trkpt>
      <trkpt lat="42.546403" lon="-6.542794">
        <ele>607</ele>
        <time>2018-07-24T10:11:44.990Z</time>
      </trkpt>
      <trkpt lat="42.546376" lon="-6.542923">
        <ele>607</ele>
        <time>2018-07-24T10:11:49.030Z</time>
      </trkpt>
      <trkpt lat="42.546356" lon="-6.543061">
        <ele>608</ele>
        <time>2018-07-24T10:11:52.990Z</time>
      </trkpt>
      <trkpt lat="42.546335" lon="-6.543189">
        <ele>609</ele>
        <time>2018-07-24T10:11:56.990Z</time>
      </trkpt>
      <trkpt lat="42.546317" lon="-6.543335">
        <ele>609</ele>
        <time>2018-07-24T10:12:00.990Z</time>
      </trkpt>
      <trkpt lat="42.546309" lon="-6.543483">
        <ele>609</ele>
        <time>2018-07-24T10:12:04.990Z</time>
      </trkpt>
      <trkpt lat="42.546295" lon="-6.54361">
        <ele>609</ele>
        <time>2018-07-24T10:12:08.020Z</time>
      </trkpt>
      <trkpt lat="42.546285" lon="-6.543761">
        <ele>610</ele>
        <time>2018-07-24T10:12:11.990Z</time>
      </trkpt>
      <trkpt lat="42.546278" lon="-6.543903">
        <ele>611</ele>
        <time>2018-07-24T10:12:15.990Z</time>
      </trkpt>
      <trkpt lat="42.546258" lon="-6.544035">
        <ele>610.5900032</ele>
        <time>2018-07-24T10:12:19.990Z</time>
      </trkpt>
      <trkpt lat="42.546239" lon="-6.544172">
        <ele>611</ele>
        <time>2018-07-24T10:12:24.000Z</time>
      </trkpt>
      <trkpt lat="42.546216" lon="-6.544323">
        <ele>612</ele>
        <time>2018-07-24T10:12:27.960Z</time>
      </trkpt>
      <trkpt lat="42.546205" lon="-6.544468">
        <ele>612</ele>
        <time>2018-07-24T10:12:31.990Z</time>
      </trkpt>
      <trkpt lat="42.546193" lon="-6.544627">
        <ele>613</ele>
        <time>2018-07-24T10:12:35.990Z</time>
      </trkpt>
      <trkpt lat="42.546183" lon="-6.544749">
        <ele>613</ele>
        <time>2018-07-24T10:12:39.000Z</time>
      </trkpt>
      <trkpt lat="42.546173" lon="-6.5449">
        <ele>614</ele>
        <time>2018-07-24T10:12:42.990Z</time>
      </trkpt>
      <trkpt lat="42.54616" lon="-6.545024">
        <ele>614</ele>
        <time>2018-07-24T10:12:46.020Z</time>
      </trkpt>
      <trkpt lat="42.546158" lon="-6.545174">
        <ele>615</ele>
        <time>2018-07-24T10:12:49.990Z</time>
      </trkpt>
      <trkpt lat="42.546152" lon="-6.54532">
        <ele>615</ele>
        <time>2018-07-24T10:12:54.000Z</time>
      </trkpt>
      <trkpt lat="42.546147" lon="-6.545468">
        <ele>615</ele>
        <time>2018-07-24T10:12:57.990Z</time>
      </trkpt>
      <trkpt lat="42.546139" lon="-6.545596">
        <ele>615</ele>
        <time>2018-07-24T10:13:00.990Z</time>
      </trkpt>
      <trkpt lat="42.546119" lon="-6.545727">
        <ele>615</ele>
        <time>2018-07-24T10:13:04.000Z</time>
      </trkpt>
      <trkpt lat="42.546111" lon="-6.545863">
        <ele>616</ele>
        <time>2018-07-24T10:13:06.990Z</time>
      </trkpt>
      <trkpt lat="42.546119" lon="-6.54601">
        <ele>616</ele>
        <time>2018-07-24T10:13:10.000Z</time>
      </trkpt>
      <trkpt lat="42.5461" lon="-6.546154">
        <ele>616</ele>
        <time>2018-07-24T10:13:13.000Z</time>
      </trkpt>
      <trkpt lat="42.546079" lon="-6.546277">
        <ele>617</ele>
        <time>2018-07-24T10:13:16.000Z</time>
      </trkpt>
      <trkpt lat="42.546063" lon="-6.546436">
        <ele>618</ele>
        <time>2018-07-24T10:13:20.000Z</time>
      </trkpt>
      <trkpt lat="42.546046" lon="-6.546587">
        <ele>618</ele>
        <time>2018-07-24T10:13:24.000Z</time>
      </trkpt>
      <trkpt lat="42.546032" lon="-6.546742">
        <ele>619</ele>
        <time>2018-07-24T10:13:28.000Z</time>
      </trkpt>
      <trkpt lat="42.546018" lon="-6.5469">
        <ele>619.458014148362</ele>
        <time>2018-07-24T10:13:32.000Z</time>
      </trkpt>
      <trkpt lat="42.546005" lon="-6.547051">
        <ele>620</ele>
        <time>2018-07-24T10:13:36.000Z</time>
      </trkpt>
      <trkpt lat="42.545991" lon="-6.547208">
        <ele>620</ele>
        <time>2018-07-24T10:13:40.000Z</time>
      </trkpt>
      <trkpt lat="42.545977" lon="-6.547363">
        <ele>621</ele>
        <time>2018-07-24T10:13:44.000Z</time>
      </trkpt>
      <trkpt lat="42.545967" lon="-6.547509">
        <ele>621</ele>
        <time>2018-07-24T10:13:48.000Z</time>
      </trkpt>
      <trkpt lat="42.54595" lon="-6.547662">
        <ele>621</ele>
        <time>2018-07-24T10:13:52.000Z</time>
      </trkpt>
      <trkpt lat="42.545933" lon="-6.547813">
        <ele>621.6</ele>
        <time>2018-07-24T10:13:56.000Z</time>
      </trkpt>
      <trkpt lat="42.545922" lon="-6.547953">
        <ele>622</ele>
        <time>2018-07-24T10:14:00.000Z</time>
      </trkpt>
      <trkpt lat="42.545911" lon="-6.548092">
        <ele>622</ele>
        <time>2018-07-24T10:14:04.000Z</time>
      </trkpt>
      <trkpt lat="42.545894" lon="-6.548243">
        <ele>623</ele>
        <time>2018-07-24T10:14:08.000Z</time>
      </trkpt>
      <trkpt lat="42.545878" lon="-6.548388">
        <ele>624</ele>
        <time>2018-07-24T10:14:12.000Z</time>
      </trkpt>
      <trkpt lat="42.545851" lon="-6.548518">
        <ele>624</ele>
        <time>2018-07-24T10:14:15.990Z</time>
      </trkpt>
      <trkpt lat="42.545811" lon="-6.548652">
        <ele>624</ele>
        <time>2018-07-24T10:14:19.990Z</time>
      </trkpt>
      <trkpt lat="42.545767" lon="-6.548792">
        <ele>626</ele>
        <time>2018-07-24T10:14:24.000Z</time>
      </trkpt>
      <trkpt lat="42.545714" lon="-6.548924">
        <ele>626</ele>
        <time>2018-07-24T10:14:27.990Z</time>
      </trkpt>
      <trkpt lat="42.545651" lon="-6.549067">
        <ele>626</ele>
        <time>2018-07-24T10:14:31.990Z</time>
      </trkpt>
      <trkpt lat="42.545599" lon="-6.549175">
        <ele>627</ele>
        <time>2018-07-24T10:14:34.990Z</time>
      </trkpt>
      <trkpt lat="42.545548" lon="-6.549284">
        <ele>627</ele>
        <time>2018-07-24T10:14:37.990Z</time>
      </trkpt>
      <trkpt lat="42.545498" lon="-6.549391">
        <ele>626</ele>
        <time>2018-07-24T10:14:40.960Z</time>
      </trkpt>
      <trkpt lat="42.545452" lon="-6.549518">
        <ele>626</ele>
        <time>2018-07-24T10:14:44.000Z</time>
      </trkpt>
      <trkpt lat="42.545413" lon="-6.549656">
        <ele>625</ele>
        <time>2018-07-24T10:14:46.990Z</time>
      </trkpt>
      <trkpt lat="42.545386" lon="-6.549806">
        <ele>625</ele>
        <time>2018-07-24T10:14:49.990Z</time>
      </trkpt>
      <trkpt lat="42.545355" lon="-6.54993">
        <ele>624.4099968</ele>
        <time>2018-07-24T10:14:52.990Z</time>
      </trkpt>
      <trkpt lat="42.545335" lon="-6.550065">
        <ele>624</ele>
        <time>2018-07-24T10:14:59.970Z</time>
      </trkpt>
      <trkpt lat="42.545257" lon="-6.550166">
        <ele>624</ele>
        <time>2018-07-24T10:15:03.990Z</time>
      </trkpt>
      <trkpt lat="42.545184" lon="-6.550245">
        <ele>623</ele>
        <time>2018-07-24T10:15:06.990Z</time>
      </trkpt>
      <trkpt lat="42.545109" lon="-6.550421">
        <ele>621.542632043738</ele>
        <time>2018-07-24T10:15:09.990Z</time>
      </trkpt>
      <trkpt lat="42.545054" lon="-6.550619">
        <ele>618.7600128</ele>
        <time>2018-07-24T10:15:12.020Z</time>
      </trkpt>
      <trkpt lat="42.544987" lon="-6.550825">
        <ele>616.549616978035</ele>
        <time>2018-07-24T10:15:13.990Z</time>
      </trkpt>
      <trkpt lat="42.544924" lon="-6.551039">
        <ele>614.542632043738</ele>
        <time>2018-07-24T10:15:15.990Z</time>
      </trkpt>
      <trkpt lat="42.544865" lon="-6.551243">
        <ele>613.3699968</ele>
        <time>2018-07-24T10:15:18.030Z</time>
      </trkpt>
      <trkpt lat="42.544809" lon="-6.55145">
        <ele>611.553027878788</ele>
        <time>2018-07-24T10:15:19.990Z</time>
      </trkpt>
      <trkpt lat="42.544757" lon="-6.55168">
        <ele>610.4099968</ele>
        <time>2018-07-24T10:15:21.990Z</time>
      </trkpt>
      <trkpt lat="42.54473" lon="-6.551805">
        <ele>609.4</ele>
        <time>2018-07-24T10:15:23.000Z</time>
      </trkpt>
      <trkpt lat="42.544706" lon="-6.551935">
        <ele>608.106055757576</ele>
        <time>2018-07-24T10:15:23.990Z</time>
      </trkpt>
      <trkpt lat="42.544682" lon="-6.552073">
        <ele>606.602936470588</ele>
        <time>2018-07-24T10:15:24.990Z</time>
      </trkpt>
      <trkpt lat="42.544661" lon="-6.552215">
        <ele>605.4099968</ele>
        <time>2018-07-24T10:15:25.990Z</time>
      </trkpt>
      <trkpt lat="42.544636" lon="-6.552357">
        <ele>605</ele>
        <time>2018-07-24T10:15:26.990Z</time>
      </trkpt>
      <trkpt lat="42.544609" lon="-6.552504">
        <ele>603.8</ele>
        <time>2018-07-24T10:15:28.000Z</time>
      </trkpt>
      <trkpt lat="42.544584" lon="-6.552643">
        <ele>602.549616978035</ele>
        <time>2018-07-24T10:15:28.990Z</time>
      </trkpt>
      <trkpt lat="42.544567" lon="-6.552774">
        <ele>601.594201016584</ele>
        <time>2018-07-24T10:15:29.990Z</time>
      </trkpt>
      <trkpt lat="42.544531" lon="-6.552997">
        <ele>598.4099968</ele>
        <time>2018-07-24T10:15:31.990Z</time>
      </trkpt>
      <trkpt lat="42.544478" lon="-6.553186">
        <ele>598</ele>
        <time>2018-07-24T10:15:33.990Z</time>
      </trkpt>
      <trkpt lat="42.544398" lon="-6.55334">
        <ele>597</ele>
        <time>2018-07-24T10:15:35.990Z</time>
      </trkpt>
      <trkpt lat="42.544323" lon="-6.553546">
        <ele>596</ele>
        <time>2018-07-24T10:15:37.970Z</time>
      </trkpt>
      <trkpt lat="42.544243" lon="-6.553761">
        <ele>594.4099968</ele>
        <time>2018-07-24T10:15:39.990Z</time>
      </trkpt>
      <trkpt lat="42.544172" lon="-6.553972">
        <ele>592.09923395607</ele>
        <time>2018-07-24T10:15:41.990Z</time>
      </trkpt>
      <trkpt lat="42.54411" lon="-6.554168">
        <ele>588.8199936</ele>
        <time>2018-07-24T10:15:43.990Z</time>
      </trkpt>
      <trkpt lat="42.544068" lon="-6.554376">
        <ele>587</ele>
        <time>2018-07-24T10:15:45.990Z</time>
      </trkpt>
      <trkpt lat="42.544033" lon="-6.554592">
        <ele>585.534882567151</ele>
        <time>2018-07-24T10:15:48.000Z</time>
      </trkpt>
      <trkpt lat="42.544008" lon="-6.554821">
        <ele>582.415836565027</ele>
        <time>2018-07-24T10:15:49.990Z</time>
      </trkpt>
      <trkpt lat="42.543977" lon="-6.555051">
        <ele>580.4099968</ele>
        <time>2018-07-24T10:15:51.990Z</time>
      </trkpt>
      <trkpt lat="42.543956" lon="-6.555285">
        <ele>578.559697001538</ele>
        <time>2018-07-24T10:15:53.990Z</time>
      </trkpt>
      <trkpt lat="42.543946" lon="-6.555518">
        <ele>576.8199936</ele>
        <time>2018-07-24T10:15:55.990Z</time>
      </trkpt>
      <trkpt lat="42.543913" lon="-6.55571">
        <ele>574.4</ele>
        <time>2018-07-24T10:15:58.000Z</time>
      </trkpt>
      <trkpt lat="42.543821" lon="-6.555834">
        <ele>574</ele>
        <time>2018-07-24T10:15:59.990Z</time>
      </trkpt>
      <trkpt lat="42.543692" lon="-6.555956">
        <ele>573</ele>
        <time>2018-07-24T10:16:01.990Z</time>
      </trkpt>
      <trkpt lat="42.543547" lon="-6.556095">
        <ele>571.4099968</ele>
        <time>2018-07-24T10:16:03.990Z</time>
      </trkpt>
      <trkpt lat="42.54347" lon="-6.556166">
        <ele>571</ele>
        <time>2018-07-24T10:16:04.990Z</time>
      </trkpt>
      <trkpt lat="42.543337" lon="-6.556323">
        <ele>571</ele>
        <time>2018-07-24T10:16:06.990Z</time>
      </trkpt>
      <trkpt lat="42.543235" lon="-6.556484">
        <ele>571.5900032</ele>
        <time>2018-07-24T10:16:08.990Z</time>
      </trkpt>
      <trkpt lat="42.543146" lon="-6.556609">
        <ele>573</ele>
        <time>2018-07-24T10:16:10.990Z</time>
      </trkpt>
      <trkpt lat="42.54307" lon="-6.556726">
        <ele>573.364783165216</ele>
        <time>2018-07-24T10:16:13.000Z</time>
      </trkpt>
      <trkpt lat="42.542995" lon="-6.556818">
        <ele>575</ele>
        <time>2018-07-24T10:16:15.020Z</time>
      </trkpt>
      <trkpt lat="42.542896" lon="-6.556914">
        <ele>575</ele>
        <time>2018-07-24T10:16:18.000Z</time>
      </trkpt>
      <trkpt lat="42.542826" lon="-6.557006">
        <ele>576.5900032</ele>
        <time>2018-07-24T10:16:20.990Z</time>
      </trkpt>
      <trkpt lat="42.542751" lon="-6.55711">
        <ele>578</ele>
        <time>2018-07-24T10:16:24.990Z</time>
      </trkpt>
      <trkpt lat="42.542684" lon="-6.557209">
        <ele>579</ele>
        <time>2018-07-24T10:16:28.990Z</time>
      </trkpt>
      <trkpt lat="42.542615" lon="-6.55731">
        <ele>579</ele>
        <time>2018-07-24T10:16:33.000Z</time>
      </trkpt>
      <trkpt lat="42.542551" lon="-6.557406">
        <ele>579</ele>
        <time>2018-07-24T10:16:36.990Z</time>
      </trkpt>
      <trkpt lat="42.54249" lon="-6.557495">
        <ele>580</ele>
        <time>2018-07-24T10:16:40.990Z</time>
      </trkpt>
      <trkpt lat="42.542432" lon="-6.557606">
        <ele>580</ele>
        <time>2018-07-24T10:16:44.990Z</time>
      </trkpt>
      <trkpt lat="42.542352" lon="-6.557705">
        <ele>582</ele>
        <time>2018-07-24T10:16:49.990Z</time>
      </trkpt>
      <trkpt lat="42.542269" lon="-6.557813">
        <ele>583</ele>
        <time>2018-07-24T10:16:54.990Z</time>
      </trkpt>
      <trkpt lat="42.542189" lon="-6.557917">
        <ele>585</ele>
        <time>2018-07-24T10:16:59.990Z</time>
      </trkpt>
      <trkpt lat="42.542107" lon="-6.557979">
        <ele>585.5900032</ele>
        <time>2018-07-24T10:17:04.990Z</time>
      </trkpt>
      <trkpt lat="42.542037" lon="-6.558068">
        <ele>587</ele>
        <time>2018-07-24T10:17:09.990Z</time>
      </trkpt>
      <trkpt lat="42.541986" lon="-6.558174">
        <ele>587</ele>
        <time>2018-07-24T10:17:14.000Z</time>
      </trkpt>
      <trkpt lat="42.54192" lon="-6.558288">
        <ele>588</ele>
        <time>2018-07-24T10:17:18.990Z</time>
      </trkpt>
      <trkpt lat="42.54187" lon="-6.558409">
        <ele>589</ele>
        <time>2018-07-24T10:17:23.990Z</time>
      </trkpt>
      <trkpt lat="42.541805" lon="-6.558526">
        <ele>590</ele>
        <time>2018-07-24T10:17:28.990Z</time>
      </trkpt>
      <trkpt lat="42.541758" lon="-6.558656">
        <ele>591.457367956262</ele>
        <time>2018-07-24T10:17:32.990Z</time>
      </trkpt>
      <trkpt lat="42.541695" lon="-6.558761">
        <ele>592</ele>
        <time>2018-07-24T10:17:36.990Z</time>
      </trkpt>
      <trkpt lat="42.541627" lon="-6.558865">
        <ele>592</ele>
        <time>2018-07-24T10:17:41.000Z</time>
      </trkpt>
      <trkpt lat="42.541563" lon="-6.558978">
        <ele>592.5900032</ele>
        <time>2018-07-24T10:17:44.990Z</time>
      </trkpt>
      <trkpt lat="42.541503" lon="-6.559099">
        <ele>594</ele>
        <time>2018-07-24T10:17:50.020Z</time>
      </trkpt>
      <trkpt lat="42.541451" lon="-6.559205">
        <ele>594</ele>
        <time>2018-07-24T10:17:53.990Z</time>
      </trkpt>
      <trkpt lat="42.5414" lon="-6.559336">
        <ele>594</ele>
        <time>2018-07-24T10:17:58.990Z</time>
      </trkpt>
      <trkpt lat="42.541359" lon="-6.559446">
        <ele>595</ele>
        <time>2018-07-24T10:18:06.000Z</time>
      </trkpt>
      <trkpt lat="42.541323" lon="-6.559567">
        <ele>595</ele>
        <time>2018-07-24T10:18:31.990Z</time>
      </trkpt>
      <trkpt lat="42.541286" lon="-6.559733">
        <ele>595</ele>
        <time>2018-07-24T10:18:36.000Z</time>
      </trkpt>
      <trkpt lat="42.541232" lon="-6.559834">
        <ele>593.542632043738</ele>
        <time>2018-07-24T10:18:37.990Z</time>
      </trkpt>
      <trkpt lat="42.541154" lon="-6.559943">
        <ele>592.42156186078</ele>
        <time>2018-07-24T10:18:39.990Z</time>
      </trkpt>
      <trkpt lat="42.54106" lon="-6.560063">
        <ele>591</ele>
        <time>2018-07-24T10:18:41.990Z</time>
      </trkpt>
      <trkpt lat="42.540949" lon="-6.560211">
        <ele>590.4199936</ele>
        <time>2018-07-24T10:18:43.980Z</time>
      </trkpt>
      <trkpt lat="42.540846" lon="-6.560364">
        <ele>588.696077201084</ele>
        <time>2018-07-24T10:18:46.000Z</time>
      </trkpt>
      <trkpt lat="42.540742" lon="-6.560532">
        <ele>587.4099968</ele>
        <time>2018-07-24T10:18:47.990Z</time>
      </trkpt>
      <trkpt lat="42.540614" lon="-6.560694">
        <ele>585.4099968</ele>
        <time>2018-07-24T10:18:49.990Z</time>
      </trkpt>
      <trkpt lat="42.540476" lon="-6.560818">
        <ele>584</ele>
        <time>2018-07-24T10:18:51.990Z</time>
      </trkpt>
      <trkpt lat="42.540335" lon="-6.560924">
        <ele>583.4099968</ele>
        <time>2018-07-24T10:18:53.990Z</time>
      </trkpt>
      <trkpt lat="42.54019" lon="-6.561033">
        <ele>583</ele>
        <time>2018-07-24T10:18:56.000Z</time>
      </trkpt>
      <trkpt lat="42.540053" lon="-6.561164">
        <ele>581.553027878788</ele>
        <time>2018-07-24T10:18:57.990Z</time>
      </trkpt>
      <trkpt lat="42.53993" lon="-6.561302">
        <ele>580.4099968</ele>
        <time>2018-07-24T10:18:59.990Z</time>
      </trkpt>
      <trkpt lat="42.539796" lon="-6.561426">
        <ele>579</ele>
        <time>2018-07-24T10:19:01.990Z</time>
      </trkpt>
      <trkpt lat="42.539657" lon="-6.561535">
        <ele>577.635801932634</ele>
        <time>2018-07-24T10:19:03.990Z</time>
      </trkpt>
      <trkpt lat="42.539518" lon="-6.561635">
        <ele>577</ele>
        <time>2018-07-24T10:19:06.030Z</time>
      </trkpt>
      <trkpt lat="42.539398" lon="-6.561731">
        <ele>575.4099968</ele>
        <time>2018-07-24T10:19:07.990Z</time>
      </trkpt>
      <trkpt lat="42.539318" lon="-6.561825">
        <ele>573.553027878788</ele>
        <time>2018-07-24T10:19:09.990Z</time>
      </trkpt>
      <trkpt lat="42.539263" lon="-6.561933">
        <ele>571.4099968</ele>
        <time>2018-07-24T10:19:11.990Z</time>
      </trkpt>
      <trkpt lat="42.539183" lon="-6.562049">
        <ele>570</ele>
        <time>2018-07-24T10:19:13.990Z</time>
      </trkpt>
      <trkpt lat="42.539017" lon="-6.562235">
        <ele>567.4</ele>
        <time>2018-07-24T10:19:18.000Z</time>
      </trkpt>
      <trkpt lat="42.538948" lon="-6.562417">
        <ele>566</ele>
        <time>2018-07-24T10:19:20.000Z</time>
      </trkpt>
      <trkpt lat="42.538806" lon="-6.562788">
        <ele>561.563377742523</ele>
        <time>2018-07-24T10:19:24.000Z</time>
      </trkpt>
      <trkpt lat="42.538779" lon="-6.563011">
        <ele>560.545454545455</ele>
        <time>2018-07-24T10:19:26.000Z</time>
      </trkpt>
      <trkpt lat="42.538736" lon="-6.563217">
        <ele>558.3699968</ele>
        <time>2018-07-24T10:19:28.030Z</time>
      </trkpt>
      <trkpt lat="42.538692" lon="-6.563429">
        <ele>555.4099968</ele>
        <time>2018-07-24T10:19:29.990Z</time>
      </trkpt>
      <trkpt lat="42.538646" lon="-6.563634">
        <ele>553.553027878788</ele>
        <time>2018-07-24T10:19:31.990Z</time>
      </trkpt>
      <trkpt lat="42.53862" lon="-6.563808">
        <ele>552.5900032</ele>
        <time>2018-07-24T10:19:33.990Z</time>
      </trkpt>
      <trkpt lat="42.538596" lon="-6.563954">
        <ele>552</ele>
        <time>2018-07-24T10:19:36.990Z</time>
      </trkpt>
      <trkpt lat="42.538556" lon="-6.564085">
        <ele>551</ele>
        <time>2018-07-24T10:19:39.990Z</time>
      </trkpt>
      <trkpt lat="42.538568" lon="-6.564254">
        <ele>550</ele>
        <time>2018-07-24T10:19:43.000Z</time>
      </trkpt>
      <trkpt lat="42.538579" lon="-6.564416">
        <ele>550</ele>
        <time>2018-07-24T10:19:45.000Z</time>
      </trkpt>
      <trkpt lat="42.538579" lon="-6.564608">
        <ele>549</ele>
        <time>2018-07-24T10:19:47.000Z</time>
      </trkpt>
      <trkpt lat="42.538578" lon="-6.564787">
        <ele>548</ele>
        <time>2018-07-24T10:19:49.000Z</time>
      </trkpt>
      <trkpt lat="42.538593" lon="-6.564945">
        <ele>548</ele>
        <time>2018-07-24T10:19:50.990Z</time>
      </trkpt>
      <trkpt lat="42.538604" lon="-6.565105">
        <ele>548</ele>
        <time>2018-07-24T10:19:52.990Z</time>
      </trkpt>
      <trkpt lat="42.538617" lon="-6.565274">
        <ele>547.4099968</ele>
        <time>2018-07-24T10:19:54.990Z</time>
      </trkpt>
      <trkpt lat="42.538629" lon="-6.565436">
        <ele>547</ele>
        <time>2018-07-24T10:19:56.990Z</time>
      </trkpt>
      <trkpt lat="42.538657" lon="-6.565619">
        <ele>547</ele>
        <time>2018-07-24T10:19:59.000Z</time>
      </trkpt>
      <trkpt lat="42.538675" lon="-6.565793">
        <ele>547</ele>
        <time>2018-07-24T10:20:00.990Z</time>
      </trkpt>
      <trkpt lat="42.538708" lon="-6.565964">
        <ele>547</ele>
        <time>2018-07-24T10:20:03.020Z</time>
      </trkpt>
      <trkpt lat="42.538721" lon="-6.566126">
        <ele>546</ele>
        <time>2018-07-24T10:20:04.990Z</time>
      </trkpt>
      <trkpt lat="42.538736" lon="-6.566282">
        <ele>546</ele>
        <time>2018-07-24T10:20:06.990Z</time>
      </trkpt>
      <trkpt lat="42.538751" lon="-6.566428">
        <ele>546</ele>
        <time>2018-07-24T10:20:09.000Z</time>
      </trkpt>
      <trkpt lat="42.538774" lon="-6.566562">
        <ele>546</ele>
        <time>2018-07-24T10:20:10.990Z</time>
      </trkpt>
      <trkpt lat="42.538798" lon="-6.566702">
        <ele>546</ele>
        <time>2018-07-24T10:20:12.990Z</time>
      </trkpt>
      <trkpt lat="42.538824" lon="-6.566846">
        <ele>546</ele>
        <time>2018-07-24T10:20:14.990Z</time>
      </trkpt>
      <trkpt lat="42.538851" lon="-6.566976">
        <ele>546</ele>
        <time>2018-07-24T10:20:16.990Z</time>
      </trkpt>
      <trkpt lat="42.538877" lon="-6.567116">
        <ele>545</ele>
        <time>2018-07-24T10:20:19.000Z</time>
      </trkpt>
      <trkpt lat="42.538892" lon="-6.56725">
        <ele>545</ele>
        <time>2018-07-24T10:20:20.990Z</time>
      </trkpt>
      <trkpt lat="42.538917" lon="-6.567385">
        <ele>545</ele>
        <time>2018-07-24T10:20:22.960Z</time>
      </trkpt>
      <trkpt lat="42.538939" lon="-6.567522">
        <ele>545</ele>
        <time>2018-07-24T10:20:24.990Z</time>
      </trkpt>
      <trkpt lat="42.538958" lon="-6.56766">
        <ele>545</ele>
        <time>2018-07-24T10:20:26.990Z</time>
      </trkpt>
      <trkpt lat="42.538961" lon="-6.567788">
        <ele>545</ele>
        <time>2018-07-24T10:20:29.000Z</time>
      </trkpt>
      <trkpt lat="42.53894" lon="-6.567914">
        <ele>544</ele>
        <time>2018-07-24T10:20:30.990Z</time>
      </trkpt>
      <trkpt lat="42.538912" lon="-6.56804">
        <ele>544</ele>
        <time>2018-07-24T10:20:32.990Z</time>
      </trkpt>
      <trkpt lat="42.538874" lon="-6.568158">
        <ele>544</ele>
        <time>2018-07-24T10:20:34.990Z</time>
      </trkpt>
      <trkpt lat="42.538835" lon="-6.568286">
        <ele>544</ele>
        <time>2018-07-24T10:20:36.990Z</time>
      </trkpt>
      <trkpt lat="42.538792" lon="-6.568421">
        <ele>544</ele>
        <time>2018-07-24T10:20:39.000Z</time>
      </trkpt>
      <trkpt lat="42.538748" lon="-6.568566">
        <ele>543</ele>
        <time>2018-07-24T10:20:41.020Z</time>
      </trkpt>
      <trkpt lat="42.538703" lon="-6.568706">
        <ele>542</ele>
        <time>2018-07-24T10:20:42.990Z</time>
      </trkpt>
      <trkpt lat="42.53866" lon="-6.56886">
        <ele>542</ele>
        <time>2018-07-24T10:20:44.990Z</time>
      </trkpt>
      <trkpt lat="42.538629" lon="-6.569007">
        <ele>542</ele>
        <time>2018-07-24T10:20:46.990Z</time>
      </trkpt>
      <trkpt lat="42.538592" lon="-6.569155">
        <ele>541</ele>
        <time>2018-07-24T10:20:49.000Z</time>
      </trkpt>
      <trkpt lat="42.538553" lon="-6.569284">
        <ele>541</ele>
        <time>2018-07-24T10:20:50.990Z</time>
      </trkpt>
      <trkpt lat="42.538519" lon="-6.569408">
        <ele>541</ele>
        <time>2018-07-24T10:20:52.990Z</time>
      </trkpt>
      <trkpt lat="42.538491" lon="-6.569542">
        <ele>541</ele>
        <time>2018-07-24T10:20:54.990Z</time>
      </trkpt>
      <trkpt lat="42.538471" lon="-6.569676">
        <ele>541</ele>
        <time>2018-07-24T10:20:56.990Z</time>
      </trkpt>
      <trkpt lat="42.538461" lon="-6.569804">
        <ele>541</ele>
        <time>2018-07-24T10:20:59.000Z</time>
      </trkpt>
      <trkpt lat="42.538446" lon="-6.569933">
        <ele>542</ele>
        <time>2018-07-24T10:21:01.000Z</time>
      </trkpt>
      <trkpt lat="42.538429" lon="-6.570062">
        <ele>542</ele>
        <time>2018-07-24T10:21:03.000Z</time>
      </trkpt>
      <trkpt lat="42.538419" lon="-6.570238">
        <ele>543</ele>
        <time>2018-07-24T10:21:05.990Z</time>
      </trkpt>
      <trkpt lat="42.538401" lon="-6.570428">
        <ele>543</ele>
        <time>2018-07-24T10:21:09.000Z</time>
      </trkpt>
      <trkpt lat="42.538382" lon="-6.570552">
        <ele>543</ele>
        <time>2018-07-24T10:21:10.990Z</time>
      </trkpt>
      <trkpt lat="42.538359" lon="-6.570674">
        <ele>543</ele>
        <time>2018-07-24T10:21:12.990Z</time>
      </trkpt>
      <trkpt lat="42.538341" lon="-6.570858">
        <ele>544</ele>
        <time>2018-07-24T10:21:15.990Z</time>
      </trkpt>
      <trkpt lat="42.538327" lon="-6.57098">
        <ele>544</ele>
        <time>2018-07-24T10:21:17.990Z</time>
      </trkpt>
      <trkpt lat="42.538321" lon="-6.571109">
        <ele>544</ele>
        <time>2018-07-24T10:21:19.960Z</time>
      </trkpt>
      <trkpt lat="42.538306" lon="-6.571242">
        <ele>544</ele>
        <time>2018-07-24T10:21:21.990Z</time>
      </trkpt>
      <trkpt lat="42.538293" lon="-6.57137">
        <ele>544</ele>
        <time>2018-07-24T10:21:24.000Z</time>
      </trkpt>
      <trkpt lat="42.538287" lon="-6.571492">
        <ele>544</ele>
        <time>2018-07-24T10:21:25.990Z</time>
      </trkpt>
      <trkpt lat="42.538265" lon="-6.571666">
        <ele>543</ele>
        <time>2018-07-24T10:21:29.000Z</time>
      </trkpt>
      <trkpt lat="42.538249" lon="-6.571788">
        <ele>543</ele>
        <time>2018-07-24T10:21:30.990Z</time>
      </trkpt>
      <trkpt lat="42.538238" lon="-6.571912">
        <ele>543</ele>
        <time>2018-07-24T10:21:32.990Z</time>
      </trkpt>
      <trkpt lat="42.538228" lon="-6.572042">
        <ele>543</ele>
        <time>2018-07-24T10:21:34.990Z</time>
      </trkpt>
      <trkpt lat="42.538219" lon="-6.572166">
        <ele>543</ele>
        <time>2018-07-24T10:21:36.990Z</time>
      </trkpt>
      <trkpt lat="42.538208" lon="-6.572292">
        <ele>543</ele>
        <time>2018-07-24T10:21:38.970Z</time>
      </trkpt>
      <trkpt lat="42.538193" lon="-6.572418">
        <ele>542</ele>
        <time>2018-07-24T10:21:40.990Z</time>
      </trkpt>
      <trkpt lat="42.538175" lon="-6.572548">
        <ele>542</ele>
        <time>2018-07-24T10:21:42.990Z</time>
      </trkpt>
      <trkpt lat="42.53816" lon="-6.572677">
        <ele>542</ele>
        <time>2018-07-24T10:21:44.990Z</time>
      </trkpt>
      <trkpt lat="42.538142" lon="-6.572808">
        <ele>542</ele>
        <time>2018-07-24T10:21:46.990Z</time>
      </trkpt>
      <trkpt lat="42.538126" lon="-6.57294">
        <ele>542</ele>
        <time>2018-07-24T10:21:49.000Z</time>
      </trkpt>
      <trkpt lat="42.538112" lon="-6.573072">
        <ele>542</ele>
        <time>2018-07-24T10:21:50.990Z</time>
      </trkpt>
      <trkpt lat="42.538098" lon="-6.573208">
        <ele>542</ele>
        <time>2018-07-24T10:21:52.990Z</time>
      </trkpt>
      <trkpt lat="42.538086" lon="-6.57335">
        <ele>542</ele>
        <time>2018-07-24T10:21:54.990Z</time>
      </trkpt>
      <trkpt lat="42.538071" lon="-6.573494">
        <ele>542</ele>
        <time>2018-07-24T10:21:57.020Z</time>
      </trkpt>
      <trkpt lat="42.538051" lon="-6.573634">
        <ele>541</ele>
        <time>2018-07-24T10:21:59.000Z</time>
      </trkpt>
      <trkpt lat="42.538036" lon="-6.573765">
        <ele>541</ele>
        <time>2018-07-24T10:22:00.990Z</time>
      </trkpt>
      <trkpt lat="42.538027" lon="-6.573902">
        <ele>541</ele>
        <time>2018-07-24T10:22:02.990Z</time>
      </trkpt>
      <trkpt lat="42.53801" lon="-6.574043">
        <ele>542</ele>
        <time>2018-07-24T10:22:04.990Z</time>
      </trkpt>
      <trkpt lat="42.537992" lon="-6.574176">
        <ele>542</ele>
        <time>2018-07-24T10:22:06.990Z</time>
      </trkpt>
      <trkpt lat="42.537976" lon="-6.574316">
        <ele>542</ele>
        <time>2018-07-24T10:22:09.000Z</time>
      </trkpt>
      <trkpt lat="42.537958" lon="-6.574445">
        <ele>542</ele>
        <time>2018-07-24T10:22:10.990Z</time>
      </trkpt>
      <trkpt lat="42.537952" lon="-6.574591">
        <ele>542</ele>
        <time>2018-07-24T10:22:12.990Z</time>
      </trkpt>
      <trkpt lat="42.537932" lon="-6.574726">
        <ele>542</ele>
        <time>2018-07-24T10:22:14.990Z</time>
      </trkpt>
      <trkpt lat="42.537905" lon="-6.57486">
        <ele>542</ele>
        <time>2018-07-24T10:22:16.960Z</time>
      </trkpt>
      <trkpt lat="42.53788" lon="-6.574996">
        <ele>542</ele>
        <time>2018-07-24T10:22:19.000Z</time>
      </trkpt>
      <trkpt lat="42.53785" lon="-6.575117">
        <ele>541.4099968</ele>
        <time>2018-07-24T10:22:20.990Z</time>
      </trkpt>
      <trkpt lat="42.537814" lon="-6.575236">
        <ele>541</ele>
        <time>2018-07-24T10:22:22.990Z</time>
      </trkpt>
      <trkpt lat="42.537776" lon="-6.575358">
        <ele>541</ele>
        <time>2018-07-24T10:22:24.990Z</time>
      </trkpt>
      <trkpt lat="42.537732" lon="-6.575478">
        <ele>541</ele>
        <time>2018-07-24T10:22:26.990Z</time>
      </trkpt>
      <trkpt lat="42.537676" lon="-6.575596">
        <ele>541</ele>
        <time>2018-07-24T10:22:29.000Z</time>
      </trkpt>
      <trkpt lat="42.537613" lon="-6.575688">
        <ele>541</ele>
        <time>2018-07-24T10:22:30.990Z</time>
      </trkpt>
      <trkpt lat="42.537522" lon="-6.575824">
        <ele>541</ele>
        <time>2018-07-24T10:22:34.000Z</time>
      </trkpt>
      <trkpt lat="42.53746" lon="-6.575914">
        <ele>541</ele>
        <time>2018-07-24T10:22:35.960Z</time>
      </trkpt>
      <trkpt lat="42.537373" lon="-6.576056">
        <ele>540</ele>
        <time>2018-07-24T10:22:39.000Z</time>
      </trkpt>
      <trkpt lat="42.537287" lon="-6.576166">
        <ele>540</ele>
        <time>2018-07-24T10:22:42.020Z</time>
      </trkpt>
      <trkpt lat="42.537211" lon="-6.57629">
        <ele>540</ele>
        <time>2018-07-24T10:22:44.990Z</time>
      </trkpt>
      <trkpt lat="42.537137" lon="-6.576406">
        <ele>540</ele>
        <time>2018-07-24T10:22:47.990Z</time>
      </trkpt>
      <trkpt lat="42.537066" lon="-6.57652">
        <ele>540</ele>
        <time>2018-07-24T10:22:50.990Z</time>
      </trkpt>
      <trkpt lat="42.53699" lon="-6.576642">
        <ele>540</ele>
        <time>2018-07-24T10:22:54.000Z</time>
      </trkpt>
      <trkpt lat="42.536912" lon="-6.576774">
        <ele>540</ele>
        <time>2018-07-24T10:22:56.990Z</time>
      </trkpt>
      <trkpt lat="42.536829" lon="-6.576903">
        <ele>540</ele>
        <time>2018-07-24T10:22:59.990Z</time>
      </trkpt>
      <trkpt lat="42.536746" lon="-6.577017">
        <ele>539.4099968</ele>
        <time>2018-07-24T10:23:02.990Z</time>
      </trkpt>
      <trkpt lat="42.536662" lon="-6.57712">
        <ele>540</ele>
        <time>2018-07-24T10:23:05.990Z</time>
      </trkpt>
      <trkpt lat="42.536569" lon="-6.577233">
        <ele>540</ele>
        <time>2018-07-24T10:23:09.000Z</time>
      </trkpt>
      <trkpt lat="42.536484" lon="-6.577352">
        <ele>540</ele>
        <time>2018-07-24T10:23:11.990Z</time>
      </trkpt>
      <trkpt lat="42.536405" lon="-6.577464">
        <ele>539</ele>
        <time>2018-07-24T10:23:14.990Z</time>
      </trkpt>
      <trkpt lat="42.536333" lon="-6.577592">
        <ele>539</ele>
        <time>2018-07-24T10:23:17.990Z</time>
      </trkpt>
      <trkpt lat="42.536278" lon="-6.577713">
        <ele>539</ele>
        <time>2018-07-24T10:23:20.990Z</time>
      </trkpt>
      <trkpt lat="42.536224" lon="-6.577842">
        <ele>539</ele>
        <time>2018-07-24T10:23:24.000Z</time>
      </trkpt>
      <trkpt lat="42.536181" lon="-6.577974">
        <ele>539.5900032</ele>
        <time>2018-07-24T10:23:26.990Z</time>
      </trkpt>
      <trkpt lat="42.536142" lon="-6.578084">
        <ele>539.541985851638</ele>
        <time>2018-07-24T10:23:29.000Z</time>
      </trkpt>
      <trkpt lat="42.536102" lon="-6.578206">
        <ele>539</ele>
        <time>2018-07-24T10:23:30.990Z</time>
      </trkpt>
      <trkpt lat="42.53607" lon="-6.578324">
        <ele>539</ele>
        <time>2018-07-24T10:23:32.960Z</time>
      </trkpt>
      <trkpt lat="42.536042" lon="-6.5785">
        <ele>539</ele>
        <time>2018-07-24T10:23:35.990Z</time>
      </trkpt>
      <trkpt lat="42.536022" lon="-6.578674">
        <ele>539</ele>
        <time>2018-07-24T10:23:39.000Z</time>
      </trkpt>
      <trkpt lat="42.536011" lon="-6.578838">
        <ele>539</ele>
        <time>2018-07-24T10:23:41.990Z</time>
      </trkpt>
      <trkpt lat="42.536021" lon="-6.57901">
        <ele>539</ele>
        <time>2018-07-24T10:23:44.990Z</time>
      </trkpt>
      <trkpt lat="42.536048" lon="-6.579126">
        <ele>539</ele>
        <time>2018-07-24T10:23:46.990Z</time>
      </trkpt>
      <trkpt lat="42.53608" lon="-6.579254">
        <ele>539</ele>
        <time>2018-07-24T10:23:49.000Z</time>
      </trkpt>
      <trkpt lat="42.536107" lon="-6.57938">
        <ele>539</ele>
        <time>2018-07-24T10:23:50.990Z</time>
      </trkpt>
      <trkpt lat="42.536145" lon="-6.579506">
        <ele>539</ele>
        <time>2018-07-24T10:23:52.990Z</time>
      </trkpt>
      <trkpt lat="42.53617" lon="-6.579624">
        <ele>539</ele>
        <time>2018-07-24T10:23:54.990Z</time>
      </trkpt>
      <trkpt lat="42.536191" lon="-6.579798">
        <ele>539</ele>
        <time>2018-07-24T10:23:57.990Z</time>
      </trkpt>
      <trkpt lat="42.536198" lon="-6.579927">
        <ele>539</ele>
        <time>2018-07-24T10:23:59.990Z</time>
      </trkpt>
      <trkpt lat="42.536213" lon="-6.580051">
        <ele>539</ele>
        <time>2018-07-24T10:24:01.990Z</time>
      </trkpt>
      <trkpt lat="42.536222" lon="-6.58019">
        <ele>538</ele>
        <time>2018-07-24T10:24:04.000Z</time>
      </trkpt>
      <trkpt lat="42.536208" lon="-6.580332">
        <ele>538</ele>
        <time>2018-07-24T10:24:05.990Z</time>
      </trkpt>
      <trkpt lat="42.536158" lon="-6.58047">
        <ele>538</ele>
        <time>2018-07-24T10:24:07.990Z</time>
      </trkpt>
      <trkpt lat="42.536095" lon="-6.580612">
        <ele>538</ele>
        <time>2018-07-24T10:24:09.990Z</time>
      </trkpt>
      <trkpt lat="42.536034" lon="-6.580757">
        <ele>537</ele>
        <time>2018-07-24T10:24:11.990Z</time>
      </trkpt>
      <trkpt lat="42.535971" lon="-6.580893">
        <ele>536</ele>
        <time>2018-07-24T10:24:14.000Z</time>
      </trkpt>
      <trkpt lat="42.535909" lon="-6.581011">
        <ele>536</ele>
        <time>2018-07-24T10:24:15.990Z</time>
      </trkpt>
      <trkpt lat="42.535842" lon="-6.581129">
        <ele>536</ele>
        <time>2018-07-24T10:24:17.990Z</time>
      </trkpt>
      <trkpt lat="42.535741" lon="-6.581224">
        <ele>536</ele>
        <time>2018-07-24T10:24:19.990Z</time>
      </trkpt>
      <trkpt lat="42.535622" lon="-6.581283">
        <ele>536</ele>
        <time>2018-07-24T10:24:21.990Z</time>
      </trkpt>
      <trkpt lat="42.535512" lon="-6.581334">
        <ele>534.4</ele>
        <time>2018-07-24T10:24:24.000Z</time>
      </trkpt>
      <trkpt lat="42.535398" lon="-6.581406">
        <ele>534</ele>
        <time>2018-07-24T10:24:25.990Z</time>
      </trkpt>
      <trkpt lat="42.535314" lon="-6.581507">
        <ele>533</ele>
        <time>2018-07-24T10:24:27.990Z</time>
      </trkpt>
      <trkpt lat="42.535246" lon="-6.581636">
        <ele>532</ele>
        <time>2018-07-24T10:24:29.990Z</time>
      </trkpt>
      <trkpt lat="42.535162" lon="-6.581763">
        <ele>532</ele>
        <time>2018-07-24T10:24:31.990Z</time>
      </trkpt>
      <trkpt lat="42.535075" lon="-6.581892">
        <ele>532</ele>
        <time>2018-07-24T10:24:34.000Z</time>
      </trkpt>
      <trkpt lat="42.534989" lon="-6.58203">
        <ele>532</ele>
        <time>2018-07-24T10:24:35.990Z</time>
      </trkpt>
      <trkpt lat="42.534905" lon="-6.582187">
        <ele>531</ele>
        <time>2018-07-24T10:24:37.990Z</time>
      </trkpt>
      <trkpt lat="42.534839" lon="-6.582363">
        <ele>530</ele>
        <time>2018-07-24T10:24:39.990Z</time>
      </trkpt>
      <trkpt lat="42.5348" lon="-6.582537">
        <ele>530</ele>
        <time>2018-07-24T10:24:41.990Z</time>
      </trkpt>
      <trkpt lat="42.534758" lon="-6.582712">
        <ele>530</ele>
        <time>2018-07-24T10:24:44.000Z</time>
      </trkpt>
      <trkpt lat="42.534707" lon="-6.582873">
        <ele>530</ele>
        <time>2018-07-24T10:24:45.990Z</time>
      </trkpt>
      <trkpt lat="42.53466" lon="-6.583044">
        <ele>530</ele>
        <time>2018-07-24T10:24:48.020Z</time>
      </trkpt>
      <trkpt lat="42.534639" lon="-6.58319">
        <ele>530</ele>
        <time>2018-07-24T10:24:49.990Z</time>
      </trkpt>
      <trkpt lat="42.534644" lon="-6.583329">
        <ele>530</ele>
        <time>2018-07-24T10:24:51.990Z</time>
      </trkpt>
      <trkpt lat="42.53468" lon="-6.583494">
        <ele>530.5900032</ele>
        <time>2018-07-24T10:24:54.990Z</time>
      </trkpt>
      <trkpt lat="42.534734" lon="-6.583595">
        <ele>530</ele>
        <time>2018-07-24T10:24:57.990Z</time>
      </trkpt>
      <trkpt lat="42.534806" lon="-6.583726">
        <ele>531</ele>
        <time>2018-07-24T10:25:01.990Z</time>
      </trkpt>
      <trkpt lat="42.534875" lon="-6.583861">
        <ele>533</ele>
        <time>2018-07-24T10:25:05.990Z</time>
      </trkpt>
      <trkpt lat="42.534914" lon="-6.583984">
        <ele>533</ele>
        <time>2018-07-24T10:25:09.000Z</time>
      </trkpt>
      <trkpt lat="42.534948" lon="-6.584104">
        <ele>534</ele>
        <time>2018-07-24T10:25:11.990Z</time>
      </trkpt>
      <trkpt lat="42.534972" lon="-6.584237">
        <ele>535</ele>
        <time>2018-07-24T10:25:14.990Z</time>
      </trkpt>
      <trkpt lat="42.53499" lon="-6.584363">
        <ele>535</ele>
        <time>2018-07-24T10:25:17.990Z</time>
      </trkpt>
      <trkpt lat="42.535012" lon="-6.584499">
        <ele>535</ele>
        <time>2018-07-24T10:25:20.990Z</time>
      </trkpt>
      <trkpt lat="42.535048" lon="-6.58465">
        <ele>535</ele>
        <time>2018-07-24T10:25:24.000Z</time>
      </trkpt>
      <trkpt lat="42.535065" lon="-6.58481">
        <ele>534.44</ele>
        <time>2018-07-24T10:25:26.960Z</time>
      </trkpt>
      <trkpt lat="42.53508" lon="-6.584952">
        <ele>534</ele>
        <time>2018-07-24T10:25:29.990Z</time>
      </trkpt>
      <trkpt lat="42.535111" lon="-6.585097">
        <ele>534</ele>
        <time>2018-07-24T10:25:32.990Z</time>
      </trkpt>
      <trkpt lat="42.535153" lon="-6.585238">
        <ele>534</ele>
        <time>2018-07-24T10:25:35.990Z</time>
      </trkpt>
      <trkpt lat="42.535195" lon="-6.585364">
        <ele>534</ele>
        <time>2018-07-24T10:25:39.000Z</time>
      </trkpt>
      <trkpt lat="42.535237" lon="-6.585495">
        <ele>534</ele>
        <time>2018-07-24T10:25:41.990Z</time>
      </trkpt>
      <trkpt lat="42.535289" lon="-6.585627">
        <ele>534</ele>
        <time>2018-07-24T10:25:45.020Z</time>
      </trkpt>
      <trkpt lat="42.535358" lon="-6.585758">
        <ele>534</ele>
        <time>2018-07-24T10:25:47.990Z</time>
      </trkpt>
      <trkpt lat="42.535417" lon="-6.585897">
        <ele>534</ele>
        <time>2018-07-24T10:25:51.100Z</time>
      </trkpt>
      <trkpt lat="42.535501" lon="-6.586034">
        <ele>534</ele>
        <time>2018-07-24T10:25:54.000Z</time>
      </trkpt>
      <trkpt lat="42.535587" lon="-6.586117">
        <ele>534</ele>
        <time>2018-07-24T10:25:56.990Z</time>
      </trkpt>
      <trkpt lat="42.535666" lon="-6.586216">
        <ele>534</ele>
        <time>2018-07-24T10:26:00.000Z</time>
      </trkpt>
      <trkpt lat="42.535733" lon="-6.586297">
        <ele>534</ele>
        <time>2018-07-24T10:26:02.000Z</time>
      </trkpt>
      <trkpt lat="42.535813" lon="-6.586402">
        <ele>534</ele>
        <time>2018-07-24T10:26:04.960Z</time>
      </trkpt>
      <trkpt lat="42.535895" lon="-6.586513">
        <ele>534</ele>
        <time>2018-07-24T10:26:08.000Z</time>
      </trkpt>
      <trkpt lat="42.535962" lon="-6.586604">
        <ele>534</ele>
        <time>2018-07-24T10:26:10.990Z</time>
      </trkpt>
      <trkpt lat="42.53603" lon="-6.586712">
        <ele>534</ele>
        <time>2018-07-24T10:26:13.990Z</time>
      </trkpt>
      <trkpt lat="42.536098" lon="-6.586827">
        <ele>534</ele>
        <time>2018-07-24T10:26:16.990Z</time>
      </trkpt>
      <trkpt lat="42.536171" lon="-6.58693">
        <ele>533.428567696769</ele>
        <time>2018-07-24T10:26:19.990Z</time>
      </trkpt>
      <trkpt lat="42.536237" lon="-6.587034">
        <ele>533</ele>
        <time>2018-07-24T10:26:23.000Z</time>
      </trkpt>
      <trkpt lat="42.536303" lon="-6.587143">
        <ele>533</ele>
        <time>2018-07-24T10:26:25.990Z</time>
      </trkpt>
      <trkpt lat="42.536365" lon="-6.587236">
        <ele>533</ele>
        <time>2018-07-24T10:26:28.990Z</time>
      </trkpt>
      <trkpt lat="42.536439" lon="-6.587375">
        <ele>533</ele>
        <time>2018-07-24T10:26:33.000Z</time>
      </trkpt>
      <trkpt lat="42.53649" lon="-6.587525">
        <ele>533</ele>
        <time>2018-07-24T10:26:35.000Z</time>
      </trkpt>
      <trkpt lat="42.536551" lon="-6.587624">
        <ele>533</ele>
        <time>2018-07-24T10:26:37.990Z</time>
      </trkpt>
      <trkpt lat="42.536636" lon="-6.587739">
        <ele>533</ele>
        <time>2018-07-24T10:26:42.030Z</time>
      </trkpt>
      <trkpt lat="42.5367" lon="-6.587836">
        <ele>533</ele>
        <time>2018-07-24T10:26:44.990Z</time>
      </trkpt>
      <trkpt lat="42.53677" lon="-6.587957">
        <ele>533</ele>
        <time>2018-07-24T10:26:47.990Z</time>
      </trkpt>
      <trkpt lat="42.536859" lon="-6.588064">
        <ele>533</ele>
        <time>2018-07-24T10:26:50.990Z</time>
      </trkpt>
      <trkpt lat="42.536953" lon="-6.588189">
        <ele>533</ele>
        <time>2018-07-24T10:26:53.990Z</time>
      </trkpt>
      <trkpt lat="42.537025" lon="-6.588263">
        <ele>532</ele>
        <time>2018-07-24T10:26:55.990Z</time>
      </trkpt>
      <trkpt lat="42.537094" lon="-6.588353">
        <ele>532</ele>
        <time>2018-07-24T10:26:57.990Z</time>
      </trkpt>
      <trkpt lat="42.537161" lon="-6.588447">
        <ele>532</ele>
        <time>2018-07-24T10:26:59.990Z</time>
      </trkpt>
      <trkpt lat="42.537238" lon="-6.588538">
        <ele>532</ele>
        <time>2018-07-24T10:27:01.970Z</time>
      </trkpt>
      <trkpt lat="42.537322" lon="-6.588632">
        <ele>531.4099968</ele>
        <time>2018-07-24T10:27:03.990Z</time>
      </trkpt>
      <trkpt lat="42.537408" lon="-6.588738">
        <ele>531</ele>
        <time>2018-07-24T10:27:05.990Z</time>
      </trkpt>
      <trkpt lat="42.537498" lon="-6.58886">
        <ele>531</ele>
        <time>2018-07-24T10:27:07.990Z</time>
      </trkpt>
      <trkpt lat="42.537589" lon="-6.588992">
        <ele>530</ele>
        <time>2018-07-24T10:27:09.990Z</time>
      </trkpt>
      <trkpt lat="42.537681" lon="-6.58912">
        <ele>530</ele>
        <time>2018-07-24T10:27:12.000Z</time>
      </trkpt>
      <trkpt lat="42.537771" lon="-6.589249">
        <ele>530</ele>
        <time>2018-07-24T10:27:13.990Z</time>
      </trkpt>
      <trkpt lat="42.537839" lon="-6.58935">
        <ele>529</ele>
        <time>2018-07-24T10:27:15.990Z</time>
      </trkpt>
      <trkpt lat="42.537924" lon="-6.589406">
        <ele>528.3800064</ele>
        <time>2018-07-24T10:27:20.020Z</time>
      </trkpt>
      <trkpt lat="42.537992" lon="-6.589498">
        <ele>528</ele>
        <time>2018-07-24T10:27:23.990Z</time>
      </trkpt>
      <trkpt lat="42.538067" lon="-6.589603">
        <ele>528</ele>
        <time>2018-07-24T10:27:32.000Z</time>
      </trkpt>
      <trkpt lat="42.538142" lon="-6.589679">
        <ele>528</ele>
        <time>2018-07-24T10:27:37.000Z</time>
      </trkpt>
      <trkpt lat="42.538223" lon="-6.589732">
        <ele>527</ele>
        <time>2018-07-24T10:27:47.990Z</time>
      </trkpt>
      <trkpt lat="42.538238" lon="-6.5896">
        <ele>528</ele>
        <time>2018-07-24T10:27:57.000Z</time>
      </trkpt>
      <trkpt lat="42.538219" lon="-6.589471">
        <ele>528</ele>
        <time>2018-07-24T10:28:00.990Z</time>
      </trkpt>
      <trkpt lat="42.538269" lon="-6.589348">
        <ele>528</ele>
        <time>2018-07-24T10:28:04.990Z</time>
      </trkpt>
      <trkpt lat="42.538354" lon="-6.589273">
        <ele>528</ele>
        <time>2018-07-24T10:28:08.990Z</time>
      </trkpt>
      <trkpt lat="42.538439" lon="-6.589187">
        <ele>528.5900032</ele>
        <time>2018-07-24T10:28:12.990Z</time>
      </trkpt>
      <trkpt lat="42.538544" lon="-6.58911">
        <ele>530</ele>
        <time>2018-07-24T10:28:17.000Z</time>
      </trkpt>
      <trkpt lat="42.538659" lon="-6.589044">
        <ele>528.4099968</ele>
        <time>2018-07-24T10:28:19.990Z</time>
      </trkpt>
      <trkpt lat="42.538776" lon="-6.589022">
        <ele>527.541985851638</ele>
        <time>2018-07-24T10:28:22.000Z</time>
      </trkpt>
      <trkpt lat="42.538914" lon="-6.589005">
        <ele>525.4099968</ele>
        <time>2018-07-24T10:28:23.990Z</time>
      </trkpt>
      <trkpt lat="42.539042" lon="-6.589017">
        <ele>524</ele>
        <time>2018-07-24T10:28:25.990Z</time>
      </trkpt>
      <trkpt lat="42.539139" lon="-6.589091">
        <ele>524</ele>
        <time>2018-07-24T10:28:27.990Z</time>
      </trkpt>
      <trkpt lat="42.539205" lon="-6.589187">
        <ele>524</ele>
        <time>2018-07-24T10:28:29.990Z</time>
      </trkpt>
      <trkpt lat="42.539278" lon="-6.589323">
        <ele>524</ele>
        <time>2018-07-24T10:28:32.990Z</time>
      </trkpt>
      <trkpt lat="42.53933" lon="-6.589495">
        <ele>524</ele>
        <time>2018-07-24T10:28:35.990Z</time>
      </trkpt>
      <trkpt lat="42.539365" lon="-6.589638">
        <ele>524</ele>
        <time>2018-07-24T10:28:37.990Z</time>
      </trkpt>
      <trkpt lat="42.539407" lon="-6.58978">
        <ele>523.4099968</ele>
        <time>2018-07-24T10:28:39.990Z</time>
      </trkpt>
      <trkpt lat="42.539456" lon="-6.589925">
        <ele>523</ele>
        <time>2018-07-24T10:28:42.000Z</time>
      </trkpt>
      <trkpt lat="42.539506" lon="-6.590059">
        <ele>523</ele>
        <time>2018-07-24T10:28:43.990Z</time>
      </trkpt>
      <trkpt lat="42.539547" lon="-6.590193">
        <ele>523</ele>
        <time>2018-07-24T10:28:45.990Z</time>
      </trkpt>
      <trkpt lat="42.539583" lon="-6.590322">
        <ele>522.4099968</ele>
        <time>2018-07-24T10:28:47.990Z</time>
      </trkpt>
      <trkpt lat="42.539626" lon="-6.590429">
        <ele>522</ele>
        <time>2018-07-24T10:28:49.990Z</time>
      </trkpt>
      <trkpt lat="42.539686" lon="-6.590571">
        <ele>523</ele>
        <time>2018-07-24T10:28:52.990Z</time>
      </trkpt>
      <trkpt lat="42.539749" lon="-6.590701">
        <ele>523</ele>
        <time>2018-07-24T10:28:57.000Z</time>
      </trkpt>
      <trkpt lat="42.539819" lon="-6.590792">
        <ele>524</ele>
        <time>2018-07-24T10:28:59.990Z</time>
      </trkpt>
      <trkpt lat="42.539896" lon="-6.590888">
        <ele>524</ele>
        <time>2018-07-24T10:29:03.000Z</time>
      </trkpt>
      <trkpt lat="42.539976" lon="-6.590979">
        <ele>524</ele>
        <time>2018-07-24T10:29:05.990Z</time>
      </trkpt>
      <trkpt lat="42.540054" lon="-6.591077">
        <ele>524</ele>
        <time>2018-07-24T10:29:10.000Z</time>
      </trkpt>
      <trkpt lat="42.540132" lon="-6.591187">
        <ele>525</ele>
        <time>2018-07-24T10:29:14.020Z</time>
      </trkpt>
      <trkpt lat="42.540201" lon="-6.591269">
        <ele>525</ele>
        <time>2018-07-24T10:29:16.990Z</time>
      </trkpt>
      <trkpt lat="42.540278" lon="-6.591376">
        <ele>525.5900032</ele>
        <time>2018-07-24T10:29:20.990Z</time>
      </trkpt>
      <trkpt lat="42.540348" lon="-6.591466">
        <ele>526</ele>
        <time>2018-07-24T10:29:25.000Z</time>
      </trkpt>
      <trkpt lat="42.540414" lon="-6.591561">
        <ele>527</ele>
        <time>2018-07-24T10:29:28.990Z</time>
      </trkpt>
      <trkpt lat="42.540494" lon="-6.59164">
        <ele>527</ele>
        <time>2018-07-24T10:29:32.990Z</time>
      </trkpt>
      <trkpt lat="42.540604" lon="-6.591694">
        <ele>528</ele>
        <time>2018-07-24T10:29:38.000Z</time>
      </trkpt>
      <trkpt lat="42.54068" lon="-6.591787">
        <ele>528</ele>
        <time>2018-07-24T10:29:42.000Z</time>
      </trkpt>
      <trkpt lat="42.54073" lon="-6.591896">
        <ele>529.457367956262</ele>
        <time>2018-07-24T10:29:47.990Z</time>
      </trkpt>
      <trkpt lat="42.5408" lon="-6.591994">
        <ele>530.5900032</ele>
        <time>2018-07-24T10:29:54.990Z</time>
      </trkpt>
      <trkpt lat="42.540869" lon="-6.592079">
        <ele>532</ele>
        <time>2018-07-24T10:30:03.000Z</time>
      </trkpt>
      <trkpt lat="42.540928" lon="-6.592175">
        <ele>533.3000064</ele>
        <time>2018-07-24T10:30:09.990Z</time>
      </trkpt>
      <trkpt lat="42.540992" lon="-6.592278">
        <ele>534</ele>
        <time>2018-07-24T10:30:26.000Z</time>
      </trkpt>
      <trkpt lat="42.541049" lon="-6.592379">
        <ele>536</ele>
        <time>2018-07-24T10:30:36.990Z</time>
      </trkpt>
      <trkpt lat="42.541117" lon="-6.592468">
        <ele>537</ele>
        <time>2018-07-24T10:30:47.990Z</time>
      </trkpt>
      <trkpt lat="42.541191" lon="-6.592559">
        <ele>539</ele>
        <time>2018-07-24T10:31:00.000Z</time>
      </trkpt>
      <trkpt lat="42.541238" lon="-6.592673">
        <ele>541</ele>
        <time>2018-07-24T10:31:10.990Z</time>
      </trkpt>
      <trkpt lat="42.54115" lon="-6.592703">
        <ele>541</ele>
        <time>2018-07-24T10:31:27.960Z</time>
      </trkpt>
      <trkpt lat="42.541175" lon="-6.592839">
        <ele>542</ele>
        <time>2018-07-24T10:31:41.990Z</time>
      </trkpt>
      <trkpt lat="42.541268" lon="-6.592901">
        <ele>542</ele>
        <time>2018-07-24T10:31:52.000Z</time>
      </trkpt>
      <trkpt lat="42.54137" lon="-6.592905">
        <ele>542</ele>
        <time>2018-07-24T10:32:02.000Z</time>
      </trkpt>
      <trkpt lat="42.541464" lon="-6.592916">
        <ele>543</ele>
        <time>2018-07-24T10:32:07.000Z</time>
      </trkpt>
      <trkpt lat="42.541558" lon="-6.592907">
        <ele>543</ele>
        <time>2018-07-24T10:32:13.000Z</time>
      </trkpt>
      <trkpt lat="42.541664" lon="-6.592909">
        <ele>543</ele>
        <time>2018-07-24T10:32:17.000Z</time>
      </trkpt>
      <trkpt lat="42.541756" lon="-6.592893">
        <ele>543</ele>
        <time>2018-07-24T10:32:21.000Z</time>
      </trkpt>
      <trkpt lat="42.541857" lon="-6.592905">
        <ele>543</ele>
        <time>2018-07-24T10:32:25.000Z</time>
      </trkpt>
      <trkpt lat="42.541949" lon="-6.592893">
        <ele>543</ele>
        <time>2018-07-24T10:32:30.000Z</time>
      </trkpt>
      <trkpt lat="42.542084" lon="-6.592897">
        <ele>543</ele>
        <time>2018-07-24T10:32:34.000Z</time>
      </trkpt>
      <trkpt lat="42.542175" lon="-6.592891">
        <ele>543</ele>
        <time>2018-07-24T10:32:36.000Z</time>
      </trkpt>
      <trkpt lat="42.542289" lon="-6.592888">
        <ele>543</ele>
        <time>2018-07-24T10:32:41.000Z</time>
      </trkpt>
      <trkpt lat="42.542408" lon="-6.592911">
        <ele>543</ele>
        <time>2018-07-24T10:32:45.000Z</time>
      </trkpt>
      <trkpt lat="42.542566" lon="-6.59291">
        <ele>544</ele>
        <time>2018-07-24T10:32:51.000Z</time>
      </trkpt>
      <trkpt lat="42.542663" lon="-6.592963">
        <ele>544</ele>
        <time>2018-07-24T10:32:55.000Z</time>
      </trkpt>
      <trkpt lat="42.542756" lon="-6.592984">
        <ele>545</ele>
        <time>2018-07-24T10:32:59.000Z</time>
      </trkpt>
      <trkpt lat="42.542864" lon="-6.592992">
        <ele>545</ele>
        <time>2018-07-24T10:33:02.000Z</time>
      </trkpt>
      <trkpt lat="42.542927" lon="-6.593094">
        <ele>546</ele>
        <time>2018-07-24T10:33:24.990Z</time>
      </trkpt>
      <trkpt lat="42.542913" lon="-6.59323">
        <ele>546</ele>
        <time>2018-07-24T10:33:29.990Z</time>
      </trkpt>
      <trkpt lat="42.542988" lon="-6.593318">
        <ele>546</ele>
        <time>2018-07-24T10:33:37.990Z</time>
      </trkpt>
      <trkpt lat="42.543046" lon="-6.59342">
        <ele>546</ele>
        <time>2018-07-24T10:34:20.000Z</time>
      </trkpt>
      <trkpt lat="42.542983" lon="-6.593308">
        <ele>546</ele>
        <time>2018-07-24T10:36:06.990Z</time>
      </trkpt>
      <trkpt lat="42.543047" lon="-6.593213">
        <ele>546</ele>
        <time>2018-07-24T10:38:10.990Z</time>
      </trkpt>
      <trkpt lat="42.543103" lon="-6.593311">
        <ele>547</ele>
        <time>2018-07-24T10:38:52.990Z</time>
      </trkpt>
      <trkpt lat="42.543197" lon="-6.593284">
        <ele>548</ele>
        <time>2018-07-24T10:39:02.000Z</time>
      </trkpt>
      <trkpt lat="42.543277" lon="-6.593219">
        <ele>548</ele>
        <time>2018-07-24T10:39:08.100Z</time>
      </trkpt>
      <trkpt lat="42.543351" lon="-6.593145">
        <ele>548.5900032</ele>
        <time>2018-07-24T10:39:37.990Z</time>
      </trkpt>
      <trkpt lat="42.543431" lon="-6.593046">
        <ele>549</ele>
        <time>2018-07-24T10:39:42.990Z</time>
      </trkpt>
      <trkpt lat="42.543515" lon="-6.592946">
        <ele>549</ele>
        <time>2018-07-24T10:39:47.990Z</time>
      </trkpt>
      <trkpt lat="42.543601" lon="-6.592861">
        <ele>549</ele>
        <time>2018-07-24T10:39:52.990Z</time>
      </trkpt>
      <trkpt lat="42.543679" lon="-6.59278">
        <ele>550</ele>
        <time>2018-07-24T10:39:57.990Z</time>
      </trkpt>
      <trkpt lat="42.54375" lon="-6.592676">
        <ele>551</ele>
        <time>2018-07-24T10:40:02.990Z</time>
      </trkpt>
      <trkpt lat="42.543838" lon="-6.592642">
        <ele>551</ele>
        <time>2018-07-24T10:40:07.990Z</time>
      </trkpt>
      <trkpt lat="42.543935" lon="-6.592664">
        <ele>551.595960901945</ele>
        <time>2018-07-24T10:40:12.000Z</time>
      </trkpt>
      <trkpt lat="42.544052" lon="-6.592652">
        <ele>553</ele>
        <time>2018-07-24T10:40:18.000Z</time>
      </trkpt>
      <trkpt lat="42.544163" lon="-6.59265">
        <ele>553</ele>
        <time>2018-07-24T10:40:22.990Z</time>
      </trkpt>
      <trkpt lat="42.544326" lon="-6.592707">
        <ele>552</ele>
        <time>2018-07-24T10:40:29.000Z</time>
      </trkpt>
      <trkpt lat="42.544433" lon="-6.592752">
        <ele>552</ele>
        <time>2018-07-24T10:40:32.000Z</time>
      </trkpt>
      <trkpt lat="42.544544" lon="-6.592776">
        <ele>552</ele>
        <time>2018-07-24T10:40:35.000Z</time>
      </trkpt>
      <trkpt lat="42.544717" lon="-6.592826">
        <ele>551</ele>
        <time>2018-07-24T10:40:39.000Z</time>
      </trkpt>
      <trkpt lat="42.544816" lon="-6.592932">
        <ele>550</ele>
        <time>2018-07-24T10:40:41.000Z</time>
      </trkpt>
      <trkpt lat="42.544882" lon="-6.593041">
        <ele>549.4</ele>
        <time>2018-07-24T10:40:43.000Z</time>
      </trkpt>
      <trkpt lat="42.544939" lon="-6.593158">
        <ele>549</ele>
        <time>2018-07-24T10:40:44.990Z</time>
      </trkpt>
      <trkpt lat="42.545028" lon="-6.593236">
        <ele>548.4099968</ele>
        <time>2018-07-24T10:40:46.990Z</time>
      </trkpt>
      <trkpt lat="42.54513" lon="-6.593206">
        <ele>547.4099968</ele>
        <time>2018-07-24T10:40:48.990Z</time>
      </trkpt>
      <trkpt lat="42.545227" lon="-6.593134">
        <ele>546.4099968</ele>
        <time>2018-07-24T10:40:50.990Z</time>
      </trkpt>
      <trkpt lat="42.545318" lon="-6.592988">
        <ele>546</ele>
        <time>2018-07-24T10:40:52.990Z</time>
      </trkpt>
      <trkpt lat="42.545347" lon="-6.592838">
        <ele>545</ele>
        <time>2018-07-24T10:40:54.990Z</time>
      </trkpt>
      <trkpt lat="42.54538" lon="-6.592692">
        <ele>544.4300032</ele>
        <time>2018-07-24T10:40:57.970Z</time>
      </trkpt>
      <trkpt lat="42.545471" lon="-6.592625">
        <ele>543</ele>
        <time>2018-07-24T10:41:03.000Z</time>
      </trkpt>
      <trkpt lat="42.545629" lon="-6.592647">
        <ele>542</ele>
        <time>2018-07-24T10:41:07.000Z</time>
      </trkpt>
      <trkpt lat="42.545753" lon="-6.592594">
        <ele>540.4</ele>
        <time>2018-07-24T10:41:10.000Z</time>
      </trkpt>
      <trkpt lat="42.545843" lon="-6.592574">
        <ele>539</ele>
        <time>2018-07-24T10:41:12.000Z</time>
      </trkpt>
      <trkpt lat="42.545971" lon="-6.592544">
        <ele>537</ele>
        <time>2018-07-24T10:41:15.000Z</time>
      </trkpt>
      <trkpt lat="42.546071" lon="-6.592525">
        <ele>536.4</ele>
        <time>2018-07-24T10:41:17.000Z</time>
      </trkpt>
      <trkpt lat="42.546166" lon="-6.592555">
        <ele>536</ele>
        <time>2018-07-24T10:41:19.000Z</time>
      </trkpt>
      <trkpt lat="42.546284" lon="-6.592563">
        <ele>536</ele>
        <time>2018-07-24T10:41:20.990Z</time>
      </trkpt>
      <trkpt lat="42.546387" lon="-6.592561">
        <ele>534.4</ele>
        <time>2018-07-24T10:41:23.000Z</time>
      </trkpt>
      <trkpt lat="42.546491" lon="-6.592517">
        <ele>534</ele>
        <time>2018-07-24T10:41:25.000Z</time>
      </trkpt>
      <trkpt lat="42.546584" lon="-6.592458">
        <ele>533</ele>
        <time>2018-07-24T10:41:27.000Z</time>
      </trkpt>
      <trkpt lat="42.546677" lon="-6.59237">
        <ele>533</ele>
        <time>2018-07-24T10:41:30.990Z</time>
      </trkpt>
      <trkpt lat="42.546808" lon="-6.592366">
        <ele>533</ele>
        <time>2018-07-24T10:41:36.000Z</time>
      </trkpt>
      <trkpt lat="42.546889" lon="-6.592454">
        <ele>533</ele>
        <time>2018-07-24T10:41:41.990Z</time>
      </trkpt>
      <trkpt lat="42.546938" lon="-6.592606">
        <ele>532.4099968</ele>
        <time>2018-07-24T10:41:46.990Z</time>
      </trkpt>
      <trkpt lat="42.546951" lon="-6.592733">
        <ele>532</ele>
        <time>2018-07-24T10:41:49.990Z</time>
      </trkpt>
      <trkpt lat="42.546958" lon="-6.592864">
        <ele>532</ele>
        <time>2018-07-24T10:41:52.990Z</time>
      </trkpt>
      <trkpt lat="42.547006" lon="-6.592984">
        <ele>531</ele>
        <time>2018-07-24T10:41:56.100Z</time>
      </trkpt>
      <trkpt lat="42.547038" lon="-6.593127">
        <ele>531</ele>
        <time>2018-07-24T10:41:59.000Z</time>
      </trkpt>
      <trkpt lat="42.547049" lon="-6.593282">
        <ele>531</ele>
        <time>2018-07-24T10:42:02.100Z</time>
      </trkpt>
      <trkpt lat="42.54707" lon="-6.593434">
        <ele>530</ele>
        <time>2018-07-24T10:42:05.000Z</time>
      </trkpt>
      <trkpt lat="42.547094" lon="-6.593612">
        <ele>530</ele>
        <time>2018-07-24T10:42:07.990Z</time>
      </trkpt>
      <trkpt lat="42.547115" lon="-6.593738">
        <ele>530</ele>
        <time>2018-07-24T10:42:10.000Z</time>
      </trkpt>
      <trkpt lat="42.547178" lon="-6.593852">
        <ele>529</ele>
        <time>2018-07-24T10:42:13.000Z</time>
      </trkpt>
      <trkpt lat="42.547296" lon="-6.593816">
        <ele>529</ele>
        <time>2018-07-24T10:42:15.100Z</time>
      </trkpt>
      <trkpt lat="42.547426" lon="-6.593738">
        <ele>527.8</ele>
        <time>2018-07-24T10:42:17.000Z</time>
      </trkpt>
      <trkpt lat="42.547547" lon="-6.593794">
        <ele>525.4</ele>
        <time>2018-07-24T10:42:19.000Z</time>
      </trkpt>
      <trkpt lat="42.547642" lon="-6.593948">
        <ele>524</ele>
        <time>2018-07-24T10:42:20.990Z</time>
      </trkpt>
      <trkpt lat="42.547703" lon="-6.594274">
        <ele>524</ele>
        <time>2018-07-24T10:42:24.000Z</time>
      </trkpt>
      <trkpt lat="42.547712" lon="-6.594468">
        <ele>523</ele>
        <time>2018-07-24T10:42:26.000Z</time>
      </trkpt>
      <trkpt lat="42.547749" lon="-6.594581">
        <ele>523</ele>
        <time>2018-07-24T10:42:28.000Z</time>
      </trkpt>
      <trkpt lat="42.547779" lon="-6.594718">
        <ele>523</ele>
        <time>2018-07-24T10:42:29.990Z</time>
      </trkpt>
      <trkpt lat="42.547803" lon="-6.594838">
        <ele>523</ele>
        <time>2018-07-24T10:42:32.020Z</time>
      </trkpt>
      <trkpt lat="42.547798" lon="-6.595044">
        <ele>524</ele>
        <time>2018-07-24T10:42:34.990Z</time>
      </trkpt>
      <trkpt lat="42.547785" lon="-6.59519">
        <ele>524</ele>
        <time>2018-07-24T10:42:36.990Z</time>
      </trkpt>
      <trkpt lat="42.547829" lon="-6.595348">
        <ele>525</ele>
        <time>2018-07-24T10:42:39.990Z</time>
      </trkpt>
      <trkpt lat="42.547877" lon="-6.595494">
        <ele>525</ele>
        <time>2018-07-24T10:42:42.990Z</time>
      </trkpt>
      <trkpt lat="42.547946" lon="-6.595636">
        <ele>525</ele>
        <time>2018-07-24T10:42:45.990Z</time>
      </trkpt>
      <trkpt lat="42.548027" lon="-6.595797">
        <ele>525.457367956262</ele>
        <time>2018-07-24T10:42:48.990Z</time>
      </trkpt>
      <trkpt lat="42.548083" lon="-6.595924">
        <ele>526</ele>
        <time>2018-07-24T10:42:51.990Z</time>
      </trkpt>
      <trkpt lat="42.548134" lon="-6.596076">
        <ele>526</ele>
        <time>2018-07-24T10:42:55.990Z</time>
      </trkpt>
      <trkpt lat="42.548245" lon="-6.596094">
        <ele>525</ele>
        <time>2018-07-24T10:42:59.990Z</time>
      </trkpt>
      <trkpt lat="42.548366" lon="-6.596074">
        <ele>525</ele>
        <time>2018-07-24T10:43:03.000Z</time>
      </trkpt>
      <trkpt lat="42.548501" lon="-6.59603">
        <ele>525</ele>
        <time>2018-07-24T10:43:05.990Z</time>
      </trkpt>
      <trkpt lat="42.548589" lon="-6.595989">
        <ele>525</ele>
        <time>2018-07-24T10:43:08.000Z</time>
      </trkpt>
      <trkpt lat="42.548721" lon="-6.595948">
        <ele>525</ele>
        <time>2018-07-24T10:43:10.950Z</time>
      </trkpt>
      <trkpt lat="42.548824" lon="-6.595921">
        <ele>525</ele>
        <time>2018-07-24T10:43:13.000Z</time>
      </trkpt>
      <trkpt lat="42.548955" lon="-6.595911">
        <ele>525</ele>
        <time>2018-07-24T10:43:15.990Z</time>
      </trkpt>
      <trkpt lat="42.549088" lon="-6.595872">
        <ele>525</ele>
        <time>2018-07-24T10:43:18.990Z</time>
      </trkpt>
      <trkpt lat="42.54921" lon="-6.595862">
        <ele>525</ele>
        <time>2018-07-24T10:43:21.990Z</time>
      </trkpt>
      <trkpt lat="42.549339" lon="-6.595804">
        <ele>525</ele>
        <time>2018-07-24T10:43:24.990Z</time>
      </trkpt>
      <trkpt lat="42.549429" lon="-6.595763">
        <ele>526</ele>
        <time>2018-07-24T10:43:26.990Z</time>
      </trkpt>
      <trkpt lat="42.54957" lon="-6.595729">
        <ele>526</ele>
        <time>2018-07-24T10:43:29.990Z</time>
      </trkpt>
      <trkpt lat="42.549658" lon="-6.595684">
        <ele>526</ele>
        <time>2018-07-24T10:43:31.990Z</time>
      </trkpt>
      <trkpt lat="42.549745" lon="-6.595649">
        <ele>526</ele>
        <time>2018-07-24T10:43:33.990Z</time>
      </trkpt>
      <trkpt lat="42.549852" lon="-6.595608">
        <ele>526</ele>
        <time>2018-07-24T10:43:35.990Z</time>
      </trkpt>
      <trkpt lat="42.549945" lon="-6.595581">
        <ele>526</ele>
        <time>2018-07-24T10:43:37.990Z</time>
      </trkpt>
      <trkpt lat="42.550061" lon="-6.595533">
        <ele>526</ele>
        <time>2018-07-24T10:43:40.990Z</time>
      </trkpt>
      <trkpt lat="42.550174" lon="-6.595536">
        <ele>526</ele>
        <time>2018-07-24T10:43:43.990Z</time>
      </trkpt>
      <trkpt lat="42.550293" lon="-6.595467">
        <ele>526</ele>
        <time>2018-07-24T10:43:46.990Z</time>
      </trkpt>
      <trkpt lat="42.550421" lon="-6.595428">
        <ele>526</ele>
        <time>2018-07-24T10:43:49.990Z</time>
      </trkpt>
      <trkpt lat="42.550519" lon="-6.595395">
        <ele>526</ele>
        <time>2018-07-24T10:43:51.990Z</time>
      </trkpt>
      <trkpt lat="42.550626" lon="-6.59535">
        <ele>526</ele>
        <time>2018-07-24T10:43:54.990Z</time>
      </trkpt>
      <trkpt lat="42.550827" lon="-6.595167">
        <ele>526</ele>
        <time>2018-07-24T10:43:59.000Z</time>
      </trkpt>
      <trkpt lat="42.550927" lon="-6.595125">
        <ele>526</ele>
        <time>2018-07-24T10:44:00.000Z</time>
      </trkpt>
      <trkpt lat="42.551019" lon="-6.595071">
        <ele>526</ele>
        <time>2018-07-24T10:44:02.000Z</time>
      </trkpt>
      <trkpt lat="42.551136" lon="-6.595022">
        <ele>526</ele>
        <time>2018-07-24T10:44:05.000Z</time>
      </trkpt>
      <trkpt lat="42.551248" lon="-6.595064">
        <ele>526</ele>
        <time>2018-07-24T10:44:09.990Z</time>
      </trkpt>
      <trkpt lat="42.55138" lon="-6.595006">
        <ele>527</ele>
        <time>2018-07-24T10:44:12.990Z</time>
      </trkpt>
      <trkpt lat="42.551471" lon="-6.594961">
        <ele>527</ele>
        <time>2018-07-24T10:44:14.990Z</time>
      </trkpt>
      <trkpt lat="42.551586" lon="-6.594903">
        <ele>527</ele>
        <time>2018-07-24T10:44:17.990Z</time>
      </trkpt>
      <trkpt lat="42.551708" lon="-6.594835">
        <ele>527</ele>
        <time>2018-07-24T10:44:21.000Z</time>
      </trkpt>
      <trkpt lat="42.551824" lon="-6.594755">
        <ele>527</ele>
        <time>2018-07-24T10:44:23.990Z</time>
      </trkpt>
      <trkpt lat="42.551911" lon="-6.594711">
        <ele>527</ele>
        <time>2018-07-24T10:44:26.960Z</time>
      </trkpt>
      <trkpt lat="42.552004" lon="-6.594663">
        <ele>527</ele>
        <time>2018-07-24T10:44:29.990Z</time>
      </trkpt>
      <trkpt lat="42.552108" lon="-6.594677">
        <ele>527</ele>
        <time>2018-07-24T10:44:32.990Z</time>
      </trkpt>
      <trkpt lat="42.552226" lon="-6.594653">
        <ele>527</ele>
        <time>2018-07-24T10:44:36.000Z</time>
      </trkpt>
      <trkpt lat="42.55234" lon="-6.594624">
        <ele>527</ele>
        <time>2018-07-24T10:44:38.990Z</time>
      </trkpt>
      <trkpt lat="42.552442" lon="-6.594603">
        <ele>527</ele>
        <time>2018-07-24T10:44:41.990Z</time>
      </trkpt>
      <trkpt lat="42.552542" lon="-6.594574">
        <ele>527.584163434973</ele>
        <time>2018-07-24T10:44:44.990Z</time>
      </trkpt>
      <trkpt lat="42.552654" lon="-6.594528">
        <ele>528</ele>
        <time>2018-07-24T10:44:47.990Z</time>
      </trkpt>
      <trkpt lat="42.552751" lon="-6.594502">
        <ele>528</ele>
        <time>2018-07-24T10:44:51.000Z</time>
      </trkpt>
      <trkpt lat="42.552892" lon="-6.594479">
        <ele>528</ele>
        <time>2018-07-24T10:44:55.000Z</time>
      </trkpt>
      <trkpt lat="42.553041" lon="-6.594445">
        <ele>528</ele>
        <time>2018-07-24T10:44:57.000Z</time>
      </trkpt>
      <trkpt lat="42.55313" lon="-6.594391">
        <ele>528.5900032</ele>
        <time>2018-07-24T10:44:58.990Z</time>
      </trkpt>
      <trkpt lat="42.553231" lon="-6.59438">
        <ele>529</ele>
        <time>2018-07-24T10:45:00.990Z</time>
      </trkpt>
      <trkpt lat="42.553366" lon="-6.594333">
        <ele>529</ele>
        <time>2018-07-24T10:45:04.950Z</time>
      </trkpt>
      <trkpt lat="42.553496" lon="-6.594301">
        <ele>529</ele>
        <time>2018-07-24T10:45:09.000Z</time>
      </trkpt>
      <trkpt lat="42.553606" lon="-6.594271">
        <ele>529.584163434973</ele>
        <time>2018-07-24T10:45:11.990Z</time>
      </trkpt>
      <trkpt lat="42.553718" lon="-6.594236">
        <ele>530.6</ele>
        <time>2018-07-24T10:45:16.000Z</time>
      </trkpt>
      <trkpt lat="42.553825" lon="-6.594251">
        <ele>531</ele>
        <time>2018-07-24T10:45:21.000Z</time>
      </trkpt>
      <trkpt lat="42.553917" lon="-6.594214">
        <ele>532</ele>
        <time>2018-07-24T10:45:26.000Z</time>
      </trkpt>
      <trkpt lat="42.554041" lon="-6.594186">
        <ele>533</ele>
        <time>2018-07-24T10:45:31.100Z</time>
      </trkpt>
      <trkpt lat="42.554153" lon="-6.594186">
        <ele>533</ele>
        <time>2018-07-24T10:45:35.990Z</time>
      </trkpt>
      <trkpt lat="42.554262" lon="-6.594157">
        <ele>533</ele>
        <time>2018-07-24T10:45:38.990Z</time>
      </trkpt>
      <trkpt lat="42.554364" lon="-6.594137">
        <ele>535</ele>
        <time>2018-07-24T10:45:41.990Z</time>
      </trkpt>
      <trkpt lat="42.554478" lon="-6.594129">
        <ele>535.5900032</ele>
        <time>2018-07-24T10:45:45.990Z</time>
      </trkpt>
      <trkpt lat="42.554588" lon="-6.594151">
        <ele>536</ele>
        <time>2018-07-24T10:45:50.000Z</time>
      </trkpt>
      <trkpt lat="42.554689" lon="-6.594187">
        <ele>537</ele>
        <time>2018-07-24T10:45:53.990Z</time>
      </trkpt>
      <trkpt lat="42.55478" lon="-6.594221">
        <ele>537</ele>
        <time>2018-07-24T10:45:56.990Z</time>
      </trkpt>
      <trkpt lat="42.554879" lon="-6.594296">
        <ele>538</ele>
        <time>2018-07-24T10:46:01.020Z</time>
      </trkpt>
      <trkpt lat="42.554962" lon="-6.59439">
        <ele>538</ele>
        <time>2018-07-24T10:46:05.000Z</time>
      </trkpt>
      <trkpt lat="42.55505" lon="-6.594435">
        <ele>538</ele>
        <time>2018-07-24T10:46:07.990Z</time>
      </trkpt>
      <trkpt lat="42.55515" lon="-6.594509">
        <ele>539</ele>
        <time>2018-07-24T10:46:11.990Z</time>
      </trkpt>
      <trkpt lat="42.555241" lon="-6.594599">
        <ele>539</ele>
        <time>2018-07-24T10:46:15.990Z</time>
      </trkpt>
      <trkpt lat="42.55533" lon="-6.594697">
        <ele>540</ele>
        <time>2018-07-24T10:46:20.030Z</time>
      </trkpt>
      <trkpt lat="42.555409" lon="-6.594816">
        <ele>541</ele>
        <time>2018-07-24T10:46:23.990Z</time>
      </trkpt>
      <trkpt lat="42.555502" lon="-6.594823">
        <ele>541</ele>
        <time>2018-07-24T10:46:27.990Z</time>
      </trkpt>
      <trkpt lat="42.555581" lon="-6.594712">
        <ele>541</ele>
        <time>2018-07-24T10:46:31.990Z</time>
      </trkpt>
      <trkpt lat="42.555646" lon="-6.594606">
        <ele>541</ele>
        <time>2018-07-24T10:46:35.000Z</time>
      </trkpt>
      <trkpt lat="42.55572" lon="-6.594505">
        <ele>541</ele>
        <time>2018-07-24T10:46:37.990Z</time>
      </trkpt>
      <trkpt lat="42.555797" lon="-6.594403">
        <ele>542</ele>
        <time>2018-07-24T10:46:40.990Z</time>
      </trkpt>
      <trkpt lat="42.555865" lon="-6.594315">
        <ele>541</ele>
        <time>2018-07-24T10:46:43.990Z</time>
      </trkpt>
      <trkpt lat="42.555919" lon="-6.594196">
        <ele>542</ele>
        <time>2018-07-24T10:46:48.990Z</time>
      </trkpt>
      <trkpt lat="42.556007" lon="-6.594074">
        <ele>541</ele>
        <time>2018-07-24T10:46:51.990Z</time>
      </trkpt>
      <trkpt lat="42.556091" lon="-6.593941">
        <ele>541.5900032</ele>
        <time>2018-07-24T10:46:55.000Z</time>
      </trkpt>
      <trkpt lat="42.556171" lon="-6.593808">
        <ele>542</ele>
        <time>2018-07-24T10:46:58.020Z</time>
      </trkpt>
      <trkpt lat="42.55623" lon="-6.593715">
        <ele>542</ele>
        <time>2018-07-24T10:47:00.000Z</time>
      </trkpt>
      <trkpt lat="42.556299" lon="-6.59362">
        <ele>542</ele>
        <time>2018-07-24T10:47:01.990Z</time>
      </trkpt>
      <trkpt lat="42.556348" lon="-6.593515">
        <ele>542</ele>
        <time>2018-07-24T10:47:05.000Z</time>
      </trkpt>
      <trkpt lat="42.556429" lon="-6.593385">
        <ele>542</ele>
        <time>2018-07-24T10:47:07.990Z</time>
      </trkpt>
      <trkpt lat="42.556501" lon="-6.59326">
        <ele>542</ele>
        <time>2018-07-24T10:47:10.990Z</time>
      </trkpt>
      <trkpt lat="42.556574" lon="-6.593146">
        <ele>542</ele>
        <time>2018-07-24T10:47:13.990Z</time>
      </trkpt>
      <trkpt lat="42.556637" lon="-6.593029">
        <ele>542</ele>
        <time>2018-07-24T10:47:17.020Z</time>
      </trkpt>
      <trkpt lat="42.556701" lon="-6.592914">
        <ele>542</ele>
        <time>2018-07-24T10:47:20.000Z</time>
      </trkpt>
      <trkpt lat="42.556776" lon="-6.592799">
        <ele>543</ele>
        <time>2018-07-24T10:47:22.990Z</time>
      </trkpt>
      <trkpt lat="42.556844" lon="-6.592688">
        <ele>543</ele>
        <time>2018-07-24T10:47:25.990Z</time>
      </trkpt>
      <trkpt lat="42.556917" lon="-6.592579">
        <ele>543</ele>
        <time>2018-07-24T10:47:28.990Z</time>
      </trkpt>
      <trkpt lat="42.556981" lon="-6.592463">
        <ele>543</ele>
        <time>2018-07-24T10:47:31.990Z</time>
      </trkpt>
      <trkpt lat="42.557028" lon="-6.592334">
        <ele>543</ele>
        <time>2018-07-24T10:47:35.000Z</time>
      </trkpt>
      <trkpt lat="42.557059" lon="-6.592157">
        <ele>542</ele>
        <time>2018-07-24T10:47:37.990Z</time>
      </trkpt>
      <trkpt lat="42.557078" lon="-6.591985">
        <ele>542</ele>
        <time>2018-07-24T10:47:40.990Z</time>
      </trkpt>
      <trkpt lat="42.557146" lon="-6.591845">
        <ele>542</ele>
        <time>2018-07-24T10:47:43.990Z</time>
      </trkpt>
      <trkpt lat="42.557227" lon="-6.591774">
        <ele>542</ele>
        <time>2018-07-24T10:47:45.990Z</time>
      </trkpt>
      <trkpt lat="42.557314" lon="-6.591733">
        <ele>542</ele>
        <time>2018-07-24T10:47:47.990Z</time>
      </trkpt>
      <trkpt lat="42.557405" lon="-6.591739">
        <ele>542</ele>
        <time>2018-07-24T10:47:50.000Z</time>
      </trkpt>
      <trkpt lat="42.557524" lon="-6.591794">
        <ele>542</ele>
        <time>2018-07-24T10:47:52.990Z</time>
      </trkpt>
      <trkpt lat="42.557638" lon="-6.591811">
        <ele>542</ele>
        <time>2018-07-24T10:47:55.960Z</time>
      </trkpt>
      <trkpt lat="42.557734" lon="-6.591761">
        <ele>543</ele>
        <time>2018-07-24T10:47:58.990Z</time>
      </trkpt>
      <trkpt lat="42.557822" lon="-6.591659">
        <ele>543</ele>
        <time>2018-07-24T10:48:02.990Z</time>
      </trkpt>
      <trkpt lat="42.557887" lon="-6.591551">
        <ele>543</ele>
        <time>2018-07-24T10:48:06.990Z</time>
      </trkpt>
      <trkpt lat="42.557927" lon="-6.591431">
        <ele>543</ele>
        <time>2018-07-24T10:48:10.000Z</time>
      </trkpt>
      <trkpt lat="42.557972" lon="-6.591325">
        <ele>543</ele>
        <time>2018-07-24T10:48:12.990Z</time>
      </trkpt>
      <trkpt lat="42.558002" lon="-6.5912">
        <ele>544</ele>
        <time>2018-07-24T10:48:16.990Z</time>
      </trkpt>
      <trkpt lat="42.558027" lon="-6.591075">
        <ele>544</ele>
        <time>2018-07-24T10:48:20.990Z</time>
      </trkpt>
      <trkpt lat="42.558054" lon="-6.590946">
        <ele>544</ele>
        <time>2018-07-24T10:48:25.990Z</time>
      </trkpt>
      <trkpt lat="42.558067" lon="-6.590807">
        <ele>544</ele>
        <time>2018-07-24T10:48:30.000Z</time>
      </trkpt>
      <trkpt lat="42.558077" lon="-6.590667">
        <ele>544</ele>
        <time>2018-07-24T10:48:35.000Z</time>
      </trkpt>
      <trkpt lat="42.558098" lon="-6.590528">
        <ele>545</ele>
        <time>2018-07-24T10:48:41.990Z</time>
      </trkpt>
      <trkpt lat="42.558185" lon="-6.59048">
        <ele>545</ele>
        <time>2018-07-24T10:48:56.990Z</time>
      </trkpt>
      <trkpt lat="42.558201" lon="-6.590636">
        <ele>544.557248104432</ele>
        <time>2018-07-24T10:49:00.990Z</time>
      </trkpt>
      <trkpt lat="42.558184" lon="-6.59077">
        <ele>544</ele>
        <time>2018-07-24T10:49:03.960Z</time>
      </trkpt>
      <trkpt lat="42.558266" lon="-6.590845">
        <ele>544</ele>
        <time>2018-07-24T10:49:07.990Z</time>
      </trkpt>
      <trkpt lat="42.558358" lon="-6.590778">
        <ele>544</ele>
        <time>2018-07-24T10:49:11.960Z</time>
      </trkpt>
      <trkpt lat="42.558409" lon="-6.590673">
        <ele>546</ele>
        <time>2018-07-24T10:49:15.990Z</time>
      </trkpt>
      <trkpt lat="42.558426" lon="-6.590534">
        <ele>547</ele>
        <time>2018-07-24T10:49:20.990Z</time>
      </trkpt>
      <trkpt lat="42.558516" lon="-6.590515">
        <ele>546</ele>
        <time>2018-07-24T10:50:12.990Z</time>
      </trkpt>
      <trkpt lat="42.558622" lon="-6.590514">
        <ele>546</ele>
        <time>2018-07-24T10:50:16.990Z</time>
      </trkpt>
      <trkpt lat="42.558726" lon="-6.590526">
        <ele>546</ele>
        <time>2018-07-24T10:50:21.990Z</time>
      </trkpt>
      <trkpt lat="42.558814" lon="-6.59046">
        <ele>547</ele>
        <time>2018-07-24T10:50:27.020Z</time>
      </trkpt>
      <trkpt lat="42.558877" lon="-6.590344">
        <ele>547</ele>
        <time>2018-07-24T10:50:30.990Z</time>
      </trkpt>
      <trkpt lat="42.558937" lon="-6.590224">
        <ele>547</ele>
        <time>2018-07-24T10:50:35.000Z</time>
      </trkpt>
      <trkpt lat="42.559006" lon="-6.590108">
        <ele>548</ele>
        <time>2018-07-24T10:50:38.990Z</time>
      </trkpt>
      <trkpt lat="42.559055" lon="-6.590004">
        <ele>548</ele>
        <time>2018-07-24T10:50:41.990Z</time>
      </trkpt>
      <trkpt lat="42.559105" lon="-6.589896">
        <ele>548</ele>
        <time>2018-07-24T10:50:45.000Z</time>
      </trkpt>
      <trkpt lat="42.559164" lon="-6.589774">
        <ele>548.457367956262</ele>
        <time>2018-07-24T10:50:48.990Z</time>
      </trkpt>
      <trkpt lat="42.559219" lon="-6.589652">
        <ele>549</ele>
        <time>2018-07-24T10:50:53.990Z</time>
      </trkpt>
      <trkpt lat="42.559267" lon="-6.589544">
        <ele>549</ele>
        <time>2018-07-24T10:50:58.990Z</time>
      </trkpt>
      <trkpt lat="42.559316" lon="-6.589422">
        <ele>550</ele>
        <time>2018-07-24T10:51:03.990Z</time>
      </trkpt>
      <trkpt lat="42.559406" lon="-6.589328">
        <ele>551</ele>
        <time>2018-07-24T10:51:14.000Z</time>
      </trkpt>
      <trkpt lat="42.559478" lon="-6.589421">
        <ele>551</ele>
        <time>2018-07-24T10:51:17.000Z</time>
      </trkpt>
      <trkpt lat="42.559548" lon="-6.589512">
        <ele>550</ele>
        <time>2018-07-24T10:51:19.990Z</time>
      </trkpt>
      <trkpt lat="42.559624" lon="-6.58959">
        <ele>550</ele>
        <time>2018-07-24T10:51:23.000Z</time>
      </trkpt>
      <trkpt lat="42.559694" lon="-6.589674">
        <ele>550</ele>
        <time>2018-07-24T10:51:25.990Z</time>
      </trkpt>
      <trkpt lat="42.559778" lon="-6.589754">
        <ele>550</ele>
        <time>2018-07-24T10:51:28.990Z</time>
      </trkpt>
      <trkpt lat="42.559858" lon="-6.58987">
        <ele>549</ele>
        <time>2018-07-24T10:51:31.990Z</time>
      </trkpt>
      <trkpt lat="42.559937" lon="-6.589991">
        <ele>550</ele>
        <time>2018-07-24T10:51:34.990Z</time>
      </trkpt>
      <trkpt lat="42.560015" lon="-6.5901">
        <ele>550</ele>
        <time>2018-07-24T10:51:38.000Z</time>
      </trkpt>
      <trkpt lat="42.56006" lon="-6.590238">
        <ele>550</ele>
        <time>2018-07-24T10:51:40.990Z</time>
      </trkpt>
      <trkpt lat="42.560096" lon="-6.590364">
        <ele>550</ele>
        <time>2018-07-24T10:51:43.960Z</time>
      </trkpt>
      <trkpt lat="42.560153" lon="-6.5905">
        <ele>550</ele>
        <time>2018-07-24T10:51:46.990Z</time>
      </trkpt>
      <trkpt lat="42.560248" lon="-6.590524">
        <ele>550</ele>
        <time>2018-07-24T10:51:51.990Z</time>
      </trkpt>
      <trkpt lat="42.560362" lon="-6.590564">
        <ele>550</ele>
        <time>2018-07-24T10:51:55.990Z</time>
      </trkpt>
      <trkpt lat="42.560462" lon="-6.590635">
        <ele>550</ele>
        <time>2018-07-24T10:51:59.990Z</time>
      </trkpt>
      <trkpt lat="42.560559" lon="-6.590732">
        <ele>550</ele>
        <time>2018-07-24T10:52:03.990Z</time>
      </trkpt>
      <trkpt lat="42.560625" lon="-6.590848">
        <ele>550</ele>
        <time>2018-07-24T10:52:06.990Z</time>
      </trkpt>
      <trkpt lat="42.560685" lon="-6.590974">
        <ele>550</ele>
        <time>2018-07-24T10:52:10.000Z</time>
      </trkpt>
      <trkpt lat="42.560767" lon="-6.591079">
        <ele>550</ele>
        <time>2018-07-24T10:52:13.000Z</time>
      </trkpt>
      <trkpt lat="42.560824" lon="-6.591182">
        <ele>550</ele>
        <time>2018-07-24T10:52:16.000Z</time>
      </trkpt>
      <trkpt lat="42.560896" lon="-6.591257">
        <ele>550.456696802024</ele>
        <time>2018-07-24T10:52:19.000Z</time>
      </trkpt>
      <trkpt lat="42.560973" lon="-6.591329">
        <ele>551</ele>
        <time>2018-07-24T10:52:21.960Z</time>
      </trkpt>
      <trkpt lat="42.561061" lon="-6.591429">
        <ele>551</ele>
        <time>2018-07-24T10:52:24.990Z</time>
      </trkpt>
      <trkpt lat="42.561143" lon="-6.591539">
        <ele>552</ele>
        <time>2018-07-24T10:52:29.000Z</time>
      </trkpt>
      <trkpt lat="42.561205" lon="-6.591629">
        <ele>553</ele>
        <time>2018-07-24T10:52:31.990Z</time>
      </trkpt>
      <trkpt lat="42.561298" lon="-6.591743">
        <ele>553</ele>
        <time>2018-07-24T10:52:35.990Z</time>
      </trkpt>
      <trkpt lat="42.561375" lon="-6.591842">
        <ele>553</ele>
        <time>2018-07-24T10:52:39.000Z</time>
      </trkpt>
      <trkpt lat="42.561451" lon="-6.591942">
        <ele>553</ele>
        <time>2018-07-24T10:52:41.990Z</time>
      </trkpt>
      <trkpt lat="42.561519" lon="-6.592034">
        <ele>553</ele>
        <time>2018-07-24T10:52:44.990Z</time>
      </trkpt>
      <trkpt lat="42.561598" lon="-6.592125">
        <ele>553.457367956262</ele>
        <time>2018-07-24T10:52:47.990Z</time>
      </trkpt>
      <trkpt lat="42.561662" lon="-6.592223">
        <ele>554</ele>
        <time>2018-07-24T10:52:50.990Z</time>
      </trkpt>
      <trkpt lat="42.561734" lon="-6.592313">
        <ele>554</ele>
        <time>2018-07-24T10:52:54.000Z</time>
      </trkpt>
      <trkpt lat="42.561806" lon="-6.592412">
        <ele>554</ele>
        <time>2018-07-24T10:52:56.990Z</time>
      </trkpt>
      <trkpt lat="42.561869" lon="-6.592519">
        <ele>554</ele>
        <time>2018-07-24T10:52:59.960Z</time>
      </trkpt>
      <trkpt lat="42.561943" lon="-6.592616">
        <ele>553</ele>
        <time>2018-07-24T10:53:02.990Z</time>
      </trkpt>
      <trkpt lat="42.562019" lon="-6.592715">
        <ele>553</ele>
        <time>2018-07-24T10:53:06.990Z</time>
      </trkpt>
      <trkpt lat="42.562112" lon="-6.592677">
        <ele>553</ele>
        <time>2018-07-24T10:53:11.990Z</time>
      </trkpt>
      <trkpt lat="42.562205" lon="-6.592762">
        <ele>554</ele>
        <time>2018-07-24T10:53:15.990Z</time>
      </trkpt>
      <trkpt lat="42.562295" lon="-6.592879">
        <ele>553.564889001798</ele>
        <time>2018-07-24T10:53:18.970Z</time>
      </trkpt>
      <trkpt lat="42.562389" lon="-6.593056">
        <ele>553</ele>
        <time>2018-07-24T10:53:23.000Z</time>
      </trkpt>
      <trkpt lat="42.562469" lon="-6.593164">
        <ele>553</ele>
        <time>2018-07-24T10:53:26.000Z</time>
      </trkpt>
      <trkpt lat="42.562546" lon="-6.593247">
        <ele>553</ele>
        <time>2018-07-24T10:53:29.000Z</time>
      </trkpt>
      <trkpt lat="42.562633" lon="-6.593344">
        <ele>552</ele>
        <time>2018-07-24T10:53:31.990Z</time>
      </trkpt>
      <trkpt lat="42.562705" lon="-6.593434">
        <ele>552</ele>
        <time>2018-07-24T10:53:34.990Z</time>
      </trkpt>
      <trkpt lat="42.562775" lon="-6.59354">
        <ele>552</ele>
        <time>2018-07-24T10:53:39.000Z</time>
      </trkpt>
      <trkpt lat="42.562836" lon="-6.59364">
        <ele>552</ele>
        <time>2018-07-24T10:53:44.000Z</time>
      </trkpt>
      <trkpt lat="42.562804" lon="-6.593778">
        <ele>552</ele>
        <time>2018-07-24T10:53:49.990Z</time>
      </trkpt>
      <trkpt lat="42.562752" lon="-6.593892">
        <ele>552</ele>
        <time>2018-07-24T10:53:54.990Z</time>
      </trkpt>
      <trkpt lat="42.562803" lon="-6.593993">
        <ele>552</ele>
        <time>2018-07-24T10:53:59.000Z</time>
      </trkpt>
      <trkpt lat="42.562891" lon="-6.5941">
        <ele>552</ele>
        <time>2018-07-24T10:54:02.990Z</time>
      </trkpt>
      <trkpt lat="42.562952" lon="-6.594206">
        <ele>552</ele>
        <time>2018-07-24T10:54:06.000Z</time>
      </trkpt>
      <trkpt lat="42.563018" lon="-6.594296">
        <ele>552</ele>
        <time>2018-07-24T10:54:09.000Z</time>
      </trkpt>
      <trkpt lat="42.563099" lon="-6.594352">
        <ele>552</ele>
        <time>2018-07-24T10:54:12.990Z</time>
      </trkpt>
      <trkpt lat="42.563173" lon="-6.594428">
        <ele>552</ele>
        <time>2018-07-24T10:54:16.000Z</time>
      </trkpt>
      <trkpt lat="42.56325" lon="-6.594514">
        <ele>552</ele>
        <time>2018-07-24T10:54:19.000Z</time>
      </trkpt>
      <trkpt lat="42.563355" lon="-6.59458">
        <ele>552</ele>
        <time>2018-07-24T10:54:22.990Z</time>
      </trkpt>
      <trkpt lat="42.563447" lon="-6.594677">
        <ele>552</ele>
        <time>2018-07-24T10:54:26.990Z</time>
      </trkpt>
      <trkpt lat="42.563512" lon="-6.594783">
        <ele>551</ele>
        <time>2018-07-24T10:54:30.000Z</time>
      </trkpt>
      <trkpt lat="42.563569" lon="-6.594899">
        <ele>551</ele>
        <time>2018-07-24T10:54:34.020Z</time>
      </trkpt>
      <trkpt lat="42.563645" lon="-6.59498">
        <ele>550</ele>
        <time>2018-07-24T10:54:36.990Z</time>
      </trkpt>
      <trkpt lat="42.56361" lon="-6.595137">
        <ele>550</ele>
        <time>2018-07-24T10:54:40.990Z</time>
      </trkpt>
      <trkpt lat="42.563619" lon="-6.595265">
        <ele>550</ele>
        <time>2018-07-24T10:54:45.000Z</time>
      </trkpt>
      <trkpt lat="42.563665" lon="-6.59538">
        <ele>550</ele>
        <time>2018-07-24T10:54:47.990Z</time>
      </trkpt>
      <trkpt lat="42.563719" lon="-6.595483">
        <ele>550</ele>
        <time>2018-07-24T10:54:50.990Z</time>
      </trkpt>
      <trkpt lat="42.563773" lon="-6.595585">
        <ele>550</ele>
        <time>2018-07-24T10:54:53.960Z</time>
      </trkpt>
      <trkpt lat="42.563848" lon="-6.595694">
        <ele>550</ele>
        <time>2018-07-24T10:54:56.990Z</time>
      </trkpt>
      <trkpt lat="42.563923" lon="-6.595802">
        <ele>549.4</ele>
        <time>2018-07-24T10:55:00.000Z</time>
      </trkpt>
      <trkpt lat="42.564006" lon="-6.595906">
        <ele>549</ele>
        <time>2018-07-24T10:55:02.990Z</time>
      </trkpt>
      <trkpt lat="42.564098" lon="-6.596017">
        <ele>549</ele>
        <time>2018-07-24T10:55:05.990Z</time>
      </trkpt>
      <trkpt lat="42.564186" lon="-6.596127">
        <ele>549</ele>
        <time>2018-07-24T10:55:08.990Z</time>
      </trkpt>
      <trkpt lat="42.564274" lon="-6.596238">
        <ele>549</ele>
        <time>2018-07-24T10:55:12.020Z</time>
      </trkpt>
      <trkpt lat="42.564352" lon="-6.596331">
        <ele>549</ele>
        <time>2018-07-24T10:55:15.000Z</time>
      </trkpt>
      <trkpt lat="42.564412" lon="-6.596435">
        <ele>549</ele>
        <time>2018-07-24T10:55:17.990Z</time>
      </trkpt>
      <trkpt lat="42.564488" lon="-6.596538">
        <ele>549</ele>
        <time>2018-07-24T10:55:20.990Z</time>
      </trkpt>
      <trkpt lat="42.564572" lon="-6.596652">
        <ele>549</ele>
        <time>2018-07-24T10:55:23.990Z</time>
      </trkpt>
      <trkpt lat="42.56466" lon="-6.596763">
        <ele>549</ele>
        <time>2018-07-24T10:55:26.990Z</time>
      </trkpt>
      <trkpt lat="42.564744" lon="-6.596865">
        <ele>549</ele>
        <time>2018-07-24T10:55:30.000Z</time>
      </trkpt>
      <trkpt lat="42.564828" lon="-6.596984">
        <ele>549</ele>
        <time>2018-07-24T10:55:32.990Z</time>
      </trkpt>
      <trkpt lat="42.56491" lon="-6.597088">
        <ele>549</ele>
        <time>2018-07-24T10:55:35.990Z</time>
      </trkpt>
      <trkpt lat="42.564986" lon="-6.597187">
        <ele>549</ele>
        <time>2018-07-24T10:55:38.990Z</time>
      </trkpt>
      <trkpt lat="42.56506" lon="-6.597285">
        <ele>549</ele>
        <time>2018-07-24T10:55:41.990Z</time>
      </trkpt>
      <trkpt lat="42.565129" lon="-6.597366">
        <ele>549</ele>
        <time>2018-07-24T10:55:45.000Z</time>
      </trkpt>
      <trkpt lat="42.565218" lon="-6.597479">
        <ele>549</ele>
        <time>2018-07-24T10:55:48.990Z</time>
      </trkpt>
      <trkpt lat="42.565298" lon="-6.597571">
        <ele>549</ele>
        <time>2018-07-24T10:55:51.990Z</time>
      </trkpt>
      <trkpt lat="42.565394" lon="-6.59767">
        <ele>549</ele>
        <time>2018-07-24T10:55:55.990Z</time>
      </trkpt>
      <trkpt lat="42.565474" lon="-6.597759">
        <ele>549</ele>
        <time>2018-07-24T10:55:58.990Z</time>
      </trkpt>
      <trkpt lat="42.565555" lon="-6.597839">
        <ele>550</ele>
        <time>2018-07-24T10:56:01.990Z</time>
      </trkpt>
      <trkpt lat="42.565638" lon="-6.59791">
        <ele>550</ele>
        <time>2018-07-24T10:56:05.000Z</time>
      </trkpt>
      <trkpt lat="42.565705" lon="-6.598005">
        <ele>550</ele>
        <time>2018-07-24T10:56:07.990Z</time>
      </trkpt>
      <trkpt lat="42.565779" lon="-6.598092">
        <ele>550</ele>
        <time>2018-07-24T10:56:10.990Z</time>
      </trkpt>
      <trkpt lat="42.565875" lon="-6.59816">
        <ele>550</ele>
        <time>2018-07-24T10:56:13.990Z</time>
      </trkpt>
      <trkpt lat="42.565958" lon="-6.598223">
        <ele>550</ele>
        <time>2018-07-24T10:56:16.990Z</time>
      </trkpt>
      <trkpt lat="42.56605" lon="-6.598282">
        <ele>550</ele>
        <time>2018-07-24T10:56:20.000Z</time>
      </trkpt>
      <trkpt lat="42.566146" lon="-6.598367">
        <ele>550</ele>
        <time>2018-07-24T10:56:22.990Z</time>
      </trkpt>
      <trkpt lat="42.566227" lon="-6.598465">
        <ele>550</ele>
        <time>2018-07-24T10:56:25.990Z</time>
      </trkpt>
      <trkpt lat="42.566319" lon="-6.598548">
        <ele>550</ele>
        <time>2018-07-24T10:56:28.960Z</time>
      </trkpt>
      <trkpt lat="42.566423" lon="-6.598619">
        <ele>550</ele>
        <time>2018-07-24T10:56:31.990Z</time>
      </trkpt>
      <trkpt lat="42.566523" lon="-6.598706">
        <ele>550</ele>
        <time>2018-07-24T10:56:35.000Z</time>
      </trkpt>
      <trkpt lat="42.566624" lon="-6.598805">
        <ele>550</ele>
        <time>2018-07-24T10:56:37.990Z</time>
      </trkpt>
      <trkpt lat="42.566705" lon="-6.598906">
        <ele>550</ele>
        <time>2018-07-24T10:56:40.990Z</time>
      </trkpt>
      <trkpt lat="42.56678" lon="-6.599008">
        <ele>550</ele>
        <time>2018-07-24T10:56:43.990Z</time>
      </trkpt>
      <trkpt lat="42.566863" lon="-6.599096">
        <ele>550</ele>
        <time>2018-07-24T10:56:47.020Z</time>
      </trkpt>
      <trkpt lat="42.56694" lon="-6.599184">
        <ele>550</ele>
        <time>2018-07-24T10:56:50.000Z</time>
      </trkpt>
      <trkpt lat="42.56702" lon="-6.599261">
        <ele>550</ele>
        <time>2018-07-24T10:56:52.990Z</time>
      </trkpt>
      <trkpt lat="42.567098" lon="-6.599326">
        <ele>550</ele>
        <time>2018-07-24T10:56:55.990Z</time>
      </trkpt>
      <trkpt lat="42.567166" lon="-6.599413">
        <ele>550</ele>
        <time>2018-07-24T10:56:58.990Z</time>
      </trkpt>
      <trkpt lat="42.56724" lon="-6.599493">
        <ele>550</ele>
        <time>2018-07-24T10:57:01.990Z</time>
      </trkpt>
      <trkpt lat="42.567295" lon="-6.599624">
        <ele>550.46875</ele>
        <time>2018-07-24T10:57:04.000Z</time>
      </trkpt>
      <trkpt lat="42.567358" lon="-6.599721">
        <ele>551</ele>
        <time>2018-07-24T10:57:07.000Z</time>
      </trkpt>
      <trkpt lat="42.567434" lon="-6.599829">
        <ele>552</ele>
        <time>2018-07-24T10:57:12.000Z</time>
      </trkpt>
      <trkpt lat="42.567518" lon="-6.599946">
        <ele>553</ele>
        <time>2018-07-24T10:57:15.990Z</time>
      </trkpt>
      <trkpt lat="42.567586" lon="-6.600028">
        <ele>553</ele>
        <time>2018-07-24T10:57:18.990Z</time>
      </trkpt>
      <trkpt lat="42.567661" lon="-6.600098">
        <ele>553</ele>
        <time>2018-07-24T10:57:22.000Z</time>
      </trkpt>
      <trkpt lat="42.567735" lon="-6.600186">
        <ele>553</ele>
        <time>2018-07-24T10:57:25.020Z</time>
      </trkpt>
      <trkpt lat="42.567805" lon="-6.600284">
        <ele>553</ele>
        <time>2018-07-24T10:57:27.990Z</time>
      </trkpt>
      <trkpt lat="42.567885" lon="-6.600368">
        <ele>553</ele>
        <time>2018-07-24T10:57:30.990Z</time>
      </trkpt>
      <trkpt lat="42.567977" lon="-6.60042">
        <ele>553.5900032</ele>
        <time>2018-07-24T10:57:33.990Z</time>
      </trkpt>
      <trkpt lat="42.568057" lon="-6.600482">
        <ele>553</ele>
        <time>2018-07-24T10:57:37.000Z</time>
      </trkpt>
      <trkpt lat="42.568153" lon="-6.600572">
        <ele>554.45313</ele>
        <time>2018-07-24T10:57:40.990Z</time>
      </trkpt>
      <trkpt lat="42.568225" lon="-6.600646">
        <ele>555</ele>
        <time>2018-07-24T10:57:44.020Z</time>
      </trkpt>
      <trkpt lat="42.568304" lon="-6.600718">
        <ele>555</ele>
        <time>2018-07-24T10:57:47.000Z</time>
      </trkpt>
      <trkpt lat="42.568398" lon="-6.600804">
        <ele>555.584163434973</ele>
        <time>2018-07-24T10:57:49.990Z</time>
      </trkpt>
      <trkpt lat="42.568472" lon="-6.600896">
        <ele>556</ele>
        <time>2018-07-24T10:57:52.990Z</time>
      </trkpt>
      <trkpt lat="42.568548" lon="-6.600963">
        <ele>556</ele>
        <time>2018-07-24T10:57:55.990Z</time>
      </trkpt>
      <trkpt lat="42.568629" lon="-6.601037">
        <ele>556</ele>
        <time>2018-07-24T10:57:58.990Z</time>
      </trkpt>
      <trkpt lat="42.568711" lon="-6.601111">
        <ele>556</ele>
        <time>2018-07-24T10:58:02.000Z</time>
      </trkpt>
      <trkpt lat="42.568802" lon="-6.60119">
        <ele>556</ele>
        <time>2018-07-24T10:58:05.990Z</time>
      </trkpt>
      <trkpt lat="42.568891" lon="-6.601264">
        <ele>556.5900032</ele>
        <time>2018-07-24T10:58:09.990Z</time>
      </trkpt>
      <trkpt lat="42.568981" lon="-6.601324">
        <ele>558</ele>
        <time>2018-07-24T10:58:13.990Z</time>
      </trkpt>
      <trkpt lat="42.569088" lon="-6.601358">
        <ele>558</ele>
        <time>2018-07-24T10:58:17.990Z</time>
      </trkpt>
      <trkpt lat="42.56917" lon="-6.60141">
        <ele>558</ele>
        <time>2018-07-24T10:58:22.960Z</time>
      </trkpt>
      <trkpt lat="42.569277" lon="-6.601455">
        <ele>558</ele>
        <time>2018-07-24T10:58:27.000Z</time>
      </trkpt>
      <trkpt lat="42.569372" lon="-6.60148">
        <ele>558</ele>
        <time>2018-07-24T10:58:29.990Z</time>
      </trkpt>
      <trkpt lat="42.569483" lon="-6.601511">
        <ele>558</ele>
        <time>2018-07-24T10:58:34.000Z</time>
      </trkpt>
      <trkpt lat="42.569667" lon="-6.601566">
        <ele>557</ele>
        <time>2018-07-24T10:58:39.000Z</time>
      </trkpt>
      <trkpt lat="42.569753" lon="-6.601621">
        <ele>557</ele>
        <time>2018-07-24T10:58:41.000Z</time>
      </trkpt>
      <trkpt lat="42.569846" lon="-6.601681">
        <ele>557</ele>
        <time>2018-07-24T10:58:43.000Z</time>
      </trkpt>
      <trkpt lat="42.569953" lon="-6.601761">
        <ele>556.55638750409</ele>
        <time>2018-07-24T10:58:44.990Z</time>
      </trkpt>
      <trkpt lat="42.570087" lon="-6.601822">
        <ele>556</ele>
        <time>2018-07-24T10:58:46.990Z</time>
      </trkpt>
      <trkpt lat="42.570211" lon="-6.60188">
        <ele>556</ele>
        <time>2018-07-24T10:58:48.990Z</time>
      </trkpt>
      <trkpt lat="42.570322" lon="-6.601926">
        <ele>555</ele>
        <time>2018-07-24T10:58:50.990Z</time>
      </trkpt>
      <trkpt lat="42.570428" lon="-6.601969">
        <ele>555</ele>
        <time>2018-07-24T10:58:53.000Z</time>
      </trkpt>
      <trkpt lat="42.570531" lon="-6.602015">
        <ele>555</ele>
        <time>2018-07-24T10:58:54.990Z</time>
      </trkpt>
      <trkpt lat="42.570627" lon="-6.602099">
        <ele>555</ele>
        <time>2018-07-24T10:58:56.990Z</time>
      </trkpt>
      <trkpt lat="42.570687" lon="-6.602218">
        <ele>555</ele>
        <time>2018-07-24T10:58:58.990Z</time>
      </trkpt>
      <trkpt lat="42.570721" lon="-6.602351">
        <ele>555</ele>
        <time>2018-07-24T10:59:00.960Z</time>
      </trkpt>
      <trkpt lat="42.570748" lon="-6.602488">
        <ele>555</ele>
        <time>2018-07-24T10:59:03.000Z</time>
      </trkpt>
      <trkpt lat="42.57079" lon="-6.602613">
        <ele>554.4099968</ele>
        <time>2018-07-24T10:59:04.990Z</time>
      </trkpt>
      <trkpt lat="42.570832" lon="-6.602726">
        <ele>553</ele>
        <time>2018-07-24T10:59:06.990Z</time>
      </trkpt>
      <trkpt lat="42.570868" lon="-6.602859">
        <ele>553</ele>
        <time>2018-07-24T10:59:08.990Z</time>
      </trkpt>
      <trkpt lat="42.570914" lon="-6.602975">
        <ele>553.5900032</ele>
        <time>2018-07-24T10:59:10.990Z</time>
      </trkpt>
      <trkpt lat="42.570964" lon="-6.603102">
        <ele>555.450383021965</ele>
        <time>2018-07-24T10:59:13.990Z</time>
      </trkpt>
      <trkpt lat="42.571031" lon="-6.603226">
        <ele>556</ele>
        <time>2018-07-24T10:59:18.000Z</time>
      </trkpt>
      <trkpt lat="42.571087" lon="-6.603351">
        <ele>556.5900032</ele>
        <time>2018-07-24T10:59:21.990Z</time>
      </trkpt>
      <trkpt lat="42.571154" lon="-6.60345">
        <ele>557.5900032</ele>
        <time>2018-07-24T10:59:25.990Z</time>
      </trkpt>
      <trkpt lat="42.571222" lon="-6.603538">
        <ele>559</ele>
        <time>2018-07-24T10:59:30.000Z</time>
      </trkpt>
      <trkpt lat="42.571283" lon="-6.603645">
        <ele>560</ele>
        <time>2018-07-24T10:59:34.990Z</time>
      </trkpt>
      <trkpt lat="42.571348" lon="-6.603748">
        <ele>560.56</ele>
        <time>2018-07-24T10:59:38.960Z</time>
      </trkpt>
      <trkpt lat="42.571429" lon="-6.603845">
        <ele>561</ele>
        <time>2018-07-24T10:59:42.990Z</time>
      </trkpt>
      <trkpt lat="42.571518" lon="-6.603904">
        <ele>561</ele>
        <time>2018-07-24T10:59:47.000Z</time>
      </trkpt>
      <trkpt lat="42.571591" lon="-6.603987">
        <ele>561</ele>
        <time>2018-07-24T10:59:50.990Z</time>
      </trkpt>
      <trkpt lat="42.571682" lon="-6.604093">
        <ele>560</ele>
        <time>2018-07-24T10:59:54.990Z</time>
      </trkpt>
      <trkpt lat="42.571757" lon="-6.604173">
        <ele>560</ele>
        <time>2018-07-24T10:59:57.960Z</time>
      </trkpt>
      <trkpt lat="42.571854" lon="-6.604282">
        <ele>560</ele>
        <time>2018-07-24T11:00:02.000Z</time>
      </trkpt>
      <trkpt lat="42.571932" lon="-6.604358">
        <ele>560</ele>
        <time>2018-07-24T11:00:04.990Z</time>
      </trkpt>
      <trkpt lat="42.571994" lon="-6.604449">
        <ele>560</ele>
        <time>2018-07-24T11:00:07.990Z</time>
      </trkpt>
      <trkpt lat="42.572034" lon="-6.604564">
        <ele>559</ele>
        <time>2018-07-24T11:00:10.990Z</time>
      </trkpt>
      <trkpt lat="42.572073" lon="-6.604701">
        <ele>559</ele>
        <time>2018-07-24T11:00:13.990Z</time>
      </trkpt>
      <trkpt lat="42.572107" lon="-6.604817">
        <ele>559</ele>
        <time>2018-07-24T11:00:16.970Z</time>
      </trkpt>
      <trkpt lat="42.572147" lon="-6.604943">
        <ele>559</ele>
        <time>2018-07-24T11:00:19.990Z</time>
      </trkpt>
      <trkpt lat="42.572186" lon="-6.605086">
        <ele>559</ele>
        <time>2018-07-24T11:00:22.990Z</time>
      </trkpt>
      <trkpt lat="42.572218" lon="-6.605239">
        <ele>558</ele>
        <time>2018-07-24T11:00:25.990Z</time>
      </trkpt>
      <trkpt lat="42.572223" lon="-6.605391">
        <ele>558</ele>
        <time>2018-07-24T11:00:28.990Z</time>
      </trkpt>
      <trkpt lat="42.572251" lon="-6.60555">
        <ele>558</ele>
        <time>2018-07-24T11:00:32.000Z</time>
      </trkpt>
      <trkpt lat="42.572269" lon="-6.60567">
        <ele>557.577457679064</ele>
        <time>2018-07-24T11:00:33.990Z</time>
      </trkpt>
      <trkpt lat="42.57229" lon="-6.605799">
        <ele>557</ele>
        <time>2018-07-24T11:00:36.070Z</time>
      </trkpt>
      <trkpt lat="42.5723" lon="-6.605962">
        <ele>555.411761014971</ele>
        <time>2018-07-24T11:00:38.000Z</time>
      </trkpt>
      <trkpt lat="42.572306" lon="-6.606162">
        <ele>554.4300032</ele>
        <time>2018-07-24T11:00:39.970Z</time>
      </trkpt>
      <trkpt lat="42.572317" lon="-6.60635">
        <ele>554</ele>
        <time>2018-07-24T11:00:41.990Z</time>
      </trkpt>
      <trkpt lat="42.572341" lon="-6.606538">
        <ele>552.549616978035</ele>
        <time>2018-07-24T11:00:43.990Z</time>
      </trkpt>
      <trkpt lat="42.57235" lon="-6.606715">
        <ele>552</ele>
        <time>2018-07-24T11:00:45.990Z</time>
      </trkpt>
      <trkpt lat="42.572375" lon="-6.606898">
        <ele>552</ele>
        <time>2018-07-24T11:00:47.990Z</time>
      </trkpt>
      <trkpt lat="42.572383" lon="-6.60708">
        <ele>550.541985851638</ele>
        <time>2018-07-24T11:00:50.000Z</time>
      </trkpt>
      <trkpt lat="42.572396" lon="-6.607262">
        <ele>550</ele>
        <time>2018-07-24T11:00:51.990Z</time>
      </trkpt>
      <trkpt lat="42.572406" lon="-6.607459">
        <ele>548.3800064</ele>
        <time>2018-07-24T11:00:54.020Z</time>
      </trkpt>
      <trkpt lat="42.572406" lon="-6.607631">
        <ele>548</ele>
        <time>2018-07-24T11:00:55.990Z</time>
      </trkpt>
      <trkpt lat="42.572398" lon="-6.607776">
        <ele>548</ele>
        <time>2018-07-24T11:00:57.990Z</time>
      </trkpt>
      <trkpt lat="42.572424" lon="-6.607899">
        <ele>548</ele>
        <time>2018-07-24T11:01:00.000Z</time>
      </trkpt>
      <trkpt lat="42.572478" lon="-6.60807">
        <ele>548</ele>
        <time>2018-07-24T11:01:02.990Z</time>
      </trkpt>
      <trkpt lat="42.572542" lon="-6.60822">
        <ele>547</ele>
        <time>2018-07-24T11:01:05.990Z</time>
      </trkpt>
      <trkpt lat="42.572587" lon="-6.608376">
        <ele>546</ele>
        <time>2018-07-24T11:01:08.990Z</time>
      </trkpt>
      <trkpt lat="42.572561" lon="-6.608506">
        <ele>545</ele>
        <time>2018-07-24T11:01:13.020Z</time>
      </trkpt>
      <trkpt lat="42.572563" lon="-6.608651">
        <ele>545</ele>
        <time>2018-07-24T11:01:16.990Z</time>
      </trkpt>
      <trkpt lat="42.572578" lon="-6.608787">
        <ele>544.4</ele>
        <time>2018-07-24T11:01:20.000Z</time>
      </trkpt>
      <trkpt lat="42.572626" lon="-6.608932">
        <ele>544</ele>
        <time>2018-07-24T11:01:22.990Z</time>
      </trkpt>
      <trkpt lat="42.572661" lon="-6.609057">
        <ele>544</ele>
        <time>2018-07-24T11:01:25.000Z</time>
      </trkpt>
      <trkpt lat="42.572693" lon="-6.609175">
        <ele>543.421569119566</ele>
        <time>2018-07-24T11:01:26.990Z</time>
      </trkpt>
      <trkpt lat="42.572725" lon="-6.609315">
        <ele>543</ele>
        <time>2018-07-24T11:01:28.990Z</time>
      </trkpt>
      <trkpt lat="42.572772" lon="-6.609452">
        <ele>543</ele>
        <time>2018-07-24T11:01:30.990Z</time>
      </trkpt>
      <trkpt lat="42.572794" lon="-6.609591">
        <ele>542</ele>
        <time>2018-07-24T11:01:32.960Z</time>
      </trkpt>
      <trkpt lat="42.572826" lon="-6.609736">
        <ele>542</ele>
        <time>2018-07-24T11:01:35.000Z</time>
      </trkpt>
      <trkpt lat="42.572868" lon="-6.609876">
        <ele>541.421569119566</ele>
        <time>2018-07-24T11:01:36.990Z</time>
      </trkpt>
      <trkpt lat="42.572896" lon="-6.610017">
        <ele>541</ele>
        <time>2018-07-24T11:01:38.990Z</time>
      </trkpt>
      <trkpt lat="42.572939" lon="-6.610161">
        <ele>541</ele>
        <time>2018-07-24T11:01:40.990Z</time>
      </trkpt>
      <trkpt lat="42.57298" lon="-6.610303">
        <ele>540</ele>
        <time>2018-07-24T11:01:42.990Z</time>
      </trkpt>
      <trkpt lat="42.573042" lon="-6.610433">
        <ele>540</ele>
        <time>2018-07-24T11:01:45.000Z</time>
      </trkpt>
      <trkpt lat="42.573099" lon="-6.610546">
        <ele>540</ele>
        <time>2018-07-24T11:01:46.990Z</time>
      </trkpt>
      <trkpt lat="42.573153" lon="-6.610668">
        <ele>540</ele>
        <time>2018-07-24T11:01:48.990Z</time>
      </trkpt>
      <trkpt lat="42.573201" lon="-6.610782">
        <ele>540</ele>
        <time>2018-07-24T11:01:51.020Z</time>
      </trkpt>
      <trkpt lat="42.573235" lon="-6.610897">
        <ele>539</ele>
        <time>2018-07-24T11:01:52.990Z</time>
      </trkpt>
      <trkpt lat="42.573291" lon="-6.61104">
        <ele>539</ele>
        <time>2018-07-24T11:01:55.990Z</time>
      </trkpt>
      <trkpt lat="42.573372" lon="-6.611177">
        <ele>539</ele>
        <time>2018-07-24T11:01:58.990Z</time>
      </trkpt>
      <trkpt lat="42.573447" lon="-6.6113">
        <ele>539</ele>
        <time>2018-07-24T11:02:01.990Z</time>
      </trkpt>
      <trkpt lat="42.573553" lon="-6.611406">
        <ele>539</ele>
        <time>2018-07-24T11:02:05.000Z</time>
      </trkpt>
      <trkpt lat="42.573634" lon="-6.611464">
        <ele>539</ele>
        <time>2018-07-24T11:02:06.990Z</time>
      </trkpt>
      <trkpt lat="42.573723" lon="-6.611538">
        <ele>538</ele>
        <time>2018-07-24T11:02:08.990Z</time>
      </trkpt>
      <trkpt lat="42.573822" lon="-6.61165">
        <ele>538</ele>
        <time>2018-07-24T11:02:11.000Z</time>
      </trkpt>
      <trkpt lat="42.573913" lon="-6.611747">
        <ele>537</ele>
        <time>2018-07-24T11:02:13.000Z</time>
      </trkpt>
      <trkpt lat="42.573998" lon="-6.611823">
        <ele>537</ele>
        <time>2018-07-24T11:02:15.000Z</time>
      </trkpt>
      <trkpt lat="42.574097" lon="-6.611851">
        <ele>537</ele>
        <time>2018-07-24T11:02:17.000Z</time>
      </trkpt>
      <trkpt lat="42.574187" lon="-6.611881">
        <ele>537</ele>
        <time>2018-07-24T11:02:18.990Z</time>
      </trkpt>
      <trkpt lat="42.574289" lon="-6.611954">
        <ele>537</ele>
        <time>2018-07-24T11:02:21.990Z</time>
      </trkpt>
      <trkpt lat="42.574407" lon="-6.611997">
        <ele>537</ele>
        <time>2018-07-24T11:02:24.990Z</time>
      </trkpt>
      <trkpt lat="42.57452" lon="-6.612064">
        <ele>538</ele>
        <time>2018-07-24T11:02:28.000Z</time>
      </trkpt>
      <trkpt lat="42.574568" lon="-6.612201">
        <ele>537.581638650523</ele>
        <time>2018-07-24T11:02:30.990Z</time>
      </trkpt>
      <trkpt lat="42.574499" lon="-6.612318">
        <ele>538</ele>
        <time>2018-07-24T11:02:33.990Z</time>
      </trkpt>
      <trkpt lat="42.574457" lon="-6.612435">
        <ele>538</ele>
        <time>2018-07-24T11:02:36.990Z</time>
      </trkpt>
      <trkpt lat="42.574451" lon="-6.612575">
        <ele>538</ele>
        <time>2018-07-24T11:02:40.000Z</time>
      </trkpt>
      <trkpt lat="42.574475" lon="-6.612698">
        <ele>538</ele>
        <time>2018-07-24T11:02:42.000Z</time>
      </trkpt>
      <trkpt lat="42.574497" lon="-6.612824">
        <ele>537.4</ele>
        <time>2018-07-24T11:02:44.000Z</time>
      </trkpt>
      <trkpt lat="42.574519" lon="-6.612949">
        <ele>536</ele>
        <time>2018-07-24T11:02:46.000Z</time>
      </trkpt>
      <trkpt lat="42.574546" lon="-6.613072">
        <ele>536.6</ele>
        <time>2018-07-24T11:02:48.000Z</time>
      </trkpt>
      <trkpt lat="42.574564" lon="-6.613204">
        <ele>537</ele>
        <time>2018-07-24T11:02:49.990Z</time>
      </trkpt>
      <trkpt lat="42.574576" lon="-6.613388">
        <ele>537</ele>
        <time>2018-07-24T11:02:52.990Z</time>
      </trkpt>
      <trkpt lat="42.574612" lon="-6.613565">
        <ele>537</ele>
        <time>2018-07-24T11:02:55.990Z</time>
      </trkpt>
      <trkpt lat="42.574651" lon="-6.61374">
        <ele>537</ele>
        <time>2018-07-24T11:02:59.000Z</time>
      </trkpt>
      <trkpt lat="42.574651" lon="-6.613866">
        <ele>537</ele>
        <time>2018-07-24T11:03:00.990Z</time>
      </trkpt>
      <trkpt lat="42.574669" lon="-6.613998">
        <ele>537</ele>
        <time>2018-07-24T11:03:02.990Z</time>
      </trkpt>
      <trkpt lat="42.574681" lon="-6.61413">
        <ele>537</ele>
        <time>2018-07-24T11:03:04.990Z</time>
      </trkpt>
      <trkpt lat="42.574699" lon="-6.614259">
        <ele>537</ele>
        <time>2018-07-24T11:03:07.020Z</time>
      </trkpt>
      <trkpt lat="42.574712" lon="-6.614384">
        <ele>537</ele>
        <time>2018-07-24T11:03:09.000Z</time>
      </trkpt>
      <trkpt lat="42.574726" lon="-6.614519">
        <ele>537</ele>
        <time>2018-07-24T11:03:10.990Z</time>
      </trkpt>
      <trkpt lat="42.574733" lon="-6.614653">
        <ele>537</ele>
        <time>2018-07-24T11:03:12.990Z</time>
      </trkpt>
      <trkpt lat="42.574748" lon="-6.614782">
        <ele>537</ele>
        <time>2018-07-24T11:03:14.990Z</time>
      </trkpt>
      <trkpt lat="42.574772" lon="-6.614918">
        <ele>537</ele>
        <time>2018-07-24T11:03:16.990Z</time>
      </trkpt>
      <trkpt lat="42.574788" lon="-6.615051">
        <ele>537</ele>
        <time>2018-07-24T11:03:19.000Z</time>
      </trkpt>
      <trkpt lat="42.574795" lon="-6.615189">
        <ele>537</ele>
        <time>2018-07-24T11:03:20.990Z</time>
      </trkpt>
      <trkpt lat="42.574805" lon="-6.615322">
        <ele>537</ele>
        <time>2018-07-24T11:03:22.990Z</time>
      </trkpt>
      <trkpt lat="42.574818" lon="-6.615496">
        <ele>536</ele>
        <time>2018-07-24T11:03:26.020Z</time>
      </trkpt>
      <trkpt lat="42.574828" lon="-6.615626">
        <ele>536</ele>
        <time>2018-07-24T11:03:27.990Z</time>
      </trkpt>
      <trkpt lat="42.574839" lon="-6.615758">
        <ele>536</ele>
        <time>2018-07-24T11:03:29.990Z</time>
      </trkpt>
      <trkpt lat="42.574858" lon="-6.615888">
        <ele>536</ele>
        <time>2018-07-24T11:03:31.990Z</time>
      </trkpt>
      <trkpt lat="42.574866" lon="-6.616016">
        <ele>536</ele>
        <time>2018-07-24T11:03:34.000Z</time>
      </trkpt>
      <trkpt lat="42.574872" lon="-6.616188">
        <ele>535.4099968</ele>
        <time>2018-07-24T11:03:36.990Z</time>
      </trkpt>
      <trkpt lat="42.574888" lon="-6.616359">
        <ele>535</ele>
        <time>2018-07-24T11:03:39.990Z</time>
      </trkpt>
      <trkpt lat="42.574909" lon="-6.616518">
        <ele>535</ele>
        <time>2018-07-24T11:03:42.990Z</time>
      </trkpt>
      <trkpt lat="42.574935" lon="-6.616687">
        <ele>535</ele>
        <time>2018-07-24T11:03:45.960Z</time>
      </trkpt>
      <trkpt lat="42.574962" lon="-6.616816">
        <ele>535</ele>
        <time>2018-07-24T11:03:47.990Z</time>
      </trkpt>
      <trkpt lat="42.574987" lon="-6.61694">
        <ele>535</ele>
        <time>2018-07-24T11:03:49.990Z</time>
      </trkpt>
      <trkpt lat="42.575016" lon="-6.617062">
        <ele>535</ele>
        <time>2018-07-24T11:03:51.990Z</time>
      </trkpt>
      <trkpt lat="42.575046" lon="-6.61724">
        <ele>535</ele>
        <time>2018-07-24T11:03:54.990Z</time>
      </trkpt>
      <trkpt lat="42.575066" lon="-6.61737">
        <ele>535</ele>
        <time>2018-07-24T11:03:56.990Z</time>
      </trkpt>
      <trkpt lat="42.575079" lon="-6.617491">
        <ele>535</ele>
        <time>2018-07-24T11:03:59.000Z</time>
      </trkpt>
      <trkpt lat="42.5751" lon="-6.617617">
        <ele>535</ele>
        <time>2018-07-24T11:04:00.990Z</time>
      </trkpt>
      <trkpt lat="42.575119" lon="-6.617737">
        <ele>535</ele>
        <time>2018-07-24T11:04:02.990Z</time>
      </trkpt>
      <trkpt lat="42.575123" lon="-6.617867">
        <ele>534.565890396007</ele>
        <time>2018-07-24T11:04:04.960Z</time>
      </trkpt>
      <trkpt lat="42.575142" lon="-6.618046">
        <ele>534</ele>
        <time>2018-07-24T11:04:07.990Z</time>
      </trkpt>
      <trkpt lat="42.575157" lon="-6.61817">
        <ele>534</ele>
        <time>2018-07-24T11:04:09.990Z</time>
      </trkpt>
      <trkpt lat="42.575173" lon="-6.618306">
        <ele>534</ele>
        <time>2018-07-24T11:04:11.990Z</time>
      </trkpt>
      <trkpt lat="42.575186" lon="-6.61843">
        <ele>534</ele>
        <time>2018-07-24T11:04:14.000Z</time>
      </trkpt>
      <trkpt lat="42.575204" lon="-6.618606">
        <ele>534</ele>
        <time>2018-07-24T11:04:16.990Z</time>
      </trkpt>
      <trkpt lat="42.575228" lon="-6.618771">
        <ele>534</ele>
        <time>2018-07-24T11:04:19.990Z</time>
      </trkpt>
      <trkpt lat="42.575254" lon="-6.618922">
        <ele>534</ele>
        <time>2018-07-24T11:04:23.020Z</time>
      </trkpt>
      <trkpt lat="42.575271" lon="-6.619088">
        <ele>534</ele>
        <time>2018-07-24T11:04:25.990Z</time>
      </trkpt>
      <trkpt lat="42.57529" lon="-6.61921">
        <ele>532.549616978035</ele>
        <time>2018-07-24T11:04:27.990Z</time>
      </trkpt>
      <trkpt lat="42.575304" lon="-6.619343">
        <ele>532.5900032</ele>
        <time>2018-07-24T11:04:29.990Z</time>
      </trkpt>
      <trkpt lat="42.575318" lon="-6.61947">
        <ele>533</ele>
        <time>2018-07-24T11:04:31.990Z</time>
      </trkpt>
      <trkpt lat="42.575335" lon="-6.619647">
        <ele>533</ele>
        <time>2018-07-24T11:04:34.990Z</time>
      </trkpt>
      <trkpt lat="42.575341" lon="-6.619817">
        <ele>533</ele>
        <time>2018-07-24T11:04:37.990Z</time>
      </trkpt>
      <trkpt lat="42.575359" lon="-6.619987">
        <ele>533</ele>
        <time>2018-07-24T11:04:40.990Z</time>
      </trkpt>
      <trkpt lat="42.575357" lon="-6.620161">
        <ele>533</ele>
        <time>2018-07-24T11:04:44.000Z</time>
      </trkpt>
      <trkpt lat="42.575362" lon="-6.620335">
        <ele>532</ele>
        <time>2018-07-24T11:04:46.990Z</time>
      </trkpt>
      <trkpt lat="42.575371" lon="-6.62049">
        <ele>532</ele>
        <time>2018-07-24T11:04:49.990Z</time>
      </trkpt>
      <trkpt lat="42.575381" lon="-6.620659">
        <ele>532</ele>
        <time>2018-07-24T11:04:52.990Z</time>
      </trkpt>
      <trkpt lat="42.575388" lon="-6.620826">
        <ele>532</ele>
        <time>2018-07-24T11:04:55.990Z</time>
      </trkpt>
      <trkpt lat="42.575399" lon="-6.621001">
        <ele>532</ele>
        <time>2018-07-24T11:04:59.000Z</time>
      </trkpt>
      <trkpt lat="42.575398" lon="-6.621131">
        <ele>531.3799936</ele>
        <time>2018-07-24T11:05:01.020Z</time>
      </trkpt>
      <trkpt lat="42.575397" lon="-6.621307">
        <ele>531.458014148362</ele>
        <time>2018-07-24T11:05:04.000Z</time>
      </trkpt>
      <trkpt lat="42.575417" lon="-6.621474">
        <ele>532</ele>
        <time>2018-07-24T11:05:06.990Z</time>
      </trkpt>
      <trkpt lat="42.575428" lon="-6.621598">
        <ele>532</ele>
        <time>2018-07-24T11:05:09.000Z</time>
      </trkpt>
      <trkpt lat="42.575442" lon="-6.621732">
        <ele>531</ele>
        <time>2018-07-24T11:05:10.990Z</time>
      </trkpt>
      <trkpt lat="42.575464" lon="-6.621907">
        <ele>532</ele>
        <time>2018-07-24T11:05:14.000Z</time>
      </trkpt>
      <trkpt lat="42.575476" lon="-6.622031">
        <ele>532</ele>
        <time>2018-07-24T11:05:15.990Z</time>
      </trkpt>
      <trkpt lat="42.575491" lon="-6.622155">
        <ele>532</ele>
        <time>2018-07-24T11:05:17.990Z</time>
      </trkpt>
      <trkpt lat="42.575507" lon="-6.622318">
        <ele>531</ele>
        <time>2018-07-24T11:05:20.960Z</time>
      </trkpt>
      <trkpt lat="42.575519" lon="-6.622481">
        <ele>530</ele>
        <time>2018-07-24T11:05:24.000Z</time>
      </trkpt>
      <trkpt lat="42.575532" lon="-6.622627">
        <ele>530</ele>
        <time>2018-07-24T11:05:26.990Z</time>
      </trkpt>
      <trkpt lat="42.575538" lon="-6.622772">
        <ele>530.40816593088</ele>
        <time>2018-07-24T11:05:30.000Z</time>
      </trkpt>
      <trkpt lat="42.575538" lon="-6.622929">
        <ele>530</ele>
        <time>2018-07-24T11:05:33.000Z</time>
      </trkpt>
      <trkpt lat="42.575541" lon="-6.623088">
        <ele>530</ele>
        <time>2018-07-24T11:05:35.990Z</time>
      </trkpt>
      <trkpt lat="42.575547" lon="-6.623264">
        <ele>530</ele>
        <time>2018-07-24T11:05:39.020Z</time>
      </trkpt>
      <trkpt lat="42.575555" lon="-6.623427">
        <ele>529</ele>
        <time>2018-07-24T11:05:41.990Z</time>
      </trkpt>
      <trkpt lat="42.57557" lon="-6.623585">
        <ele>529</ele>
        <time>2018-07-24T11:05:44.990Z</time>
      </trkpt>
      <trkpt lat="42.575579" lon="-6.623707">
        <ele>529</ele>
        <time>2018-07-24T11:05:46.990Z</time>
      </trkpt>
      <trkpt lat="42.575593" lon="-6.623865">
        <ele>529</ele>
        <time>2018-07-24T11:05:49.990Z</time>
      </trkpt>
      <trkpt lat="42.575612" lon="-6.623992">
        <ele>529</ele>
        <time>2018-07-24T11:05:51.990Z</time>
      </trkpt>
      <trkpt lat="42.57562" lon="-6.624126">
        <ele>529</ele>
        <time>2018-07-24T11:05:53.990Z</time>
      </trkpt>
      <trkpt lat="42.575636" lon="-6.624252">
        <ele>529</ele>
        <time>2018-07-24T11:05:55.990Z</time>
      </trkpt>
      <trkpt lat="42.575643" lon="-6.624382">
        <ele>528</ele>
        <time>2018-07-24T11:05:58.000Z</time>
      </trkpt>
      <trkpt lat="42.575648" lon="-6.624517">
        <ele>528</ele>
        <time>2018-07-24T11:05:59.990Z</time>
      </trkpt>
      <trkpt lat="42.575656" lon="-6.624704">
        <ele>529</ele>
        <time>2018-07-24T11:06:03.000Z</time>
      </trkpt>
      <trkpt lat="42.575676" lon="-6.624825">
        <ele>529</ele>
        <time>2018-07-24T11:06:04.990Z</time>
      </trkpt>
      <trkpt lat="42.575698" lon="-6.624947">
        <ele>529</ele>
        <time>2018-07-24T11:06:06.990Z</time>
      </trkpt>
      <trkpt lat="42.575717" lon="-6.625071">
        <ele>529</ele>
        <time>2018-07-24T11:06:08.990Z</time>
      </trkpt>
      <trkpt lat="42.575748" lon="-6.625239">
        <ele>529</ele>
        <time>2018-07-24T11:06:11.990Z</time>
      </trkpt>
      <trkpt lat="42.575775" lon="-6.625362">
        <ele>529</ele>
        <time>2018-07-24T11:06:13.990Z</time>
      </trkpt>
      <trkpt lat="42.575798" lon="-6.625486">
        <ele>529</ele>
        <time>2018-07-24T11:06:15.990Z</time>
      </trkpt>
      <trkpt lat="42.575827" lon="-6.62561">
        <ele>529</ele>
        <time>2018-07-24T11:06:18.000Z</time>
      </trkpt>
      <trkpt lat="42.575847" lon="-6.625733">
        <ele>529</ele>
        <time>2018-07-24T11:06:19.990Z</time>
      </trkpt>
      <trkpt lat="42.575865" lon="-6.625893">
        <ele>528</ele>
        <time>2018-07-24T11:06:23.000Z</time>
      </trkpt>
      <trkpt lat="42.575883" lon="-6.626062">
        <ele>528</ele>
        <time>2018-07-24T11:06:25.990Z</time>
      </trkpt>
      <trkpt lat="42.57591" lon="-6.626237">
        <ele>528</ele>
        <time>2018-07-24T11:06:28.990Z</time>
      </trkpt>
      <trkpt lat="42.575934" lon="-6.626359">
        <ele>528</ele>
        <time>2018-07-24T11:06:30.990Z</time>
      </trkpt>
      <trkpt lat="42.575955" lon="-6.626537">
        <ele>528</ele>
        <time>2018-07-24T11:06:33.990Z</time>
      </trkpt>
      <trkpt lat="42.575969" lon="-6.626671">
        <ele>528</ele>
        <time>2018-07-24T11:06:35.990Z</time>
      </trkpt>
      <trkpt lat="42.575979" lon="-6.626792">
        <ele>528</ele>
        <time>2018-07-24T11:06:38.000Z</time>
      </trkpt>
      <trkpt lat="42.575994" lon="-6.626972">
        <ele>528</ele>
        <time>2018-07-24T11:06:40.990Z</time>
      </trkpt>
      <trkpt lat="42.576006" lon="-6.627093">
        <ele>528</ele>
        <time>2018-07-24T11:06:43.000Z</time>
      </trkpt>
      <trkpt lat="42.576022" lon="-6.627266">
        <ele>527.549616978035</ele>
        <time>2018-07-24T11:06:45.990Z</time>
      </trkpt>
      <trkpt lat="42.576047" lon="-6.627402">
        <ele>527</ele>
        <time>2018-07-24T11:06:48.000Z</time>
      </trkpt>
      <trkpt lat="42.576072" lon="-6.627534">
        <ele>527</ele>
        <time>2018-07-24T11:06:49.990Z</time>
      </trkpt>
      <trkpt lat="42.576096" lon="-6.627666">
        <ele>526</ele>
        <time>2018-07-24T11:06:51.990Z</time>
      </trkpt>
      <trkpt lat="42.576138" lon="-6.627832">
        <ele>526</ele>
        <time>2018-07-24T11:06:54.990Z</time>
      </trkpt>
      <trkpt lat="42.576173" lon="-6.627944">
        <ele>526</ele>
        <time>2018-07-24T11:06:56.990Z</time>
      </trkpt>
      <trkpt lat="42.576214" lon="-6.628053">
        <ele>526.5900032</ele>
        <time>2018-07-24T11:06:58.990Z</time>
      </trkpt>
      <trkpt lat="42.57628" lon="-6.628206">
        <ele>527</ele>
        <time>2018-07-24T11:07:01.990Z</time>
      </trkpt>
      <trkpt lat="42.576335" lon="-6.628369">
        <ele>527</ele>
        <time>2018-07-24T11:07:04.990Z</time>
      </trkpt>
      <trkpt lat="42.576384" lon="-6.62853">
        <ele>527</ele>
        <time>2018-07-24T11:07:08.000Z</time>
      </trkpt>
      <trkpt lat="42.576432" lon="-6.628639">
        <ele>527</ele>
        <time>2018-07-24T11:07:09.990Z</time>
      </trkpt>
      <trkpt lat="42.576475" lon="-6.628755">
        <ele>526</ele>
        <time>2018-07-24T11:07:11.990Z</time>
      </trkpt>
      <trkpt lat="42.576523" lon="-6.628867">
        <ele>526</ele>
        <time>2018-07-24T11:07:13.990Z</time>
      </trkpt>
      <trkpt lat="42.576562" lon="-6.628979">
        <ele>526</ele>
        <time>2018-07-24T11:07:15.990Z</time>
      </trkpt>
      <trkpt lat="42.576628" lon="-6.629128">
        <ele>526</ele>
        <time>2018-07-24T11:07:18.990Z</time>
      </trkpt>
      <trkpt lat="42.576705" lon="-6.629283">
        <ele>526</ele>
        <time>2018-07-24T11:07:21.990Z</time>
      </trkpt>
      <trkpt lat="42.576763" lon="-6.629379">
        <ele>525.4099968</ele>
        <time>2018-07-24T11:07:23.990Z</time>
      </trkpt>
      <trkpt lat="42.576819" lon="-6.629483">
        <ele>525</ele>
        <time>2018-07-24T11:07:25.990Z</time>
      </trkpt>
      <trkpt lat="42.576882" lon="-6.629585">
        <ele>525</ele>
        <time>2018-07-24T11:07:28.000Z</time>
      </trkpt>
      <trkpt lat="42.576943" lon="-6.629683">
        <ele>525</ele>
        <time>2018-07-24T11:07:29.990Z</time>
      </trkpt>
      <trkpt lat="42.577009" lon="-6.629786">
        <ele>525</ele>
        <time>2018-07-24T11:07:31.990Z</time>
      </trkpt>
      <trkpt lat="42.577068" lon="-6.629882">
        <ele>525</ele>
        <time>2018-07-24T11:07:33.990Z</time>
      </trkpt>
      <trkpt lat="42.57714" lon="-6.629976">
        <ele>525</ele>
        <time>2018-07-24T11:07:35.990Z</time>
      </trkpt>
      <trkpt lat="42.577206" lon="-6.630077">
        <ele>524.4</ele>
        <time>2018-07-24T11:07:38.000Z</time>
      </trkpt>
      <trkpt lat="42.577269" lon="-6.630173">
        <ele>524</ele>
        <time>2018-07-24T11:07:39.990Z</time>
      </trkpt>
      <trkpt lat="42.577336" lon="-6.630269">
        <ele>524</ele>
        <time>2018-07-24T11:07:42.020Z</time>
      </trkpt>
      <trkpt lat="42.577399" lon="-6.63036">
        <ele>524</ele>
        <time>2018-07-24T11:07:43.990Z</time>
      </trkpt>
      <trkpt lat="42.577459" lon="-6.630457">
        <ele>523</ele>
        <time>2018-07-24T11:07:45.990Z</time>
      </trkpt>
      <trkpt lat="42.577516" lon="-6.630556">
        <ele>523</ele>
        <time>2018-07-24T11:07:48.000Z</time>
      </trkpt>
      <trkpt lat="42.577567" lon="-6.630658">
        <ele>523</ele>
        <time>2018-07-24T11:07:49.990Z</time>
      </trkpt>
      <trkpt lat="42.577622" lon="-6.630762">
        <ele>523</ele>
        <time>2018-07-24T11:07:51.990Z</time>
      </trkpt>
      <trkpt lat="42.577681" lon="-6.630874">
        <ele>523</ele>
        <time>2018-07-24T11:07:53.990Z</time>
      </trkpt>
      <trkpt lat="42.577732" lon="-6.630982">
        <ele>522</ele>
        <time>2018-07-24T11:07:55.990Z</time>
      </trkpt>
      <trkpt lat="42.577781" lon="-6.631094">
        <ele>522</ele>
        <time>2018-07-24T11:07:58.000Z</time>
      </trkpt>
      <trkpt lat="42.577829" lon="-6.6312">
        <ele>522</ele>
        <time>2018-07-24T11:07:59.990Z</time>
      </trkpt>
      <trkpt lat="42.577877" lon="-6.631306">
        <ele>522</ele>
        <time>2018-07-24T11:08:01.990Z</time>
      </trkpt>
      <trkpt lat="42.577917" lon="-6.631415">
        <ele>522</ele>
        <time>2018-07-24T11:08:03.990Z</time>
      </trkpt>
      <trkpt lat="42.577958" lon="-6.631537">
        <ele>522</ele>
        <time>2018-07-24T11:08:05.990Z</time>
      </trkpt>
      <trkpt lat="42.577991" lon="-6.631661">
        <ele>522</ele>
        <time>2018-07-24T11:08:08.000Z</time>
      </trkpt>
      <trkpt lat="42.578031" lon="-6.631787">
        <ele>522</ele>
        <time>2018-07-24T11:08:09.990Z</time>
      </trkpt>
      <trkpt lat="42.578062" lon="-6.631908">
        <ele>521.580151254592</ele>
        <time>2018-07-24T11:08:11.950Z</time>
      </trkpt>
      <trkpt lat="42.578095" lon="-6.632036">
        <ele>521</ele>
        <time>2018-07-24T11:08:13.990Z</time>
      </trkpt>
      <trkpt lat="42.578126" lon="-6.632158">
        <ele>521</ele>
        <time>2018-07-24T11:08:15.990Z</time>
      </trkpt>
      <trkpt lat="42.57816" lon="-6.632278">
        <ele>521</ele>
        <time>2018-07-24T11:08:18.000Z</time>
      </trkpt>
      <trkpt lat="42.57816" lon="-6.632463">
        <ele>522</ele>
        <time>2018-07-24T11:08:20.990Z</time>
      </trkpt>
      <trkpt lat="42.57815" lon="-6.6326">
        <ele>521.534882567151</ele>
        <time>2018-07-24T11:08:23.000Z</time>
      </trkpt>
      <trkpt lat="42.578124" lon="-6.632773">
        <ele>521</ele>
        <time>2018-07-24T11:08:25.990Z</time>
      </trkpt>
      <trkpt lat="42.578092" lon="-6.632945">
        <ele>520</ele>
        <time>2018-07-24T11:08:28.990Z</time>
      </trkpt>
      <trkpt lat="42.57806" lon="-6.633071">
        <ele>520</ele>
        <time>2018-07-24T11:08:30.960Z</time>
      </trkpt>
      <trkpt lat="42.578037" lon="-6.633202">
        <ele>520</ele>
        <time>2018-07-24T11:08:32.990Z</time>
      </trkpt>
      <trkpt lat="42.578013" lon="-6.633369">
        <ele>520</ele>
        <time>2018-07-24T11:08:35.990Z</time>
      </trkpt>
      <trkpt lat="42.577976" lon="-6.633503">
        <ele>520</ele>
        <time>2018-07-24T11:08:37.990Z</time>
      </trkpt>
      <trkpt lat="42.577945" lon="-6.633641">
        <ele>519</ele>
        <time>2018-07-24T11:08:39.990Z</time>
      </trkpt>
      <trkpt lat="42.577922" lon="-6.633762">
        <ele>519</ele>
        <time>2018-07-24T11:08:41.990Z</time>
      </trkpt>
      <trkpt lat="42.577885" lon="-6.633887">
        <ele>519</ele>
        <time>2018-07-24T11:08:43.990Z</time>
      </trkpt>
      <trkpt lat="42.577841" lon="-6.634013">
        <ele>519</ele>
        <time>2018-07-24T11:08:45.990Z</time>
      </trkpt>
      <trkpt lat="42.577814" lon="-6.634143">
        <ele>519</ele>
        <time>2018-07-24T11:08:48.000Z</time>
      </trkpt>
      <trkpt lat="42.577784" lon="-6.634262">
        <ele>519</ele>
        <time>2018-07-24T11:08:49.950Z</time>
      </trkpt>
      <trkpt lat="42.577749" lon="-6.634386">
        <ele>519</ele>
        <time>2018-07-24T11:08:51.990Z</time>
      </trkpt>
      <trkpt lat="42.577717" lon="-6.63451">
        <ele>519</ele>
        <time>2018-07-24T11:08:53.990Z</time>
      </trkpt>
      <trkpt lat="42.577673" lon="-6.634635">
        <ele>519</ele>
        <time>2018-07-24T11:08:55.990Z</time>
      </trkpt>
      <trkpt lat="42.577626" lon="-6.634761">
        <ele>519</ele>
        <time>2018-07-24T11:08:58.000Z</time>
      </trkpt>
      <trkpt lat="42.577587" lon="-6.634882">
        <ele>519</ele>
        <time>2018-07-24T11:08:59.990Z</time>
      </trkpt>
      <trkpt lat="42.57754" lon="-6.635011">
        <ele>519</ele>
        <time>2018-07-24T11:09:01.990Z</time>
      </trkpt>
      <trkpt lat="42.577488" lon="-6.635139">
        <ele>519</ele>
        <time>2018-07-24T11:09:03.990Z</time>
      </trkpt>
      <trkpt lat="42.577442" lon="-6.635266">
        <ele>519</ele>
        <time>2018-07-24T11:09:05.990Z</time>
      </trkpt>
      <trkpt lat="42.577392" lon="-6.635386">
        <ele>519</ele>
        <time>2018-07-24T11:09:08.030Z</time>
      </trkpt>
      <trkpt lat="42.577346" lon="-6.63551">
        <ele>519</ele>
        <time>2018-07-24T11:09:09.990Z</time>
      </trkpt>
      <trkpt lat="42.577309" lon="-6.635638">
        <ele>518</ele>
        <time>2018-07-24T11:09:11.990Z</time>
      </trkpt>
      <trkpt lat="42.577278" lon="-6.635764">
        <ele>518</ele>
        <time>2018-07-24T11:09:13.990Z</time>
      </trkpt>
      <trkpt lat="42.577249" lon="-6.63591">
        <ele>518</ele>
        <time>2018-07-24T11:09:15.990Z</time>
      </trkpt>
      <trkpt lat="42.577219" lon="-6.636043">
        <ele>518</ele>
        <time>2018-07-24T11:09:18.000Z</time>
      </trkpt>
      <trkpt lat="42.577188" lon="-6.636162">
        <ele>518</ele>
        <time>2018-07-24T11:09:19.990Z</time>
      </trkpt>
      <trkpt lat="42.577159" lon="-6.636284">
        <ele>518</ele>
        <time>2018-07-24T11:09:21.990Z</time>
      </trkpt>
      <trkpt lat="42.577142" lon="-6.636449">
        <ele>517</ele>
        <time>2018-07-24T11:09:24.990Z</time>
      </trkpt>
      <trkpt lat="42.577138" lon="-6.636599">
        <ele>517</ele>
        <time>2018-07-24T11:09:27.970Z</time>
      </trkpt>
      <trkpt lat="42.577134" lon="-6.636783">
        <ele>518</ele>
        <time>2018-07-24T11:09:30.990Z</time>
      </trkpt>
      <trkpt lat="42.577125" lon="-6.636919">
        <ele>518</ele>
        <time>2018-07-24T11:09:33.000Z</time>
      </trkpt>
      <trkpt lat="42.577121" lon="-6.637071">
        <ele>518</ele>
        <time>2018-07-24T11:09:35.990Z</time>
      </trkpt>
      <trkpt lat="42.577104" lon="-6.637209">
        <ele>517</ele>
        <time>2018-07-24T11:09:38.990Z</time>
      </trkpt>
      <trkpt lat="42.577069" lon="-6.637358">
        <ele>518</ele>
        <time>2018-07-24T11:09:41.990Z</time>
      </trkpt>
      <trkpt lat="42.577036" lon="-6.637478">
        <ele>517</ele>
        <time>2018-07-24T11:09:44.000Z</time>
      </trkpt>
      <trkpt lat="42.577004" lon="-6.637607">
        <ele>517</ele>
        <time>2018-07-24T11:09:46.030Z</time>
      </trkpt>
      <trkpt lat="42.57699" lon="-6.637729">
        <ele>517</ele>
        <time>2018-07-24T11:09:47.990Z</time>
      </trkpt>
      <trkpt lat="42.576952" lon="-6.637903">
        <ele>517</ele>
        <time>2018-07-24T11:09:51.000Z</time>
      </trkpt>
      <trkpt lat="42.57691" lon="-6.638072">
        <ele>517</ele>
        <time>2018-07-24T11:09:53.990Z</time>
      </trkpt>
      <trkpt lat="42.576891" lon="-6.63821">
        <ele>517</ele>
        <time>2018-07-24T11:09:56.000Z</time>
      </trkpt>
      <trkpt lat="42.576889" lon="-6.63839">
        <ele>517</ele>
        <time>2018-07-24T11:09:58.990Z</time>
      </trkpt>
      <trkpt lat="42.576896" lon="-6.638549">
        <ele>517</ele>
        <time>2018-07-24T11:10:01.990Z</time>
      </trkpt>
      <trkpt lat="42.576857" lon="-6.638723">
        <ele>517</ele>
        <time>2018-07-24T11:10:05.020Z</time>
      </trkpt>
      <trkpt lat="42.576854" lon="-6.638896">
        <ele>517</ele>
        <time>2018-07-24T11:10:07.990Z</time>
      </trkpt>
      <trkpt lat="42.576838" lon="-6.639016">
        <ele>517</ele>
        <time>2018-07-24T11:10:09.990Z</time>
      </trkpt>
      <trkpt lat="42.576839" lon="-6.639183">
        <ele>517</ele>
        <time>2018-07-24T11:10:12.990Z</time>
      </trkpt>
      <trkpt lat="42.576836" lon="-6.639321">
        <ele>516.4099968</ele>
        <time>2018-07-24T11:10:14.990Z</time>
      </trkpt>
      <trkpt lat="42.576872" lon="-6.639484">
        <ele>516</ele>
        <time>2018-07-24T11:10:17.990Z</time>
      </trkpt>
      <trkpt lat="42.576896" lon="-6.639659">
        <ele>516</ele>
        <time>2018-07-24T11:10:21.000Z</time>
      </trkpt>
      <trkpt lat="42.57693" lon="-6.639823">
        <ele>515.3800064</ele>
        <time>2018-07-24T11:10:24.020Z</time>
      </trkpt>
      <trkpt lat="42.576996" lon="-6.639954">
        <ele>516</ele>
        <time>2018-07-24T11:10:27.000Z</time>
      </trkpt>
      <trkpt lat="42.577062" lon="-6.640101">
        <ele>516</ele>
        <time>2018-07-24T11:10:29.970Z</time>
      </trkpt>
      <trkpt lat="42.577142" lon="-6.640272">
        <ele>516</ele>
        <time>2018-07-24T11:10:33.000Z</time>
      </trkpt>
      <trkpt lat="42.577177" lon="-6.640426">
        <ele>516</ele>
        <time>2018-07-24T11:10:35.000Z</time>
      </trkpt>
      <trkpt lat="42.577223" lon="-6.640576">
        <ele>516</ele>
        <time>2018-07-24T11:10:37.990Z</time>
      </trkpt>
      <trkpt lat="42.577281" lon="-6.640731">
        <ele>516</ele>
        <time>2018-07-24T11:10:40.990Z</time>
      </trkpt>
      <trkpt lat="42.577321" lon="-6.640846">
        <ele>516</ele>
        <time>2018-07-24T11:10:43.020Z</time>
      </trkpt>
      <trkpt lat="42.577312" lon="-6.641025">
        <ele>516</ele>
        <time>2018-07-24T11:10:45.990Z</time>
      </trkpt>
      <trkpt lat="42.577332" lon="-6.641185">
        <ele>516</ele>
        <time>2018-07-24T11:10:48.990Z</time>
      </trkpt>
      <trkpt lat="42.577354" lon="-6.641348">
        <ele>516</ele>
        <time>2018-07-24T11:10:52.000Z</time>
      </trkpt>
      <trkpt lat="42.577358" lon="-6.641512">
        <ele>516</ele>
        <time>2018-07-24T11:10:54.990Z</time>
      </trkpt>
      <trkpt lat="42.577373" lon="-6.641664">
        <ele>515</ele>
        <time>2018-07-24T11:10:57.990Z</time>
      </trkpt>
      <trkpt lat="42.577383" lon="-6.641827">
        <ele>515</ele>
        <time>2018-07-24T11:11:00.990Z</time>
      </trkpt>
      <trkpt lat="42.577397" lon="-6.641957">
        <ele>514.5900032</ele>
        <time>2018-07-24T11:11:03.990Z</time>
      </trkpt>
      <trkpt lat="42.577414" lon="-6.642105">
        <ele>515</ele>
        <time>2018-07-24T11:11:07.000Z</time>
      </trkpt>
      <trkpt lat="42.57741" lon="-6.642279">
        <ele>515</ele>
        <time>2018-07-24T11:11:09.990Z</time>
      </trkpt>
      <trkpt lat="42.57741" lon="-6.64241">
        <ele>515</ele>
        <time>2018-07-24T11:11:12.000Z</time>
      </trkpt>
      <trkpt lat="42.577356" lon="-6.642552">
        <ele>515</ele>
        <time>2018-07-24T11:11:13.990Z</time>
      </trkpt>
      <trkpt lat="42.577369" lon="-6.642719">
        <ele>515</ele>
        <time>2018-07-24T11:11:17.000Z</time>
      </trkpt>
      <trkpt lat="42.577379" lon="-6.642882">
        <ele>515</ele>
        <time>2018-07-24T11:11:19.990Z</time>
      </trkpt>
      <trkpt lat="42.57737" lon="-6.643042">
        <ele>515</ele>
        <time>2018-07-24T11:11:22.990Z</time>
      </trkpt>
      <trkpt lat="42.57735" lon="-6.643166">
        <ele>515</ele>
        <time>2018-07-24T11:11:24.990Z</time>
      </trkpt>
      <trkpt lat="42.577359" lon="-6.643347">
        <ele>515</ele>
        <time>2018-07-24T11:11:27.990Z</time>
      </trkpt>
      <trkpt lat="42.577357" lon="-6.643478">
        <ele>515</ele>
        <time>2018-07-24T11:11:29.990Z</time>
      </trkpt>
      <trkpt lat="42.577362" lon="-6.643604">
        <ele>515</ele>
        <time>2018-07-24T11:11:32.000Z</time>
      </trkpt>
      <trkpt lat="42.577367" lon="-6.643728">
        <ele>515</ele>
        <time>2018-07-24T11:11:33.990Z</time>
      </trkpt>
      <trkpt lat="42.577374" lon="-6.643907">
        <ele>514</ele>
        <time>2018-07-24T11:11:37.000Z</time>
      </trkpt>
      <trkpt lat="42.577404" lon="-6.644083">
        <ele>514</ele>
        <time>2018-07-24T11:11:40.000Z</time>
      </trkpt>
      <trkpt lat="42.577397" lon="-6.644256">
        <ele>514</ele>
        <time>2018-07-24T11:11:42.990Z</time>
      </trkpt>
      <trkpt lat="42.577397" lon="-6.644414">
        <ele>514</ele>
        <time>2018-07-24T11:11:46.000Z</time>
      </trkpt>
      <trkpt lat="42.577408" lon="-6.644537">
        <ele>514</ele>
        <time>2018-07-24T11:11:48.000Z</time>
      </trkpt>
      <trkpt lat="42.57743" lon="-6.644656">
        <ele>514</ele>
        <time>2018-07-24T11:11:50.000Z</time>
      </trkpt>
      <trkpt lat="42.577464" lon="-6.644822">
        <ele>513</ele>
        <time>2018-07-24T11:11:52.990Z</time>
      </trkpt>
      <trkpt lat="42.57746" lon="-6.644992">
        <ele>513</ele>
        <time>2018-07-24T11:11:55.990Z</time>
      </trkpt>
      <trkpt lat="42.577425" lon="-6.645128">
        <ele>513</ele>
        <time>2018-07-24T11:11:57.990Z</time>
      </trkpt>
      <trkpt lat="42.577422" lon="-6.64531">
        <ele>513</ele>
        <time>2018-07-24T11:12:00.990Z</time>
      </trkpt>
      <trkpt lat="42.577419" lon="-6.645435">
        <ele>513</ele>
        <time>2018-07-24T11:12:02.990Z</time>
      </trkpt>
      <trkpt lat="42.577399" lon="-6.645566">
        <ele>513</ele>
        <time>2018-07-24T11:12:04.990Z</time>
      </trkpt>
      <trkpt lat="42.577368" lon="-6.645697">
        <ele>513</ele>
        <time>2018-07-24T11:12:07.000Z</time>
      </trkpt>
      <trkpt lat="42.577354" lon="-6.645882">
        <ele>513</ele>
        <time>2018-07-24T11:12:09.990Z</time>
      </trkpt>
      <trkpt lat="42.57734" lon="-6.646014">
        <ele>513</ele>
        <time>2018-07-24T11:12:12.000Z</time>
      </trkpt>
      <trkpt lat="42.577315" lon="-6.646141">
        <ele>513</ele>
        <time>2018-07-24T11:12:13.990Z</time>
      </trkpt>
      <trkpt lat="42.577288" lon="-6.64627">
        <ele>513</ele>
        <time>2018-07-24T11:12:15.990Z</time>
      </trkpt>
      <trkpt lat="42.577272" lon="-6.646401">
        <ele>513</ele>
        <time>2018-07-24T11:12:18.020Z</time>
      </trkpt>
      <trkpt lat="42.577249" lon="-6.646541">
        <ele>513</ele>
        <time>2018-07-24T11:12:19.990Z</time>
      </trkpt>
      <trkpt lat="42.577222" lon="-6.646677">
        <ele>513</ele>
        <time>2018-07-24T11:12:22.000Z</time>
      </trkpt>
      <trkpt lat="42.577197" lon="-6.646805">
        <ele>513</ele>
        <time>2018-07-24T11:12:23.990Z</time>
      </trkpt>
      <trkpt lat="42.577189" lon="-6.646933">
        <ele>513</ele>
        <time>2018-07-24T11:12:25.990Z</time>
      </trkpt>
      <trkpt lat="42.577181" lon="-6.647124">
        <ele>513</ele>
        <time>2018-07-24T11:12:28.990Z</time>
      </trkpt>
      <trkpt lat="42.577176" lon="-6.64726">
        <ele>513</ele>
        <time>2018-07-24T11:12:30.990Z</time>
      </trkpt>
      <trkpt lat="42.577162" lon="-6.647439">
        <ele>513</ele>
        <time>2018-07-24T11:12:33.990Z</time>
      </trkpt>
      <trkpt lat="42.577165" lon="-6.647615">
        <ele>512</ele>
        <time>2018-07-24T11:12:37.030Z</time>
      </trkpt>
      <trkpt lat="42.57716" lon="-6.647801">
        <ele>512</ele>
        <time>2018-07-24T11:12:39.990Z</time>
      </trkpt>
      <trkpt lat="42.577163" lon="-6.647924">
        <ele>512</ele>
        <time>2018-07-24T11:12:42.000Z</time>
      </trkpt>
      <trkpt lat="42.577155" lon="-6.648052">
        <ele>512</ele>
        <time>2018-07-24T11:12:43.990Z</time>
      </trkpt>
      <trkpt lat="42.57714" lon="-6.648192">
        <ele>512</ele>
        <time>2018-07-24T11:12:45.990Z</time>
      </trkpt>
      <trkpt lat="42.577135" lon="-6.64832">
        <ele>512</ele>
        <time>2018-07-24T11:12:47.990Z</time>
      </trkpt>
      <trkpt lat="42.57714" lon="-6.64845">
        <ele>512</ele>
        <time>2018-07-24T11:12:49.990Z</time>
      </trkpt>
      <trkpt lat="42.577138" lon="-6.648589">
        <ele>512</ele>
        <time>2018-07-24T11:12:52.000Z</time>
      </trkpt>
      <trkpt lat="42.57713" lon="-6.648726">
        <ele>512</ele>
        <time>2018-07-24T11:12:53.990Z</time>
      </trkpt>
      <trkpt lat="42.577125" lon="-6.648865">
        <ele>512</ele>
        <time>2018-07-24T11:12:56.020Z</time>
      </trkpt>
      <trkpt lat="42.577118" lon="-6.649005">
        <ele>511.542632043738</ele>
        <time>2018-07-24T11:12:57.990Z</time>
      </trkpt>
      <trkpt lat="42.577107" lon="-6.649148">
        <ele>511</ele>
        <time>2018-07-24T11:12:59.990Z</time>
      </trkpt>
      <trkpt lat="42.577094" lon="-6.649294">
        <ele>511.6</ele>
        <time>2018-07-24T11:13:02.000Z</time>
      </trkpt>
      <trkpt lat="42.577083" lon="-6.649434">
        <ele>512</ele>
        <time>2018-07-24T11:13:03.990Z</time>
      </trkpt>
      <trkpt lat="42.577071" lon="-6.649567">
        <ele>511</ele>
        <time>2018-07-24T11:13:05.990Z</time>
      </trkpt>
      <trkpt lat="42.577062" lon="-6.649689">
        <ele>511</ele>
        <time>2018-07-24T11:13:08.000Z</time>
      </trkpt>
      <trkpt lat="42.577035" lon="-6.649848">
        <ele>511</ele>
        <time>2018-07-24T11:13:11.000Z</time>
      </trkpt>
      <trkpt lat="42.577016" lon="-6.650027">
        <ele>511</ele>
        <time>2018-07-24T11:13:14.000Z</time>
      </trkpt>
      <trkpt lat="42.576999" lon="-6.650198">
        <ele>511</ele>
        <time>2018-07-24T11:13:17.000Z</time>
      </trkpt>
      <trkpt lat="42.57699" lon="-6.65037">
        <ele>511</ele>
        <time>2018-07-24T11:13:20.000Z</time>
      </trkpt>
      <trkpt lat="42.576987" lon="-6.650532">
        <ele>511</ele>
        <time>2018-07-24T11:13:23.000Z</time>
      </trkpt>
      <trkpt lat="42.576994" lon="-6.650684">
        <ele>511</ele>
        <time>2018-07-24T11:13:26.000Z</time>
      </trkpt>
      <trkpt lat="42.576996" lon="-6.650853">
        <ele>511</ele>
        <time>2018-07-24T11:13:29.000Z</time>
      </trkpt>
      <trkpt lat="42.576992" lon="-6.65098">
        <ele>510</ele>
        <time>2018-07-24T11:13:31.000Z</time>
      </trkpt>
      <trkpt lat="42.576991" lon="-6.651153">
        <ele>510</ele>
        <time>2018-07-24T11:13:34.000Z</time>
      </trkpt>
      <trkpt lat="42.576993" lon="-6.651325">
        <ele>510</ele>
        <time>2018-07-24T11:13:37.000Z</time>
      </trkpt>
      <trkpt lat="42.577" lon="-6.651506">
        <ele>510</ele>
        <time>2018-07-24T11:13:40.000Z</time>
      </trkpt>
      <trkpt lat="42.577011" lon="-6.651678">
        <ele>510</ele>
        <time>2018-07-24T11:13:43.000Z</time>
      </trkpt>
      <trkpt lat="42.577026" lon="-6.651841">
        <ele>510</ele>
        <time>2018-07-24T11:13:46.000Z</time>
      </trkpt>
      <trkpt lat="42.577036" lon="-6.652021">
        <ele>510</ele>
        <time>2018-07-24T11:13:49.000Z</time>
      </trkpt>
      <trkpt lat="42.577051" lon="-6.65219">
        <ele>510</ele>
        <time>2018-07-24T11:13:52.000Z</time>
      </trkpt>
      <trkpt lat="42.57706" lon="-6.652352">
        <ele>510</ele>
        <time>2018-07-24T11:13:55.000Z</time>
      </trkpt>
      <trkpt lat="42.577077" lon="-6.652528">
        <ele>510</ele>
        <time>2018-07-24T11:13:58.000Z</time>
      </trkpt>
      <trkpt lat="42.577091" lon="-6.652658">
        <ele>510</ele>
        <time>2018-07-24T11:14:00.000Z</time>
      </trkpt>
      <trkpt lat="42.577104" lon="-6.652794">
        <ele>510</ele>
        <time>2018-07-24T11:14:02.000Z</time>
      </trkpt>
      <trkpt lat="42.577123" lon="-6.652927">
        <ele>509.541985851638</ele>
        <time>2018-07-24T11:14:04.000Z</time>
      </trkpt>
      <trkpt lat="42.577139" lon="-6.65306">
        <ele>509</ele>
        <time>2018-07-24T11:14:06.000Z</time>
      </trkpt>
      <trkpt lat="42.577153" lon="-6.653198">
        <ele>509</ele>
        <time>2018-07-24T11:14:08.000Z</time>
      </trkpt>
      <trkpt lat="42.577162" lon="-6.653338">
        <ele>509</ele>
        <time>2018-07-24T11:14:10.000Z</time>
      </trkpt>
      <trkpt lat="42.577165" lon="-6.653476">
        <ele>509</ele>
        <time>2018-07-24T11:14:12.000Z</time>
      </trkpt>
      <trkpt lat="42.577159" lon="-6.653618">
        <ele>509</ele>
        <time>2018-07-24T11:14:14.000Z</time>
      </trkpt>
      <trkpt lat="42.577142" lon="-6.653763">
        <ele>509</ele>
        <time>2018-07-24T11:14:15.990Z</time>
      </trkpt>
      <trkpt lat="42.577122" lon="-6.653908">
        <ele>509</ele>
        <time>2018-07-24T11:14:17.990Z</time>
      </trkpt>
      <trkpt lat="42.5771" lon="-6.65405">
        <ele>509</ele>
        <time>2018-07-24T11:14:19.990Z</time>
      </trkpt>
      <trkpt lat="42.577066" lon="-6.654194">
        <ele>509</ele>
        <time>2018-07-24T11:14:21.990Z</time>
      </trkpt>
      <trkpt lat="42.577035" lon="-6.654342">
        <ele>509</ele>
        <time>2018-07-24T11:14:24.000Z</time>
      </trkpt>
      <trkpt lat="42.577002" lon="-6.65449">
        <ele>508</ele>
        <time>2018-07-24T11:14:25.990Z</time>
      </trkpt>
      <trkpt lat="42.576972" lon="-6.654636">
        <ele>508</ele>
        <time>2018-07-24T11:14:27.990Z</time>
      </trkpt>
      <trkpt lat="42.576952" lon="-6.654778">
        <ele>508</ele>
        <time>2018-07-24T11:14:29.990Z</time>
      </trkpt>
      <trkpt lat="42.576948" lon="-6.654922">
        <ele>508</ele>
        <time>2018-07-24T11:14:31.960Z</time>
      </trkpt>
      <trkpt lat="42.576951" lon="-6.655076">
        <ele>508</ele>
        <time>2018-07-24T11:14:34.000Z</time>
      </trkpt>
      <trkpt lat="42.576954" lon="-6.655225">
        <ele>508</ele>
        <time>2018-07-24T11:14:35.990Z</time>
      </trkpt>
      <trkpt lat="42.576966" lon="-6.655366">
        <ele>508</ele>
        <time>2018-07-24T11:14:37.990Z</time>
      </trkpt>
      <trkpt lat="42.576989" lon="-6.655508">
        <ele>507.4099968</ele>
        <time>2018-07-24T11:14:39.990Z</time>
      </trkpt>
      <trkpt lat="42.577005" lon="-6.655658">
        <ele>507</ele>
        <time>2018-07-24T11:14:41.990Z</time>
      </trkpt>
      <trkpt lat="42.577013" lon="-6.655812">
        <ele>507</ele>
        <time>2018-07-24T11:14:44.000Z</time>
      </trkpt>
      <trkpt lat="42.57702" lon="-6.655962">
        <ele>507</ele>
        <time>2018-07-24T11:14:45.990Z</time>
      </trkpt>
      <trkpt lat="42.577018" lon="-6.656113">
        <ele>506.542632043738</ele>
        <time>2018-07-24T11:14:47.990Z</time>
      </trkpt>
      <trkpt lat="42.57702" lon="-6.656254">
        <ele>506</ele>
        <time>2018-07-24T11:14:50.020Z</time>
      </trkpt>
      <trkpt lat="42.57702" lon="-6.656396">
        <ele>506</ele>
        <time>2018-07-24T11:14:51.990Z</time>
      </trkpt>
      <trkpt lat="42.577012" lon="-6.656536">
        <ele>507</ele>
        <time>2018-07-24T11:14:54.000Z</time>
      </trkpt>
      <trkpt lat="42.577002" lon="-6.656674">
        <ele>507</ele>
        <time>2018-07-24T11:14:55.990Z</time>
      </trkpt>
      <trkpt lat="42.57699" lon="-6.656816">
        <ele>507</ele>
        <time>2018-07-24T11:14:57.990Z</time>
      </trkpt>
      <trkpt lat="42.576964" lon="-6.656956">
        <ele>506</ele>
        <time>2018-07-24T11:14:59.990Z</time>
      </trkpt>
      <trkpt lat="42.576931" lon="-6.657101">
        <ele>506</ele>
        <time>2018-07-24T11:15:01.990Z</time>
      </trkpt>
      <trkpt lat="42.576896" lon="-6.657238">
        <ele>506</ele>
        <time>2018-07-24T11:15:04.000Z</time>
      </trkpt>
      <trkpt lat="42.576851" lon="-6.657358">
        <ele>506</ele>
        <time>2018-07-24T11:15:05.990Z</time>
      </trkpt>
      <trkpt lat="42.576805" lon="-6.657467">
        <ele>506</ele>
        <time>2018-07-24T11:15:07.990Z</time>
      </trkpt>
      <trkpt lat="42.576733" lon="-6.657626">
        <ele>505</ele>
        <time>2018-07-24T11:15:10.990Z</time>
      </trkpt>
      <trkpt lat="42.576682" lon="-6.657735">
        <ele>505</ele>
        <time>2018-07-24T11:15:12.960Z</time>
      </trkpt>
      <trkpt lat="42.576607" lon="-6.657875">
        <ele>506</ele>
        <time>2018-07-24T11:15:15.990Z</time>
      </trkpt>
      <trkpt lat="42.576557" lon="-6.657993">
        <ele>505.415836565027</ele>
        <time>2018-07-24T11:15:17.990Z</time>
      </trkpt>
      <trkpt lat="42.576517" lon="-6.658113">
        <ele>505</ele>
        <time>2018-07-24T11:15:19.990Z</time>
      </trkpt>
      <trkpt lat="42.576473" lon="-6.658278">
        <ele>505</ele>
        <time>2018-07-24T11:15:22.990Z</time>
      </trkpt>
      <trkpt lat="42.576433" lon="-6.658441">
        <ele>505</ele>
        <time>2018-07-24T11:15:25.990Z</time>
      </trkpt>
      <trkpt lat="42.576405" lon="-6.658596">
        <ele>505</ele>
        <time>2018-07-24T11:15:28.970Z</time>
      </trkpt>
      <trkpt lat="42.576379" lon="-6.658763">
        <ele>505</ele>
        <time>2018-07-24T11:15:31.990Z</time>
      </trkpt>
      <trkpt lat="42.576357" lon="-6.658927">
        <ele>504</ele>
        <time>2018-07-24T11:15:34.990Z</time>
      </trkpt>
      <trkpt lat="42.576331" lon="-6.659086">
        <ele>504</ele>
        <time>2018-07-24T11:15:37.990Z</time>
      </trkpt>
      <trkpt lat="42.576302" lon="-6.659243">
        <ele>504</ele>
        <time>2018-07-24T11:15:40.990Z</time>
      </trkpt>
      <trkpt lat="42.576267" lon="-6.659412">
        <ele>504</ele>
        <time>2018-07-24T11:15:44.000Z</time>
      </trkpt>
      <trkpt lat="42.57624" lon="-6.659586">
        <ele>504</ele>
        <time>2018-07-24T11:15:47.020Z</time>
      </trkpt>
      <trkpt lat="42.576202" lon="-6.659718">
        <ele>504</ele>
        <time>2018-07-24T11:15:49.000Z</time>
      </trkpt>
      <trkpt lat="42.576191" lon="-6.659864">
        <ele>504</ele>
        <time>2018-07-24T11:15:51.990Z</time>
      </trkpt>
      <trkpt lat="42.576172" lon="-6.660023">
        <ele>504</ele>
        <time>2018-07-24T11:15:54.990Z</time>
      </trkpt>
      <trkpt lat="42.576142" lon="-6.660193">
        <ele>503</ele>
        <time>2018-07-24T11:15:57.990Z</time>
      </trkpt>
      <trkpt lat="42.576121" lon="-6.660358">
        <ele>503</ele>
        <time>2018-07-24T11:16:00.990Z</time>
      </trkpt>
      <trkpt lat="42.576124" lon="-6.660546">
        <ele>503</ele>
        <time>2018-07-24T11:16:04.000Z</time>
      </trkpt>
      <trkpt lat="42.576115" lon="-6.660683">
        <ele>503</ele>
        <time>2018-07-24T11:16:07.000Z</time>
      </trkpt>
      <trkpt lat="42.576091" lon="-6.660833">
        <ele>503</ele>
        <time>2018-07-24T11:16:09.990Z</time>
      </trkpt>
      <trkpt lat="42.576158" lon="-6.660963">
        <ele>503</ele>
        <time>2018-07-24T11:16:15.000Z</time>
      </trkpt>
      <trkpt lat="42.576248" lon="-6.661056">
        <ele>503</ele>
        <time>2018-07-24T11:16:18.000Z</time>
      </trkpt>
      <trkpt lat="42.576298" lon="-6.661207">
        <ele>503</ele>
        <time>2018-07-24T11:16:21.990Z</time>
      </trkpt>
      <trkpt lat="42.576352" lon="-6.661314">
        <ele>503</ele>
        <time>2018-07-24T11:16:24.000Z</time>
      </trkpt>
      <trkpt lat="42.576412" lon="-6.66147">
        <ele>503</ele>
        <time>2018-07-24T11:16:26.990Z</time>
      </trkpt>
      <trkpt lat="42.576433" lon="-6.661647">
        <ele>503</ele>
        <time>2018-07-24T11:16:29.990Z</time>
      </trkpt>
      <trkpt lat="42.576491" lon="-6.661787">
        <ele>503</ele>
        <time>2018-07-24T11:16:32.990Z</time>
      </trkpt>
      <trkpt lat="42.576565" lon="-6.661926">
        <ele>503</ele>
        <time>2018-07-24T11:16:36.000Z</time>
      </trkpt>
      <trkpt lat="42.576609" lon="-6.662045">
        <ele>503</ele>
        <time>2018-07-24T11:16:37.990Z</time>
      </trkpt>
      <trkpt lat="42.576684" lon="-6.662148">
        <ele>503</ele>
        <time>2018-07-24T11:16:39.990Z</time>
      </trkpt>
      <trkpt lat="42.576728" lon="-6.662325">
        <ele>503</ele>
        <time>2018-07-24T11:16:42.990Z</time>
      </trkpt>
      <trkpt lat="42.57679" lon="-6.662432">
        <ele>503</ele>
        <time>2018-07-24T11:16:44.960Z</time>
      </trkpt>
      <trkpt lat="42.576823" lon="-6.662562">
        <ele>503</ele>
        <time>2018-07-24T11:16:46.990Z</time>
      </trkpt>
      <trkpt lat="42.576859" lon="-6.662691">
        <ele>503</ele>
        <time>2018-07-24T11:16:48.990Z</time>
      </trkpt>
      <trkpt lat="42.576899" lon="-6.662827">
        <ele>502</ele>
        <time>2018-07-24T11:16:51.000Z</time>
      </trkpt>
      <trkpt lat="42.576931" lon="-6.662952">
        <ele>502</ele>
        <time>2018-07-24T11:16:52.990Z</time>
      </trkpt>
      <trkpt lat="42.576971" lon="-6.66308">
        <ele>502</ele>
        <time>2018-07-24T11:16:54.990Z</time>
      </trkpt>
      <trkpt lat="42.577013" lon="-6.663249">
        <ele>502</ele>
        <time>2018-07-24T11:16:57.990Z</time>
      </trkpt>
      <trkpt lat="42.577047" lon="-6.66337">
        <ele>502</ele>
        <time>2018-07-24T11:16:59.990Z</time>
      </trkpt>
      <trkpt lat="42.577084" lon="-6.663487">
        <ele>502</ele>
        <time>2018-07-24T11:17:01.990Z</time>
      </trkpt>
      <trkpt lat="42.577129" lon="-6.663611">
        <ele>502</ele>
        <time>2018-07-24T11:17:03.960Z</time>
      </trkpt>
      <trkpt lat="42.577179" lon="-6.663744">
        <ele>502</ele>
        <time>2018-07-24T11:17:06.000Z</time>
      </trkpt>
      <trkpt lat="42.57721" lon="-6.663881">
        <ele>502</ele>
        <time>2018-07-24T11:17:07.990Z</time>
      </trkpt>
      <trkpt lat="42.57725" lon="-6.664009">
        <ele>502</ele>
        <time>2018-07-24T11:17:09.990Z</time>
      </trkpt>
      <trkpt lat="42.577295" lon="-6.664134">
        <ele>502</ele>
        <time>2018-07-24T11:17:11.990Z</time>
      </trkpt>
      <trkpt lat="42.577338" lon="-6.664253">
        <ele>501.4099968</ele>
        <time>2018-07-24T11:17:13.990Z</time>
      </trkpt>
      <trkpt lat="42.5774" lon="-6.664365">
        <ele>501</ele>
        <time>2018-07-24T11:17:16.000Z</time>
      </trkpt>
      <trkpt lat="42.577443" lon="-6.664487">
        <ele>501</ele>
        <time>2018-07-24T11:17:17.990Z</time>
      </trkpt>
      <trkpt lat="42.577488" lon="-6.664606">
        <ele>501</ele>
        <time>2018-07-24T11:17:19.990Z</time>
      </trkpt>
      <trkpt lat="42.577548" lon="-6.664716">
        <ele>501</ele>
        <time>2018-07-24T11:17:22.020Z</time>
      </trkpt>
      <trkpt lat="42.577585" lon="-6.664833">
        <ele>501.5900032</ele>
        <time>2018-07-24T11:17:23.990Z</time>
      </trkpt>
      <trkpt lat="42.577631" lon="-6.664946">
        <ele>502</ele>
        <time>2018-07-24T11:17:26.000Z</time>
      </trkpt>
      <trkpt lat="42.577691" lon="-6.66511">
        <ele>501</ele>
        <time>2018-07-24T11:17:28.990Z</time>
      </trkpt>
      <trkpt lat="42.577749" lon="-6.665222">
        <ele>501</ele>
        <time>2018-07-24T11:17:31.000Z</time>
      </trkpt>
      <trkpt lat="42.577809" lon="-6.665318">
        <ele>501</ele>
        <time>2018-07-24T11:17:32.990Z</time>
      </trkpt>
      <trkpt lat="42.577839" lon="-6.665447">
        <ele>501</ele>
        <time>2018-07-24T11:17:36.000Z</time>
      </trkpt>
      <trkpt lat="42.577899" lon="-6.665594">
        <ele>501</ele>
        <time>2018-07-24T11:17:38.990Z</time>
      </trkpt>
      <trkpt lat="42.57796" lon="-6.665737">
        <ele>501</ele>
        <time>2018-07-24T11:17:41.960Z</time>
      </trkpt>
      <trkpt lat="42.578012" lon="-6.665892">
        <ele>501</ele>
        <time>2018-07-24T11:17:44.990Z</time>
      </trkpt>
      <trkpt lat="42.578065" lon="-6.666051">
        <ele>501</ele>
        <time>2018-07-24T11:17:47.990Z</time>
      </trkpt>
      <trkpt lat="42.578108" lon="-6.666161">
        <ele>501</ele>
        <time>2018-07-24T11:17:49.990Z</time>
      </trkpt>
      <trkpt lat="42.578152" lon="-6.666283">
        <ele>501</ele>
        <time>2018-07-24T11:17:51.990Z</time>
      </trkpt>
      <trkpt lat="42.578207" lon="-6.666395">
        <ele>501</ele>
        <time>2018-07-24T11:17:53.990Z</time>
      </trkpt>
      <trkpt lat="42.57827" lon="-6.666513">
        <ele>500.4</ele>
        <time>2018-07-24T11:17:56.000Z</time>
      </trkpt>
      <trkpt lat="42.578349" lon="-6.666616">
        <ele>500</ele>
        <time>2018-07-24T11:17:57.990Z</time>
      </trkpt>
      <trkpt lat="42.578426" lon="-6.666717">
        <ele>500</ele>
        <time>2018-07-24T11:18:00.020Z</time>
      </trkpt>
      <trkpt lat="42.578498" lon="-6.666815">
        <ele>500</ele>
        <time>2018-07-24T11:18:01.990Z</time>
      </trkpt>
      <trkpt lat="42.578557" lon="-6.666922">
        <ele>500</ele>
        <time>2018-07-24T11:18:03.990Z</time>
      </trkpt>
      <trkpt lat="42.578642" lon="-6.667058">
        <ele>500.584163434973</ele>
        <time>2018-07-24T11:18:06.990Z</time>
      </trkpt>
      <trkpt lat="42.578739" lon="-6.66709">
        <ele>501</ele>
        <time>2018-07-24T11:18:08.990Z</time>
      </trkpt>
      <trkpt lat="42.578822" lon="-6.667161">
        <ele>501</ele>
        <time>2018-07-24T11:18:11.990Z</time>
      </trkpt>
      <trkpt lat="42.578884" lon="-6.667321">
        <ele>501.4099968</ele>
        <time>2018-07-24T11:18:14.990Z</time>
      </trkpt>
      <trkpt lat="42.578914" lon="-6.667437">
        <ele>501</ele>
        <time>2018-07-24T11:18:16.990Z</time>
      </trkpt>
      <trkpt lat="42.578969" lon="-6.667548">
        <ele>501</ele>
        <time>2018-07-24T11:18:19.020Z</time>
      </trkpt>
      <trkpt lat="42.579065" lon="-6.667679">
        <ele>500</ele>
        <time>2018-07-24T11:18:21.990Z</time>
      </trkpt>
      <trkpt lat="42.579128" lon="-6.667789">
        <ele>500</ele>
        <time>2018-07-24T11:18:23.990Z</time>
      </trkpt>
      <trkpt lat="42.579189" lon="-6.667907">
        <ele>500</ele>
        <time>2018-07-24T11:18:26.000Z</time>
      </trkpt>
      <trkpt lat="42.579246" lon="-6.668018">
        <ele>500</ele>
        <time>2018-07-24T11:18:27.990Z</time>
      </trkpt>
      <trkpt lat="42.579288" lon="-6.66814">
        <ele>500</ele>
        <time>2018-07-24T11:18:29.990Z</time>
      </trkpt>
      <trkpt lat="42.579361" lon="-6.668252">
        <ele>500</ele>
        <time>2018-07-24T11:18:31.990Z</time>
      </trkpt>
      <trkpt lat="42.579445" lon="-6.668367">
        <ele>500</ele>
        <time>2018-07-24T11:18:33.990Z</time>
      </trkpt>
      <trkpt lat="42.579481" lon="-6.668502">
        <ele>500</ele>
        <time>2018-07-24T11:18:36.000Z</time>
      </trkpt>
      <trkpt lat="42.579537" lon="-6.668625">
        <ele>500</ele>
        <time>2018-07-24T11:18:38.020Z</time>
      </trkpt>
      <trkpt lat="42.579598" lon="-6.668735">
        <ele>500</ele>
        <time>2018-07-24T11:18:39.990Z</time>
      </trkpt>
      <trkpt lat="42.579647" lon="-6.668845">
        <ele>500</ele>
        <time>2018-07-24T11:18:41.990Z</time>
      </trkpt>
      <trkpt lat="42.579707" lon="-6.668958">
        <ele>500</ele>
        <time>2018-07-24T11:18:43.990Z</time>
      </trkpt>
      <trkpt lat="42.57977" lon="-6.669092">
        <ele>500</ele>
        <time>2018-07-24T11:18:46.000Z</time>
      </trkpt>
      <trkpt lat="42.579835" lon="-6.669228">
        <ele>500</ele>
        <time>2018-07-24T11:18:48.000Z</time>
      </trkpt>
      <trkpt lat="42.579885" lon="-6.669343">
        <ele>500</ele>
        <time>2018-07-24T11:18:49.990Z</time>
      </trkpt>
      <trkpt lat="42.579933" lon="-6.669463">
        <ele>500</ele>
        <time>2018-07-24T11:18:51.990Z</time>
      </trkpt>
      <trkpt lat="42.579969" lon="-6.669612">
        <ele>500</ele>
        <time>2018-07-24T11:18:54.000Z</time>
      </trkpt>
      <trkpt lat="42.580016" lon="-6.669733">
        <ele>499.577457679064</ele>
        <time>2018-07-24T11:18:55.990Z</time>
      </trkpt>
      <trkpt lat="42.580092" lon="-6.669899">
        <ele>499</ele>
        <time>2018-07-24T11:18:59.100Z</time>
      </trkpt>
      <trkpt lat="42.580141" lon="-6.670029">
        <ele>499</ele>
        <time>2018-07-24T11:19:01.000Z</time>
      </trkpt>
      <trkpt lat="42.580191" lon="-6.670172">
        <ele>499</ele>
        <time>2018-07-24T11:19:02.990Z</time>
      </trkpt>
      <trkpt lat="42.580241" lon="-6.670304">
        <ele>499</ele>
        <time>2018-07-24T11:19:04.990Z</time>
      </trkpt>
      <trkpt lat="42.58029" lon="-6.670407">
        <ele>499</ele>
        <time>2018-07-24T11:19:07.000Z</time>
      </trkpt>
      <trkpt lat="42.580344" lon="-6.670529">
        <ele>499</ele>
        <time>2018-07-24T11:19:08.990Z</time>
      </trkpt>
      <trkpt lat="42.580396" lon="-6.670667">
        <ele>499</ele>
        <time>2018-07-24T11:19:10.990Z</time>
      </trkpt>
      <trkpt lat="42.580452" lon="-6.670784">
        <ele>499</ele>
        <time>2018-07-24T11:19:12.990Z</time>
      </trkpt>
      <trkpt lat="42.580518" lon="-6.670886">
        <ele>499</ele>
        <time>2018-07-24T11:19:14.990Z</time>
      </trkpt>
      <trkpt lat="42.580581" lon="-6.67099">
        <ele>499</ele>
        <time>2018-07-24T11:19:16.970Z</time>
      </trkpt>
      <trkpt lat="42.580625" lon="-6.671114">
        <ele>499</ele>
        <time>2018-07-24T11:19:18.990Z</time>
      </trkpt>
      <trkpt lat="42.580674" lon="-6.671223">
        <ele>499</ele>
        <time>2018-07-24T11:19:20.990Z</time>
      </trkpt>
      <trkpt lat="42.580727" lon="-6.671327">
        <ele>499</ele>
        <time>2018-07-24T11:19:22.990Z</time>
      </trkpt>
      <trkpt lat="42.58081" lon="-6.671469">
        <ele>499</ele>
        <time>2018-07-24T11:19:26.000Z</time>
      </trkpt>
      <trkpt lat="42.580851" lon="-6.671583">
        <ele>499</ele>
        <time>2018-07-24T11:19:28.000Z</time>
      </trkpt>
      <trkpt lat="42.580906" lon="-6.671719">
        <ele>499</ele>
        <time>2018-07-24T11:19:30.990Z</time>
      </trkpt>
      <trkpt lat="42.580958" lon="-6.671864">
        <ele>499</ele>
        <time>2018-07-24T11:19:34.000Z</time>
      </trkpt>
      <trkpt lat="42.581021" lon="-6.671978">
        <ele>499</ele>
        <time>2018-07-24T11:19:36.000Z</time>
      </trkpt>
      <trkpt lat="42.581087" lon="-6.6721">
        <ele>499</ele>
        <time>2018-07-24T11:19:38.990Z</time>
      </trkpt>
      <trkpt lat="42.581145" lon="-6.672227">
        <ele>499</ele>
        <time>2018-07-24T11:19:42.000Z</time>
      </trkpt>
      <trkpt lat="42.581203" lon="-6.672325">
        <ele>499</ele>
        <time>2018-07-24T11:19:45.000Z</time>
      </trkpt>
      <trkpt lat="42.581247" lon="-6.672443">
        <ele>500</ele>
        <time>2018-07-24T11:19:47.990Z</time>
      </trkpt>
      <trkpt lat="42.581337" lon="-6.672517">
        <ele>500</ele>
        <time>2018-07-24T11:19:50.990Z</time>
      </trkpt>
      <trkpt lat="42.581434" lon="-6.672593">
        <ele>500.6199936</ele>
        <time>2018-07-24T11:19:54.020Z</time>
      </trkpt>
      <trkpt lat="42.581516" lon="-6.672667">
        <ele>501</ele>
        <time>2018-07-24T11:19:55.990Z</time>
      </trkpt>
      <trkpt lat="42.581559" lon="-6.672782">
        <ele>501</ele>
        <time>2018-07-24T11:19:58.990Z</time>
      </trkpt>
      <trkpt lat="42.581647" lon="-6.6729">
        <ele>501</ele>
        <time>2018-07-24T11:20:02.000Z</time>
      </trkpt>
      <trkpt lat="42.581768" lon="-6.672945">
        <ele>501</ele>
        <time>2018-07-24T11:20:05.000Z</time>
      </trkpt>
      <trkpt lat="42.581851" lon="-6.673004">
        <ele>501</ele>
        <time>2018-07-24T11:20:06.990Z</time>
      </trkpt>
      <trkpt lat="42.581939" lon="-6.673097">
        <ele>501</ele>
        <time>2018-07-24T11:20:10.000Z</time>
      </trkpt>
      <trkpt lat="42.582049" lon="-6.673192">
        <ele>501</ele>
        <time>2018-07-24T11:20:13.000Z</time>
      </trkpt>
      <trkpt lat="42.582138" lon="-6.67325">
        <ele>501</ele>
        <time>2018-07-24T11:20:15.990Z</time>
      </trkpt>
      <trkpt lat="42.582216" lon="-6.673359">
        <ele>502</ele>
        <time>2018-07-24T11:20:19.000Z</time>
      </trkpt>
      <trkpt lat="42.582323" lon="-6.673463">
        <ele>502</ele>
        <time>2018-07-24T11:20:21.990Z</time>
      </trkpt>
      <trkpt lat="42.582405" lon="-6.673554">
        <ele>502</ele>
        <time>2018-07-24T11:20:24.990Z</time>
      </trkpt>
      <trkpt lat="42.582486" lon="-6.673665">
        <ele>502</ele>
        <time>2018-07-24T11:20:29.000Z</time>
      </trkpt>
      <trkpt lat="42.582573" lon="-6.67376">
        <ele>502</ele>
        <time>2018-07-24T11:20:32.020Z</time>
      </trkpt>
      <trkpt lat="42.582656" lon="-6.673846">
        <ele>502</ele>
        <time>2018-07-24T11:20:34.990Z</time>
      </trkpt>
      <trkpt lat="42.582731" lon="-6.673942">
        <ele>502</ele>
        <time>2018-07-24T11:20:37.990Z</time>
      </trkpt>
      <trkpt lat="42.582811" lon="-6.674032">
        <ele>502</ele>
        <time>2018-07-24T11:20:40.990Z</time>
      </trkpt>
      <trkpt lat="42.582905" lon="-6.674117">
        <ele>503</ele>
        <time>2018-07-24T11:20:44.000Z</time>
      </trkpt>
      <trkpt lat="42.582991" lon="-6.674193">
        <ele>503</ele>
        <time>2018-07-24T11:20:46.990Z</time>
      </trkpt>
      <trkpt lat="42.583075" lon="-6.674287">
        <ele>502.422542320936</ele>
        <time>2018-07-24T11:20:49.990Z</time>
      </trkpt>
      <trkpt lat="42.583176" lon="-6.674378">
        <ele>503</ele>
        <time>2018-07-24T11:20:52.990Z</time>
      </trkpt>
      <trkpt lat="42.583271" lon="-6.674464">
        <ele>503</ele>
        <time>2018-07-24T11:20:55.990Z</time>
      </trkpt>
      <trkpt lat="42.583357" lon="-6.674542">
        <ele>503</ele>
        <time>2018-07-24T11:20:59.000Z</time>
      </trkpt>
      <trkpt lat="42.583462" lon="-6.674587">
        <ele>503</ele>
        <time>2018-07-24T11:21:01.990Z</time>
      </trkpt>
      <trkpt lat="42.583559" lon="-6.674683">
        <ele>503</ele>
        <time>2018-07-24T11:21:04.990Z</time>
      </trkpt>
      <trkpt lat="42.58363" lon="-6.674798">
        <ele>504</ele>
        <time>2018-07-24T11:21:07.990Z</time>
      </trkpt>
      <trkpt lat="42.583697" lon="-6.674892">
        <ele>503</ele>
        <time>2018-07-24T11:21:10.960Z</time>
      </trkpt>
      <trkpt lat="42.583731" lon="-6.675005">
        <ele>504</ele>
        <time>2018-07-24T11:22:11.990Z</time>
      </trkpt>
      <trkpt lat="42.583821" lon="-6.675074">
        <ele>503.4099968</ele>
        <time>2018-07-24T11:22:19.990Z</time>
      </trkpt>
      <trkpt lat="42.583906" lon="-6.675141">
        <ele>503</ele>
        <time>2018-07-24T11:22:24.000Z</time>
      </trkpt>
      <trkpt lat="42.584015" lon="-6.675206">
        <ele>504</ele>
        <time>2018-07-24T11:22:27.990Z</time>
      </trkpt>
      <trkpt lat="42.5841" lon="-6.675255">
        <ele>504</ele>
        <time>2018-07-24T11:22:31.990Z</time>
      </trkpt>
      <trkpt lat="42.584177" lon="-6.675323">
        <ele>504</ele>
        <time>2018-07-24T11:22:37.990Z</time>
      </trkpt>
      <trkpt lat="42.584231" lon="-6.675432">
        <ele>504</ele>
        <time>2018-07-24T11:22:44.000Z</time>
      </trkpt>
      <trkpt lat="42.584227" lon="-6.675566">
        <ele>505</ele>
        <time>2018-07-24T11:22:49.000Z</time>
      </trkpt>
      <trkpt lat="42.584307" lon="-6.675669">
        <ele>505.6</ele>
        <time>2018-07-24T11:22:54.000Z</time>
      </trkpt>
      <trkpt lat="42.584388" lon="-6.675756">
        <ele>506</ele>
        <time>2018-07-24T11:22:57.990Z</time>
      </trkpt>
      <trkpt lat="42.584454" lon="-6.675854">
        <ele>506</ele>
        <time>2018-07-24T11:23:01.990Z</time>
      </trkpt>
      <trkpt lat="42.584542" lon="-6.67594">
        <ele>506</ele>
        <time>2018-07-24T11:23:05.990Z</time>
      </trkpt>
      <trkpt lat="42.584634" lon="-6.676009">
        <ele>507</ele>
        <time>2018-07-24T11:23:10.990Z</time>
      </trkpt>
      <trkpt lat="42.584732" lon="-6.676073">
        <ele>508</ele>
        <time>2018-07-24T11:23:15.990Z</time>
      </trkpt>
      <trkpt lat="42.584807" lon="-6.676141">
        <ele>509</ele>
        <time>2018-07-24T11:23:20.990Z</time>
      </trkpt>
      <trkpt lat="42.584886" lon="-6.676225">
        <ele>510</ele>
        <time>2018-07-24T11:23:24.990Z</time>
      </trkpt>
      <trkpt lat="42.584962" lon="-6.676315">
        <ele>510</ele>
        <time>2018-07-24T11:23:29.000Z</time>
      </trkpt>
      <trkpt lat="42.585038" lon="-6.676402">
        <ele>510.450383021965</ele>
        <time>2018-07-24T11:23:32.990Z</time>
      </trkpt>
      <trkpt lat="42.585154" lon="-6.676574">
        <ele>511</ele>
        <time>2018-07-24T11:23:39.000Z</time>
      </trkpt>
      <trkpt lat="42.585246" lon="-6.676666">
        <ele>512</ele>
        <time>2018-07-24T11:23:42.000Z</time>
      </trkpt>
      <trkpt lat="42.58534" lon="-6.676744">
        <ele>513</ele>
        <time>2018-07-24T11:23:46.000Z</time>
      </trkpt>
      <trkpt lat="42.585424" lon="-6.676817">
        <ele>513</ele>
        <time>2018-07-24T11:23:50.000Z</time>
      </trkpt>
      <trkpt lat="42.58548" lon="-6.676926">
        <ele>514.5900032</ele>
        <time>2018-07-24T11:23:55.990Z</time>
      </trkpt>
      <trkpt lat="42.585575" lon="-6.676972">
        <ele>514</ele>
        <time>2018-07-24T11:24:01.020Z</time>
      </trkpt>
      <trkpt lat="42.585664" lon="-6.677041">
        <ele>515</ele>
        <time>2018-07-24T11:24:05.990Z</time>
      </trkpt>
      <trkpt lat="42.585751" lon="-6.67712">
        <ele>515.5900032</ele>
        <time>2018-07-24T11:24:10.990Z</time>
      </trkpt>
      <trkpt lat="42.585835" lon="-6.677187">
        <ele>516</ele>
        <time>2018-07-24T11:24:15.990Z</time>
      </trkpt>
      <trkpt lat="42.585912" lon="-6.677272">
        <ele>517</ele>
        <time>2018-07-24T11:24:20.030Z</time>
      </trkpt>
      <trkpt lat="42.585986" lon="-6.677342">
        <ele>518</ele>
        <time>2018-07-24T11:24:23.990Z</time>
      </trkpt>
      <trkpt lat="42.586056" lon="-6.677421">
        <ele>518.5900032</ele>
        <time>2018-07-24T11:24:27.990Z</time>
      </trkpt>
      <trkpt lat="42.586122" lon="-6.67753">
        <ele>519</ele>
        <time>2018-07-24T11:24:32.990Z</time>
      </trkpt>
      <trkpt lat="42.586185" lon="-6.677627">
        <ele>520</ele>
        <time>2018-07-24T11:24:36.990Z</time>
      </trkpt>
      <trkpt lat="42.586257" lon="-6.677732">
        <ele>520.4099968</ele>
        <time>2018-07-24T11:24:41.990Z</time>
      </trkpt>
      <trkpt lat="42.58634" lon="-6.677827">
        <ele>520.584163434973</ele>
        <time>2018-07-24T11:24:46.990Z</time>
      </trkpt>
      <trkpt lat="42.586422" lon="-6.67793">
        <ele>521</ele>
        <time>2018-07-24T11:24:51.990Z</time>
      </trkpt>
      <trkpt lat="42.586499" lon="-6.678022">
        <ele>522</ele>
        <time>2018-07-24T11:24:56.990Z</time>
      </trkpt>
      <trkpt lat="42.586564" lon="-6.678109">
        <ele>522</ele>
        <time>2018-07-24T11:25:01.990Z</time>
      </trkpt>
      <trkpt lat="42.586624" lon="-6.678208">
        <ele>523</ele>
        <time>2018-07-24T11:25:06.990Z</time>
      </trkpt>
      <trkpt lat="42.586699" lon="-6.678304">
        <ele>523</ele>
        <time>2018-07-24T11:25:11.990Z</time>
      </trkpt>
      <trkpt lat="42.586773" lon="-6.678391">
        <ele>523</ele>
        <time>2018-07-24T11:25:15.990Z</time>
      </trkpt>
      <trkpt lat="42.586853" lon="-6.678453">
        <ele>523</ele>
        <time>2018-07-24T11:25:18.990Z</time>
      </trkpt>
      <trkpt lat="42.586916" lon="-6.678541">
        <ele>523</ele>
        <time>2018-07-24T11:25:22.990Z</time>
      </trkpt>
      <trkpt lat="42.586987" lon="-6.678623">
        <ele>523</ele>
        <time>2018-07-24T11:25:26.990Z</time>
      </trkpt>
      <trkpt lat="42.58705" lon="-6.678721">
        <ele>523</ele>
        <time>2018-07-24T11:25:30.990Z</time>
      </trkpt>
      <trkpt lat="42.587126" lon="-6.678829">
        <ele>523.584163434973</ele>
        <time>2018-07-24T11:25:35.990Z</time>
      </trkpt>
      <trkpt lat="42.587199" lon="-6.678902">
        <ele>524</ele>
        <time>2018-07-24T11:25:39.970Z</time>
      </trkpt>
      <trkpt lat="42.587258" lon="-6.679">
        <ele>524</ele>
        <time>2018-07-24T11:25:43.990Z</time>
      </trkpt>
      <trkpt lat="42.587294" lon="-6.679123">
        <ele>525</ele>
        <time>2018-07-24T11:25:47.990Z</time>
      </trkpt>
      <trkpt lat="42.587322" lon="-6.679262">
        <ele>525</ele>
        <time>2018-07-24T11:25:52.990Z</time>
      </trkpt>
      <trkpt lat="42.587346" lon="-6.679389">
        <ele>526</ele>
        <time>2018-07-24T11:25:57.990Z</time>
      </trkpt>
      <trkpt lat="42.58732" lon="-6.679537">
        <ele>526.5900032</ele>
        <time>2018-07-24T11:26:02.990Z</time>
      </trkpt>
      <trkpt lat="42.587266" lon="-6.67965">
        <ele>527</ele>
        <time>2018-07-24T11:26:07.990Z</time>
      </trkpt>
      <trkpt lat="42.587207" lon="-6.67975">
        <ele>527</ele>
        <time>2018-07-24T11:26:11.990Z</time>
      </trkpt>
      <trkpt lat="42.587156" lon="-6.679853">
        <ele>528</ele>
        <time>2018-07-24T11:26:15.990Z</time>
      </trkpt>
      <trkpt lat="42.587101" lon="-6.679998">
        <ele>529</ele>
        <time>2018-07-24T11:26:20.000Z</time>
      </trkpt>
      <trkpt lat="42.587062" lon="-6.680116">
        <ele>529</ele>
        <time>2018-07-24T11:26:22.990Z</time>
      </trkpt>
      <trkpt lat="42.587032" lon="-6.68025">
        <ele>529</ele>
        <time>2018-07-24T11:26:25.990Z</time>
      </trkpt>
      <trkpt lat="42.587012" lon="-6.680392">
        <ele>529</ele>
        <time>2018-07-24T11:26:28.990Z</time>
      </trkpt>
      <trkpt lat="42.586996" lon="-6.680542">
        <ele>529</ele>
        <time>2018-07-24T11:26:33.020Z</time>
      </trkpt>
      <trkpt lat="42.587007" lon="-6.68067">
        <ele>528</ele>
        <time>2018-07-24T11:26:36.990Z</time>
      </trkpt>
      <trkpt lat="42.587036" lon="-6.680794">
        <ele>528.6</ele>
        <time>2018-07-24T11:26:40.000Z</time>
      </trkpt>
      <trkpt lat="42.58708" lon="-6.680921">
        <ele>529</ele>
        <time>2018-07-24T11:26:42.990Z</time>
      </trkpt>
      <trkpt lat="42.58712" lon="-6.68104">
        <ele>529</ele>
        <time>2018-07-24T11:26:45.990Z</time>
      </trkpt>
      <trkpt lat="42.587153" lon="-6.681157">
        <ele>529</ele>
        <time>2018-07-24T11:26:48.990Z</time>
      </trkpt>
      <trkpt lat="42.587201" lon="-6.681268">
        <ele>529</ele>
        <time>2018-07-24T11:26:52.020Z</time>
      </trkpt>
      <trkpt lat="42.587258" lon="-6.681396">
        <ele>528</ele>
        <time>2018-07-24T11:26:55.000Z</time>
      </trkpt>
      <trkpt lat="42.587304" lon="-6.681508">
        <ele>528</ele>
        <time>2018-07-24T11:26:56.990Z</time>
      </trkpt>
      <trkpt lat="42.587354" lon="-6.681632">
        <ele>527.4099968</ele>
        <time>2018-07-24T11:26:58.990Z</time>
      </trkpt>
      <trkpt lat="42.587416" lon="-6.681754">
        <ele>527</ele>
        <time>2018-07-24T11:27:00.990Z</time>
      </trkpt>
      <trkpt lat="42.587493" lon="-6.681873">
        <ele>527</ele>
        <time>2018-07-24T11:27:02.990Z</time>
      </trkpt>
      <trkpt lat="42.58757" lon="-6.681985">
        <ele>526</ele>
        <time>2018-07-24T11:27:05.000Z</time>
      </trkpt>
      <trkpt lat="42.587648" lon="-6.682088">
        <ele>526</ele>
        <time>2018-07-24T11:27:06.990Z</time>
      </trkpt>
      <trkpt lat="42.587722" lon="-6.682198">
        <ele>526</ele>
        <time>2018-07-24T11:27:08.990Z</time>
      </trkpt>
      <trkpt lat="42.587794" lon="-6.682308">
        <ele>526</ele>
        <time>2018-07-24T11:27:11.020Z</time>
      </trkpt>
      <trkpt lat="42.587855" lon="-6.682425">
        <ele>525</ele>
        <time>2018-07-24T11:27:12.990Z</time>
      </trkpt>
      <trkpt lat="42.587917" lon="-6.682545">
        <ele>525</ele>
        <time>2018-07-24T11:27:15.000Z</time>
      </trkpt>
      <trkpt lat="42.587974" lon="-6.682673">
        <ele>524.415836565027</ele>
        <time>2018-07-24T11:27:16.990Z</time>
      </trkpt>
      <trkpt lat="42.58803" lon="-6.682802">
        <ele>524</ele>
        <time>2018-07-24T11:27:18.990Z</time>
      </trkpt>
      <trkpt lat="42.588083" lon="-6.682939">
        <ele>524</ele>
        <time>2018-07-24T11:27:20.990Z</time>
      </trkpt>
      <trkpt lat="42.588147" lon="-6.683076">
        <ele>523.553027878788</ele>
        <time>2018-07-24T11:27:22.990Z</time>
      </trkpt>
      <trkpt lat="42.588211" lon="-6.683216">
        <ele>522</ele>
        <time>2018-07-24T11:27:25.000Z</time>
      </trkpt>
      <trkpt lat="42.588269" lon="-6.683368">
        <ele>522</ele>
        <time>2018-07-24T11:27:26.990Z</time>
      </trkpt>
      <trkpt lat="42.588306" lon="-6.683538">
        <ele>522</ele>
        <time>2018-07-24T11:27:28.990Z</time>
      </trkpt>
      <trkpt lat="42.588328" lon="-6.683706">
        <ele>521</ele>
        <time>2018-07-24T11:27:30.990Z</time>
      </trkpt>
      <trkpt lat="42.588331" lon="-6.683875">
        <ele>521</ele>
        <time>2018-07-24T11:27:32.990Z</time>
      </trkpt>
      <trkpt lat="42.588332" lon="-6.684033">
        <ele>521</ele>
        <time>2018-07-24T11:27:35.000Z</time>
      </trkpt>
      <trkpt lat="42.588321" lon="-6.684185">
        <ele>521</ele>
        <time>2018-07-24T11:27:36.990Z</time>
      </trkpt>
      <trkpt lat="42.588315" lon="-6.684328">
        <ele>521</ele>
        <time>2018-07-24T11:27:38.990Z</time>
      </trkpt>
      <trkpt lat="42.588319" lon="-6.684451">
        <ele>521</ele>
        <time>2018-07-24T11:27:40.990Z</time>
      </trkpt>
      <trkpt lat="42.588314" lon="-6.68461">
        <ele>521</ele>
        <time>2018-07-24T11:27:43.990Z</time>
      </trkpt>
      <trkpt lat="42.588317" lon="-6.684742">
        <ele>521</ele>
        <time>2018-07-24T11:27:46.990Z</time>
      </trkpt>
      <trkpt lat="42.588344" lon="-6.684873">
        <ele>521</ele>
        <time>2018-07-24T11:27:50.990Z</time>
      </trkpt>
      <trkpt lat="42.588367" lon="-6.685016">
        <ele>521</ele>
        <time>2018-07-24T11:27:56.990Z</time>
      </trkpt>
      <trkpt lat="42.588375" lon="-6.685174">
        <ele>521</ele>
        <time>2018-07-24T11:28:00.990Z</time>
      </trkpt>
      <trkpt lat="42.588388" lon="-6.685302">
        <ele>521</ele>
        <time>2018-07-24T11:28:03.990Z</time>
      </trkpt>
      <trkpt lat="42.588408" lon="-6.685433">
        <ele>520</ele>
        <time>2018-07-24T11:28:06.990Z</time>
      </trkpt>
      <trkpt lat="42.588435" lon="-6.685582">
        <ele>520</ele>
        <time>2018-07-24T11:28:10.000Z</time>
      </trkpt>
      <trkpt lat="42.588464" lon="-6.685729">
        <ele>520</ele>
        <time>2018-07-24T11:28:12.990Z</time>
      </trkpt>
      <trkpt lat="42.588494" lon="-6.685879">
        <ele>520</ele>
        <time>2018-07-24T11:28:15.990Z</time>
      </trkpt>
      <trkpt lat="42.588523" lon="-6.686052">
        <ele>519.4099968</ele>
        <time>2018-07-24T11:28:18.990Z</time>
      </trkpt>
      <trkpt lat="42.588553" lon="-6.686174">
        <ele>518.4099968</ele>
        <time>2018-07-24T11:28:20.990Z</time>
      </trkpt>
      <trkpt lat="42.588587" lon="-6.686312">
        <ele>518</ele>
        <time>2018-07-24T11:28:22.990Z</time>
      </trkpt>
      <trkpt lat="42.588633" lon="-6.686484">
        <ele>517.625</ele>
        <time>2018-07-24T11:28:25.000Z</time>
      </trkpt>
      <trkpt lat="42.588689" lon="-6.686678">
        <ele>516</ele>
        <time>2018-07-24T11:28:27.020Z</time>
      </trkpt>
      <trkpt lat="42.588742" lon="-6.686894">
        <ele>514.4099968</ele>
        <time>2018-07-24T11:28:28.990Z</time>
      </trkpt>
      <trkpt lat="42.588769" lon="-6.687016">
        <ele>513.541985851638</ele>
        <time>2018-07-24T11:28:30.000Z</time>
      </trkpt>
      <trkpt lat="42.588802" lon="-6.687131">
        <ele>513</ele>
        <time>2018-07-24T11:28:30.990Z</time>
      </trkpt>
      <trkpt lat="42.588836" lon="-6.687249">
        <ele>512.4099968</ele>
        <time>2018-07-24T11:28:31.990Z</time>
      </trkpt>
      <trkpt lat="42.588869" lon="-6.687363">
        <ele>511.4099968</ele>
        <time>2018-07-24T11:28:32.990Z</time>
      </trkpt>
      <trkpt lat="42.588932" lon="-6.687581">
        <ele>510</ele>
        <time>2018-07-24T11:28:35.000Z</time>
      </trkpt>
      <trkpt lat="42.58899" lon="-6.687797">
        <ele>509</ele>
        <time>2018-07-24T11:28:36.990Z</time>
      </trkpt>
      <trkpt lat="42.589043" lon="-6.687999">
        <ele>508.4099968</ele>
        <time>2018-07-24T11:28:38.990Z</time>
      </trkpt>
      <trkpt lat="42.589086" lon="-6.688189">
        <ele>507.4099968</ele>
        <time>2018-07-24T11:28:40.990Z</time>
      </trkpt>
      <trkpt lat="42.58915" lon="-6.688357">
        <ele>507</ele>
        <time>2018-07-24T11:28:42.990Z</time>
      </trkpt>
      <trkpt lat="42.589222" lon="-6.688513">
        <ele>507</ele>
        <time>2018-07-24T11:28:45.000Z</time>
      </trkpt>
      <trkpt lat="42.589294" lon="-6.688665">
        <ele>506</ele>
        <time>2018-07-24T11:28:46.960Z</time>
      </trkpt>
      <trkpt lat="42.589365" lon="-6.688844">
        <ele>506</ele>
        <time>2018-07-24T11:28:48.990Z</time>
      </trkpt>
      <trkpt lat="42.589414" lon="-6.689044">
        <ele>505.4099968</ele>
        <time>2018-07-24T11:28:50.990Z</time>
      </trkpt>
      <trkpt lat="42.589427" lon="-6.689273">
        <ele>503.4099968</ele>
        <time>2018-07-24T11:28:52.990Z</time>
      </trkpt>
      <trkpt lat="42.589405" lon="-6.689513">
        <ele>502.4</ele>
        <time>2018-07-24T11:28:55.000Z</time>
      </trkpt>
      <trkpt lat="42.589391" lon="-6.689634">
        <ele>502</ele>
        <time>2018-07-24T11:28:55.990Z</time>
      </trkpt>
      <trkpt lat="42.58938" lon="-6.689759">
        <ele>501.611932599725</ele>
        <time>2018-07-24T11:28:56.990Z</time>
      </trkpt>
      <trkpt lat="42.589374" lon="-6.689885">
        <ele>500.4099968</ele>
        <time>2018-07-24T11:28:57.990Z</time>
      </trkpt>
      <trkpt lat="42.589377" lon="-6.690011">
        <ele>499.4099968</ele>
        <time>2018-07-24T11:28:58.990Z</time>
      </trkpt>
      <trkpt lat="42.589395" lon="-6.690132">
        <ele>499</ele>
        <time>2018-07-24T11:29:00.000Z</time>
      </trkpt>
      <trkpt lat="42.589439" lon="-6.690362">
        <ele>499</ele>
        <time>2018-07-24T11:29:01.990Z</time>
      </trkpt>
      <trkpt lat="42.589481" lon="-6.690583">
        <ele>499</ele>
        <time>2018-07-24T11:29:03.990Z</time>
      </trkpt>
      <trkpt lat="42.58952" lon="-6.690781">
        <ele>498</ele>
        <time>2018-07-24T11:29:05.960Z</time>
      </trkpt>
      <trkpt lat="42.589567" lon="-6.690982">
        <ele>498</ele>
        <time>2018-07-24T11:29:07.990Z</time>
      </trkpt>
      <trkpt lat="42.589614" lon="-6.691175">
        <ele>498</ele>
        <time>2018-07-24T11:29:10.000Z</time>
      </trkpt>
      <trkpt lat="42.589655" lon="-6.691349">
        <ele>498</ele>
        <time>2018-07-24T11:29:11.990Z</time>
      </trkpt>
      <trkpt lat="42.58969" lon="-6.691503">
        <ele>498</ele>
        <time>2018-07-24T11:29:13.990Z</time>
      </trkpt>
      <trkpt lat="42.589752" lon="-6.691609">
        <ele>498</ele>
        <time>2018-07-24T11:29:15.990Z</time>
      </trkpt>
      <trkpt lat="42.589861" lon="-6.6917">
        <ele>498</ele>
        <time>2018-07-24T11:29:18.990Z</time>
      </trkpt>
      <trkpt lat="42.589944" lon="-6.691775">
        <ele>498</ele>
        <time>2018-07-24T11:29:21.990Z</time>
      </trkpt>
      <trkpt lat="42.589996" lon="-6.691906">
        <ele>498</ele>
        <time>2018-07-24T11:29:25.990Z</time>
      </trkpt>
      <trkpt lat="42.590057" lon="-6.691999">
        <ele>498</ele>
        <time>2018-07-24T11:29:28.000Z</time>
      </trkpt>
      <trkpt lat="42.590131" lon="-6.692116">
        <ele>498</ele>
        <time>2018-07-24T11:29:30.000Z</time>
      </trkpt>
      <trkpt lat="42.590224" lon="-6.692216">
        <ele>498</ele>
        <time>2018-07-24T11:29:31.990Z</time>
      </trkpt>
      <trkpt lat="42.590311" lon="-6.692365">
        <ele>498</ele>
        <time>2018-07-24T11:29:36.000Z</time>
      </trkpt>
      <trkpt lat="42.590406" lon="-6.692462">
        <ele>498</ele>
        <time>2018-07-24T11:29:40.000Z</time>
      </trkpt>
      <trkpt lat="42.590493" lon="-6.692507">
        <ele>498</ele>
        <time>2018-07-24T11:29:43.000Z</time>
      </trkpt>
      <trkpt lat="42.590578" lon="-6.692628">
        <ele>498</ele>
        <time>2018-07-24T11:29:46.000Z</time>
      </trkpt>
      <trkpt lat="42.590552" lon="-6.69276">
        <ele>498.5900032</ele>
        <time>2018-07-24T11:29:47.990Z</time>
      </trkpt>
      <trkpt lat="42.590602" lon="-6.692864">
        <ele>499</ele>
        <time>2018-07-24T11:29:51.000Z</time>
      </trkpt>
      <trkpt lat="42.59067" lon="-6.692978">
        <ele>499</ele>
        <time>2018-07-24T11:29:54.000Z</time>
      </trkpt>
      <trkpt lat="42.590717" lon="-6.693083">
        <ele>499</ele>
        <time>2018-07-24T11:29:56.960Z</time>
      </trkpt>
      <trkpt lat="42.590794" lon="-6.693262">
        <ele>499</ele>
        <time>2018-07-24T11:30:01.000Z</time>
      </trkpt>
      <trkpt lat="42.590864" lon="-6.693361">
        <ele>499</ele>
        <time>2018-07-24T11:30:03.000Z</time>
      </trkpt>
      <trkpt lat="42.590897" lon="-6.693502">
        <ele>499</ele>
        <time>2018-07-24T11:30:05.990Z</time>
      </trkpt>
      <trkpt lat="42.590942" lon="-6.693628">
        <ele>499</ele>
        <time>2018-07-24T11:30:07.990Z</time>
      </trkpt>
      <trkpt lat="42.590992" lon="-6.693756">
        <ele>499</ele>
        <time>2018-07-24T11:30:10.000Z</time>
      </trkpt>
      <trkpt lat="42.591042" lon="-6.693868">
        <ele>499</ele>
        <time>2018-07-24T11:30:12.020Z</time>
      </trkpt>
      <trkpt lat="42.591066" lon="-6.69399">
        <ele>499</ele>
        <time>2018-07-24T11:30:13.990Z</time>
      </trkpt>
      <trkpt lat="42.591128" lon="-6.694152">
        <ele>499</ele>
        <time>2018-07-24T11:30:16.990Z</time>
      </trkpt>
      <trkpt lat="42.591186" lon="-6.694303">
        <ele>499</ele>
        <time>2018-07-24T11:30:20.000Z</time>
      </trkpt>
      <trkpt lat="42.591239" lon="-6.69446">
        <ele>499</ele>
        <time>2018-07-24T11:30:22.990Z</time>
      </trkpt>
      <trkpt lat="42.591284" lon="-6.694613">
        <ele>499</ele>
        <time>2018-07-24T11:30:25.990Z</time>
      </trkpt>
      <trkpt lat="42.591335" lon="-6.694763">
        <ele>499</ele>
        <time>2018-07-24T11:30:28.990Z</time>
      </trkpt>
      <trkpt lat="42.591386" lon="-6.694924">
        <ele>499</ele>
        <time>2018-07-24T11:30:31.990Z</time>
      </trkpt>
      <trkpt lat="42.591425" lon="-6.69509">
        <ele>499</ele>
        <time>2018-07-24T11:30:35.000Z</time>
      </trkpt>
      <trkpt lat="42.591461" lon="-6.695205">
        <ele>499</ele>
        <time>2018-07-24T11:30:36.990Z</time>
      </trkpt>
      <trkpt lat="42.59149" lon="-6.695328">
        <ele>499</ele>
        <time>2018-07-24T11:30:38.990Z</time>
      </trkpt>
      <trkpt lat="42.591524" lon="-6.695456">
        <ele>499</ele>
        <time>2018-07-24T11:30:40.960Z</time>
      </trkpt>
      <trkpt lat="42.591552" lon="-6.695586">
        <ele>499</ele>
        <time>2018-07-24T11:30:42.990Z</time>
      </trkpt>
      <trkpt lat="42.591582" lon="-6.695704">
        <ele>499</ele>
        <time>2018-07-24T11:30:45.000Z</time>
      </trkpt>
      <trkpt lat="42.591613" lon="-6.69582">
        <ele>499</ele>
        <time>2018-07-24T11:30:46.990Z</time>
      </trkpt>
      <trkpt lat="42.591665" lon="-6.695984">
        <ele>499</ele>
        <time>2018-07-24T11:30:50.000Z</time>
      </trkpt>
      <trkpt lat="42.591714" lon="-6.696127">
        <ele>499</ele>
        <time>2018-07-24T11:30:52.990Z</time>
      </trkpt>
      <trkpt lat="42.591768" lon="-6.696285">
        <ele>499</ele>
        <time>2018-07-24T11:30:55.990Z</time>
      </trkpt>
      <trkpt lat="42.591821" lon="-6.69645">
        <ele>499</ele>
        <time>2018-07-24T11:30:59.020Z</time>
      </trkpt>
      <trkpt lat="42.591874" lon="-6.6966">
        <ele>499</ele>
        <time>2018-07-24T11:31:01.990Z</time>
      </trkpt>
      <trkpt lat="42.59191" lon="-6.696716">
        <ele>499</ele>
        <time>2018-07-24T11:31:03.990Z</time>
      </trkpt>
      <trkpt lat="42.591966" lon="-6.696877">
        <ele>499</ele>
        <time>2018-07-24T11:31:06.990Z</time>
      </trkpt>
      <trkpt lat="42.592021" lon="-6.697042">
        <ele>499</ele>
        <time>2018-07-24T11:31:10.000Z</time>
      </trkpt>
      <trkpt lat="42.59206" lon="-6.697159">
        <ele>499</ele>
        <time>2018-07-24T11:31:11.990Z</time>
      </trkpt>
      <trkpt lat="42.59212" lon="-6.697325">
        <ele>499</ele>
        <time>2018-07-24T11:31:15.000Z</time>
      </trkpt>
      <trkpt lat="42.592158" lon="-6.697441">
        <ele>499</ele>
        <time>2018-07-24T11:31:16.990Z</time>
      </trkpt>
      <trkpt lat="42.592215" lon="-6.697596">
        <ele>499</ele>
        <time>2018-07-24T11:31:20.000Z</time>
      </trkpt>
      <trkpt lat="42.592263" lon="-6.697751">
        <ele>499</ele>
        <time>2018-07-24T11:31:22.990Z</time>
      </trkpt>
      <trkpt lat="42.592326" lon="-6.697888">
        <ele>499</ele>
        <time>2018-07-24T11:31:25.990Z</time>
      </trkpt>
      <trkpt lat="42.592354" lon="-6.698027">
        <ele>499</ele>
        <time>2018-07-24T11:31:28.990Z</time>
      </trkpt>
      <trkpt lat="42.592411" lon="-6.698185">
        <ele>499</ele>
        <time>2018-07-24T11:31:31.990Z</time>
      </trkpt>
      <trkpt lat="42.592434" lon="-6.698312">
        <ele>499</ele>
        <time>2018-07-24T11:31:34.100Z</time>
      </trkpt>
      <trkpt lat="42.59247" lon="-6.698446">
        <ele>499</ele>
        <time>2018-07-24T11:31:36.000Z</time>
      </trkpt>
      <trkpt lat="42.592489" lon="-6.698591">
        <ele>499</ele>
        <time>2018-07-24T11:31:38.000Z</time>
      </trkpt>
      <trkpt lat="42.592519" lon="-6.698774">
        <ele>499</ele>
        <time>2018-07-24T11:31:40.990Z</time>
      </trkpt>
      <trkpt lat="42.592546" lon="-6.698901">
        <ele>499</ele>
        <time>2018-07-24T11:31:43.000Z</time>
      </trkpt>
      <trkpt lat="42.592588" lon="-6.699013">
        <ele>499</ele>
        <time>2018-07-24T11:31:44.990Z</time>
      </trkpt>
      <trkpt lat="42.592622" lon="-6.699134">
        <ele>499</ele>
        <time>2018-07-24T11:31:46.990Z</time>
      </trkpt>
      <trkpt lat="42.592704" lon="-6.699269">
        <ele>499</ele>
        <time>2018-07-24T11:31:49.990Z</time>
      </trkpt>
      <trkpt lat="42.592763" lon="-6.699422">
        <ele>499</ele>
        <time>2018-07-24T11:31:53.000Z</time>
      </trkpt>
      <trkpt lat="42.592818" lon="-6.699579">
        <ele>499</ele>
        <time>2018-07-24T11:31:56.020Z</time>
      </trkpt>
      <trkpt lat="42.592873" lon="-6.699732">
        <ele>499</ele>
        <time>2018-07-24T11:31:58.990Z</time>
      </trkpt>
      <trkpt lat="42.592917" lon="-6.699895">
        <ele>499</ele>
        <time>2018-07-24T11:32:01.990Z</time>
      </trkpt>
      <trkpt lat="42.592968" lon="-6.700022">
        <ele>499</ele>
        <time>2018-07-24T11:32:04.990Z</time>
      </trkpt>
      <trkpt lat="42.593006" lon="-6.700159">
        <ele>499</ele>
        <time>2018-07-24T11:32:08.000Z</time>
      </trkpt>
      <trkpt lat="42.593026" lon="-6.700294">
        <ele>500</ele>
        <time>2018-07-24T11:32:10.990Z</time>
      </trkpt>
      <trkpt lat="42.59308" lon="-6.700441">
        <ele>501</ele>
        <time>2018-07-24T11:32:15.020Z</time>
      </trkpt>
      <trkpt lat="42.593132" lon="-6.700565">
        <ele>501</ele>
        <time>2018-07-24T11:32:18.990Z</time>
      </trkpt>
      <trkpt lat="42.593152" lon="-6.700687">
        <ele>502</ele>
        <time>2018-07-24T11:32:21.990Z</time>
      </trkpt>
      <trkpt lat="42.59318" lon="-6.700833">
        <ele>502</ele>
        <time>2018-07-24T11:32:25.990Z</time>
      </trkpt>
      <trkpt lat="42.593208" lon="-6.700976">
        <ele>503</ele>
        <time>2018-07-24T11:32:29.990Z</time>
      </trkpt>
      <trkpt lat="42.593242" lon="-6.701109">
        <ele>503</ele>
        <time>2018-07-24T11:32:34.020Z</time>
      </trkpt>
      <trkpt lat="42.593275" lon="-6.701243">
        <ele>504</ele>
        <time>2018-07-24T11:32:38.000Z</time>
      </trkpt>
      <trkpt lat="42.593292" lon="-6.701388">
        <ele>504</ele>
        <time>2018-07-24T11:32:41.990Z</time>
      </trkpt>
      <trkpt lat="42.593318" lon="-6.701515">
        <ele>505</ele>
        <time>2018-07-24T11:32:48.000Z</time>
      </trkpt>
      <trkpt lat="42.593326" lon="-6.701655">
        <ele>505.480917298523</ele>
        <time>2018-07-24T11:32:53.030Z</time>
      </trkpt>
      <trkpt lat="42.593347" lon="-6.70183">
        <ele>507</ele>
        <time>2018-07-24T11:32:59.000Z</time>
      </trkpt>
      <trkpt lat="42.593408" lon="-6.701959">
        <ele>508</ele>
        <time>2018-07-24T11:33:03.000Z</time>
      </trkpt>
      <trkpt lat="42.593443" lon="-6.702102">
        <ele>509</ele>
        <time>2018-07-24T11:33:08.000Z</time>
      </trkpt>
      <trkpt lat="42.593414" lon="-6.702228">
        <ele>510</ele>
        <time>2018-07-24T11:33:12.020Z</time>
      </trkpt>
      <trkpt lat="42.593421" lon="-6.702352">
        <ele>510</ele>
        <time>2018-07-24T11:33:14.990Z</time>
      </trkpt>
      <trkpt lat="42.593466" lon="-6.702467">
        <ele>511</ele>
        <time>2018-07-24T11:33:18.990Z</time>
      </trkpt>
      <trkpt lat="42.593515" lon="-6.702592">
        <ele>511.4</ele>
        <time>2018-07-24T11:33:23.000Z</time>
      </trkpt>
      <trkpt lat="42.593516" lon="-6.702732">
        <ele>511</ele>
        <time>2018-07-24T11:33:26.990Z</time>
      </trkpt>
      <trkpt lat="42.593549" lon="-6.702863">
        <ele>511</ele>
        <time>2018-07-24T11:33:31.020Z</time>
      </trkpt>
      <trkpt lat="42.59358" lon="-6.702993">
        <ele>513</ele>
        <time>2018-07-24T11:33:34.990Z</time>
      </trkpt>
      <trkpt lat="42.59362" lon="-6.703123">
        <ele>513</ele>
        <time>2018-07-24T11:33:38.990Z</time>
      </trkpt>
      <trkpt lat="42.593648" lon="-6.703239">
        <ele>513</ele>
        <time>2018-07-24T11:33:41.990Z</time>
      </trkpt>
      <trkpt lat="42.593678" lon="-6.703366">
        <ele>513</ele>
        <time>2018-07-24T11:33:44.990Z</time>
      </trkpt>
      <trkpt lat="42.593705" lon="-6.703484">
        <ele>513</ele>
        <time>2018-07-24T11:33:48.000Z</time>
      </trkpt>
      <trkpt lat="42.593742" lon="-6.703633">
        <ele>513</ele>
        <time>2018-07-24T11:33:52.000Z</time>
      </trkpt>
      <trkpt lat="42.593787" lon="-6.703783">
        <ele>513</ele>
        <time>2018-07-24T11:33:55.990Z</time>
      </trkpt>
      <trkpt lat="42.59382" lon="-6.703906">
        <ele>513</ele>
        <time>2018-07-24T11:33:58.990Z</time>
      </trkpt>
      <trkpt lat="42.593871" lon="-6.704022">
        <ele>513</ele>
        <time>2018-07-24T11:34:01.990Z</time>
      </trkpt>
      <trkpt lat="42.593917" lon="-6.704131">
        <ele>513</ele>
        <time>2018-07-24T11:34:05.000Z</time>
      </trkpt>
      <trkpt lat="42.593977" lon="-6.704227">
        <ele>513</ele>
        <time>2018-07-24T11:34:08.000Z</time>
      </trkpt>
      <trkpt lat="42.594033" lon="-6.704335">
        <ele>513</ele>
        <time>2018-07-24T11:34:11.000Z</time>
      </trkpt>
      <trkpt lat="42.594077" lon="-6.704443">
        <ele>513</ele>
        <time>2018-07-24T11:34:14.000Z</time>
      </trkpt>
      <trkpt lat="42.594117" lon="-6.704576">
        <ele>513</ele>
        <time>2018-07-24T11:34:19.000Z</time>
      </trkpt>
      <trkpt lat="42.594151" lon="-6.704689">
        <ele>513</ele>
        <time>2018-07-24T11:34:23.000Z</time>
      </trkpt>
      <trkpt lat="42.594204" lon="-6.704797">
        <ele>513</ele>
        <time>2018-07-24T11:34:27.000Z</time>
      </trkpt>
      <trkpt lat="42.594247" lon="-6.704932">
        <ele>513</ele>
        <time>2018-07-24T11:34:32.000Z</time>
      </trkpt>
      <trkpt lat="42.594297" lon="-6.705068">
        <ele>513</ele>
        <time>2018-07-24T11:34:36.000Z</time>
      </trkpt>
      <trkpt lat="42.59435" lon="-6.705208">
        <ele>514</ele>
        <time>2018-07-24T11:34:40.000Z</time>
      </trkpt>
      <trkpt lat="42.594397" lon="-6.705347">
        <ele>514</ele>
        <time>2018-07-24T11:34:43.990Z</time>
      </trkpt>
      <trkpt lat="42.594435" lon="-6.705474">
        <ele>514</ele>
        <time>2018-07-24T11:34:47.020Z</time>
      </trkpt>
      <trkpt lat="42.594471" lon="-6.705591">
        <ele>514.5900032</ele>
        <time>2018-07-24T11:34:49.990Z</time>
      </trkpt>
      <trkpt lat="42.594509" lon="-6.705709">
        <ele>515</ele>
        <time>2018-07-24T11:34:53.000Z</time>
      </trkpt>
      <trkpt lat="42.59455" lon="-6.705824">
        <ele>515</ele>
        <time>2018-07-24T11:34:55.990Z</time>
      </trkpt>
      <trkpt lat="42.594575" lon="-6.705943">
        <ele>516</ele>
        <time>2018-07-24T11:34:58.990Z</time>
      </trkpt>
      <trkpt lat="42.594632" lon="-6.706076">
        <ele>516</ele>
        <time>2018-07-24T11:35:03.000Z</time>
      </trkpt>
      <trkpt lat="42.594674" lon="-6.706186">
        <ele>516</ele>
        <time>2018-07-24T11:35:06.020Z</time>
      </trkpt>
      <trkpt lat="42.594725" lon="-6.706306">
        <ele>516</ele>
        <time>2018-07-24T11:35:08.990Z</time>
      </trkpt>
      <trkpt lat="42.594765" lon="-6.706426">
        <ele>516</ele>
        <time>2018-07-24T11:35:11.990Z</time>
      </trkpt>
      <trkpt lat="42.594812" lon="-6.706554">
        <ele>516</ele>
        <time>2018-07-24T11:35:14.990Z</time>
      </trkpt>
      <trkpt lat="42.594859" lon="-6.70669">
        <ele>516</ele>
        <time>2018-07-24T11:35:18.000Z</time>
      </trkpt>
      <trkpt lat="42.59489" lon="-6.706814">
        <ele>516</ele>
        <time>2018-07-24T11:35:20.990Z</time>
      </trkpt>
      <trkpt lat="42.594942" lon="-6.706954">
        <ele>516</ele>
        <time>2018-07-24T11:35:25.020Z</time>
      </trkpt>
      <trkpt lat="42.595001" lon="-6.707065">
        <ele>517</ele>
        <time>2018-07-24T11:35:28.000Z</time>
      </trkpt>
      <trkpt lat="42.59506" lon="-6.707206">
        <ele>516</ele>
        <time>2018-07-24T11:35:30.990Z</time>
      </trkpt>
      <trkpt lat="42.595103" lon="-6.707314">
        <ele>516</ele>
        <time>2018-07-24T11:35:33.000Z</time>
      </trkpt>
      <trkpt lat="42.595148" lon="-6.707428">
        <ele>516</ele>
        <time>2018-07-24T11:35:34.990Z</time>
      </trkpt>
      <trkpt lat="42.595192" lon="-6.707556">
        <ele>516</ele>
        <time>2018-07-24T11:35:36.990Z</time>
      </trkpt>
      <trkpt lat="42.595243" lon="-6.707684">
        <ele>515</ele>
        <time>2018-07-24T11:35:38.990Z</time>
      </trkpt>
      <trkpt lat="42.595299" lon="-6.70783">
        <ele>514.549616978035</ele>
        <time>2018-07-24T11:35:40.990Z</time>
      </trkpt>
      <trkpt lat="42.595368" lon="-6.707987">
        <ele>513.563377742523</ele>
        <time>2018-07-24T11:35:43.000Z</time>
      </trkpt>
      <trkpt lat="42.595442" lon="-6.708152">
        <ele>512.44</ele>
        <time>2018-07-24T11:35:44.960Z</time>
      </trkpt>
      <trkpt lat="42.595523" lon="-6.708344">
        <ele>512</ele>
        <time>2018-07-24T11:35:46.990Z</time>
      </trkpt>
      <trkpt lat="42.595615" lon="-6.708543">
        <ele>512</ele>
        <time>2018-07-24T11:35:48.990Z</time>
      </trkpt>
      <trkpt lat="42.595701" lon="-6.708752">
        <ele>511.4099968</ele>
        <time>2018-07-24T11:35:50.990Z</time>
      </trkpt>
      <trkpt lat="42.595787" lon="-6.708964">
        <ele>510.541985851638</ele>
        <time>2018-07-24T11:35:53.000Z</time>
      </trkpt>
      <trkpt lat="42.595869" lon="-6.709182">
        <ele>509.4099968</ele>
        <time>2018-07-24T11:35:54.990Z</time>
      </trkpt>
      <trkpt lat="42.595911" lon="-6.709293">
        <ele>509</ele>
        <time>2018-07-24T11:35:55.990Z</time>
      </trkpt>
      <trkpt lat="42.595994" lon="-6.709506">
        <ele>507.4</ele>
        <time>2018-07-24T11:35:58.000Z</time>
      </trkpt>
      <trkpt lat="42.596074" lon="-6.709706">
        <ele>507</ele>
        <time>2018-07-24T11:35:59.990Z</time>
      </trkpt>
      <trkpt lat="42.596145" lon="-6.709898">
        <ele>506</ele>
        <time>2018-07-24T11:36:01.990Z</time>
      </trkpt>
      <trkpt lat="42.596215" lon="-6.710072">
        <ele>506</ele>
        <time>2018-07-24T11:36:03.960Z</time>
      </trkpt>
      <trkpt lat="42.596283" lon="-6.710241">
        <ele>506</ele>
        <time>2018-07-24T11:36:05.990Z</time>
      </trkpt>
      <trkpt lat="42.59634" lon="-6.710386">
        <ele>506</ele>
        <time>2018-07-24T11:36:08.000Z</time>
      </trkpt>
      <trkpt lat="42.59639" lon="-6.710522">
        <ele>506</ele>
        <time>2018-07-24T11:36:09.990Z</time>
      </trkpt>
      <trkpt lat="42.596446" lon="-6.710663">
        <ele>506</ele>
        <time>2018-07-24T11:36:11.990Z</time>
      </trkpt>
      <trkpt lat="42.596502" lon="-6.710801">
        <ele>506</ele>
        <time>2018-07-24T11:36:13.990Z</time>
      </trkpt>
      <trkpt lat="42.596544" lon="-6.710932">
        <ele>506</ele>
        <time>2018-07-24T11:36:15.990Z</time>
      </trkpt>
      <trkpt lat="42.596593" lon="-6.711064">
        <ele>506.6</ele>
        <time>2018-07-24T11:36:18.000Z</time>
      </trkpt>
      <trkpt lat="42.596643" lon="-6.711205">
        <ele>507</ele>
        <time>2018-07-24T11:36:19.990Z</time>
      </trkpt>
      <trkpt lat="42.596705" lon="-6.711363">
        <ele>506.526723598843</ele>
        <time>2018-07-24T11:36:22.020Z</time>
      </trkpt>
      <trkpt lat="42.596758" lon="-6.711534">
        <ele>506.5900032</ele>
        <time>2018-07-24T11:36:23.990Z</time>
      </trkpt>
      <trkpt lat="42.596813" lon="-6.711695">
        <ele>506.4099968</ele>
        <time>2018-07-24T11:36:25.990Z</time>
      </trkpt>
      <trkpt lat="42.596869" lon="-6.711849">
        <ele>506</ele>
        <time>2018-07-24T11:36:28.000Z</time>
      </trkpt>
      <trkpt lat="42.596922" lon="-6.711996">
        <ele>506</ele>
        <time>2018-07-24T11:36:29.990Z</time>
      </trkpt>
      <trkpt lat="42.596964" lon="-6.712135">
        <ele>506</ele>
        <time>2018-07-24T11:36:31.990Z</time>
      </trkpt>
      <trkpt lat="42.597014" lon="-6.712262">
        <ele>506</ele>
        <time>2018-07-24T11:36:33.990Z</time>
      </trkpt>
      <trkpt lat="42.597058" lon="-6.712384">
        <ele>506</ele>
        <time>2018-07-24T11:36:35.990Z</time>
      </trkpt>
      <trkpt lat="42.597105" lon="-6.712506">
        <ele>506</ele>
        <time>2018-07-24T11:36:38.000Z</time>
      </trkpt>
      <trkpt lat="42.597152" lon="-6.712623">
        <ele>506.294122076097</ele>
        <time>2018-07-24T11:36:39.990Z</time>
      </trkpt>
      <trkpt lat="42.597212" lon="-6.712734">
        <ele>507</ele>
        <time>2018-07-24T11:36:41.960Z</time>
      </trkpt>
      <trkpt lat="42.597256" lon="-6.71284">
        <ele>507</ele>
        <time>2018-07-24T11:36:43.990Z</time>
      </trkpt>
      <trkpt lat="42.597292" lon="-6.712955">
        <ele>507</ele>
        <time>2018-07-24T11:36:45.990Z</time>
      </trkpt>
      <trkpt lat="42.597355" lon="-6.713097">
        <ele>507</ele>
        <time>2018-07-24T11:36:48.990Z</time>
      </trkpt>
      <trkpt lat="42.597406" lon="-6.713226">
        <ele>507</ele>
        <time>2018-07-24T11:36:51.990Z</time>
      </trkpt>
      <trkpt lat="42.597468" lon="-6.713389">
        <ele>507</ele>
        <time>2018-07-24T11:36:54.990Z</time>
      </trkpt>
      <trkpt lat="42.597533" lon="-6.713482">
        <ele>507</ele>
        <time>2018-07-24T11:36:56.990Z</time>
      </trkpt>
      <trkpt lat="42.597611" lon="-6.713559">
        <ele>507</ele>
        <time>2018-07-24T11:36:58.990Z</time>
      </trkpt>
      <trkpt lat="42.597684" lon="-6.713632">
        <ele>507</ele>
        <time>2018-07-24T11:37:00.960Z</time>
      </trkpt>
      <trkpt lat="42.597779" lon="-6.713738">
        <ele>507</ele>
        <time>2018-07-24T11:37:03.990Z</time>
      </trkpt>
      <trkpt lat="42.597862" lon="-6.713831">
        <ele>507</ele>
        <time>2018-07-24T11:37:06.990Z</time>
      </trkpt>
      <trkpt lat="42.597966" lon="-6.713916">
        <ele>507</ele>
        <time>2018-07-24T11:37:09.990Z</time>
      </trkpt>
      <trkpt lat="42.598042" lon="-6.714001">
        <ele>507</ele>
        <time>2018-07-24T11:37:13.000Z</time>
      </trkpt>
      <trkpt lat="42.59812" lon="-6.714104">
        <ele>507</ele>
        <time>2018-07-24T11:37:16.990Z</time>
      </trkpt>
      <trkpt lat="42.598189" lon="-6.714196">
        <ele>507</ele>
        <time>2018-07-24T11:37:19.960Z</time>
      </trkpt>
      <trkpt lat="42.598275" lon="-6.714303">
        <ele>507</ele>
        <time>2018-07-24T11:37:23.000Z</time>
      </trkpt>
      <trkpt lat="42.598354" lon="-6.714384">
        <ele>506.2999936</ele>
        <time>2018-07-24T11:37:25.100Z</time>
      </trkpt>
      <trkpt lat="42.598441" lon="-6.714488">
        <ele>505.4</ele>
        <time>2018-07-24T11:37:27.000Z</time>
      </trkpt>
      <trkpt lat="42.598533" lon="-6.714615">
        <ele>504</ele>
        <time>2018-07-24T11:37:29.000Z</time>
      </trkpt>
      <trkpt lat="42.598612" lon="-6.714796">
        <ele>503.4</ele>
        <time>2018-07-24T11:37:31.000Z</time>
      </trkpt>
      <trkpt lat="42.598676" lon="-6.715016">
        <ele>500.8</ele>
        <time>2018-07-24T11:37:33.000Z</time>
      </trkpt>
      <trkpt lat="42.59872" lon="-6.715133">
        <ele>499.541985851638</ele>
        <time>2018-07-24T11:37:34.000Z</time>
      </trkpt>
      <trkpt lat="42.598789" lon="-6.715234">
        <ele>498.579712833451</ele>
        <time>2018-07-24T11:37:35.000Z</time>
      </trkpt>
      <trkpt lat="42.598854" lon="-6.715344">
        <ele>497.534882567151</ele>
        <time>2018-07-24T11:37:36.000Z</time>
      </trkpt>
      <trkpt lat="42.598932" lon="-6.715451">
        <ele>496.154915358128</ele>
        <time>2018-07-24T11:37:36.990Z</time>
      </trkpt>
      <trkpt lat="42.599028" lon="-6.715564">
        <ele>493.7600128</ele>
        <time>2018-07-24T11:37:38.020Z</time>
      </trkpt>
      <trkpt lat="42.599121" lon="-6.715676">
        <ele>492.572520128195</ele>
        <time>2018-07-24T11:37:38.960Z</time>
      </trkpt>
      <trkpt lat="42.599196" lon="-6.715807">
        <ele>492</ele>
        <time>2018-07-24T11:37:39.990Z</time>
      </trkpt>
      <trkpt lat="42.599269" lon="-6.71594">
        <ele>491.563377742523</ele>
        <time>2018-07-24T11:37:41.000Z</time>
      </trkpt>
      <trkpt lat="42.599336" lon="-6.71607">
        <ele>490.3800064</ele>
        <time>2018-07-24T11:37:42.020Z</time>
      </trkpt>
      <trkpt lat="42.599392" lon="-6.716207">
        <ele>489.572520128195</ele>
        <time>2018-07-24T11:37:42.960Z</time>
      </trkpt>
      <trkpt lat="42.599431" lon="-6.716342">
        <ele>488.594201016584</ele>
        <time>2018-07-24T11:37:43.990Z</time>
      </trkpt>
      <trkpt lat="42.599483" lon="-6.716527">
        <ele>488</ele>
        <time>2018-07-24T11:37:46.000Z</time>
      </trkpt>
      <trkpt lat="42.599539" lon="-6.71665">
        <ele>488</ele>
        <time>2018-07-24T11:37:47.990Z</time>
      </trkpt>
      <trkpt lat="42.599556" lon="-6.716784">
        <ele>488</ele>
        <time>2018-07-24T11:37:49.990Z</time>
      </trkpt>
      <trkpt lat="42.59955" lon="-6.716917">
        <ele>488</ele>
        <time>2018-07-24T11:37:51.990Z</time>
      </trkpt>
      <trkpt lat="42.599549" lon="-6.717064">
        <ele>488</ele>
        <time>2018-07-24T11:37:53.990Z</time>
      </trkpt>
      <trkpt lat="42.599555" lon="-6.71721">
        <ele>488</ele>
        <time>2018-07-24T11:37:56.010Z</time>
      </trkpt>
      <trkpt lat="42.599574" lon="-6.717349">
        <ele>487.44</ele>
        <time>2018-07-24T11:37:57.960Z</time>
      </trkpt>
      <trkpt lat="42.599589" lon="-6.71749">
        <ele>487</ele>
        <time>2018-07-24T11:37:59.990Z</time>
      </trkpt>
      <trkpt lat="42.599595" lon="-6.717629">
        <ele>486</ele>
        <time>2018-07-24T11:38:01.990Z</time>
      </trkpt>
      <trkpt lat="42.599597" lon="-6.717768">
        <ele>486</ele>
        <time>2018-07-24T11:38:03.990Z</time>
      </trkpt>
      <trkpt lat="42.599605" lon="-6.717896">
        <ele>486</ele>
        <time>2018-07-24T11:38:06.000Z</time>
      </trkpt>
      <trkpt lat="42.599602" lon="-6.718025">
        <ele>487</ele>
        <time>2018-07-24T11:38:07.990Z</time>
      </trkpt>
      <trkpt lat="42.599602" lon="-6.718153">
        <ele>487</ele>
        <time>2018-07-24T11:38:09.990Z</time>
      </trkpt>
      <trkpt lat="42.599638" lon="-6.718279">
        <ele>487</ele>
        <time>2018-07-24T11:38:11.990Z</time>
      </trkpt>
      <trkpt lat="42.599636" lon="-6.718417">
        <ele>486.542632043738</ele>
        <time>2018-07-24T11:38:13.990Z</time>
      </trkpt>
      <trkpt lat="42.599644" lon="-6.718555">
        <ele>486</ele>
        <time>2018-07-24T11:38:16.030Z</time>
      </trkpt>
      <trkpt lat="42.599647" lon="-6.718679">
        <ele>486</ele>
        <time>2018-07-24T11:38:17.990Z</time>
      </trkpt>
      <trkpt lat="42.59965" lon="-6.718855">
        <ele>486</ele>
        <time>2018-07-24T11:38:21.000Z</time>
      </trkpt>
      <trkpt lat="42.59964" lon="-6.719039">
        <ele>485.581633186176</ele>
        <time>2018-07-24T11:38:23.990Z</time>
      </trkpt>
      <trkpt lat="42.599636" lon="-6.719216">
        <ele>486</ele>
        <time>2018-07-24T11:38:26.990Z</time>
      </trkpt>
      <trkpt lat="42.599631" lon="-6.71938">
        <ele>486</ele>
        <time>2018-07-24T11:38:29.990Z</time>
      </trkpt>
      <trkpt lat="42.599627" lon="-6.719505">
        <ele>486</ele>
        <time>2018-07-24T11:38:31.990Z</time>
      </trkpt>
      <trkpt lat="42.599631" lon="-6.71963">
        <ele>486</ele>
        <time>2018-07-24T11:38:33.990Z</time>
      </trkpt>
      <trkpt lat="42.599648" lon="-6.719797">
        <ele>486</ele>
        <time>2018-07-24T11:38:36.990Z</time>
      </trkpt>
      <trkpt lat="42.599655" lon="-6.719959">
        <ele>486</ele>
        <time>2018-07-24T11:38:39.990Z</time>
      </trkpt>
      <trkpt lat="42.599671" lon="-6.72013">
        <ele>486</ele>
        <time>2018-07-24T11:38:42.990Z</time>
      </trkpt>
      <trkpt lat="42.599685" lon="-6.720256">
        <ele>486</ele>
        <time>2018-07-24T11:38:44.990Z</time>
      </trkpt>
      <trkpt lat="42.599684" lon="-6.72038">
        <ele>486</ele>
        <time>2018-07-24T11:38:46.990Z</time>
      </trkpt>
      <trkpt lat="42.599683" lon="-6.720506">
        <ele>486</ele>
        <time>2018-07-24T11:38:48.990Z</time>
      </trkpt>
      <trkpt lat="42.599684" lon="-6.720672">
        <ele>486</ele>
        <time>2018-07-24T11:38:51.990Z</time>
      </trkpt>
      <trkpt lat="42.599701" lon="-6.720824">
        <ele>486</ele>
        <time>2018-07-24T11:38:54.960Z</time>
      </trkpt>
      <trkpt lat="42.599709" lon="-6.720986">
        <ele>486</ele>
        <time>2018-07-24T11:38:57.990Z</time>
      </trkpt>
      <trkpt lat="42.599722" lon="-6.721159">
        <ele>486</ele>
        <time>2018-07-24T11:39:01.000Z</time>
      </trkpt>
      <trkpt lat="42.599712" lon="-6.721327">
        <ele>486</ele>
        <time>2018-07-24T11:39:03.990Z</time>
      </trkpt>
      <trkpt lat="42.599736" lon="-6.721486">
        <ele>486</ele>
        <time>2018-07-24T11:39:06.990Z</time>
      </trkpt>
      <trkpt lat="42.599754" lon="-6.721609">
        <ele>486</ele>
        <time>2018-07-24T11:39:08.990Z</time>
      </trkpt>
      <trkpt lat="42.599766" lon="-6.721732">
        <ele>486</ele>
        <time>2018-07-24T11:39:11.000Z</time>
      </trkpt>
      <trkpt lat="42.599793" lon="-6.721891">
        <ele>486</ele>
        <time>2018-07-24T11:39:13.960Z</time>
      </trkpt>
      <trkpt lat="42.599797" lon="-6.722051">
        <ele>486</ele>
        <time>2018-07-24T11:39:16.980Z</time>
      </trkpt>
      <trkpt lat="42.599826" lon="-6.72219">
        <ele>486</ele>
        <time>2018-07-24T11:39:21.000Z</time>
      </trkpt>
      <trkpt lat="42.599799" lon="-6.722344">
        <ele>486</ele>
        <time>2018-07-24T11:39:26.000Z</time>
      </trkpt>
      <trkpt lat="42.599809" lon="-6.722479">
        <ele>486</ele>
        <time>2018-07-24T11:39:30.990Z</time>
      </trkpt>
      <trkpt lat="42.599811" lon="-6.722624">
        <ele>486</ele>
        <time>2018-07-24T11:39:35.000Z</time>
      </trkpt>
      <trkpt lat="42.59979" lon="-6.722756">
        <ele>486</ele>
        <time>2018-07-24T11:39:37.000Z</time>
      </trkpt>
      <trkpt lat="42.599798" lon="-6.722901">
        <ele>486</ele>
        <time>2018-07-24T11:39:40.990Z</time>
      </trkpt>
      <trkpt lat="42.599821" lon="-6.723057">
        <ele>486</ele>
        <time>2018-07-24T11:39:45.000Z</time>
      </trkpt>
      <trkpt lat="42.59982" lon="-6.723234">
        <ele>485</ele>
        <time>2018-07-24T11:39:48.000Z</time>
      </trkpt>
      <trkpt lat="42.599817" lon="-6.723359">
        <ele>485</ele>
        <time>2018-07-24T11:39:50.000Z</time>
      </trkpt>
      <trkpt lat="42.599827" lon="-6.723498">
        <ele>485</ele>
        <time>2018-07-24T11:39:53.000Z</time>
      </trkpt>
      <trkpt lat="42.59986" lon="-6.72365">
        <ele>485</ele>
        <time>2018-07-24T11:39:56.000Z</time>
      </trkpt>
      <trkpt lat="42.599867" lon="-6.723804">
        <ele>485</ele>
        <time>2018-07-24T11:39:59.000Z</time>
      </trkpt>
      <trkpt lat="42.599877" lon="-6.723951">
        <ele>485</ele>
        <time>2018-07-24T11:40:02.990Z</time>
      </trkpt>
      <trkpt lat="42.599872" lon="-6.724117">
        <ele>485</ele>
        <time>2018-07-24T11:40:06.000Z</time>
      </trkpt>
      <trkpt lat="42.59987" lon="-6.724244">
        <ele>485</ele>
        <time>2018-07-24T11:40:08.000Z</time>
      </trkpt>
      <trkpt lat="42.599896" lon="-6.724388">
        <ele>485</ele>
        <time>2018-07-24T11:40:11.000Z</time>
      </trkpt>
      <trkpt lat="42.599903" lon="-6.724551">
        <ele>485</ele>
        <time>2018-07-24T11:40:14.000Z</time>
      </trkpt>
      <trkpt lat="42.599868" lon="-6.724726">
        <ele>484</ele>
        <time>2018-07-24T11:40:17.000Z</time>
      </trkpt>
      <trkpt lat="42.599869" lon="-6.724882">
        <ele>484</ele>
        <time>2018-07-24T11:40:20.000Z</time>
      </trkpt>
      <trkpt lat="42.599871" lon="-6.72505">
        <ele>484</ele>
        <time>2018-07-24T11:40:22.990Z</time>
      </trkpt>
      <trkpt lat="42.599886" lon="-6.725175">
        <ele>484</ele>
        <time>2018-07-24T11:40:25.990Z</time>
      </trkpt>
      <trkpt lat="42.59986" lon="-6.725356">
        <ele>483</ele>
        <time>2018-07-24T11:40:31.000Z</time>
      </trkpt>
      <trkpt lat="42.599841" lon="-6.725492">
        <ele>483</ele>
        <time>2018-07-24T11:40:34.000Z</time>
      </trkpt>
      <trkpt lat="42.59979" lon="-6.725614">
        <ele>483</ele>
        <time>2018-07-24T11:40:36.990Z</time>
      </trkpt>
      <trkpt lat="42.599711" lon="-6.725734">
        <ele>483</ele>
        <time>2018-07-24T11:40:40.000Z</time>
      </trkpt>
      <trkpt lat="42.599668" lon="-6.725864">
        <ele>482</ele>
        <time>2018-07-24T11:40:43.000Z</time>
      </trkpt>
      <trkpt lat="42.599633" lon="-6.726017">
        <ele>482</ele>
        <time>2018-07-24T11:40:46.000Z</time>
      </trkpt>
      <trkpt lat="42.599593" lon="-6.726154">
        <ele>482</ele>
        <time>2018-07-24T11:40:48.000Z</time>
      </trkpt>
      <trkpt lat="42.599576" lon="-6.726316">
        <ele>482</ele>
        <time>2018-07-24T11:40:50.980Z</time>
      </trkpt>
      <trkpt lat="42.599603" lon="-6.726476">
        <ele>482</ele>
        <time>2018-07-24T11:40:54.000Z</time>
      </trkpt>
      <trkpt lat="42.599669" lon="-6.726621">
        <ele>482</ele>
        <time>2018-07-24T11:40:57.000Z</time>
      </trkpt>
      <trkpt lat="42.599685" lon="-6.726754">
        <ele>481</ele>
        <time>2018-07-24T11:40:58.990Z</time>
      </trkpt>
      <trkpt lat="42.599733" lon="-6.726917">
        <ele>480</ele>
        <time>2018-07-24T11:41:02.100Z</time>
      </trkpt>
      <trkpt lat="42.599807" lon="-6.727065">
        <ele>481</ele>
        <time>2018-07-24T11:41:05.000Z</time>
      </trkpt>
      <trkpt lat="42.599853" lon="-6.727195">
        <ele>480</ele>
        <time>2018-07-24T11:41:07.960Z</time>
      </trkpt>
      <trkpt lat="42.599927" lon="-6.727356">
        <ele>480</ele>
        <time>2018-07-24T11:41:12.000Z</time>
      </trkpt>
      <trkpt lat="42.599925" lon="-6.727516">
        <ele>480</ele>
        <time>2018-07-24T11:41:15.000Z</time>
      </trkpt>
      <trkpt lat="42.599983" lon="-6.727717">
        <ele>480</ele>
        <time>2018-07-24T11:41:20.000Z</time>
      </trkpt>
      <trkpt lat="42.599999" lon="-6.727844">
        <ele>480.595960901945</ele>
        <time>2018-07-24T11:41:23.000Z</time>
      </trkpt>
      <trkpt lat="42.600022" lon="-6.727997">
        <ele>481</ele>
        <time>2018-07-24T11:41:27.990Z</time>
      </trkpt>
      <trkpt lat="42.600043" lon="-6.72815">
        <ele>482</ele>
        <time>2018-07-24T11:41:33.000Z</time>
      </trkpt>
      <trkpt lat="42.600029" lon="-6.72829">
        <ele>483</ele>
        <time>2018-07-24T11:41:37.000Z</time>
      </trkpt>
      <trkpt lat="42.600006" lon="-6.72842">
        <ele>484</ele>
        <time>2018-07-24T11:41:40.990Z</time>
      </trkpt>
      <trkpt lat="42.600003" lon="-6.728551">
        <ele>484</ele>
        <time>2018-07-24T11:41:45.020Z</time>
      </trkpt>
      <trkpt lat="42.599995" lon="-6.728709">
        <ele>484</ele>
        <time>2018-07-24T11:41:48.990Z</time>
      </trkpt>
      <trkpt lat="42.599992" lon="-6.728859">
        <ele>484</ele>
        <time>2018-07-24T11:41:52.000Z</time>
      </trkpt>
      <trkpt lat="42.599986" lon="-6.729036">
        <ele>483.4099968</ele>
        <time>2018-07-24T11:41:54.990Z</time>
      </trkpt>
      <trkpt lat="42.599995" lon="-6.729176">
        <ele>483</ele>
        <time>2018-07-24T11:41:57.000Z</time>
      </trkpt>
      <trkpt lat="42.599996" lon="-6.72934">
        <ele>482.53906</ele>
        <time>2018-07-24T11:41:58.990Z</time>
      </trkpt>
      <trkpt lat="42.600007" lon="-6.729506">
        <ele>480.4099968</ele>
        <time>2018-07-24T11:42:00.990Z</time>
      </trkpt>
      <trkpt lat="42.599996" lon="-6.72987">
        <ele>479</ele>
        <time>2018-07-24T11:42:05.000Z</time>
      </trkpt>
      <trkpt lat="42.600012" lon="-6.730081">
        <ele>479</ele>
        <time>2018-07-24T11:42:07.000Z</time>
      </trkpt>
      <trkpt lat="42.600043" lon="-6.730283">
        <ele>479</ele>
        <time>2018-07-24T11:42:09.000Z</time>
      </trkpt>
      <trkpt lat="42.600035" lon="-6.730511">
        <ele>479</ele>
        <time>2018-07-24T11:42:10.990Z</time>
      </trkpt>
      <trkpt lat="42.60004" lon="-6.730714">
        <ele>479</ele>
        <time>2018-07-24T11:42:12.990Z</time>
      </trkpt>
      <trkpt lat="42.600054" lon="-6.730871">
        <ele>479</ele>
        <time>2018-07-24T11:42:14.990Z</time>
      </trkpt>
      <trkpt lat="42.600064" lon="-6.73104">
        <ele>479</ele>
        <time>2018-07-24T11:42:16.990Z</time>
      </trkpt>
      <trkpt lat="42.600072" lon="-6.731198">
        <ele>479</ele>
        <time>2018-07-24T11:42:19.000Z</time>
      </trkpt>
      <trkpt lat="42.600075" lon="-6.731349">
        <ele>479</ele>
        <time>2018-07-24T11:42:20.990Z</time>
      </trkpt>
      <trkpt lat="42.600091" lon="-6.731488">
        <ele>479</ele>
        <time>2018-07-24T11:42:22.990Z</time>
      </trkpt>
      <trkpt lat="42.600124" lon="-6.731639">
        <ele>479</ele>
        <time>2018-07-24T11:42:25.990Z</time>
      </trkpt>
      <trkpt lat="42.600144" lon="-6.731782">
        <ele>479</ele>
        <time>2018-07-24T11:42:29.000Z</time>
      </trkpt>
      <trkpt lat="42.60016" lon="-6.731943">
        <ele>479</ele>
        <time>2018-07-24T11:42:31.990Z</time>
      </trkpt>
      <trkpt lat="42.600225" lon="-6.732088">
        <ele>479</ele>
        <time>2018-07-24T11:42:34.990Z</time>
      </trkpt>
      <trkpt lat="42.600267" lon="-6.732233">
        <ele>480</ele>
        <time>2018-07-24T11:42:37.990Z</time>
      </trkpt>
      <trkpt lat="42.600307" lon="-6.732388">
        <ele>480</ele>
        <time>2018-07-24T11:42:40.990Z</time>
      </trkpt>
      <trkpt lat="42.600354" lon="-6.732537">
        <ele>480</ele>
        <time>2018-07-24T11:42:44.000Z</time>
      </trkpt>
      <trkpt lat="42.600392" lon="-6.732649">
        <ele>480</ele>
        <time>2018-07-24T11:42:45.990Z</time>
      </trkpt>
      <trkpt lat="42.600422" lon="-6.732767">
        <ele>480</ele>
        <time>2018-07-24T11:42:47.990Z</time>
      </trkpt>
      <trkpt lat="42.600426" lon="-6.732931">
        <ele>480</ele>
        <time>2018-07-24T11:42:50.990Z</time>
      </trkpt>
      <trkpt lat="42.600465" lon="-6.733086">
        <ele>479.40816593088</ele>
        <time>2018-07-24T11:42:54.000Z</time>
      </trkpt>
      <trkpt lat="42.600493" lon="-6.733223">
        <ele>479</ele>
        <time>2018-07-24T11:42:56.990Z</time>
      </trkpt>
      <trkpt lat="42.600538" lon="-6.73335">
        <ele>479</ele>
        <time>2018-07-24T11:42:59.990Z</time>
      </trkpt>
      <trkpt lat="42.60059" lon="-6.733478">
        <ele>479</ele>
        <time>2018-07-24T11:43:02.990Z</time>
      </trkpt>
      <trkpt lat="42.600609" lon="-6.733647">
        <ele>480</ele>
        <time>2018-07-24T11:43:06.000Z</time>
      </trkpt>
      <trkpt lat="42.600698" lon="-6.733737">
        <ele>480</ele>
        <time>2018-07-24T11:43:08.000Z</time>
      </trkpt>
      <trkpt lat="42.600709" lon="-6.733893">
        <ele>480</ele>
        <time>2018-07-24T11:43:10.990Z</time>
      </trkpt>
      <trkpt lat="42.600723" lon="-6.734055">
        <ele>480</ele>
        <time>2018-07-24T11:43:14.000Z</time>
      </trkpt>
      <trkpt lat="42.600729" lon="-6.73421">
        <ele>480</ele>
        <time>2018-07-24T11:43:16.990Z</time>
      </trkpt>
      <trkpt lat="42.600744" lon="-6.73434">
        <ele>480</ele>
        <time>2018-07-24T11:43:19.990Z</time>
      </trkpt>
      <trkpt lat="42.600769" lon="-6.734459">
        <ele>480</ele>
        <time>2018-07-24T11:43:22.990Z</time>
      </trkpt>
      <trkpt lat="42.600812" lon="-6.734575">
        <ele>480</ele>
        <time>2018-07-24T11:43:26.010Z</time>
      </trkpt>
      <trkpt lat="42.600845" lon="-6.73471">
        <ele>480</ele>
        <time>2018-07-24T11:43:29.000Z</time>
      </trkpt>
      <trkpt lat="42.600896" lon="-6.734821">
        <ele>480</ele>
        <time>2018-07-24T11:43:31.990Z</time>
      </trkpt>
      <trkpt lat="42.600929" lon="-6.734974">
        <ele>480</ele>
        <time>2018-07-24T11:43:35.000Z</time>
      </trkpt>
      <trkpt lat="42.60098" lon="-6.735128">
        <ele>480</ele>
        <time>2018-07-24T11:43:37.990Z</time>
      </trkpt>
      <trkpt lat="42.601047" lon="-6.735281">
        <ele>480</ele>
        <time>2018-07-24T11:43:40.990Z</time>
      </trkpt>
      <trkpt lat="42.601093" lon="-6.735441">
        <ele>480.418366813824</ele>
        <time>2018-07-24T11:43:43.990Z</time>
      </trkpt>
      <trkpt lat="42.601146" lon="-6.735599">
        <ele>480</ele>
        <time>2018-07-24T11:43:46.990Z</time>
      </trkpt>
      <trkpt lat="42.601189" lon="-6.735753">
        <ele>480.6</ele>
        <time>2018-07-24T11:43:50.000Z</time>
      </trkpt>
      <trkpt lat="42.601218" lon="-6.735916">
        <ele>481</ele>
        <time>2018-07-24T11:43:52.990Z</time>
      </trkpt>
      <trkpt lat="42.601271" lon="-6.736047">
        <ele>481</ele>
        <time>2018-07-24T11:43:55.990Z</time>
      </trkpt>
      <trkpt lat="42.601317" lon="-6.736184">
        <ele>481</ele>
        <time>2018-07-24T11:43:58.960Z</time>
      </trkpt>
      <trkpt lat="42.601359" lon="-6.736323">
        <ele>482</ele>
        <time>2018-07-24T11:44:01.990Z</time>
      </trkpt>
      <trkpt lat="42.601409" lon="-6.736465">
        <ele>482</ele>
        <time>2018-07-24T11:44:04.990Z</time>
      </trkpt>
      <trkpt lat="42.601448" lon="-6.736613">
        <ele>482</ele>
        <time>2018-07-24T11:44:07.990Z</time>
      </trkpt>
      <trkpt lat="42.601498" lon="-6.736747">
        <ele>482</ele>
        <time>2018-07-24T11:44:10.990Z</time>
      </trkpt>
      <trkpt lat="42.601548" lon="-6.736883">
        <ele>482</ele>
        <time>2018-07-24T11:44:13.990Z</time>
      </trkpt>
      <trkpt lat="42.601594" lon="-6.737013">
        <ele>482</ele>
        <time>2018-07-24T11:44:17.020Z</time>
      </trkpt>
      <trkpt lat="42.601641" lon="-6.737142">
        <ele>482</ele>
        <time>2018-07-24T11:44:20.000Z</time>
      </trkpt>
      <trkpt lat="42.60168" lon="-6.737279">
        <ele>482</ele>
        <time>2018-07-24T11:44:22.990Z</time>
      </trkpt>
      <trkpt lat="42.601726" lon="-6.737415">
        <ele>482</ele>
        <time>2018-07-24T11:44:25.990Z</time>
      </trkpt>
      <trkpt lat="42.601769" lon="-6.737549">
        <ele>483</ele>
        <time>2018-07-24T11:44:28.990Z</time>
      </trkpt>
      <trkpt lat="42.601829" lon="-6.737675">
        <ele>483</ele>
        <time>2018-07-24T11:44:31.990Z</time>
      </trkpt>
      <trkpt lat="42.601892" lon="-6.737801">
        <ele>483</ele>
        <time>2018-07-24T11:44:35.000Z</time>
      </trkpt>
      <trkpt lat="42.601963" lon="-6.737923">
        <ele>483</ele>
        <time>2018-07-24T11:44:38.000Z</time>
      </trkpt>
      <trkpt lat="42.602036" lon="-6.738048">
        <ele>483</ele>
        <time>2018-07-24T11:44:41.000Z</time>
      </trkpt>
      <trkpt lat="42.602113" lon="-6.738175">
        <ele>483</ele>
        <time>2018-07-24T11:44:44.000Z</time>
      </trkpt>
      <trkpt lat="42.602187" lon="-6.738305">
        <ele>483</ele>
        <time>2018-07-24T11:44:47.000Z</time>
      </trkpt>
      <trkpt lat="42.602253" lon="-6.738434">
        <ele>483.6</ele>
        <time>2018-07-24T11:44:50.000Z</time>
      </trkpt>
      <trkpt lat="42.602321" lon="-6.738565">
        <ele>484</ele>
        <time>2018-07-24T11:44:53.000Z</time>
      </trkpt>
      <trkpt lat="42.602389" lon="-6.738688">
        <ele>484</ele>
        <time>2018-07-24T11:44:56.000Z</time>
      </trkpt>
      <trkpt lat="42.602452" lon="-6.738812">
        <ele>484</ele>
        <time>2018-07-24T11:44:59.000Z</time>
      </trkpt>
      <trkpt lat="42.602513" lon="-6.738914">
        <ele>484</ele>
        <time>2018-07-24T11:45:02.000Z</time>
      </trkpt>
      <trkpt lat="42.602577" lon="-6.739014">
        <ele>485</ele>
        <time>2018-07-24T11:45:05.000Z</time>
      </trkpt>
      <trkpt lat="42.602647" lon="-6.739134">
        <ele>485</ele>
        <time>2018-07-24T11:45:08.990Z</time>
      </trkpt>
      <trkpt lat="42.602725" lon="-6.739205">
        <ele>485</ele>
        <time>2018-07-24T11:45:16.990Z</time>
      </trkpt>
      <trkpt lat="42.602685" lon="-6.739319">
        <ele>487</ele>
        <time>2018-07-24T11:46:11.960Z</time>
      </trkpt>
      <trkpt lat="42.602782" lon="-6.739278">
        <ele>487</ele>
        <time>2018-07-24T11:47:02.000Z</time>
      </trkpt>
      <trkpt lat="42.60268" lon="-6.739282">
        <ele>487</ele>
        <time>2018-07-24T11:47:28.000Z</time>
      </trkpt>
      <trkpt lat="42.602766" lon="-6.739248">
        <ele>487</ele>
        <time>2018-07-24T11:47:44.990Z</time>
      </trkpt>
      <trkpt lat="42.60267" lon="-6.739269">
        <ele>487</ele>
        <time>2018-07-24T11:48:06.000Z</time>
      </trkpt>
      <trkpt lat="42.602753" lon="-6.739222">
        <ele>490</ele>
        <time>2018-07-24T11:50:38.990Z</time>
      </trkpt>
      <trkpt lat="42.602846" lon="-6.739203">
        <ele>494</ele>
        <time>2018-07-24T11:53:58.990Z</time>
      </trkpt>
      <trkpt lat="42.602778" lon="-6.739288">
        <ele>496</ele>
        <time>2018-07-24T11:58:17.000Z</time>
      </trkpt>
      <trkpt lat="42.602687" lon="-6.739279">
        <ele>496</ele>
        <time>2018-07-24T12:00:57.990Z</time>
      </trkpt>
      <trkpt lat="42.60276" lon="-6.7392">
        <ele>497</ele>
        <time>2018-07-24T12:01:39.990Z</time>
      </trkpt>
      <trkpt lat="42.602672" lon="-6.73924">
        <ele>497</ele>
        <time>2018-07-24T12:03:05.990Z</time>
      </trkpt>
      <trkpt lat="42.602763" lon="-6.739244">
        <ele>497</ele>
        <time>2018-07-24T12:03:33.990Z</time>
      </trkpt>
      <trkpt lat="42.602848" lon="-6.739192">
        <ele>497</ele>
        <time>2018-07-24T12:03:43.990Z</time>
      </trkpt>
      <trkpt lat="42.602761" lon="-6.739244">
        <ele>497</ele>
        <time>2018-07-24T12:04:07.990Z</time>
      </trkpt>
      <trkpt lat="42.602857" lon="-6.739224">
        <ele>496</ele>
        <time>2018-07-24T12:04:55.990Z</time>
      </trkpt>
      <trkpt lat="42.602948" lon="-6.739201">
        <ele>496</ele>
        <time>2018-07-24T12:05:12.990Z</time>
      </trkpt>
      <trkpt lat="42.602857" lon="-6.739202">
        <ele>497</ele>
        <time>2018-07-24T12:05:34.990Z</time>
      </trkpt>
      <trkpt lat="42.602773" lon="-6.739254">
        <ele>497</ele>
        <time>2018-07-24T12:06:22.000Z</time>
      </trkpt>
      <trkpt lat="42.602859" lon="-6.73921">
        <ele>496</ele>
        <time>2018-07-24T12:07:00.990Z</time>
      </trkpt>
      <trkpt lat="42.602771" lon="-6.739241">
        <ele>497</ele>
        <time>2018-07-24T12:07:31.990Z</time>
      </trkpt>
      <trkpt lat="42.602769" lon="-6.739378">
        <ele>497</ele>
        <time>2018-07-24T12:08:07.990Z</time>
      </trkpt>
      <trkpt lat="42.602818" lon="-6.7395">
        <ele>498</ele>
        <time>2018-07-24T12:08:13.990Z</time>
      </trkpt>
      <trkpt lat="42.602871" lon="-6.73962">
        <ele>498</ele>
        <time>2018-07-24T12:08:21.990Z</time>
      </trkpt>
      <trkpt lat="42.60293" lon="-6.739724">
        <ele>498</ele>
        <time>2018-07-24T12:08:27.990Z</time>
      </trkpt>
      <trkpt lat="42.602976" lon="-6.739836">
        <ele>499</ele>
        <time>2018-07-24T12:08:32.990Z</time>
      </trkpt>
      <trkpt lat="42.603036" lon="-6.739955">
        <ele>499</ele>
        <time>2018-07-24T12:08:37.990Z</time>
      </trkpt>
      <trkpt lat="42.603098" lon="-6.740056">
        <ele>501</ele>
        <time>2018-07-24T12:08:42.990Z</time>
      </trkpt>
      <trkpt lat="42.603158" lon="-6.740157">
        <ele>501</ele>
        <time>2018-07-24T12:08:47.000Z</time>
      </trkpt>
      <trkpt lat="42.603214" lon="-6.740274">
        <ele>501</ele>
        <time>2018-07-24T12:08:52.000Z</time>
      </trkpt>
      <trkpt lat="42.603286" lon="-6.740377">
        <ele>501</ele>
        <time>2018-07-24T12:08:57.000Z</time>
      </trkpt>
      <trkpt lat="42.603332" lon="-6.740487">
        <ele>502</ele>
        <time>2018-07-24T12:09:02.000Z</time>
      </trkpt>
      <trkpt lat="42.60339" lon="-6.740586">
        <ele>503</ele>
        <time>2018-07-24T12:09:07.000Z</time>
      </trkpt>
      <trkpt lat="42.603454" lon="-6.740687">
        <ele>503.5900032</ele>
        <time>2018-07-24T12:09:12.000Z</time>
      </trkpt>
      <trkpt lat="42.603512" lon="-6.740789">
        <ele>504</ele>
        <time>2018-07-24T12:09:17.000Z</time>
      </trkpt>
      <trkpt lat="42.603582" lon="-6.740883">
        <ele>505</ele>
        <time>2018-07-24T12:09:22.000Z</time>
      </trkpt>
      <trkpt lat="42.603634" lon="-6.740986">
        <ele>505</ele>
        <time>2018-07-24T12:09:27.000Z</time>
      </trkpt>
      <trkpt lat="42.603696" lon="-6.7411">
        <ele>506.457367956262</ele>
        <time>2018-07-24T12:09:32.990Z</time>
      </trkpt>
      <trkpt lat="42.603746" lon="-6.741213">
        <ele>507</ele>
        <time>2018-07-24T12:09:38.990Z</time>
      </trkpt>
      <trkpt lat="42.603796" lon="-6.74134">
        <ele>508</ele>
        <time>2018-07-24T12:09:44.990Z</time>
      </trkpt>
      <trkpt lat="42.603836" lon="-6.741454">
        <ele>508</ele>
        <time>2018-07-24T12:09:49.990Z</time>
      </trkpt>
      <trkpt lat="42.603902" lon="-6.741565">
        <ele>509</ele>
        <time>2018-07-24T12:09:55.990Z</time>
      </trkpt>
      <trkpt lat="42.603974" lon="-6.741667">
        <ele>509</ele>
        <time>2018-07-24T12:10:02.000Z</time>
      </trkpt>
      <trkpt lat="42.604044" lon="-6.741748">
        <ele>511</ele>
        <time>2018-07-24T12:10:07.000Z</time>
      </trkpt>
      <trkpt lat="42.604085" lon="-6.741864">
        <ele>511</ele>
        <time>2018-07-24T12:10:12.000Z</time>
      </trkpt>
      <trkpt lat="42.60413" lon="-6.741971">
        <ele>512</ele>
        <time>2018-07-24T12:10:17.000Z</time>
      </trkpt>
      <trkpt lat="42.604191" lon="-6.742069">
        <ele>512</ele>
        <time>2018-07-24T12:10:22.000Z</time>
      </trkpt>
      <trkpt lat="42.604258" lon="-6.742179">
        <ele>513</ele>
        <time>2018-07-24T12:10:27.990Z</time>
      </trkpt>
      <trkpt lat="42.604315" lon="-6.742278">
        <ele>513.416675555556</ele>
        <time>2018-07-24T12:10:32.990Z</time>
      </trkpt>
      <trkpt lat="42.604363" lon="-6.742386">
        <ele>515</ele>
        <time>2018-07-24T12:10:37.990Z</time>
      </trkpt>
      <trkpt lat="42.604398" lon="-6.742508">
        <ele>516</ele>
        <time>2018-07-24T12:10:43.990Z</time>
      </trkpt>
      <trkpt lat="42.604449" lon="-6.742622">
        <ele>516</ele>
        <time>2018-07-24T12:10:49.990Z</time>
      </trkpt>
      <trkpt lat="42.604494" lon="-6.742735">
        <ele>517</ele>
        <time>2018-07-24T12:10:55.990Z</time>
      </trkpt>
      <trkpt lat="42.604532" lon="-6.742867">
        <ele>518</ele>
        <time>2018-07-24T12:11:02.990Z</time>
      </trkpt>
      <trkpt lat="42.604571" lon="-6.742992">
        <ele>519</ele>
        <time>2018-07-24T12:11:09.990Z</time>
      </trkpt>
      <trkpt lat="42.604604" lon="-6.743108">
        <ele>519.585863156806</ele>
        <time>2018-07-24T12:11:14.990Z</time>
      </trkpt>
      <trkpt lat="42.604653" lon="-6.743227">
        <ele>520</ele>
        <time>2018-07-24T12:11:20.990Z</time>
      </trkpt>
      <trkpt lat="42.604677" lon="-6.743349">
        <ele>521</ele>
        <time>2018-07-24T12:11:25.990Z</time>
      </trkpt>
      <trkpt lat="42.604708" lon="-6.743477">
        <ele>521</ele>
        <time>2018-07-24T12:11:31.970Z</time>
      </trkpt>
      <trkpt lat="42.604744" lon="-6.743597">
        <ele>522.5900032</ele>
        <time>2018-07-24T12:11:37.990Z</time>
      </trkpt>
      <trkpt lat="42.604768" lon="-6.743729">
        <ele>523</ele>
        <time>2018-07-24T12:11:42.990Z</time>
      </trkpt>
      <trkpt lat="42.604782" lon="-6.743861">
        <ele>524</ele>
        <time>2018-07-24T12:11:47.990Z</time>
      </trkpt>
      <trkpt lat="42.604787" lon="-6.743999">
        <ele>524</ele>
        <time>2018-07-24T12:11:52.990Z</time>
      </trkpt>
      <trkpt lat="42.604807" lon="-6.744126">
        <ele>524.450383021965</ele>
        <time>2018-07-24T12:11:57.990Z</time>
      </trkpt>
      <trkpt lat="42.604798" lon="-6.744252">
        <ele>525</ele>
        <time>2018-07-24T12:12:00.990Z</time>
      </trkpt>
      <trkpt lat="42.604815" lon="-6.744391">
        <ele>526</ele>
        <time>2018-07-24T12:12:04.990Z</time>
      </trkpt>
      <trkpt lat="42.604838" lon="-6.744518">
        <ele>526</ele>
        <time>2018-07-24T12:12:08.990Z</time>
      </trkpt>
      <trkpt lat="42.604848" lon="-6.744655">
        <ele>527</ele>
        <time>2018-07-24T12:12:12.990Z</time>
      </trkpt>
      <trkpt lat="42.604868" lon="-6.744779">
        <ele>527</ele>
        <time>2018-07-24T12:12:17.000Z</time>
      </trkpt>
      <trkpt lat="42.604884" lon="-6.744907">
        <ele>528</ele>
        <time>2018-07-24T12:12:20.990Z</time>
      </trkpt>
      <trkpt lat="42.604917" lon="-6.745048">
        <ele>528</ele>
        <time>2018-07-24T12:12:25.990Z</time>
      </trkpt>
      <trkpt lat="42.604952" lon="-6.745184">
        <ele>528</ele>
        <time>2018-07-24T12:12:30.990Z</time>
      </trkpt>
      <trkpt lat="42.605" lon="-6.745325">
        <ele>529</ele>
        <time>2018-07-24T12:12:35.990Z</time>
      </trkpt>
      <trkpt lat="42.605028" lon="-6.745473">
        <ele>529.5900032</ele>
        <time>2018-07-24T12:12:40.990Z</time>
      </trkpt>
      <trkpt lat="42.605052" lon="-6.745617">
        <ele>530</ele>
        <time>2018-07-24T12:12:44.990Z</time>
      </trkpt>
      <trkpt lat="42.605078" lon="-6.745746">
        <ele>531</ele>
        <time>2018-07-24T12:12:48.990Z</time>
      </trkpt>
      <trkpt lat="42.605098" lon="-6.745894">
        <ele>531</ele>
        <time>2018-07-24T12:12:52.990Z</time>
      </trkpt>
      <trkpt lat="42.605107" lon="-6.746034">
        <ele>532</ele>
        <time>2018-07-24T12:12:57.000Z</time>
      </trkpt>
      <trkpt lat="42.605129" lon="-6.746156">
        <ele>532</ele>
        <time>2018-07-24T12:13:00.990Z</time>
      </trkpt>
      <trkpt lat="42.60514" lon="-6.746283">
        <ele>532</ele>
        <time>2018-07-24T12:13:04.990Z</time>
      </trkpt>
      <trkpt lat="42.605152" lon="-6.746416">
        <ele>533</ele>
        <time>2018-07-24T12:13:08.990Z</time>
      </trkpt>
      <trkpt lat="42.605175" lon="-6.746541">
        <ele>533</ele>
        <time>2018-07-24T12:13:12.990Z</time>
      </trkpt>
      <trkpt lat="42.605198" lon="-6.746661">
        <ele>534.458014148362</ele>
        <time>2018-07-24T12:13:17.000Z</time>
      </trkpt>
      <trkpt lat="42.605227" lon="-6.746777">
        <ele>536</ele>
        <time>2018-07-24T12:13:20.990Z</time>
      </trkpt>
      <trkpt lat="42.605243" lon="-6.746901">
        <ele>536</ele>
        <time>2018-07-24T12:13:24.990Z</time>
      </trkpt>
      <trkpt lat="42.605263" lon="-6.747048">
        <ele>536.5900032</ele>
        <time>2018-07-24T12:13:29.990Z</time>
      </trkpt>
      <trkpt lat="42.605286" lon="-6.747181">
        <ele>537</ele>
        <time>2018-07-24T12:13:34.990Z</time>
      </trkpt>
      <trkpt lat="42.605313" lon="-6.747316">
        <ele>537</ele>
        <time>2018-07-24T12:13:39.990Z</time>
      </trkpt>
      <trkpt lat="42.605334" lon="-6.747456">
        <ele>538</ele>
        <time>2018-07-24T12:13:45.990Z</time>
      </trkpt>
      <trkpt lat="42.605356" lon="-6.747576">
        <ele>539.6</ele>
        <time>2018-07-24T12:13:51.000Z</time>
      </trkpt>
      <trkpt lat="42.605382" lon="-6.747703">
        <ele>540</ele>
        <time>2018-07-24T12:13:54.990Z</time>
      </trkpt>
      <trkpt lat="42.605407" lon="-6.747821">
        <ele>541</ele>
        <time>2018-07-24T12:13:59.000Z</time>
      </trkpt>
      <trkpt lat="42.605443" lon="-6.747953">
        <ele>541</ele>
        <time>2018-07-24T12:14:04.000Z</time>
      </trkpt>
      <trkpt lat="42.605448" lon="-6.748093">
        <ele>542</ele>
        <time>2018-07-24T12:14:09.000Z</time>
      </trkpt>
      <trkpt lat="42.605482" lon="-6.748221">
        <ele>543</ele>
        <time>2018-07-24T12:14:14.990Z</time>
      </trkpt>
      <trkpt lat="42.605491" lon="-6.748343">
        <ele>544</ele>
        <time>2018-07-24T12:14:19.000Z</time>
      </trkpt>
      <trkpt lat="42.605511" lon="-6.748487">
        <ele>544</ele>
        <time>2018-07-24T12:14:24.000Z</time>
      </trkpt>
      <trkpt lat="42.605543" lon="-6.748606">
        <ele>544</ele>
        <time>2018-07-24T12:14:27.990Z</time>
      </trkpt>
      <trkpt lat="42.605565" lon="-6.748726">
        <ele>545</ele>
        <time>2018-07-24T12:14:31.990Z</time>
      </trkpt>
      <trkpt lat="42.605587" lon="-6.748846">
        <ele>545</ele>
        <time>2018-07-24T12:14:35.990Z</time>
      </trkpt>
      <trkpt lat="42.605612" lon="-6.748992">
        <ele>545</ele>
        <time>2018-07-24T12:14:41.990Z</time>
      </trkpt>
      <trkpt lat="42.605636" lon="-6.749126">
        <ele>546</ele>
        <time>2018-07-24T12:14:45.990Z</time>
      </trkpt>
      <trkpt lat="42.605667" lon="-6.749243">
        <ele>546</ele>
        <time>2018-07-24T12:14:49.990Z</time>
      </trkpt>
      <trkpt lat="42.605677" lon="-6.749379">
        <ele>547</ele>
        <time>2018-07-24T12:14:55.000Z</time>
      </trkpt>
      <trkpt lat="42.605705" lon="-6.749497">
        <ele>547</ele>
        <time>2018-07-24T12:15:00.000Z</time>
      </trkpt>
      <trkpt lat="42.60572" lon="-6.749619">
        <ele>548</ele>
        <time>2018-07-24T12:15:03.990Z</time>
      </trkpt>
      <trkpt lat="42.605754" lon="-6.749746">
        <ele>548.5900032</ele>
        <time>2018-07-24T12:15:08.990Z</time>
      </trkpt>
      <trkpt lat="42.605772" lon="-6.749877">
        <ele>550</ele>
        <time>2018-07-24T12:15:13.990Z</time>
      </trkpt>
      <trkpt lat="42.605777" lon="-6.750023">
        <ele>549.457367956262</ele>
        <time>2018-07-24T12:15:18.990Z</time>
      </trkpt>
      <trkpt lat="42.605795" lon="-6.750165">
        <ele>550</ele>
        <time>2018-07-24T12:15:23.990Z</time>
      </trkpt>
      <trkpt lat="42.605815" lon="-6.750291">
        <ele>550.5900032</ele>
        <time>2018-07-24T12:15:27.990Z</time>
      </trkpt>
      <trkpt lat="42.605842" lon="-6.75042">
        <ele>551</ele>
        <time>2018-07-24T12:15:31.990Z</time>
      </trkpt>
      <trkpt lat="42.605849" lon="-6.750565">
        <ele>552</ele>
        <time>2018-07-24T12:15:35.990Z</time>
      </trkpt>
      <trkpt lat="42.605891" lon="-6.750704">
        <ele>552</ele>
        <time>2018-07-24T12:15:40.990Z</time>
      </trkpt>
      <trkpt lat="42.605906" lon="-6.750832">
        <ele>553.4099968</ele>
        <time>2018-07-24T12:15:45.990Z</time>
      </trkpt>
      <trkpt lat="42.605904" lon="-6.750968">
        <ele>553</ele>
        <time>2018-07-24T12:15:50.000Z</time>
      </trkpt>
      <trkpt lat="42.605907" lon="-6.751105">
        <ele>554</ele>
        <time>2018-07-24T12:15:53.990Z</time>
      </trkpt>
      <trkpt lat="42.605919" lon="-6.75124">
        <ele>554</ele>
        <time>2018-07-24T12:15:57.990Z</time>
      </trkpt>
      <trkpt lat="42.60594" lon="-6.751364">
        <ele>554</ele>
        <time>2018-07-24T12:16:01.990Z</time>
      </trkpt>
      <trkpt lat="42.605947" lon="-6.751493">
        <ele>554</ele>
        <time>2018-07-24T12:16:05.990Z</time>
      </trkpt>
      <trkpt lat="42.605917" lon="-6.751689">
        <ele>554</ele>
        <time>2018-07-24T12:16:09.000Z</time>
      </trkpt>
      <trkpt lat="42.605885" lon="-6.75185">
        <ele>555</ele>
        <time>2018-07-24T12:16:13.000Z</time>
      </trkpt>
      <trkpt lat="42.605917" lon="-6.751981">
        <ele>555</ele>
        <time>2018-07-24T12:16:19.000Z</time>
      </trkpt>
      <trkpt lat="42.605963" lon="-6.752125">
        <ele>556</ele>
        <time>2018-07-24T12:16:24.990Z</time>
      </trkpt>
      <trkpt lat="42.60596" lon="-6.75225">
        <ele>556</ele>
        <time>2018-07-24T12:16:28.000Z</time>
      </trkpt>
      <trkpt lat="42.605951" lon="-6.752405">
        <ele>556.584163434973</ele>
        <time>2018-07-24T12:16:31.990Z</time>
      </trkpt>
      <trkpt lat="42.605953" lon="-6.752538">
        <ele>557.5900032</ele>
        <time>2018-07-24T12:16:35.990Z</time>
      </trkpt>
      <trkpt lat="42.605957" lon="-6.752662">
        <ele>557</ele>
        <time>2018-07-24T12:16:40.990Z</time>
      </trkpt>
      <trkpt lat="42.605951" lon="-6.752793">
        <ele>558</ele>
        <time>2018-07-24T12:16:44.990Z</time>
      </trkpt>
      <trkpt lat="42.605963" lon="-6.752941">
        <ele>559</ele>
        <time>2018-07-24T12:16:49.990Z</time>
      </trkpt>
      <trkpt lat="42.605985" lon="-6.753084">
        <ele>559.5900032</ele>
        <time>2018-07-24T12:16:54.990Z</time>
      </trkpt>
      <trkpt lat="42.606023" lon="-6.753221">
        <ele>561</ele>
        <time>2018-07-24T12:16:59.990Z</time>
      </trkpt>
      <trkpt lat="42.606048" lon="-6.753363">
        <ele>561</ele>
        <time>2018-07-24T12:17:05.990Z</time>
      </trkpt>
      <trkpt lat="42.606076" lon="-6.753507">
        <ele>561.422542320936</ele>
        <time>2018-07-24T12:17:11.990Z</time>
      </trkpt>
      <trkpt lat="42.606109" lon="-6.753621">
        <ele>562</ele>
        <time>2018-07-24T12:17:16.990Z</time>
      </trkpt>
      <trkpt lat="42.606144" lon="-6.753742">
        <ele>563</ele>
        <time>2018-07-24T12:17:21.990Z</time>
      </trkpt>
      <trkpt lat="42.60617" lon="-6.753882">
        <ele>564</ele>
        <time>2018-07-24T12:17:26.990Z</time>
      </trkpt>
      <trkpt lat="42.606187" lon="-6.754002">
        <ele>564</ele>
        <time>2018-07-24T12:17:30.990Z</time>
      </trkpt>
      <trkpt lat="42.606201" lon="-6.754139">
        <ele>566</ele>
        <time>2018-07-24T12:17:35.990Z</time>
      </trkpt>
      <trkpt lat="42.606218" lon="-6.754261">
        <ele>565.418361349477</ele>
        <time>2018-07-24T12:17:40.990Z</time>
      </trkpt>
      <trkpt lat="42.606219" lon="-6.754386">
        <ele>566</ele>
        <time>2018-07-24T12:17:44.990Z</time>
      </trkpt>
      <trkpt lat="42.606214" lon="-6.754513">
        <ele>566</ele>
        <time>2018-07-24T12:17:48.990Z</time>
      </trkpt>
      <trkpt lat="42.606213" lon="-6.754657">
        <ele>567</ele>
        <time>2018-07-24T12:17:53.990Z</time>
      </trkpt>
      <trkpt lat="42.606184" lon="-6.754802">
        <ele>568</ele>
        <time>2018-07-24T12:17:58.000Z</time>
      </trkpt>
      <trkpt lat="42.606163" lon="-6.754938">
        <ele>568</ele>
        <time>2018-07-24T12:18:01.990Z</time>
      </trkpt>
      <trkpt lat="42.606143" lon="-6.755076">
        <ele>569</ele>
        <time>2018-07-24T12:18:05.990Z</time>
      </trkpt>
      <trkpt lat="42.606122" lon="-6.755203">
        <ele>571</ele>
        <time>2018-07-24T12:18:10.960Z</time>
      </trkpt>
      <trkpt lat="42.606119" lon="-6.755341">
        <ele>571</ele>
        <time>2018-07-24T12:18:16.990Z</time>
      </trkpt>
      <trkpt lat="42.606137" lon="-6.755467">
        <ele>571</ele>
        <time>2018-07-24T12:18:25.990Z</time>
      </trkpt>
      <trkpt lat="42.606174" lon="-6.755586">
        <ele>572</ele>
        <time>2018-07-24T12:18:31.990Z</time>
      </trkpt>
      <trkpt lat="42.606229" lon="-6.755701">
        <ele>573</ele>
        <time>2018-07-24T12:18:40.990Z</time>
      </trkpt>
      <trkpt lat="42.60632" lon="-6.755744">
        <ele>574</ele>
        <time>2018-07-24T12:18:46.990Z</time>
      </trkpt>
      <trkpt lat="42.606415" lon="-6.755787">
        <ele>575.46875</ele>
        <time>2018-07-24T12:18:53.000Z</time>
      </trkpt>
      <trkpt lat="42.606504" lon="-6.755836">
        <ele>575</ele>
        <time>2018-07-24T12:18:56.990Z</time>
      </trkpt>
      <trkpt lat="42.606612" lon="-6.755889">
        <ele>576</ele>
        <time>2018-07-24T12:19:01.990Z</time>
      </trkpt>
      <trkpt lat="42.6067" lon="-6.755944">
        <ele>576</ele>
        <time>2018-07-24T12:19:06.990Z</time>
      </trkpt>
      <trkpt lat="42.606794" lon="-6.755992">
        <ele>576</ele>
        <time>2018-07-24T12:19:11.990Z</time>
      </trkpt>
      <trkpt lat="42.60688" lon="-6.756031">
        <ele>576.446972121212</ele>
        <time>2018-07-24T12:19:15.990Z</time>
      </trkpt>
      <trkpt lat="42.606991" lon="-6.756079">
        <ele>577</ele>
        <time>2018-07-24T12:19:19.990Z</time>
      </trkpt>
      <trkpt lat="42.607076" lon="-6.756134">
        <ele>577</ele>
        <time>2018-07-24T12:19:23.990Z</time>
      </trkpt>
      <trkpt lat="42.607161" lon="-6.756204">
        <ele>577</ele>
        <time>2018-07-24T12:19:28.000Z</time>
      </trkpt>
      <trkpt lat="42.607253" lon="-6.756263">
        <ele>577</ele>
        <time>2018-07-24T12:19:31.990Z</time>
      </trkpt>
      <trkpt lat="42.60735" lon="-6.756308">
        <ele>578</ele>
        <time>2018-07-24T12:19:35.990Z</time>
      </trkpt>
      <trkpt lat="42.607448" lon="-6.756336">
        <ele>578</ele>
        <time>2018-07-24T12:19:39.990Z</time>
      </trkpt>
      <trkpt lat="42.60754" lon="-6.756363">
        <ele>579</ele>
        <time>2018-07-24T12:19:43.990Z</time>
      </trkpt>
      <trkpt lat="42.60765" lon="-6.756392">
        <ele>578</ele>
        <time>2018-07-24T12:19:48.000Z</time>
      </trkpt>
      <trkpt lat="42.607763" lon="-6.756419">
        <ele>578</ele>
        <time>2018-07-24T12:19:51.990Z</time>
      </trkpt>
      <trkpt lat="42.607862" lon="-6.756446">
        <ele>579</ele>
        <time>2018-07-24T12:19:55.990Z</time>
      </trkpt>
      <trkpt lat="42.607967" lon="-6.756441">
        <ele>579</ele>
        <time>2018-07-24T12:19:59.990Z</time>
      </trkpt>
      <trkpt lat="42.608068" lon="-6.756464">
        <ele>579</ele>
        <time>2018-07-24T12:20:03.990Z</time>
      </trkpt>
      <trkpt lat="42.608174" lon="-6.756475">
        <ele>579</ele>
        <time>2018-07-24T12:20:08.990Z</time>
      </trkpt>
      <trkpt lat="42.608282" lon="-6.756507">
        <ele>579</ele>
        <time>2018-07-24T12:20:13.990Z</time>
      </trkpt>
      <trkpt lat="42.608358" lon="-6.756622">
        <ele>580</ele>
        <time>2018-07-24T12:20:18.000Z</time>
      </trkpt>
      <trkpt lat="42.608408" lon="-6.756733">
        <ele>580.422542320936</ele>
        <time>2018-07-24T12:20:21.990Z</time>
      </trkpt>
      <trkpt lat="42.608474" lon="-6.756827">
        <ele>580</ele>
        <time>2018-07-24T12:20:25.990Z</time>
      </trkpt>
      <trkpt lat="42.608554" lon="-6.756921">
        <ele>580</ele>
        <time>2018-07-24T12:20:29.990Z</time>
      </trkpt>
      <trkpt lat="42.608626" lon="-6.757014">
        <ele>580</ele>
        <time>2018-07-24T12:20:33.990Z</time>
      </trkpt>
      <trkpt lat="42.608698" lon="-6.757109">
        <ele>580</ele>
        <time>2018-07-24T12:20:38.000Z</time>
      </trkpt>
      <trkpt lat="42.608774" lon="-6.757213">
        <ele>580.4099968</ele>
        <time>2018-07-24T12:20:41.990Z</time>
      </trkpt>
      <trkpt lat="42.608839" lon="-6.757311">
        <ele>580.5900032</ele>
        <time>2018-07-24T12:20:45.990Z</time>
      </trkpt>
      <trkpt lat="42.608904" lon="-6.75741">
        <ele>581</ele>
        <time>2018-07-24T12:20:49.990Z</time>
      </trkpt>
      <trkpt lat="42.608976" lon="-6.757517">
        <ele>581</ele>
        <time>2018-07-24T12:20:53.990Z</time>
      </trkpt>
      <trkpt lat="42.609048" lon="-6.757621">
        <ele>581</ele>
        <time>2018-07-24T12:20:58.990Z</time>
      </trkpt>
      <trkpt lat="42.609118" lon="-6.757704">
        <ele>580</ele>
        <time>2018-07-24T12:21:03.000Z</time>
      </trkpt>
      <trkpt lat="42.609225" lon="-6.757807">
        <ele>580</ele>
        <time>2018-07-24T12:21:05.990Z</time>
      </trkpt>
      <trkpt lat="42.609329" lon="-6.757879">
        <ele>578.541985851638</ele>
        <time>2018-07-24T12:21:08.000Z</time>
      </trkpt>
      <trkpt lat="42.609462" lon="-6.757938">
        <ele>576.4099968</ele>
        <time>2018-07-24T12:21:09.990Z</time>
      </trkpt>
      <trkpt lat="42.6096" lon="-6.757991">
        <ele>575</ele>
        <time>2018-07-24T12:21:11.990Z</time>
      </trkpt>
      <trkpt lat="42.609729" lon="-6.758054">
        <ele>574</ele>
        <time>2018-07-24T12:21:13.990Z</time>
      </trkpt>
      <trkpt lat="42.609842" lon="-6.758132">
        <ele>574</ele>
        <time>2018-07-24T12:21:15.990Z</time>
      </trkpt>
      <trkpt lat="42.609941" lon="-6.758208">
        <ele>574</ele>
        <time>2018-07-24T12:21:18.000Z</time>
      </trkpt>
      <trkpt lat="42.610034" lon="-6.758259">
        <ele>574</ele>
        <time>2018-07-24T12:21:20.020Z</time>
      </trkpt>
      <trkpt lat="42.610125" lon="-6.758312">
        <ele>574</ele>
        <time>2018-07-24T12:21:21.990Z</time>
      </trkpt>
      <trkpt lat="42.610227" lon="-6.758408">
        <ele>575</ele>
        <time>2018-07-24T12:21:24.990Z</time>
      </trkpt>
      <trkpt lat="42.610266" lon="-6.758528">
        <ele>575</ele>
        <time>2018-07-24T12:21:28.000Z</time>
      </trkpt>
      <trkpt lat="42.610277" lon="-6.758668">
        <ele>576</ele>
        <time>2018-07-24T12:21:31.990Z</time>
      </trkpt>
      <trkpt lat="42.610292" lon="-6.758796">
        <ele>575</ele>
        <time>2018-07-24T12:21:35.990Z</time>
      </trkpt>
      <trkpt lat="42.610305" lon="-6.758919">
        <ele>576</ele>
        <time>2018-07-24T12:21:39.960Z</time>
      </trkpt>
      <trkpt lat="42.61032" lon="-6.759062">
        <ele>577</ele>
        <time>2018-07-24T12:21:44.990Z</time>
      </trkpt>
      <trkpt lat="42.610341" lon="-6.759198">
        <ele>577</ele>
        <time>2018-07-24T12:21:51.990Z</time>
      </trkpt>
      <trkpt lat="42.610357" lon="-6.759328">
        <ele>577</ele>
        <time>2018-07-24T12:21:58.000Z</time>
      </trkpt>
      <trkpt lat="42.610368" lon="-6.759455">
        <ele>578</ele>
        <time>2018-07-24T12:22:03.990Z</time>
      </trkpt>
      <trkpt lat="42.610375" lon="-6.759581">
        <ele>579</ele>
        <time>2018-07-24T12:22:09.990Z</time>
      </trkpt>
      <trkpt lat="42.610389" lon="-6.759712">
        <ele>579</ele>
        <time>2018-07-24T12:22:16.990Z</time>
      </trkpt>
      <trkpt lat="42.61042" lon="-6.759848">
        <ele>580</ele>
        <time>2018-07-24T12:22:24.990Z</time>
      </trkpt>
      <trkpt lat="42.610441" lon="-6.759969">
        <ele>579</ele>
        <time>2018-07-24T12:23:25.990Z</time>
      </trkpt>
      <trkpt lat="42.610485" lon="-6.760093">
        <ele>580</ele>
        <time>2018-07-24T12:23:33.000Z</time>
      </trkpt>
      <trkpt lat="42.610532" lon="-6.760217">
        <ele>580</ele>
        <time>2018-07-24T12:23:38.990Z</time>
      </trkpt>
      <trkpt lat="42.610569" lon="-6.760349">
        <ele>579.57843813922</ele>
        <time>2018-07-24T12:23:43.990Z</time>
      </trkpt>
      <trkpt lat="42.610612" lon="-6.760478">
        <ele>580</ele>
        <time>2018-07-24T12:23:48.990Z</time>
      </trkpt>
      <trkpt lat="42.610657" lon="-6.760595">
        <ele>580</ele>
        <time>2018-07-24T12:23:53.990Z</time>
      </trkpt>
      <trkpt lat="42.610698" lon="-6.760729">
        <ele>580.5900032</ele>
        <time>2018-07-24T12:23:58.990Z</time>
      </trkpt>
      <trkpt lat="42.610728" lon="-6.760844">
        <ele>581</ele>
        <time>2018-07-24T12:24:03.000Z</time>
      </trkpt>
      <trkpt lat="42.610779" lon="-6.760978">
        <ele>581</ele>
        <time>2018-07-24T12:24:08.000Z</time>
      </trkpt>
      <trkpt lat="42.610832" lon="-6.761093">
        <ele>580</ele>
        <time>2018-07-24T12:24:11.960Z</time>
      </trkpt>
      <trkpt lat="42.610898" lon="-6.761228">
        <ele>580</ele>
        <time>2018-07-24T12:24:15.990Z</time>
      </trkpt>
      <trkpt lat="42.610945" lon="-6.761337">
        <ele>580</ele>
        <time>2018-07-24T12:24:18.990Z</time>
      </trkpt>
      <trkpt lat="42.610989" lon="-6.761448">
        <ele>580</ele>
        <time>2018-07-24T12:24:21.990Z</time>
      </trkpt>
      <trkpt lat="42.611051" lon="-6.761595">
        <ele>580</ele>
        <time>2018-07-24T12:24:25.990Z</time>
      </trkpt>
      <trkpt lat="42.611119" lon="-6.761736">
        <ele>579.577457679064</ele>
        <time>2018-07-24T12:24:28.990Z</time>
      </trkpt>
      <trkpt lat="42.61118" lon="-6.761851">
        <ele>578.4099968</ele>
        <time>2018-07-24T12:24:30.990Z</time>
      </trkpt>
      <trkpt lat="42.611261" lon="-6.761988">
        <ele>577.4</ele>
        <time>2018-07-24T12:24:33.000Z</time>
      </trkpt>
      <trkpt lat="42.611349" lon="-6.762131">
        <ele>575.561533235529</ele>
        <time>2018-07-24T12:24:34.990Z</time>
      </trkpt>
      <trkpt lat="42.611444" lon="-6.762282">
        <ele>575</ele>
        <time>2018-07-24T12:24:36.990Z</time>
      </trkpt>
      <trkpt lat="42.611544" lon="-6.76244">
        <ele>574</ele>
        <time>2018-07-24T12:24:38.990Z</time>
      </trkpt>
      <trkpt lat="42.611637" lon="-6.762575">
        <ele>573.4099968</ele>
        <time>2018-07-24T12:24:40.990Z</time>
      </trkpt>
      <trkpt lat="42.611727" lon="-6.762699">
        <ele>571.545454545455</ele>
        <time>2018-07-24T12:24:43.000Z</time>
      </trkpt>
      <trkpt lat="42.611813" lon="-6.762804">
        <ele>570.4099968</ele>
        <time>2018-07-24T12:24:44.990Z</time>
      </trkpt>
      <trkpt lat="42.6119" lon="-6.762891">
        <ele>570</ele>
        <time>2018-07-24T12:24:46.990Z</time>
      </trkpt>
      <trkpt lat="42.611991" lon="-6.762987">
        <ele>568.3799936</ele>
        <time>2018-07-24T12:24:49.020Z</time>
      </trkpt>
      <trkpt lat="42.612062" lon="-6.763115">
        <ele>566.553027878788</ele>
        <time>2018-07-24T12:24:50.990Z</time>
      </trkpt>
      <trkpt lat="42.612134" lon="-6.763251">
        <ele>566</ele>
        <time>2018-07-24T12:24:53.000Z</time>
      </trkpt>
      <trkpt lat="42.612213" lon="-6.763388">
        <ele>565</ele>
        <time>2018-07-24T12:24:54.990Z</time>
      </trkpt>
      <trkpt lat="42.612266" lon="-6.763523">
        <ele>564.4099968</ele>
        <time>2018-07-24T12:24:56.990Z</time>
      </trkpt>
      <trkpt lat="42.612326" lon="-6.763653">
        <ele>563.557248104432</ele>
        <time>2018-07-24T12:24:58.990Z</time>
      </trkpt>
      <trkpt lat="42.612392" lon="-6.763771">
        <ele>561.8199936</ele>
        <time>2018-07-24T12:25:00.990Z</time>
      </trkpt>
      <trkpt lat="42.612467" lon="-6.763859">
        <ele>560.4</ele>
        <time>2018-07-24T12:25:03.000Z</time>
      </trkpt>
      <trkpt lat="42.612551" lon="-6.763937">
        <ele>560</ele>
        <time>2018-07-24T12:25:04.990Z</time>
      </trkpt>
      <trkpt lat="42.612665" lon="-6.763998">
        <ele>559</ele>
        <time>2018-07-24T12:25:06.990Z</time>
      </trkpt>
      <trkpt lat="42.612764" lon="-6.764017">
        <ele>558</ele>
        <time>2018-07-24T12:25:08.990Z</time>
      </trkpt>
      <trkpt lat="42.612862" lon="-6.764027">
        <ele>557</ele>
        <time>2018-07-24T12:25:10.990Z</time>
      </trkpt>
      <trkpt lat="42.612998" lon="-6.764027">
        <ele>555</ele>
        <time>2018-07-24T12:25:13.990Z</time>
      </trkpt>
      <trkpt lat="42.613106" lon="-6.764032">
        <ele>554</ele>
        <time>2018-07-24T12:25:15.990Z</time>
      </trkpt>
      <trkpt lat="42.613219" lon="-6.764018">
        <ele>553</ele>
        <time>2018-07-24T12:25:18.000Z</time>
      </trkpt>
      <trkpt lat="42.613335" lon="-6.763994">
        <ele>552.546153618936</ele>
        <time>2018-07-24T12:25:19.990Z</time>
      </trkpt>
      <trkpt lat="42.61346" lon="-6.76397">
        <ele>552</ele>
        <time>2018-07-24T12:25:22.000Z</time>
      </trkpt>
      <trkpt lat="42.613589" lon="-6.763954">
        <ele>551.404039098055</ele>
        <time>2018-07-24T12:25:23.000Z</time>
      </trkpt>
      <trkpt lat="42.613683" lon="-6.763932">
        <ele>551</ele>
        <time>2018-07-24T12:25:24.000Z</time>
      </trkpt>
      <trkpt lat="42.613844" lon="-6.763941">
        <ele>550.708732555394</ele>
        <time>2018-07-24T12:25:25.990Z</time>
      </trkpt>
      <trkpt lat="42.613975" lon="-6.76394">
        <ele>549</ele>
        <time>2018-07-24T12:25:27.960Z</time>
      </trkpt>
      <trkpt lat="42.614086" lon="-6.76399">
        <ele>549</ele>
        <time>2018-07-24T12:25:30.000Z</time>
      </trkpt>
      <trkpt lat="42.614204" lon="-6.764009">
        <ele>550</ele>
        <time>2018-07-24T12:25:32.990Z</time>
      </trkpt>
      <trkpt lat="42.614302" lon="-6.764046">
        <ele>550</ele>
        <time>2018-07-24T12:25:35.990Z</time>
      </trkpt>
      <trkpt lat="42.614394" lon="-6.764073">
        <ele>550</ele>
        <time>2018-07-24T12:25:42.990Z</time>
      </trkpt>
      <trkpt lat="42.614506" lon="-6.764093">
        <ele>551</ele>
        <time>2018-07-24T12:25:46.990Z</time>
      </trkpt>
      <trkpt lat="42.614621" lon="-6.764091">
        <ele>551</ele>
        <time>2018-07-24T12:25:50.000Z</time>
      </trkpt>
      <trkpt lat="42.614727" lon="-6.764091">
        <ele>551</ele>
        <time>2018-07-24T12:25:52.990Z</time>
      </trkpt>
      <trkpt lat="42.614827" lon="-6.764087">
        <ele>551</ele>
        <time>2018-07-24T12:25:55.990Z</time>
      </trkpt>
      <trkpt lat="42.614916" lon="-6.764061">
        <ele>551</ele>
        <time>2018-07-24T12:25:58.990Z</time>
      </trkpt>
      <trkpt lat="42.615021" lon="-6.764032">
        <ele>551</ele>
        <time>2018-07-24T12:26:03.990Z</time>
      </trkpt>
      <trkpt lat="42.615131" lon="-6.763994">
        <ele>552</ele>
        <time>2018-07-24T12:26:09.000Z</time>
      </trkpt>
      <trkpt lat="42.615233" lon="-6.763966">
        <ele>552</ele>
        <time>2018-07-24T12:26:11.000Z</time>
      </trkpt>
      <trkpt lat="42.615318" lon="-6.764041">
        <ele>552</ele>
        <time>2018-07-24T12:26:14.990Z</time>
      </trkpt>
      <trkpt lat="42.615425" lon="-6.764088">
        <ele>552</ele>
        <time>2018-07-24T12:26:18.990Z</time>
      </trkpt>
      <trkpt lat="42.615583" lon="-6.764179">
        <ele>552</ele>
        <time>2018-07-24T12:26:24.000Z</time>
      </trkpt>
      <trkpt lat="42.61564" lon="-6.764278">
        <ele>552</ele>
        <time>2018-07-24T12:26:26.000Z</time>
      </trkpt>
      <trkpt lat="42.615698" lon="-6.764384">
        <ele>552</ele>
        <time>2018-07-24T12:26:28.990Z</time>
      </trkpt>
      <trkpt lat="42.61575" lon="-6.764535">
        <ele>551</ele>
        <time>2018-07-24T12:26:31.990Z</time>
      </trkpt>
      <trkpt lat="42.615761" lon="-6.764686">
        <ele>551</ele>
        <time>2018-07-24T12:26:34.990Z</time>
      </trkpt>
      <trkpt lat="42.615765" lon="-6.764853">
        <ele>551</ele>
        <time>2018-07-24T12:26:38.000Z</time>
      </trkpt>
      <trkpt lat="42.615779" lon="-6.764991">
        <ele>551</ele>
        <time>2018-07-24T12:26:40.000Z</time>
      </trkpt>
      <trkpt lat="42.615807" lon="-6.765115">
        <ele>551</ele>
        <time>2018-07-24T12:26:42.000Z</time>
      </trkpt>
      <trkpt lat="42.615824" lon="-6.765288">
        <ele>551</ele>
        <time>2018-07-24T12:26:45.000Z</time>
      </trkpt>
      <trkpt lat="42.615834" lon="-6.765464">
        <ele>551</ele>
        <time>2018-07-24T12:26:48.000Z</time>
      </trkpt>
      <trkpt lat="42.615845" lon="-6.765608">
        <ele>551</ele>
        <time>2018-07-24T12:26:50.990Z</time>
      </trkpt>
      <trkpt lat="42.61582" lon="-6.765786">
        <ele>551</ele>
        <time>2018-07-24T12:26:54.000Z</time>
      </trkpt>
      <trkpt lat="42.615799" lon="-6.765941">
        <ele>551</ele>
        <time>2018-07-24T12:26:55.990Z</time>
      </trkpt>
      <trkpt lat="42.615782" lon="-6.766067">
        <ele>551</ele>
        <time>2018-07-24T12:26:57.990Z</time>
      </trkpt>
      <trkpt lat="42.615699" lon="-6.766194">
        <ele>550.705877923903</ele>
        <time>2018-07-24T12:27:00.990Z</time>
      </trkpt>
      <trkpt lat="42.61562" lon="-6.766262">
        <ele>550</ele>
        <time>2018-07-24T12:27:03.990Z</time>
      </trkpt>
      <trkpt lat="42.615518" lon="-6.766314">
        <ele>550</ele>
        <time>2018-07-24T12:27:19.000Z</time>
      </trkpt>
      <trkpt lat="42.615429" lon="-6.766392">
        <ele>550</ele>
        <time>2018-07-24T12:27:22.990Z</time>
      </trkpt>
      <trkpt lat="42.61536" lon="-6.766487">
        <ele>550</ele>
        <time>2018-07-24T12:27:25.000Z</time>
      </trkpt>
      <trkpt lat="42.61527" lon="-6.766555">
        <ele>549.542632043738</ele>
        <time>2018-07-24T12:27:27.990Z</time>
      </trkpt>
      <trkpt lat="42.615195" lon="-6.766631">
        <ele>549</ele>
        <time>2018-07-24T12:27:30.990Z</time>
      </trkpt>
      <trkpt lat="42.61513" lon="-6.766725">
        <ele>549</ele>
        <time>2018-07-24T12:27:33.990Z</time>
      </trkpt>
      <trkpt lat="42.615038" lon="-6.766842">
        <ele>549</ele>
        <time>2018-07-24T12:27:37.990Z</time>
      </trkpt>
      <trkpt lat="42.61493" lon="-6.766891">
        <ele>549</ele>
        <time>2018-07-24T12:27:40.990Z</time>
      </trkpt>
      <trkpt lat="42.614815" lon="-6.766914">
        <ele>549</ele>
        <time>2018-07-24T12:27:43.990Z</time>
      </trkpt>
      <trkpt lat="42.614692" lon="-6.76695">
        <ele>549</ele>
        <time>2018-07-24T12:27:46.990Z</time>
      </trkpt>
      <trkpt lat="42.614573" lon="-6.766999">
        <ele>548</ele>
        <time>2018-07-24T12:27:50.000Z</time>
      </trkpt>
      <trkpt lat="42.614456" lon="-6.767077">
        <ele>548</ele>
        <time>2018-07-24T12:27:52.990Z</time>
      </trkpt>
      <trkpt lat="42.614372" lon="-6.767182">
        <ele>548</ele>
        <time>2018-07-24T12:27:55.990Z</time>
      </trkpt>
      <trkpt lat="42.614277" lon="-6.767291">
        <ele>547</ele>
        <time>2018-07-24T12:27:58.990Z</time>
      </trkpt>
      <trkpt lat="42.614193" lon="-6.767404">
        <ele>547</ele>
        <time>2018-07-24T12:28:01.990Z</time>
      </trkpt>
      <trkpt lat="42.614116" lon="-6.76751">
        <ele>547</ele>
        <time>2018-07-24T12:28:05.000Z</time>
      </trkpt>
      <trkpt lat="42.61403" lon="-6.767574">
        <ele>547</ele>
        <time>2018-07-24T12:28:08.990Z</time>
      </trkpt>
      <trkpt lat="42.61394" lon="-6.76764">
        <ele>547</ele>
        <time>2018-07-24T12:28:15.000Z</time>
      </trkpt>
      <trkpt lat="42.613858" lon="-6.767692">
        <ele>548</ele>
        <time>2018-07-24T12:28:17.990Z</time>
      </trkpt>
      <trkpt lat="42.613772" lon="-6.767742">
        <ele>548</ele>
        <time>2018-07-24T12:28:20.990Z</time>
      </trkpt>
      <trkpt lat="42.613689" lon="-6.767797">
        <ele>548</ele>
        <time>2018-07-24T12:28:23.990Z</time>
      </trkpt>
      <trkpt lat="42.613604" lon="-6.767862">
        <ele>548</ele>
        <time>2018-07-24T12:28:26.990Z</time>
      </trkpt>
      <trkpt lat="42.613521" lon="-6.767923">
        <ele>548</ele>
        <time>2018-07-24T12:28:30.000Z</time>
      </trkpt>
      <trkpt lat="42.61343" lon="-6.76797">
        <ele>548</ele>
        <time>2018-07-24T12:28:32.990Z</time>
      </trkpt>
      <trkpt lat="42.613335" lon="-6.768031">
        <ele>550</ele>
        <time>2018-07-24T12:28:35.990Z</time>
      </trkpt>
      <trkpt lat="42.613233" lon="-6.768074">
        <ele>550</ele>
        <time>2018-07-24T12:28:38.990Z</time>
      </trkpt>
      <trkpt lat="42.613133" lon="-6.768139">
        <ele>548.55638750409</ele>
        <time>2018-07-24T12:28:40.990Z</time>
      </trkpt>
      <trkpt lat="42.613011" lon="-6.768224">
        <ele>546.4099968</ele>
        <time>2018-07-24T12:28:42.990Z</time>
      </trkpt>
      <trkpt lat="42.612879" lon="-6.768324">
        <ele>545</ele>
        <time>2018-07-24T12:28:45.000Z</time>
      </trkpt>
      <trkpt lat="42.612724" lon="-6.76844">
        <ele>544</ele>
        <time>2018-07-24T12:28:46.990Z</time>
      </trkpt>
      <trkpt lat="42.612564" lon="-6.768509">
        <ele>543</ele>
        <time>2018-07-24T12:28:48.990Z</time>
      </trkpt>
      <trkpt lat="42.612397" lon="-6.768571">
        <ele>542.4099968</ele>
        <time>2018-07-24T12:28:50.990Z</time>
      </trkpt>
      <trkpt lat="42.612232" lon="-6.76867">
        <ele>542</ele>
        <time>2018-07-24T12:28:52.990Z</time>
      </trkpt>
      <trkpt lat="42.61209" lon="-6.768787">
        <ele>541.696077201084</ele>
        <time>2018-07-24T12:28:55.000Z</time>
      </trkpt>
      <trkpt lat="42.611989" lon="-6.768923">
        <ele>541</ele>
        <time>2018-07-24T12:28:56.990Z</time>
      </trkpt>
      <trkpt lat="42.611916" lon="-6.769067">
        <ele>541</ele>
        <time>2018-07-24T12:28:58.990Z</time>
      </trkpt>
      <trkpt lat="42.611863" lon="-6.769203">
        <ele>541</ele>
        <time>2018-07-24T12:29:00.990Z</time>
      </trkpt>
      <trkpt lat="42.611816" lon="-6.769358">
        <ele>541</ele>
        <time>2018-07-24T12:29:02.990Z</time>
      </trkpt>
      <trkpt lat="42.611795" lon="-6.769497">
        <ele>541</ele>
        <time>2018-07-24T12:29:05.000Z</time>
      </trkpt>
      <trkpt lat="42.611786" lon="-6.769624">
        <ele>541.5900032</ele>
        <time>2018-07-24T12:29:06.990Z</time>
      </trkpt>
      <trkpt lat="42.611768" lon="-6.769745">
        <ele>543</ele>
        <time>2018-07-24T12:29:08.990Z</time>
      </trkpt>
      <trkpt lat="42.611727" lon="-6.769891">
        <ele>543</ele>
        <time>2018-07-24T12:29:11.990Z</time>
      </trkpt>
      <trkpt lat="42.611678" lon="-6.770004">
        <ele>543</ele>
        <time>2018-07-24T12:29:15.000Z</time>
      </trkpt>
      <trkpt lat="42.611626" lon="-6.77011">
        <ele>544</ele>
        <time>2018-07-24T12:29:17.990Z</time>
      </trkpt>
      <trkpt lat="42.611559" lon="-6.770215">
        <ele>544.5900032</ele>
        <time>2018-07-24T12:29:21.990Z</time>
      </trkpt>
      <trkpt lat="42.611478" lon="-6.770316">
        <ele>546</ele>
        <time>2018-07-24T12:29:26.990Z</time>
      </trkpt>
      <trkpt lat="42.611419" lon="-6.770422">
        <ele>547</ele>
        <time>2018-07-24T12:29:31.990Z</time>
      </trkpt>
      <trkpt lat="42.611354" lon="-6.770522">
        <ele>548</ele>
        <time>2018-07-24T12:29:36.990Z</time>
      </trkpt>
      <trkpt lat="42.611293" lon="-6.770629">
        <ele>549</ele>
        <time>2018-07-24T12:29:41.990Z</time>
      </trkpt>
      <trkpt lat="42.61124" lon="-6.770734">
        <ele>550</ele>
        <time>2018-07-24T12:29:46.990Z</time>
      </trkpt>
      <trkpt lat="42.61118" lon="-6.770842">
        <ele>551</ele>
        <time>2018-07-24T12:29:53.990Z</time>
      </trkpt>
      <trkpt lat="42.611125" lon="-6.770939">
        <ele>552</ele>
        <time>2018-07-24T12:30:00.990Z</time>
      </trkpt>
      <trkpt lat="42.611074" lon="-6.771048">
        <ele>554</ele>
        <time>2018-07-24T12:30:08.990Z</time>
      </trkpt>
      <trkpt lat="42.611024" lon="-6.771156">
        <ele>554</ele>
        <time>2018-07-24T12:30:15.990Z</time>
      </trkpt>
      <trkpt lat="42.610952" lon="-6.771256">
        <ele>556</ele>
        <time>2018-07-24T12:30:23.990Z</time>
      </trkpt>
      <trkpt lat="42.610879" lon="-6.771348">
        <ele>556</ele>
        <time>2018-07-24T12:30:30.990Z</time>
      </trkpt>
      <trkpt lat="42.610801" lon="-6.771431">
        <ele>557.457367956262</ele>
        <time>2018-07-24T12:30:38.990Z</time>
      </trkpt>
      <trkpt lat="42.610729" lon="-6.771504">
        <ele>559</ele>
        <time>2018-07-24T12:30:45.000Z</time>
      </trkpt>
      <trkpt lat="42.610657" lon="-6.771588">
        <ele>560</ele>
        <time>2018-07-24T12:30:50.990Z</time>
      </trkpt>
      <trkpt lat="42.610581" lon="-6.771686">
        <ele>561</ele>
        <time>2018-07-24T12:30:56.990Z</time>
      </trkpt>
      <trkpt lat="42.610525" lon="-6.771782">
        <ele>561</ele>
        <time>2018-07-24T12:31:02.990Z</time>
      </trkpt>
      <trkpt lat="42.610484" lon="-6.771893">
        <ele>562</ele>
        <time>2018-07-24T12:31:08.990Z</time>
      </trkpt>
      <trkpt lat="42.610443" lon="-6.77201">
        <ele>563</ele>
        <time>2018-07-24T12:31:15.000Z</time>
      </trkpt>
      <trkpt lat="42.610398" lon="-6.77213">
        <ele>563</ele>
        <time>2018-07-24T12:31:21.990Z</time>
      </trkpt>
      <trkpt lat="42.610357" lon="-6.77224">
        <ele>564</ele>
        <time>2018-07-24T12:31:28.990Z</time>
      </trkpt>
      <trkpt lat="42.61032" lon="-6.772362">
        <ele>565.5900032</ele>
        <time>2018-07-24T12:31:35.990Z</time>
      </trkpt>
      <trkpt lat="42.610275" lon="-6.772479">
        <ele>566</ele>
        <time>2018-07-24T12:31:41.990Z</time>
      </trkpt>
      <trkpt lat="42.610218" lon="-6.772582">
        <ele>567</ele>
        <time>2018-07-24T12:31:46.990Z</time>
      </trkpt>
      <trkpt lat="42.61016" lon="-6.772693">
        <ele>568</ele>
        <time>2018-07-24T12:31:51.990Z</time>
      </trkpt>
      <trkpt lat="42.610099" lon="-6.772785">
        <ele>569</ele>
        <time>2018-07-24T12:31:57.990Z</time>
      </trkpt>
      <trkpt lat="42.610042" lon="-6.772926">
        <ele>569</ele>
        <time>2018-07-24T12:32:02.990Z</time>
      </trkpt>
      <trkpt lat="42.609995" lon="-6.773066">
        <ele>568</ele>
        <time>2018-07-24T12:32:05.990Z</time>
      </trkpt>
      <trkpt lat="42.609977" lon="-6.77319">
        <ele>568</ele>
        <time>2018-07-24T12:32:07.990Z</time>
      </trkpt>
      <trkpt lat="42.60997" lon="-6.773351">
        <ele>567.4</ele>
        <time>2018-07-24T12:32:10.000Z</time>
      </trkpt>
      <trkpt lat="42.60997" lon="-6.773545">
        <ele>566</ele>
        <time>2018-07-24T12:32:11.990Z</time>
      </trkpt>
      <trkpt lat="42.609975" lon="-6.773774">
        <ele>564.558140919419</ele>
        <time>2018-07-24T12:32:13.990Z</time>
      </trkpt>
      <trkpt lat="42.609978" lon="-6.773896">
        <ele>563.579712833451</ele>
        <time>2018-07-24T12:32:15.000Z</time>
      </trkpt>
      <trkpt lat="42.609977" lon="-6.774025">
        <ele>562.4099968</ele>
        <time>2018-07-24T12:32:15.990Z</time>
      </trkpt>
      <trkpt lat="42.609974" lon="-6.774161">
        <ele>562</ele>
        <time>2018-07-24T12:32:16.990Z</time>
      </trkpt>
      <trkpt lat="42.609972" lon="-6.774299">
        <ele>561.4099968</ele>
        <time>2018-07-24T12:32:17.990Z</time>
      </trkpt>
      <trkpt lat="42.609968" lon="-6.774441">
        <ele>560.549616978035</ele>
        <time>2018-07-24T12:32:18.990Z</time>
      </trkpt>
      <trkpt lat="42.609965" lon="-6.774583">
        <ele>559.579712833451</ele>
        <time>2018-07-24T12:32:20.000Z</time>
      </trkpt>
      <trkpt lat="42.609957" lon="-6.774729">
        <ele>557.8199936</ele>
        <time>2018-07-24T12:32:20.990Z</time>
      </trkpt>
      <trkpt lat="42.609946" lon="-6.774873">
        <ele>556.4099968</ele>
        <time>2018-07-24T12:32:21.990Z</time>
      </trkpt>
      <trkpt lat="42.60994" lon="-6.775021">
        <ele>555.542632043738</ele>
        <time>2018-07-24T12:32:22.990Z</time>
      </trkpt>
      <trkpt lat="42.609935" lon="-6.775166">
        <ele>555</ele>
        <time>2018-07-24T12:32:23.990Z</time>
      </trkpt>
      <trkpt lat="42.609955" lon="-6.775291">
        <ele>555</ele>
        <time>2018-07-24T12:32:25.000Z</time>
      </trkpt>
      <trkpt lat="42.609973" lon="-6.775421">
        <ele>554.4099968</ele>
        <time>2018-07-24T12:32:25.990Z</time>
      </trkpt>
      <trkpt lat="42.609995" lon="-6.775553">
        <ele>554</ele>
        <time>2018-07-24T12:32:26.990Z</time>
      </trkpt>
      <trkpt lat="42.610002" lon="-6.775679">
        <ele>554</ele>
        <time>2018-07-24T12:32:27.990Z</time>
      </trkpt>
      <trkpt lat="42.610002" lon="-6.775806">
        <ele>554</ele>
        <time>2018-07-24T12:32:28.990Z</time>
      </trkpt>
      <trkpt lat="42.609996" lon="-6.775934">
        <ele>553.571423346987</ele>
        <time>2018-07-24T12:32:30.000Z</time>
      </trkpt>
      <trkpt lat="42.609979" lon="-6.776147">
        <ele>552.4099968</ele>
        <time>2018-07-24T12:32:31.990Z</time>
      </trkpt>
      <trkpt lat="42.609963" lon="-6.776313">
        <ele>551.5900032</ele>
        <time>2018-07-24T12:32:33.990Z</time>
      </trkpt>
      <trkpt lat="42.609906" lon="-6.776441">
        <ele>553</ele>
        <time>2018-07-24T12:32:40.000Z</time>
      </trkpt>
      <trkpt lat="42.609892" lon="-6.77658">
        <ele>553</ele>
        <time>2018-07-24T12:32:45.990Z</time>
      </trkpt>
      <trkpt lat="42.609905" lon="-6.776701">
        <ele>553</ele>
        <time>2018-07-24T12:32:49.000Z</time>
      </trkpt>
      <trkpt lat="42.609897" lon="-6.776848">
        <ele>554</ele>
        <time>2018-07-24T12:32:52.990Z</time>
      </trkpt>
      <trkpt lat="42.609841" lon="-6.776946">
        <ele>554</ele>
        <time>2018-07-24T12:32:56.990Z</time>
      </trkpt>
      <trkpt lat="42.60978" lon="-6.777043">
        <ele>555</ele>
        <time>2018-07-24T12:33:00.990Z</time>
      </trkpt>
      <trkpt lat="42.609691" lon="-6.777126">
        <ele>556</ele>
        <time>2018-07-24T12:33:05.990Z</time>
      </trkpt>
      <trkpt lat="42.609612" lon="-6.777212">
        <ele>556</ele>
        <time>2018-07-24T12:33:10.990Z</time>
      </trkpt>
      <trkpt lat="42.60955" lon="-6.77732">
        <ele>557</ele>
        <time>2018-07-24T12:33:19.990Z</time>
      </trkpt>
      <trkpt lat="42.609494" lon="-6.777424">
        <ele>557</ele>
        <time>2018-07-24T12:33:24.990Z</time>
      </trkpt>
      <trkpt lat="42.609442" lon="-6.777525">
        <ele>559</ele>
        <time>2018-07-24T12:33:31.990Z</time>
      </trkpt>
      <trkpt lat="42.609416" lon="-6.777646">
        <ele>560</ele>
        <time>2018-07-24T12:33:39.000Z</time>
      </trkpt>
      <trkpt lat="42.609368" lon="-6.77776">
        <ele>561.585863156806</ele>
        <time>2018-07-24T12:33:45.990Z</time>
      </trkpt>
      <trkpt lat="42.60932" lon="-6.777878">
        <ele>563.6</ele>
        <time>2018-07-24T12:33:54.000Z</time>
      </trkpt>
      <trkpt lat="42.609277" lon="-6.777997">
        <ele>565</ele>
        <time>2018-07-24T12:34:04.000Z</time>
      </trkpt>
      <trkpt lat="42.609222" lon="-6.778098">
        <ele>566.5900032</ele>
        <time>2018-07-24T12:34:11.990Z</time>
      </trkpt>
      <trkpt lat="42.609137" lon="-6.778144">
        <ele>569</ele>
        <time>2018-07-24T12:34:22.990Z</time>
      </trkpt>
      <trkpt lat="42.609045" lon="-6.778174">
        <ele>571</ele>
        <time>2018-07-24T12:34:36.990Z</time>
      </trkpt>
      <trkpt lat="42.608959" lon="-6.77822">
        <ele>573</ele>
        <time>2018-07-24T12:34:50.990Z</time>
      </trkpt>
      <trkpt lat="42.608873" lon="-6.778261">
        <ele>574</ele>
        <time>2018-07-24T12:35:00.990Z</time>
      </trkpt>
      <trkpt lat="42.608788" lon="-6.778322">
        <ele>575</ele>
        <time>2018-07-24T12:35:09.990Z</time>
      </trkpt>
      <trkpt lat="42.608722" lon="-6.778406">
        <ele>576</ele>
        <time>2018-07-24T12:35:22.990Z</time>
      </trkpt>
      <trkpt lat="42.608651" lon="-6.778484">
        <ele>577</ele>
        <time>2018-07-24T12:35:32.990Z</time>
      </trkpt>
      <trkpt lat="42.608598" lon="-6.778584">
        <ele>578</ele>
        <time>2018-07-24T12:35:41.990Z</time>
      </trkpt>
      <trkpt lat="42.608541" lon="-6.77869">
        <ele>577</ele>
        <time>2018-07-24T12:35:50.990Z</time>
      </trkpt>
      <trkpt lat="42.608488" lon="-6.77879">
        <ele>577</ele>
        <time>2018-07-24T12:36:04.000Z</time>
      </trkpt>
      <trkpt lat="42.608545" lon="-6.778694">
        <ele>576</ele>
        <time>2018-07-24T12:37:53.990Z</time>
      </trkpt>
      <trkpt lat="42.608517" lon="-6.778815">
        <ele>577</ele>
        <time>2018-07-24T12:38:48.990Z</time>
      </trkpt>
      <trkpt lat="42.608455" lon="-6.778909">
        <ele>577</ele>
        <time>2018-07-24T12:38:52.990Z</time>
      </trkpt>
      <trkpt lat="42.608391" lon="-6.779003">
        <ele>576</ele>
        <time>2018-07-24T12:38:56.000Z</time>
      </trkpt>
      <trkpt lat="42.608313" lon="-6.779112">
        <ele>576</ele>
        <time>2018-07-24T12:38:58.990Z</time>
      </trkpt>
      <trkpt lat="42.60823" lon="-6.779224">
        <ele>576</ele>
        <time>2018-07-24T12:39:01.990Z</time>
      </trkpt>
      <trkpt lat="42.608138" lon="-6.779328">
        <ele>575.44</ele>
        <time>2018-07-24T12:39:04.960Z</time>
      </trkpt>
      <trkpt lat="42.60804" lon="-6.779451">
        <ele>575.4099968</ele>
        <time>2018-07-24T12:39:07.990Z</time>
      </trkpt>
      <trkpt lat="42.607971" lon="-6.779537">
        <ele>575</ele>
        <time>2018-07-24T12:39:09.990Z</time>
      </trkpt>
      <trkpt lat="42.607906" lon="-6.779624">
        <ele>575</ele>
        <time>2018-07-24T12:39:11.990Z</time>
      </trkpt>
      <trkpt lat="42.607838" lon="-6.779713">
        <ele>574</ele>
        <time>2018-07-24T12:39:13.990Z</time>
      </trkpt>
      <trkpt lat="42.607767" lon="-6.779812">
        <ele>574</ele>
        <time>2018-07-24T12:39:16.000Z</time>
      </trkpt>
      <trkpt lat="42.607704" lon="-6.77992">
        <ele>574</ele>
        <time>2018-07-24T12:39:17.990Z</time>
      </trkpt>
      <trkpt lat="42.607629" lon="-6.780049">
        <ele>573.4099968</ele>
        <time>2018-07-24T12:39:19.990Z</time>
      </trkpt>
      <trkpt lat="42.607566" lon="-6.780182">
        <ele>572.594201016584</ele>
        <time>2018-07-24T12:39:21.990Z</time>
      </trkpt>
      <trkpt lat="42.607519" lon="-6.780325">
        <ele>571.549616978035</ele>
        <time>2018-07-24T12:39:23.990Z</time>
      </trkpt>
      <trkpt lat="42.607508" lon="-6.780505">
        <ele>570</ele>
        <time>2018-07-24T12:39:26.000Z</time>
      </trkpt>
      <trkpt lat="42.607524" lon="-6.7807">
        <ele>569</ele>
        <time>2018-07-24T12:39:27.990Z</time>
      </trkpt>
      <trkpt lat="42.607547" lon="-6.78091">
        <ele>568.549616978035</ele>
        <time>2018-07-24T12:39:29.990Z</time>
      </trkpt>
      <trkpt lat="42.607544" lon="-6.781108">
        <ele>567</ele>
        <time>2018-07-24T12:39:31.990Z</time>
      </trkpt>
      <trkpt lat="42.607524" lon="-6.781276">
        <ele>567</ele>
        <time>2018-07-24T12:39:33.990Z</time>
      </trkpt>
      <trkpt lat="42.607489" lon="-6.781411">
        <ele>567</ele>
        <time>2018-07-24T12:39:36.000Z</time>
      </trkpt>
      <trkpt lat="42.607431" lon="-6.781539">
        <ele>567</ele>
        <time>2018-07-24T12:39:37.990Z</time>
      </trkpt>
      <trkpt lat="42.607351" lon="-6.78166">
        <ele>567</ele>
        <time>2018-07-24T12:39:39.990Z</time>
      </trkpt>
      <trkpt lat="42.607267" lon="-6.781767">
        <ele>567</ele>
        <time>2018-07-24T12:39:41.990Z</time>
      </trkpt>
      <trkpt lat="42.607179" lon="-6.781857">
        <ele>567</ele>
        <time>2018-07-24T12:39:43.990Z</time>
      </trkpt>
      <trkpt lat="42.607109" lon="-6.781937">
        <ele>567</ele>
        <time>2018-07-24T12:39:46.000Z</time>
      </trkpt>
      <trkpt lat="42.607038" lon="-6.782013">
        <ele>567</ele>
        <time>2018-07-24T12:39:47.990Z</time>
      </trkpt>
      <trkpt lat="42.606947" lon="-6.782124">
        <ele>567</ele>
        <time>2018-07-24T12:39:51.000Z</time>
      </trkpt>
      <trkpt lat="42.606849" lon="-6.782261">
        <ele>567</ele>
        <time>2018-07-24T12:39:53.990Z</time>
      </trkpt>
      <trkpt lat="42.606774" lon="-6.782386">
        <ele>568</ele>
        <time>2018-07-24T12:39:56.990Z</time>
      </trkpt>
      <trkpt lat="42.606708" lon="-6.782494">
        <ele>568</ele>
        <time>2018-07-24T12:39:59.990Z</time>
      </trkpt>
      <trkpt lat="42.606639" lon="-6.782609">
        <ele>569</ele>
        <time>2018-07-24T12:40:02.990Z</time>
      </trkpt>
      <trkpt lat="42.606561" lon="-6.782738">
        <ele>569</ele>
        <time>2018-07-24T12:40:06.000Z</time>
      </trkpt>
      <trkpt lat="42.606482" lon="-6.782866">
        <ele>569</ele>
        <time>2018-07-24T12:40:08.990Z</time>
      </trkpt>
      <trkpt lat="42.606412" lon="-6.782966">
        <ele>568</ele>
        <time>2018-07-24T12:40:11.000Z</time>
      </trkpt>
      <trkpt lat="42.606338" lon="-6.783059">
        <ele>568</ele>
        <time>2018-07-24T12:40:12.990Z</time>
      </trkpt>
      <trkpt lat="42.606272" lon="-6.783146">
        <ele>568</ele>
        <time>2018-07-24T12:40:14.990Z</time>
      </trkpt>
      <trkpt lat="42.606206" lon="-6.783234">
        <ele>568</ele>
        <time>2018-07-24T12:40:16.990Z</time>
      </trkpt>
      <trkpt lat="42.606117" lon="-6.78334">
        <ele>568.5900032</ele>
        <time>2018-07-24T12:40:19.990Z</time>
      </trkpt>
      <trkpt lat="42.606033" lon="-6.783436">
        <ele>569</ele>
        <time>2018-07-24T12:40:22.990Z</time>
      </trkpt>
      <trkpt lat="42.605946" lon="-6.783523">
        <ele>569</ele>
        <time>2018-07-24T12:40:26.000Z</time>
      </trkpt>
      <trkpt lat="42.605877" lon="-6.783604">
        <ele>569</ele>
        <time>2018-07-24T12:40:28.990Z</time>
      </trkpt>
      <trkpt lat="42.605795" lon="-6.783706">
        <ele>568</ele>
        <time>2018-07-24T12:40:31.990Z</time>
      </trkpt>
      <trkpt lat="42.60572" lon="-6.783781">
        <ele>568</ele>
        <time>2018-07-24T12:40:33.990Z</time>
      </trkpt>
      <trkpt lat="42.605621" lon="-6.783873">
        <ele>569</ele>
        <time>2018-07-24T12:40:36.990Z</time>
      </trkpt>
      <trkpt lat="42.605521" lon="-6.783966">
        <ele>569.56</ele>
        <time>2018-07-24T12:40:39.960Z</time>
      </trkpt>
      <trkpt lat="42.605425" lon="-6.784057">
        <ele>570</ele>
        <time>2018-07-24T12:40:42.990Z</time>
      </trkpt>
      <trkpt lat="42.605337" lon="-6.784142">
        <ele>570.6</ele>
        <time>2018-07-24T12:40:46.000Z</time>
      </trkpt>
      <trkpt lat="42.605266" lon="-6.784222">
        <ele>571</ele>
        <time>2018-07-24T12:40:48.990Z</time>
      </trkpt>
      <trkpt lat="42.605184" lon="-6.784305">
        <ele>572</ele>
        <time>2018-07-24T12:40:52.990Z</time>
      </trkpt>
      <trkpt lat="42.605111" lon="-6.78438">
        <ele>573</ele>
        <time>2018-07-24T12:40:56.990Z</time>
      </trkpt>
      <trkpt lat="42.605052" lon="-6.784476">
        <ele>573</ele>
        <time>2018-07-24T12:41:01.000Z</time>
      </trkpt>
      <trkpt lat="42.605037" lon="-6.784618">
        <ele>573</ele>
        <time>2018-07-24T12:41:03.990Z</time>
      </trkpt>
      <trkpt lat="42.605029" lon="-6.784757">
        <ele>573.4</ele>
        <time>2018-07-24T12:41:06.000Z</time>
      </trkpt>
      <trkpt lat="42.605028" lon="-6.784913">
        <ele>571.542632043738</ele>
        <time>2018-07-24T12:41:07.990Z</time>
      </trkpt>
      <trkpt lat="42.605028" lon="-6.785073">
        <ele>571</ele>
        <time>2018-07-24T12:41:09.990Z</time>
      </trkpt>
      <trkpt lat="42.605006" lon="-6.78522">
        <ele>571</ele>
        <time>2018-07-24T12:41:11.990Z</time>
      </trkpt>
      <trkpt lat="42.604973" lon="-6.785356">
        <ele>570</ele>
        <time>2018-07-24T12:41:13.990Z</time>
      </trkpt>
      <trkpt lat="42.604913" lon="-6.785503">
        <ele>570</ele>
        <time>2018-07-24T12:41:16.990Z</time>
      </trkpt>
      <trkpt lat="42.604837" lon="-6.785638">
        <ele>570.5900032</ele>
        <time>2018-07-24T12:41:19.990Z</time>
      </trkpt>
      <trkpt lat="42.604768" lon="-6.785773">
        <ele>572</ele>
        <time>2018-07-24T12:41:22.990Z</time>
      </trkpt>
      <trkpt lat="42.60472" lon="-6.785897">
        <ele>573.6</ele>
        <time>2018-07-24T12:41:26.000Z</time>
      </trkpt>
      <trkpt lat="42.604674" lon="-6.786041">
        <ele>574.450383021965</ele>
        <time>2018-07-24T12:41:29.990Z</time>
      </trkpt>
      <trkpt lat="42.60464" lon="-6.786175">
        <ele>575</ele>
        <time>2018-07-24T12:41:33.990Z</time>
      </trkpt>
      <trkpt lat="42.604618" lon="-6.786308">
        <ele>575</ele>
        <time>2018-07-24T12:41:37.990Z</time>
      </trkpt>
      <trkpt lat="42.60459" lon="-6.786465">
        <ele>576</ele>
        <time>2018-07-24T12:41:41.990Z</time>
      </trkpt>
      <trkpt lat="42.604573" lon="-6.786586">
        <ele>576</ele>
        <time>2018-07-24T12:41:44.990Z</time>
      </trkpt>
      <trkpt lat="42.604557" lon="-6.786742">
        <ele>576</ele>
        <time>2018-07-24T12:41:48.990Z</time>
      </trkpt>
      <trkpt lat="42.604548" lon="-6.786899">
        <ele>576</ele>
        <time>2018-07-24T12:41:52.990Z</time>
      </trkpt>
      <trkpt lat="42.604552" lon="-6.787048">
        <ele>577</ele>
        <time>2018-07-24T12:41:56.990Z</time>
      </trkpt>
      <trkpt lat="42.60457" lon="-6.787186">
        <ele>577</ele>
        <time>2018-07-24T12:42:01.000Z</time>
      </trkpt>
      <trkpt lat="42.604597" lon="-6.787316">
        <ele>578</ele>
        <time>2018-07-24T12:42:04.990Z</time>
      </trkpt>
      <trkpt lat="42.604623" lon="-6.787438">
        <ele>578</ele>
        <time>2018-07-24T12:42:08.990Z</time>
      </trkpt>
      <trkpt lat="42.604646" lon="-6.787557">
        <ele>578</ele>
        <time>2018-07-24T12:42:12.990Z</time>
      </trkpt>
      <trkpt lat="42.604666" lon="-6.787686">
        <ele>578</ele>
        <time>2018-07-24T12:42:16.990Z</time>
      </trkpt>
      <trkpt lat="42.604692" lon="-6.787827">
        <ele>579</ele>
        <time>2018-07-24T12:42:21.000Z</time>
      </trkpt>
      <trkpt lat="42.604713" lon="-6.787963">
        <ele>579.578430880434</ele>
        <time>2018-07-24T12:42:24.990Z</time>
      </trkpt>
      <trkpt lat="42.604759" lon="-6.788101">
        <ele>581.450383021965</ele>
        <time>2018-07-24T12:42:29.990Z</time>
      </trkpt>
      <trkpt lat="42.604775" lon="-6.788225">
        <ele>583</ele>
        <time>2018-07-24T12:42:33.990Z</time>
      </trkpt>
      <trkpt lat="42.604808" lon="-6.78836">
        <ele>583</ele>
        <time>2018-07-24T12:42:37.990Z</time>
      </trkpt>
      <trkpt lat="42.604838" lon="-6.788496">
        <ele>583</ele>
        <time>2018-07-24T12:42:41.990Z</time>
      </trkpt>
      <trkpt lat="42.604869" lon="-6.788625">
        <ele>583.4</ele>
        <time>2018-07-24T12:42:46.000Z</time>
      </trkpt>
      <trkpt lat="42.6049" lon="-6.788757">
        <ele>583</ele>
        <time>2018-07-24T12:42:48.990Z</time>
      </trkpt>
      <trkpt lat="42.604944" lon="-6.788911">
        <ele>583</ele>
        <time>2018-07-24T12:42:51.990Z</time>
      </trkpt>
      <trkpt lat="42.604986" lon="-6.78908">
        <ele>582</ele>
        <time>2018-07-24T12:42:54.990Z</time>
      </trkpt>
      <trkpt lat="42.605014" lon="-6.789197">
        <ele>581.414136843194</ele>
        <time>2018-07-24T12:42:56.990Z</time>
      </trkpt>
      <trkpt lat="42.605028" lon="-6.789328">
        <ele>581</ele>
        <time>2018-07-24T12:42:58.990Z</time>
      </trkpt>
      <trkpt lat="42.605037" lon="-6.78946">
        <ele>581</ele>
        <time>2018-07-24T12:43:01.000Z</time>
      </trkpt>
      <trkpt lat="42.60506" lon="-6.789584">
        <ele>580.4099968</ele>
        <time>2018-07-24T12:43:02.990Z</time>
      </trkpt>
      <trkpt lat="42.605078" lon="-6.78971">
        <ele>580</ele>
        <time>2018-07-24T12:43:04.990Z</time>
      </trkpt>
      <trkpt lat="42.605084" lon="-6.789845">
        <ele>580</ele>
        <time>2018-07-24T12:43:06.990Z</time>
      </trkpt>
      <trkpt lat="42.60511" lon="-6.789986">
        <ele>580</ele>
        <time>2018-07-24T12:43:08.990Z</time>
      </trkpt>
      <trkpt lat="42.605158" lon="-6.790132">
        <ele>578.4</ele>
        <time>2018-07-24T12:43:11.000Z</time>
      </trkpt>
      <trkpt lat="42.605206" lon="-6.790286">
        <ele>576.4099968</ele>
        <time>2018-07-24T12:43:12.990Z</time>
      </trkpt>
      <trkpt lat="42.605269" lon="-6.790434">
        <ele>574.4099968</ele>
        <time>2018-07-24T12:43:14.990Z</time>
      </trkpt>
      <trkpt lat="42.605302" lon="-6.790583">
        <ele>574</ele>
        <time>2018-07-24T12:43:16.990Z</time>
      </trkpt>
      <trkpt lat="42.605284" lon="-6.790733">
        <ele>573</ele>
        <time>2018-07-24T12:43:18.990Z</time>
      </trkpt>
      <trkpt lat="42.605259" lon="-6.790856">
        <ele>572.4</ele>
        <time>2018-07-24T12:43:21.000Z</time>
      </trkpt>
      <trkpt lat="42.605212" lon="-6.79098">
        <ele>572</ele>
        <time>2018-07-24T12:43:22.990Z</time>
      </trkpt>
      <trkpt lat="42.605157" lon="-6.791097">
        <ele>572</ele>
        <time>2018-07-24T12:43:24.990Z</time>
      </trkpt>
      <trkpt lat="42.605096" lon="-6.791192">
        <ele>572</ele>
        <time>2018-07-24T12:43:26.990Z</time>
      </trkpt>
      <trkpt lat="42.605005" lon="-6.79132">
        <ele>572</ele>
        <time>2018-07-24T12:43:29.990Z</time>
      </trkpt>
      <trkpt lat="42.60494" lon="-6.791432">
        <ele>573</ele>
        <time>2018-07-24T12:43:32.990Z</time>
      </trkpt>
      <trkpt lat="42.604859" lon="-6.79157">
        <ele>573</ele>
        <time>2018-07-24T12:43:36.000Z</time>
      </trkpt>
      <trkpt lat="42.604795" lon="-6.7917">
        <ele>572</ele>
        <time>2018-07-24T12:43:37.990Z</time>
      </trkpt>
      <trkpt lat="42.604752" lon="-6.791852">
        <ele>571.542632043738</ele>
        <time>2018-07-24T12:43:39.990Z</time>
      </trkpt>
      <trkpt lat="42.604728" lon="-6.791972">
        <ele>570</ele>
        <time>2018-07-24T12:43:41.990Z</time>
      </trkpt>
      <trkpt lat="42.604723" lon="-6.792133">
        <ele>571</ele>
        <time>2018-07-24T12:43:44.990Z</time>
      </trkpt>
      <trkpt lat="42.604718" lon="-6.792286">
        <ele>571</ele>
        <time>2018-07-24T12:43:47.990Z</time>
      </trkpt>
      <trkpt lat="42.60472" lon="-6.792438">
        <ele>572.458014148362</ele>
        <time>2018-07-24T12:43:51.000Z</time>
      </trkpt>
      <trkpt lat="42.604728" lon="-6.792565">
        <ele>573</ele>
        <time>2018-07-24T12:43:53.990Z</time>
      </trkpt>
      <trkpt lat="42.604729" lon="-6.792724">
        <ele>573</ele>
        <time>2018-07-24T12:43:57.990Z</time>
      </trkpt>
      <trkpt lat="42.60474" lon="-6.792894">
        <ele>574</ele>
        <time>2018-07-24T12:44:01.990Z</time>
      </trkpt>
      <trkpt lat="42.604752" lon="-6.793038">
        <ele>575</ele>
        <time>2018-07-24T12:44:04.990Z</time>
      </trkpt>
      <trkpt lat="42.60477" lon="-6.793181">
        <ele>575</ele>
        <time>2018-07-24T12:44:07.990Z</time>
      </trkpt>
      <trkpt lat="42.604774" lon="-6.793339">
        <ele>575</ele>
        <time>2018-07-24T12:44:11.000Z</time>
      </trkpt>
      <trkpt lat="42.60478" lon="-6.793488">
        <ele>575</ele>
        <time>2018-07-24T12:44:13.990Z</time>
      </trkpt>
      <trkpt lat="42.604784" lon="-6.793634">
        <ele>576</ele>
        <time>2018-07-24T12:44:16.990Z</time>
      </trkpt>
      <trkpt lat="42.604766" lon="-6.793788">
        <ele>577</ele>
        <time>2018-07-24T12:44:21.000Z</time>
      </trkpt>
      <trkpt lat="42.604782" lon="-6.793916">
        <ele>578</ele>
        <time>2018-07-24T12:44:24.990Z</time>
      </trkpt>
      <trkpt lat="42.604786" lon="-6.794063">
        <ele>579</ele>
        <time>2018-07-24T12:44:29.990Z</time>
      </trkpt>
      <trkpt lat="42.604796" lon="-6.794184">
        <ele>580</ele>
        <time>2018-07-24T12:44:33.990Z</time>
      </trkpt>
      <trkpt lat="42.604806" lon="-6.794312">
        <ele>580</ele>
        <time>2018-07-24T12:44:38.990Z</time>
      </trkpt>
      <trkpt lat="42.604794" lon="-6.794464">
        <ele>581</ele>
        <time>2018-07-24T12:44:43.990Z</time>
      </trkpt>
      <trkpt lat="42.604798" lon="-6.794591">
        <ele>582</ele>
        <time>2018-07-24T12:44:47.990Z</time>
      </trkpt>
      <trkpt lat="42.604796" lon="-6.79472">
        <ele>582</ele>
        <time>2018-07-24T12:44:51.990Z</time>
      </trkpt>
      <trkpt lat="42.604788" lon="-6.794846">
        <ele>582.6</ele>
        <time>2018-07-24T12:44:56.000Z</time>
      </trkpt>
      <trkpt lat="42.604786" lon="-6.794983">
        <ele>583</ele>
        <time>2018-07-24T12:44:59.990Z</time>
      </trkpt>
      <trkpt lat="42.604769" lon="-6.795124">
        <ele>584</ele>
        <time>2018-07-24T12:45:06.000Z</time>
      </trkpt>
      <trkpt lat="42.604784" lon="-6.795268">
        <ele>584</ele>
        <time>2018-07-24T12:45:11.990Z</time>
      </trkpt>
      <trkpt lat="42.604764" lon="-6.795425">
        <ele>584</ele>
        <time>2018-07-24T12:45:16.000Z</time>
      </trkpt>
      <trkpt lat="42.604759" lon="-6.795566">
        <ele>583.5900032</ele>
        <time>2018-07-24T12:45:18.990Z</time>
      </trkpt>
      <trkpt lat="42.604751" lon="-6.79569">
        <ele>584</ele>
        <time>2018-07-24T12:45:21.000Z</time>
      </trkpt>
      <trkpt lat="42.604741" lon="-6.795848">
        <ele>583</ele>
        <time>2018-07-24T12:45:22.990Z</time>
      </trkpt>
      <trkpt lat="42.604734" lon="-6.796026">
        <ele>582.4099968</ele>
        <time>2018-07-24T12:45:24.990Z</time>
      </trkpt>
      <trkpt lat="42.604731" lon="-6.796222">
        <ele>581</ele>
        <time>2018-07-24T12:45:26.990Z</time>
      </trkpt>
      <trkpt lat="42.604717" lon="-6.796438">
        <ele>579.549616978035</ele>
        <time>2018-07-24T12:45:28.990Z</time>
      </trkpt>
      <trkpt lat="42.604656" lon="-6.796654">
        <ele>578.4</ele>
        <time>2018-07-24T12:45:31.000Z</time>
      </trkpt>
      <trkpt lat="42.60457" lon="-6.796833">
        <ele>576.4099968</ele>
        <time>2018-07-24T12:45:32.990Z</time>
      </trkpt>
      <trkpt lat="42.604478" lon="-6.797002">
        <ele>575.4099968</ele>
        <time>2018-07-24T12:45:34.990Z</time>
      </trkpt>
      <trkpt lat="42.60439" lon="-6.797184">
        <ele>575</ele>
        <time>2018-07-24T12:45:36.990Z</time>
      </trkpt>
      <trkpt lat="42.604322" lon="-6.797374">
        <ele>574</ele>
        <time>2018-07-24T12:45:38.990Z</time>
      </trkpt>
      <trkpt lat="42.604254" lon="-6.797547">
        <ele>573</ele>
        <time>2018-07-24T12:45:41.000Z</time>
      </trkpt>
      <trkpt lat="42.604181" lon="-6.797706">
        <ele>572.553027878788</ele>
        <time>2018-07-24T12:45:42.990Z</time>
      </trkpt>
      <trkpt lat="42.604111" lon="-6.797848">
        <ele>572</ele>
        <time>2018-07-24T12:45:44.990Z</time>
      </trkpt>
      <trkpt lat="42.604045" lon="-6.798022">
        <ele>571.4099968</ele>
        <time>2018-07-24T12:45:46.990Z</time>
      </trkpt>
      <trkpt lat="42.603998" lon="-6.79823">
        <ele>570.549616978035</ele>
        <time>2018-07-24T12:45:48.990Z</time>
      </trkpt>
      <trkpt lat="42.60396" lon="-6.798451">
        <ele>569</ele>
        <time>2018-07-24T12:45:51.000Z</time>
      </trkpt>
      <trkpt lat="42.603952" lon="-6.798682">
        <ele>568.4099968</ele>
        <time>2018-07-24T12:45:52.990Z</time>
      </trkpt>
      <trkpt lat="42.603968" lon="-6.798902">
        <ele>568</ele>
        <time>2018-07-24T12:45:54.990Z</time>
      </trkpt>
      <trkpt lat="42.603991" lon="-6.799117">
        <ele>568</ele>
        <time>2018-07-24T12:45:56.990Z</time>
      </trkpt>
      <trkpt lat="42.60402" lon="-6.799333">
        <ele>568</ele>
        <time>2018-07-24T12:45:58.990Z</time>
      </trkpt>
      <trkpt lat="42.604043" lon="-6.799546">
        <ele>566.563377742523</ele>
        <time>2018-07-24T12:46:01.000Z</time>
      </trkpt>
      <trkpt lat="42.604064" lon="-6.799738">
        <ele>565.553027878788</ele>
        <time>2018-07-24T12:46:02.990Z</time>
      </trkpt>
      <trkpt lat="42.604077" lon="-6.799942">
        <ele>565</ele>
        <time>2018-07-24T12:46:04.990Z</time>
      </trkpt>
      <trkpt lat="42.604089" lon="-6.800146">
        <ele>565</ele>
        <time>2018-07-24T12:46:06.990Z</time>
      </trkpt>
      <trkpt lat="42.604104" lon="-6.800354">
        <ele>564.553027878788</ele>
        <time>2018-07-24T12:46:08.990Z</time>
      </trkpt>
      <trkpt lat="42.604124" lon="-6.800567">
        <ele>564</ele>
        <time>2018-07-24T12:46:11.000Z</time>
      </trkpt>
      <trkpt lat="42.604165" lon="-6.800773">
        <ele>563</ele>
        <time>2018-07-24T12:46:12.990Z</time>
      </trkpt>
      <trkpt lat="42.604208" lon="-6.800984">
        <ele>562.553027878788</ele>
        <time>2018-07-24T12:46:14.990Z</time>
      </trkpt>
      <trkpt lat="42.604247" lon="-6.801186">
        <ele>562</ele>
        <time>2018-07-24T12:46:16.990Z</time>
      </trkpt>
      <trkpt lat="42.604292" lon="-6.801387">
        <ele>562</ele>
        <time>2018-07-24T12:46:18.990Z</time>
      </trkpt>
      <trkpt lat="42.604333" lon="-6.801581">
        <ele>561</ele>
        <time>2018-07-24T12:46:21.000Z</time>
      </trkpt>
      <trkpt lat="42.604367" lon="-6.80178">
        <ele>561</ele>
        <time>2018-07-24T12:46:22.990Z</time>
      </trkpt>
      <trkpt lat="42.604409" lon="-6.801962">
        <ele>561</ele>
        <time>2018-07-24T12:46:24.990Z</time>
      </trkpt>
      <trkpt lat="42.604444" lon="-6.802142">
        <ele>561</ele>
        <time>2018-07-24T12:46:26.990Z</time>
      </trkpt>
      <trkpt lat="42.604479" lon="-6.802319">
        <ele>561</ele>
        <time>2018-07-24T12:46:28.990Z</time>
      </trkpt>
      <trkpt lat="42.604502" lon="-6.802499">
        <ele>560</ele>
        <time>2018-07-24T12:46:31.000Z</time>
      </trkpt>
      <trkpt lat="42.604505" lon="-6.802687">
        <ele>558.4099968</ele>
        <time>2018-07-24T12:46:32.990Z</time>
      </trkpt>
      <trkpt lat="42.6045" lon="-6.802869">
        <ele>557.553027878788</ele>
        <time>2018-07-24T12:46:34.990Z</time>
      </trkpt>
      <trkpt lat="42.604485" lon="-6.803065">
        <ele>556</ele>
        <time>2018-07-24T12:46:36.990Z</time>
      </trkpt>
      <trkpt lat="42.604468" lon="-6.803295">
        <ele>556</ele>
        <time>2018-07-24T12:46:38.990Z</time>
      </trkpt>
      <trkpt lat="42.604469" lon="-6.803419">
        <ele>555.4099968</ele>
        <time>2018-07-24T12:46:39.990Z</time>
      </trkpt>
      <trkpt lat="42.60448" lon="-6.803546">
        <ele>554.545454545455</ele>
        <time>2018-07-24T12:46:41.000Z</time>
      </trkpt>
      <trkpt lat="42.604486" lon="-6.803669">
        <ele>553.602936470588</ele>
        <time>2018-07-24T12:46:41.990Z</time>
      </trkpt>
      <trkpt lat="42.604491" lon="-6.803799">
        <ele>553</ele>
        <time>2018-07-24T12:46:42.990Z</time>
      </trkpt>
      <trkpt lat="42.604498" lon="-6.803938">
        <ele>552.4099968</ele>
        <time>2018-07-24T12:46:43.990Z</time>
      </trkpt>
      <trkpt lat="42.604507" lon="-6.80407">
        <ele>552</ele>
        <time>2018-07-24T12:46:44.990Z</time>
      </trkpt>
      <trkpt lat="42.604516" lon="-6.804213">
        <ele>551.4</ele>
        <time>2018-07-24T12:46:46.000Z</time>
      </trkpt>
      <trkpt lat="42.604522" lon="-6.804345">
        <ele>550.553027878788</ele>
        <time>2018-07-24T12:46:46.990Z</time>
      </trkpt>
      <trkpt lat="42.604529" lon="-6.804484">
        <ele>550</ele>
        <time>2018-07-24T12:46:47.990Z</time>
      </trkpt>
      <trkpt lat="42.604537" lon="-6.804618">
        <ele>549.4099968</ele>
        <time>2018-07-24T12:46:48.990Z</time>
      </trkpt>
      <trkpt lat="42.604546" lon="-6.804752">
        <ele>548.4099968</ele>
        <time>2018-07-24T12:46:49.990Z</time>
      </trkpt>
      <trkpt lat="42.60455" lon="-6.804885">
        <ele>548</ele>
        <time>2018-07-24T12:46:51.000Z</time>
      </trkpt>
      <trkpt lat="42.604556" lon="-6.805012">
        <ele>547.546153618936</ele>
        <time>2018-07-24T12:46:51.990Z</time>
      </trkpt>
      <trkpt lat="42.60456" lon="-6.805135">
        <ele>547</ele>
        <time>2018-07-24T12:46:52.990Z</time>
      </trkpt>
      <trkpt lat="42.604568" lon="-6.805257">
        <ele>547.57843813922</ele>
        <time>2018-07-24T12:46:53.990Z</time>
      </trkpt>
      <trkpt lat="42.604573" lon="-6.805493">
        <ele>548</ele>
        <time>2018-07-24T12:46:56.000Z</time>
      </trkpt>
      <trkpt lat="42.604576" lon="-6.80571">
        <ele>547</ele>
        <time>2018-07-24T12:46:57.990Z</time>
      </trkpt>
      <trkpt lat="42.604565" lon="-6.805916">
        <ele>547</ele>
        <time>2018-07-24T12:46:59.990Z</time>
      </trkpt>
      <trkpt lat="42.604532" lon="-6.806119">
        <ele>546</ele>
        <time>2018-07-24T12:47:01.990Z</time>
      </trkpt>
      <trkpt lat="42.604491" lon="-6.806327">
        <ele>545.553027878788</ele>
        <time>2018-07-24T12:47:03.990Z</time>
      </trkpt>
      <trkpt lat="42.604446" lon="-6.80652">
        <ele>544.4</ele>
        <time>2018-07-24T12:47:06.000Z</time>
      </trkpt>
      <trkpt lat="42.604418" lon="-6.806699">
        <ele>544</ele>
        <time>2018-07-24T12:47:07.990Z</time>
      </trkpt>
      <trkpt lat="42.604396" lon="-6.806861">
        <ele>543</ele>
        <time>2018-07-24T12:47:09.990Z</time>
      </trkpt>
      <trkpt lat="42.604384" lon="-6.807023">
        <ele>543</ele>
        <time>2018-07-24T12:47:11.990Z</time>
      </trkpt>
      <trkpt lat="42.604352" lon="-6.807181">
        <ele>542</ele>
        <time>2018-07-24T12:47:13.990Z</time>
      </trkpt>
      <trkpt lat="42.604305" lon="-6.807317">
        <ele>542</ele>
        <time>2018-07-24T12:47:16.000Z</time>
      </trkpt>
      <trkpt lat="42.604266" lon="-6.807486">
        <ele>541</ele>
        <time>2018-07-24T12:47:17.990Z</time>
      </trkpt>
      <trkpt lat="42.604249" lon="-6.807656">
        <ele>539.549616978035</ele>
        <time>2018-07-24T12:47:19.990Z</time>
      </trkpt>
      <trkpt lat="42.604227" lon="-6.807823">
        <ele>538.4099968</ele>
        <time>2018-07-24T12:47:21.990Z</time>
      </trkpt>
      <trkpt lat="42.604214" lon="-6.807989">
        <ele>538</ele>
        <time>2018-07-24T12:47:23.990Z</time>
      </trkpt>
      <trkpt lat="42.604197" lon="-6.808139">
        <ele>537</ele>
        <time>2018-07-24T12:47:26.000Z</time>
      </trkpt>
      <trkpt lat="42.604178" lon="-6.80828">
        <ele>535.549616978035</ele>
        <time>2018-07-24T12:47:28.990Z</time>
      </trkpt>
      <trkpt lat="42.604093" lon="-6.808234">
        <ele>537</ele>
        <time>2018-07-24T12:47:49.990Z</time>
      </trkpt>
      <trkpt lat="42.603996" lon="-6.80824">
        <ele>537</ele>
        <time>2018-07-24T12:48:00.000Z</time>
      </trkpt>
      <trkpt lat="42.603911" lon="-6.808284">
        <ele>537</ele>
        <time>2018-07-24T12:48:38.000Z</time>
      </trkpt>
      <trkpt lat="42.603822" lon="-6.808302">
        <ele>537</ele>
        <time>2018-07-24T12:49:38.990Z</time>
      </trkpt>
      <trkpt lat="42.603909" lon="-6.808266">
        <ele>537</ele>
        <time>2018-07-24T12:50:22.000Z</time>
      </trkpt>
      <trkpt lat="42.604021" lon="-6.808289">
        <ele>537</ele>
        <time>2018-07-24T12:50:27.000Z</time>
      </trkpt>
      <trkpt lat="42.604125" lon="-6.808401">
        <ele>535</ele>
        <time>2018-07-24T12:50:29.990Z</time>
      </trkpt>
      <trkpt lat="42.604155" lon="-6.808518">
        <ele>534</ele>
        <time>2018-07-24T12:50:33.990Z</time>
      </trkpt>
      <trkpt lat="42.604198" lon="-6.808635">
        <ele>533.404039098055</ele>
        <time>2018-07-24T12:51:16.000Z</time>
      </trkpt>
      <trkpt lat="42.60423" lon="-6.808768">
        <ele>531.549616978035</ele>
        <time>2018-07-24T12:51:20.990Z</time>
      </trkpt>
      <trkpt lat="42.604231" lon="-6.808894">
        <ele>531</ele>
        <time>2018-07-24T12:51:23.990Z</time>
      </trkpt>
      <trkpt lat="42.604246" lon="-6.809037">
        <ele>530</ele>
        <time>2018-07-24T12:51:26.990Z</time>
      </trkpt>
      <trkpt lat="42.604273" lon="-6.809184">
        <ele>530</ele>
        <time>2018-07-24T12:51:29.990Z</time>
      </trkpt>
      <trkpt lat="42.604266" lon="-6.80932">
        <ele>528.4</ele>
        <time>2018-07-24T12:51:33.000Z</time>
      </trkpt>
      <trkpt lat="42.604312" lon="-6.809442">
        <ele>528</ele>
        <time>2018-07-24T12:51:38.000Z</time>
      </trkpt>
      <trkpt lat="42.604374" lon="-6.809549">
        <ele>527</ele>
        <time>2018-07-24T12:51:43.990Z</time>
      </trkpt>
      <trkpt lat="42.604457" lon="-6.80967">
        <ele>526</ele>
        <time>2018-07-24T12:51:48.000Z</time>
      </trkpt>
      <trkpt lat="42.604505" lon="-6.809807">
        <ele>525</ele>
        <time>2018-07-24T12:51:51.990Z</time>
      </trkpt>
      <trkpt lat="42.604506" lon="-6.809935">
        <ele>525</ele>
        <time>2018-07-24T12:51:56.990Z</time>
      </trkpt>
      <trkpt lat="42.604466" lon="-6.810046">
        <ele>526</ele>
        <time>2018-07-24T12:52:35.990Z</time>
      </trkpt>
      <trkpt lat="42.604424" lon="-6.810202">
        <ele>526</ele>
        <time>2018-07-24T12:52:42.000Z</time>
      </trkpt>
      <trkpt lat="42.604394" lon="-6.810324">
        <ele>525</ele>
        <time>2018-07-24T12:52:45.000Z</time>
      </trkpt>
      <trkpt lat="42.604364" lon="-6.810472">
        <ele>525</ele>
        <time>2018-07-24T12:52:47.990Z</time>
      </trkpt>
      <trkpt lat="42.604328" lon="-6.810599">
        <ele>525</ele>
        <time>2018-07-24T12:52:49.990Z</time>
      </trkpt>
      <trkpt lat="42.604292" lon="-6.810724">
        <ele>525</ele>
        <time>2018-07-24T12:52:51.990Z</time>
      </trkpt>
      <trkpt lat="42.60433" lon="-6.810882">
        <ele>523.4099968</ele>
        <time>2018-07-24T12:52:54.990Z</time>
      </trkpt>
      <trkpt lat="42.604408" lon="-6.81095">
        <ele>521</ele>
        <time>2018-07-24T12:52:57.990Z</time>
      </trkpt>
      <trkpt lat="42.604517" lon="-6.81101">
        <ele>520</ele>
        <time>2018-07-24T12:53:01.990Z</time>
      </trkpt>
      <trkpt lat="42.60461" lon="-6.811048">
        <ele>518</ele>
        <time>2018-07-24T12:53:06.000Z</time>
      </trkpt>
      <trkpt lat="42.604706" lon="-6.811126">
        <ele>518</ele>
        <time>2018-07-24T12:53:18.000Z</time>
      </trkpt>
      <trkpt lat="42.604808" lon="-6.811187">
        <ele>517</ele>
        <time>2018-07-24T12:53:21.990Z</time>
      </trkpt>
      <trkpt lat="42.604901" lon="-6.81126">
        <ele>516</ele>
        <time>2018-07-24T12:53:27.000Z</time>
      </trkpt>
      <trkpt lat="42.605018" lon="-6.811356">
        <ele>515</ele>
        <time>2018-07-24T12:53:32.000Z</time>
      </trkpt>
      <trkpt lat="42.605151" lon="-6.811351">
        <ele>514</ele>
        <time>2018-07-24T12:53:35.000Z</time>
      </trkpt>
      <trkpt lat="42.605256" lon="-6.811232">
        <ele>514</ele>
        <time>2018-07-24T12:53:37.990Z</time>
      </trkpt>
      <trkpt lat="42.605313" lon="-6.811117">
        <ele>514</ele>
        <time>2018-07-24T12:53:41.990Z</time>
      </trkpt>
      <trkpt lat="42.605361" lon="-6.811013">
        <ele>513</ele>
        <time>2018-07-24T12:53:44.990Z</time>
      </trkpt>
      <trkpt lat="42.60547" lon="-6.8108">
        <ele>512.46094</ele>
        <time>2018-07-24T12:53:50.000Z</time>
      </trkpt>
      <trkpt lat="42.605529" lon="-6.810651">
        <ele>512.4</ele>
        <time>2018-07-24T12:53:53.000Z</time>
      </trkpt>
      <trkpt lat="42.605454" lon="-6.810543">
        <ele>511</ele>
        <time>2018-07-24T12:53:55.990Z</time>
      </trkpt>
      <trkpt lat="42.605453" lon="-6.81041">
        <ele>511</ele>
        <time>2018-07-24T12:53:59.000Z</time>
      </trkpt>
      <trkpt lat="42.605533" lon="-6.81031">
        <ele>511</ele>
        <time>2018-07-24T12:54:01.990Z</time>
      </trkpt>
      <trkpt lat="42.60562" lon="-6.810208">
        <ele>511</ele>
        <time>2018-07-24T12:54:05.990Z</time>
      </trkpt>
      <trkpt lat="42.605715" lon="-6.810125">
        <ele>510</ele>
        <time>2018-07-24T12:54:10.990Z</time>
      </trkpt>
      <trkpt lat="42.605805" lon="-6.810139">
        <ele>510</ele>
        <time>2018-07-24T12:54:16.000Z</time>
      </trkpt>
      <trkpt lat="42.605912" lon="-6.810129">
        <ele>511</ele>
        <time>2018-07-24T12:54:20.000Z</time>
      </trkpt>
      <trkpt lat="42.605996" lon="-6.810067">
        <ele>511</ele>
        <time>2018-07-24T12:54:24.000Z</time>
      </trkpt>
      <trkpt lat="42.606046" lon="-6.809961">
        <ele>512</ele>
        <time>2018-07-24T12:54:28.000Z</time>
      </trkpt>
      <trkpt lat="42.606125" lon="-6.809819">
        <ele>512</ele>
        <time>2018-07-24T12:54:31.000Z</time>
      </trkpt>
      <trkpt lat="42.60621" lon="-6.809692">
        <ele>513</ele>
        <time>2018-07-24T12:54:34.000Z</time>
      </trkpt>
      <trkpt lat="42.606285" lon="-6.809596">
        <ele>514</ele>
        <time>2018-07-24T12:54:37.990Z</time>
      </trkpt>
      <trkpt lat="42.606331" lon="-6.809471">
        <ele>514</ele>
        <time>2018-07-24T12:54:42.990Z</time>
      </trkpt>
      <trkpt lat="42.606409" lon="-6.809398">
        <ele>514</ele>
        <time>2018-07-24T12:54:46.000Z</time>
      </trkpt>
      <trkpt lat="42.606501" lon="-6.809336">
        <ele>514</ele>
        <time>2018-07-24T12:54:51.990Z</time>
      </trkpt>
      <trkpt lat="42.606586" lon="-6.809245">
        <ele>514</ele>
        <time>2018-07-24T12:54:57.990Z</time>
      </trkpt>
      <trkpt lat="42.606606" lon="-6.80912">
        <ele>514</ele>
        <time>2018-07-24T12:55:04.990Z</time>
      </trkpt>
    </trkseg>
  </trk>
</gpx>
